<?xml version="1.0" encoding="UTF-8" standalone="no" ?>
<gpx xmlns="http://www.topografix.com/GPX/1/1" xmlns:xsi="http://www.w3.org/2001/XMLSchema-instance" xsi:schemaLocation="http://www.topografix.com/GPX/1/1 http://www.topografix.com/GPX/1/1/gpx.xsd" version="1.1" creator="VisuGPX - https://www.visugpx.com">
  <metadata>
    <name>[25/05/2017] Tour de Pierre sur Haute</name>
    <desc><![CDATA[Séjour VTT SpeedEure.
Départ du VVF de St Jean la Vêtre]]></desc>
  </metadata>
  <trk>
    <name><![CDATA[[25/05/2017] Tour de Pierre sur Haute_1]]></name>
    <trkseg>
      <trkpt lat="45.77607" lon="3.80709">
        <ele>918.348267</ele>
        <time>2017-05-25T06:53:40Z</time>
      </trkpt>
      <trkpt lat="45.77607" lon="3.80709">
        <ele>918.348267</ele>
        <time>2017-05-25T06:53:41Z</time>
      </trkpt>
      <trkpt lat="45.77601" lon="3.80697">
        <ele>918.792847</ele>
        <time>2017-05-25T06:53:50Z</time>
      </trkpt>
      <trkpt lat="45.77595" lon="3.80687">
        <ele>919.110474</ele>
        <time>2017-05-25T06:53:55Z</time>
      </trkpt>
      <trkpt lat="45.77589" lon="3.80676">
        <ele>919.468994</ele>
        <time>2017-05-25T06:54:00Z</time>
      </trkpt>
      <trkpt lat="45.77581" lon="3.80667">
        <ele>920.159546</ele>
        <time>2017-05-25T06:54:05Z</time>
      </trkpt>
      <trkpt lat="45.77574" lon="3.80656">
        <ele>921.136353</ele>
        <time>2017-05-25T06:54:11Z</time>
      </trkpt>
      <trkpt lat="45.77567" lon="3.80647">
        <ele>922.249512</ele>
        <time>2017-05-25T06:54:17Z</time>
      </trkpt>
      <trkpt lat="45.77561" lon="3.80637">
        <ele>922.832214</ele>
        <time>2017-05-25T06:54:22Z</time>
      </trkpt>
      <trkpt lat="45.77556" lon="3.80624">
        <ele>924.009399</ele>
        <time>2017-05-25T06:54:28Z</time>
      </trkpt>
      <trkpt lat="45.7755" lon="3.80611">
        <ele>924.81189</ele>
        <time>2017-05-25T06:54:34Z</time>
      </trkpt>
      <trkpt lat="45.77547" lon="3.80597">
        <ele>925.400024</ele>
        <time>2017-05-25T06:54:40Z</time>
      </trkpt>
      <trkpt lat="45.77543" lon="3.80584">
        <ele>926.200012</ele>
        <time>2017-05-25T06:54:45Z</time>
      </trkpt>
      <trkpt lat="45.7754" lon="3.80571">
        <ele>926.900024</ele>
        <time>2017-05-25T06:54:51Z</time>
      </trkpt>
      <trkpt lat="45.77538" lon="3.80558">
        <ele>927.700012</ele>
        <time>2017-05-25T06:54:56Z</time>
      </trkpt>
      <trkpt lat="45.77536" lon="3.80543">
        <ele>928.400024</ele>
        <time>2017-05-25T06:55:01Z</time>
      </trkpt>
      <trkpt lat="45.77532" lon="3.80528">
        <ele>928.700012</ele>
        <time>2017-05-25T06:55:06Z</time>
      </trkpt>
      <trkpt lat="45.7753" lon="3.80515">
        <ele>928.900024</ele>
        <time>2017-05-25T06:55:10Z</time>
      </trkpt>
      <trkpt lat="45.77528" lon="3.80502">
        <ele>929</ele>
        <time>2017-05-25T06:55:14Z</time>
      </trkpt>
      <trkpt lat="45.77526" lon="3.80487">
        <ele>929.099976</ele>
        <time>2017-05-25T06:55:19Z</time>
      </trkpt>
      <trkpt lat="45.77525" lon="3.80473">
        <ele>929.5</ele>
        <time>2017-05-25T06:55:24Z</time>
      </trkpt>
      <trkpt lat="45.77526" lon="3.80458">
        <ele>930.099976</ele>
        <time>2017-05-25T06:55:29Z</time>
      </trkpt>
      <trkpt lat="45.77529" lon="3.80444">
        <ele>930.799988</ele>
        <time>2017-05-25T06:55:35Z</time>
      </trkpt>
      <trkpt lat="45.7753" lon="3.80431">
        <ele>931.799988</ele>
        <time>2017-05-25T06:55:40Z</time>
      </trkpt>
      <trkpt lat="45.77531" lon="3.80417">
        <ele>932.900024</ele>
        <time>2017-05-25T06:55:47Z</time>
      </trkpt>
      <trkpt lat="45.7753" lon="3.80402">
        <ele>933.599976</ele>
        <time>2017-05-25T06:55:53Z</time>
      </trkpt>
      <trkpt lat="45.77528" lon="3.80387">
        <ele>934.400024</ele>
        <time>2017-05-25T06:56:00Z</time>
      </trkpt>
      <trkpt lat="45.77528" lon="3.80373">
        <ele>935</ele>
        <time>2017-05-25T06:56:05Z</time>
      </trkpt>
      <trkpt lat="45.77525" lon="3.8036">
        <ele>936</ele>
        <time>2017-05-25T06:56:11Z</time>
      </trkpt>
      <trkpt lat="45.77526" lon="3.80347">
        <ele>936.599976</ele>
        <time>2017-05-25T06:56:16Z</time>
      </trkpt>
      <trkpt lat="45.77526" lon="3.80331">
        <ele>937.700012</ele>
        <time>2017-05-25T06:56:22Z</time>
      </trkpt>
      <trkpt lat="45.77527" lon="3.80318">
        <ele>938.599976</ele>
        <time>2017-05-25T06:56:27Z</time>
      </trkpt>
      <trkpt lat="45.77527" lon="3.80305">
        <ele>939.299988</ele>
        <time>2017-05-25T06:56:32Z</time>
      </trkpt>
      <trkpt lat="45.77526" lon="3.80291">
        <ele>939.799988</ele>
        <time>2017-05-25T06:56:37Z</time>
      </trkpt>
      <trkpt lat="45.77527" lon="3.80276">
        <ele>940.5</ele>
        <time>2017-05-25T06:56:42Z</time>
      </trkpt>
      <trkpt lat="45.77526" lon="3.8026">
        <ele>941.099976</ele>
        <time>2017-05-25T06:56:47Z</time>
      </trkpt>
      <trkpt lat="45.77526" lon="3.80246">
        <ele>941.599976</ele>
        <time>2017-05-25T06:56:52Z</time>
      </trkpt>
      <trkpt lat="45.77523" lon="3.80232">
        <ele>941.900024</ele>
        <time>2017-05-25T06:56:57Z</time>
      </trkpt>
      <trkpt lat="45.7752" lon="3.80217">
        <ele>942.299988</ele>
        <time>2017-05-25T06:57:02Z</time>
      </trkpt>
      <trkpt lat="45.77516" lon="3.80202">
        <ele>942.299988</ele>
        <time>2017-05-25T06:57:06Z</time>
      </trkpt>
      <trkpt lat="45.77511" lon="3.80189">
        <ele>942.200012</ele>
        <time>2017-05-25T06:57:09Z</time>
      </trkpt>
      <trkpt lat="45.77507" lon="3.80174">
        <ele>942</ele>
        <time>2017-05-25T06:57:13Z</time>
      </trkpt>
      <trkpt lat="45.77503" lon="3.80162">
        <ele>941.900024</ele>
        <time>2017-05-25T06:57:16Z</time>
      </trkpt>
      <trkpt lat="45.77499" lon="3.8015">
        <ele>941.799988</ele>
        <time>2017-05-25T06:57:19Z</time>
      </trkpt>
      <trkpt lat="45.77495" lon="3.80139">
        <ele>941.799988</ele>
        <time>2017-05-25T06:57:22Z</time>
      </trkpt>
      <trkpt lat="45.7749" lon="3.80124">
        <ele>941.799988</ele>
        <time>2017-05-25T06:57:26Z</time>
      </trkpt>
      <trkpt lat="45.77485" lon="3.80113">
        <ele>941.900024</ele>
        <time>2017-05-25T06:57:29Z</time>
      </trkpt>
      <trkpt lat="45.77481" lon="3.80102">
        <ele>941.799988</ele>
        <time>2017-05-25T06:57:32Z</time>
      </trkpt>
      <trkpt lat="45.77476" lon="3.80091">
        <ele>941.900024</ele>
        <time>2017-05-25T06:57:35Z</time>
      </trkpt>
      <trkpt lat="45.77471" lon="3.8008">
        <ele>942</ele>
        <time>2017-05-25T06:57:38Z</time>
      </trkpt>
      <trkpt lat="45.77465" lon="3.80065">
        <ele>942.400024</ele>
        <time>2017-05-25T06:57:42Z</time>
      </trkpt>
      <trkpt lat="45.77461" lon="3.80053">
        <ele>942.900024</ele>
        <time>2017-05-25T06:57:46Z</time>
      </trkpt>
      <trkpt lat="45.77457" lon="3.80038">
        <ele>943.099976</ele>
        <time>2017-05-25T06:57:50Z</time>
      </trkpt>
      <trkpt lat="45.77454" lon="3.80024">
        <ele>943.299988</ele>
        <time>2017-05-25T06:57:54Z</time>
      </trkpt>
      <trkpt lat="45.7745" lon="3.80011">
        <ele>943.900024</ele>
        <time>2017-05-25T06:57:59Z</time>
      </trkpt>
      <trkpt lat="45.77448" lon="3.79998">
        <ele>944.400024</ele>
        <time>2017-05-25T06:58:04Z</time>
      </trkpt>
      <trkpt lat="45.77444" lon="3.79983">
        <ele>945</ele>
        <time>2017-05-25T06:58:09Z</time>
      </trkpt>
      <trkpt lat="45.77439" lon="3.79971">
        <ele>945.599976</ele>
        <time>2017-05-25T06:58:14Z</time>
      </trkpt>
      <trkpt lat="45.77433" lon="3.79959">
        <ele>946.400024</ele>
        <time>2017-05-25T06:58:19Z</time>
      </trkpt>
      <trkpt lat="45.77426" lon="3.7995">
        <ele>947.599976</ele>
        <time>2017-05-25T06:58:26Z</time>
      </trkpt>
      <trkpt lat="45.77418" lon="3.79944">
        <ele>948.099976</ele>
        <time>2017-05-25T06:58:31Z</time>
      </trkpt>
      <trkpt lat="45.77408" lon="3.79936">
        <ele>948.799988</ele>
        <time>2017-05-25T06:58:36Z</time>
      </trkpt>
      <trkpt lat="45.77399" lon="3.7993">
        <ele>949.700012</ele>
        <time>2017-05-25T06:58:41Z</time>
      </trkpt>
      <trkpt lat="45.77389" lon="3.79925">
        <ele>951</ele>
        <time>2017-05-25T06:58:47Z</time>
      </trkpt>
      <trkpt lat="45.7738" lon="3.7992">
        <ele>951.900024</ele>
        <time>2017-05-25T06:58:52Z</time>
      </trkpt>
      <trkpt lat="45.77372" lon="3.79916">
        <ele>952.799988</ele>
        <time>2017-05-25T06:58:57Z</time>
      </trkpt>
      <trkpt lat="45.77362" lon="3.79911">
        <ele>953.799988</ele>
        <time>2017-05-25T06:59:02Z</time>
      </trkpt>
      <trkpt lat="45.77352" lon="3.79907">
        <ele>954.900024</ele>
        <time>2017-05-25T06:59:07Z</time>
      </trkpt>
      <trkpt lat="45.77342" lon="3.79903">
        <ele>955.900024</ele>
        <time>2017-05-25T06:59:12Z</time>
      </trkpt>
      <trkpt lat="45.77333" lon="3.79897">
        <ele>956.400024</ele>
        <time>2017-05-25T06:59:16Z</time>
      </trkpt>
      <trkpt lat="45.77324" lon="3.7989">
        <ele>956.900024</ele>
        <time>2017-05-25T06:59:20Z</time>
      </trkpt>
      <trkpt lat="45.77315" lon="3.79884">
        <ele>957.099976</ele>
        <time>2017-05-25T06:59:24Z</time>
      </trkpt>
      <trkpt lat="45.77306" lon="3.79877">
        <ele>957.200012</ele>
        <time>2017-05-25T06:59:28Z</time>
      </trkpt>
      <trkpt lat="45.77296" lon="3.79871">
        <ele>957.5</ele>
        <time>2017-05-25T06:59:32Z</time>
      </trkpt>
      <trkpt lat="45.77287" lon="3.79865">
        <ele>957.799988</ele>
        <time>2017-05-25T06:59:36Z</time>
      </trkpt>
      <trkpt lat="45.77279" lon="3.79856">
        <ele>958.099976</ele>
        <time>2017-05-25T06:59:40Z</time>
      </trkpt>
      <trkpt lat="45.77271" lon="3.79844">
        <ele>958.299988</ele>
        <time>2017-05-25T06:59:44Z</time>
      </trkpt>
      <trkpt lat="45.77264" lon="3.7983">
        <ele>958.299988</ele>
        <time>2017-05-25T06:59:48Z</time>
      </trkpt>
      <trkpt lat="45.77258" lon="3.79816">
        <ele>958.400024</ele>
        <time>2017-05-25T06:59:52Z</time>
      </trkpt>
      <trkpt lat="45.77253" lon="3.79803">
        <ele>958.599976</ele>
        <time>2017-05-25T06:59:56Z</time>
      </trkpt>
      <trkpt lat="45.77245" lon="3.79792">
        <ele>958.700012</ele>
        <time>2017-05-25T06:59:59Z</time>
      </trkpt>
      <trkpt lat="45.77237" lon="3.79785">
        <ele>958.599976</ele>
        <time>2017-05-25T07:00:02Z</time>
      </trkpt>
      <trkpt lat="45.77229" lon="3.79774">
        <ele>959</ele>
        <time>2017-05-25T07:00:06Z</time>
      </trkpt>
      <trkpt lat="45.77222" lon="3.79762">
        <ele>959.299988</ele>
        <time>2017-05-25T07:00:10Z</time>
      </trkpt>
      <trkpt lat="45.77215" lon="3.7975">
        <ele>959.400024</ele>
        <time>2017-05-25T07:00:14Z</time>
      </trkpt>
      <trkpt lat="45.7721" lon="3.79737">
        <ele>959.700012</ele>
        <time>2017-05-25T07:00:18Z</time>
      </trkpt>
      <trkpt lat="45.77206" lon="3.79724">
        <ele>960.200012</ele>
        <time>2017-05-25T07:00:22Z</time>
      </trkpt>
      <trkpt lat="45.77202" lon="3.79711">
        <ele>960.900024</ele>
        <time>2017-05-25T07:00:26Z</time>
      </trkpt>
      <trkpt lat="45.77197" lon="3.79698">
        <ele>961.799988</ele>
        <time>2017-05-25T07:00:31Z</time>
      </trkpt>
      <trkpt lat="45.77191" lon="3.79686">
        <ele>962.700012</ele>
        <time>2017-05-25T07:00:36Z</time>
      </trkpt>
      <trkpt lat="45.77185" lon="3.79674">
        <ele>963.599976</ele>
        <time>2017-05-25T07:00:41Z</time>
      </trkpt>
      <trkpt lat="45.77179" lon="3.79663">
        <ele>964.599976</ele>
        <time>2017-05-25T07:00:46Z</time>
      </trkpt>
      <trkpt lat="45.77172" lon="3.79652">
        <ele>965.599976</ele>
        <time>2017-05-25T07:00:51Z</time>
      </trkpt>
      <trkpt lat="45.77167" lon="3.79641">
        <ele>966.599976</ele>
        <time>2017-05-25T07:00:56Z</time>
      </trkpt>
      <trkpt lat="45.77162" lon="3.79631">
        <ele>967.700012</ele>
        <time>2017-05-25T07:01:01Z</time>
      </trkpt>
      <trkpt lat="45.77155" lon="3.79619">
        <ele>969</ele>
        <time>2017-05-25T07:01:07Z</time>
      </trkpt>
      <trkpt lat="45.77149" lon="3.79608">
        <ele>970.599976</ele>
        <time>2017-05-25T07:01:13Z</time>
      </trkpt>
      <trkpt lat="45.77141" lon="3.79596">
        <ele>972</ele>
        <time>2017-05-25T07:01:19Z</time>
      </trkpt>
      <trkpt lat="45.77131" lon="3.79601">
        <ele>974.099976</ele>
        <time>2017-05-25T07:01:27Z</time>
      </trkpt>
      <trkpt lat="45.77126" lon="3.79614">
        <ele>975.5</ele>
        <time>2017-05-25T07:01:34Z</time>
      </trkpt>
      <trkpt lat="45.77121" lon="3.79625">
        <ele>976.200012</ele>
        <time>2017-05-25T07:01:40Z</time>
      </trkpt>
      <trkpt lat="45.77115" lon="3.79637">
        <ele>976.799988</ele>
        <time>2017-05-25T07:01:45Z</time>
      </trkpt>
      <trkpt lat="45.77107" lon="3.79647">
        <ele>977.200012</ele>
        <time>2017-05-25T07:01:50Z</time>
      </trkpt>
      <trkpt lat="45.771" lon="3.79656">
        <ele>977.5</ele>
        <time>2017-05-25T07:01:54Z</time>
      </trkpt>
      <trkpt lat="45.77092" lon="3.79665">
        <ele>977.599976</ele>
        <time>2017-05-25T07:01:59Z</time>
      </trkpt>
      <trkpt lat="45.77084" lon="3.79674">
        <ele>977.900024</ele>
        <time>2017-05-25T07:02:03Z</time>
      </trkpt>
      <trkpt lat="45.77074" lon="3.79683">
        <ele>977.900024</ele>
        <time>2017-05-25T07:02:07Z</time>
      </trkpt>
      <trkpt lat="45.77063" lon="3.79689">
        <ele>978.400024</ele>
        <time>2017-05-25T07:02:11Z</time>
      </trkpt>
      <trkpt lat="45.77054" lon="3.79691">
        <ele>978.799988</ele>
        <time>2017-05-25T07:02:15Z</time>
      </trkpt>
      <trkpt lat="45.77043" lon="3.79692">
        <ele>979.299988</ele>
        <time>2017-05-25T07:02:19Z</time>
      </trkpt>
      <trkpt lat="45.77033" lon="3.79693">
        <ele>979.700012</ele>
        <time>2017-05-25T07:02:23Z</time>
      </trkpt>
      <trkpt lat="45.77022" lon="3.79693">
        <ele>980</ele>
        <time>2017-05-25T07:02:27Z</time>
      </trkpt>
      <trkpt lat="45.77011" lon="3.79695">
        <ele>980.299988</ele>
        <time>2017-05-25T07:02:31Z</time>
      </trkpt>
      <trkpt lat="45.77001" lon="3.79696">
        <ele>980.200012</ele>
        <time>2017-05-25T07:02:34Z</time>
      </trkpt>
      <trkpt lat="45.76991" lon="3.79691">
        <ele>980.200012</ele>
        <time>2017-05-25T07:02:37Z</time>
      </trkpt>
      <trkpt lat="45.76983" lon="3.79683">
        <ele>980</ele>
        <time>2017-05-25T07:02:40Z</time>
      </trkpt>
      <trkpt lat="45.76974" lon="3.79674">
        <ele>980.099976</ele>
        <time>2017-05-25T07:02:44Z</time>
      </trkpt>
      <trkpt lat="45.76964" lon="3.79666">
        <ele>980.299988</ele>
        <time>2017-05-25T07:02:48Z</time>
      </trkpt>
      <trkpt lat="45.76956" lon="3.79657">
        <ele>980.599976</ele>
        <time>2017-05-25T07:02:52Z</time>
      </trkpt>
      <trkpt lat="45.76948" lon="3.79649">
        <ele>981.200012</ele>
        <time>2017-05-25T07:02:57Z</time>
      </trkpt>
      <trkpt lat="45.7694" lon="3.79641">
        <ele>981.799988</ele>
        <time>2017-05-25T07:03:02Z</time>
      </trkpt>
      <trkpt lat="45.7693" lon="3.79636">
        <ele>982.5</ele>
        <time>2017-05-25T07:03:07Z</time>
      </trkpt>
      <trkpt lat="45.76923" lon="3.79628">
        <ele>983.299988</ele>
        <time>2017-05-25T07:03:12Z</time>
      </trkpt>
      <trkpt lat="45.76914" lon="3.79619">
        <ele>983.900024</ele>
        <time>2017-05-25T07:03:16Z</time>
      </trkpt>
      <trkpt lat="45.76905" lon="3.79614">
        <ele>984.200012</ele>
        <time>2017-05-25T07:03:20Z</time>
      </trkpt>
      <trkpt lat="45.76897" lon="3.79608">
        <ele>984.599976</ele>
        <time>2017-05-25T07:03:25Z</time>
      </trkpt>
      <trkpt lat="45.76887" lon="3.79605">
        <ele>985.5</ele>
        <time>2017-05-25T07:03:30Z</time>
      </trkpt>
      <trkpt lat="45.76875" lon="3.79605">
        <ele>986.099976</ele>
        <time>2017-05-25T07:03:34Z</time>
      </trkpt>
      <trkpt lat="45.76866" lon="3.79607">
        <ele>986.599976</ele>
        <time>2017-05-25T07:03:37Z</time>
      </trkpt>
      <trkpt lat="45.76856" lon="3.79611">
        <ele>987.599976</ele>
        <time>2017-05-25T07:03:42Z</time>
      </trkpt>
      <trkpt lat="45.76848" lon="3.79617">
        <ele>988.5</ele>
        <time>2017-05-25T07:03:46Z</time>
      </trkpt>
      <trkpt lat="45.76838" lon="3.79621">
        <ele>989.599976</ele>
        <time>2017-05-25T07:03:50Z</time>
      </trkpt>
      <trkpt lat="45.76829" lon="3.79624">
        <ele>990.400024</ele>
        <time>2017-05-25T07:03:54Z</time>
      </trkpt>
      <trkpt lat="45.76819" lon="3.79627">
        <ele>990.700012</ele>
        <time>2017-05-25T07:03:58Z</time>
      </trkpt>
      <trkpt lat="45.76807" lon="3.79627">
        <ele>990.799988</ele>
        <time>2017-05-25T07:04:02Z</time>
      </trkpt>
      <trkpt lat="45.76796" lon="3.79626">
        <ele>990.799988</ele>
        <time>2017-05-25T07:04:05Z</time>
      </trkpt>
      <trkpt lat="45.76787" lon="3.79623">
        <ele>990.599976</ele>
        <time>2017-05-25T07:04:08Z</time>
      </trkpt>
      <trkpt lat="45.76778" lon="3.79617">
        <ele>990.5</ele>
        <time>2017-05-25T07:04:11Z</time>
      </trkpt>
      <trkpt lat="45.76769" lon="3.79607">
        <ele>990.299988</ele>
        <time>2017-05-25T07:04:15Z</time>
      </trkpt>
      <trkpt lat="45.76759" lon="3.79601">
        <ele>990.299988</ele>
        <time>2017-05-25T07:04:18Z</time>
      </trkpt>
      <trkpt lat="45.76746" lon="3.79598">
        <ele>990.099976</ele>
        <time>2017-05-25T07:04:21Z</time>
      </trkpt>
      <trkpt lat="45.76733" lon="3.79594">
        <ele>990</ele>
        <time>2017-05-25T07:04:24Z</time>
      </trkpt>
      <trkpt lat="45.76721" lon="3.79591">
        <ele>989.400024</ele>
        <time>2017-05-25T07:04:27Z</time>
      </trkpt>
      <trkpt lat="45.76708" lon="3.79587">
        <ele>989</ele>
        <time>2017-05-25T07:04:30Z</time>
      </trkpt>
      <trkpt lat="45.76697" lon="3.79582">
        <ele>988.5</ele>
        <time>2017-05-25T07:04:33Z</time>
      </trkpt>
      <trkpt lat="45.76688" lon="3.79581">
        <ele>988.5</ele>
        <time>2017-05-25T07:04:36Z</time>
      </trkpt>
      <trkpt lat="45.76678" lon="3.7958">
        <ele>988.599976</ele>
        <time>2017-05-25T07:04:39Z</time>
      </trkpt>
      <trkpt lat="45.76668" lon="3.79582">
        <ele>988.400024</ele>
        <time>2017-05-25T07:04:41Z</time>
      </trkpt>
      <trkpt lat="45.76657" lon="3.79585">
        <ele>988.200012</ele>
        <time>2017-05-25T07:04:43Z</time>
      </trkpt>
      <trkpt lat="45.76645" lon="3.79588">
        <ele>987.700012</ele>
        <time>2017-05-25T07:04:45Z</time>
      </trkpt>
      <trkpt lat="45.76633" lon="3.7959">
        <ele>987.400024</ele>
        <time>2017-05-25T07:04:47Z</time>
      </trkpt>
      <trkpt lat="45.76621" lon="3.7959">
        <ele>987</ele>
        <time>2017-05-25T07:04:49Z</time>
      </trkpt>
      <trkpt lat="45.7661" lon="3.79589">
        <ele>986.599976</ele>
        <time>2017-05-25T07:04:51Z</time>
      </trkpt>
      <trkpt lat="45.76599" lon="3.79589">
        <ele>986.200012</ele>
        <time>2017-05-25T07:04:53Z</time>
      </trkpt>
      <trkpt lat="45.76589" lon="3.79591">
        <ele>986</ele>
        <time>2017-05-25T07:04:55Z</time>
      </trkpt>
      <trkpt lat="45.76579" lon="3.79596">
        <ele>985.799988</ele>
        <time>2017-05-25T07:04:58Z</time>
      </trkpt>
      <trkpt lat="45.76571" lon="3.79604">
        <ele>985.400024</ele>
        <time>2017-05-25T07:08:18Z</time>
      </trkpt>
      <trkpt lat="45.76565" lon="3.79614">
        <ele>985.400024</ele>
        <time>2017-05-25T07:08:22Z</time>
      </trkpt>
      <trkpt lat="45.76558" lon="3.79626">
        <ele>985.299988</ele>
        <time>2017-05-25T07:08:26Z</time>
      </trkpt>
      <trkpt lat="45.76549" lon="3.79637">
        <ele>985.400024</ele>
        <time>2017-05-25T07:08:29Z</time>
      </trkpt>
      <trkpt lat="45.76539" lon="3.79645">
        <ele>985.400024</ele>
        <time>2017-05-25T07:08:32Z</time>
      </trkpt>
      <trkpt lat="45.76526" lon="3.79646">
        <ele>985.299988</ele>
        <time>2017-05-25T07:08:35Z</time>
      </trkpt>
      <trkpt lat="45.76517" lon="3.79642">
        <ele>985.299988</ele>
        <time>2017-05-25T07:08:37Z</time>
      </trkpt>
      <trkpt lat="45.76507" lon="3.79636">
        <ele>985.200012</ele>
        <time>2017-05-25T07:08:39Z</time>
      </trkpt>
      <trkpt lat="45.76496" lon="3.7963">
        <ele>985</ele>
        <time>2017-05-25T07:08:41Z</time>
      </trkpt>
      <trkpt lat="45.76485" lon="3.79623">
        <ele>984.799988</ele>
        <time>2017-05-25T07:08:43Z</time>
      </trkpt>
      <trkpt lat="45.76472" lon="3.79613">
        <ele>984.200012</ele>
        <time>2017-05-25T07:08:45Z</time>
      </trkpt>
      <trkpt lat="45.76459" lon="3.79602">
        <ele>983.599976</ele>
        <time>2017-05-25T07:08:47Z</time>
      </trkpt>
      <trkpt lat="45.76448" lon="3.79588">
        <ele>983</ele>
        <time>2017-05-25T07:08:49Z</time>
      </trkpt>
      <trkpt lat="45.76437" lon="3.79574">
        <ele>982.400024</ele>
        <time>2017-05-25T07:08:51Z</time>
      </trkpt>
      <trkpt lat="45.76426" lon="3.79563">
        <ele>982.099976</ele>
        <time>2017-05-25T07:08:53Z</time>
      </trkpt>
      <trkpt lat="45.76416" lon="3.79556">
        <ele>981.700012</ele>
        <time>2017-05-25T07:08:55Z</time>
      </trkpt>
      <trkpt lat="45.76406" lon="3.79556">
        <ele>981.400024</ele>
        <time>2017-05-25T07:08:57Z</time>
      </trkpt>
      <trkpt lat="45.76394" lon="3.79565">
        <ele>981.299988</ele>
        <time>2017-05-25T07:09:00Z</time>
      </trkpt>
      <trkpt lat="45.76385" lon="3.79577">
        <ele>981.200012</ele>
        <time>2017-05-25T07:09:03Z</time>
      </trkpt>
      <trkpt lat="45.76375" lon="3.79592">
        <ele>981.299988</ele>
        <time>2017-05-25T07:09:05Z</time>
      </trkpt>
      <trkpt lat="45.76367" lon="3.79605">
        <ele>981.599976</ele>
        <time>2017-05-25T07:09:07Z</time>
      </trkpt>
      <trkpt lat="45.76363" lon="3.79617">
        <ele>982.799988</ele>
        <time>2017-05-25T07:09:11Z</time>
      </trkpt>
      <trkpt lat="45.76356" lon="3.79628">
        <ele>984.299988</ele>
        <time>2017-05-25T07:09:15Z</time>
      </trkpt>
      <trkpt lat="45.76354" lon="3.79642">
        <ele>985.700012</ele>
        <time>2017-05-25T07:09:20Z</time>
      </trkpt>
      <trkpt lat="45.76358" lon="3.79656">
        <ele>987.5</ele>
        <time>2017-05-25T07:09:26Z</time>
      </trkpt>
      <trkpt lat="45.76359" lon="3.7967">
        <ele>988.400024</ele>
        <time>2017-05-25T07:09:30Z</time>
      </trkpt>
      <trkpt lat="45.7636" lon="3.79683">
        <ele>989.599976</ele>
        <time>2017-05-25T07:09:35Z</time>
      </trkpt>
      <trkpt lat="45.7636" lon="3.79697">
        <ele>990.799988</ele>
        <time>2017-05-25T07:09:40Z</time>
      </trkpt>
      <trkpt lat="45.76358" lon="3.7971">
        <ele>992.400024</ele>
        <time>2017-05-25T07:09:45Z</time>
      </trkpt>
      <trkpt lat="45.76355" lon="3.79722">
        <ele>993.700012</ele>
        <time>2017-05-25T07:09:50Z</time>
      </trkpt>
      <trkpt lat="45.76351" lon="3.79735">
        <ele>994.799988</ele>
        <time>2017-05-25T07:09:54Z</time>
      </trkpt>
      <trkpt lat="45.76345" lon="3.79748">
        <ele>995.900024</ele>
        <time>2017-05-25T07:09:59Z</time>
      </trkpt>
      <trkpt lat="45.7634" lon="3.7976">
        <ele>996.900024</ele>
        <time>2017-05-25T07:10:04Z</time>
      </trkpt>
      <trkpt lat="45.76336" lon="3.79774">
        <ele>997.900024</ele>
        <time>2017-05-25T07:10:09Z</time>
      </trkpt>
      <trkpt lat="45.76335" lon="3.79787">
        <ele>998.5</ele>
        <time>2017-05-25T07:10:13Z</time>
      </trkpt>
      <trkpt lat="45.76334" lon="3.79801">
        <ele>998.700012</ele>
        <time>2017-05-25T07:10:17Z</time>
      </trkpt>
      <trkpt lat="45.76332" lon="3.79816">
        <ele>998.799988</ele>
        <time>2017-05-25T07:10:22Z</time>
      </trkpt>
      <trkpt lat="45.76325" lon="3.79826">
        <ele>998.5</ele>
        <time>2017-05-25T07:10:27Z</time>
      </trkpt>
      <trkpt lat="45.76319" lon="3.79836">
        <ele>998.700012</ele>
        <time>2017-05-25T07:10:54Z</time>
      </trkpt>
      <trkpt lat="45.7631" lon="3.79843">
        <ele>998.599976</ele>
        <time>2017-05-25T07:10:58Z</time>
      </trkpt>
      <trkpt lat="45.76302" lon="3.79851">
        <ele>998.799988</ele>
        <time>2017-05-25T07:11:01Z</time>
      </trkpt>
      <trkpt lat="45.76294" lon="3.79861">
        <ele>998.799988</ele>
        <time>2017-05-25T07:11:04Z</time>
      </trkpt>
      <trkpt lat="45.76286" lon="3.7987">
        <ele>998.900024</ele>
        <time>2017-05-25T07:11:07Z</time>
      </trkpt>
      <trkpt lat="45.76278" lon="3.79881">
        <ele>999.299988</ele>
        <time>2017-05-25T07:11:10Z</time>
      </trkpt>
      <trkpt lat="45.76271" lon="3.79892">
        <ele>999.599976</ele>
        <time>2017-05-25T07:11:13Z</time>
      </trkpt>
      <trkpt lat="45.76265" lon="3.79905">
        <ele>1000.099976</ele>
        <time>2017-05-25T07:11:16Z</time>
      </trkpt>
      <trkpt lat="45.76262" lon="3.79922">
        <ele>1000.200012</ele>
        <time>2017-05-25T07:11:19Z</time>
      </trkpt>
      <trkpt lat="45.76259" lon="3.79936">
        <ele>1000.099976</ele>
        <time>2017-05-25T07:11:21Z</time>
      </trkpt>
      <trkpt lat="45.76258" lon="3.79951">
        <ele>999.900024</ele>
        <time>2017-05-25T07:11:23Z</time>
      </trkpt>
      <trkpt lat="45.76259" lon="3.79966">
        <ele>999.599976</ele>
        <time>2017-05-25T07:11:25Z</time>
      </trkpt>
      <trkpt lat="45.76259" lon="3.79984">
        <ele>999.099976</ele>
        <time>2017-05-25T07:11:27Z</time>
      </trkpt>
      <trkpt lat="45.76259" lon="3.80007">
        <ele>997.900024</ele>
        <time>2017-05-25T07:11:29Z</time>
      </trkpt>
      <trkpt lat="45.76258" lon="3.80027">
        <ele>996.799988</ele>
        <time>2017-05-25T07:11:31Z</time>
      </trkpt>
      <trkpt lat="45.76263" lon="3.8005">
        <ele>995.299988</ele>
        <time>2017-05-25T07:11:34Z</time>
      </trkpt>
      <trkpt lat="45.76259" lon="3.8008">
        <ele>994.599976</ele>
        <time>2017-05-25T07:11:36Z</time>
      </trkpt>
      <trkpt lat="45.76258" lon="3.80094">
        <ele>994.200012</ele>
        <time>2017-05-25T07:11:37Z</time>
      </trkpt>
      <trkpt lat="45.76263" lon="3.80113">
        <ele>993.400024</ele>
        <time>2017-05-25T07:11:39Z</time>
      </trkpt>
      <trkpt lat="45.76269" lon="3.80126">
        <ele>993.200012</ele>
        <time>2017-05-25T07:11:42Z</time>
      </trkpt>
      <trkpt lat="45.76271" lon="3.8014">
        <ele>994.200012</ele>
        <time>2017-05-25T07:11:46Z</time>
      </trkpt>
      <trkpt lat="45.76271" lon="3.80154">
        <ele>995.200012</ele>
        <time>2017-05-25T07:11:50Z</time>
      </trkpt>
      <trkpt lat="45.76274" lon="3.80168">
        <ele>996.299988</ele>
        <time>2017-05-25T07:11:56Z</time>
      </trkpt>
      <trkpt lat="45.76274" lon="3.80181">
        <ele>997.5</ele>
        <time>2017-05-25T07:12:01Z</time>
      </trkpt>
      <trkpt lat="45.76276" lon="3.80194">
        <ele>999</ele>
        <time>2017-05-25T07:12:06Z</time>
      </trkpt>
      <trkpt lat="45.7628" lon="3.80208">
        <ele>1001.700012</ele>
        <time>2017-05-25T07:12:13Z</time>
      </trkpt>
      <trkpt lat="45.76283" lon="3.80222">
        <ele>1004</ele>
        <time>2017-05-25T07:12:19Z</time>
      </trkpt>
      <trkpt lat="45.76287" lon="3.80234">
        <ele>1006.099976</ele>
        <time>2017-05-25T07:12:26Z</time>
      </trkpt>
      <trkpt lat="45.76291" lon="3.80247">
        <ele>1007.900024</ele>
        <time>2017-05-25T07:12:34Z</time>
      </trkpt>
      <trkpt lat="45.76294" lon="3.8026">
        <ele>1009.799988</ele>
        <time>2017-05-25T07:12:42Z</time>
      </trkpt>
      <trkpt lat="45.76295" lon="3.80274">
        <ele>1011.5</ele>
        <time>2017-05-25T07:12:50Z</time>
      </trkpt>
      <trkpt lat="45.76297" lon="3.80288">
        <ele>1013.400024</ele>
        <time>2017-05-25T07:12:59Z</time>
      </trkpt>
      <trkpt lat="45.76299" lon="3.80302">
        <ele>1014.900024</ele>
        <time>2017-05-25T07:13:07Z</time>
      </trkpt>
      <trkpt lat="45.76299" lon="3.80316">
        <ele>1017</ele>
        <time>2017-05-25T07:13:16Z</time>
      </trkpt>
      <trkpt lat="45.763" lon="3.80329">
        <ele>1018.900024</ele>
        <time>2017-05-25T07:13:25Z</time>
      </trkpt>
      <trkpt lat="45.763" lon="3.80342">
        <ele>1020.5</ele>
        <time>2017-05-25T07:13:33Z</time>
      </trkpt>
      <trkpt lat="45.76298" lon="3.80355">
        <ele>1022.200012</ele>
        <time>2017-05-25T07:13:41Z</time>
      </trkpt>
      <trkpt lat="45.7629" lon="3.80365">
        <ele>1024.199951</ele>
        <time>2017-05-25T07:13:49Z</time>
      </trkpt>
      <trkpt lat="45.7628" lon="3.80368">
        <ele>1025.800049</ele>
        <time>2017-05-25T07:13:54Z</time>
      </trkpt>
      <trkpt lat="45.76269" lon="3.80369">
        <ele>1027</ele>
        <time>2017-05-25T07:14:00Z</time>
      </trkpt>
      <trkpt lat="45.76259" lon="3.80368">
        <ele>1027.199951</ele>
        <time>2017-05-25T07:14:05Z</time>
      </trkpt>
      <trkpt lat="45.76248" lon="3.80369">
        <ele>1027.300049</ele>
        <time>2017-05-25T07:14:10Z</time>
      </trkpt>
      <trkpt lat="45.7624" lon="3.80373">
        <ele>1027.300049</ele>
        <time>2017-05-25T07:14:17Z</time>
      </trkpt>
      <trkpt lat="45.7623" lon="3.80374">
        <ele>1027.599976</ele>
        <time>2017-05-25T07:14:44Z</time>
      </trkpt>
      <trkpt lat="45.76223" lon="3.80382">
        <ele>1027.800049</ele>
        <time>2017-05-25T07:15:05Z</time>
      </trkpt>
      <trkpt lat="45.76215" lon="3.80389">
        <ele>1028.099976</ele>
        <time>2017-05-25T07:15:20Z</time>
      </trkpt>
      <trkpt lat="45.76204" lon="3.80401">
        <ele>1028</ele>
        <time>2017-05-25T07:15:29Z</time>
      </trkpt>
      <trkpt lat="45.76196" lon="3.80408">
        <ele>1029.400024</ele>
        <time>2017-05-25T07:15:36Z</time>
      </trkpt>
      <trkpt lat="45.76189" lon="3.80418">
        <ele>1030.400024</ele>
        <time>2017-05-25T07:15:45Z</time>
      </trkpt>
      <trkpt lat="45.76179" lon="3.80425">
        <ele>1031.599976</ele>
        <time>2017-05-25T07:15:51Z</time>
      </trkpt>
      <trkpt lat="45.76171" lon="3.80434">
        <ele>1032.400024</ele>
        <time>2017-05-25T07:15:57Z</time>
      </trkpt>
      <trkpt lat="45.76162" lon="3.80441">
        <ele>1033.800049</ele>
        <time>2017-05-25T07:16:03Z</time>
      </trkpt>
      <trkpt lat="45.76153" lon="3.80447">
        <ele>1035</ele>
        <time>2017-05-25T07:16:09Z</time>
      </trkpt>
      <trkpt lat="45.76144" lon="3.80454">
        <ele>1035.300049</ele>
        <time>2017-05-25T07:16:15Z</time>
      </trkpt>
      <trkpt lat="45.76136" lon="3.80462">
        <ele>1035.800049</ele>
        <time>2017-05-25T07:16:23Z</time>
      </trkpt>
      <trkpt lat="45.76128" lon="3.80472">
        <ele>1036.199951</ele>
        <time>2017-05-25T07:16:27Z</time>
      </trkpt>
      <trkpt lat="45.7612" lon="3.80481">
        <ele>1037.199951</ele>
        <time>2017-05-25T07:16:33Z</time>
      </trkpt>
      <trkpt lat="45.76116" lon="3.80493">
        <ele>1038.400024</ele>
        <time>2017-05-25T07:16:40Z</time>
      </trkpt>
      <trkpt lat="45.76108" lon="3.80502">
        <ele>1039.5</ele>
        <time>2017-05-25T07:16:45Z</time>
      </trkpt>
      <trkpt lat="45.76102" lon="3.80511">
        <ele>1040.300049</ele>
        <time>2017-05-25T07:16:52Z</time>
      </trkpt>
      <trkpt lat="45.76095" lon="3.80521">
        <ele>1041.199951</ele>
        <time>2017-05-25T07:16:56Z</time>
      </trkpt>
      <trkpt lat="45.76088" lon="3.80528">
        <ele>1042.5</ele>
        <time>2017-05-25T07:17:04Z</time>
      </trkpt>
      <trkpt lat="45.76079" lon="3.80535">
        <ele>1043.800049</ele>
        <time>2017-05-25T07:17:13Z</time>
      </trkpt>
      <trkpt lat="45.76072" lon="3.80548">
        <ele>1044.599976</ele>
        <time>2017-05-25T07:17:21Z</time>
      </trkpt>
      <trkpt lat="45.76067" lon="3.80559">
        <ele>1045.400024</ele>
        <time>2017-05-25T07:17:27Z</time>
      </trkpt>
      <trkpt lat="45.76059" lon="3.80569">
        <ele>1046.400024</ele>
        <time>2017-05-25T07:17:33Z</time>
      </trkpt>
      <trkpt lat="45.76053" lon="3.8058">
        <ele>1048.199951</ele>
        <time>2017-05-25T07:17:40Z</time>
      </trkpt>
      <trkpt lat="45.76045" lon="3.80589">
        <ele>1050.099976</ele>
        <time>2017-05-25T07:17:52Z</time>
      </trkpt>
      <trkpt lat="45.76037" lon="3.80596">
        <ele>1051.199951</ele>
        <time>2017-05-25T07:17:59Z</time>
      </trkpt>
      <trkpt lat="45.76027" lon="3.80602">
        <ele>1052.099976</ele>
        <time>2017-05-25T07:18:04Z</time>
      </trkpt>
      <trkpt lat="45.76018" lon="3.8061">
        <ele>1052.900024</ele>
        <time>2017-05-25T07:18:11Z</time>
      </trkpt>
      <trkpt lat="45.76009" lon="3.80614">
        <ele>1054.400024</ele>
        <time>2017-05-25T07:18:19Z</time>
      </trkpt>
      <trkpt lat="45.76" lon="3.80613">
        <ele>1055.199951</ele>
        <time>2017-05-25T07:18:28Z</time>
      </trkpt>
      <trkpt lat="45.75991" lon="3.80609">
        <ele>1055.300049</ele>
        <time>2017-05-25T07:18:39Z</time>
      </trkpt>
      <trkpt lat="45.75982" lon="3.806">
        <ele>1055.900024</ele>
        <time>2017-05-25T07:18:45Z</time>
      </trkpt>
      <trkpt lat="45.75972" lon="3.80596">
        <ele>1056.900024</ele>
        <time>2017-05-25T07:18:52Z</time>
      </trkpt>
      <trkpt lat="45.75962" lon="3.80597">
        <ele>1058</ele>
        <time>2017-05-25T07:19:00Z</time>
      </trkpt>
      <trkpt lat="45.75954" lon="3.80605">
        <ele>1059.300049</ele>
        <time>2017-05-25T07:19:07Z</time>
      </trkpt>
      <trkpt lat="45.75946" lon="3.80611">
        <ele>1060.400024</ele>
        <time>2017-05-25T07:19:13Z</time>
      </trkpt>
      <trkpt lat="45.75939" lon="3.80621">
        <ele>1062.199951</ele>
        <time>2017-05-25T07:19:20Z</time>
      </trkpt>
      <trkpt lat="45.7593" lon="3.80627">
        <ele>1064.300049</ele>
        <time>2017-05-25T07:19:27Z</time>
      </trkpt>
      <trkpt lat="45.75922" lon="3.80632">
        <ele>1066.599976</ele>
        <time>2017-05-25T07:19:34Z</time>
      </trkpt>
      <trkpt lat="45.75911" lon="3.80638">
        <ele>1068.900024</ele>
        <time>2017-05-25T07:19:43Z</time>
      </trkpt>
      <trkpt lat="45.75901" lon="3.8064">
        <ele>1070.800049</ele>
        <time>2017-05-25T07:19:50Z</time>
      </trkpt>
      <trkpt lat="45.75891" lon="3.8064">
        <ele>1072.699951</ele>
        <time>2017-05-25T07:19:58Z</time>
      </trkpt>
      <trkpt lat="45.75882" lon="3.80637">
        <ele>1073.5</ele>
        <time>2017-05-25T07:20:06Z</time>
      </trkpt>
      <trkpt lat="45.75874" lon="3.80631">
        <ele>1074.5</ele>
        <time>2017-05-25T07:20:14Z</time>
      </trkpt>
      <trkpt lat="45.75865" lon="3.80629">
        <ele>1076</ele>
        <time>2017-05-25T07:20:34Z</time>
      </trkpt>
      <trkpt lat="45.75855" lon="3.80634">
        <ele>1077.199951</ele>
        <time>2017-05-25T07:21:30Z</time>
      </trkpt>
      <trkpt lat="45.75845" lon="3.80633">
        <ele>1078</ele>
        <time>2017-05-25T07:22:05Z</time>
      </trkpt>
      <trkpt lat="45.75837" lon="3.80627">
        <ele>1079</ele>
        <time>2017-05-25T07:22:16Z</time>
      </trkpt>
      <trkpt lat="45.75828" lon="3.80623">
        <ele>1079.599976</ele>
        <time>2017-05-25T07:22:22Z</time>
      </trkpt>
      <trkpt lat="45.7582" lon="3.80617">
        <ele>1080.400024</ele>
        <time>2017-05-25T07:22:32Z</time>
      </trkpt>
      <trkpt lat="45.75811" lon="3.80615">
        <ele>1080.400024</ele>
        <time>2017-05-25T07:22:38Z</time>
      </trkpt>
      <trkpt lat="45.75803" lon="3.80606">
        <ele>1080.300049</ele>
        <time>2017-05-25T07:22:44Z</time>
      </trkpt>
      <trkpt lat="45.75793" lon="3.80604">
        <ele>1080.800049</ele>
        <time>2017-05-25T07:22:49Z</time>
      </trkpt>
      <trkpt lat="45.75784" lon="3.80605">
        <ele>1081.300049</ele>
        <time>2017-05-25T07:22:55Z</time>
      </trkpt>
      <trkpt lat="45.75774" lon="3.80606">
        <ele>1082.599976</ele>
        <time>2017-05-25T07:23:04Z</time>
      </trkpt>
      <trkpt lat="45.75766" lon="3.80599">
        <ele>1083.5</ele>
        <time>2017-05-25T07:23:14Z</time>
      </trkpt>
      <trkpt lat="45.75757" lon="3.80596">
        <ele>1084.199951</ele>
        <time>2017-05-25T07:23:25Z</time>
      </trkpt>
      <trkpt lat="45.75748" lon="3.80589">
        <ele>1084.800049</ele>
        <time>2017-05-25T07:23:29Z</time>
      </trkpt>
      <trkpt lat="45.75739" lon="3.80591">
        <ele>1085.800049</ele>
        <time>2017-05-25T07:23:36Z</time>
      </trkpt>
      <trkpt lat="45.75729" lon="3.80591">
        <ele>1087.800049</ele>
        <time>2017-05-25T07:23:43Z</time>
      </trkpt>
      <trkpt lat="45.7572" lon="3.80596">
        <ele>1089.400024</ele>
        <time>2017-05-25T07:23:51Z</time>
      </trkpt>
      <trkpt lat="45.75711" lon="3.80599">
        <ele>1090.800049</ele>
        <time>2017-05-25T07:23:57Z</time>
      </trkpt>
      <trkpt lat="45.75702" lon="3.80604">
        <ele>1092.300049</ele>
        <time>2017-05-25T07:24:06Z</time>
      </trkpt>
      <trkpt lat="45.75692" lon="3.80607">
        <ele>1093.300049</ele>
        <time>2017-05-25T07:24:11Z</time>
      </trkpt>
      <trkpt lat="45.75682" lon="3.80613">
        <ele>1094.699951</ele>
        <time>2017-05-25T07:24:18Z</time>
      </trkpt>
      <trkpt lat="45.75673" lon="3.80622">
        <ele>1096.199951</ele>
        <time>2017-05-25T07:24:26Z</time>
      </trkpt>
      <trkpt lat="45.75666" lon="3.80629">
        <ele>1098.800049</ele>
        <time>2017-05-25T07:24:34Z</time>
      </trkpt>
      <trkpt lat="45.75656" lon="3.80628">
        <ele>1100.5</ele>
        <time>2017-05-25T07:24:40Z</time>
      </trkpt>
      <trkpt lat="45.75647" lon="3.80624">
        <ele>1102.599976</ele>
        <time>2017-05-25T07:24:48Z</time>
      </trkpt>
      <trkpt lat="45.75638" lon="3.80622">
        <ele>1103.599976</ele>
        <time>2017-05-25T07:24:57Z</time>
      </trkpt>
      <trkpt lat="45.75629" lon="3.80617">
        <ele>1104.099976</ele>
        <time>2017-05-25T07:25:04Z</time>
      </trkpt>
      <trkpt lat="45.75619" lon="3.80617">
        <ele>1104.5</ele>
        <time>2017-05-25T07:25:11Z</time>
      </trkpt>
      <trkpt lat="45.75609" lon="3.80615">
        <ele>1105.300049</ele>
        <time>2017-05-25T07:25:18Z</time>
      </trkpt>
      <trkpt lat="45.756" lon="3.80613">
        <ele>1106.5</ele>
        <time>2017-05-25T07:25:24Z</time>
      </trkpt>
      <trkpt lat="45.75591" lon="3.80617">
        <ele>1108.599976</ele>
        <time>2017-05-25T07:25:33Z</time>
      </trkpt>
      <trkpt lat="45.75582" lon="3.80621">
        <ele>1111.099976</ele>
        <time>2017-05-25T07:25:40Z</time>
      </trkpt>
      <trkpt lat="45.75572" lon="3.80621">
        <ele>1114</ele>
        <time>2017-05-25T07:25:48Z</time>
      </trkpt>
      <trkpt lat="45.75563" lon="3.80618">
        <ele>1114.699951</ele>
        <time>2017-05-25T07:26:20Z</time>
      </trkpt>
      <trkpt lat="45.75563" lon="3.80618">
        <ele>1114.800049</ele>
        <time>2017-05-25T07:27:30Z</time>
      </trkpt>
      <trkpt lat="45.75558" lon="3.80628">
        <ele>1114.5</ele>
        <time>2017-05-25T07:29:37Z</time>
      </trkpt>
      <trkpt lat="45.75551" lon="3.80617">
        <ele>1114.699951</ele>
        <time>2017-05-25T07:30:41Z</time>
      </trkpt>
      <trkpt lat="45.75546" lon="3.80606">
        <ele>1114.800049</ele>
        <time>2017-05-25T07:30:47Z</time>
      </trkpt>
      <trkpt lat="45.7554" lon="3.80595">
        <ele>1114.599976</ele>
        <time>2017-05-25T07:30:53Z</time>
      </trkpt>
      <trkpt lat="45.75535" lon="3.80584">
        <ele>1114.300049</ele>
        <time>2017-05-25T07:30:58Z</time>
      </trkpt>
      <trkpt lat="45.75529" lon="3.80572">
        <ele>1114.099976</ele>
        <time>2017-05-25T07:31:03Z</time>
      </trkpt>
      <trkpt lat="45.75524" lon="3.80557">
        <ele>1114.300049</ele>
        <time>2017-05-25T07:31:07Z</time>
      </trkpt>
      <trkpt lat="45.75523" lon="3.80541">
        <ele>1114.5</ele>
        <time>2017-05-25T07:31:11Z</time>
      </trkpt>
      <trkpt lat="45.75523" lon="3.80525">
        <ele>1114.400024</ele>
        <time>2017-05-25T07:31:15Z</time>
      </trkpt>
      <trkpt lat="45.75524" lon="3.80512">
        <ele>1114.300049</ele>
        <time>2017-05-25T07:31:19Z</time>
      </trkpt>
      <trkpt lat="45.75527" lon="3.80496">
        <ele>1114.300049</ele>
        <time>2017-05-25T07:31:23Z</time>
      </trkpt>
      <trkpt lat="45.75533" lon="3.80482">
        <ele>1114.300049</ele>
        <time>2017-05-25T07:31:27Z</time>
      </trkpt>
      <trkpt lat="45.75538" lon="3.80467">
        <ele>1114.199951</ele>
        <time>2017-05-25T07:31:31Z</time>
      </trkpt>
      <trkpt lat="45.75539" lon="3.80452">
        <ele>1114.199951</ele>
        <time>2017-05-25T07:31:34Z</time>
      </trkpt>
      <trkpt lat="45.75539" lon="3.80436">
        <ele>1114</ele>
        <time>2017-05-25T07:31:38Z</time>
      </trkpt>
      <trkpt lat="45.7554" lon="3.80421">
        <ele>1113.900024</ele>
        <time>2017-05-25T07:31:43Z</time>
      </trkpt>
      <trkpt lat="45.75531" lon="3.80427">
        <ele>1114.400024</ele>
        <time>2017-05-25T07:31:56Z</time>
      </trkpt>
      <trkpt lat="45.75527" lon="3.80439">
        <ele>1115.400024</ele>
        <time>2017-05-25T07:32:03Z</time>
      </trkpt>
      <trkpt lat="45.75521" lon="3.8045">
        <ele>1116.300049</ele>
        <time>2017-05-25T07:32:09Z</time>
      </trkpt>
      <trkpt lat="45.75515" lon="3.8046">
        <ele>1117.300049</ele>
        <time>2017-05-25T07:32:18Z</time>
      </trkpt>
      <trkpt lat="45.75509" lon="3.80473">
        <ele>1118.199951</ele>
        <time>2017-05-25T07:32:26Z</time>
      </trkpt>
      <trkpt lat="45.75505" lon="3.80484">
        <ele>1119.5</ele>
        <time>2017-05-25T07:32:36Z</time>
      </trkpt>
      <trkpt lat="45.75499" lon="3.80497">
        <ele>1120.900024</ele>
        <time>2017-05-25T07:32:44Z</time>
      </trkpt>
      <trkpt lat="45.75494" lon="3.80508">
        <ele>1121.800049</ele>
        <time>2017-05-25T07:32:51Z</time>
      </trkpt>
      <trkpt lat="45.75489" lon="3.80519">
        <ele>1123.5</ele>
        <time>2017-05-25T07:33:00Z</time>
      </trkpt>
      <trkpt lat="45.75485" lon="3.80531">
        <ele>1124.5</ele>
        <time>2017-05-25T07:33:08Z</time>
      </trkpt>
      <trkpt lat="45.7548" lon="3.80542">
        <ele>1125.900024</ele>
        <time>2017-05-25T07:33:18Z</time>
      </trkpt>
      <trkpt lat="45.75477" lon="3.80556">
        <ele>1126.900024</ele>
        <time>2017-05-25T07:33:32Z</time>
      </trkpt>
      <trkpt lat="45.75474" lon="3.80568">
        <ele>1127.5</ele>
        <time>2017-05-25T07:33:37Z</time>
      </trkpt>
      <trkpt lat="45.75472" lon="3.80583">
        <ele>1128.099976</ele>
        <time>2017-05-25T07:33:43Z</time>
      </trkpt>
      <trkpt lat="45.7547" lon="3.80596">
        <ele>1128.900024</ele>
        <time>2017-05-25T07:33:50Z</time>
      </trkpt>
      <trkpt lat="45.7547" lon="3.80611">
        <ele>1129.400024</ele>
        <time>2017-05-25T07:33:58Z</time>
      </trkpt>
      <trkpt lat="45.75472" lon="3.80625">
        <ele>1130</ele>
        <time>2017-05-25T07:34:05Z</time>
      </trkpt>
      <trkpt lat="45.75468" lon="3.80638">
        <ele>1130.5</ele>
        <time>2017-05-25T07:34:11Z</time>
      </trkpt>
      <trkpt lat="45.75467" lon="3.80652">
        <ele>1131.300049</ele>
        <time>2017-05-25T07:34:17Z</time>
      </trkpt>
      <trkpt lat="45.75465" lon="3.80665">
        <ele>1132.599976</ele>
        <time>2017-05-25T07:34:24Z</time>
      </trkpt>
      <trkpt lat="45.75462" lon="3.80679">
        <ele>1133.900024</ele>
        <time>2017-05-25T07:34:31Z</time>
      </trkpt>
      <trkpt lat="45.75456" lon="3.8069">
        <ele>1135.099976</ele>
        <time>2017-05-25T07:34:37Z</time>
      </trkpt>
      <trkpt lat="45.75459" lon="3.80703">
        <ele>1136</ele>
        <time>2017-05-25T07:34:44Z</time>
      </trkpt>
      <trkpt lat="45.7546" lon="3.80716">
        <ele>1137.699951</ele>
        <time>2017-05-25T07:34:56Z</time>
      </trkpt>
      <trkpt lat="45.75458" lon="3.80728">
        <ele>1138.300049</ele>
        <time>2017-05-25T07:35:12Z</time>
      </trkpt>
      <trkpt lat="45.75459" lon="3.80741">
        <ele>1139.599976</ele>
        <time>2017-05-25T07:35:24Z</time>
      </trkpt>
      <trkpt lat="45.75458" lon="3.80755">
        <ele>1141.400024</ele>
        <time>2017-05-25T07:35:42Z</time>
      </trkpt>
      <trkpt lat="45.75454" lon="3.80766">
        <ele>1142.099976</ele>
        <time>2017-05-25T07:35:56Z</time>
      </trkpt>
      <trkpt lat="45.7545" lon="3.80778">
        <ele>1143.099976</ele>
        <time>2017-05-25T07:36:08Z</time>
      </trkpt>
      <trkpt lat="45.75445" lon="3.80789">
        <ele>1144.5</ele>
        <time>2017-05-25T07:36:22Z</time>
      </trkpt>
      <trkpt lat="45.75441" lon="3.808">
        <ele>1145.199951</ele>
        <time>2017-05-25T07:36:33Z</time>
      </trkpt>
      <trkpt lat="45.75434" lon="3.80813">
        <ele>1145.599976</ele>
        <time>2017-05-25T07:36:38Z</time>
      </trkpt>
      <trkpt lat="45.75427" lon="3.80825">
        <ele>1145.900024</ele>
        <time>2017-05-25T07:36:42Z</time>
      </trkpt>
      <trkpt lat="45.75421" lon="3.80836">
        <ele>1146.099976</ele>
        <time>2017-05-25T07:36:46Z</time>
      </trkpt>
      <trkpt lat="45.75415" lon="3.80846">
        <ele>1146.300049</ele>
        <time>2017-05-25T07:36:50Z</time>
      </trkpt>
      <trkpt lat="45.75408" lon="3.80855">
        <ele>1146.900024</ele>
        <time>2017-05-25T07:36:54Z</time>
      </trkpt>
      <trkpt lat="45.754" lon="3.80864">
        <ele>1147.199951</ele>
        <time>2017-05-25T07:36:58Z</time>
      </trkpt>
      <trkpt lat="45.75391" lon="3.80869">
        <ele>1147.599976</ele>
        <time>2017-05-25T07:37:02Z</time>
      </trkpt>
      <trkpt lat="45.75382" lon="3.80873">
        <ele>1147.599976</ele>
        <time>2017-05-25T07:37:06Z</time>
      </trkpt>
      <trkpt lat="45.75372" lon="3.8088">
        <ele>1148.400024</ele>
        <time>2017-05-25T07:37:11Z</time>
      </trkpt>
      <trkpt lat="45.75363" lon="3.80883">
        <ele>1149.099976</ele>
        <time>2017-05-25T07:37:17Z</time>
      </trkpt>
      <trkpt lat="45.75355" lon="3.80889">
        <ele>1149.699951</ele>
        <time>2017-05-25T07:37:22Z</time>
      </trkpt>
      <trkpt lat="45.75345" lon="3.80893">
        <ele>1150.300049</ele>
        <time>2017-05-25T07:37:27Z</time>
      </trkpt>
      <trkpt lat="45.75335" lon="3.809">
        <ele>1150.900024</ele>
        <time>2017-05-25T07:37:32Z</time>
      </trkpt>
      <trkpt lat="45.75327" lon="3.80908">
        <ele>1151.5</ele>
        <time>2017-05-25T07:37:36Z</time>
      </trkpt>
      <trkpt lat="45.7532" lon="3.80916">
        <ele>1151.699951</ele>
        <time>2017-05-25T07:37:40Z</time>
      </trkpt>
      <trkpt lat="45.75313" lon="3.80924">
        <ele>1151.599976</ele>
        <time>2017-05-25T07:37:44Z</time>
      </trkpt>
      <trkpt lat="45.75304" lon="3.8093">
        <ele>1151.900024</ele>
        <time>2017-05-25T07:37:48Z</time>
      </trkpt>
      <trkpt lat="45.75295" lon="3.80935">
        <ele>1152.599976</ele>
        <time>2017-05-25T07:37:54Z</time>
      </trkpt>
      <trkpt lat="45.75285" lon="3.80935">
        <ele>1153.099976</ele>
        <time>2017-05-25T07:37:58Z</time>
      </trkpt>
      <trkpt lat="45.75276" lon="3.80937">
        <ele>1153.800049</ele>
        <time>2017-05-25T07:38:03Z</time>
      </trkpt>
      <trkpt lat="45.75267" lon="3.80931">
        <ele>1154.699951</ele>
        <time>2017-05-25T07:38:11Z</time>
      </trkpt>
      <trkpt lat="45.75258" lon="3.80926">
        <ele>1155.800049</ele>
        <time>2017-05-25T07:38:18Z</time>
      </trkpt>
      <trkpt lat="45.75248" lon="3.80919">
        <ele>1156.599976</ele>
        <time>2017-05-25T07:38:23Z</time>
      </trkpt>
      <trkpt lat="45.75238" lon="3.80915">
        <ele>1157.5</ele>
        <time>2017-05-25T07:38:28Z</time>
      </trkpt>
      <trkpt lat="45.75229" lon="3.80912">
        <ele>1158.099976</ele>
        <time>2017-05-25T07:38:33Z</time>
      </trkpt>
      <trkpt lat="45.75219" lon="3.80906">
        <ele>1159.199951</ele>
        <time>2017-05-25T07:38:40Z</time>
      </trkpt>
      <trkpt lat="45.75211" lon="3.809">
        <ele>1160.099976</ele>
        <time>2017-05-25T07:38:47Z</time>
      </trkpt>
      <trkpt lat="45.75202" lon="3.80894">
        <ele>1161.400024</ele>
        <time>2017-05-25T07:38:55Z</time>
      </trkpt>
      <trkpt lat="45.75194" lon="3.80886">
        <ele>1163.599976</ele>
        <time>2017-05-25T07:39:05Z</time>
      </trkpt>
      <trkpt lat="45.75189" lon="3.80875">
        <ele>1164.599976</ele>
        <time>2017-05-25T07:39:11Z</time>
      </trkpt>
      <trkpt lat="45.75188" lon="3.80861">
        <ele>1166.099976</ele>
        <time>2017-05-25T07:39:19Z</time>
      </trkpt>
      <trkpt lat="45.75183" lon="3.8085">
        <ele>1167.599976</ele>
        <time>2017-05-25T07:39:26Z</time>
      </trkpt>
      <trkpt lat="45.75175" lon="3.80841">
        <ele>1169.5</ele>
        <time>2017-05-25T07:39:33Z</time>
      </trkpt>
      <trkpt lat="45.75168" lon="3.80833">
        <ele>1171.400024</ele>
        <time>2017-05-25T07:39:42Z</time>
      </trkpt>
      <trkpt lat="45.75158" lon="3.80829">
        <ele>1173.400024</ele>
        <time>2017-05-25T07:39:53Z</time>
      </trkpt>
      <trkpt lat="45.75149" lon="3.80829">
        <ele>1174.699951</ele>
        <time>2017-05-25T07:40:02Z</time>
      </trkpt>
      <trkpt lat="45.7514" lon="3.80825">
        <ele>1176.599976</ele>
        <time>2017-05-25T07:40:14Z</time>
      </trkpt>
      <trkpt lat="45.75129" lon="3.80819">
        <ele>1178.599976</ele>
        <time>2017-05-25T07:40:22Z</time>
      </trkpt>
      <trkpt lat="45.75121" lon="3.80813">
        <ele>1179.900024</ele>
        <time>2017-05-25T07:40:27Z</time>
      </trkpt>
      <trkpt lat="45.75113" lon="3.80805">
        <ele>1182.300049</ele>
        <time>2017-05-25T07:40:34Z</time>
      </trkpt>
      <trkpt lat="45.75105" lon="3.80798">
        <ele>1184.699951</ele>
        <time>2017-05-25T07:40:41Z</time>
      </trkpt>
      <trkpt lat="45.75096" lon="3.80793">
        <ele>1186</ele>
        <time>2017-05-25T07:40:47Z</time>
      </trkpt>
      <trkpt lat="45.75087" lon="3.80795">
        <ele>1186.300049</ele>
        <time>2017-05-25T07:40:54Z</time>
      </trkpt>
      <trkpt lat="45.75078" lon="3.80795">
        <ele>1186.199951</ele>
        <time>2017-05-25T07:41:00Z</time>
      </trkpt>
      <trkpt lat="45.75069" lon="3.80796">
        <ele>1185.199951</ele>
        <time>2017-05-25T07:41:13Z</time>
      </trkpt>
      <trkpt lat="45.75064" lon="3.80785">
        <ele>1184.400024</ele>
        <time>2017-05-25T07:45:03Z</time>
      </trkpt>
      <trkpt lat="45.7506" lon="3.80797">
        <ele>1185</ele>
        <time>2017-05-25T07:46:27Z</time>
      </trkpt>
      <trkpt lat="45.7505" lon="3.80799">
        <ele>1185</ele>
        <time>2017-05-25T07:47:04Z</time>
      </trkpt>
      <trkpt lat="45.75041" lon="3.80802">
        <ele>1184.800049</ele>
        <time>2017-05-25T07:47:08Z</time>
      </trkpt>
      <trkpt lat="45.75031" lon="3.80809">
        <ele>1184.699951</ele>
        <time>2017-05-25T07:47:11Z</time>
      </trkpt>
      <trkpt lat="45.75022" lon="3.80817">
        <ele>1184.5</ele>
        <time>2017-05-25T07:47:14Z</time>
      </trkpt>
      <trkpt lat="45.75013" lon="3.80826">
        <ele>1184.5</ele>
        <time>2017-05-25T07:47:17Z</time>
      </trkpt>
      <trkpt lat="45.75005" lon="3.80834">
        <ele>1184.599976</ele>
        <time>2017-05-25T07:47:20Z</time>
      </trkpt>
      <trkpt lat="45.74997" lon="3.80843">
        <ele>1184.800049</ele>
        <time>2017-05-25T07:47:23Z</time>
      </trkpt>
      <trkpt lat="45.74989" lon="3.80854">
        <ele>1185.400024</ele>
        <time>2017-05-25T07:47:27Z</time>
      </trkpt>
      <trkpt lat="45.74981" lon="3.80866">
        <ele>1186.199951</ele>
        <time>2017-05-25T07:47:31Z</time>
      </trkpt>
      <trkpt lat="45.74975" lon="3.80879">
        <ele>1186.800049</ele>
        <time>2017-05-25T07:47:35Z</time>
      </trkpt>
      <trkpt lat="45.74968" lon="3.8089">
        <ele>1187.599976</ele>
        <time>2017-05-25T07:47:39Z</time>
      </trkpt>
      <trkpt lat="45.7496" lon="3.809">
        <ele>1188.199951</ele>
        <time>2017-05-25T07:47:43Z</time>
      </trkpt>
      <trkpt lat="45.74953" lon="3.80912">
        <ele>1188.900024</ele>
        <time>2017-05-25T07:47:47Z</time>
      </trkpt>
      <trkpt lat="45.74944" lon="3.80923">
        <ele>1189.099976</ele>
        <time>2017-05-25T07:47:51Z</time>
      </trkpt>
      <trkpt lat="45.74938" lon="3.80933">
        <ele>1189.300049</ele>
        <time>2017-05-25T07:47:54Z</time>
      </trkpt>
      <trkpt lat="45.74931" lon="3.80944">
        <ele>1189.400024</ele>
        <time>2017-05-25T07:47:57Z</time>
      </trkpt>
      <trkpt lat="45.74924" lon="3.80954">
        <ele>1189.599976</ele>
        <time>2017-05-25T07:48:00Z</time>
      </trkpt>
      <trkpt lat="45.74918" lon="3.80965">
        <ele>1189.699951</ele>
        <time>2017-05-25T07:48:03Z</time>
      </trkpt>
      <trkpt lat="45.74909" lon="3.80975">
        <ele>1189.900024</ele>
        <time>2017-05-25T07:48:07Z</time>
      </trkpt>
      <trkpt lat="45.74901" lon="3.80982">
        <ele>1190.099976</ele>
        <time>2017-05-25T07:48:10Z</time>
      </trkpt>
      <trkpt lat="45.74892" lon="3.8099">
        <ele>1190.199951</ele>
        <time>2017-05-25T07:48:13Z</time>
      </trkpt>
      <trkpt lat="45.74883" lon="3.81002">
        <ele>1190.400024</ele>
        <time>2017-05-25T07:48:17Z</time>
      </trkpt>
      <trkpt lat="45.74875" lon="3.81011">
        <ele>1190.599976</ele>
        <time>2017-05-25T07:48:20Z</time>
      </trkpt>
      <trkpt lat="45.74866" lon="3.81021">
        <ele>1190.900024</ele>
        <time>2017-05-25T07:48:23Z</time>
      </trkpt>
      <trkpt lat="45.74856" lon="3.81029">
        <ele>1191.199951</ele>
        <time>2017-05-25T07:48:26Z</time>
      </trkpt>
      <trkpt lat="45.7485" lon="3.8104">
        <ele>1191.400024</ele>
        <time>2017-05-25T07:48:29Z</time>
      </trkpt>
      <trkpt lat="45.74839" lon="3.81051">
        <ele>1191.599976</ele>
        <time>2017-05-25T07:48:32Z</time>
      </trkpt>
      <trkpt lat="45.74832" lon="3.81058">
        <ele>1191.5</ele>
        <time>2017-05-25T07:48:34Z</time>
      </trkpt>
      <trkpt lat="45.74823" lon="3.81068">
        <ele>1191.400024</ele>
        <time>2017-05-25T07:48:36Z</time>
      </trkpt>
      <trkpt lat="45.74816" lon="3.81079">
        <ele>1190.900024</ele>
        <time>2017-05-25T07:48:38Z</time>
      </trkpt>
      <trkpt lat="45.74808" lon="3.81089">
        <ele>1190.699951</ele>
        <time>2017-05-25T07:48:40Z</time>
      </trkpt>
      <trkpt lat="45.74798" lon="3.81099">
        <ele>1190.199951</ele>
        <time>2017-05-25T07:48:42Z</time>
      </trkpt>
      <trkpt lat="45.74789" lon="3.81109">
        <ele>1190</ele>
        <time>2017-05-25T07:48:44Z</time>
      </trkpt>
      <trkpt lat="45.7478" lon="3.8112">
        <ele>1189.5</ele>
        <time>2017-05-25T07:48:46Z</time>
      </trkpt>
      <trkpt lat="45.74772" lon="3.81133">
        <ele>1189.300049</ele>
        <time>2017-05-25T07:48:48Z</time>
      </trkpt>
      <trkpt lat="45.74763" lon="3.81144">
        <ele>1188.699951</ele>
        <time>2017-05-25T07:48:50Z</time>
      </trkpt>
      <trkpt lat="45.74756" lon="3.81157">
        <ele>1188.599976</ele>
        <time>2017-05-25T07:48:52Z</time>
      </trkpt>
      <trkpt lat="45.7475" lon="3.81169">
        <ele>1188.400024</ele>
        <time>2017-05-25T07:48:54Z</time>
      </trkpt>
      <trkpt lat="45.74745" lon="3.81181">
        <ele>1188.199951</ele>
        <time>2017-05-25T07:48:56Z</time>
      </trkpt>
      <trkpt lat="45.7474" lon="3.81194">
        <ele>1188.099976</ele>
        <time>2017-05-25T07:48:58Z</time>
      </trkpt>
      <trkpt lat="45.74734" lon="3.81204">
        <ele>1188</ele>
        <time>2017-05-25T07:49:00Z</time>
      </trkpt>
      <trkpt lat="45.74728" lon="3.81215">
        <ele>1187.900024</ele>
        <time>2017-05-25T07:49:02Z</time>
      </trkpt>
      <trkpt lat="45.74722" lon="3.81226">
        <ele>1187.900024</ele>
        <time>2017-05-25T07:49:04Z</time>
      </trkpt>
      <trkpt lat="45.74716" lon="3.81236">
        <ele>1187.900024</ele>
        <time>2017-05-25T07:49:06Z</time>
      </trkpt>
      <trkpt lat="45.74709" lon="3.81248">
        <ele>1187.400024</ele>
        <time>2017-05-25T07:49:09Z</time>
      </trkpt>
      <trkpt lat="45.74706" lon="3.81262">
        <ele>1186.900024</ele>
        <time>2017-05-25T07:49:15Z</time>
      </trkpt>
      <trkpt lat="45.74696" lon="3.81268">
        <ele>1186.699951</ele>
        <time>2017-05-25T07:49:34Z</time>
      </trkpt>
      <trkpt lat="45.74686" lon="3.81276">
        <ele>1186.699951</ele>
        <time>2017-05-25T07:49:37Z</time>
      </trkpt>
      <trkpt lat="45.74675" lon="3.81288">
        <ele>1186.300049</ele>
        <time>2017-05-25T07:49:40Z</time>
      </trkpt>
      <trkpt lat="45.74668" lon="3.81298">
        <ele>1186.099976</ele>
        <time>2017-05-25T07:49:42Z</time>
      </trkpt>
      <trkpt lat="45.7466" lon="3.81311">
        <ele>1186</ele>
        <time>2017-05-25T07:49:44Z</time>
      </trkpt>
      <trkpt lat="45.74652" lon="3.81321">
        <ele>1185.699951</ele>
        <time>2017-05-25T07:49:46Z</time>
      </trkpt>
      <trkpt lat="45.74646" lon="3.81335">
        <ele>1185.400024</ele>
        <time>2017-05-25T07:49:49Z</time>
      </trkpt>
      <trkpt lat="45.74647" lon="3.8135">
        <ele>1185.099976</ele>
        <time>2017-05-25T07:49:53Z</time>
      </trkpt>
      <trkpt lat="45.74654" lon="3.81358">
        <ele>1185.5</ele>
        <time>2017-05-25T07:49:59Z</time>
      </trkpt>
      <trkpt lat="45.74663" lon="3.81361">
        <ele>1186</ele>
        <time>2017-05-25T07:50:05Z</time>
      </trkpt>
      <trkpt lat="45.74671" lon="3.81368">
        <ele>1187.099976</ele>
        <time>2017-05-25T07:50:12Z</time>
      </trkpt>
      <trkpt lat="45.74681" lon="3.81375">
        <ele>1188.400024</ele>
        <time>2017-05-25T07:50:19Z</time>
      </trkpt>
      <trkpt lat="45.74692" lon="3.81382">
        <ele>1189.400024</ele>
        <time>2017-05-25T07:50:25Z</time>
      </trkpt>
      <trkpt lat="45.74701" lon="3.81388">
        <ele>1191.099976</ele>
        <time>2017-05-25T07:50:35Z</time>
      </trkpt>
      <trkpt lat="45.74711" lon="3.81394">
        <ele>1191.400024</ele>
        <time>2017-05-25T07:50:38Z</time>
      </trkpt>
      <trkpt lat="45.74719" lon="3.81403">
        <ele>1192.199951</ele>
        <time>2017-05-25T07:50:45Z</time>
      </trkpt>
      <trkpt lat="45.74725" lon="3.81413">
        <ele>1193.900024</ele>
        <time>2017-05-25T07:50:53Z</time>
      </trkpt>
      <trkpt lat="45.74728" lon="3.81427">
        <ele>1195.900024</ele>
        <time>2017-05-25T07:51:02Z</time>
      </trkpt>
      <trkpt lat="45.74731" lon="3.81439">
        <ele>1197</ele>
        <time>2017-05-25T07:51:09Z</time>
      </trkpt>
      <trkpt lat="45.74735" lon="3.8145">
        <ele>1198.199951</ele>
        <time>2017-05-25T07:51:17Z</time>
      </trkpt>
      <trkpt lat="45.74743" lon="3.8146">
        <ele>1199.400024</ele>
        <time>2017-05-25T07:51:24Z</time>
      </trkpt>
      <trkpt lat="45.74748" lon="3.81471">
        <ele>1200.900024</ele>
        <time>2017-05-25T07:51:32Z</time>
      </trkpt>
      <trkpt lat="45.74755" lon="3.81479">
        <ele>1201.800049</ele>
        <time>2017-05-25T07:51:39Z</time>
      </trkpt>
      <trkpt lat="45.74763" lon="3.81488">
        <ele>1203.300049</ele>
        <time>2017-05-25T07:51:47Z</time>
      </trkpt>
      <trkpt lat="45.74771" lon="3.81497">
        <ele>1205.099976</ele>
        <time>2017-05-25T07:51:56Z</time>
      </trkpt>
      <trkpt lat="45.74777" lon="3.81508">
        <ele>1206</ele>
        <time>2017-05-25T07:52:03Z</time>
      </trkpt>
      <trkpt lat="45.7478" lon="3.81521">
        <ele>1207.099976</ele>
        <time>2017-05-25T07:52:11Z</time>
      </trkpt>
      <trkpt lat="45.74784" lon="3.81534">
        <ele>1207.900024</ele>
        <time>2017-05-25T07:52:19Z</time>
      </trkpt>
      <trkpt lat="45.7479" lon="3.81544">
        <ele>1208.699951</ele>
        <time>2017-05-25T07:52:27Z</time>
      </trkpt>
      <trkpt lat="45.74796" lon="3.81554">
        <ele>1209.300049</ele>
        <time>2017-05-25T07:52:33Z</time>
      </trkpt>
      <trkpt lat="45.74799" lon="3.81566">
        <ele>1211</ele>
        <time>2017-05-25T07:52:47Z</time>
      </trkpt>
      <trkpt lat="45.74806" lon="3.81576">
        <ele>1211.599976</ele>
        <time>2017-05-25T07:52:57Z</time>
      </trkpt>
      <trkpt lat="45.74815" lon="3.81588">
        <ele>1212.199951</ele>
        <time>2017-05-25T07:53:03Z</time>
      </trkpt>
      <trkpt lat="45.7482" lon="3.816">
        <ele>1212.800049</ele>
        <time>2017-05-25T07:53:10Z</time>
      </trkpt>
      <trkpt lat="45.74826" lon="3.81611">
        <ele>1213.599976</ele>
        <time>2017-05-25T07:53:19Z</time>
      </trkpt>
      <trkpt lat="45.74833" lon="3.81621">
        <ele>1214.5</ele>
        <time>2017-05-25T07:53:27Z</time>
      </trkpt>
      <trkpt lat="45.74841" lon="3.81632">
        <ele>1214.900024</ele>
        <time>2017-05-25T07:53:36Z</time>
      </trkpt>
      <trkpt lat="45.74847" lon="3.81644">
        <ele>1215.599976</ele>
        <time>2017-05-25T07:53:51Z</time>
      </trkpt>
      <trkpt lat="45.74851" lon="3.81657">
        <ele>1216.900024</ele>
        <time>2017-05-25T07:53:58Z</time>
      </trkpt>
      <trkpt lat="45.74854" lon="3.81669">
        <ele>1218</ele>
        <time>2017-05-25T07:54:04Z</time>
      </trkpt>
      <trkpt lat="45.74859" lon="3.81682">
        <ele>1219.599976</ele>
        <time>2017-05-25T07:54:12Z</time>
      </trkpt>
      <trkpt lat="45.74864" lon="3.81692">
        <ele>1221.5</ele>
        <time>2017-05-25T07:54:20Z</time>
      </trkpt>
      <trkpt lat="45.74864" lon="3.81706">
        <ele>1222.699951</ele>
        <time>2017-05-25T07:54:27Z</time>
      </trkpt>
      <trkpt lat="45.74865" lon="3.81719">
        <ele>1223.599976</ele>
        <time>2017-05-25T07:54:34Z</time>
      </trkpt>
      <trkpt lat="45.74869" lon="3.81732">
        <ele>1225</ele>
        <time>2017-05-25T07:54:42Z</time>
      </trkpt>
      <trkpt lat="45.74867" lon="3.81745">
        <ele>1226.699951</ele>
        <time>2017-05-25T07:54:50Z</time>
      </trkpt>
      <trkpt lat="45.74866" lon="3.81759">
        <ele>1227.800049</ele>
        <time>2017-05-25T07:55:00Z</time>
      </trkpt>
      <trkpt lat="45.74866" lon="3.81773">
        <ele>1229.300049</ele>
        <time>2017-05-25T07:55:09Z</time>
      </trkpt>
      <trkpt lat="45.74863" lon="3.81785">
        <ele>1230</ele>
        <time>2017-05-25T07:55:16Z</time>
      </trkpt>
      <trkpt lat="45.7486" lon="3.81799">
        <ele>1230.800049</ele>
        <time>2017-05-25T07:55:23Z</time>
      </trkpt>
      <trkpt lat="45.74853" lon="3.81808">
        <ele>1231.400024</ele>
        <time>2017-05-25T07:55:28Z</time>
      </trkpt>
      <trkpt lat="45.74845" lon="3.81817">
        <ele>1231.599976</ele>
        <time>2017-05-25T07:55:34Z</time>
      </trkpt>
      <trkpt lat="45.7484" lon="3.81829">
        <ele>1232.099976</ele>
        <time>2017-05-25T07:55:41Z</time>
      </trkpt>
      <trkpt lat="45.74833" lon="3.81837">
        <ele>1232.900024</ele>
        <time>2017-05-25T07:55:52Z</time>
      </trkpt>
      <trkpt lat="45.74824" lon="3.8183">
        <ele>1233.5</ele>
        <time>2017-05-25T07:56:02Z</time>
      </trkpt>
      <trkpt lat="45.74815" lon="3.81828">
        <ele>1236.699951</ele>
        <time>2017-05-25T07:56:12Z</time>
      </trkpt>
      <trkpt lat="45.74805" lon="3.81827">
        <ele>1238.5</ele>
        <time>2017-05-25T07:56:24Z</time>
      </trkpt>
      <trkpt lat="45.74796" lon="3.81834">
        <ele>1239.900024</ele>
        <time>2017-05-25T07:56:33Z</time>
      </trkpt>
      <trkpt lat="45.74787" lon="3.81839">
        <ele>1241.099976</ele>
        <time>2017-05-25T07:56:52Z</time>
      </trkpt>
      <trkpt lat="45.7478" lon="3.81848">
        <ele>1241.800049</ele>
        <time>2017-05-25T07:57:01Z</time>
      </trkpt>
      <trkpt lat="45.74771" lon="3.81855">
        <ele>1242.199951</ele>
        <time>2017-05-25T07:57:07Z</time>
      </trkpt>
      <trkpt lat="45.74766" lon="3.81868">
        <ele>1242.300049</ele>
        <time>2017-05-25T07:57:50Z</time>
      </trkpt>
      <trkpt lat="45.74757" lon="3.81864">
        <ele>1243</ele>
        <time>2017-05-25T07:58:54Z</time>
      </trkpt>
      <trkpt lat="45.7475" lon="3.81873">
        <ele>1242.900024</ele>
        <time>2017-05-25T07:59:02Z</time>
      </trkpt>
      <trkpt lat="45.74746" lon="3.81888">
        <ele>1242.900024</ele>
        <time>2017-05-25T07:59:09Z</time>
      </trkpt>
      <trkpt lat="45.7474" lon="3.81901">
        <ele>1242.599976</ele>
        <time>2017-05-25T07:59:13Z</time>
      </trkpt>
      <trkpt lat="45.74738" lon="3.81913">
        <ele>1242.400024</ele>
        <time>2017-05-25T07:59:16Z</time>
      </trkpt>
      <trkpt lat="45.74733" lon="3.81927">
        <ele>1241.199951</ele>
        <time>2017-05-25T07:59:21Z</time>
      </trkpt>
      <trkpt lat="45.74724" lon="3.81936">
        <ele>1240.400024</ele>
        <time>2017-05-25T07:59:26Z</time>
      </trkpt>
      <trkpt lat="45.74717" lon="3.81945">
        <ele>1240.199951</ele>
        <time>2017-05-25T07:59:32Z</time>
      </trkpt>
      <trkpt lat="45.74708" lon="3.81954">
        <ele>1240.400024</ele>
        <time>2017-05-25T07:59:37Z</time>
      </trkpt>
      <trkpt lat="45.74699" lon="3.81963">
        <ele>1240.5</ele>
        <time>2017-05-25T07:59:41Z</time>
      </trkpt>
      <trkpt lat="45.74691" lon="3.81971">
        <ele>1240.599976</ele>
        <time>2017-05-25T07:59:45Z</time>
      </trkpt>
      <trkpt lat="45.74679" lon="3.81979">
        <ele>1240.5</ele>
        <time>2017-05-25T07:59:48Z</time>
      </trkpt>
      <trkpt lat="45.74668" lon="3.81989">
        <ele>1240.400024</ele>
        <time>2017-05-25T07:59:51Z</time>
      </trkpt>
      <trkpt lat="45.74659" lon="3.81998">
        <ele>1240.099976</ele>
        <time>2017-05-25T07:59:54Z</time>
      </trkpt>
      <trkpt lat="45.74652" lon="3.82008">
        <ele>1239.699951</ele>
        <time>2017-05-25T07:59:57Z</time>
      </trkpt>
      <trkpt lat="45.74646" lon="3.82018">
        <ele>1239.400024</ele>
        <time>2017-05-25T08:00:00Z</time>
      </trkpt>
      <trkpt lat="45.74638" lon="3.82028">
        <ele>1239.099976</ele>
        <time>2017-05-25T08:00:03Z</time>
      </trkpt>
      <trkpt lat="45.74631" lon="3.82038">
        <ele>1238.800049</ele>
        <time>2017-05-25T08:00:06Z</time>
      </trkpt>
      <trkpt lat="45.74622" lon="3.82045">
        <ele>1238.699951</ele>
        <time>2017-05-25T08:00:09Z</time>
      </trkpt>
      <trkpt lat="45.74612" lon="3.82054">
        <ele>1239</ele>
        <time>2017-05-25T08:00:13Z</time>
      </trkpt>
      <trkpt lat="45.74603" lon="3.82062">
        <ele>1239.099976</ele>
        <time>2017-05-25T08:00:17Z</time>
      </trkpt>
      <trkpt lat="45.74594" lon="3.8207">
        <ele>1238.900024</ele>
        <time>2017-05-25T08:00:21Z</time>
      </trkpt>
      <trkpt lat="45.74585" lon="3.82074">
        <ele>1239.5</ele>
        <time>2017-05-25T08:00:25Z</time>
      </trkpt>
      <trkpt lat="45.74575" lon="3.8208">
        <ele>1240.599976</ele>
        <time>2017-05-25T08:00:30Z</time>
      </trkpt>
      <trkpt lat="45.74567" lon="3.8209">
        <ele>1241.699951</ele>
        <time>2017-05-25T08:00:35Z</time>
      </trkpt>
      <trkpt lat="45.7456" lon="3.82098">
        <ele>1241.699951</ele>
        <time>2017-05-25T08:00:39Z</time>
      </trkpt>
      <trkpt lat="45.74554" lon="3.82108">
        <ele>1241.5</ele>
        <time>2017-05-25T08:00:43Z</time>
      </trkpt>
      <trkpt lat="45.74547" lon="3.82118">
        <ele>1241.5</ele>
        <time>2017-05-25T08:00:46Z</time>
      </trkpt>
      <trkpt lat="45.74539" lon="3.82127">
        <ele>1241.599976</ele>
        <time>2017-05-25T08:00:49Z</time>
      </trkpt>
      <trkpt lat="45.74531" lon="3.82135">
        <ele>1241.900024</ele>
        <time>2017-05-25T08:00:52Z</time>
      </trkpt>
      <trkpt lat="45.74523" lon="3.82146">
        <ele>1242.099976</ele>
        <time>2017-05-25T08:00:56Z</time>
      </trkpt>
      <trkpt lat="45.74514" lon="3.82157">
        <ele>1242.099976</ele>
        <time>2017-05-25T08:01:00Z</time>
      </trkpt>
      <trkpt lat="45.74507" lon="3.82165">
        <ele>1242.699951</ele>
        <time>2017-05-25T08:01:04Z</time>
      </trkpt>
      <trkpt lat="45.74501" lon="3.82175">
        <ele>1243.099976</ele>
        <time>2017-05-25T08:01:08Z</time>
      </trkpt>
      <trkpt lat="45.74495" lon="3.82185">
        <ele>1243.199951</ele>
        <time>2017-05-25T08:01:12Z</time>
      </trkpt>
      <trkpt lat="45.74489" lon="3.82196">
        <ele>1243.099976</ele>
        <time>2017-05-25T08:01:16Z</time>
      </trkpt>
      <trkpt lat="45.74481" lon="3.82207">
        <ele>1243.099976</ele>
        <time>2017-05-25T08:01:20Z</time>
      </trkpt>
      <trkpt lat="45.74473" lon="3.82218">
        <ele>1243.099976</ele>
        <time>2017-05-25T08:01:25Z</time>
      </trkpt>
      <trkpt lat="45.74468" lon="3.82229">
        <ele>1243.5</ele>
        <time>2017-05-25T08:01:29Z</time>
      </trkpt>
      <trkpt lat="45.74463" lon="3.82242">
        <ele>1243.900024</ele>
        <time>2017-05-25T08:01:34Z</time>
      </trkpt>
      <trkpt lat="45.74455" lon="3.82252">
        <ele>1244.199951</ele>
        <time>2017-05-25T08:01:40Z</time>
      </trkpt>
      <trkpt lat="45.74448" lon="3.82263">
        <ele>1244.800049</ele>
        <time>2017-05-25T08:01:45Z</time>
      </trkpt>
      <trkpt lat="45.74442" lon="3.82274">
        <ele>1245.199951</ele>
        <time>2017-05-25T08:01:50Z</time>
      </trkpt>
      <trkpt lat="45.74435" lon="3.82283">
        <ele>1246.199951</ele>
        <time>2017-05-25T08:01:56Z</time>
      </trkpt>
      <trkpt lat="45.74429" lon="3.82296">
        <ele>1247</ele>
        <time>2017-05-25T08:02:02Z</time>
      </trkpt>
      <trkpt lat="45.74424" lon="3.82309">
        <ele>1247.900024</ele>
        <time>2017-05-25T08:02:07Z</time>
      </trkpt>
      <trkpt lat="45.74418" lon="3.82319">
        <ele>1248.800049</ele>
        <time>2017-05-25T08:02:12Z</time>
      </trkpt>
      <trkpt lat="45.74412" lon="3.8233">
        <ele>1249.300049</ele>
        <time>2017-05-25T08:02:17Z</time>
      </trkpt>
      <trkpt lat="45.74403" lon="3.82335">
        <ele>1249.599976</ele>
        <time>2017-05-25T08:02:22Z</time>
      </trkpt>
      <trkpt lat="45.74396" lon="3.82346">
        <ele>1250.599976</ele>
        <time>2017-05-25T08:02:28Z</time>
      </trkpt>
      <trkpt lat="45.74393" lon="3.82358">
        <ele>1251.300049</ele>
        <time>2017-05-25T08:02:33Z</time>
      </trkpt>
      <trkpt lat="45.74388" lon="3.82372">
        <ele>1251.800049</ele>
        <time>2017-05-25T08:02:39Z</time>
      </trkpt>
      <trkpt lat="45.74383" lon="3.82382">
        <ele>1252</ele>
        <time>2017-05-25T08:02:44Z</time>
      </trkpt>
      <trkpt lat="45.74374" lon="3.82387">
        <ele>1252.300049</ele>
        <time>2017-05-25T08:02:49Z</time>
      </trkpt>
      <trkpt lat="45.74364" lon="3.82396">
        <ele>1252.400024</ele>
        <time>2017-05-25T08:02:53Z</time>
      </trkpt>
      <trkpt lat="45.74357" lon="3.82407">
        <ele>1252.300049</ele>
        <time>2017-05-25T08:02:58Z</time>
      </trkpt>
      <trkpt lat="45.74352" lon="3.82418">
        <ele>1252.400024</ele>
        <time>2017-05-25T08:03:03Z</time>
      </trkpt>
      <trkpt lat="45.74346" lon="3.82431">
        <ele>1252.800049</ele>
        <time>2017-05-25T08:03:08Z</time>
      </trkpt>
      <trkpt lat="45.74341" lon="3.82443">
        <ele>1253.199951</ele>
        <time>2017-05-25T08:03:13Z</time>
      </trkpt>
      <trkpt lat="45.74336" lon="3.82455">
        <ele>1254.099976</ele>
        <time>2017-05-25T08:03:18Z</time>
      </trkpt>
      <trkpt lat="45.74331" lon="3.82466">
        <ele>1254.699951</ele>
        <time>2017-05-25T08:03:23Z</time>
      </trkpt>
      <trkpt lat="45.74327" lon="3.82479">
        <ele>1254.900024</ele>
        <time>2017-05-25T08:03:28Z</time>
      </trkpt>
      <trkpt lat="45.74323" lon="3.82493">
        <ele>1254.900024</ele>
        <time>2017-05-25T08:03:33Z</time>
      </trkpt>
      <trkpt lat="45.7432" lon="3.82507">
        <ele>1255.800049</ele>
        <time>2017-05-25T08:03:38Z</time>
      </trkpt>
      <trkpt lat="45.74316" lon="3.82518">
        <ele>1256.099976</ele>
        <time>2017-05-25T08:03:42Z</time>
      </trkpt>
      <trkpt lat="45.74311" lon="3.8253">
        <ele>1256.400024</ele>
        <time>2017-05-25T08:03:47Z</time>
      </trkpt>
      <trkpt lat="45.74305" lon="3.82544">
        <ele>1256.800049</ele>
        <time>2017-05-25T08:03:52Z</time>
      </trkpt>
      <trkpt lat="45.74299" lon="3.82557">
        <ele>1256.800049</ele>
        <time>2017-05-25T08:03:56Z</time>
      </trkpt>
      <trkpt lat="45.74294" lon="3.82568">
        <ele>1256.699951</ele>
        <time>2017-05-25T08:04:00Z</time>
      </trkpt>
      <trkpt lat="45.74289" lon="3.8258">
        <ele>1256.800049</ele>
        <time>2017-05-25T08:04:04Z</time>
      </trkpt>
      <trkpt lat="45.74284" lon="3.82591">
        <ele>1256.800049</ele>
        <time>2017-05-25T08:04:07Z</time>
      </trkpt>
      <trkpt lat="45.74278" lon="3.82606">
        <ele>1256.699951</ele>
        <time>2017-05-25T08:04:11Z</time>
      </trkpt>
      <trkpt lat="45.74276" lon="3.82621">
        <ele>1256.400024</ele>
        <time>2017-05-25T08:04:14Z</time>
      </trkpt>
      <trkpt lat="45.74274" lon="3.82638">
        <ele>1256.099976</ele>
        <time>2017-05-25T08:04:17Z</time>
      </trkpt>
      <trkpt lat="45.74272" lon="3.82651">
        <ele>1255.699951</ele>
        <time>2017-05-25T08:04:19Z</time>
      </trkpt>
      <trkpt lat="45.74271" lon="3.82665">
        <ele>1255.300049</ele>
        <time>2017-05-25T08:04:21Z</time>
      </trkpt>
      <trkpt lat="45.74269" lon="3.8268">
        <ele>1254.599976</ele>
        <time>2017-05-25T08:04:23Z</time>
      </trkpt>
      <trkpt lat="45.74267" lon="3.82694">
        <ele>1253.699951</ele>
        <time>2017-05-25T08:04:25Z</time>
      </trkpt>
      <trkpt lat="45.74264" lon="3.82709">
        <ele>1252.599976</ele>
        <time>2017-05-25T08:04:27Z</time>
      </trkpt>
      <trkpt lat="45.74261" lon="3.82725">
        <ele>1251.099976</ele>
        <time>2017-05-25T08:04:29Z</time>
      </trkpt>
      <trkpt lat="45.74259" lon="3.82743">
        <ele>1250.099976</ele>
        <time>2017-05-25T08:04:31Z</time>
      </trkpt>
      <trkpt lat="45.74257" lon="3.82762">
        <ele>1248.800049</ele>
        <time>2017-05-25T08:04:33Z</time>
      </trkpt>
      <trkpt lat="45.74256" lon="3.8278">
        <ele>1247.300049</ele>
        <time>2017-05-25T08:04:35Z</time>
      </trkpt>
      <trkpt lat="45.74254" lon="3.82799">
        <ele>1245.699951</ele>
        <time>2017-05-25T08:04:37Z</time>
      </trkpt>
      <trkpt lat="45.74254" lon="3.82818">
        <ele>1243.599976</ele>
        <time>2017-05-25T08:04:39Z</time>
      </trkpt>
      <trkpt lat="45.74255" lon="3.82836">
        <ele>1241.699951</ele>
        <time>2017-05-25T08:04:41Z</time>
      </trkpt>
      <trkpt lat="45.74257" lon="3.82854">
        <ele>1240</ele>
        <time>2017-05-25T08:04:43Z</time>
      </trkpt>
      <trkpt lat="45.74258" lon="3.82871">
        <ele>1238.300049</ele>
        <time>2017-05-25T08:04:45Z</time>
      </trkpt>
      <trkpt lat="45.74258" lon="3.82889">
        <ele>1236.699951</ele>
        <time>2017-05-25T08:04:47Z</time>
      </trkpt>
      <trkpt lat="45.74256" lon="3.8291">
        <ele>1235.400024</ele>
        <time>2017-05-25T08:04:49Z</time>
      </trkpt>
      <trkpt lat="45.74256" lon="3.82929">
        <ele>1233.699951</ele>
        <time>2017-05-25T08:04:51Z</time>
      </trkpt>
      <trkpt lat="45.74255" lon="3.82949">
        <ele>1232.199951</ele>
        <time>2017-05-25T08:04:53Z</time>
      </trkpt>
      <trkpt lat="45.74248" lon="3.82964">
        <ele>1230.699951</ele>
        <time>2017-05-25T08:04:55Z</time>
      </trkpt>
      <trkpt lat="45.7424" lon="3.82978">
        <ele>1229.599976</ele>
        <time>2017-05-25T08:04:57Z</time>
      </trkpt>
      <trkpt lat="45.74232" lon="3.82991">
        <ele>1228.400024</ele>
        <time>2017-05-25T08:04:59Z</time>
      </trkpt>
      <trkpt lat="45.74224" lon="3.83003">
        <ele>1227.400024</ele>
        <time>2017-05-25T08:05:01Z</time>
      </trkpt>
      <trkpt lat="45.74216" lon="3.83014">
        <ele>1226.5</ele>
        <time>2017-05-25T08:05:03Z</time>
      </trkpt>
      <trkpt lat="45.7421" lon="3.83024">
        <ele>1225.5</ele>
        <time>2017-05-25T08:05:05Z</time>
      </trkpt>
      <trkpt lat="45.74202" lon="3.83037">
        <ele>1224</ele>
        <time>2017-05-25T08:05:08Z</time>
      </trkpt>
      <trkpt lat="45.74198" lon="3.83051">
        <ele>1220.300049</ele>
        <time>2017-05-25T08:08:16Z</time>
      </trkpt>
      <trkpt lat="45.74193" lon="3.83065">
        <ele>1220.099976</ele>
        <time>2017-05-25T08:08:20Z</time>
      </trkpt>
      <trkpt lat="45.74186" lon="3.83079">
        <ele>1218.800049</ele>
        <time>2017-05-25T08:08:23Z</time>
      </trkpt>
      <trkpt lat="45.74181" lon="3.83096">
        <ele>1218.599976</ele>
        <time>2017-05-25T08:08:26Z</time>
      </trkpt>
      <trkpt lat="45.74178" lon="3.83109">
        <ele>1218.199951</ele>
        <time>2017-05-25T08:08:29Z</time>
      </trkpt>
      <trkpt lat="45.74175" lon="3.83122">
        <ele>1217.400024</ele>
        <time>2017-05-25T08:08:32Z</time>
      </trkpt>
      <trkpt lat="45.74171" lon="3.83137">
        <ele>1216.400024</ele>
        <time>2017-05-25T08:08:35Z</time>
      </trkpt>
      <trkpt lat="45.74166" lon="3.83151">
        <ele>1214.900024</ele>
        <time>2017-05-25T08:08:38Z</time>
      </trkpt>
      <trkpt lat="45.74159" lon="3.83164">
        <ele>1213.800049</ele>
        <time>2017-05-25T08:08:41Z</time>
      </trkpt>
      <trkpt lat="45.74152" lon="3.83178">
        <ele>1212.099976</ele>
        <time>2017-05-25T08:08:44Z</time>
      </trkpt>
      <trkpt lat="45.74145" lon="3.83194">
        <ele>1210.5</ele>
        <time>2017-05-25T08:08:47Z</time>
      </trkpt>
      <trkpt lat="45.7414" lon="3.83206">
        <ele>1209.5</ele>
        <time>2017-05-25T08:08:49Z</time>
      </trkpt>
      <trkpt lat="45.74136" lon="3.83219">
        <ele>1208.5</ele>
        <time>2017-05-25T08:08:51Z</time>
      </trkpt>
      <trkpt lat="45.74132" lon="3.83231">
        <ele>1207.400024</ele>
        <time>2017-05-25T08:08:53Z</time>
      </trkpt>
      <trkpt lat="45.74129" lon="3.83245">
        <ele>1205.800049</ele>
        <time>2017-05-25T08:08:55Z</time>
      </trkpt>
      <trkpt lat="45.74126" lon="3.83261">
        <ele>1204.900024</ele>
        <time>2017-05-25T08:08:57Z</time>
      </trkpt>
      <trkpt lat="45.74122" lon="3.83278">
        <ele>1203.900024</ele>
        <time>2017-05-25T08:08:59Z</time>
      </trkpt>
      <trkpt lat="45.74118" lon="3.83295">
        <ele>1203</ele>
        <time>2017-05-25T08:09:01Z</time>
      </trkpt>
      <trkpt lat="45.74114" lon="3.83312">
        <ele>1201.800049</ele>
        <time>2017-05-25T08:09:03Z</time>
      </trkpt>
      <trkpt lat="45.74111" lon="3.83329">
        <ele>1200.800049</ele>
        <time>2017-05-25T08:09:05Z</time>
      </trkpt>
      <trkpt lat="45.74109" lon="3.83346">
        <ele>1200.300049</ele>
        <time>2017-05-25T08:09:07Z</time>
      </trkpt>
      <trkpt lat="45.74107" lon="3.83363">
        <ele>1199.900024</ele>
        <time>2017-05-25T08:09:09Z</time>
      </trkpt>
      <trkpt lat="45.74104" lon="3.8338">
        <ele>1199.400024</ele>
        <time>2017-05-25T08:09:11Z</time>
      </trkpt>
      <trkpt lat="45.74102" lon="3.83393">
        <ele>1199</ele>
        <time>2017-05-25T08:09:13Z</time>
      </trkpt>
      <trkpt lat="45.74098" lon="3.83406">
        <ele>1198.699951</ele>
        <time>2017-05-25T08:09:15Z</time>
      </trkpt>
      <trkpt lat="45.74092" lon="3.83417">
        <ele>1198.099976</ele>
        <time>2017-05-25T08:09:17Z</time>
      </trkpt>
      <trkpt lat="45.74084" lon="3.83422">
        <ele>1197.300049</ele>
        <time>2017-05-25T08:09:20Z</time>
      </trkpt>
      <trkpt lat="45.74075" lon="3.83425">
        <ele>1167.131836</ele>
        <time>2017-05-25T08:10:17Z</time>
      </trkpt>
      <trkpt lat="45.74072" lon="3.83418">
        <ele>1195.800049</ele>
        <time>2017-05-25T08:10:37Z</time>
      </trkpt>
      <trkpt lat="45.74071" lon="3.83403">
        <ele>1195.900024</ele>
        <time>2017-05-25T08:10:42Z</time>
      </trkpt>
      <trkpt lat="45.7407" lon="3.83389">
        <ele>1195.800049</ele>
        <time>2017-05-25T08:10:46Z</time>
      </trkpt>
      <trkpt lat="45.74069" lon="3.83375">
        <ele>1195.5</ele>
        <time>2017-05-25T08:10:49Z</time>
      </trkpt>
      <trkpt lat="45.74067" lon="3.83358">
        <ele>1195.300049</ele>
        <time>2017-05-25T08:10:52Z</time>
      </trkpt>
      <trkpt lat="45.74066" lon="3.83344">
        <ele>1194.800049</ele>
        <time>2017-05-25T08:10:54Z</time>
      </trkpt>
      <trkpt lat="45.74064" lon="3.83329">
        <ele>1194.599976</ele>
        <time>2017-05-25T08:10:56Z</time>
      </trkpt>
      <trkpt lat="45.74063" lon="3.83313">
        <ele>1194.099976</ele>
        <time>2017-05-25T08:10:58Z</time>
      </trkpt>
      <trkpt lat="45.74061" lon="3.83296">
        <ele>1193.699951</ele>
        <time>2017-05-25T08:11:00Z</time>
      </trkpt>
      <trkpt lat="45.74059" lon="3.83278">
        <ele>1193.199951</ele>
        <time>2017-05-25T08:11:02Z</time>
      </trkpt>
      <trkpt lat="45.74057" lon="3.83258">
        <ele>1192.800049</ele>
        <time>2017-05-25T08:11:04Z</time>
      </trkpt>
      <trkpt lat="45.74055" lon="3.83237">
        <ele>1192.099976</ele>
        <time>2017-05-25T08:11:06Z</time>
      </trkpt>
      <trkpt lat="45.74053" lon="3.83216">
        <ele>1191.300049</ele>
        <time>2017-05-25T08:11:08Z</time>
      </trkpt>
      <trkpt lat="45.74051" lon="3.83194">
        <ele>1190.400024</ele>
        <time>2017-05-25T08:11:10Z</time>
      </trkpt>
      <trkpt lat="45.74048" lon="3.83172">
        <ele>1189.800049</ele>
        <time>2017-05-25T08:11:12Z</time>
      </trkpt>
      <trkpt lat="45.74047" lon="3.83149">
        <ele>1189.099976</ele>
        <time>2017-05-25T08:11:14Z</time>
      </trkpt>
      <trkpt lat="45.74045" lon="3.83126">
        <ele>1188.5</ele>
        <time>2017-05-25T08:11:16Z</time>
      </trkpt>
      <trkpt lat="45.74044" lon="3.83102">
        <ele>1187.900024</ele>
        <time>2017-05-25T08:11:18Z</time>
      </trkpt>
      <trkpt lat="45.74045" lon="3.83078">
        <ele>1187.099976</ele>
        <time>2017-05-25T08:11:20Z</time>
      </trkpt>
      <trkpt lat="45.74046" lon="3.83053">
        <ele>1186.5</ele>
        <time>2017-05-25T08:11:22Z</time>
      </trkpt>
      <trkpt lat="45.74048" lon="3.8303">
        <ele>1185.699951</ele>
        <time>2017-05-25T08:11:24Z</time>
      </trkpt>
      <trkpt lat="45.74043" lon="3.83007">
        <ele>1185</ele>
        <time>2017-05-25T08:11:26Z</time>
      </trkpt>
      <trkpt lat="45.74033" lon="3.82991">
        <ele>1184.199951</ele>
        <time>2017-05-25T08:11:28Z</time>
      </trkpt>
      <trkpt lat="45.74023" lon="3.82981">
        <ele>1183.300049</ele>
        <time>2017-05-25T08:11:30Z</time>
      </trkpt>
      <trkpt lat="45.74017" lon="3.8297">
        <ele>1182.099976</ele>
        <time>2017-05-25T08:11:33Z</time>
      </trkpt>
      <trkpt lat="45.74014" lon="3.82957">
        <ele>1180.199951</ele>
        <time>2017-05-25T08:11:38Z</time>
      </trkpt>
      <trkpt lat="45.74012" lon="3.82943">
        <ele>1179.400024</ele>
        <time>2017-05-25T08:11:43Z</time>
      </trkpt>
      <trkpt lat="45.74009" lon="3.82929">
        <ele>1180.400024</ele>
        <time>2017-05-25T08:11:50Z</time>
      </trkpt>
      <trkpt lat="45.74009" lon="3.82915">
        <ele>1181.699951</ele>
        <time>2017-05-25T08:11:57Z</time>
      </trkpt>
      <trkpt lat="45.74004" lon="3.82903">
        <ele>1182.900024</ele>
        <time>2017-05-25T08:12:02Z</time>
      </trkpt>
      <trkpt lat="45.73997" lon="3.82892">
        <ele>1183.800049</ele>
        <time>2017-05-25T08:12:07Z</time>
      </trkpt>
      <trkpt lat="45.73991" lon="3.82882">
        <ele>1184.400024</ele>
        <time>2017-05-25T08:12:11Z</time>
      </trkpt>
      <trkpt lat="45.73984" lon="3.82872">
        <ele>1185.099976</ele>
        <time>2017-05-25T08:12:15Z</time>
      </trkpt>
      <trkpt lat="45.73978" lon="3.82859">
        <ele>1186.300049</ele>
        <time>2017-05-25T08:12:20Z</time>
      </trkpt>
      <trkpt lat="45.73971" lon="3.82848">
        <ele>1187.099976</ele>
        <time>2017-05-25T08:12:24Z</time>
      </trkpt>
      <trkpt lat="45.73965" lon="3.82837">
        <ele>1187.699951</ele>
        <time>2017-05-25T08:12:29Z</time>
      </trkpt>
      <trkpt lat="45.73961" lon="3.82825">
        <ele>1188.5</ele>
        <time>2017-05-25T08:12:34Z</time>
      </trkpt>
      <trkpt lat="45.73957" lon="3.82812">
        <ele>1189</ele>
        <time>2017-05-25T08:12:38Z</time>
      </trkpt>
      <trkpt lat="45.73954" lon="3.82798">
        <ele>1189.5</ele>
        <time>2017-05-25T08:12:43Z</time>
      </trkpt>
      <trkpt lat="45.7395" lon="3.82785">
        <ele>1190</ele>
        <time>2017-05-25T08:12:47Z</time>
      </trkpt>
      <trkpt lat="45.73947" lon="3.8277">
        <ele>1191.199951</ele>
        <time>2017-05-25T08:12:52Z</time>
      </trkpt>
      <trkpt lat="45.73943" lon="3.82758">
        <ele>1192.099976</ele>
        <time>2017-05-25T08:12:56Z</time>
      </trkpt>
      <trkpt lat="45.7394" lon="3.82746">
        <ele>1192.699951</ele>
        <time>2017-05-25T08:13:00Z</time>
      </trkpt>
      <trkpt lat="45.73935" lon="3.82733">
        <ele>1193</ele>
        <time>2017-05-25T08:13:04Z</time>
      </trkpt>
      <trkpt lat="45.7393" lon="3.82719">
        <ele>1193</ele>
        <time>2017-05-25T08:13:08Z</time>
      </trkpt>
      <trkpt lat="45.73925" lon="3.82705">
        <ele>1193.5</ele>
        <time>2017-05-25T08:13:12Z</time>
      </trkpt>
      <trkpt lat="45.73921" lon="3.82691">
        <ele>1193.599976</ele>
        <time>2017-05-25T08:13:16Z</time>
      </trkpt>
      <trkpt lat="45.73918" lon="3.82677">
        <ele>1194.099976</ele>
        <time>2017-05-25T08:13:20Z</time>
      </trkpt>
      <trkpt lat="45.73916" lon="3.82661">
        <ele>1194.800049</ele>
        <time>2017-05-25T08:13:24Z</time>
      </trkpt>
      <trkpt lat="45.73915" lon="3.82645">
        <ele>1195.099976</ele>
        <time>2017-05-25T08:13:28Z</time>
      </trkpt>
      <trkpt lat="45.73913" lon="3.82631">
        <ele>1195.5</ele>
        <time>2017-05-25T08:13:32Z</time>
      </trkpt>
      <trkpt lat="45.73912" lon="3.82613">
        <ele>1195.699951</ele>
        <time>2017-05-25T08:13:36Z</time>
      </trkpt>
      <trkpt lat="45.73914" lon="3.826">
        <ele>1195.699951</ele>
        <time>2017-05-25T08:13:39Z</time>
      </trkpt>
      <trkpt lat="45.73913" lon="3.82587">
        <ele>1195.699951</ele>
        <time>2017-05-25T08:13:42Z</time>
      </trkpt>
      <trkpt lat="45.73912" lon="3.82574">
        <ele>1195.699951</ele>
        <time>2017-05-25T08:13:45Z</time>
      </trkpt>
      <trkpt lat="45.73911" lon="3.82558">
        <ele>1195.599976</ele>
        <time>2017-05-25T08:13:48Z</time>
      </trkpt>
      <trkpt lat="45.73912" lon="3.82543">
        <ele>1195.800049</ele>
        <time>2017-05-25T08:13:51Z</time>
      </trkpt>
      <trkpt lat="45.73913" lon="3.82528">
        <ele>1195.699951</ele>
        <time>2017-05-25T08:13:54Z</time>
      </trkpt>
      <trkpt lat="45.73914" lon="3.82512">
        <ele>1195.099976</ele>
        <time>2017-05-25T08:13:57Z</time>
      </trkpt>
      <trkpt lat="45.73916" lon="3.82495">
        <ele>1194.800049</ele>
        <time>2017-05-25T08:14:00Z</time>
      </trkpt>
      <trkpt lat="45.73918" lon="3.82482">
        <ele>1194.5</ele>
        <time>2017-05-25T08:14:02Z</time>
      </trkpt>
      <trkpt lat="45.7392" lon="3.82468">
        <ele>1194</ele>
        <time>2017-05-25T08:14:04Z</time>
      </trkpt>
      <trkpt lat="45.73922" lon="3.82453">
        <ele>1193.599976</ele>
        <time>2017-05-25T08:14:06Z</time>
      </trkpt>
      <trkpt lat="45.73924" lon="3.82438">
        <ele>1193.199951</ele>
        <time>2017-05-25T08:14:08Z</time>
      </trkpt>
      <trkpt lat="45.73926" lon="3.8242">
        <ele>1192.300049</ele>
        <time>2017-05-25T08:14:10Z</time>
      </trkpt>
      <trkpt lat="45.73928" lon="3.82402">
        <ele>1191.699951</ele>
        <time>2017-05-25T08:14:12Z</time>
      </trkpt>
      <trkpt lat="45.73931" lon="3.82384">
        <ele>1191.099976</ele>
        <time>2017-05-25T08:14:14Z</time>
      </trkpt>
      <trkpt lat="45.73935" lon="3.82366">
        <ele>1190.599976</ele>
        <time>2017-05-25T08:14:16Z</time>
      </trkpt>
      <trkpt lat="45.73939" lon="3.82348">
        <ele>1189.800049</ele>
        <time>2017-05-25T08:14:18Z</time>
      </trkpt>
      <trkpt lat="45.73944" lon="3.82329">
        <ele>1188.800049</ele>
        <time>2017-05-25T08:14:20Z</time>
      </trkpt>
      <trkpt lat="45.7395" lon="3.8231">
        <ele>1188.099976</ele>
        <time>2017-05-25T08:14:22Z</time>
      </trkpt>
      <trkpt lat="45.73957" lon="3.82291">
        <ele>1187.099976</ele>
        <time>2017-05-25T08:14:24Z</time>
      </trkpt>
      <trkpt lat="45.73963" lon="3.82274">
        <ele>1185.5</ele>
        <time>2017-05-25T08:14:26Z</time>
      </trkpt>
      <trkpt lat="45.73967" lon="3.82254">
        <ele>1184.5</ele>
        <time>2017-05-25T08:14:28Z</time>
      </trkpt>
      <trkpt lat="45.73972" lon="3.82235">
        <ele>1183.5</ele>
        <time>2017-05-25T08:14:30Z</time>
      </trkpt>
      <trkpt lat="45.73979" lon="3.82217">
        <ele>1182.599976</ele>
        <time>2017-05-25T08:14:32Z</time>
      </trkpt>
      <trkpt lat="45.73985" lon="3.822">
        <ele>1181</ele>
        <time>2017-05-25T08:14:34Z</time>
      </trkpt>
      <trkpt lat="45.73991" lon="3.82182">
        <ele>1180.099976</ele>
        <time>2017-05-25T08:14:36Z</time>
      </trkpt>
      <trkpt lat="45.73996" lon="3.82162">
        <ele>1179</ele>
        <time>2017-05-25T08:14:38Z</time>
      </trkpt>
      <trkpt lat="45.74001" lon="3.82143">
        <ele>1177.900024</ele>
        <time>2017-05-25T08:14:40Z</time>
      </trkpt>
      <trkpt lat="45.74006" lon="3.82124">
        <ele>1177.099976</ele>
        <time>2017-05-25T08:14:42Z</time>
      </trkpt>
      <trkpt lat="45.74011" lon="3.82104">
        <ele>1175.900024</ele>
        <time>2017-05-25T08:14:44Z</time>
      </trkpt>
      <trkpt lat="45.74014" lon="3.82086">
        <ele>1174.699951</ele>
        <time>2017-05-25T08:14:46Z</time>
      </trkpt>
      <trkpt lat="45.74017" lon="3.82057">
        <ele>1171</ele>
        <time>2017-05-25T08:14:49Z</time>
      </trkpt>
      <trkpt lat="45.74017" lon="3.82029">
        <ele>1169.300049</ele>
        <time>2017-05-25T08:14:52Z</time>
      </trkpt>
      <trkpt lat="45.74017" lon="3.82014">
        <ele>1168</ele>
        <time>2017-05-25T08:14:54Z</time>
      </trkpt>
      <trkpt lat="45.74019" lon="3.81996">
        <ele>1166.800049</ele>
        <time>2017-05-25T08:14:56Z</time>
      </trkpt>
      <trkpt lat="45.74022" lon="3.81981">
        <ele>1165.5</ele>
        <time>2017-05-25T08:14:58Z</time>
      </trkpt>
      <trkpt lat="45.74026" lon="3.81963">
        <ele>1163.699951</ele>
        <time>2017-05-25T08:15:01Z</time>
      </trkpt>
      <trkpt lat="45.74029" lon="3.81951">
        <ele>1162.599976</ele>
        <time>2017-05-25T08:15:04Z</time>
      </trkpt>
      <trkpt lat="45.74034" lon="3.81933">
        <ele>1161.900024</ele>
        <time>2017-05-25T08:15:07Z</time>
      </trkpt>
      <trkpt lat="45.74039" lon="3.81919">
        <ele>1161.199951</ele>
        <time>2017-05-25T08:15:09Z</time>
      </trkpt>
      <trkpt lat="45.74044" lon="3.81906">
        <ele>1160.5</ele>
        <time>2017-05-25T08:15:11Z</time>
      </trkpt>
      <trkpt lat="45.74048" lon="3.81892">
        <ele>1159.800049</ele>
        <time>2017-05-25T08:15:13Z</time>
      </trkpt>
      <trkpt lat="45.74051" lon="3.81878">
        <ele>1159.199951</ele>
        <time>2017-05-25T08:15:15Z</time>
      </trkpt>
      <trkpt lat="45.74053" lon="3.81866">
        <ele>1158.5</ele>
        <time>2017-05-25T08:15:17Z</time>
      </trkpt>
      <trkpt lat="45.74057" lon="3.81851">
        <ele>1157.800049</ele>
        <time>2017-05-25T08:15:20Z</time>
      </trkpt>
      <trkpt lat="45.7406" lon="3.81834">
        <ele>1157</ele>
        <time>2017-05-25T08:15:25Z</time>
      </trkpt>
      <trkpt lat="45.74061" lon="3.8182">
        <ele>1156.699951</ele>
        <time>2017-05-25T08:15:28Z</time>
      </trkpt>
      <trkpt lat="45.74059" lon="3.81818">
        <ele>1157.099976</ele>
        <time>2017-05-25T08:18:39Z</time>
      </trkpt>
      <trkpt lat="45.74056" lon="3.81806">
        <ele>1156.599976</ele>
        <time>2017-05-25T08:18:44Z</time>
      </trkpt>
      <trkpt lat="45.74056" lon="3.81792">
        <ele>1156.199951</ele>
        <time>2017-05-25T08:19:02Z</time>
      </trkpt>
      <trkpt lat="45.74054" lon="3.81776">
        <ele>1156.099976</ele>
        <time>2017-05-25T08:19:05Z</time>
      </trkpt>
      <trkpt lat="45.74053" lon="3.81759">
        <ele>1155.900024</ele>
        <time>2017-05-25T08:19:07Z</time>
      </trkpt>
      <trkpt lat="45.74053" lon="3.81741">
        <ele>1155.699951</ele>
        <time>2017-05-25T08:19:09Z</time>
      </trkpt>
      <trkpt lat="45.74052" lon="3.81723">
        <ele>1155</ele>
        <time>2017-05-25T08:19:11Z</time>
      </trkpt>
      <trkpt lat="45.74052" lon="3.81703">
        <ele>1154.099976</ele>
        <time>2017-05-25T08:19:13Z</time>
      </trkpt>
      <trkpt lat="45.74051" lon="3.81682">
        <ele>1153.400024</ele>
        <time>2017-05-25T08:19:15Z</time>
      </trkpt>
      <trkpt lat="45.7405" lon="3.81665">
        <ele>1152.699951</ele>
        <time>2017-05-25T08:19:17Z</time>
      </trkpt>
      <trkpt lat="45.74048" lon="3.81648">
        <ele>1152</ele>
        <time>2017-05-25T08:19:19Z</time>
      </trkpt>
      <trkpt lat="45.74044" lon="3.81628">
        <ele>1151.800049</ele>
        <time>2017-05-25T08:19:21Z</time>
      </trkpt>
      <trkpt lat="45.74042" lon="3.81608">
        <ele>1151.5</ele>
        <time>2017-05-25T08:19:23Z</time>
      </trkpt>
      <trkpt lat="45.7404" lon="3.81589">
        <ele>1151.300049</ele>
        <time>2017-05-25T08:19:25Z</time>
      </trkpt>
      <trkpt lat="45.74038" lon="3.8157">
        <ele>1151</ele>
        <time>2017-05-25T08:19:27Z</time>
      </trkpt>
      <trkpt lat="45.74036" lon="3.81553">
        <ele>1150.599976</ele>
        <time>2017-05-25T08:19:29Z</time>
      </trkpt>
      <trkpt lat="45.74036" lon="3.81537">
        <ele>1150.400024</ele>
        <time>2017-05-25T08:19:31Z</time>
      </trkpt>
      <trkpt lat="45.74034" lon="3.81521">
        <ele>1150</ele>
        <time>2017-05-25T08:19:33Z</time>
      </trkpt>
      <trkpt lat="45.74033" lon="3.81507">
        <ele>1149.699951</ele>
        <time>2017-05-25T08:19:35Z</time>
      </trkpt>
      <trkpt lat="45.74033" lon="3.81491">
        <ele>1149.199951</ele>
        <time>2017-05-25T08:19:37Z</time>
      </trkpt>
      <trkpt lat="45.74032" lon="3.81474">
        <ele>1148.800049</ele>
        <time>2017-05-25T08:19:39Z</time>
      </trkpt>
      <trkpt lat="45.74031" lon="3.81456">
        <ele>1148.199951</ele>
        <time>2017-05-25T08:19:41Z</time>
      </trkpt>
      <trkpt lat="45.7403" lon="3.81438">
        <ele>1147.599976</ele>
        <time>2017-05-25T08:19:43Z</time>
      </trkpt>
      <trkpt lat="45.74029" lon="3.8142">
        <ele>1147</ele>
        <time>2017-05-25T08:19:45Z</time>
      </trkpt>
      <trkpt lat="45.74026" lon="3.81402">
        <ele>1146.199951</ele>
        <time>2017-05-25T08:19:47Z</time>
      </trkpt>
      <trkpt lat="45.74019" lon="3.81386">
        <ele>1144.800049</ele>
        <time>2017-05-25T08:19:49Z</time>
      </trkpt>
      <trkpt lat="45.74009" lon="3.81371">
        <ele>1144.099976</ele>
        <time>2017-05-25T08:19:51Z</time>
      </trkpt>
      <trkpt lat="45.73997" lon="3.81359">
        <ele>1143.400024</ele>
        <time>2017-05-25T08:19:53Z</time>
      </trkpt>
      <trkpt lat="45.73984" lon="3.81349">
        <ele>1142.400024</ele>
        <time>2017-05-25T08:19:55Z</time>
      </trkpt>
      <trkpt lat="45.73975" lon="3.81338">
        <ele>1141.599976</ele>
        <time>2017-05-25T08:19:57Z</time>
      </trkpt>
      <trkpt lat="45.73973" lon="3.81324">
        <ele>1140.199951</ele>
        <time>2017-05-25T08:19:59Z</time>
      </trkpt>
      <trkpt lat="45.73975" lon="3.81311">
        <ele>1139.199951</ele>
        <time>2017-05-25T08:20:01Z</time>
      </trkpt>
      <trkpt lat="45.73978" lon="3.81299">
        <ele>1138.300049</ele>
        <time>2017-05-25T08:20:03Z</time>
      </trkpt>
      <trkpt lat="45.73986" lon="3.81289">
        <ele>1137.599976</ele>
        <time>2017-05-25T08:20:05Z</time>
      </trkpt>
      <trkpt lat="45.73996" lon="3.81282">
        <ele>1137.199951</ele>
        <time>2017-05-25T08:20:07Z</time>
      </trkpt>
      <trkpt lat="45.74006" lon="3.81274">
        <ele>1136.699951</ele>
        <time>2017-05-25T08:20:09Z</time>
      </trkpt>
      <trkpt lat="45.74015" lon="3.81266">
        <ele>1136</ele>
        <time>2017-05-25T08:20:11Z</time>
      </trkpt>
      <trkpt lat="45.74024" lon="3.81255">
        <ele>1135.099976</ele>
        <time>2017-05-25T08:20:13Z</time>
      </trkpt>
      <trkpt lat="45.74032" lon="3.81243">
        <ele>1134.699951</ele>
        <time>2017-05-25T08:20:15Z</time>
      </trkpt>
      <trkpt lat="45.74038" lon="3.81229">
        <ele>1134.099976</ele>
        <time>2017-05-25T08:20:17Z</time>
      </trkpt>
      <trkpt lat="45.74039" lon="3.81215">
        <ele>1133.599976</ele>
        <time>2017-05-25T08:20:19Z</time>
      </trkpt>
      <trkpt lat="45.74039" lon="3.81196">
        <ele>1132.900024</ele>
        <time>2017-05-25T08:20:22Z</time>
      </trkpt>
      <trkpt lat="45.74034" lon="3.8118">
        <ele>1131.900024</ele>
        <time>2017-05-25T08:20:25Z</time>
      </trkpt>
      <trkpt lat="45.74029" lon="3.81164">
        <ele>1131.699951</ele>
        <time>2017-05-25T08:20:28Z</time>
      </trkpt>
      <trkpt lat="45.74021" lon="3.81149">
        <ele>1131.900024</ele>
        <time>2017-05-25T08:20:31Z</time>
      </trkpt>
      <trkpt lat="45.74012" lon="3.81137">
        <ele>1131.900024</ele>
        <time>2017-05-25T08:20:34Z</time>
      </trkpt>
      <trkpt lat="45.74003" lon="3.81129">
        <ele>1132.199951</ele>
        <time>2017-05-25T08:20:37Z</time>
      </trkpt>
      <trkpt lat="45.73993" lon="3.8112">
        <ele>1133.199951</ele>
        <time>2017-05-25T08:20:41Z</time>
      </trkpt>
      <trkpt lat="45.73985" lon="3.81109">
        <ele>1134.400024</ele>
        <time>2017-05-25T08:20:46Z</time>
      </trkpt>
      <trkpt lat="45.7398" lon="3.811">
        <ele>1137.199951</ele>
        <time>2017-05-25T08:21:44Z</time>
      </trkpt>
      <trkpt lat="45.7397" lon="3.81097">
        <ele>1135.900024</ele>
        <time>2017-05-25T08:21:49Z</time>
      </trkpt>
      <trkpt lat="45.73961" lon="3.81088">
        <ele>1134.199951</ele>
        <time>2017-05-25T08:21:54Z</time>
      </trkpt>
      <trkpt lat="45.73952" lon="3.81081">
        <ele>1133.5</ele>
        <time>2017-05-25T08:21:58Z</time>
      </trkpt>
      <trkpt lat="45.73942" lon="3.81073">
        <ele>1133</ele>
        <time>2017-05-25T08:22:02Z</time>
      </trkpt>
      <trkpt lat="45.73931" lon="3.81065">
        <ele>1132.5</ele>
        <time>2017-05-25T08:22:06Z</time>
      </trkpt>
      <trkpt lat="45.73922" lon="3.81057">
        <ele>1131.900024</ele>
        <time>2017-05-25T08:22:10Z</time>
      </trkpt>
      <trkpt lat="45.73912" lon="3.8105">
        <ele>1131</ele>
        <time>2017-05-25T08:22:14Z</time>
      </trkpt>
      <trkpt lat="45.73904" lon="3.81041">
        <ele>1130.099976</ele>
        <time>2017-05-25T08:22:18Z</time>
      </trkpt>
      <trkpt lat="45.73895" lon="3.81031">
        <ele>1129.599976</ele>
        <time>2017-05-25T08:22:22Z</time>
      </trkpt>
      <trkpt lat="45.73887" lon="3.81021">
        <ele>1129.300049</ele>
        <time>2017-05-25T08:22:25Z</time>
      </trkpt>
      <trkpt lat="45.73878" lon="3.81009">
        <ele>1128.699951</ele>
        <time>2017-05-25T08:22:29Z</time>
      </trkpt>
      <trkpt lat="45.7387" lon="3.80998">
        <ele>1128.300049</ele>
        <time>2017-05-25T08:22:32Z</time>
      </trkpt>
      <trkpt lat="45.73862" lon="3.80989">
        <ele>1127.900024</ele>
        <time>2017-05-25T08:22:34Z</time>
      </trkpt>
      <trkpt lat="45.73854" lon="3.80977">
        <ele>1127.5</ele>
        <time>2017-05-25T08:22:37Z</time>
      </trkpt>
      <trkpt lat="45.73847" lon="3.80966">
        <ele>1127.099976</ele>
        <time>2017-05-25T08:22:41Z</time>
      </trkpt>
      <trkpt lat="45.73839" lon="3.80954">
        <ele>1126.699951</ele>
        <time>2017-05-25T08:22:45Z</time>
      </trkpt>
      <trkpt lat="45.73832" lon="3.80942">
        <ele>1126.300049</ele>
        <time>2017-05-25T08:22:49Z</time>
      </trkpt>
      <trkpt lat="45.73826" lon="3.80931">
        <ele>1125.900024</ele>
        <time>2017-05-25T08:22:53Z</time>
      </trkpt>
      <trkpt lat="45.73821" lon="3.80919">
        <ele>1125.699951</ele>
        <time>2017-05-25T08:22:57Z</time>
      </trkpt>
      <trkpt lat="45.73817" lon="3.80906">
        <ele>1125.5</ele>
        <time>2017-05-25T08:23:01Z</time>
      </trkpt>
      <trkpt lat="45.73813" lon="3.80891">
        <ele>1125.300049</ele>
        <time>2017-05-25T08:23:06Z</time>
      </trkpt>
      <trkpt lat="45.7381" lon="3.80877">
        <ele>1124.800049</ele>
        <time>2017-05-25T08:23:10Z</time>
      </trkpt>
      <trkpt lat="45.73806" lon="3.80865">
        <ele>1124.300049</ele>
        <time>2017-05-25T08:23:13Z</time>
      </trkpt>
      <trkpt lat="45.73801" lon="3.8085">
        <ele>1123.300049</ele>
        <time>2017-05-25T08:23:17Z</time>
      </trkpt>
      <trkpt lat="45.73797" lon="3.80836">
        <ele>1121.800049</ele>
        <time>2017-05-25T08:23:21Z</time>
      </trkpt>
      <trkpt lat="45.7379" lon="3.80822">
        <ele>1120.599976</ele>
        <time>2017-05-25T08:23:25Z</time>
      </trkpt>
      <trkpt lat="45.73784" lon="3.80812">
        <ele>1119.5</ele>
        <time>2017-05-25T08:23:28Z</time>
      </trkpt>
      <trkpt lat="45.73775" lon="3.80802">
        <ele>1117.800049</ele>
        <time>2017-05-25T08:23:31Z</time>
      </trkpt>
      <trkpt lat="45.73767" lon="3.80792">
        <ele>1116.199951</ele>
        <time>2017-05-25T08:23:34Z</time>
      </trkpt>
      <trkpt lat="45.73764" lon="3.80779">
        <ele>1114.599976</ele>
        <time>2017-05-25T08:23:37Z</time>
      </trkpt>
      <trkpt lat="45.73766" lon="3.80764">
        <ele>1113.099976</ele>
        <time>2017-05-25T08:23:40Z</time>
      </trkpt>
      <trkpt lat="45.73767" lon="3.80751">
        <ele>1112</ele>
        <time>2017-05-25T08:23:42Z</time>
      </trkpt>
      <trkpt lat="45.73769" lon="3.80734">
        <ele>1110.400024</ele>
        <time>2017-05-25T08:23:45Z</time>
      </trkpt>
      <trkpt lat="45.73771" lon="3.8072">
        <ele>1109.300049</ele>
        <time>2017-05-25T08:23:48Z</time>
      </trkpt>
      <trkpt lat="45.73774" lon="3.80704">
        <ele>1108</ele>
        <time>2017-05-25T08:23:52Z</time>
      </trkpt>
      <trkpt lat="45.73775" lon="3.8069">
        <ele>1107.699951</ele>
        <time>2017-05-25T08:23:55Z</time>
      </trkpt>
      <trkpt lat="45.73778" lon="3.80675">
        <ele>1107.199951</ele>
        <time>2017-05-25T08:23:59Z</time>
      </trkpt>
      <trkpt lat="45.7378" lon="3.8066">
        <ele>1107</ele>
        <time>2017-05-25T08:24:03Z</time>
      </trkpt>
      <trkpt lat="45.73781" lon="3.80645">
        <ele>1106.599976</ele>
        <time>2017-05-25T08:24:07Z</time>
      </trkpt>
      <trkpt lat="45.73779" lon="3.8063">
        <ele>1106.300049</ele>
        <time>2017-05-25T08:24:12Z</time>
      </trkpt>
      <trkpt lat="45.7378" lon="3.80616">
        <ele>1106</ele>
        <time>2017-05-25T08:24:17Z</time>
      </trkpt>
      <trkpt lat="45.73776" lon="3.80602">
        <ele>1105.5</ele>
        <time>2017-05-25T08:24:25Z</time>
      </trkpt>
      <trkpt lat="45.73773" lon="3.80589">
        <ele>1105.800049</ele>
        <time>2017-05-25T08:24:35Z</time>
      </trkpt>
      <trkpt lat="45.73768" lon="3.80578">
        <ele>1105.800049</ele>
        <time>2017-05-25T08:24:48Z</time>
      </trkpt>
      <trkpt lat="45.7376" lon="3.80569">
        <ele>1105.099976</ele>
        <time>2017-05-25T08:26:26Z</time>
      </trkpt>
      <trkpt lat="45.73751" lon="3.80564">
        <ele>1104.900024</ele>
        <time>2017-05-25T08:26:29Z</time>
      </trkpt>
      <trkpt lat="45.73744" lon="3.80554">
        <ele>1104.599976</ele>
        <time>2017-05-25T08:26:34Z</time>
      </trkpt>
      <trkpt lat="45.73738" lon="3.80545">
        <ele>1104.599976</ele>
        <time>2017-05-25T08:27:32Z</time>
      </trkpt>
      <trkpt lat="45.73731" lon="3.80554">
        <ele>1105.099976</ele>
        <time>2017-05-25T08:33:51Z</time>
      </trkpt>
      <trkpt lat="45.73724" lon="3.80563">
        <ele>1104.199951</ele>
        <time>2017-05-25T08:34:10Z</time>
      </trkpt>
      <trkpt lat="45.73714" lon="3.80566">
        <ele>1103.699951</ele>
        <time>2017-05-25T08:34:13Z</time>
      </trkpt>
      <trkpt lat="45.73702" lon="3.80566">
        <ele>1103.300049</ele>
        <time>2017-05-25T08:34:16Z</time>
      </trkpt>
      <trkpt lat="45.73693" lon="3.80567">
        <ele>1102.400024</ele>
        <time>2017-05-25T08:34:18Z</time>
      </trkpt>
      <trkpt lat="45.73682" lon="3.80569">
        <ele>1101.599976</ele>
        <time>2017-05-25T08:34:20Z</time>
      </trkpt>
      <trkpt lat="45.73671" lon="3.80572">
        <ele>1101.099976</ele>
        <time>2017-05-25T08:34:22Z</time>
      </trkpt>
      <trkpt lat="45.7366" lon="3.80575">
        <ele>1100.599976</ele>
        <time>2017-05-25T08:34:24Z</time>
      </trkpt>
      <trkpt lat="45.73649" lon="3.80577">
        <ele>1100</ele>
        <time>2017-05-25T08:34:26Z</time>
      </trkpt>
      <trkpt lat="45.73638" lon="3.80578">
        <ele>1098.699951</ele>
        <time>2017-05-25T08:34:28Z</time>
      </trkpt>
      <trkpt lat="45.73629" lon="3.80579">
        <ele>1098</ele>
        <time>2017-05-25T08:34:30Z</time>
      </trkpt>
      <trkpt lat="45.73617" lon="3.80576">
        <ele>1096.300049</ele>
        <time>2017-05-25T08:34:33Z</time>
      </trkpt>
      <trkpt lat="45.73608" lon="3.80566">
        <ele>1095.199951</ele>
        <time>2017-05-25T08:34:35Z</time>
      </trkpt>
      <trkpt lat="45.73599" lon="3.80556">
        <ele>1093.800049</ele>
        <time>2017-05-25T08:34:37Z</time>
      </trkpt>
      <trkpt lat="45.73589" lon="3.80545">
        <ele>1093</ele>
        <time>2017-05-25T08:34:39Z</time>
      </trkpt>
      <trkpt lat="45.73578" lon="3.80532">
        <ele>1092.400024</ele>
        <time>2017-05-25T08:34:41Z</time>
      </trkpt>
      <trkpt lat="45.73567" lon="3.80518">
        <ele>1091.699951</ele>
        <time>2017-05-25T08:34:43Z</time>
      </trkpt>
      <trkpt lat="45.73554" lon="3.80504">
        <ele>1090.400024</ele>
        <time>2017-05-25T08:34:45Z</time>
      </trkpt>
      <trkpt lat="45.7354" lon="3.80488">
        <ele>1089.199951</ele>
        <time>2017-05-25T08:34:47Z</time>
      </trkpt>
      <trkpt lat="45.73528" lon="3.80472">
        <ele>1088.099976</ele>
        <time>2017-05-25T08:34:49Z</time>
      </trkpt>
      <trkpt lat="45.73517" lon="3.8046">
        <ele>1087.099976</ele>
        <time>2017-05-25T08:34:51Z</time>
      </trkpt>
      <trkpt lat="45.73506" lon="3.80459">
        <ele>1086.300049</ele>
        <time>2017-05-25T08:34:54Z</time>
      </trkpt>
      <trkpt lat="45.73499" lon="3.80469">
        <ele>1085.800049</ele>
        <time>2017-05-25T08:34:58Z</time>
      </trkpt>
      <trkpt lat="45.73493" lon="3.8048">
        <ele>1085.800049</ele>
        <time>2017-05-25T08:35:01Z</time>
      </trkpt>
      <trkpt lat="45.73488" lon="3.80493">
        <ele>1085.800049</ele>
        <time>2017-05-25T08:35:05Z</time>
      </trkpt>
      <trkpt lat="45.73483" lon="3.80505">
        <ele>1086.099976</ele>
        <time>2017-05-25T08:35:09Z</time>
      </trkpt>
      <trkpt lat="45.73479" lon="3.80518">
        <ele>1087</ele>
        <time>2017-05-25T08:35:14Z</time>
      </trkpt>
      <trkpt lat="45.73475" lon="3.80531">
        <ele>1087.699951</ele>
        <time>2017-05-25T08:35:19Z</time>
      </trkpt>
      <trkpt lat="45.73471" lon="3.80546">
        <ele>1088</ele>
        <time>2017-05-25T08:35:24Z</time>
      </trkpt>
      <trkpt lat="45.73467" lon="3.80559">
        <ele>1088.5</ele>
        <time>2017-05-25T08:35:29Z</time>
      </trkpt>
      <trkpt lat="45.73464" lon="3.80572">
        <ele>1089.599976</ele>
        <time>2017-05-25T08:35:34Z</time>
      </trkpt>
      <trkpt lat="45.7346" lon="3.80585">
        <ele>1090.400024</ele>
        <time>2017-05-25T08:35:39Z</time>
      </trkpt>
      <trkpt lat="45.73455" lon="3.80597">
        <ele>1091.199951</ele>
        <time>2017-05-25T08:35:44Z</time>
      </trkpt>
      <trkpt lat="45.7345" lon="3.80611">
        <ele>1092</ele>
        <time>2017-05-25T08:35:49Z</time>
      </trkpt>
      <trkpt lat="45.73446" lon="3.80623">
        <ele>1092.300049</ele>
        <time>2017-05-25T08:35:53Z</time>
      </trkpt>
      <trkpt lat="45.73441" lon="3.80638">
        <ele>1093</ele>
        <time>2017-05-25T08:35:58Z</time>
      </trkpt>
      <trkpt lat="45.73437" lon="3.80649">
        <ele>1093.300049</ele>
        <time>2017-05-25T08:36:02Z</time>
      </trkpt>
      <trkpt lat="45.73431" lon="3.8066">
        <ele>1093.400024</ele>
        <time>2017-05-25T08:36:05Z</time>
      </trkpt>
      <trkpt lat="45.73425" lon="3.80674">
        <ele>1093.199951</ele>
        <time>2017-05-25T08:36:08Z</time>
      </trkpt>
      <trkpt lat="45.73419" lon="3.80685">
        <ele>1093</ele>
        <time>2017-05-25T08:36:10Z</time>
      </trkpt>
      <trkpt lat="45.73412" lon="3.80695">
        <ele>1092.699951</ele>
        <time>2017-05-25T08:36:12Z</time>
      </trkpt>
      <trkpt lat="45.73404" lon="3.80705">
        <ele>1092.099976</ele>
        <time>2017-05-25T08:36:14Z</time>
      </trkpt>
      <trkpt lat="45.73395" lon="3.80714">
        <ele>1091.699951</ele>
        <time>2017-05-25T08:36:16Z</time>
      </trkpt>
      <trkpt lat="45.73385" lon="3.80726">
        <ele>1090.900024</ele>
        <time>2017-05-25T08:36:18Z</time>
      </trkpt>
      <trkpt lat="45.73377" lon="3.8074">
        <ele>1090.5</ele>
        <time>2017-05-25T08:36:20Z</time>
      </trkpt>
      <trkpt lat="45.7337" lon="3.80756">
        <ele>1090.099976</ele>
        <time>2017-05-25T08:36:22Z</time>
      </trkpt>
      <trkpt lat="45.73364" lon="3.80774">
        <ele>1089.599976</ele>
        <time>2017-05-25T08:36:24Z</time>
      </trkpt>
      <trkpt lat="45.73357" lon="3.80791">
        <ele>1089</ele>
        <time>2017-05-25T08:36:26Z</time>
      </trkpt>
      <trkpt lat="45.7335" lon="3.80805">
        <ele>1088.599976</ele>
        <time>2017-05-25T08:36:28Z</time>
      </trkpt>
      <trkpt lat="45.73349" lon="3.8082">
        <ele>1088.199951</ele>
        <time>2017-05-25T08:36:30Z</time>
      </trkpt>
      <trkpt lat="45.73349" lon="3.80833">
        <ele>1087.900024</ele>
        <time>2017-05-25T08:36:32Z</time>
      </trkpt>
      <trkpt lat="45.73351" lon="3.80853">
        <ele>1087.699951</ele>
        <time>2017-05-25T08:36:34Z</time>
      </trkpt>
      <trkpt lat="45.73351" lon="3.80868">
        <ele>1086.900024</ele>
        <time>2017-05-25T08:36:36Z</time>
      </trkpt>
      <trkpt lat="45.73349" lon="3.80882">
        <ele>1086.699951</ele>
        <time>2017-05-25T08:36:38Z</time>
      </trkpt>
      <trkpt lat="45.73349" lon="3.809">
        <ele>1086.400024</ele>
        <time>2017-05-25T08:36:40Z</time>
      </trkpt>
      <trkpt lat="45.73347" lon="3.80917">
        <ele>1086</ele>
        <time>2017-05-25T08:36:42Z</time>
      </trkpt>
      <trkpt lat="45.73346" lon="3.80932">
        <ele>1085.800049</ele>
        <time>2017-05-25T08:36:44Z</time>
      </trkpt>
      <trkpt lat="45.73346" lon="3.80947">
        <ele>1085.199951</ele>
        <time>2017-05-25T08:36:46Z</time>
      </trkpt>
      <trkpt lat="45.73346" lon="3.80965">
        <ele>1084.900024</ele>
        <time>2017-05-25T08:36:48Z</time>
      </trkpt>
      <trkpt lat="45.73341" lon="3.80982">
        <ele>1084.599976</ele>
        <time>2017-05-25T08:36:50Z</time>
      </trkpt>
      <trkpt lat="45.73346" lon="3.81004">
        <ele>1084.400024</ele>
        <time>2017-05-25T08:36:52Z</time>
      </trkpt>
      <trkpt lat="45.73346" lon="3.81023">
        <ele>1083.900024</ele>
        <time>2017-05-25T08:36:55Z</time>
      </trkpt>
      <trkpt lat="45.73343" lon="3.81037">
        <ele>1083</ele>
        <time>2017-05-25T08:36:59Z</time>
      </trkpt>
      <trkpt lat="45.7334" lon="3.81053">
        <ele>1082.800049</ele>
        <time>2017-05-25T08:37:03Z</time>
      </trkpt>
      <trkpt lat="45.73337" lon="3.81069">
        <ele>1083.300049</ele>
        <time>2017-05-25T08:37:08Z</time>
      </trkpt>
      <trkpt lat="45.73332" lon="3.81081">
        <ele>1084.099976</ele>
        <time>2017-05-25T08:37:13Z</time>
      </trkpt>
      <trkpt lat="45.73327" lon="3.81094">
        <ele>1084.699951</ele>
        <time>2017-05-25T08:37:17Z</time>
      </trkpt>
      <trkpt lat="45.73323" lon="3.81107">
        <ele>1085.199951</ele>
        <time>2017-05-25T08:37:21Z</time>
      </trkpt>
      <trkpt lat="45.73318" lon="3.81119">
        <ele>1085.400024</ele>
        <time>2017-05-25T08:37:25Z</time>
      </trkpt>
      <trkpt lat="45.73315" lon="3.81132">
        <ele>1085.900024</ele>
        <time>2017-05-25T08:37:30Z</time>
      </trkpt>
      <trkpt lat="45.7331" lon="3.81144">
        <ele>1086.800049</ele>
        <time>2017-05-25T08:37:35Z</time>
      </trkpt>
      <trkpt lat="45.73304" lon="3.81157">
        <ele>1087.199951</ele>
        <time>2017-05-25T08:37:39Z</time>
      </trkpt>
      <trkpt lat="45.73298" lon="3.81168">
        <ele>1087.800049</ele>
        <time>2017-05-25T08:37:44Z</time>
      </trkpt>
      <trkpt lat="45.73294" lon="3.81182">
        <ele>1088.5</ele>
        <time>2017-05-25T08:37:48Z</time>
      </trkpt>
      <trkpt lat="45.7329" lon="3.81196">
        <ele>1089.099976</ele>
        <time>2017-05-25T08:37:53Z</time>
      </trkpt>
      <trkpt lat="45.73284" lon="3.81208">
        <ele>1089.800049</ele>
        <time>2017-05-25T08:37:58Z</time>
      </trkpt>
      <trkpt lat="45.73278" lon="3.8122">
        <ele>1090.599976</ele>
        <time>2017-05-25T08:38:04Z</time>
      </trkpt>
      <trkpt lat="45.73271" lon="3.81231">
        <ele>1091</ele>
        <time>2017-05-25T08:38:08Z</time>
      </trkpt>
      <trkpt lat="45.73265" lon="3.81243">
        <ele>1091.5</ele>
        <time>2017-05-25T08:38:12Z</time>
      </trkpt>
      <trkpt lat="45.73258" lon="3.81252">
        <ele>1092</ele>
        <time>2017-05-25T08:38:16Z</time>
      </trkpt>
      <trkpt lat="45.7325" lon="3.8126">
        <ele>1093</ele>
        <time>2017-05-25T08:38:21Z</time>
      </trkpt>
      <trkpt lat="45.73242" lon="3.81267">
        <ele>1094</ele>
        <time>2017-05-25T08:38:26Z</time>
      </trkpt>
      <trkpt lat="45.73234" lon="3.81273">
        <ele>1095.400024</ele>
        <time>2017-05-25T08:38:33Z</time>
      </trkpt>
      <trkpt lat="45.73224" lon="3.81279">
        <ele>1096.400024</ele>
        <time>2017-05-25T08:38:38Z</time>
      </trkpt>
      <trkpt lat="45.73214" lon="3.81284">
        <ele>1097.699951</ele>
        <time>2017-05-25T08:38:44Z</time>
      </trkpt>
      <trkpt lat="45.73204" lon="3.81288">
        <ele>1099</ele>
        <time>2017-05-25T08:38:49Z</time>
      </trkpt>
      <trkpt lat="45.73196" lon="3.81293">
        <ele>1100.300049</ele>
        <time>2017-05-25T08:38:54Z</time>
      </trkpt>
      <trkpt lat="45.73187" lon="3.81298">
        <ele>1101.599976</ele>
        <time>2017-05-25T08:39:00Z</time>
      </trkpt>
      <trkpt lat="45.73177" lon="3.81301">
        <ele>1102.800049</ele>
        <time>2017-05-25T08:39:05Z</time>
      </trkpt>
      <trkpt lat="45.73169" lon="3.81306">
        <ele>1103.800049</ele>
        <time>2017-05-25T08:39:09Z</time>
      </trkpt>
      <trkpt lat="45.73159" lon="3.8131">
        <ele>1105</ele>
        <time>2017-05-25T08:39:15Z</time>
      </trkpt>
      <trkpt lat="45.73149" lon="3.81312">
        <ele>1106.199951</ele>
        <time>2017-05-25T08:39:21Z</time>
      </trkpt>
      <trkpt lat="45.7314" lon="3.81312">
        <ele>1107.199951</ele>
        <time>2017-05-25T08:39:26Z</time>
      </trkpt>
      <trkpt lat="45.73131" lon="3.8131">
        <ele>1108.5</ele>
        <time>2017-05-25T08:39:32Z</time>
      </trkpt>
      <trkpt lat="45.73121" lon="3.81309">
        <ele>1110.400024</ele>
        <time>2017-05-25T08:39:39Z</time>
      </trkpt>
      <trkpt lat="45.73113" lon="3.81304">
        <ele>1111.900024</ele>
        <time>2017-05-25T08:39:45Z</time>
      </trkpt>
      <trkpt lat="45.73105" lon="3.81294">
        <ele>1113.5</ele>
        <time>2017-05-25T08:39:52Z</time>
      </trkpt>
      <trkpt lat="45.731" lon="3.81283">
        <ele>1114.300049</ele>
        <time>2017-05-25T08:39:57Z</time>
      </trkpt>
      <trkpt lat="45.73095" lon="3.81272">
        <ele>1115.199951</ele>
        <time>2017-05-25T08:40:03Z</time>
      </trkpt>
      <trkpt lat="45.73091" lon="3.8126">
        <ele>1116.300049</ele>
        <time>2017-05-25T08:40:09Z</time>
      </trkpt>
      <trkpt lat="45.73088" lon="3.81248">
        <ele>1117.099976</ele>
        <time>2017-05-25T08:40:14Z</time>
      </trkpt>
      <trkpt lat="45.73085" lon="3.81235">
        <ele>1117.900024</ele>
        <time>2017-05-25T08:40:19Z</time>
      </trkpt>
      <trkpt lat="45.73081" lon="3.81223">
        <ele>1118.900024</ele>
        <time>2017-05-25T08:40:25Z</time>
      </trkpt>
      <trkpt lat="45.73077" lon="3.81209">
        <ele>1120.099976</ele>
        <time>2017-05-25T08:40:31Z</time>
      </trkpt>
      <trkpt lat="45.73071" lon="3.81196">
        <ele>1121</ele>
        <time>2017-05-25T08:40:35Z</time>
      </trkpt>
      <trkpt lat="45.73064" lon="3.81182">
        <ele>1121.699951</ele>
        <time>2017-05-25T08:40:39Z</time>
      </trkpt>
      <trkpt lat="45.73058" lon="3.81168">
        <ele>1122.400024</ele>
        <time>2017-05-25T08:40:43Z</time>
      </trkpt>
      <trkpt lat="45.73053" lon="3.81157">
        <ele>1122.900024</ele>
        <time>2017-05-25T08:40:47Z</time>
      </trkpt>
      <trkpt lat="45.73048" lon="3.81145">
        <ele>1123.5</ele>
        <time>2017-05-25T08:40:51Z</time>
      </trkpt>
      <trkpt lat="45.73044" lon="3.81131">
        <ele>1124</ele>
        <time>2017-05-25T08:40:55Z</time>
      </trkpt>
      <trkpt lat="45.7304" lon="3.81118">
        <ele>1124.699951</ele>
        <time>2017-05-25T08:41:00Z</time>
      </trkpt>
      <trkpt lat="45.73035" lon="3.81105">
        <ele>1125.5</ele>
        <time>2017-05-25T08:41:05Z</time>
      </trkpt>
      <trkpt lat="45.73032" lon="3.81092">
        <ele>1126.199951</ele>
        <time>2017-05-25T08:41:10Z</time>
      </trkpt>
      <trkpt lat="45.73028" lon="3.81079">
        <ele>1126.800049</ele>
        <time>2017-05-25T08:41:15Z</time>
      </trkpt>
      <trkpt lat="45.73023" lon="3.81062">
        <ele>1128</ele>
        <time>2017-05-25T08:41:21Z</time>
      </trkpt>
      <trkpt lat="45.73022" lon="3.81049">
        <ele>1128.800049</ele>
        <time>2017-05-25T08:41:25Z</time>
      </trkpt>
      <trkpt lat="45.7302" lon="3.81036">
        <ele>1129.599976</ele>
        <time>2017-05-25T08:41:29Z</time>
      </trkpt>
      <trkpt lat="45.73016" lon="3.81022">
        <ele>1130.300049</ele>
        <time>2017-05-25T08:41:32Z</time>
      </trkpt>
      <trkpt lat="45.73012" lon="3.8101">
        <ele>1131.099976</ele>
        <time>2017-05-25T08:41:37Z</time>
      </trkpt>
      <trkpt lat="45.73009" lon="3.80996">
        <ele>1131.900024</ele>
        <time>2017-05-25T08:41:42Z</time>
      </trkpt>
      <trkpt lat="45.73004" lon="3.80984">
        <ele>1132.699951</ele>
        <time>2017-05-25T08:41:46Z</time>
      </trkpt>
      <trkpt lat="45.72996" lon="3.80972">
        <ele>1133.599976</ele>
        <time>2017-05-25T08:41:51Z</time>
      </trkpt>
      <trkpt lat="45.72991" lon="3.8096">
        <ele>1134.400024</ele>
        <time>2017-05-25T08:41:56Z</time>
      </trkpt>
      <trkpt lat="45.72988" lon="3.80947">
        <ele>1135.300049</ele>
        <time>2017-05-25T08:42:01Z</time>
      </trkpt>
      <trkpt lat="45.72984" lon="3.80934">
        <ele>1136.300049</ele>
        <time>2017-05-25T08:42:07Z</time>
      </trkpt>
      <trkpt lat="45.72982" lon="3.8092">
        <ele>1137.099976</ele>
        <time>2017-05-25T08:42:12Z</time>
      </trkpt>
      <trkpt lat="45.72981" lon="3.80905">
        <ele>1138.400024</ele>
        <time>2017-05-25T08:42:18Z</time>
      </trkpt>
      <trkpt lat="45.7298" lon="3.8089">
        <ele>1139.5</ele>
        <time>2017-05-25T08:42:24Z</time>
      </trkpt>
      <trkpt lat="45.72979" lon="3.80877">
        <ele>1140.599976</ele>
        <time>2017-05-25T08:42:30Z</time>
      </trkpt>
      <trkpt lat="45.72978" lon="3.80864">
        <ele>1141.900024</ele>
        <time>2017-05-25T08:42:37Z</time>
      </trkpt>
      <trkpt lat="45.72979" lon="3.80849">
        <ele>1143.199951</ele>
        <time>2017-05-25T08:42:42Z</time>
      </trkpt>
      <trkpt lat="45.72981" lon="3.80835">
        <ele>1144.300049</ele>
        <time>2017-05-25T08:42:47Z</time>
      </trkpt>
      <trkpt lat="45.72983" lon="3.80822">
        <ele>1145.699951</ele>
        <time>2017-05-25T08:42:52Z</time>
      </trkpt>
      <trkpt lat="45.72985" lon="3.80808">
        <ele>1146.900024</ele>
        <time>2017-05-25T08:42:57Z</time>
      </trkpt>
      <trkpt lat="45.72988" lon="3.80795">
        <ele>1148.099976</ele>
        <time>2017-05-25T08:43:02Z</time>
      </trkpt>
      <trkpt lat="45.72989" lon="3.80783">
        <ele>1149.199951</ele>
        <time>2017-05-25T08:43:07Z</time>
      </trkpt>
      <trkpt lat="45.72993" lon="3.80768">
        <ele>1150</ele>
        <time>2017-05-25T08:43:13Z</time>
      </trkpt>
      <trkpt lat="45.72996" lon="3.80754">
        <ele>1150.900024</ele>
        <time>2017-05-25T08:43:18Z</time>
      </trkpt>
      <trkpt lat="45.73" lon="3.80741">
        <ele>1151.599976</ele>
        <time>2017-05-25T08:43:23Z</time>
      </trkpt>
      <trkpt lat="45.73005" lon="3.80728">
        <ele>1152.699951</ele>
        <time>2017-05-25T08:43:29Z</time>
      </trkpt>
      <trkpt lat="45.73009" lon="3.80715">
        <ele>1153.699951</ele>
        <time>2017-05-25T08:43:34Z</time>
      </trkpt>
      <trkpt lat="45.73011" lon="3.80702">
        <ele>1154.300049</ele>
        <time>2017-05-25T08:43:38Z</time>
      </trkpt>
      <trkpt lat="45.73012" lon="3.80688">
        <ele>1155</ele>
        <time>2017-05-25T08:43:43Z</time>
      </trkpt>
      <trkpt lat="45.73013" lon="3.80673">
        <ele>1155.900024</ele>
        <time>2017-05-25T08:43:48Z</time>
      </trkpt>
      <trkpt lat="45.73012" lon="3.80657">
        <ele>1156.300049</ele>
        <time>2017-05-25T08:43:53Z</time>
      </trkpt>
      <trkpt lat="45.7301" lon="3.80642">
        <ele>1157.199951</ele>
        <time>2017-05-25T08:43:58Z</time>
      </trkpt>
      <trkpt lat="45.73009" lon="3.80626">
        <ele>1158</ele>
        <time>2017-05-25T08:44:03Z</time>
      </trkpt>
      <trkpt lat="45.73007" lon="3.80611">
        <ele>1158.5</ele>
        <time>2017-05-25T08:44:08Z</time>
      </trkpt>
      <trkpt lat="45.73005" lon="3.80596">
        <ele>1159.099976</ele>
        <time>2017-05-25T08:44:13Z</time>
      </trkpt>
      <trkpt lat="45.73002" lon="3.80583">
        <ele>1159.900024</ele>
        <time>2017-05-25T08:44:18Z</time>
      </trkpt>
      <trkpt lat="45.72999" lon="3.80569">
        <ele>1160.900024</ele>
        <time>2017-05-25T08:44:23Z</time>
      </trkpt>
      <trkpt lat="45.73" lon="3.80553">
        <ele>1161.699951</ele>
        <time>2017-05-25T08:44:28Z</time>
      </trkpt>
      <trkpt lat="45.72998" lon="3.80539">
        <ele>1162.699951</ele>
        <time>2017-05-25T08:44:33Z</time>
      </trkpt>
      <trkpt lat="45.72996" lon="3.80525">
        <ele>1163.599976</ele>
        <time>2017-05-25T08:44:38Z</time>
      </trkpt>
      <trkpt lat="45.72993" lon="3.80512">
        <ele>1164.599976</ele>
        <time>2017-05-25T08:44:43Z</time>
      </trkpt>
      <trkpt lat="45.72991" lon="3.80499">
        <ele>1165.699951</ele>
        <time>2017-05-25T08:44:48Z</time>
      </trkpt>
      <trkpt lat="45.72987" lon="3.80485">
        <ele>1166.5</ele>
        <time>2017-05-25T08:44:53Z</time>
      </trkpt>
      <trkpt lat="45.72984" lon="3.80471">
        <ele>1167.300049</ele>
        <time>2017-05-25T08:44:58Z</time>
      </trkpt>
      <trkpt lat="45.72984" lon="3.80456">
        <ele>1168.300049</ele>
        <time>2017-05-25T08:45:03Z</time>
      </trkpt>
      <trkpt lat="45.72982" lon="3.80443">
        <ele>1169.400024</ele>
        <time>2017-05-25T08:45:08Z</time>
      </trkpt>
      <trkpt lat="45.7298" lon="3.80428">
        <ele>1170.400024</ele>
        <time>2017-05-25T08:45:13Z</time>
      </trkpt>
      <trkpt lat="45.72978" lon="3.80413">
        <ele>1171.199951</ele>
        <time>2017-05-25T08:45:18Z</time>
      </trkpt>
      <trkpt lat="45.72974" lon="3.80399">
        <ele>1171.900024</ele>
        <time>2017-05-25T08:45:23Z</time>
      </trkpt>
      <trkpt lat="45.72972" lon="3.80384">
        <ele>1172.599976</ele>
        <time>2017-05-25T08:45:28Z</time>
      </trkpt>
      <trkpt lat="45.72971" lon="3.8037">
        <ele>1172.900024</ele>
        <time>2017-05-25T08:45:32Z</time>
      </trkpt>
      <trkpt lat="45.72972" lon="3.80355">
        <ele>1173.400024</ele>
        <time>2017-05-25T08:45:36Z</time>
      </trkpt>
      <trkpt lat="45.72973" lon="3.80341">
        <ele>1174</ele>
        <time>2017-05-25T08:45:40Z</time>
      </trkpt>
      <trkpt lat="45.72974" lon="3.80326">
        <ele>1174.5</ele>
        <time>2017-05-25T08:45:44Z</time>
      </trkpt>
      <trkpt lat="45.72975" lon="3.8031">
        <ele>1175.099976</ele>
        <time>2017-05-25T08:45:48Z</time>
      </trkpt>
      <trkpt lat="45.72975" lon="3.80294">
        <ele>1175.699951</ele>
        <time>2017-05-25T08:45:52Z</time>
      </trkpt>
      <trkpt lat="45.72974" lon="3.80281">
        <ele>1176</ele>
        <time>2017-05-25T08:45:55Z</time>
      </trkpt>
      <trkpt lat="45.72972" lon="3.80268">
        <ele>1176.099976</ele>
        <time>2017-05-25T08:45:59Z</time>
      </trkpt>
      <trkpt lat="45.72975" lon="3.80255">
        <ele>1176.400024</ele>
        <time>2017-05-25T08:48:49Z</time>
      </trkpt>
      <trkpt lat="45.72972" lon="3.8024">
        <ele>1176.599976</ele>
        <time>2017-05-25T08:49:05Z</time>
      </trkpt>
      <trkpt lat="45.72973" lon="3.80227">
        <ele>1176.900024</ele>
        <time>2017-05-25T08:49:08Z</time>
      </trkpt>
      <trkpt lat="45.72975" lon="3.80211">
        <ele>1177</ele>
        <time>2017-05-25T08:49:11Z</time>
      </trkpt>
      <trkpt lat="45.72976" lon="3.80196">
        <ele>1177.099976</ele>
        <time>2017-05-25T08:49:14Z</time>
      </trkpt>
      <trkpt lat="45.72977" lon="3.80181">
        <ele>1177.099976</ele>
        <time>2017-05-25T08:49:18Z</time>
      </trkpt>
      <trkpt lat="45.72981" lon="3.80166">
        <ele>1177</ele>
        <time>2017-05-25T08:49:21Z</time>
      </trkpt>
      <trkpt lat="45.72983" lon="3.8015">
        <ele>1177.099976</ele>
        <time>2017-05-25T08:49:24Z</time>
      </trkpt>
      <trkpt lat="45.72984" lon="3.80137">
        <ele>1177.199951</ele>
        <time>2017-05-25T08:49:27Z</time>
      </trkpt>
      <trkpt lat="45.72984" lon="3.8012">
        <ele>1177.199951</ele>
        <time>2017-05-25T08:49:31Z</time>
      </trkpt>
      <trkpt lat="45.72987" lon="3.80105">
        <ele>1177.300049</ele>
        <time>2017-05-25T08:49:34Z</time>
      </trkpt>
      <trkpt lat="45.72991" lon="3.8009">
        <ele>1177.599976</ele>
        <time>2017-05-25T08:49:38Z</time>
      </trkpt>
      <trkpt lat="45.72991" lon="3.80076">
        <ele>1177.5</ele>
        <time>2017-05-25T08:49:40Z</time>
      </trkpt>
      <trkpt lat="45.72991" lon="3.80061">
        <ele>1177.599976</ele>
        <time>2017-05-25T08:49:42Z</time>
      </trkpt>
      <trkpt lat="45.72992" lon="3.80045">
        <ele>1177.800049</ele>
        <time>2017-05-25T08:49:45Z</time>
      </trkpt>
      <trkpt lat="45.72992" lon="3.80029">
        <ele>1177.800049</ele>
        <time>2017-05-25T08:49:48Z</time>
      </trkpt>
      <trkpt lat="45.72992" lon="3.80016">
        <ele>1178.199951</ele>
        <time>2017-05-25T08:49:51Z</time>
      </trkpt>
      <trkpt lat="45.72991" lon="3.80001">
        <ele>1178.300049</ele>
        <time>2017-05-25T08:49:54Z</time>
      </trkpt>
      <trkpt lat="45.7299" lon="3.79988">
        <ele>1178.5</ele>
        <time>2017-05-25T08:49:57Z</time>
      </trkpt>
      <trkpt lat="45.72989" lon="3.79973">
        <ele>1179</ele>
        <time>2017-05-25T08:50:01Z</time>
      </trkpt>
      <trkpt lat="45.72987" lon="3.79958">
        <ele>1179.5</ele>
        <time>2017-05-25T08:50:05Z</time>
      </trkpt>
      <trkpt lat="45.72981" lon="3.79944">
        <ele>1180.099976</ele>
        <time>2017-05-25T08:50:09Z</time>
      </trkpt>
      <trkpt lat="45.72974" lon="3.79931">
        <ele>1180.800049</ele>
        <time>2017-05-25T08:50:13Z</time>
      </trkpt>
      <trkpt lat="45.72969" lon="3.7992">
        <ele>1181.099976</ele>
        <time>2017-05-25T08:50:17Z</time>
      </trkpt>
      <trkpt lat="45.72961" lon="3.7991">
        <ele>1181.900024</ele>
        <time>2017-05-25T08:50:22Z</time>
      </trkpt>
      <trkpt lat="45.72954" lon="3.79901">
        <ele>1182.699951</ele>
        <time>2017-05-25T08:50:27Z</time>
      </trkpt>
      <trkpt lat="45.72947" lon="3.79892">
        <ele>1183.5</ele>
        <time>2017-05-25T08:50:32Z</time>
      </trkpt>
      <trkpt lat="45.7294" lon="3.79883">
        <ele>1184.599976</ele>
        <time>2017-05-25T08:50:37Z</time>
      </trkpt>
      <trkpt lat="45.72932" lon="3.79874">
        <ele>1185.599976</ele>
        <time>2017-05-25T08:50:43Z</time>
      </trkpt>
      <trkpt lat="45.72925" lon="3.79863">
        <ele>1186.900024</ele>
        <time>2017-05-25T08:50:49Z</time>
      </trkpt>
      <trkpt lat="45.7292" lon="3.79852">
        <ele>1188.5</ele>
        <time>2017-05-25T08:50:56Z</time>
      </trkpt>
      <trkpt lat="45.72916" lon="3.79839">
        <ele>1190.900024</ele>
        <time>2017-05-25T08:51:04Z</time>
      </trkpt>
      <trkpt lat="45.7291" lon="3.79826">
        <ele>1193.400024</ele>
        <time>2017-05-25T08:51:13Z</time>
      </trkpt>
      <trkpt lat="45.72907" lon="3.79814">
        <ele>1194.900024</ele>
        <time>2017-05-25T08:51:20Z</time>
      </trkpt>
      <trkpt lat="45.72902" lon="3.79801">
        <ele>1196.5</ele>
        <time>2017-05-25T08:51:27Z</time>
      </trkpt>
      <trkpt lat="45.72897" lon="3.79789">
        <ele>1197.599976</ele>
        <time>2017-05-25T08:51:34Z</time>
      </trkpt>
      <trkpt lat="45.72892" lon="3.79777">
        <ele>1198.800049</ele>
        <time>2017-05-25T08:51:40Z</time>
      </trkpt>
      <trkpt lat="45.72887" lon="3.79765">
        <ele>1200.199951</ele>
        <time>2017-05-25T08:51:47Z</time>
      </trkpt>
      <trkpt lat="45.72882" lon="3.79754">
        <ele>1201.300049</ele>
        <time>2017-05-25T08:51:53Z</time>
      </trkpt>
      <trkpt lat="45.72876" lon="3.79742">
        <ele>1202.5</ele>
        <time>2017-05-25T08:51:59Z</time>
      </trkpt>
      <trkpt lat="45.7287" lon="3.79729">
        <ele>1203.599976</ele>
        <time>2017-05-25T08:52:05Z</time>
      </trkpt>
      <trkpt lat="45.72864" lon="3.79717">
        <ele>1204.199951</ele>
        <time>2017-05-25T08:52:10Z</time>
      </trkpt>
      <trkpt lat="45.72858" lon="3.79706">
        <ele>1205.099976</ele>
        <time>2017-05-25T08:52:15Z</time>
      </trkpt>
      <trkpt lat="45.72852" lon="3.79694">
        <ele>1205.900024</ele>
        <time>2017-05-25T08:52:20Z</time>
      </trkpt>
      <trkpt lat="45.72846" lon="3.79681">
        <ele>1206.699951</ele>
        <time>2017-05-25T08:52:25Z</time>
      </trkpt>
      <trkpt lat="45.7284" lon="3.79668">
        <ele>1207.400024</ele>
        <time>2017-05-25T08:52:30Z</time>
      </trkpt>
      <trkpt lat="45.72834" lon="3.79656">
        <ele>1208</ele>
        <time>2017-05-25T08:52:34Z</time>
      </trkpt>
      <trkpt lat="45.72828" lon="3.79643">
        <ele>1208.5</ele>
        <time>2017-05-25T08:52:38Z</time>
      </trkpt>
      <trkpt lat="45.7282" lon="3.79631">
        <ele>1209.199951</ele>
        <time>2017-05-25T08:52:42Z</time>
      </trkpt>
      <trkpt lat="45.72812" lon="3.79619">
        <ele>1209.699951</ele>
        <time>2017-05-25T08:52:46Z</time>
      </trkpt>
      <trkpt lat="45.72803" lon="3.79609">
        <ele>1210</ele>
        <time>2017-05-25T08:52:50Z</time>
      </trkpt>
      <trkpt lat="45.72794" lon="3.79598">
        <ele>1210</ele>
        <time>2017-05-25T08:52:54Z</time>
      </trkpt>
      <trkpt lat="45.72785" lon="3.7959">
        <ele>1210.099976</ele>
        <time>2017-05-25T08:52:57Z</time>
      </trkpt>
      <trkpt lat="45.72778" lon="3.79582">
        <ele>1210.099976</ele>
        <time>2017-05-25T08:53:00Z</time>
      </trkpt>
      <trkpt lat="45.7277" lon="3.79572">
        <ele>1210</ele>
        <time>2017-05-25T08:53:03Z</time>
      </trkpt>
      <trkpt lat="45.72762" lon="3.79562">
        <ele>1210</ele>
        <time>2017-05-25T08:53:06Z</time>
      </trkpt>
      <trkpt lat="45.72753" lon="3.79552">
        <ele>1209.800049</ele>
        <time>2017-05-25T08:53:09Z</time>
      </trkpt>
      <trkpt lat="45.72745" lon="3.7954">
        <ele>1209.800049</ele>
        <time>2017-05-25T08:53:12Z</time>
      </trkpt>
      <trkpt lat="45.72738" lon="3.79526">
        <ele>1210.199951</ele>
        <time>2017-05-25T08:53:15Z</time>
      </trkpt>
      <trkpt lat="45.72732" lon="3.79514">
        <ele>1210.599976</ele>
        <time>2017-05-25T08:53:18Z</time>
      </trkpt>
      <trkpt lat="45.72724" lon="3.79501">
        <ele>1211</ele>
        <time>2017-05-25T08:53:21Z</time>
      </trkpt>
      <trkpt lat="45.72716" lon="3.79487">
        <ele>1211.300049</ele>
        <time>2017-05-25T08:53:24Z</time>
      </trkpt>
      <trkpt lat="45.72708" lon="3.79472">
        <ele>1211.400024</ele>
        <time>2017-05-25T08:53:27Z</time>
      </trkpt>
      <trkpt lat="45.72703" lon="3.79461">
        <ele>1211.5</ele>
        <time>2017-05-25T08:53:29Z</time>
      </trkpt>
      <trkpt lat="45.72696" lon="3.79452">
        <ele>1211.800049</ele>
        <time>2017-05-25T08:53:31Z</time>
      </trkpt>
      <trkpt lat="45.72687" lon="3.79439">
        <ele>1212.099976</ele>
        <time>2017-05-25T08:53:34Z</time>
      </trkpt>
      <trkpt lat="45.72681" lon="3.7943">
        <ele>1212.599976</ele>
        <time>2017-05-25T08:53:36Z</time>
      </trkpt>
      <trkpt lat="45.72672" lon="3.79418">
        <ele>1213.199951</ele>
        <time>2017-05-25T08:53:39Z</time>
      </trkpt>
      <trkpt lat="45.72664" lon="3.79406">
        <ele>1213.800049</ele>
        <time>2017-05-25T08:53:42Z</time>
      </trkpt>
      <trkpt lat="45.72656" lon="3.79392">
        <ele>1214.599976</ele>
        <time>2017-05-25T08:53:45Z</time>
      </trkpt>
      <trkpt lat="45.72648" lon="3.79378">
        <ele>1215</ele>
        <time>2017-05-25T08:53:48Z</time>
      </trkpt>
      <trkpt lat="45.7264" lon="3.79364">
        <ele>1215.400024</ele>
        <time>2017-05-25T08:53:51Z</time>
      </trkpt>
      <trkpt lat="45.72632" lon="3.79349">
        <ele>1215.900024</ele>
        <time>2017-05-25T08:53:54Z</time>
      </trkpt>
      <trkpt lat="45.72624" lon="3.79336">
        <ele>1216.099976</ele>
        <time>2017-05-25T08:53:57Z</time>
      </trkpt>
      <trkpt lat="45.72617" lon="3.7932">
        <ele>1216</ele>
        <time>2017-05-25T08:54:00Z</time>
      </trkpt>
      <trkpt lat="45.72611" lon="3.79308">
        <ele>1215.900024</ele>
        <time>2017-05-25T08:54:02Z</time>
      </trkpt>
      <trkpt lat="45.72604" lon="3.79296">
        <ele>1215.800049</ele>
        <time>2017-05-25T08:54:04Z</time>
      </trkpt>
      <trkpt lat="45.72598" lon="3.79282">
        <ele>1215.699951</ele>
        <time>2017-05-25T08:54:06Z</time>
      </trkpt>
      <trkpt lat="45.72591" lon="3.79266">
        <ele>1215.5</ele>
        <time>2017-05-25T08:54:08Z</time>
      </trkpt>
      <trkpt lat="45.72584" lon="3.79252">
        <ele>1214.900024</ele>
        <time>2017-05-25T08:54:10Z</time>
      </trkpt>
      <trkpt lat="45.72577" lon="3.79238">
        <ele>1214.599976</ele>
        <time>2017-05-25T08:54:12Z</time>
      </trkpt>
      <trkpt lat="45.72568" lon="3.79225">
        <ele>1214.300049</ele>
        <time>2017-05-25T08:54:14Z</time>
      </trkpt>
      <trkpt lat="45.72559" lon="3.79212">
        <ele>1214</ele>
        <time>2017-05-25T08:54:16Z</time>
      </trkpt>
      <trkpt lat="45.72551" lon="3.79197">
        <ele>1213.300049</ele>
        <time>2017-05-25T08:54:18Z</time>
      </trkpt>
      <trkpt lat="45.72544" lon="3.79183">
        <ele>1212.699951</ele>
        <time>2017-05-25T08:54:20Z</time>
      </trkpt>
      <trkpt lat="45.72539" lon="3.79171">
        <ele>1212.400024</ele>
        <time>2017-05-25T08:54:22Z</time>
      </trkpt>
      <trkpt lat="45.7253" lon="3.79156">
        <ele>1212.099976</ele>
        <time>2017-05-25T08:54:25Z</time>
      </trkpt>
      <trkpt lat="45.72526" lon="3.79144">
        <ele>1212.300049</ele>
        <time>2017-05-25T08:54:28Z</time>
      </trkpt>
      <trkpt lat="45.72521" lon="3.79131">
        <ele>1212.5</ele>
        <time>2017-05-25T08:54:31Z</time>
      </trkpt>
      <trkpt lat="45.72514" lon="3.79116">
        <ele>1212.800049</ele>
        <time>2017-05-25T08:54:34Z</time>
      </trkpt>
      <trkpt lat="45.7251" lon="3.79104">
        <ele>1212.5</ele>
        <time>2017-05-25T08:54:36Z</time>
      </trkpt>
      <trkpt lat="45.72504" lon="3.79093">
        <ele>1212.400024</ele>
        <time>2017-05-25T08:54:38Z</time>
      </trkpt>
      <trkpt lat="45.72498" lon="3.79082">
        <ele>1212.099976</ele>
        <time>2017-05-25T08:54:40Z</time>
      </trkpt>
      <trkpt lat="45.72489" lon="3.79069">
        <ele>1212</ele>
        <time>2017-05-25T08:54:43Z</time>
      </trkpt>
      <trkpt lat="45.72481" lon="3.79058">
        <ele>1211.900024</ele>
        <time>2017-05-25T08:54:46Z</time>
      </trkpt>
      <trkpt lat="45.72472" lon="3.79049">
        <ele>1212</ele>
        <time>2017-05-25T08:54:49Z</time>
      </trkpt>
      <trkpt lat="45.7246" lon="3.79042">
        <ele>1211.5</ele>
        <time>2017-05-25T08:54:52Z</time>
      </trkpt>
      <trkpt lat="45.72448" lon="3.7904">
        <ele>1211</ele>
        <time>2017-05-25T08:54:55Z</time>
      </trkpt>
      <trkpt lat="45.72435" lon="3.79041">
        <ele>1210.5</ele>
        <time>2017-05-25T08:54:59Z</time>
      </trkpt>
      <trkpt lat="45.72423" lon="3.79041">
        <ele>1210.400024</ele>
        <time>2017-05-25T08:55:02Z</time>
      </trkpt>
      <trkpt lat="45.72411" lon="3.79038">
        <ele>1210.099976</ele>
        <time>2017-05-25T08:55:05Z</time>
      </trkpt>
      <trkpt lat="45.72402" lon="3.79034">
        <ele>1209.900024</ele>
        <time>2017-05-25T08:55:08Z</time>
      </trkpt>
      <trkpt lat="45.72391" lon="3.79028">
        <ele>1209.699951</ele>
        <time>2017-05-25T08:55:10Z</time>
      </trkpt>
      <trkpt lat="45.7238" lon="3.79025">
        <ele>1209.400024</ele>
        <time>2017-05-25T08:55:12Z</time>
      </trkpt>
      <trkpt lat="45.72368" lon="3.79024">
        <ele>1208.900024</ele>
        <time>2017-05-25T08:55:14Z</time>
      </trkpt>
      <trkpt lat="45.72355" lon="3.79024">
        <ele>1208.800049</ele>
        <time>2017-05-25T08:55:16Z</time>
      </trkpt>
      <trkpt lat="45.72343" lon="3.79029">
        <ele>1208.599976</ele>
        <time>2017-05-25T08:55:18Z</time>
      </trkpt>
      <trkpt lat="45.7233" lon="3.79037">
        <ele>1208.199951</ele>
        <time>2017-05-25T08:55:20Z</time>
      </trkpt>
      <trkpt lat="45.72319" lon="3.79044">
        <ele>1207.900024</ele>
        <time>2017-05-25T08:55:22Z</time>
      </trkpt>
      <trkpt lat="45.72307" lon="3.79052">
        <ele>1207.400024</ele>
        <time>2017-05-25T08:55:24Z</time>
      </trkpt>
      <trkpt lat="45.72297" lon="3.79059">
        <ele>1206.900024</ele>
        <time>2017-05-25T08:55:26Z</time>
      </trkpt>
      <trkpt lat="45.72288" lon="3.79068">
        <ele>1206.599976</ele>
        <time>2017-05-25T08:55:28Z</time>
      </trkpt>
      <trkpt lat="45.72281" lon="3.79077">
        <ele>1206.400024</ele>
        <time>2017-05-25T08:55:31Z</time>
      </trkpt>
      <trkpt lat="45.72281" lon="3.7909">
        <ele>1205.900024</ele>
        <time>2017-05-25T08:55:37Z</time>
      </trkpt>
      <trkpt lat="45.72287" lon="3.79101">
        <ele>1205.800049</ele>
        <time>2017-05-25T08:55:43Z</time>
      </trkpt>
      <trkpt lat="45.72293" lon="3.79113">
        <ele>1205.5</ele>
        <time>2017-05-25T08:55:47Z</time>
      </trkpt>
      <trkpt lat="45.72299" lon="3.79125">
        <ele>1204.900024</ele>
        <time>2017-05-25T08:55:50Z</time>
      </trkpt>
      <trkpt lat="45.72304" lon="3.79139">
        <ele>1204.300049</ele>
        <time>2017-05-25T08:55:53Z</time>
      </trkpt>
      <trkpt lat="45.7231" lon="3.79149">
        <ele>1203.599976</ele>
        <time>2017-05-25T08:55:55Z</time>
      </trkpt>
      <trkpt lat="45.72316" lon="3.7916">
        <ele>1203.199951</ele>
        <time>2017-05-25T08:55:57Z</time>
      </trkpt>
      <trkpt lat="45.72321" lon="3.79173">
        <ele>1202.699951</ele>
        <time>2017-05-25T08:55:59Z</time>
      </trkpt>
      <trkpt lat="45.72327" lon="3.79188">
        <ele>1201.800049</ele>
        <time>2017-05-25T08:56:01Z</time>
      </trkpt>
      <trkpt lat="45.72334" lon="3.79204">
        <ele>1201.300049</ele>
        <time>2017-05-25T08:56:03Z</time>
      </trkpt>
      <trkpt lat="45.72341" lon="3.79219">
        <ele>1200.800049</ele>
        <time>2017-05-25T08:56:05Z</time>
      </trkpt>
      <trkpt lat="45.72344" lon="3.79232">
        <ele>1200.400024</ele>
        <time>2017-05-25T08:56:07Z</time>
      </trkpt>
      <trkpt lat="45.72346" lon="3.79247">
        <ele>1200.099976</ele>
        <time>2017-05-25T08:56:09Z</time>
      </trkpt>
      <trkpt lat="45.72351" lon="3.7926">
        <ele>1199.699951</ele>
        <time>2017-05-25T08:56:11Z</time>
      </trkpt>
      <trkpt lat="45.72356" lon="3.79273">
        <ele>1199.599976</ele>
        <time>2017-05-25T08:56:13Z</time>
      </trkpt>
      <trkpt lat="45.72359" lon="3.79289">
        <ele>1199.5</ele>
        <time>2017-05-25T08:56:15Z</time>
      </trkpt>
      <trkpt lat="45.7236" lon="3.79304">
        <ele>1199.199951</ele>
        <time>2017-05-25T08:56:17Z</time>
      </trkpt>
      <trkpt lat="45.72364" lon="3.79319">
        <ele>1198.900024</ele>
        <time>2017-05-25T08:56:19Z</time>
      </trkpt>
      <trkpt lat="45.72365" lon="3.79334">
        <ele>1198.599976</ele>
        <time>2017-05-25T08:56:21Z</time>
      </trkpt>
      <trkpt lat="45.72361" lon="3.7935">
        <ele>1198.199951</ele>
        <time>2017-05-25T08:56:23Z</time>
      </trkpt>
      <trkpt lat="45.72366" lon="3.7937">
        <ele>1197.400024</ele>
        <time>2017-05-25T08:56:25Z</time>
      </trkpt>
      <trkpt lat="45.72366" lon="3.7939">
        <ele>1196.699951</ele>
        <time>2017-05-25T08:56:27Z</time>
      </trkpt>
      <trkpt lat="45.72366" lon="3.79409">
        <ele>1195.900024</ele>
        <time>2017-05-25T08:56:29Z</time>
      </trkpt>
      <trkpt lat="45.72365" lon="3.79426">
        <ele>1195.199951</ele>
        <time>2017-05-25T08:56:31Z</time>
      </trkpt>
      <trkpt lat="45.72365" lon="3.79442">
        <ele>1194.5</ele>
        <time>2017-05-25T08:56:33Z</time>
      </trkpt>
      <trkpt lat="45.72363" lon="3.7946">
        <ele>1193.800049</ele>
        <time>2017-05-25T08:56:35Z</time>
      </trkpt>
      <trkpt lat="45.72363" lon="3.79479">
        <ele>1193</ele>
        <time>2017-05-25T08:56:38Z</time>
      </trkpt>
      <trkpt lat="45.72364" lon="3.79496">
        <ele>1191.900024</ele>
        <time>2017-05-25T08:56:41Z</time>
      </trkpt>
      <trkpt lat="45.72367" lon="3.79509">
        <ele>1189.699951</ele>
        <time>2017-05-25T08:56:46Z</time>
      </trkpt>
      <trkpt lat="45.72368" lon="3.79526">
        <ele>1187.699951</ele>
        <time>2017-05-25T08:57:46Z</time>
      </trkpt>
      <trkpt lat="45.72365" lon="3.79541">
        <ele>1187.300049</ele>
        <time>2017-05-25T08:57:48Z</time>
      </trkpt>
      <trkpt lat="45.72364" lon="3.79562">
        <ele>1186.599976</ele>
        <time>2017-05-25T08:57:50Z</time>
      </trkpt>
      <trkpt lat="45.72363" lon="3.79587">
        <ele>1185.599976</ele>
        <time>2017-05-25T08:57:52Z</time>
      </trkpt>
      <trkpt lat="45.72364" lon="3.796">
        <ele>1184.800049</ele>
        <time>2017-05-25T08:57:53Z</time>
      </trkpt>
      <trkpt lat="45.72363" lon="3.79625">
        <ele>1183.099976</ele>
        <time>2017-05-25T08:57:55Z</time>
      </trkpt>
      <trkpt lat="45.72363" lon="3.79638">
        <ele>1182.300049</ele>
        <time>2017-05-25T08:57:56Z</time>
      </trkpt>
      <trkpt lat="45.72362" lon="3.79651">
        <ele>1181.199951</ele>
        <time>2017-05-25T08:57:57Z</time>
      </trkpt>
      <trkpt lat="45.7236" lon="3.79664">
        <ele>1179.900024</ele>
        <time>2017-05-25T08:57:58Z</time>
      </trkpt>
      <trkpt lat="45.72362" lon="3.79678">
        <ele>1178.699951</ele>
        <time>2017-05-25T08:57:59Z</time>
      </trkpt>
      <trkpt lat="45.72362" lon="3.79692">
        <ele>1177.5</ele>
        <time>2017-05-25T08:58:00Z</time>
      </trkpt>
      <trkpt lat="45.72361" lon="3.79705">
        <ele>1176.300049</ele>
        <time>2017-05-25T08:58:01Z</time>
      </trkpt>
      <trkpt lat="45.7236" lon="3.7972">
        <ele>1175.099976</ele>
        <time>2017-05-25T08:58:02Z</time>
      </trkpt>
      <trkpt lat="45.72359" lon="3.79734">
        <ele>1173.599976</ele>
        <time>2017-05-25T08:58:03Z</time>
      </trkpt>
      <trkpt lat="45.72359" lon="3.79748">
        <ele>1171.699951</ele>
        <time>2017-05-25T08:58:04Z</time>
      </trkpt>
      <trkpt lat="45.72357" lon="3.79762">
        <ele>1170.599976</ele>
        <time>2017-05-25T08:58:05Z</time>
      </trkpt>
      <trkpt lat="45.72356" lon="3.79775">
        <ele>1169.300049</ele>
        <time>2017-05-25T08:58:06Z</time>
      </trkpt>
      <trkpt lat="45.72354" lon="3.79788">
        <ele>1168</ele>
        <time>2017-05-25T08:58:07Z</time>
      </trkpt>
      <trkpt lat="45.72354" lon="3.79802">
        <ele>1166.5</ele>
        <time>2017-05-25T08:58:08Z</time>
      </trkpt>
      <trkpt lat="45.72353" lon="3.79816">
        <ele>1165.099976</ele>
        <time>2017-05-25T08:58:09Z</time>
      </trkpt>
      <trkpt lat="45.72352" lon="3.79832">
        <ele>1164.099976</ele>
        <time>2017-05-25T08:58:10Z</time>
      </trkpt>
      <trkpt lat="45.72351" lon="3.79847">
        <ele>1162.699951</ele>
        <time>2017-05-25T08:58:11Z</time>
      </trkpt>
      <trkpt lat="45.72349" lon="3.79863">
        <ele>1161.199951</ele>
        <time>2017-05-25T08:58:12Z</time>
      </trkpt>
      <trkpt lat="45.72347" lon="3.7988">
        <ele>1160</ele>
        <time>2017-05-25T08:58:13Z</time>
      </trkpt>
      <trkpt lat="45.72344" lon="3.79896">
        <ele>1158.800049</ele>
        <time>2017-05-25T08:58:14Z</time>
      </trkpt>
      <trkpt lat="45.72343" lon="3.79911">
        <ele>1157.699951</ele>
        <time>2017-05-25T08:58:15Z</time>
      </trkpt>
      <trkpt lat="45.72339" lon="3.79926">
        <ele>1156.800049</ele>
        <time>2017-05-25T08:58:16Z</time>
      </trkpt>
      <trkpt lat="45.72336" lon="3.79939">
        <ele>1156</ele>
        <time>2017-05-25T08:58:17Z</time>
      </trkpt>
      <trkpt lat="45.72332" lon="3.79951">
        <ele>1155.199951</ele>
        <time>2017-05-25T08:58:18Z</time>
      </trkpt>
      <trkpt lat="45.72329" lon="3.79964">
        <ele>1154.199951</ele>
        <time>2017-05-25T08:58:19Z</time>
      </trkpt>
      <trkpt lat="45.72325" lon="3.79977">
        <ele>1153.5</ele>
        <time>2017-05-25T08:58:20Z</time>
      </trkpt>
      <trkpt lat="45.72321" lon="3.7999">
        <ele>1152.699951</ele>
        <time>2017-05-25T08:58:21Z</time>
      </trkpt>
      <trkpt lat="45.72317" lon="3.80003">
        <ele>1152.099976</ele>
        <time>2017-05-25T08:58:22Z</time>
      </trkpt>
      <trkpt lat="45.72312" lon="3.80018">
        <ele>1151.699951</ele>
        <time>2017-05-25T08:58:23Z</time>
      </trkpt>
      <trkpt lat="45.72307" lon="3.80032">
        <ele>1150.900024</ele>
        <time>2017-05-25T08:58:24Z</time>
      </trkpt>
      <trkpt lat="45.72303" lon="3.80045">
        <ele>1150.400024</ele>
        <time>2017-05-25T08:58:25Z</time>
      </trkpt>
      <trkpt lat="45.723" lon="3.80059">
        <ele>1149.900024</ele>
        <time>2017-05-25T08:58:26Z</time>
      </trkpt>
      <trkpt lat="45.72297" lon="3.80072">
        <ele>1149.5</ele>
        <time>2017-05-25T08:58:27Z</time>
      </trkpt>
      <trkpt lat="45.72294" lon="3.80084">
        <ele>1148.900024</ele>
        <time>2017-05-25T08:58:28Z</time>
      </trkpt>
      <trkpt lat="45.72292" lon="3.80108">
        <ele>1148.300049</ele>
        <time>2017-05-25T08:58:30Z</time>
      </trkpt>
      <trkpt lat="45.72295" lon="3.80129">
        <ele>1147.699951</ele>
        <time>2017-05-25T08:58:32Z</time>
      </trkpt>
      <trkpt lat="45.72301" lon="3.80149">
        <ele>1147.400024</ele>
        <time>2017-05-25T08:58:34Z</time>
      </trkpt>
      <trkpt lat="45.72305" lon="3.80169">
        <ele>1147.300049</ele>
        <time>2017-05-25T08:58:36Z</time>
      </trkpt>
      <trkpt lat="45.7231" lon="3.80189">
        <ele>1147</ele>
        <time>2017-05-25T08:58:38Z</time>
      </trkpt>
      <trkpt lat="45.72315" lon="3.80209">
        <ele>1146.800049</ele>
        <time>2017-05-25T08:58:40Z</time>
      </trkpt>
      <trkpt lat="45.72318" lon="3.80229">
        <ele>1146.699951</ele>
        <time>2017-05-25T08:58:42Z</time>
      </trkpt>
      <trkpt lat="45.72321" lon="3.80246">
        <ele>1146.599976</ele>
        <time>2017-05-25T08:58:44Z</time>
      </trkpt>
      <trkpt lat="45.72323" lon="3.8026">
        <ele>1146.599976</ele>
        <time>2017-05-25T08:58:46Z</time>
      </trkpt>
      <trkpt lat="45.72327" lon="3.80275">
        <ele>1146.5</ele>
        <time>2017-05-25T08:58:49Z</time>
      </trkpt>
      <trkpt lat="45.72331" lon="3.80293">
        <ele>1146.300049</ele>
        <time>2017-05-25T08:58:52Z</time>
      </trkpt>
      <trkpt lat="45.72334" lon="3.80306">
        <ele>1146.099976</ele>
        <time>2017-05-25T08:58:54Z</time>
      </trkpt>
      <trkpt lat="45.72336" lon="3.80319">
        <ele>1145.900024</ele>
        <time>2017-05-25T08:58:56Z</time>
      </trkpt>
      <trkpt lat="45.72339" lon="3.80335">
        <ele>1145.599976</ele>
        <time>2017-05-25T08:58:58Z</time>
      </trkpt>
      <trkpt lat="45.72342" lon="3.80349">
        <ele>1145.400024</ele>
        <time>2017-05-25T08:59:00Z</time>
      </trkpt>
      <trkpt lat="45.72347" lon="3.80364">
        <ele>1145.099976</ele>
        <time>2017-05-25T08:59:02Z</time>
      </trkpt>
      <trkpt lat="45.72352" lon="3.80381">
        <ele>1144.800049</ele>
        <time>2017-05-25T08:59:04Z</time>
      </trkpt>
      <trkpt lat="45.72358" lon="3.80396">
        <ele>1144.300049</ele>
        <time>2017-05-25T08:59:06Z</time>
      </trkpt>
      <trkpt lat="45.72366" lon="3.80413">
        <ele>1144.099976</ele>
        <time>2017-05-25T08:59:08Z</time>
      </trkpt>
      <trkpt lat="45.72371" lon="3.8043">
        <ele>1143.400024</ele>
        <time>2017-05-25T08:59:10Z</time>
      </trkpt>
      <trkpt lat="45.72373" lon="3.80447">
        <ele>1142.900024</ele>
        <time>2017-05-25T08:59:12Z</time>
      </trkpt>
      <trkpt lat="45.72377" lon="3.80463">
        <ele>1142.599976</ele>
        <time>2017-05-25T08:59:14Z</time>
      </trkpt>
      <trkpt lat="45.72377" lon="3.80476">
        <ele>1142.400024</ele>
        <time>2017-05-25T08:59:16Z</time>
      </trkpt>
      <trkpt lat="45.72378" lon="3.8049">
        <ele>1142.199951</ele>
        <time>2017-05-25T08:59:18Z</time>
      </trkpt>
      <trkpt lat="45.72383" lon="3.8051">
        <ele>1141.699951</ele>
        <time>2017-05-25T08:59:21Z</time>
      </trkpt>
      <trkpt lat="45.72386" lon="3.80528">
        <ele>1141.699951</ele>
        <time>2017-05-25T08:59:24Z</time>
      </trkpt>
      <trkpt lat="45.72392" lon="3.80548">
        <ele>1141.599976</ele>
        <time>2017-05-25T08:59:26Z</time>
      </trkpt>
      <trkpt lat="45.72395" lon="3.80566">
        <ele>1141.599976</ele>
        <time>2017-05-25T08:59:28Z</time>
      </trkpt>
      <trkpt lat="45.72396" lon="3.80584">
        <ele>1141.699951</ele>
        <time>2017-05-25T08:59:30Z</time>
      </trkpt>
      <trkpt lat="45.72401" lon="3.806">
        <ele>1141.699951</ele>
        <time>2017-05-25T08:59:32Z</time>
      </trkpt>
      <trkpt lat="45.72406" lon="3.80617">
        <ele>1141.099976</ele>
        <time>2017-05-25T08:59:34Z</time>
      </trkpt>
      <trkpt lat="45.72412" lon="3.80636">
        <ele>1141</ele>
        <time>2017-05-25T08:59:36Z</time>
      </trkpt>
      <trkpt lat="45.72416" lon="3.80652">
        <ele>1140.900024</ele>
        <time>2017-05-25T08:59:38Z</time>
      </trkpt>
      <trkpt lat="45.72419" lon="3.8067">
        <ele>1140.5</ele>
        <time>2017-05-25T08:59:40Z</time>
      </trkpt>
      <trkpt lat="45.72424" lon="3.80685">
        <ele>1140.199951</ele>
        <time>2017-05-25T08:59:42Z</time>
      </trkpt>
      <trkpt lat="45.72428" lon="3.80701">
        <ele>1140</ele>
        <time>2017-05-25T08:59:44Z</time>
      </trkpt>
      <trkpt lat="45.72433" lon="3.80716">
        <ele>1139.300049</ele>
        <time>2017-05-25T08:59:46Z</time>
      </trkpt>
      <trkpt lat="45.72436" lon="3.8073">
        <ele>1139</ele>
        <time>2017-05-25T08:59:48Z</time>
      </trkpt>
      <trkpt lat="45.72441" lon="3.80744">
        <ele>1138.800049</ele>
        <time>2017-05-25T08:59:50Z</time>
      </trkpt>
      <trkpt lat="45.72443" lon="3.80762">
        <ele>1138.900024</ele>
        <time>2017-05-25T08:59:52Z</time>
      </trkpt>
      <trkpt lat="45.7245" lon="3.8078">
        <ele>1138.199951</ele>
        <time>2017-05-25T08:59:54Z</time>
      </trkpt>
      <trkpt lat="45.72457" lon="3.80794">
        <ele>1138.099976</ele>
        <time>2017-05-25T08:59:56Z</time>
      </trkpt>
      <trkpt lat="45.72462" lon="3.80814">
        <ele>1138</ele>
        <time>2017-05-25T08:59:58Z</time>
      </trkpt>
      <trkpt lat="45.72466" lon="3.80831">
        <ele>1137.699951</ele>
        <time>2017-05-25T09:00:00Z</time>
      </trkpt>
      <trkpt lat="45.72469" lon="3.8085">
        <ele>1137.300049</ele>
        <time>2017-05-25T09:00:02Z</time>
      </trkpt>
      <trkpt lat="45.72473" lon="3.80866">
        <ele>1137</ele>
        <time>2017-05-25T09:00:04Z</time>
      </trkpt>
      <trkpt lat="45.72478" lon="3.80885">
        <ele>1136.800049</ele>
        <time>2017-05-25T09:00:06Z</time>
      </trkpt>
      <trkpt lat="45.72483" lon="3.80901">
        <ele>1136.699951</ele>
        <time>2017-05-25T09:00:08Z</time>
      </trkpt>
      <trkpt lat="45.72489" lon="3.80918">
        <ele>1136.5</ele>
        <time>2017-05-25T09:00:10Z</time>
      </trkpt>
      <trkpt lat="45.72496" lon="3.80932">
        <ele>1136.400024</ele>
        <time>2017-05-25T09:00:12Z</time>
      </trkpt>
      <trkpt lat="45.72499" lon="3.80945">
        <ele>1136.199951</ele>
        <time>2017-05-25T09:00:14Z</time>
      </trkpt>
      <trkpt lat="45.72503" lon="3.80957">
        <ele>1136.400024</ele>
        <time>2017-05-25T09:00:16Z</time>
      </trkpt>
      <trkpt lat="45.72508" lon="3.80968">
        <ele>1135.800049</ele>
        <time>2017-05-25T09:00:18Z</time>
      </trkpt>
      <trkpt lat="45.72512" lon="3.80983">
        <ele>1136.099976</ele>
        <time>2017-05-25T09:00:21Z</time>
      </trkpt>
      <trkpt lat="45.72516" lon="3.80998">
        <ele>1136.5</ele>
        <time>2017-05-25T09:00:24Z</time>
      </trkpt>
      <trkpt lat="45.72518" lon="3.81014">
        <ele>1137.300049</ele>
        <time>2017-05-25T09:00:28Z</time>
      </trkpt>
      <trkpt lat="45.72521" lon="3.8103">
        <ele>1138.099976</ele>
        <time>2017-05-25T09:00:31Z</time>
      </trkpt>
      <trkpt lat="45.72526" lon="3.81045">
        <ele>1138.699951</ele>
        <time>2017-05-25T09:00:35Z</time>
      </trkpt>
      <trkpt lat="45.72529" lon="3.81057">
        <ele>1139.099976</ele>
        <time>2017-05-25T09:00:38Z</time>
      </trkpt>
      <trkpt lat="45.72532" lon="3.81071">
        <ele>1139.599976</ele>
        <time>2017-05-25T09:00:41Z</time>
      </trkpt>
      <trkpt lat="45.72535" lon="3.81086">
        <ele>1140.199951</ele>
        <time>2017-05-25T09:00:44Z</time>
      </trkpt>
      <trkpt lat="45.72537" lon="3.81102">
        <ele>1141</ele>
        <time>2017-05-25T09:00:47Z</time>
      </trkpt>
      <trkpt lat="45.72539" lon="3.81117">
        <ele>1141.300049</ele>
        <time>2017-05-25T09:00:50Z</time>
      </trkpt>
      <trkpt lat="45.72539" lon="3.81134">
        <ele>1141.5</ele>
        <time>2017-05-25T09:00:53Z</time>
      </trkpt>
      <trkpt lat="45.7254" lon="3.81152">
        <ele>1141.699951</ele>
        <time>2017-05-25T09:00:56Z</time>
      </trkpt>
      <trkpt lat="45.72538" lon="3.81166">
        <ele>1141.400024</ele>
        <time>2017-05-25T09:00:58Z</time>
      </trkpt>
      <trkpt lat="45.7254" lon="3.81181">
        <ele>1141.199951</ele>
        <time>2017-05-25T09:01:00Z</time>
      </trkpt>
      <trkpt lat="45.7254" lon="3.81198">
        <ele>1140.800049</ele>
        <time>2017-05-25T09:01:02Z</time>
      </trkpt>
      <trkpt lat="45.7254" lon="3.81216">
        <ele>1140.199951</ele>
        <time>2017-05-25T09:01:04Z</time>
      </trkpt>
      <trkpt lat="45.7254" lon="3.81234">
        <ele>1139.5</ele>
        <time>2017-05-25T09:01:06Z</time>
      </trkpt>
      <trkpt lat="45.72539" lon="3.81251">
        <ele>1138.900024</ele>
        <time>2017-05-25T09:01:08Z</time>
      </trkpt>
      <trkpt lat="45.72542" lon="3.81268">
        <ele>1138.300049</ele>
        <time>2017-05-25T09:01:10Z</time>
      </trkpt>
      <trkpt lat="45.72544" lon="3.81285">
        <ele>1137.699951</ele>
        <time>2017-05-25T09:01:12Z</time>
      </trkpt>
      <trkpt lat="45.72548" lon="3.81305">
        <ele>1136.800049</ele>
        <time>2017-05-25T09:01:14Z</time>
      </trkpt>
      <trkpt lat="45.72554" lon="3.81327">
        <ele>1135.900024</ele>
        <time>2017-05-25T09:01:16Z</time>
      </trkpt>
      <trkpt lat="45.72558" lon="3.81353">
        <ele>1135</ele>
        <time>2017-05-25T09:01:18Z</time>
      </trkpt>
      <trkpt lat="45.72559" lon="3.81366">
        <ele>1134.400024</ele>
        <time>2017-05-25T09:01:19Z</time>
      </trkpt>
      <trkpt lat="45.72563" lon="3.81378">
        <ele>1134</ele>
        <time>2017-05-25T09:01:20Z</time>
      </trkpt>
      <trkpt lat="45.72565" lon="3.81391">
        <ele>1133.599976</ele>
        <time>2017-05-25T09:01:21Z</time>
      </trkpt>
      <trkpt lat="45.72568" lon="3.81404">
        <ele>1132.800049</ele>
        <time>2017-05-25T09:01:22Z</time>
      </trkpt>
      <trkpt lat="45.72572" lon="3.81416">
        <ele>1132.199951</ele>
        <time>2017-05-25T09:01:23Z</time>
      </trkpt>
      <trkpt lat="45.72578" lon="3.8144">
        <ele>1131.199951</ele>
        <time>2017-05-25T09:01:25Z</time>
      </trkpt>
      <trkpt lat="45.72584" lon="3.81452">
        <ele>1130.599976</ele>
        <time>2017-05-25T09:01:26Z</time>
      </trkpt>
      <trkpt lat="45.72589" lon="3.81463">
        <ele>1129.900024</ele>
        <time>2017-05-25T09:01:27Z</time>
      </trkpt>
      <trkpt lat="45.72595" lon="3.81474">
        <ele>1129.300049</ele>
        <time>2017-05-25T09:01:28Z</time>
      </trkpt>
      <trkpt lat="45.72601" lon="3.81486">
        <ele>1128.599976</ele>
        <time>2017-05-25T09:01:29Z</time>
      </trkpt>
      <trkpt lat="45.72603" lon="3.81499">
        <ele>1128.300049</ele>
        <time>2017-05-25T09:01:30Z</time>
      </trkpt>
      <trkpt lat="45.72608" lon="3.81511">
        <ele>1127.900024</ele>
        <time>2017-05-25T09:01:31Z</time>
      </trkpt>
      <trkpt lat="45.72611" lon="3.81525">
        <ele>1127.400024</ele>
        <time>2017-05-25T09:01:32Z</time>
      </trkpt>
      <trkpt lat="45.72613" lon="3.81539">
        <ele>1127</ele>
        <time>2017-05-25T09:01:33Z</time>
      </trkpt>
      <trkpt lat="45.72615" lon="3.81552">
        <ele>1126.5</ele>
        <time>2017-05-25T09:01:34Z</time>
      </trkpt>
      <trkpt lat="45.72617" lon="3.81566">
        <ele>1126</ele>
        <time>2017-05-25T09:01:35Z</time>
      </trkpt>
      <trkpt lat="45.72618" lon="3.81579">
        <ele>1125.400024</ele>
        <time>2017-05-25T09:01:36Z</time>
      </trkpt>
      <trkpt lat="45.72617" lon="3.81593">
        <ele>1125.099976</ele>
        <time>2017-05-25T09:01:37Z</time>
      </trkpt>
      <trkpt lat="45.72616" lon="3.81606">
        <ele>1124.400024</ele>
        <time>2017-05-25T09:01:38Z</time>
      </trkpt>
      <trkpt lat="45.72615" lon="3.8162">
        <ele>1123.800049</ele>
        <time>2017-05-25T09:01:39Z</time>
      </trkpt>
      <trkpt lat="45.72614" lon="3.81632">
        <ele>1123.300049</ele>
        <time>2017-05-25T09:01:40Z</time>
      </trkpt>
      <trkpt lat="45.72615" lon="3.81657">
        <ele>1122.5</ele>
        <time>2017-05-25T09:01:42Z</time>
      </trkpt>
      <trkpt lat="45.72615" lon="3.81682">
        <ele>1121.900024</ele>
        <time>2017-05-25T09:01:44Z</time>
      </trkpt>
      <trkpt lat="45.72614" lon="3.81705">
        <ele>1121.400024</ele>
        <time>2017-05-25T09:01:46Z</time>
      </trkpt>
      <trkpt lat="45.72615" lon="3.81726">
        <ele>1121.099976</ele>
        <time>2017-05-25T09:01:48Z</time>
      </trkpt>
      <trkpt lat="45.72613" lon="3.81747">
        <ele>1121.099976</ele>
        <time>2017-05-25T09:01:50Z</time>
      </trkpt>
      <trkpt lat="45.72612" lon="3.81766">
        <ele>1121.099976</ele>
        <time>2017-05-25T09:01:52Z</time>
      </trkpt>
      <trkpt lat="45.72609" lon="3.81785">
        <ele>1121.199951</ele>
        <time>2017-05-25T09:01:54Z</time>
      </trkpt>
      <trkpt lat="45.72607" lon="3.81803">
        <ele>1121.300049</ele>
        <time>2017-05-25T09:01:56Z</time>
      </trkpt>
      <trkpt lat="45.72608" lon="3.81821">
        <ele>1121.300049</ele>
        <time>2017-05-25T09:01:58Z</time>
      </trkpt>
      <trkpt lat="45.72607" lon="3.8184">
        <ele>1121.300049</ele>
        <time>2017-05-25T09:02:00Z</time>
      </trkpt>
      <trkpt lat="45.72605" lon="3.81859">
        <ele>1121.5</ele>
        <time>2017-05-25T09:02:02Z</time>
      </trkpt>
      <trkpt lat="45.72601" lon="3.81874">
        <ele>1121.599976</ele>
        <time>2017-05-25T09:02:04Z</time>
      </trkpt>
      <trkpt lat="45.72599" lon="3.81887">
        <ele>1121.800049</ele>
        <time>2017-05-25T09:02:06Z</time>
      </trkpt>
      <trkpt lat="45.72597" lon="3.81903">
        <ele>1122.199951</ele>
        <time>2017-05-25T09:02:09Z</time>
      </trkpt>
      <trkpt lat="45.72596" lon="3.81918">
        <ele>1122.699951</ele>
        <time>2017-05-25T09:02:11Z</time>
      </trkpt>
      <trkpt lat="45.72591" lon="3.81937">
        <ele>1123.099976</ele>
        <time>2017-05-25T09:02:13Z</time>
      </trkpt>
      <trkpt lat="45.72588" lon="3.81953">
        <ele>1123</ele>
        <time>2017-05-25T09:02:15Z</time>
      </trkpt>
      <trkpt lat="45.72584" lon="3.8197">
        <ele>1122.900024</ele>
        <time>2017-05-25T09:02:17Z</time>
      </trkpt>
      <trkpt lat="45.72577" lon="3.81987">
        <ele>1122.599976</ele>
        <time>2017-05-25T09:02:19Z</time>
      </trkpt>
      <trkpt lat="45.72569" lon="3.82004">
        <ele>1122.099976</ele>
        <time>2017-05-25T09:02:21Z</time>
      </trkpt>
      <trkpt lat="45.7256" lon="3.82021">
        <ele>1121.400024</ele>
        <time>2017-05-25T09:02:23Z</time>
      </trkpt>
      <trkpt lat="45.72551" lon="3.8204">
        <ele>1120.699951</ele>
        <time>2017-05-25T09:02:25Z</time>
      </trkpt>
      <trkpt lat="45.72541" lon="3.82059">
        <ele>1119.900024</ele>
        <time>2017-05-25T09:02:27Z</time>
      </trkpt>
      <trkpt lat="45.7253" lon="3.82077">
        <ele>1119.300049</ele>
        <time>2017-05-25T09:02:29Z</time>
      </trkpt>
      <trkpt lat="45.7252" lon="3.82094">
        <ele>1118.699951</ele>
        <time>2017-05-25T09:02:31Z</time>
      </trkpt>
      <trkpt lat="45.72509" lon="3.82111">
        <ele>1118.300049</ele>
        <time>2017-05-25T09:02:33Z</time>
      </trkpt>
      <trkpt lat="45.72498" lon="3.82126">
        <ele>1117.900024</ele>
        <time>2017-05-25T09:02:35Z</time>
      </trkpt>
      <trkpt lat="45.72486" lon="3.8214">
        <ele>1117.5</ele>
        <time>2017-05-25T09:02:37Z</time>
      </trkpt>
      <trkpt lat="45.72476" lon="3.82152">
        <ele>1117.099976</ele>
        <time>2017-05-25T09:02:39Z</time>
      </trkpt>
      <trkpt lat="45.72465" lon="3.82165">
        <ele>1116.800049</ele>
        <time>2017-05-25T09:02:41Z</time>
      </trkpt>
      <trkpt lat="45.72456" lon="3.82176">
        <ele>1116.400024</ele>
        <time>2017-05-25T09:02:43Z</time>
      </trkpt>
      <trkpt lat="45.72447" lon="3.82189">
        <ele>1115.599976</ele>
        <time>2017-05-25T09:02:46Z</time>
      </trkpt>
      <trkpt lat="45.72439" lon="3.822">
        <ele>1115</ele>
        <time>2017-05-25T09:02:49Z</time>
      </trkpt>
      <trkpt lat="45.72429" lon="3.82214">
        <ele>1114.599976</ele>
        <time>2017-05-25T09:02:52Z</time>
      </trkpt>
      <trkpt lat="45.7242" lon="3.82223">
        <ele>1114.300049</ele>
        <time>2017-05-25T09:02:54Z</time>
      </trkpt>
      <trkpt lat="45.7241" lon="3.82233">
        <ele>1113.900024</ele>
        <time>2017-05-25T09:02:56Z</time>
      </trkpt>
      <trkpt lat="45.724" lon="3.82243">
        <ele>1113.699951</ele>
        <time>2017-05-25T09:02:58Z</time>
      </trkpt>
      <trkpt lat="45.7239" lon="3.82253">
        <ele>1113.5</ele>
        <time>2017-05-25T09:03:00Z</time>
      </trkpt>
      <trkpt lat="45.72379" lon="3.82264">
        <ele>1112.5</ele>
        <time>2017-05-25T09:03:02Z</time>
      </trkpt>
      <trkpt lat="45.72367" lon="3.82273">
        <ele>1112.400024</ele>
        <time>2017-05-25T09:03:04Z</time>
      </trkpt>
      <trkpt lat="45.72354" lon="3.8228">
        <ele>1112.099976</ele>
        <time>2017-05-25T09:03:06Z</time>
      </trkpt>
      <trkpt lat="45.72341" lon="3.82282">
        <ele>1112</ele>
        <time>2017-05-25T09:03:08Z</time>
      </trkpt>
      <trkpt lat="45.72329" lon="3.82284">
        <ele>1112.099976</ele>
        <time>2017-05-25T09:03:10Z</time>
      </trkpt>
      <trkpt lat="45.72317" lon="3.8228">
        <ele>1111.800049</ele>
        <time>2017-05-25T09:03:12Z</time>
      </trkpt>
      <trkpt lat="45.72307" lon="3.82273">
        <ele>1111.599976</ele>
        <time>2017-05-25T09:03:14Z</time>
      </trkpt>
      <trkpt lat="45.72299" lon="3.82264">
        <ele>1111.599976</ele>
        <time>2017-05-25T09:03:16Z</time>
      </trkpt>
      <trkpt lat="45.72294" lon="3.82251">
        <ele>1111.5</ele>
        <time>2017-05-25T09:03:18Z</time>
      </trkpt>
      <trkpt lat="45.72289" lon="3.82238">
        <ele>1111.5</ele>
        <time>2017-05-25T09:03:20Z</time>
      </trkpt>
      <trkpt lat="45.72285" lon="3.82227">
        <ele>1111.199951</ele>
        <time>2017-05-25T09:03:22Z</time>
      </trkpt>
      <trkpt lat="45.72282" lon="3.82214">
        <ele>1111.699951</ele>
        <time>2017-05-25T09:03:25Z</time>
      </trkpt>
      <trkpt lat="45.72278" lon="3.82202">
        <ele>1111.800049</ele>
        <time>2017-05-25T09:03:28Z</time>
      </trkpt>
      <trkpt lat="45.72273" lon="3.82189">
        <ele>1112</ele>
        <time>2017-05-25T09:03:31Z</time>
      </trkpt>
      <trkpt lat="45.72268" lon="3.82176">
        <ele>1112.800049</ele>
        <time>2017-05-25T09:03:34Z</time>
      </trkpt>
      <trkpt lat="45.7226" lon="3.82163">
        <ele>1113.300049</ele>
        <time>2017-05-25T09:03:37Z</time>
      </trkpt>
      <trkpt lat="45.72253" lon="3.82154">
        <ele>1113.699951</ele>
        <time>2017-05-25T09:03:40Z</time>
      </trkpt>
      <trkpt lat="45.72244" lon="3.82146">
        <ele>1114.300049</ele>
        <time>2017-05-25T09:03:44Z</time>
      </trkpt>
      <trkpt lat="45.72236" lon="3.82136">
        <ele>1114.300049</ele>
        <time>2017-05-25T09:03:47Z</time>
      </trkpt>
      <trkpt lat="45.72225" lon="3.82127">
        <ele>1114.300049</ele>
        <time>2017-05-25T09:03:50Z</time>
      </trkpt>
      <trkpt lat="45.72215" lon="3.82124">
        <ele>1113.800049</ele>
        <time>2017-05-25T09:03:52Z</time>
      </trkpt>
      <trkpt lat="45.72205" lon="3.82125">
        <ele>1113.699951</ele>
        <time>2017-05-25T09:03:54Z</time>
      </trkpt>
      <trkpt lat="45.72195" lon="3.82128">
        <ele>1113.400024</ele>
        <time>2017-05-25T09:03:56Z</time>
      </trkpt>
      <trkpt lat="45.72185" lon="3.82135">
        <ele>1113.199951</ele>
        <time>2017-05-25T09:03:58Z</time>
      </trkpt>
      <trkpt lat="45.72176" lon="3.82143">
        <ele>1113.099976</ele>
        <time>2017-05-25T09:04:00Z</time>
      </trkpt>
      <trkpt lat="45.72169" lon="3.82151">
        <ele>1113.099976</ele>
        <time>2017-05-25T09:04:02Z</time>
      </trkpt>
      <trkpt lat="45.72162" lon="3.8216">
        <ele>1113.099976</ele>
        <time>2017-05-25T09:04:04Z</time>
      </trkpt>
      <trkpt lat="45.72155" lon="3.82168">
        <ele>1113.199951</ele>
        <time>2017-05-25T09:04:06Z</time>
      </trkpt>
      <trkpt lat="45.72148" lon="3.82176">
        <ele>1112.800049</ele>
        <time>2017-05-25T09:04:08Z</time>
      </trkpt>
      <trkpt lat="45.72137" lon="3.82185">
        <ele>1112.5</ele>
        <time>2017-05-25T09:04:10Z</time>
      </trkpt>
      <trkpt lat="45.72127" lon="3.82191">
        <ele>1112.199951</ele>
        <time>2017-05-25T09:04:12Z</time>
      </trkpt>
      <trkpt lat="45.72116" lon="3.82196">
        <ele>1111.900024</ele>
        <time>2017-05-25T09:04:15Z</time>
      </trkpt>
      <trkpt lat="45.72107" lon="3.82199">
        <ele>1111.099976</ele>
        <time>2017-05-25T09:04:42Z</time>
      </trkpt>
      <trkpt lat="45.72099" lon="3.82204">
        <ele>1109.900024</ele>
        <time>2017-05-25T09:06:35Z</time>
      </trkpt>
      <trkpt lat="45.7209" lon="3.82208">
        <ele>1110.099976</ele>
        <time>2017-05-25T09:06:38Z</time>
      </trkpt>
      <trkpt lat="45.72077" lon="3.8221">
        <ele>1110</ele>
        <time>2017-05-25T09:06:41Z</time>
      </trkpt>
      <trkpt lat="45.72068" lon="3.82207">
        <ele>1109.800049</ele>
        <time>2017-05-25T09:06:43Z</time>
      </trkpt>
      <trkpt lat="45.72057" lon="3.822">
        <ele>1109.699951</ele>
        <time>2017-05-25T09:06:46Z</time>
      </trkpt>
      <trkpt lat="45.72048" lon="3.82193">
        <ele>1109.900024</ele>
        <time>2017-05-25T09:06:49Z</time>
      </trkpt>
      <trkpt lat="45.7204" lon="3.82185">
        <ele>1110.400024</ele>
        <time>2017-05-25T09:06:52Z</time>
      </trkpt>
      <trkpt lat="45.72032" lon="3.82174">
        <ele>1111</ele>
        <time>2017-05-25T09:06:56Z</time>
      </trkpt>
      <trkpt lat="45.72022" lon="3.82164">
        <ele>1111.800049</ele>
        <time>2017-05-25T09:07:00Z</time>
      </trkpt>
      <trkpt lat="45.72012" lon="3.82155">
        <ele>1112.5</ele>
        <time>2017-05-25T09:07:04Z</time>
      </trkpt>
      <trkpt lat="45.72001" lon="3.82147">
        <ele>1113.099976</ele>
        <time>2017-05-25T09:07:08Z</time>
      </trkpt>
      <trkpt lat="45.71992" lon="3.82144">
        <ele>1113.400024</ele>
        <time>2017-05-25T09:07:11Z</time>
      </trkpt>
      <trkpt lat="45.71982" lon="3.82144">
        <ele>1113.599976</ele>
        <time>2017-05-25T09:07:14Z</time>
      </trkpt>
      <trkpt lat="45.71971" lon="3.82148">
        <ele>1113.900024</ele>
        <time>2017-05-25T09:07:17Z</time>
      </trkpt>
      <trkpt lat="45.71962" lon="3.82153">
        <ele>1114.099976</ele>
        <time>2017-05-25T09:07:19Z</time>
      </trkpt>
      <trkpt lat="45.71952" lon="3.82163">
        <ele>1114.400024</ele>
        <time>2017-05-25T09:07:22Z</time>
      </trkpt>
      <trkpt lat="45.71942" lon="3.82172">
        <ele>1114.699951</ele>
        <time>2017-05-25T09:07:25Z</time>
      </trkpt>
      <trkpt lat="45.71932" lon="3.82179">
        <ele>1114.699951</ele>
        <time>2017-05-25T09:07:28Z</time>
      </trkpt>
      <trkpt lat="45.71922" lon="3.82185">
        <ele>1114.900024</ele>
        <time>2017-05-25T09:07:31Z</time>
      </trkpt>
      <trkpt lat="45.71912" lon="3.8219">
        <ele>1115.099976</ele>
        <time>2017-05-25T09:07:34Z</time>
      </trkpt>
      <trkpt lat="45.71902" lon="3.82195">
        <ele>1115.400024</ele>
        <time>2017-05-25T09:07:37Z</time>
      </trkpt>
      <trkpt lat="45.7189" lon="3.82199">
        <ele>1115.699951</ele>
        <time>2017-05-25T09:07:40Z</time>
      </trkpt>
      <trkpt lat="45.71878" lon="3.822">
        <ele>1115.599976</ele>
        <time>2017-05-25T09:07:43Z</time>
      </trkpt>
      <trkpt lat="45.71868" lon="3.82201">
        <ele>1115.5</ele>
        <time>2017-05-25T09:07:45Z</time>
      </trkpt>
      <trkpt lat="45.71856" lon="3.82201">
        <ele>1115.400024</ele>
        <time>2017-05-25T09:07:47Z</time>
      </trkpt>
      <trkpt lat="45.71845" lon="3.822">
        <ele>1115</ele>
        <time>2017-05-25T09:07:49Z</time>
      </trkpt>
      <trkpt lat="45.71833" lon="3.822">
        <ele>1114.800049</ele>
        <time>2017-05-25T09:07:51Z</time>
      </trkpt>
      <trkpt lat="45.71821" lon="3.822">
        <ele>1114.400024</ele>
        <time>2017-05-25T09:07:53Z</time>
      </trkpt>
      <trkpt lat="45.71807" lon="3.82198">
        <ele>1114.099976</ele>
        <time>2017-05-25T09:07:55Z</time>
      </trkpt>
      <trkpt lat="45.71792" lon="3.82195">
        <ele>1113.400024</ele>
        <time>2017-05-25T09:07:57Z</time>
      </trkpt>
      <trkpt lat="45.71776" lon="3.82196">
        <ele>1112.699951</ele>
        <time>2017-05-25T09:07:59Z</time>
      </trkpt>
      <trkpt lat="45.71767" lon="3.82199">
        <ele>1112.300049</ele>
        <time>2017-05-25T09:08:00Z</time>
      </trkpt>
      <trkpt lat="45.71759" lon="3.82205">
        <ele>1112</ele>
        <time>2017-05-25T09:08:01Z</time>
      </trkpt>
      <trkpt lat="45.7175" lon="3.8221">
        <ele>1111.5</ele>
        <time>2017-05-25T09:08:02Z</time>
      </trkpt>
      <trkpt lat="45.71741" lon="3.82213">
        <ele>1110.800049</ele>
        <time>2017-05-25T09:08:03Z</time>
      </trkpt>
      <trkpt lat="45.71732" lon="3.82215">
        <ele>1110.199951</ele>
        <time>2017-05-25T09:08:04Z</time>
      </trkpt>
      <trkpt lat="45.71723" lon="3.82214">
        <ele>1109.699951</ele>
        <time>2017-05-25T09:08:05Z</time>
      </trkpt>
      <trkpt lat="45.71714" lon="3.82212">
        <ele>1109.300049</ele>
        <time>2017-05-25T09:08:06Z</time>
      </trkpt>
      <trkpt lat="45.71697" lon="3.82206">
        <ele>1108.400024</ele>
        <time>2017-05-25T09:08:08Z</time>
      </trkpt>
      <trkpt lat="45.71681" lon="3.82203">
        <ele>1107.699951</ele>
        <time>2017-05-25T09:08:10Z</time>
      </trkpt>
      <trkpt lat="45.71667" lon="3.82199">
        <ele>1107.099976</ele>
        <time>2017-05-25T09:08:12Z</time>
      </trkpt>
      <trkpt lat="45.71653" lon="3.82195">
        <ele>1106.900024</ele>
        <time>2017-05-25T09:08:14Z</time>
      </trkpt>
      <trkpt lat="45.71641" lon="3.82195">
        <ele>1106.800049</ele>
        <time>2017-05-25T09:08:16Z</time>
      </trkpt>
      <trkpt lat="45.71631" lon="3.82205">
        <ele>1107</ele>
        <time>2017-05-25T09:08:18Z</time>
      </trkpt>
      <trkpt lat="45.71627" lon="3.82219">
        <ele>1107.199951</ele>
        <time>2017-05-25T09:08:20Z</time>
      </trkpt>
      <trkpt lat="45.71626" lon="3.82232">
        <ele>1107.400024</ele>
        <time>2017-05-25T09:08:22Z</time>
      </trkpt>
      <trkpt lat="45.71626" lon="3.82251">
        <ele>1107.699951</ele>
        <time>2017-05-25T09:08:25Z</time>
      </trkpt>
      <trkpt lat="45.71627" lon="3.82269">
        <ele>1108.099976</ele>
        <time>2017-05-25T09:08:28Z</time>
      </trkpt>
      <trkpt lat="45.71629" lon="3.82286">
        <ele>1108.300049</ele>
        <time>2017-05-25T09:08:31Z</time>
      </trkpt>
      <trkpt lat="45.71633" lon="3.82303">
        <ele>1108.599976</ele>
        <time>2017-05-25T09:08:34Z</time>
      </trkpt>
      <trkpt lat="45.71638" lon="3.8232">
        <ele>1108.900024</ele>
        <time>2017-05-25T09:08:37Z</time>
      </trkpt>
      <trkpt lat="45.71642" lon="3.82336">
        <ele>1109.099976</ele>
        <time>2017-05-25T09:08:40Z</time>
      </trkpt>
      <trkpt lat="45.71645" lon="3.82351">
        <ele>1109.800049</ele>
        <time>2017-05-25T09:08:43Z</time>
      </trkpt>
      <trkpt lat="45.71647" lon="3.82367">
        <ele>1110.099976</ele>
        <time>2017-05-25T09:08:46Z</time>
      </trkpt>
      <trkpt lat="45.7165" lon="3.82383">
        <ele>1110.400024</ele>
        <time>2017-05-25T09:08:49Z</time>
      </trkpt>
      <trkpt lat="45.71653" lon="3.824">
        <ele>1110.599976</ele>
        <time>2017-05-25T09:08:52Z</time>
      </trkpt>
      <trkpt lat="45.71659" lon="3.82416">
        <ele>1110.800049</ele>
        <time>2017-05-25T09:08:55Z</time>
      </trkpt>
      <trkpt lat="45.71665" lon="3.8243">
        <ele>1111.099976</ele>
        <time>2017-05-25T09:08:58Z</time>
      </trkpt>
      <trkpt lat="45.71671" lon="3.82443">
        <ele>1111.5</ele>
        <time>2017-05-25T09:09:01Z</time>
      </trkpt>
      <trkpt lat="45.71677" lon="3.82456">
        <ele>1112</ele>
        <time>2017-05-25T09:09:04Z</time>
      </trkpt>
      <trkpt lat="45.71686" lon="3.82467">
        <ele>1112.300049</ele>
        <time>2017-05-25T09:09:07Z</time>
      </trkpt>
      <trkpt lat="45.71697" lon="3.82476">
        <ele>1112.699951</ele>
        <time>2017-05-25T09:09:10Z</time>
      </trkpt>
      <trkpt lat="45.71709" lon="3.82483">
        <ele>1112.900024</ele>
        <time>2017-05-25T09:09:13Z</time>
      </trkpt>
      <trkpt lat="45.71718" lon="3.82488">
        <ele>1113</ele>
        <time>2017-05-25T09:09:15Z</time>
      </trkpt>
      <trkpt lat="45.71726" lon="3.82493">
        <ele>1113.099976</ele>
        <time>2017-05-25T09:09:17Z</time>
      </trkpt>
      <trkpt lat="45.71735" lon="3.82499">
        <ele>1113.099976</ele>
        <time>2017-05-25T09:09:19Z</time>
      </trkpt>
      <trkpt lat="45.71747" lon="3.82506">
        <ele>1113.199951</ele>
        <time>2017-05-25T09:09:22Z</time>
      </trkpt>
      <trkpt lat="45.71759" lon="3.82514">
        <ele>1113</ele>
        <time>2017-05-25T09:09:25Z</time>
      </trkpt>
      <trkpt lat="45.71768" lon="3.82523">
        <ele>1112.900024</ele>
        <time>2017-05-25T09:09:27Z</time>
      </trkpt>
      <trkpt lat="45.71778" lon="3.82533">
        <ele>1112.699951</ele>
        <time>2017-05-25T09:09:29Z</time>
      </trkpt>
      <trkpt lat="45.71786" lon="3.82544">
        <ele>1112.5</ele>
        <time>2017-05-25T09:09:31Z</time>
      </trkpt>
      <trkpt lat="45.71794" lon="3.82556">
        <ele>1112.099976</ele>
        <time>2017-05-25T09:09:33Z</time>
      </trkpt>
      <trkpt lat="45.71802" lon="3.82569">
        <ele>1111.800049</ele>
        <time>2017-05-25T09:09:35Z</time>
      </trkpt>
      <trkpt lat="45.71811" lon="3.82583">
        <ele>1111.5</ele>
        <time>2017-05-25T09:09:37Z</time>
      </trkpt>
      <trkpt lat="45.71818" lon="3.82599">
        <ele>1111.400024</ele>
        <time>2017-05-25T09:09:39Z</time>
      </trkpt>
      <trkpt lat="45.71823" lon="3.82616">
        <ele>1111.199951</ele>
        <time>2017-05-25T09:09:41Z</time>
      </trkpt>
      <trkpt lat="45.71826" lon="3.82634">
        <ele>1110.800049</ele>
        <time>2017-05-25T09:09:43Z</time>
      </trkpt>
      <trkpt lat="45.71828" lon="3.82652">
        <ele>1110.699951</ele>
        <time>2017-05-25T09:09:45Z</time>
      </trkpt>
      <trkpt lat="45.7183" lon="3.82671">
        <ele>1110.300049</ele>
        <time>2017-05-25T09:09:47Z</time>
      </trkpt>
      <trkpt lat="45.71832" lon="3.82689">
        <ele>1109.900024</ele>
        <time>2017-05-25T09:09:49Z</time>
      </trkpt>
      <trkpt lat="45.71833" lon="3.82708">
        <ele>1109.5</ele>
        <time>2017-05-25T09:09:51Z</time>
      </trkpt>
      <trkpt lat="45.71834" lon="3.82727">
        <ele>1109</ele>
        <time>2017-05-25T09:09:53Z</time>
      </trkpt>
      <trkpt lat="45.71836" lon="3.82748">
        <ele>1108.599976</ele>
        <time>2017-05-25T09:09:55Z</time>
      </trkpt>
      <trkpt lat="45.71836" lon="3.8277">
        <ele>1107.900024</ele>
        <time>2017-05-25T09:09:57Z</time>
      </trkpt>
      <trkpt lat="45.71837" lon="3.82793">
        <ele>1107.300049</ele>
        <time>2017-05-25T09:09:59Z</time>
      </trkpt>
      <trkpt lat="45.71836" lon="3.82816">
        <ele>1106.599976</ele>
        <time>2017-05-25T09:10:01Z</time>
      </trkpt>
      <trkpt lat="45.71832" lon="3.82837">
        <ele>1105.800049</ele>
        <time>2017-05-25T09:10:03Z</time>
      </trkpt>
      <trkpt lat="45.71828" lon="3.82857">
        <ele>1105.099976</ele>
        <time>2017-05-25T09:10:05Z</time>
      </trkpt>
      <trkpt lat="45.71824" lon="3.82875">
        <ele>1104.699951</ele>
        <time>2017-05-25T09:10:07Z</time>
      </trkpt>
      <trkpt lat="45.7182" lon="3.82891">
        <ele>1104.400024</ele>
        <time>2017-05-25T09:10:09Z</time>
      </trkpt>
      <trkpt lat="45.71816" lon="3.82908">
        <ele>1104.099976</ele>
        <time>2017-05-25T09:10:11Z</time>
      </trkpt>
      <trkpt lat="45.71812" lon="3.82922">
        <ele>1103.800049</ele>
        <time>2017-05-25T09:10:13Z</time>
      </trkpt>
      <trkpt lat="45.71807" lon="3.82933">
        <ele>1103.199951</ele>
        <time>2017-05-25T09:10:15Z</time>
      </trkpt>
      <trkpt lat="45.71802" lon="3.82949">
        <ele>1102.599976</ele>
        <time>2017-05-25T09:10:17Z</time>
      </trkpt>
      <trkpt lat="45.71796" lon="3.82963">
        <ele>1102.099976</ele>
        <time>2017-05-25T09:10:19Z</time>
      </trkpt>
      <trkpt lat="45.71789" lon="3.82977">
        <ele>1101.599976</ele>
        <time>2017-05-25T09:10:21Z</time>
      </trkpt>
      <trkpt lat="45.71782" lon="3.82992">
        <ele>1100.900024</ele>
        <time>2017-05-25T09:10:23Z</time>
      </trkpt>
      <trkpt lat="45.71776" lon="3.83009">
        <ele>1100.099976</ele>
        <time>2017-05-25T09:10:25Z</time>
      </trkpt>
      <trkpt lat="45.71771" lon="3.83034">
        <ele>1099.300049</ele>
        <time>2017-05-25T09:10:27Z</time>
      </trkpt>
      <trkpt lat="45.71769" lon="3.8306">
        <ele>1098.599976</ele>
        <time>2017-05-25T09:10:29Z</time>
      </trkpt>
      <trkpt lat="45.71767" lon="3.83084">
        <ele>1098.099976</ele>
        <time>2017-05-25T09:10:31Z</time>
      </trkpt>
      <trkpt lat="45.71764" lon="3.83107">
        <ele>1097.400024</ele>
        <time>2017-05-25T09:10:33Z</time>
      </trkpt>
      <trkpt lat="45.71762" lon="3.83128">
        <ele>1096.699951</ele>
        <time>2017-05-25T09:10:35Z</time>
      </trkpt>
      <trkpt lat="45.7176" lon="3.83152">
        <ele>1095.900024</ele>
        <time>2017-05-25T09:10:37Z</time>
      </trkpt>
      <trkpt lat="45.71757" lon="3.83165">
        <ele>1095.5</ele>
        <time>2017-05-25T09:10:38Z</time>
      </trkpt>
      <trkpt lat="45.71751" lon="3.8319">
        <ele>1094.699951</ele>
        <time>2017-05-25T09:10:40Z</time>
      </trkpt>
      <trkpt lat="45.71749" lon="3.83202">
        <ele>1094.199951</ele>
        <time>2017-05-25T09:10:41Z</time>
      </trkpt>
      <trkpt lat="45.71745" lon="3.83215">
        <ele>1093.800049</ele>
        <time>2017-05-25T09:10:42Z</time>
      </trkpt>
      <trkpt lat="45.71742" lon="3.83227">
        <ele>1093.400024</ele>
        <time>2017-05-25T09:10:43Z</time>
      </trkpt>
      <trkpt lat="45.71739" lon="3.8324">
        <ele>1093</ele>
        <time>2017-05-25T09:10:44Z</time>
      </trkpt>
      <trkpt lat="45.71736" lon="3.83253">
        <ele>1092.599976</ele>
        <time>2017-05-25T09:10:45Z</time>
      </trkpt>
      <trkpt lat="45.71733" lon="3.83266">
        <ele>1092.199951</ele>
        <time>2017-05-25T09:10:46Z</time>
      </trkpt>
      <trkpt lat="45.71729" lon="3.83279">
        <ele>1091.900024</ele>
        <time>2017-05-25T09:10:47Z</time>
      </trkpt>
      <trkpt lat="45.71726" lon="3.83293">
        <ele>1091.5</ele>
        <time>2017-05-25T09:10:48Z</time>
      </trkpt>
      <trkpt lat="45.71718" lon="3.83311">
        <ele>1091.199951</ele>
        <time>2017-05-25T09:10:50Z</time>
      </trkpt>
      <trkpt lat="45.71711" lon="3.83327">
        <ele>1091.599976</ele>
        <time>2017-05-25T09:10:52Z</time>
      </trkpt>
      <trkpt lat="45.71706" lon="3.83338">
        <ele>1092.300049</ele>
        <time>2017-05-25T09:10:54Z</time>
      </trkpt>
      <trkpt lat="45.71699" lon="3.8335">
        <ele>1094.099976</ele>
        <time>2017-05-25T09:10:58Z</time>
      </trkpt>
      <trkpt lat="45.71692" lon="3.83359">
        <ele>1095.699951</ele>
        <time>2017-05-25T09:11:02Z</time>
      </trkpt>
      <trkpt lat="45.71683" lon="3.83369">
        <ele>1097.599976</ele>
        <time>2017-05-25T09:11:07Z</time>
      </trkpt>
      <trkpt lat="45.71674" lon="3.83379">
        <ele>1099.599976</ele>
        <time>2017-05-25T09:11:12Z</time>
      </trkpt>
      <trkpt lat="45.71667" lon="3.83388">
        <ele>1101.800049</ele>
        <time>2017-05-25T09:11:18Z</time>
      </trkpt>
      <trkpt lat="45.71661" lon="3.83398">
        <ele>1103.400024</ele>
        <time>2017-05-25T09:11:23Z</time>
      </trkpt>
      <trkpt lat="45.71656" lon="3.8341">
        <ele>1105</ele>
        <time>2017-05-25T09:11:30Z</time>
      </trkpt>
      <trkpt lat="45.71651" lon="3.83421">
        <ele>1106.5</ele>
        <time>2017-05-25T09:11:37Z</time>
      </trkpt>
      <trkpt lat="45.71646" lon="3.83433">
        <ele>1108.400024</ele>
        <time>2017-05-25T09:11:45Z</time>
      </trkpt>
      <trkpt lat="45.71641" lon="3.83446">
        <ele>1109.900024</ele>
        <time>2017-05-25T09:11:51Z</time>
      </trkpt>
      <trkpt lat="45.71634" lon="3.83453">
        <ele>1111.199951</ele>
        <time>2017-05-25T09:11:57Z</time>
      </trkpt>
      <trkpt lat="45.71624" lon="3.83448">
        <ele>1112.599976</ele>
        <time>2017-05-25T09:12:05Z</time>
      </trkpt>
      <trkpt lat="45.71617" lon="3.8344">
        <ele>1114.099976</ele>
        <time>2017-05-25T09:12:12Z</time>
      </trkpt>
      <trkpt lat="45.7161" lon="3.83431">
        <ele>1116.099976</ele>
        <time>2017-05-25T09:12:20Z</time>
      </trkpt>
      <trkpt lat="45.71605" lon="3.83418">
        <ele>1117.800049</ele>
        <time>2017-05-25T09:12:28Z</time>
      </trkpt>
      <trkpt lat="45.71599" lon="3.83409">
        <ele>1119.5</ele>
        <time>2017-05-25T09:12:37Z</time>
      </trkpt>
      <trkpt lat="45.71595" lon="3.83396">
        <ele>1120.800049</ele>
        <time>2017-05-25T09:12:44Z</time>
      </trkpt>
      <trkpt lat="45.71589" lon="3.83385">
        <ele>1122.599976</ele>
        <time>2017-05-25T09:12:53Z</time>
      </trkpt>
      <trkpt lat="45.71583" lon="3.83373">
        <ele>1124.199951</ele>
        <time>2017-05-25T09:13:01Z</time>
      </trkpt>
      <trkpt lat="45.71578" lon="3.8336">
        <ele>1125.800049</ele>
        <time>2017-05-25T09:13:09Z</time>
      </trkpt>
      <trkpt lat="45.71575" lon="3.83347">
        <ele>1127.599976</ele>
        <time>2017-05-25T09:13:16Z</time>
      </trkpt>
      <trkpt lat="45.71575" lon="3.83332">
        <ele>1128.800049</ele>
        <time>2017-05-25T09:13:23Z</time>
      </trkpt>
      <trkpt lat="45.71575" lon="3.83318">
        <ele>1129.800049</ele>
        <time>2017-05-25T09:13:29Z</time>
      </trkpt>
      <trkpt lat="45.71576" lon="3.83303">
        <ele>1131.199951</ele>
        <time>2017-05-25T09:13:38Z</time>
      </trkpt>
      <trkpt lat="45.71577" lon="3.83289">
        <ele>1132.099976</ele>
        <time>2017-05-25T09:13:44Z</time>
      </trkpt>
      <trkpt lat="45.71578" lon="3.83274">
        <ele>1133.199951</ele>
        <time>2017-05-25T09:13:51Z</time>
      </trkpt>
      <trkpt lat="45.71581" lon="3.83262">
        <ele>1134</ele>
        <time>2017-05-25T09:13:57Z</time>
      </trkpt>
      <trkpt lat="45.71581" lon="3.83248">
        <ele>1135.199951</ele>
        <time>2017-05-25T09:14:04Z</time>
      </trkpt>
      <trkpt lat="45.71584" lon="3.83235">
        <ele>1136.599976</ele>
        <time>2017-05-25T09:14:11Z</time>
      </trkpt>
      <trkpt lat="45.71585" lon="3.83222">
        <ele>1137.900024</ele>
        <time>2017-05-25T09:14:17Z</time>
      </trkpt>
      <trkpt lat="45.71587" lon="3.83209">
        <ele>1138.5</ele>
        <time>2017-05-25T09:14:22Z</time>
      </trkpt>
      <trkpt lat="45.71588" lon="3.83196">
        <ele>1139.5</ele>
        <time>2017-05-25T09:14:29Z</time>
      </trkpt>
      <trkpt lat="45.7159" lon="3.83183">
        <ele>1140.5</ele>
        <time>2017-05-25T09:14:35Z</time>
      </trkpt>
      <trkpt lat="45.71591" lon="3.8317">
        <ele>1141.5</ele>
        <time>2017-05-25T09:14:41Z</time>
      </trkpt>
      <trkpt lat="45.71591" lon="3.83156">
        <ele>1142.599976</ele>
        <time>2017-05-25T09:14:47Z</time>
      </trkpt>
      <trkpt lat="45.71594" lon="3.83143">
        <ele>1143.800049</ele>
        <time>2017-05-25T09:14:54Z</time>
      </trkpt>
      <trkpt lat="45.71593" lon="3.83129">
        <ele>1144.5</ele>
        <time>2017-05-25T09:14:59Z</time>
      </trkpt>
      <trkpt lat="45.71594" lon="3.83114">
        <ele>1145.400024</ele>
        <time>2017-05-25T09:15:03Z</time>
      </trkpt>
      <trkpt lat="45.71597" lon="3.83098">
        <ele>1146.400024</ele>
        <time>2017-05-25T09:15:08Z</time>
      </trkpt>
      <trkpt lat="45.716" lon="3.83084">
        <ele>1147</ele>
        <time>2017-05-25T09:15:13Z</time>
      </trkpt>
      <trkpt lat="45.71601" lon="3.83071">
        <ele>1147.400024</ele>
        <time>2017-05-25T09:15:17Z</time>
      </trkpt>
      <trkpt lat="45.71601" lon="3.83056">
        <ele>1148.199951</ele>
        <time>2017-05-25T09:15:21Z</time>
      </trkpt>
      <trkpt lat="45.71603" lon="3.83042">
        <ele>1148.800049</ele>
        <time>2017-05-25T09:15:25Z</time>
      </trkpt>
      <trkpt lat="45.71604" lon="3.83026">
        <ele>1149.5</ele>
        <time>2017-05-25T09:15:30Z</time>
      </trkpt>
      <trkpt lat="45.71602" lon="3.83013">
        <ele>1150.099976</ele>
        <time>2017-05-25T09:15:33Z</time>
      </trkpt>
      <trkpt lat="45.71601" lon="3.82999">
        <ele>1151</ele>
        <time>2017-05-25T09:15:37Z</time>
      </trkpt>
      <trkpt lat="45.71599" lon="3.82984">
        <ele>1151.800049</ele>
        <time>2017-05-25T09:15:41Z</time>
      </trkpt>
      <trkpt lat="45.71595" lon="3.82971">
        <ele>1152.800049</ele>
        <time>2017-05-25T09:15:45Z</time>
      </trkpt>
      <trkpt lat="45.7159" lon="3.8296">
        <ele>1153.599976</ele>
        <time>2017-05-25T09:15:49Z</time>
      </trkpt>
      <trkpt lat="45.71584" lon="3.82948">
        <ele>1154.5</ele>
        <time>2017-05-25T09:15:54Z</time>
      </trkpt>
      <trkpt lat="45.71577" lon="3.82938">
        <ele>1155.099976</ele>
        <time>2017-05-25T09:15:58Z</time>
      </trkpt>
      <trkpt lat="45.71572" lon="3.82924">
        <ele>1155.800049</ele>
        <time>2017-05-25T09:16:02Z</time>
      </trkpt>
      <trkpt lat="45.71564" lon="3.82913">
        <ele>1156.5</ele>
        <time>2017-05-25T09:16:06Z</time>
      </trkpt>
      <trkpt lat="45.71556" lon="3.82901">
        <ele>1157</ele>
        <time>2017-05-25T09:16:10Z</time>
      </trkpt>
      <trkpt lat="45.7155" lon="3.82887">
        <ele>1157.800049</ele>
        <time>2017-05-25T09:16:14Z</time>
      </trkpt>
      <trkpt lat="45.71544" lon="3.82877">
        <ele>1158.199951</ele>
        <time>2017-05-25T09:16:17Z</time>
      </trkpt>
      <trkpt lat="45.71535" lon="3.82866">
        <ele>1158.699951</ele>
        <time>2017-05-25T09:16:21Z</time>
      </trkpt>
      <trkpt lat="45.71529" lon="3.82856">
        <ele>1159.099976</ele>
        <time>2017-05-25T09:16:24Z</time>
      </trkpt>
      <trkpt lat="45.71521" lon="3.82848">
        <ele>1159.5</ele>
        <time>2017-05-25T09:16:27Z</time>
      </trkpt>
      <trkpt lat="45.71514" lon="3.82839">
        <ele>1159.900024</ele>
        <time>2017-05-25T09:16:30Z</time>
      </trkpt>
      <trkpt lat="45.71505" lon="3.82829">
        <ele>1160.099976</ele>
        <time>2017-05-25T09:16:33Z</time>
      </trkpt>
      <trkpt lat="45.71496" lon="3.8282">
        <ele>1160.599976</ele>
        <time>2017-05-25T09:16:36Z</time>
      </trkpt>
      <trkpt lat="45.71488" lon="3.82813">
        <ele>1161.099976</ele>
        <time>2017-05-25T09:16:39Z</time>
      </trkpt>
      <trkpt lat="45.71476" lon="3.82811">
        <ele>1161.699951</ele>
        <time>2017-05-25T09:16:43Z</time>
      </trkpt>
      <trkpt lat="45.71464" lon="3.82812">
        <ele>1162.599976</ele>
        <time>2017-05-25T09:16:47Z</time>
      </trkpt>
      <trkpt lat="45.71454" lon="3.82817">
        <ele>1163.300049</ele>
        <time>2017-05-25T09:16:51Z</time>
      </trkpt>
      <trkpt lat="45.71444" lon="3.82819">
        <ele>1163.800049</ele>
        <time>2017-05-25T09:16:55Z</time>
      </trkpt>
      <trkpt lat="45.71435" lon="3.82824">
        <ele>1164.400024</ele>
        <time>2017-05-25T09:16:58Z</time>
      </trkpt>
      <trkpt lat="45.71427" lon="3.82828">
        <ele>1164.900024</ele>
        <time>2017-05-25T09:17:01Z</time>
      </trkpt>
      <trkpt lat="45.71415" lon="3.82831">
        <ele>1165.5</ele>
        <time>2017-05-25T09:17:05Z</time>
      </trkpt>
      <trkpt lat="45.71406" lon="3.82831">
        <ele>1165.900024</ele>
        <time>2017-05-25T09:17:08Z</time>
      </trkpt>
      <trkpt lat="45.71394" lon="3.82828">
        <ele>1166.400024</ele>
        <time>2017-05-25T09:17:12Z</time>
      </trkpt>
      <trkpt lat="45.71385" lon="3.82825">
        <ele>1166.699951</ele>
        <time>2017-05-25T09:17:15Z</time>
      </trkpt>
      <trkpt lat="45.71376" lon="3.8282">
        <ele>1166.800049</ele>
        <time>2017-05-25T09:17:18Z</time>
      </trkpt>
      <trkpt lat="45.71365" lon="3.82817">
        <ele>1167</ele>
        <time>2017-05-25T09:17:21Z</time>
      </trkpt>
      <trkpt lat="45.71355" lon="3.82813">
        <ele>1167.199951</ele>
        <time>2017-05-25T09:17:24Z</time>
      </trkpt>
      <trkpt lat="45.71345" lon="3.82808">
        <ele>1167.400024</ele>
        <time>2017-05-25T09:17:27Z</time>
      </trkpt>
      <trkpt lat="45.71337" lon="3.82801">
        <ele>1167.699951</ele>
        <time>2017-05-25T09:17:30Z</time>
      </trkpt>
      <trkpt lat="45.71329" lon="3.82794">
        <ele>1167.800049</ele>
        <time>2017-05-25T09:17:33Z</time>
      </trkpt>
      <trkpt lat="45.71323" lon="3.82785">
        <ele>1167.699951</ele>
        <time>2017-05-25T09:17:36Z</time>
      </trkpt>
      <trkpt lat="45.71316" lon="3.82775">
        <ele>1167.599976</ele>
        <time>2017-05-25T09:17:39Z</time>
      </trkpt>
      <trkpt lat="45.71308" lon="3.82767">
        <ele>1167.599976</ele>
        <time>2017-05-25T09:17:43Z</time>
      </trkpt>
      <trkpt lat="45.71301" lon="3.82756">
        <ele>1167.599976</ele>
        <time>2017-05-25T09:17:49Z</time>
      </trkpt>
      <trkpt lat="45.71295" lon="3.82742">
        <ele>1167.699951</ele>
        <time>2017-05-25T09:17:54Z</time>
      </trkpt>
      <trkpt lat="45.71289" lon="3.8273">
        <ele>1167.699951</ele>
        <time>2017-05-25T09:17:58Z</time>
      </trkpt>
      <trkpt lat="45.71284" lon="3.82718">
        <ele>1167.800049</ele>
        <time>2017-05-25T09:18:01Z</time>
      </trkpt>
      <trkpt lat="45.71279" lon="3.82706">
        <ele>1167.300049</ele>
        <time>2017-05-25T09:18:04Z</time>
      </trkpt>
      <trkpt lat="45.71274" lon="3.82695">
        <ele>1167.599976</ele>
        <time>2017-05-25T09:18:07Z</time>
      </trkpt>
      <trkpt lat="45.71267" lon="3.82684">
        <ele>1167.800049</ele>
        <time>2017-05-25T09:18:10Z</time>
      </trkpt>
      <trkpt lat="45.71261" lon="3.82673">
        <ele>1167.900024</ele>
        <time>2017-05-25T09:18:13Z</time>
      </trkpt>
      <trkpt lat="45.71254" lon="3.82664">
        <ele>1168.199951</ele>
        <time>2017-05-25T09:18:16Z</time>
      </trkpt>
      <trkpt lat="45.71247" lon="3.82655">
        <ele>1168.400024</ele>
        <time>2017-05-25T09:18:19Z</time>
      </trkpt>
      <trkpt lat="45.71241" lon="3.82645">
        <ele>1168.5</ele>
        <time>2017-05-25T09:18:22Z</time>
      </trkpt>
      <trkpt lat="45.71234" lon="3.82635">
        <ele>1168.900024</ele>
        <time>2017-05-25T09:18:25Z</time>
      </trkpt>
      <trkpt lat="45.71226" lon="3.82622">
        <ele>1169.300049</ele>
        <time>2017-05-25T09:18:29Z</time>
      </trkpt>
      <trkpt lat="45.7122" lon="3.82611">
        <ele>1169.699951</ele>
        <time>2017-05-25T09:18:32Z</time>
      </trkpt>
      <trkpt lat="45.71216" lon="3.826">
        <ele>1170.300049</ele>
        <time>2017-05-25T09:18:35Z</time>
      </trkpt>
      <trkpt lat="45.71212" lon="3.82588">
        <ele>1170.599976</ele>
        <time>2017-05-25T09:18:38Z</time>
      </trkpt>
      <trkpt lat="45.71206" lon="3.82577">
        <ele>1171.400024</ele>
        <time>2017-05-25T09:18:43Z</time>
      </trkpt>
      <trkpt lat="45.71204" lon="3.82564">
        <ele>1172.699951</ele>
        <time>2017-05-25T09:22:05Z</time>
      </trkpt>
      <trkpt lat="45.71203" lon="3.82551">
        <ele>1173</ele>
        <time>2017-05-25T09:22:10Z</time>
      </trkpt>
      <trkpt lat="45.712" lon="3.82535">
        <ele>1173.300049</ele>
        <time>2017-05-25T09:22:15Z</time>
      </trkpt>
      <trkpt lat="45.71197" lon="3.82523">
        <ele>1173.699951</ele>
        <time>2017-05-25T09:22:19Z</time>
      </trkpt>
      <trkpt lat="45.71194" lon="3.8251">
        <ele>1174.099976</ele>
        <time>2017-05-25T09:22:23Z</time>
      </trkpt>
      <trkpt lat="45.71191" lon="3.82497">
        <ele>1174.5</ele>
        <time>2017-05-25T09:22:27Z</time>
      </trkpt>
      <trkpt lat="45.71189" lon="3.82483">
        <ele>1175.300049</ele>
        <time>2017-05-25T09:22:32Z</time>
      </trkpt>
      <trkpt lat="45.71186" lon="3.82469">
        <ele>1176.300049</ele>
        <time>2017-05-25T09:22:37Z</time>
      </trkpt>
      <trkpt lat="45.71183" lon="3.82457">
        <ele>1177.099976</ele>
        <time>2017-05-25T09:22:42Z</time>
      </trkpt>
      <trkpt lat="45.7118" lon="3.82443">
        <ele>1178.400024</ele>
        <time>2017-05-25T09:22:48Z</time>
      </trkpt>
      <trkpt lat="45.71177" lon="3.82429">
        <ele>1179.5</ele>
        <time>2017-05-25T09:22:54Z</time>
      </trkpt>
      <trkpt lat="45.71172" lon="3.82417">
        <ele>1181</ele>
        <time>2017-05-25T09:23:01Z</time>
      </trkpt>
      <trkpt lat="45.71168" lon="3.82404">
        <ele>1182</ele>
        <time>2017-05-25T09:23:07Z</time>
      </trkpt>
      <trkpt lat="45.71166" lon="3.82389">
        <ele>1183.400024</ele>
        <time>2017-05-25T09:23:14Z</time>
      </trkpt>
      <trkpt lat="45.71161" lon="3.82376">
        <ele>1184.599976</ele>
        <time>2017-05-25T09:23:21Z</time>
      </trkpt>
      <trkpt lat="45.71157" lon="3.82363">
        <ele>1186</ele>
        <time>2017-05-25T09:23:29Z</time>
      </trkpt>
      <trkpt lat="45.71154" lon="3.8235">
        <ele>1186.900024</ele>
        <time>2017-05-25T09:23:35Z</time>
      </trkpt>
      <trkpt lat="45.71152" lon="3.82336">
        <ele>1187.900024</ele>
        <time>2017-05-25T09:23:42Z</time>
      </trkpt>
      <trkpt lat="45.71147" lon="3.82324">
        <ele>1189.300049</ele>
        <time>2017-05-25T09:23:50Z</time>
      </trkpt>
      <trkpt lat="45.71144" lon="3.82311">
        <ele>1190.699951</ele>
        <time>2017-05-25T09:23:59Z</time>
      </trkpt>
      <trkpt lat="45.71139" lon="3.823">
        <ele>1192</ele>
        <time>2017-05-25T09:24:06Z</time>
      </trkpt>
      <trkpt lat="45.71132" lon="3.8229">
        <ele>1193</ele>
        <time>2017-05-25T09:24:12Z</time>
      </trkpt>
      <trkpt lat="45.71126" lon="3.82279">
        <ele>1194.300049</ele>
        <time>2017-05-25T09:24:18Z</time>
      </trkpt>
      <trkpt lat="45.7112" lon="3.82268">
        <ele>1195</ele>
        <time>2017-05-25T09:24:24Z</time>
      </trkpt>
      <trkpt lat="45.71113" lon="3.82259">
        <ele>1196.099976</ele>
        <time>2017-05-25T09:24:30Z</time>
      </trkpt>
      <trkpt lat="45.71108" lon="3.82249">
        <ele>1197</ele>
        <time>2017-05-25T09:24:36Z</time>
      </trkpt>
      <trkpt lat="45.71101" lon="3.82239">
        <ele>1198.199951</ele>
        <time>2017-05-25T09:24:42Z</time>
      </trkpt>
      <trkpt lat="45.71093" lon="3.82231">
        <ele>1198.800049</ele>
        <time>2017-05-25T09:24:48Z</time>
      </trkpt>
      <trkpt lat="45.71087" lon="3.8222">
        <ele>1199.599976</ele>
        <time>2017-05-25T09:24:54Z</time>
      </trkpt>
      <trkpt lat="45.71082" lon="3.82208">
        <ele>1200.800049</ele>
        <time>2017-05-25T09:25:01Z</time>
      </trkpt>
      <trkpt lat="45.71075" lon="3.82197">
        <ele>1202</ele>
        <time>2017-05-25T09:25:09Z</time>
      </trkpt>
      <trkpt lat="45.71068" lon="3.82184">
        <ele>1203</ele>
        <time>2017-05-25T09:25:16Z</time>
      </trkpt>
      <trkpt lat="45.71063" lon="3.82172">
        <ele>1203.900024</ele>
        <time>2017-05-25T09:25:21Z</time>
      </trkpt>
      <trkpt lat="45.71058" lon="3.8216">
        <ele>1204.900024</ele>
        <time>2017-05-25T09:25:27Z</time>
      </trkpt>
      <trkpt lat="45.71052" lon="3.82148">
        <ele>1205.800049</ele>
        <time>2017-05-25T09:25:33Z</time>
      </trkpt>
      <trkpt lat="45.71046" lon="3.82138">
        <ele>1206.900024</ele>
        <time>2017-05-25T09:25:39Z</time>
      </trkpt>
      <trkpt lat="45.71039" lon="3.82129">
        <ele>1208.5</ele>
        <time>2017-05-25T09:25:47Z</time>
      </trkpt>
      <trkpt lat="45.71031" lon="3.8212">
        <ele>1209.599976</ele>
        <time>2017-05-25T09:25:54Z</time>
      </trkpt>
      <trkpt lat="45.71023" lon="3.8211">
        <ele>1210.800049</ele>
        <time>2017-05-25T09:26:01Z</time>
      </trkpt>
      <trkpt lat="45.71017" lon="3.82099">
        <ele>1211.599976</ele>
        <time>2017-05-25T09:26:06Z</time>
      </trkpt>
      <trkpt lat="45.71011" lon="3.82088">
        <ele>1212.400024</ele>
        <time>2017-05-25T09:26:11Z</time>
      </trkpt>
      <trkpt lat="45.71008" lon="3.82073">
        <ele>1213.300049</ele>
        <time>2017-05-25T09:26:16Z</time>
      </trkpt>
      <trkpt lat="45.71001" lon="3.82064">
        <ele>1214.099976</ele>
        <time>2017-05-25T09:26:21Z</time>
      </trkpt>
      <trkpt lat="45.70996" lon="3.82051">
        <ele>1215</ele>
        <time>2017-05-25T09:26:26Z</time>
      </trkpt>
      <trkpt lat="45.70991" lon="3.82038">
        <ele>1215.900024</ele>
        <time>2017-05-25T09:26:32Z</time>
      </trkpt>
      <trkpt lat="45.70985" lon="3.82029">
        <ele>1216.400024</ele>
        <time>2017-05-25T09:26:37Z</time>
      </trkpt>
      <trkpt lat="45.70977" lon="3.82021">
        <ele>1217.199951</ele>
        <time>2017-05-25T09:26:41Z</time>
      </trkpt>
      <trkpt lat="45.70973" lon="3.82007">
        <ele>1217.900024</ele>
        <time>2017-05-25T09:26:46Z</time>
      </trkpt>
      <trkpt lat="45.70967" lon="3.81994">
        <ele>1218.599976</ele>
        <time>2017-05-25T09:26:51Z</time>
      </trkpt>
      <trkpt lat="45.70963" lon="3.81979">
        <ele>1219.199951</ele>
        <time>2017-05-25T09:26:56Z</time>
      </trkpt>
      <trkpt lat="45.70957" lon="3.81967">
        <ele>1220.099976</ele>
        <time>2017-05-25T09:27:02Z</time>
      </trkpt>
      <trkpt lat="45.7095" lon="3.81959">
        <ele>1220.900024</ele>
        <time>2017-05-25T09:27:07Z</time>
      </trkpt>
      <trkpt lat="45.70943" lon="3.81948">
        <ele>1222.099976</ele>
        <time>2017-05-25T09:27:13Z</time>
      </trkpt>
      <trkpt lat="45.70937" lon="3.81937">
        <ele>1222.900024</ele>
        <time>2017-05-25T09:27:19Z</time>
      </trkpt>
      <trkpt lat="45.70934" lon="3.81923">
        <ele>1223.699951</ele>
        <time>2017-05-25T09:27:25Z</time>
      </trkpt>
      <trkpt lat="45.70932" lon="3.81911">
        <ele>1224.599976</ele>
        <time>2017-05-25T09:27:31Z</time>
      </trkpt>
      <trkpt lat="45.70928" lon="3.81898">
        <ele>1225.300049</ele>
        <time>2017-05-25T09:27:38Z</time>
      </trkpt>
      <trkpt lat="45.70926" lon="3.81885">
        <ele>1226.800049</ele>
        <time>2017-05-25T09:27:45Z</time>
      </trkpt>
      <trkpt lat="45.70923" lon="3.81872">
        <ele>1228.5</ele>
        <time>2017-05-25T09:27:53Z</time>
      </trkpt>
      <trkpt lat="45.70923" lon="3.81858">
        <ele>1229.800049</ele>
        <time>2017-05-25T09:27:59Z</time>
      </trkpt>
      <trkpt lat="45.70917" lon="3.81846">
        <ele>1231</ele>
        <time>2017-05-25T09:28:06Z</time>
      </trkpt>
      <trkpt lat="45.70914" lon="3.81832">
        <ele>1232.5</ele>
        <time>2017-05-25T09:28:14Z</time>
      </trkpt>
      <trkpt lat="45.7091" lon="3.8182">
        <ele>1234.099976</ele>
        <time>2017-05-25T09:28:22Z</time>
      </trkpt>
      <trkpt lat="45.70906" lon="3.81808">
        <ele>1235.800049</ele>
        <time>2017-05-25T09:28:29Z</time>
      </trkpt>
      <trkpt lat="45.70902" lon="3.81796">
        <ele>1237.300049</ele>
        <time>2017-05-25T09:28:36Z</time>
      </trkpt>
      <trkpt lat="45.70897" lon="3.81784">
        <ele>1238.5</ele>
        <time>2017-05-25T09:28:43Z</time>
      </trkpt>
      <trkpt lat="45.70892" lon="3.81771">
        <ele>1241</ele>
        <time>2017-05-25T09:28:51Z</time>
      </trkpt>
      <trkpt lat="45.70889" lon="3.81759">
        <ele>1242.900024</ele>
        <time>2017-05-25T09:28:58Z</time>
      </trkpt>
      <trkpt lat="45.70885" lon="3.81746">
        <ele>1245</ele>
        <time>2017-05-25T09:29:05Z</time>
      </trkpt>
      <trkpt lat="45.70883" lon="3.81734">
        <ele>1247.199951</ele>
        <time>2017-05-25T09:29:14Z</time>
      </trkpt>
      <trkpt lat="45.70879" lon="3.81721">
        <ele>1249</ele>
        <time>2017-05-25T09:29:23Z</time>
      </trkpt>
      <trkpt lat="45.70877" lon="3.81706">
        <ele>1250.199951</ele>
        <time>2017-05-25T09:29:30Z</time>
      </trkpt>
      <trkpt lat="45.70872" lon="3.81694">
        <ele>1251.199951</ele>
        <time>2017-05-25T09:29:38Z</time>
      </trkpt>
      <trkpt lat="45.70868" lon="3.81682">
        <ele>1252.900024</ele>
        <time>2017-05-25T09:29:46Z</time>
      </trkpt>
      <trkpt lat="45.70863" lon="3.8167">
        <ele>1254.199951</ele>
        <time>2017-05-25T09:29:53Z</time>
      </trkpt>
      <trkpt lat="45.70861" lon="3.81656">
        <ele>1256.199951</ele>
        <time>2017-05-25T09:30:01Z</time>
      </trkpt>
      <trkpt lat="45.70859" lon="3.81643">
        <ele>1257.599976</ele>
        <time>2017-05-25T09:30:08Z</time>
      </trkpt>
      <trkpt lat="45.70857" lon="3.81629">
        <ele>1258.400024</ele>
        <time>2017-05-25T09:30:15Z</time>
      </trkpt>
      <trkpt lat="45.70856" lon="3.81615">
        <ele>1259.5</ele>
        <time>2017-05-25T09:30:21Z</time>
      </trkpt>
      <trkpt lat="45.70853" lon="3.81602">
        <ele>1260.099976</ele>
        <time>2017-05-25T09:30:27Z</time>
      </trkpt>
      <trkpt lat="45.7085" lon="3.81587">
        <ele>1261</ele>
        <time>2017-05-25T09:30:33Z</time>
      </trkpt>
      <trkpt lat="45.70847" lon="3.81575">
        <ele>1261.5</ele>
        <time>2017-05-25T09:30:38Z</time>
      </trkpt>
      <trkpt lat="45.70843" lon="3.81562">
        <ele>1262.400024</ele>
        <time>2017-05-25T09:30:44Z</time>
      </trkpt>
      <trkpt lat="45.70838" lon="3.81549">
        <ele>1263.199951</ele>
        <time>2017-05-25T09:30:50Z</time>
      </trkpt>
      <trkpt lat="45.70843" lon="3.81532">
        <ele>1264.900024</ele>
        <time>2017-05-25T09:46:46Z</time>
      </trkpt>
      <trkpt lat="45.70838" lon="3.81517">
        <ele>1266.099976</ele>
        <time>2017-05-25T09:46:52Z</time>
      </trkpt>
      <trkpt lat="45.70833" lon="3.81506">
        <ele>1266.900024</ele>
        <time>2017-05-25T09:46:57Z</time>
      </trkpt>
      <trkpt lat="45.70829" lon="3.81492">
        <ele>1267</ele>
        <time>2017-05-25T09:47:02Z</time>
      </trkpt>
      <trkpt lat="45.70827" lon="3.81478">
        <ele>1267.5</ele>
        <time>2017-05-25T09:47:07Z</time>
      </trkpt>
      <trkpt lat="45.70826" lon="3.81464">
        <ele>1268.300049</ele>
        <time>2017-05-25T09:47:12Z</time>
      </trkpt>
      <trkpt lat="45.70822" lon="3.81449">
        <ele>1268.699951</ele>
        <time>2017-05-25T09:47:16Z</time>
      </trkpt>
      <trkpt lat="45.70819" lon="3.81436">
        <ele>1269.199951</ele>
        <time>2017-05-25T09:47:20Z</time>
      </trkpt>
      <trkpt lat="45.70815" lon="3.81423">
        <ele>1269.800049</ele>
        <time>2017-05-25T09:47:24Z</time>
      </trkpt>
      <trkpt lat="45.70812" lon="3.81411">
        <ele>1270.699951</ele>
        <time>2017-05-25T09:47:28Z</time>
      </trkpt>
      <trkpt lat="45.70809" lon="3.81398">
        <ele>1271.699951</ele>
        <time>2017-05-25T09:47:32Z</time>
      </trkpt>
      <trkpt lat="45.70808" lon="3.81382">
        <ele>1272.300049</ele>
        <time>2017-05-25T09:47:36Z</time>
      </trkpt>
      <trkpt lat="45.70809" lon="3.81366">
        <ele>1272.900024</ele>
        <time>2017-05-25T09:47:40Z</time>
      </trkpt>
      <trkpt lat="45.7081" lon="3.81351">
        <ele>1273.400024</ele>
        <time>2017-05-25T09:47:44Z</time>
      </trkpt>
      <trkpt lat="45.70811" lon="3.81337">
        <ele>1274</ele>
        <time>2017-05-25T09:47:48Z</time>
      </trkpt>
      <trkpt lat="45.70812" lon="3.81323">
        <ele>1274.300049</ele>
        <time>2017-05-25T09:47:52Z</time>
      </trkpt>
      <trkpt lat="45.70816" lon="3.81311">
        <ele>1274.300049</ele>
        <time>2017-05-25T09:47:56Z</time>
      </trkpt>
      <trkpt lat="45.70815" lon="3.81298">
        <ele>1273.199951</ele>
        <time>2017-05-25T09:48:27Z</time>
      </trkpt>
      <trkpt lat="45.70809" lon="3.81286">
        <ele>1273.400024</ele>
        <time>2017-05-25T09:50:00Z</time>
      </trkpt>
      <trkpt lat="45.70803" lon="3.81276">
        <ele>1273.400024</ele>
        <time>2017-05-25T09:50:03Z</time>
      </trkpt>
      <trkpt lat="45.70799" lon="3.81261">
        <ele>1273.199951</ele>
        <time>2017-05-25T09:50:06Z</time>
      </trkpt>
      <trkpt lat="45.70794" lon="3.81245">
        <ele>1272.800049</ele>
        <time>2017-05-25T09:50:09Z</time>
      </trkpt>
      <trkpt lat="45.70787" lon="3.8123">
        <ele>1272.099976</ele>
        <time>2017-05-25T09:50:12Z</time>
      </trkpt>
      <trkpt lat="45.70786" lon="3.81213">
        <ele>1270.699951</ele>
        <time>2017-05-25T09:50:16Z</time>
      </trkpt>
      <trkpt lat="45.70783" lon="3.81196">
        <ele>1269.800049</ele>
        <time>2017-05-25T09:50:19Z</time>
      </trkpt>
      <trkpt lat="45.70778" lon="3.8118">
        <ele>1268.300049</ele>
        <time>2017-05-25T09:50:22Z</time>
      </trkpt>
      <trkpt lat="45.70773" lon="3.81166">
        <ele>1267.099976</ele>
        <time>2017-05-25T09:50:25Z</time>
      </trkpt>
      <trkpt lat="45.70765" lon="3.81155">
        <ele>1265.800049</ele>
        <time>2017-05-25T09:50:28Z</time>
      </trkpt>
      <trkpt lat="45.70755" lon="3.81144">
        <ele>1264.099976</ele>
        <time>2017-05-25T09:50:31Z</time>
      </trkpt>
      <trkpt lat="45.70742" lon="3.8114">
        <ele>1262.800049</ele>
        <time>2017-05-25T09:50:34Z</time>
      </trkpt>
      <trkpt lat="45.70731" lon="3.81138">
        <ele>1261.800049</ele>
        <time>2017-05-25T09:50:37Z</time>
      </trkpt>
      <trkpt lat="45.70721" lon="3.81137">
        <ele>1260.900024</ele>
        <time>2017-05-25T09:50:40Z</time>
      </trkpt>
      <trkpt lat="45.7071" lon="3.81138">
        <ele>1260.099976</ele>
        <time>2017-05-25T09:50:43Z</time>
      </trkpt>
      <trkpt lat="45.70697" lon="3.81136">
        <ele>1259</ele>
        <time>2017-05-25T09:50:46Z</time>
      </trkpt>
      <trkpt lat="45.70686" lon="3.81136">
        <ele>1258.400024</ele>
        <time>2017-05-25T09:50:49Z</time>
      </trkpt>
      <trkpt lat="45.70675" lon="3.81139">
        <ele>1257.5</ele>
        <time>2017-05-25T09:50:52Z</time>
      </trkpt>
      <trkpt lat="45.70664" lon="3.81137">
        <ele>1256.300049</ele>
        <time>2017-05-25T09:50:55Z</time>
      </trkpt>
      <trkpt lat="45.70656" lon="3.81125">
        <ele>1254.599976</ele>
        <time>2017-05-25T09:50:59Z</time>
      </trkpt>
      <trkpt lat="45.70657" lon="3.81111">
        <ele>1252.699951</ele>
        <time>2017-05-25T09:51:03Z</time>
      </trkpt>
      <trkpt lat="45.7066" lon="3.81098">
        <ele>1250</ele>
        <time>2017-05-25T09:51:09Z</time>
      </trkpt>
      <trkpt lat="45.7066" lon="3.81085">
        <ele>1247.599976</ele>
        <time>2017-05-25T09:51:26Z</time>
      </trkpt>
      <trkpt lat="45.70655" lon="3.81074">
        <ele>1247.099976</ele>
        <time>2017-05-25T09:52:41Z</time>
      </trkpt>
      <trkpt lat="45.70646" lon="3.8107">
        <ele>1247.300049</ele>
        <time>2017-05-25T09:53:01Z</time>
      </trkpt>
      <trkpt lat="45.70637" lon="3.81068">
        <ele>1247.599976</ele>
        <time>2017-05-25T09:53:11Z</time>
      </trkpt>
      <trkpt lat="45.70627" lon="3.81066">
        <ele>1248.099976</ele>
        <time>2017-05-25T09:53:21Z</time>
      </trkpt>
      <trkpt lat="45.70619" lon="3.81058">
        <ele>1249.900024</ele>
        <time>2017-05-25T09:53:35Z</time>
      </trkpt>
      <trkpt lat="45.70611" lon="3.81064">
        <ele>1250.900024</ele>
        <time>2017-05-25T09:53:46Z</time>
      </trkpt>
      <trkpt lat="45.70603" lon="3.81071">
        <ele>1251.5</ele>
        <time>2017-05-25T09:54:04Z</time>
      </trkpt>
      <trkpt lat="45.70593" lon="3.81073">
        <ele>1252.099976</ele>
        <time>2017-05-25T09:54:10Z</time>
      </trkpt>
      <trkpt lat="45.70584" lon="3.81071">
        <ele>1252.900024</ele>
        <time>2017-05-25T09:54:17Z</time>
      </trkpt>
      <trkpt lat="45.70575" lon="3.81065">
        <ele>1253.800049</ele>
        <time>2017-05-25T09:54:24Z</time>
      </trkpt>
      <trkpt lat="45.70566" lon="3.81057">
        <ele>1256</ele>
        <time>2017-05-25T09:54:31Z</time>
      </trkpt>
      <trkpt lat="45.70559" lon="3.81048">
        <ele>1257.400024</ele>
        <time>2017-05-25T09:54:39Z</time>
      </trkpt>
      <trkpt lat="45.70554" lon="3.81037">
        <ele>1258.400024</ele>
        <time>2017-05-25T09:54:45Z</time>
      </trkpt>
      <trkpt lat="45.7055" lon="3.81024">
        <ele>1259.199951</ele>
        <time>2017-05-25T09:54:51Z</time>
      </trkpt>
      <trkpt lat="45.70549" lon="3.81011">
        <ele>1260.400024</ele>
        <time>2017-05-25T09:54:58Z</time>
      </trkpt>
      <trkpt lat="45.70542" lon="3.81005">
        <ele>1261.800049</ele>
        <time>2017-05-25T09:55:05Z</time>
      </trkpt>
      <trkpt lat="45.70539" lon="3.80991">
        <ele>1263.400024</ele>
        <time>2017-05-25T09:55:14Z</time>
      </trkpt>
      <trkpt lat="45.70535" lon="3.80978">
        <ele>1264.900024</ele>
        <time>2017-05-25T09:55:32Z</time>
      </trkpt>
      <trkpt lat="45.70537" lon="3.80966">
        <ele>1266.199951</ele>
        <time>2017-05-25T09:55:45Z</time>
      </trkpt>
      <trkpt lat="45.70534" lon="3.80952">
        <ele>1267.300049</ele>
        <time>2017-05-25T09:56:00Z</time>
      </trkpt>
      <trkpt lat="45.70533" lon="3.80938">
        <ele>1268.300049</ele>
        <time>2017-05-25T09:56:11Z</time>
      </trkpt>
      <trkpt lat="45.7053" lon="3.80923">
        <ele>1269.5</ele>
        <time>2017-05-25T09:56:35Z</time>
      </trkpt>
      <trkpt lat="45.70524" lon="3.80913">
        <ele>1271.400024</ele>
        <time>2017-05-25T09:56:43Z</time>
      </trkpt>
      <trkpt lat="45.7052" lon="3.80901">
        <ele>1273.199951</ele>
        <time>2017-05-25T09:56:50Z</time>
      </trkpt>
      <trkpt lat="45.70512" lon="3.80891">
        <ele>1274.099976</ele>
        <time>2017-05-25T09:56:57Z</time>
      </trkpt>
      <trkpt lat="45.70506" lon="3.8088">
        <ele>1275.699951</ele>
        <time>2017-05-25T09:57:05Z</time>
      </trkpt>
      <trkpt lat="45.70499" lon="3.8087">
        <ele>1277.300049</ele>
        <time>2017-05-25T09:57:13Z</time>
      </trkpt>
      <trkpt lat="45.70492" lon="3.8086">
        <ele>1278.400024</ele>
        <time>2017-05-25T09:57:21Z</time>
      </trkpt>
      <trkpt lat="45.70487" lon="3.80849">
        <ele>1280.099976</ele>
        <time>2017-05-25T09:57:29Z</time>
      </trkpt>
      <trkpt lat="45.70482" lon="3.80838">
        <ele>1281.199951</ele>
        <time>2017-05-25T09:57:36Z</time>
      </trkpt>
      <trkpt lat="45.70477" lon="3.80827">
        <ele>1282.300049</ele>
        <time>2017-05-25T09:57:43Z</time>
      </trkpt>
      <trkpt lat="45.70471" lon="3.80817">
        <ele>1284</ele>
        <time>2017-05-25T09:57:51Z</time>
      </trkpt>
      <trkpt lat="45.70464" lon="3.80808">
        <ele>1285.400024</ele>
        <time>2017-05-25T09:58:02Z</time>
      </trkpt>
      <trkpt lat="45.70456" lon="3.80801">
        <ele>1287.300049</ele>
        <time>2017-05-25T09:58:16Z</time>
      </trkpt>
      <trkpt lat="45.70449" lon="3.80792">
        <ele>1289.900024</ele>
        <time>2017-05-25T09:58:34Z</time>
      </trkpt>
      <trkpt lat="45.7044" lon="3.80788">
        <ele>1290.800049</ele>
        <time>2017-05-25T09:58:44Z</time>
      </trkpt>
      <trkpt lat="45.70433" lon="3.80778">
        <ele>1291.699951</ele>
        <time>2017-05-25T09:58:55Z</time>
      </trkpt>
      <trkpt lat="45.70426" lon="3.80768">
        <ele>1293.800049</ele>
        <time>2017-05-25T09:59:06Z</time>
      </trkpt>
      <trkpt lat="45.70422" lon="3.80755">
        <ele>1295.599976</ele>
        <time>2017-05-25T09:59:19Z</time>
      </trkpt>
      <trkpt lat="45.70421" lon="3.80741">
        <ele>1297.300049</ele>
        <time>2017-05-25T09:59:27Z</time>
      </trkpt>
      <trkpt lat="45.70418" lon="3.80728">
        <ele>1298.800049</ele>
        <time>2017-05-25T09:59:34Z</time>
      </trkpt>
      <trkpt lat="45.70413" lon="3.80717">
        <ele>1300.199951</ele>
        <time>2017-05-25T09:59:42Z</time>
      </trkpt>
      <trkpt lat="45.70412" lon="3.80703">
        <ele>1302.199951</ele>
        <time>2017-05-25T09:59:49Z</time>
      </trkpt>
      <trkpt lat="45.70407" lon="3.8069">
        <ele>1303.800049</ele>
        <time>2017-05-25T09:59:57Z</time>
      </trkpt>
      <trkpt lat="45.70404" lon="3.80677">
        <ele>1304.800049</ele>
        <time>2017-05-25T10:00:04Z</time>
      </trkpt>
      <trkpt lat="45.70396" lon="3.8067">
        <ele>1305.900024</ele>
        <time>2017-05-25T10:00:12Z</time>
      </trkpt>
      <trkpt lat="45.7039" lon="3.8066">
        <ele>1307.300049</ele>
        <time>2017-05-25T10:00:22Z</time>
      </trkpt>
      <trkpt lat="45.70383" lon="3.8065">
        <ele>1308.099976</ele>
        <time>2017-05-25T10:00:31Z</time>
      </trkpt>
      <trkpt lat="45.70374" lon="3.80642">
        <ele>1308.699951</ele>
        <time>2017-05-25T10:00:39Z</time>
      </trkpt>
      <trkpt lat="45.70367" lon="3.80635">
        <ele>1309</ele>
        <time>2017-05-25T10:01:04Z</time>
      </trkpt>
      <trkpt lat="45.70366" lon="3.80621">
        <ele>1309</ele>
        <time>2017-05-25T10:03:45Z</time>
      </trkpt>
      <trkpt lat="45.70359" lon="3.80612">
        <ele>1309.199951</ele>
        <time>2017-05-25T10:03:50Z</time>
      </trkpt>
      <trkpt lat="45.70353" lon="3.80602">
        <ele>1309.099976</ele>
        <time>2017-05-25T10:03:54Z</time>
      </trkpt>
      <trkpt lat="45.70344" lon="3.80601">
        <ele>1309.699951</ele>
        <time>2017-05-25T10:04:10Z</time>
      </trkpt>
      <trkpt lat="45.70336" lon="3.8059">
        <ele>1309.599976</ele>
        <time>2017-05-25T10:04:15Z</time>
      </trkpt>
      <trkpt lat="45.70327" lon="3.8058">
        <ele>1309.699951</ele>
        <time>2017-05-25T10:04:18Z</time>
      </trkpt>
      <trkpt lat="45.70319" lon="3.80573">
        <ele>1309.800049</ele>
        <time>2017-05-25T10:04:21Z</time>
      </trkpt>
      <trkpt lat="45.7031" lon="3.80562">
        <ele>1310.099976</ele>
        <time>2017-05-25T10:04:25Z</time>
      </trkpt>
      <trkpt lat="45.70303" lon="3.80549">
        <ele>1310.300049</ele>
        <time>2017-05-25T10:04:28Z</time>
      </trkpt>
      <trkpt lat="45.70295" lon="3.80542">
        <ele>1310.300049</ele>
        <time>2017-05-25T10:04:30Z</time>
      </trkpt>
      <trkpt lat="45.70288" lon="3.80534">
        <ele>1310.099976</ele>
        <time>2017-05-25T10:04:32Z</time>
      </trkpt>
      <trkpt lat="45.7028" lon="3.80521">
        <ele>1309.900024</ele>
        <time>2017-05-25T10:04:35Z</time>
      </trkpt>
      <trkpt lat="45.70273" lon="3.80506">
        <ele>1310.400024</ele>
        <time>2017-05-25T10:04:39Z</time>
      </trkpt>
      <trkpt lat="45.70266" lon="3.80496">
        <ele>1311.300049</ele>
        <time>2017-05-25T10:04:44Z</time>
      </trkpt>
      <trkpt lat="45.70258" lon="3.80486">
        <ele>1312.699951</ele>
        <time>2017-05-25T10:04:49Z</time>
      </trkpt>
      <trkpt lat="45.70251" lon="3.80476">
        <ele>1314</ele>
        <time>2017-05-25T10:04:54Z</time>
      </trkpt>
      <trkpt lat="45.70244" lon="3.80465">
        <ele>1314.900024</ele>
        <time>2017-05-25T10:05:00Z</time>
      </trkpt>
      <trkpt lat="45.70243" lon="3.80452">
        <ele>1315.5</ele>
        <time>2017-05-25T10:05:05Z</time>
      </trkpt>
      <trkpt lat="45.70241" lon="3.80438">
        <ele>1316.900024</ele>
        <time>2017-05-25T10:05:11Z</time>
      </trkpt>
      <trkpt lat="45.70235" lon="3.80428">
        <ele>1318.699951</ele>
        <time>2017-05-25T10:05:18Z</time>
      </trkpt>
      <trkpt lat="45.7023" lon="3.80415">
        <ele>1319.699951</ele>
        <time>2017-05-25T10:05:25Z</time>
      </trkpt>
      <trkpt lat="45.70227" lon="3.80402">
        <ele>1321</ele>
        <time>2017-05-25T10:05:31Z</time>
      </trkpt>
      <trkpt lat="45.70221" lon="3.80391">
        <ele>1322.5</ele>
        <time>2017-05-25T10:05:38Z</time>
      </trkpt>
      <trkpt lat="45.70215" lon="3.8038">
        <ele>1323.699951</ele>
        <time>2017-05-25T10:05:45Z</time>
      </trkpt>
      <trkpt lat="45.70207" lon="3.8037">
        <ele>1324.300049</ele>
        <time>2017-05-25T10:05:51Z</time>
      </trkpt>
      <trkpt lat="45.70202" lon="3.80357">
        <ele>1324.599976</ele>
        <time>2017-05-25T10:05:56Z</time>
      </trkpt>
      <trkpt lat="45.70196" lon="3.80346">
        <ele>1324.599976</ele>
        <time>2017-05-25T10:06:00Z</time>
      </trkpt>
      <trkpt lat="45.70194" lon="3.80332">
        <ele>1324.800049</ele>
        <time>2017-05-25T10:06:04Z</time>
      </trkpt>
      <trkpt lat="45.70191" lon="3.80317">
        <ele>1325.599976</ele>
        <time>2017-05-25T10:06:09Z</time>
      </trkpt>
      <trkpt lat="45.7019" lon="3.80303">
        <ele>1326.199951</ele>
        <time>2017-05-25T10:06:13Z</time>
      </trkpt>
      <trkpt lat="45.70188" lon="3.80289">
        <ele>1327.099976</ele>
        <time>2017-05-25T10:06:18Z</time>
      </trkpt>
      <trkpt lat="45.70186" lon="3.80276">
        <ele>1327.699951</ele>
        <time>2017-05-25T10:06:22Z</time>
      </trkpt>
      <trkpt lat="45.70183" lon="3.80264">
        <ele>1328.199951</ele>
        <time>2017-05-25T10:06:26Z</time>
      </trkpt>
      <trkpt lat="45.7018" lon="3.8025">
        <ele>1328.900024</ele>
        <time>2017-05-25T10:06:30Z</time>
      </trkpt>
      <trkpt lat="45.70177" lon="3.80237">
        <ele>1329.400024</ele>
        <time>2017-05-25T10:06:34Z</time>
      </trkpt>
      <trkpt lat="45.70173" lon="3.80223">
        <ele>1329.699951</ele>
        <time>2017-05-25T10:06:39Z</time>
      </trkpt>
      <trkpt lat="45.70168" lon="3.80209">
        <ele>1329.699951</ele>
        <time>2017-05-25T10:06:45Z</time>
      </trkpt>
      <trkpt lat="45.70164" lon="3.80198">
        <ele>1329.5</ele>
        <time>2017-05-25T10:06:54Z</time>
      </trkpt>
      <trkpt lat="45.70161" lon="3.80185">
        <ele>1328.699951</ele>
        <time>2017-05-25T10:07:31Z</time>
      </trkpt>
      <trkpt lat="45.70157" lon="3.80171">
        <ele>1328.800049</ele>
        <time>2017-05-25T10:07:38Z</time>
      </trkpt>
      <trkpt lat="45.70155" lon="3.80155">
        <ele>1328.900024</ele>
        <time>2017-05-25T10:07:43Z</time>
      </trkpt>
      <trkpt lat="45.70152" lon="3.80141">
        <ele>1329</ele>
        <time>2017-05-25T10:07:47Z</time>
      </trkpt>
      <trkpt lat="45.70149" lon="3.80127">
        <ele>1329.199951</ele>
        <time>2017-05-25T10:07:51Z</time>
      </trkpt>
      <trkpt lat="45.70145" lon="3.80115">
        <ele>1329.699951</ele>
        <time>2017-05-25T10:07:55Z</time>
      </trkpt>
      <trkpt lat="45.7014" lon="3.80102">
        <ele>1329.900024</ele>
        <time>2017-05-25T10:07:59Z</time>
      </trkpt>
      <trkpt lat="45.70136" lon="3.8009">
        <ele>1330.199951</ele>
        <time>2017-05-25T10:08:03Z</time>
      </trkpt>
      <trkpt lat="45.70131" lon="3.80079">
        <ele>1330.5</ele>
        <time>2017-05-25T10:08:07Z</time>
      </trkpt>
      <trkpt lat="45.70124" lon="3.80066">
        <ele>1330.900024</ele>
        <time>2017-05-25T10:08:12Z</time>
      </trkpt>
      <trkpt lat="45.70119" lon="3.80053">
        <ele>1331.400024</ele>
        <time>2017-05-25T10:08:17Z</time>
      </trkpt>
      <trkpt lat="45.70114" lon="3.80041">
        <ele>1332.099976</ele>
        <time>2017-05-25T10:08:22Z</time>
      </trkpt>
      <trkpt lat="45.70107" lon="3.8003">
        <ele>1332.199951</ele>
        <time>2017-05-25T10:08:27Z</time>
      </trkpt>
      <trkpt lat="45.70099" lon="3.8002">
        <ele>1332.5</ele>
        <time>2017-05-25T10:08:32Z</time>
      </trkpt>
      <trkpt lat="45.70094" lon="3.80008">
        <ele>1333</ele>
        <time>2017-05-25T10:08:37Z</time>
      </trkpt>
      <trkpt lat="45.70091" lon="3.79995">
        <ele>1333.599976</ele>
        <time>2017-05-25T10:08:42Z</time>
      </trkpt>
      <trkpt lat="45.70088" lon="3.79981">
        <ele>1334.400024</ele>
        <time>2017-05-25T10:08:48Z</time>
      </trkpt>
      <trkpt lat="45.70084" lon="3.79968">
        <ele>1335.400024</ele>
        <time>2017-05-25T10:08:55Z</time>
      </trkpt>
      <trkpt lat="45.70079" lon="3.79954">
        <ele>1335.800049</ele>
        <time>2017-05-25T10:09:01Z</time>
      </trkpt>
      <trkpt lat="45.70075" lon="3.79942">
        <ele>1336.400024</ele>
        <time>2017-05-25T10:09:07Z</time>
      </trkpt>
      <trkpt lat="45.70072" lon="3.7993">
        <ele>1337.199951</ele>
        <time>2017-05-25T10:09:13Z</time>
      </trkpt>
      <trkpt lat="45.70068" lon="3.79917">
        <ele>1337.400024</ele>
        <time>2017-05-25T10:09:19Z</time>
      </trkpt>
      <trkpt lat="45.70065" lon="3.79905">
        <ele>1338.199951</ele>
        <time>2017-05-25T10:09:25Z</time>
      </trkpt>
      <trkpt lat="45.70063" lon="3.79891">
        <ele>1338.699951</ele>
        <time>2017-05-25T10:09:32Z</time>
      </trkpt>
      <trkpt lat="45.70058" lon="3.79878">
        <ele>1339.199951</ele>
        <time>2017-05-25T10:09:38Z</time>
      </trkpt>
      <trkpt lat="45.70054" lon="3.79866">
        <ele>1339.699951</ele>
        <time>2017-05-25T10:09:44Z</time>
      </trkpt>
      <trkpt lat="45.70048" lon="3.79855">
        <ele>1340.300049</ele>
        <time>2017-05-25T10:09:51Z</time>
      </trkpt>
      <trkpt lat="45.7004" lon="3.79845">
        <ele>1340.699951</ele>
        <time>2017-05-25T10:09:57Z</time>
      </trkpt>
      <trkpt lat="45.70034" lon="3.79833">
        <ele>1341.199951</ele>
        <time>2017-05-25T10:10:03Z</time>
      </trkpt>
      <trkpt lat="45.70026" lon="3.79824">
        <ele>1341.699951</ele>
        <time>2017-05-25T10:10:09Z</time>
      </trkpt>
      <trkpt lat="45.7002" lon="3.79815">
        <ele>1342.199951</ele>
        <time>2017-05-25T10:10:14Z</time>
      </trkpt>
      <trkpt lat="45.70013" lon="3.79806">
        <ele>1342.599976</ele>
        <time>2017-05-25T10:10:19Z</time>
      </trkpt>
      <trkpt lat="45.70006" lon="3.79796">
        <ele>1343.099976</ele>
        <time>2017-05-25T10:10:24Z</time>
      </trkpt>
      <trkpt lat="45.69999" lon="3.79785">
        <ele>1343.800049</ele>
        <time>2017-05-25T10:10:29Z</time>
      </trkpt>
      <trkpt lat="45.69992" lon="3.79775">
        <ele>1344.400024</ele>
        <time>2017-05-25T10:10:34Z</time>
      </trkpt>
      <trkpt lat="45.69984" lon="3.79764">
        <ele>1345</ele>
        <time>2017-05-25T10:10:39Z</time>
      </trkpt>
      <trkpt lat="45.69979" lon="3.79754">
        <ele>1345.5</ele>
        <time>2017-05-25T10:10:43Z</time>
      </trkpt>
      <trkpt lat="45.69972" lon="3.79742">
        <ele>1345.800049</ele>
        <time>2017-05-25T10:10:48Z</time>
      </trkpt>
      <trkpt lat="45.69965" lon="3.79731">
        <ele>1346.300049</ele>
        <time>2017-05-25T10:10:53Z</time>
      </trkpt>
      <trkpt lat="45.69957" lon="3.7972">
        <ele>1346.699951</ele>
        <time>2017-05-25T10:10:58Z</time>
      </trkpt>
      <trkpt lat="45.6995" lon="3.79709">
        <ele>1347.099976</ele>
        <time>2017-05-25T10:11:03Z</time>
      </trkpt>
      <trkpt lat="45.69942" lon="3.79699">
        <ele>1347.199951</ele>
        <time>2017-05-25T10:11:08Z</time>
      </trkpt>
      <trkpt lat="45.69935" lon="3.79688">
        <ele>1347.099976</ele>
        <time>2017-05-25T10:11:13Z</time>
      </trkpt>
      <trkpt lat="45.69928" lon="3.79677">
        <ele>1347.199951</ele>
        <time>2017-05-25T10:11:18Z</time>
      </trkpt>
      <trkpt lat="45.6992" lon="3.79669">
        <ele>1347.599976</ele>
        <time>2017-05-25T10:11:23Z</time>
      </trkpt>
      <trkpt lat="45.69911" lon="3.79663">
        <ele>1348.099976</ele>
        <time>2017-05-25T10:11:28Z</time>
      </trkpt>
      <trkpt lat="45.69902" lon="3.79657">
        <ele>1348.300049</ele>
        <time>2017-05-25T10:11:33Z</time>
      </trkpt>
      <trkpt lat="45.69894" lon="3.7965">
        <ele>1348.300049</ele>
        <time>2017-05-25T10:11:38Z</time>
      </trkpt>
      <trkpt lat="45.69885" lon="3.79643">
        <ele>1348.300049</ele>
        <time>2017-05-25T10:11:43Z</time>
      </trkpt>
      <trkpt lat="45.69876" lon="3.79636">
        <ele>1348.800049</ele>
        <time>2017-05-25T10:11:48Z</time>
      </trkpt>
      <trkpt lat="45.69868" lon="3.7963">
        <ele>1349.199951</ele>
        <time>2017-05-25T10:11:53Z</time>
      </trkpt>
      <trkpt lat="45.6986" lon="3.79622">
        <ele>1349.5</ele>
        <time>2017-05-25T10:11:58Z</time>
      </trkpt>
      <trkpt lat="45.69851" lon="3.79616">
        <ele>1350.099976</ele>
        <time>2017-05-25T10:12:03Z</time>
      </trkpt>
      <trkpt lat="45.69842" lon="3.79609">
        <ele>1350.599976</ele>
        <time>2017-05-25T10:12:08Z</time>
      </trkpt>
      <trkpt lat="45.69834" lon="3.79602">
        <ele>1351.199951</ele>
        <time>2017-05-25T10:12:13Z</time>
      </trkpt>
      <trkpt lat="45.69824" lon="3.79596">
        <ele>1352.199951</ele>
        <time>2017-05-25T10:12:19Z</time>
      </trkpt>
      <trkpt lat="45.69815" lon="3.7959">
        <ele>1353.599976</ele>
        <time>2017-05-25T10:12:25Z</time>
      </trkpt>
      <trkpt lat="45.69806" lon="3.79583">
        <ele>1354.599976</ele>
        <time>2017-05-25T10:12:31Z</time>
      </trkpt>
      <trkpt lat="45.69798" lon="3.79577">
        <ele>1355.699951</ele>
        <time>2017-05-25T10:12:37Z</time>
      </trkpt>
      <trkpt lat="45.6979" lon="3.79569">
        <ele>1357.300049</ele>
        <time>2017-05-25T10:12:43Z</time>
      </trkpt>
      <trkpt lat="45.69781" lon="3.79561">
        <ele>1358.5</ele>
        <time>2017-05-25T10:12:49Z</time>
      </trkpt>
      <trkpt lat="45.69773" lon="3.79553">
        <ele>1359.300049</ele>
        <time>2017-05-25T10:12:55Z</time>
      </trkpt>
      <trkpt lat="45.69764" lon="3.79546">
        <ele>1360</ele>
        <time>2017-05-25T10:13:01Z</time>
      </trkpt>
      <trkpt lat="45.69756" lon="3.79538">
        <ele>1361.300049</ele>
        <time>2017-05-25T10:13:07Z</time>
      </trkpt>
      <trkpt lat="45.69748" lon="3.79531">
        <ele>1362.300049</ele>
        <time>2017-05-25T10:13:12Z</time>
      </trkpt>
      <trkpt lat="45.6974" lon="3.79525">
        <ele>1363</ele>
        <time>2017-05-25T10:13:17Z</time>
      </trkpt>
      <trkpt lat="45.69731" lon="3.79518">
        <ele>1363.699951</ele>
        <time>2017-05-25T10:13:23Z</time>
      </trkpt>
      <trkpt lat="45.69722" lon="3.79513">
        <ele>1364.199951</ele>
        <time>2017-05-25T10:13:28Z</time>
      </trkpt>
      <trkpt lat="45.69712" lon="3.7951">
        <ele>1364.800049</ele>
        <time>2017-05-25T10:13:33Z</time>
      </trkpt>
      <trkpt lat="45.69702" lon="3.79506">
        <ele>1365.5</ele>
        <time>2017-05-25T10:13:38Z</time>
      </trkpt>
      <trkpt lat="45.69692" lon="3.79503">
        <ele>1365.800049</ele>
        <time>2017-05-25T10:13:44Z</time>
      </trkpt>
      <trkpt lat="45.69682" lon="3.795">
        <ele>1365.900024</ele>
        <time>2017-05-25T10:13:49Z</time>
      </trkpt>
      <trkpt lat="45.69673" lon="3.79495">
        <ele>1365.800049</ele>
        <time>2017-05-25T10:13:54Z</time>
      </trkpt>
      <trkpt lat="45.69663" lon="3.7949">
        <ele>1365.300049</ele>
        <time>2017-05-25T10:13:59Z</time>
      </trkpt>
      <trkpt lat="45.69654" lon="3.79482">
        <ele>1364.800049</ele>
        <time>2017-05-25T10:14:05Z</time>
      </trkpt>
      <trkpt lat="45.69647" lon="3.79474">
        <ele>1363.699951</ele>
        <time>2017-05-25T10:15:21Z</time>
      </trkpt>
      <trkpt lat="45.69642" lon="3.79463">
        <ele>1363.900024</ele>
        <time>2017-05-25T10:16:52Z</time>
      </trkpt>
      <trkpt lat="45.69632" lon="3.79453">
        <ele>1363.5</ele>
        <time>2017-05-25T10:16:56Z</time>
      </trkpt>
      <trkpt lat="45.69623" lon="3.79444">
        <ele>1363.099976</ele>
        <time>2017-05-25T10:17:00Z</time>
      </trkpt>
      <trkpt lat="45.69613" lon="3.79438">
        <ele>1362.599976</ele>
        <time>2017-05-25T10:17:04Z</time>
      </trkpt>
      <trkpt lat="45.69603" lon="3.79431">
        <ele>1361.400024</ele>
        <time>2017-05-25T10:17:08Z</time>
      </trkpt>
      <trkpt lat="45.69594" lon="3.79423">
        <ele>1360.300049</ele>
        <time>2017-05-25T10:17:12Z</time>
      </trkpt>
      <trkpt lat="45.69586" lon="3.79415">
        <ele>1359.5</ele>
        <time>2017-05-25T10:17:15Z</time>
      </trkpt>
      <trkpt lat="45.6958" lon="3.79405">
        <ele>1358.699951</ele>
        <time>2017-05-25T10:17:18Z</time>
      </trkpt>
      <trkpt lat="45.69574" lon="3.79395">
        <ele>1358.199951</ele>
        <time>2017-05-25T10:17:21Z</time>
      </trkpt>
      <trkpt lat="45.69566" lon="3.79384">
        <ele>1357.699951</ele>
        <time>2017-05-25T10:17:24Z</time>
      </trkpt>
      <trkpt lat="45.69556" lon="3.79373">
        <ele>1357</ele>
        <time>2017-05-25T10:17:27Z</time>
      </trkpt>
      <trkpt lat="45.69545" lon="3.79364">
        <ele>1356.199951</ele>
        <time>2017-05-25T10:17:30Z</time>
      </trkpt>
      <trkpt lat="45.69536" lon="3.79356">
        <ele>1355.099976</ele>
        <time>2017-05-25T10:17:33Z</time>
      </trkpt>
      <trkpt lat="45.69526" lon="3.79349">
        <ele>1354.5</ele>
        <time>2017-05-25T10:17:36Z</time>
      </trkpt>
      <trkpt lat="45.69517" lon="3.79346">
        <ele>1354</ele>
        <time>2017-05-25T10:17:38Z</time>
      </trkpt>
      <trkpt lat="45.69506" lon="3.79343">
        <ele>1353.300049</ele>
        <time>2017-05-25T10:17:41Z</time>
      </trkpt>
      <trkpt lat="45.69496" lon="3.79341">
        <ele>1352.300049</ele>
        <time>2017-05-25T10:17:44Z</time>
      </trkpt>
      <trkpt lat="45.69485" lon="3.79339">
        <ele>1351.5</ele>
        <time>2017-05-25T10:17:47Z</time>
      </trkpt>
      <trkpt lat="45.69473" lon="3.79336">
        <ele>1350.699951</ele>
        <time>2017-05-25T10:17:50Z</time>
      </trkpt>
      <trkpt lat="45.69461" lon="3.79332">
        <ele>1349.800049</ele>
        <time>2017-05-25T10:17:53Z</time>
      </trkpt>
      <trkpt lat="45.6945" lon="3.79328">
        <ele>1349.300049</ele>
        <time>2017-05-25T10:17:56Z</time>
      </trkpt>
      <trkpt lat="45.69437" lon="3.79327">
        <ele>1348.800049</ele>
        <time>2017-05-25T10:18:00Z</time>
      </trkpt>
      <trkpt lat="45.69425" lon="3.79325">
        <ele>1348.300049</ele>
        <time>2017-05-25T10:18:03Z</time>
      </trkpt>
      <trkpt lat="45.69415" lon="3.79321">
        <ele>1347.300049</ele>
        <time>2017-05-25T10:18:06Z</time>
      </trkpt>
      <trkpt lat="45.69405" lon="3.79321">
        <ele>1346.300049</ele>
        <time>2017-05-25T10:18:10Z</time>
      </trkpt>
      <trkpt lat="45.69395" lon="3.79324">
        <ele>1345.099976</ele>
        <time>2017-05-25T10:18:16Z</time>
      </trkpt>
      <trkpt lat="45.69384" lon="3.79323">
        <ele>1344.400024</ele>
        <time>2017-05-25T10:18:20Z</time>
      </trkpt>
      <trkpt lat="45.69374" lon="3.79325">
        <ele>1344</ele>
        <time>2017-05-25T10:18:23Z</time>
      </trkpt>
      <trkpt lat="45.69362" lon="3.79327">
        <ele>1343.300049</ele>
        <time>2017-05-25T10:18:26Z</time>
      </trkpt>
      <trkpt lat="45.6935" lon="3.79331">
        <ele>1342.199951</ele>
        <time>2017-05-25T10:18:29Z</time>
      </trkpt>
      <trkpt lat="45.69338" lon="3.79336">
        <ele>1341.699951</ele>
        <time>2017-05-25T10:18:32Z</time>
      </trkpt>
      <trkpt lat="45.69325" lon="3.79339">
        <ele>1341</ele>
        <time>2017-05-25T10:18:35Z</time>
      </trkpt>
      <trkpt lat="45.69312" lon="3.79343">
        <ele>1340.199951</ele>
        <time>2017-05-25T10:18:38Z</time>
      </trkpt>
      <trkpt lat="45.69299" lon="3.79348">
        <ele>1339.599976</ele>
        <time>2017-05-25T10:18:41Z</time>
      </trkpt>
      <trkpt lat="45.69287" lon="3.79352">
        <ele>1339.199951</ele>
        <time>2017-05-25T10:18:44Z</time>
      </trkpt>
      <trkpt lat="45.69275" lon="3.79356">
        <ele>1338.699951</ele>
        <time>2017-05-25T10:18:47Z</time>
      </trkpt>
      <trkpt lat="45.69263" lon="3.79359">
        <ele>1338.199951</ele>
        <time>2017-05-25T10:18:50Z</time>
      </trkpt>
      <trkpt lat="45.69251" lon="3.79359">
        <ele>1337.300049</ele>
        <time>2017-05-25T10:18:53Z</time>
      </trkpt>
      <trkpt lat="45.69239" lon="3.79359">
        <ele>1337</ele>
        <time>2017-05-25T10:18:56Z</time>
      </trkpt>
      <trkpt lat="45.69227" lon="3.79358">
        <ele>1336.300049</ele>
        <time>2017-05-25T10:18:59Z</time>
      </trkpt>
      <trkpt lat="45.69214" lon="3.79361">
        <ele>1335.699951</ele>
        <time>2017-05-25T10:19:02Z</time>
      </trkpt>
      <trkpt lat="45.69202" lon="3.79365">
        <ele>1335.300049</ele>
        <time>2017-05-25T10:19:05Z</time>
      </trkpt>
      <trkpt lat="45.6919" lon="3.79366">
        <ele>1334.800049</ele>
        <time>2017-05-25T10:19:08Z</time>
      </trkpt>
      <trkpt lat="45.69181" lon="3.79361">
        <ele>1333.699951</ele>
        <time>2017-05-25T10:19:11Z</time>
      </trkpt>
      <trkpt lat="45.69172" lon="3.7935">
        <ele>1332.400024</ele>
        <time>2017-05-25T10:19:15Z</time>
      </trkpt>
      <trkpt lat="45.6917" lon="3.79336">
        <ele>1331.300049</ele>
        <time>2017-05-25T10:19:18Z</time>
      </trkpt>
      <trkpt lat="45.69165" lon="3.79323">
        <ele>1330.199951</ele>
        <time>2017-05-25T10:19:21Z</time>
      </trkpt>
      <trkpt lat="45.69158" lon="3.79311">
        <ele>1329.400024</ele>
        <time>2017-05-25T10:19:26Z</time>
      </trkpt>
      <trkpt lat="45.69155" lon="3.79297">
        <ele>1329.5</ele>
        <time>2017-05-25T10:19:31Z</time>
      </trkpt>
      <trkpt lat="45.69154" lon="3.79282">
        <ele>1329.900024</ele>
        <time>2017-05-25T10:19:36Z</time>
      </trkpt>
      <trkpt lat="45.69155" lon="3.79267">
        <ele>1330.300049</ele>
        <time>2017-05-25T10:19:40Z</time>
      </trkpt>
      <trkpt lat="45.69156" lon="3.79251">
        <ele>1330.699951</ele>
        <time>2017-05-25T10:19:44Z</time>
      </trkpt>
      <trkpt lat="45.69158" lon="3.79235">
        <ele>1331.5</ele>
        <time>2017-05-25T10:19:48Z</time>
      </trkpt>
      <trkpt lat="45.69161" lon="3.7922">
        <ele>1332.400024</ele>
        <time>2017-05-25T10:19:53Z</time>
      </trkpt>
      <trkpt lat="45.69164" lon="3.79207">
        <ele>1333.199951</ele>
        <time>2017-05-25T10:19:58Z</time>
      </trkpt>
      <trkpt lat="45.69166" lon="3.79193">
        <ele>1333.900024</ele>
        <time>2017-05-25T10:20:04Z</time>
      </trkpt>
      <trkpt lat="45.69158" lon="3.79187">
        <ele>1334.099976</ele>
        <time>2017-05-25T10:20:10Z</time>
      </trkpt>
      <trkpt lat="45.69149" lon="3.7918">
        <ele>1332.699951</ele>
        <time>2017-05-25T10:20:16Z</time>
      </trkpt>
      <trkpt lat="45.6914" lon="3.79172">
        <ele>1331.699951</ele>
        <time>2017-05-25T10:20:20Z</time>
      </trkpt>
      <trkpt lat="45.69132" lon="3.79165">
        <ele>1331</ele>
        <time>2017-05-25T10:20:23Z</time>
      </trkpt>
      <trkpt lat="45.6912" lon="3.7916">
        <ele>1330.400024</ele>
        <time>2017-05-25T10:20:26Z</time>
      </trkpt>
      <trkpt lat="45.69111" lon="3.79159">
        <ele>1329.699951</ele>
        <time>2017-05-25T10:20:28Z</time>
      </trkpt>
      <trkpt lat="45.69102" lon="3.79152">
        <ele>1328.099976</ele>
        <time>2017-05-25T10:20:32Z</time>
      </trkpt>
      <trkpt lat="45.69094" lon="3.79144">
        <ele>1326.699951</ele>
        <time>2017-05-25T10:20:36Z</time>
      </trkpt>
      <trkpt lat="45.69087" lon="3.79135">
        <ele>1325.699951</ele>
        <time>2017-05-25T10:20:40Z</time>
      </trkpt>
      <trkpt lat="45.6908" lon="3.79125">
        <ele>1324.900024</ele>
        <time>2017-05-25T10:20:46Z</time>
      </trkpt>
      <trkpt lat="45.69071" lon="3.79126">
        <ele>1325.699951</ele>
        <time>2017-05-25T10:20:53Z</time>
      </trkpt>
      <trkpt lat="45.69061" lon="3.79131">
        <ele>1326.400024</ele>
        <time>2017-05-25T10:20:59Z</time>
      </trkpt>
      <trkpt lat="45.69052" lon="3.79134">
        <ele>1327.199951</ele>
        <time>2017-05-25T10:21:05Z</time>
      </trkpt>
      <trkpt lat="45.69043" lon="3.79139">
        <ele>1328.599976</ele>
        <time>2017-05-25T10:21:12Z</time>
      </trkpt>
      <trkpt lat="45.69034" lon="3.79145">
        <ele>1329.800049</ele>
        <time>2017-05-25T10:21:19Z</time>
      </trkpt>
      <trkpt lat="45.69025" lon="3.79151">
        <ele>1331.599976</ele>
        <time>2017-05-25T10:21:26Z</time>
      </trkpt>
      <trkpt lat="45.69017" lon="3.79162">
        <ele>1333.400024</ele>
        <time>2017-05-25T10:21:33Z</time>
      </trkpt>
      <trkpt lat="45.69011" lon="3.79173">
        <ele>1335.199951</ele>
        <time>2017-05-25T10:21:42Z</time>
      </trkpt>
      <trkpt lat="45.69005" lon="3.79183">
        <ele>1336.300049</ele>
        <time>2017-05-25T10:21:49Z</time>
      </trkpt>
      <trkpt lat="45.69002" lon="3.79197">
        <ele>1337.5</ele>
        <time>2017-05-25T10:21:57Z</time>
      </trkpt>
      <trkpt lat="45.68998" lon="3.7921">
        <ele>1338.300049</ele>
        <time>2017-05-25T10:22:05Z</time>
      </trkpt>
      <trkpt lat="45.68993" lon="3.79222">
        <ele>1338.599976</ele>
        <time>2017-05-25T10:22:11Z</time>
      </trkpt>
      <trkpt lat="45.68988" lon="3.79235">
        <ele>1339.199951</ele>
        <time>2017-05-25T10:22:16Z</time>
      </trkpt>
      <trkpt lat="45.68986" lon="3.79248">
        <ele>1339.800049</ele>
        <time>2017-05-25T10:22:23Z</time>
      </trkpt>
      <trkpt lat="45.68981" lon="3.79261">
        <ele>1340.400024</ele>
        <time>2017-05-25T10:22:29Z</time>
      </trkpt>
      <trkpt lat="45.68973" lon="3.7927">
        <ele>1341</ele>
        <time>2017-05-25T10:22:35Z</time>
      </trkpt>
      <trkpt lat="45.68964" lon="3.79272">
        <ele>1342</ele>
        <time>2017-05-25T10:22:40Z</time>
      </trkpt>
      <trkpt lat="45.68955" lon="3.79274">
        <ele>1343.400024</ele>
        <time>2017-05-25T10:22:46Z</time>
      </trkpt>
      <trkpt lat="45.68945" lon="3.79276">
        <ele>1344.900024</ele>
        <time>2017-05-25T10:22:53Z</time>
      </trkpt>
      <trkpt lat="45.68935" lon="3.79273">
        <ele>1347</ele>
        <time>2017-05-25T10:23:00Z</time>
      </trkpt>
      <trkpt lat="45.68927" lon="3.79265">
        <ele>1348.800049</ele>
        <time>2017-05-25T10:23:08Z</time>
      </trkpt>
      <trkpt lat="45.68921" lon="3.79255">
        <ele>1349.900024</ele>
        <time>2017-05-25T10:23:15Z</time>
      </trkpt>
      <trkpt lat="45.68917" lon="3.79243">
        <ele>1351.699951</ele>
        <time>2017-05-25T10:23:23Z</time>
      </trkpt>
      <trkpt lat="45.68911" lon="3.79233">
        <ele>1353.400024</ele>
        <time>2017-05-25T10:23:32Z</time>
      </trkpt>
      <trkpt lat="45.68904" lon="3.79223">
        <ele>1354.900024</ele>
        <time>2017-05-25T10:23:41Z</time>
      </trkpt>
      <trkpt lat="45.68895" lon="3.79219">
        <ele>1356.099976</ele>
        <time>2017-05-25T10:23:50Z</time>
      </trkpt>
      <trkpt lat="45.68886" lon="3.79218">
        <ele>1357.800049</ele>
        <time>2017-05-25T10:23:59Z</time>
      </trkpt>
      <trkpt lat="45.68876" lon="3.79218">
        <ele>1358.5</ele>
        <time>2017-05-25T10:24:07Z</time>
      </trkpt>
      <trkpt lat="45.68866" lon="3.79219">
        <ele>1359.699951</ele>
        <time>2017-05-25T10:24:15Z</time>
      </trkpt>
      <trkpt lat="45.68857" lon="3.79215">
        <ele>1362</ele>
        <time>2017-05-25T10:24:24Z</time>
      </trkpt>
      <trkpt lat="45.68847" lon="3.79212">
        <ele>1364</ele>
        <time>2017-05-25T10:24:33Z</time>
      </trkpt>
      <trkpt lat="45.68837" lon="3.79212">
        <ele>1366.099976</ele>
        <time>2017-05-25T10:25:00Z</time>
      </trkpt>
      <trkpt lat="45.68827" lon="3.7921">
        <ele>1367.5</ele>
        <time>2017-05-25T10:25:07Z</time>
      </trkpt>
      <trkpt lat="45.68818" lon="3.79212">
        <ele>1370</ele>
        <time>2017-05-25T10:25:14Z</time>
      </trkpt>
      <trkpt lat="45.68809" lon="3.79215">
        <ele>1371.099976</ele>
        <time>2017-05-25T10:25:21Z</time>
      </trkpt>
      <trkpt lat="45.68799" lon="3.79218">
        <ele>1372.699951</ele>
        <time>2017-05-25T10:25:29Z</time>
      </trkpt>
      <trkpt lat="45.68788" lon="3.79221">
        <ele>1374.300049</ele>
        <time>2017-05-25T10:25:38Z</time>
      </trkpt>
      <trkpt lat="45.68779" lon="3.79226">
        <ele>1375.5</ele>
        <time>2017-05-25T10:25:48Z</time>
      </trkpt>
      <trkpt lat="45.68769" lon="3.79225">
        <ele>1376.199951</ele>
        <time>2017-05-25T10:25:57Z</time>
      </trkpt>
      <trkpt lat="45.6876" lon="3.79225">
        <ele>1377.400024</ele>
        <time>2017-05-25T10:26:05Z</time>
      </trkpt>
      <trkpt lat="45.68749" lon="3.79228">
        <ele>1378.599976</ele>
        <time>2017-05-25T10:26:11Z</time>
      </trkpt>
      <trkpt lat="45.6874" lon="3.79232">
        <ele>1380.099976</ele>
        <time>2017-05-25T10:26:19Z</time>
      </trkpt>
      <trkpt lat="45.68732" lon="3.79238">
        <ele>1380.099976</ele>
        <time>2017-05-25T10:26:58Z</time>
      </trkpt>
      <trkpt lat="45.68726" lon="3.79248">
        <ele>1379.599976</ele>
        <time>2017-05-25T10:33:21Z</time>
      </trkpt>
      <trkpt lat="45.68716" lon="3.79256">
        <ele>1378.800049</ele>
        <time>2017-05-25T10:33:25Z</time>
      </trkpt>
      <trkpt lat="45.6871" lon="3.79267">
        <ele>1377.199951</ele>
        <time>2017-05-25T10:33:32Z</time>
      </trkpt>
      <trkpt lat="45.68706" lon="3.79279">
        <ele>1376.800049</ele>
        <time>2017-05-25T10:33:38Z</time>
      </trkpt>
      <trkpt lat="45.68704" lon="3.79292">
        <ele>1376.699951</ele>
        <time>2017-05-25T10:33:50Z</time>
      </trkpt>
      <trkpt lat="45.6871" lon="3.79301">
        <ele>1377.199951</ele>
        <time>2017-05-25T10:34:02Z</time>
      </trkpt>
      <trkpt lat="45.68713" lon="3.79313">
        <ele>1377.099976</ele>
        <time>2017-05-25T10:34:16Z</time>
      </trkpt>
      <trkpt lat="45.68714" lon="3.79327">
        <ele>1376.699951</ele>
        <time>2017-05-25T10:35:01Z</time>
      </trkpt>
      <trkpt lat="45.68719" lon="3.79339">
        <ele>1376.300049</ele>
        <time>2017-05-25T10:35:06Z</time>
      </trkpt>
      <trkpt lat="45.68722" lon="3.79352">
        <ele>1375.800049</ele>
        <time>2017-05-25T10:35:13Z</time>
      </trkpt>
      <trkpt lat="45.68724" lon="3.79366">
        <ele>1375.699951</ele>
        <time>2017-05-25T10:35:19Z</time>
      </trkpt>
      <trkpt lat="45.68728" lon="3.79379">
        <ele>1375.300049</ele>
        <time>2017-05-25T10:35:23Z</time>
      </trkpt>
      <trkpt lat="45.68726" lon="3.79393">
        <ele>1375</ele>
        <time>2017-05-25T10:35:27Z</time>
      </trkpt>
      <trkpt lat="45.68725" lon="3.79406">
        <ele>1374.599976</ele>
        <time>2017-05-25T10:35:32Z</time>
      </trkpt>
      <trkpt lat="45.68727" lon="3.79421">
        <ele>1374.5</ele>
        <time>2017-05-25T10:35:37Z</time>
      </trkpt>
      <trkpt lat="45.68731" lon="3.79436">
        <ele>1374.099976</ele>
        <time>2017-05-25T10:35:42Z</time>
      </trkpt>
      <trkpt lat="45.68732" lon="3.79449">
        <ele>1373.199951</ele>
        <time>2017-05-25T10:35:47Z</time>
      </trkpt>
      <trkpt lat="45.68734" lon="3.79465">
        <ele>1372.400024</ele>
        <time>2017-05-25T10:35:52Z</time>
      </trkpt>
      <trkpt lat="45.68738" lon="3.79477">
        <ele>1372</ele>
        <time>2017-05-25T10:35:55Z</time>
      </trkpt>
      <trkpt lat="45.68742" lon="3.7949">
        <ele>1371.400024</ele>
        <time>2017-05-25T10:35:58Z</time>
      </trkpt>
      <trkpt lat="45.68742" lon="3.79503">
        <ele>1370.900024</ele>
        <time>2017-05-25T10:36:02Z</time>
      </trkpt>
      <trkpt lat="45.68741" lon="3.79517">
        <ele>1370.599976</ele>
        <time>2017-05-25T10:36:06Z</time>
      </trkpt>
      <trkpt lat="45.68742" lon="3.79532">
        <ele>1369.900024</ele>
        <time>2017-05-25T10:36:10Z</time>
      </trkpt>
      <trkpt lat="45.68745" lon="3.79546">
        <ele>1369.5</ele>
        <time>2017-05-25T10:36:13Z</time>
      </trkpt>
      <trkpt lat="45.68747" lon="3.79558">
        <ele>1369.099976</ele>
        <time>2017-05-25T10:36:16Z</time>
      </trkpt>
      <trkpt lat="45.68749" lon="3.79574">
        <ele>1368.5</ele>
        <time>2017-05-25T10:36:19Z</time>
      </trkpt>
      <trkpt lat="45.68751" lon="3.79591">
        <ele>1368.099976</ele>
        <time>2017-05-25T10:36:22Z</time>
      </trkpt>
      <trkpt lat="45.68752" lon="3.79607">
        <ele>1366.900024</ele>
        <time>2017-05-25T10:36:25Z</time>
      </trkpt>
      <trkpt lat="45.68754" lon="3.79621">
        <ele>1366</ele>
        <time>2017-05-25T10:36:27Z</time>
      </trkpt>
      <trkpt lat="45.68753" lon="3.79634">
        <ele>1364.900024</ele>
        <time>2017-05-25T10:36:29Z</time>
      </trkpt>
      <trkpt lat="45.68753" lon="3.79651">
        <ele>1364</ele>
        <time>2017-05-25T10:36:31Z</time>
      </trkpt>
      <trkpt lat="45.68753" lon="3.79669">
        <ele>1363.099976</ele>
        <time>2017-05-25T10:36:34Z</time>
      </trkpt>
      <trkpt lat="45.68753" lon="3.79683">
        <ele>1362.199951</ele>
        <time>2017-05-25T10:36:37Z</time>
      </trkpt>
      <trkpt lat="45.68752" lon="3.79699">
        <ele>1361.599976</ele>
        <time>2017-05-25T10:36:41Z</time>
      </trkpt>
      <trkpt lat="45.68751" lon="3.79712">
        <ele>1361</ele>
        <time>2017-05-25T10:36:44Z</time>
      </trkpt>
      <trkpt lat="45.68749" lon="3.79726">
        <ele>1359.800049</ele>
        <time>2017-05-25T10:36:55Z</time>
      </trkpt>
      <trkpt lat="45.6875" lon="3.7974">
        <ele>1360.099976</ele>
        <time>2017-05-25T10:37:08Z</time>
      </trkpt>
      <trkpt lat="45.68753" lon="3.79753">
        <ele>1360.099976</ele>
        <time>2017-05-25T10:37:19Z</time>
      </trkpt>
      <trkpt lat="45.68751" lon="3.79767">
        <ele>1360</ele>
        <time>2017-05-25T10:37:28Z</time>
      </trkpt>
      <trkpt lat="45.68749" lon="3.7978">
        <ele>1360.099976</ele>
        <time>2017-05-25T10:37:41Z</time>
      </trkpt>
      <trkpt lat="45.68744" lon="3.79794">
        <ele>1360.300049</ele>
        <time>2017-05-25T10:37:49Z</time>
      </trkpt>
      <trkpt lat="45.6874" lon="3.79805">
        <ele>1360.800049</ele>
        <time>2017-05-25T10:37:54Z</time>
      </trkpt>
      <trkpt lat="45.68737" lon="3.79818">
        <ele>1361.5</ele>
        <time>2017-05-25T10:37:59Z</time>
      </trkpt>
      <trkpt lat="45.68734" lon="3.79832">
        <ele>1361.900024</ele>
        <time>2017-05-25T10:38:05Z</time>
      </trkpt>
      <trkpt lat="45.68734" lon="3.79845">
        <ele>1362.199951</ele>
        <time>2017-05-25T10:38:10Z</time>
      </trkpt>
      <trkpt lat="45.68732" lon="3.7986">
        <ele>1362.900024</ele>
        <time>2017-05-25T10:38:16Z</time>
      </trkpt>
      <trkpt lat="45.68734" lon="3.79873">
        <ele>1363.800049</ele>
        <time>2017-05-25T10:38:23Z</time>
      </trkpt>
      <trkpt lat="45.68738" lon="3.79886">
        <ele>1364</ele>
        <time>2017-05-25T10:38:29Z</time>
      </trkpt>
      <trkpt lat="45.6874" lon="3.799">
        <ele>1364</ele>
        <time>2017-05-25T10:38:51Z</time>
      </trkpt>
      <trkpt lat="45.68743" lon="3.79914">
        <ele>1364.099976</ele>
        <time>2017-05-25T10:38:59Z</time>
      </trkpt>
      <trkpt lat="45.68743" lon="3.79927">
        <ele>1364.099976</ele>
        <time>2017-05-25T10:39:07Z</time>
      </trkpt>
      <trkpt lat="45.68742" lon="3.79941">
        <ele>1364</ele>
        <time>2017-05-25T10:39:16Z</time>
      </trkpt>
      <trkpt lat="45.6874" lon="3.79954">
        <ele>1364.599976</ele>
        <time>2017-05-25T10:39:24Z</time>
      </trkpt>
      <trkpt lat="45.68743" lon="3.79966">
        <ele>1365.199951</ele>
        <time>2017-05-25T10:39:35Z</time>
      </trkpt>
      <trkpt lat="45.68749" lon="3.79977">
        <ele>1365.300049</ele>
        <time>2017-05-25T10:39:51Z</time>
      </trkpt>
      <trkpt lat="45.68748" lon="3.79992">
        <ele>1365.900024</ele>
        <time>2017-05-25T10:40:08Z</time>
      </trkpt>
      <trkpt lat="45.68743" lon="3.80003">
        <ele>1366.699951</ele>
        <time>2017-05-25T10:40:17Z</time>
      </trkpt>
      <trkpt lat="45.68744" lon="3.80017">
        <ele>1367.5</ele>
        <time>2017-05-25T10:40:26Z</time>
      </trkpt>
      <trkpt lat="45.68746" lon="3.8003">
        <ele>1368</ele>
        <time>2017-05-25T10:40:33Z</time>
      </trkpt>
      <trkpt lat="45.68749" lon="3.80043">
        <ele>1367.599976</ele>
        <time>2017-05-25T10:40:42Z</time>
      </trkpt>
      <trkpt lat="45.68755" lon="3.80052">
        <ele>1367.699951</ele>
        <time>2017-05-25T10:40:49Z</time>
      </trkpt>
      <trkpt lat="45.68761" lon="3.80064">
        <ele>1367.5</ele>
        <time>2017-05-25T10:40:58Z</time>
      </trkpt>
      <trkpt lat="45.68766" lon="3.80076">
        <ele>1367.199951</ele>
        <time>2017-05-25T10:41:06Z</time>
      </trkpt>
      <trkpt lat="45.6877" lon="3.80089">
        <ele>1367.400024</ele>
        <time>2017-05-25T10:41:17Z</time>
      </trkpt>
      <trkpt lat="45.68773" lon="3.80102">
        <ele>1367.199951</ele>
        <time>2017-05-25T10:41:25Z</time>
      </trkpt>
      <trkpt lat="45.68779" lon="3.80112">
        <ele>1367.199951</ele>
        <time>2017-05-25T10:41:32Z</time>
      </trkpt>
      <trkpt lat="45.6878" lon="3.80125">
        <ele>1367.099976</ele>
        <time>2017-05-25T10:41:44Z</time>
      </trkpt>
      <trkpt lat="45.6878" lon="3.80139">
        <ele>1367.099976</ele>
        <time>2017-05-25T10:41:56Z</time>
      </trkpt>
      <trkpt lat="45.68783" lon="3.80151">
        <ele>1367.5</ele>
        <time>2017-05-25T10:42:04Z</time>
      </trkpt>
      <trkpt lat="45.6878" lon="3.80164">
        <ele>1368</ele>
        <time>2017-05-25T10:42:12Z</time>
      </trkpt>
      <trkpt lat="45.68772" lon="3.80171">
        <ele>1368.699951</ele>
        <time>2017-05-25T10:42:21Z</time>
      </trkpt>
      <trkpt lat="45.68764" lon="3.80179">
        <ele>1369.699951</ele>
        <time>2017-05-25T10:42:31Z</time>
      </trkpt>
      <trkpt lat="45.68757" lon="3.80189">
        <ele>1371.199951</ele>
        <time>2017-05-25T10:42:46Z</time>
      </trkpt>
      <trkpt lat="45.6875" lon="3.80199">
        <ele>1372</ele>
        <time>2017-05-25T10:43:00Z</time>
      </trkpt>
      <trkpt lat="45.68745" lon="3.80211">
        <ele>1373.099976</ele>
        <time>2017-05-25T10:43:14Z</time>
      </trkpt>
      <trkpt lat="45.68741" lon="3.80223">
        <ele>1373.199951</ele>
        <time>2017-05-25T10:43:26Z</time>
      </trkpt>
      <trkpt lat="45.6874" lon="3.80236">
        <ele>1373.699951</ele>
        <time>2017-05-25T10:43:40Z</time>
      </trkpt>
      <trkpt lat="45.68735" lon="3.8025">
        <ele>1374.099976</ele>
        <time>2017-05-25T10:43:46Z</time>
      </trkpt>
      <trkpt lat="45.6873" lon="3.80261">
        <ele>1374.099976</ele>
        <time>2017-05-25T10:43:50Z</time>
      </trkpt>
      <trkpt lat="45.68724" lon="3.80273">
        <ele>1374</ele>
        <time>2017-05-25T10:43:55Z</time>
      </trkpt>
      <trkpt lat="45.68716" lon="3.80283">
        <ele>1373.800049</ele>
        <time>2017-05-25T10:43:59Z</time>
      </trkpt>
      <trkpt lat="45.68711" lon="3.80298">
        <ele>1374.099976</ele>
        <time>2017-05-25T10:44:03Z</time>
      </trkpt>
      <trkpt lat="45.68704" lon="3.80308">
        <ele>1374.599976</ele>
        <time>2017-05-25T10:44:07Z</time>
      </trkpt>
      <trkpt lat="45.68696" lon="3.8032">
        <ele>1374.800049</ele>
        <time>2017-05-25T10:44:11Z</time>
      </trkpt>
      <trkpt lat="45.68696" lon="3.80335">
        <ele>1374.800049</ele>
        <time>2017-05-25T10:44:15Z</time>
      </trkpt>
      <trkpt lat="45.68702" lon="3.80348">
        <ele>1374.900024</ele>
        <time>2017-05-25T10:44:19Z</time>
      </trkpt>
      <trkpt lat="45.68701" lon="3.80349">
        <ele>1341.36853</ele>
        <time>2017-05-25T11:30:11Z</time>
      </trkpt>
      <trkpt lat="45.68685" lon="3.8036">
        <ele>1378.199951</ele>
        <time>2017-05-25T11:32:49Z</time>
      </trkpt>
      <trkpt lat="45.68676" lon="3.80362">
        <ele>1378</ele>
        <time>2017-05-25T11:32:55Z</time>
      </trkpt>
      <trkpt lat="45.68666" lon="3.80363">
        <ele>1378.800049</ele>
        <time>2017-05-25T11:33:03Z</time>
      </trkpt>
      <trkpt lat="45.68657" lon="3.80363">
        <ele>1380.199951</ele>
        <time>2017-05-25T11:33:10Z</time>
      </trkpt>
      <trkpt lat="45.68647" lon="3.80362">
        <ele>1382.099976</ele>
        <time>2017-05-25T11:33:18Z</time>
      </trkpt>
      <trkpt lat="45.68637" lon="3.80362">
        <ele>1383.099976</ele>
        <time>2017-05-25T11:33:27Z</time>
      </trkpt>
      <trkpt lat="45.68628" lon="3.80362">
        <ele>1384.400024</ele>
        <time>2017-05-25T11:33:35Z</time>
      </trkpt>
      <trkpt lat="45.68618" lon="3.80362">
        <ele>1385.099976</ele>
        <time>2017-05-25T11:33:43Z</time>
      </trkpt>
      <trkpt lat="45.68609" lon="3.8036">
        <ele>1386.300049</ele>
        <time>2017-05-25T11:33:51Z</time>
      </trkpt>
      <trkpt lat="45.686" lon="3.80359">
        <ele>1387.300049</ele>
        <time>2017-05-25T11:33:59Z</time>
      </trkpt>
      <trkpt lat="45.68591" lon="3.80357">
        <ele>1388.400024</ele>
        <time>2017-05-25T11:34:07Z</time>
      </trkpt>
      <trkpt lat="45.68582" lon="3.80353">
        <ele>1389.800049</ele>
        <time>2017-05-25T11:34:16Z</time>
      </trkpt>
      <trkpt lat="45.68573" lon="3.80348">
        <ele>1391.199951</ele>
        <time>2017-05-25T11:34:24Z</time>
      </trkpt>
      <trkpt lat="45.68563" lon="3.80342">
        <ele>1393</ele>
        <time>2017-05-25T11:34:33Z</time>
      </trkpt>
      <trkpt lat="45.68554" lon="3.8034">
        <ele>1394.400024</ele>
        <time>2017-05-25T11:34:41Z</time>
      </trkpt>
      <trkpt lat="45.68544" lon="3.80337">
        <ele>1395.599976</ele>
        <time>2017-05-25T11:34:49Z</time>
      </trkpt>
      <trkpt lat="45.68537" lon="3.80346">
        <ele>1397.199951</ele>
        <time>2017-05-25T11:35:02Z</time>
      </trkpt>
      <trkpt lat="45.68535" lon="3.8036">
        <ele>1396.900024</ele>
        <time>2017-05-25T11:35:10Z</time>
      </trkpt>
      <trkpt lat="45.68533" lon="3.80374">
        <ele>1396.599976</ele>
        <time>2017-05-25T11:35:17Z</time>
      </trkpt>
      <trkpt lat="45.68533" lon="3.80389">
        <ele>1396.5</ele>
        <time>2017-05-25T11:35:22Z</time>
      </trkpt>
      <trkpt lat="45.68532" lon="3.80403">
        <ele>1396.099976</ele>
        <time>2017-05-25T11:35:25Z</time>
      </trkpt>
      <trkpt lat="45.68529" lon="3.80418">
        <ele>1395.800049</ele>
        <time>2017-05-25T11:35:28Z</time>
      </trkpt>
      <trkpt lat="45.68526" lon="3.80432">
        <ele>1395.199951</ele>
        <time>2017-05-25T11:35:31Z</time>
      </trkpt>
      <trkpt lat="45.68523" lon="3.80445">
        <ele>1395.099976</ele>
        <time>2017-05-25T11:35:34Z</time>
      </trkpt>
      <trkpt lat="45.6852" lon="3.8046">
        <ele>1394.699951</ele>
        <time>2017-05-25T11:35:38Z</time>
      </trkpt>
      <trkpt lat="45.68516" lon="3.80476">
        <ele>1394.5</ele>
        <time>2017-05-25T11:35:42Z</time>
      </trkpt>
      <trkpt lat="45.68513" lon="3.80489">
        <ele>1394.199951</ele>
        <time>2017-05-25T11:35:45Z</time>
      </trkpt>
      <trkpt lat="45.6851" lon="3.80502">
        <ele>1394.099976</ele>
        <time>2017-05-25T11:35:48Z</time>
      </trkpt>
      <trkpt lat="45.68506" lon="3.80515">
        <ele>1394</ele>
        <time>2017-05-25T11:35:51Z</time>
      </trkpt>
      <trkpt lat="45.68502" lon="3.8053">
        <ele>1393.900024</ele>
        <time>2017-05-25T11:35:54Z</time>
      </trkpt>
      <trkpt lat="45.68499" lon="3.80544">
        <ele>1393.800049</ele>
        <time>2017-05-25T11:35:57Z</time>
      </trkpt>
      <trkpt lat="45.68496" lon="3.8056">
        <ele>1393.599976</ele>
        <time>2017-05-25T11:36:00Z</time>
      </trkpt>
      <trkpt lat="45.68494" lon="3.80577">
        <ele>1393.199951</ele>
        <time>2017-05-25T11:36:03Z</time>
      </trkpt>
      <trkpt lat="45.68492" lon="3.80593">
        <ele>1393.099976</ele>
        <time>2017-05-25T11:36:06Z</time>
      </trkpt>
      <trkpt lat="45.68491" lon="3.8061">
        <ele>1392.800049</ele>
        <time>2017-05-25T11:36:09Z</time>
      </trkpt>
      <trkpt lat="45.68491" lon="3.80626">
        <ele>1392.199951</ele>
        <time>2017-05-25T11:36:12Z</time>
      </trkpt>
      <trkpt lat="45.6849" lon="3.80643">
        <ele>1392</ele>
        <time>2017-05-25T11:36:15Z</time>
      </trkpt>
      <trkpt lat="45.68488" lon="3.8066">
        <ele>1391.400024</ele>
        <time>2017-05-25T11:36:18Z</time>
      </trkpt>
      <trkpt lat="45.68486" lon="3.80677">
        <ele>1390.800049</ele>
        <time>2017-05-25T11:36:21Z</time>
      </trkpt>
      <trkpt lat="45.68485" lon="3.80693">
        <ele>1390.300049</ele>
        <time>2017-05-25T11:36:24Z</time>
      </trkpt>
      <trkpt lat="45.68484" lon="3.80711">
        <ele>1389.699951</ele>
        <time>2017-05-25T11:36:27Z</time>
      </trkpt>
      <trkpt lat="45.68484" lon="3.80724">
        <ele>1389.300049</ele>
        <time>2017-05-25T11:36:29Z</time>
      </trkpt>
      <trkpt lat="45.68483" lon="3.80737">
        <ele>1389</ele>
        <time>2017-05-25T11:36:31Z</time>
      </trkpt>
      <trkpt lat="45.68482" lon="3.80751">
        <ele>1388.599976</ele>
        <time>2017-05-25T11:36:33Z</time>
      </trkpt>
      <trkpt lat="45.68481" lon="3.80764">
        <ele>1387.900024</ele>
        <time>2017-05-25T11:36:35Z</time>
      </trkpt>
      <trkpt lat="45.6848" lon="3.80781">
        <ele>1387.699951</ele>
        <time>2017-05-25T11:36:38Z</time>
      </trkpt>
      <trkpt lat="45.68481" lon="3.80796">
        <ele>1387.5</ele>
        <time>2017-05-25T11:36:41Z</time>
      </trkpt>
      <trkpt lat="45.6848" lon="3.80811">
        <ele>1387.199951</ele>
        <time>2017-05-25T11:36:44Z</time>
      </trkpt>
      <trkpt lat="45.6848" lon="3.80828">
        <ele>1386.800049</ele>
        <time>2017-05-25T11:36:47Z</time>
      </trkpt>
      <trkpt lat="45.68479" lon="3.80845">
        <ele>1386.199951</ele>
        <time>2017-05-25T11:36:50Z</time>
      </trkpt>
      <trkpt lat="45.68478" lon="3.80862">
        <ele>1385.800049</ele>
        <time>2017-05-25T11:36:53Z</time>
      </trkpt>
      <trkpt lat="45.68476" lon="3.80879">
        <ele>1385.300049</ele>
        <time>2017-05-25T11:36:56Z</time>
      </trkpt>
      <trkpt lat="45.68471" lon="3.80894">
        <ele>1384.800049</ele>
        <time>2017-05-25T11:36:59Z</time>
      </trkpt>
      <trkpt lat="45.68467" lon="3.80908">
        <ele>1384.400024</ele>
        <time>2017-05-25T11:37:02Z</time>
      </trkpt>
      <trkpt lat="45.68465" lon="3.80922">
        <ele>1384.099976</ele>
        <time>2017-05-25T11:37:06Z</time>
      </trkpt>
      <trkpt lat="45.68463" lon="3.80936">
        <ele>1383.099976</ele>
        <time>2017-05-25T11:37:12Z</time>
      </trkpt>
      <trkpt lat="45.68462" lon="3.80951">
        <ele>1382</ele>
        <time>2017-05-25T11:37:17Z</time>
      </trkpt>
      <trkpt lat="45.6846" lon="3.80965">
        <ele>1380.400024</ele>
        <time>2017-05-25T11:37:23Z</time>
      </trkpt>
      <trkpt lat="45.68459" lon="3.80978">
        <ele>1379.099976</ele>
        <time>2017-05-25T11:37:28Z</time>
      </trkpt>
      <trkpt lat="45.68457" lon="3.80992">
        <ele>1377.800049</ele>
        <time>2017-05-25T11:37:33Z</time>
      </trkpt>
      <trkpt lat="45.68452" lon="3.81004">
        <ele>1376.199951</ele>
        <time>2017-05-25T11:37:38Z</time>
      </trkpt>
      <trkpt lat="45.68446" lon="3.81019">
        <ele>1375</ele>
        <time>2017-05-25T11:37:42Z</time>
      </trkpt>
      <trkpt lat="45.68442" lon="3.81031">
        <ele>1373</ele>
        <time>2017-05-25T11:37:47Z</time>
      </trkpt>
      <trkpt lat="45.68437" lon="3.81043">
        <ele>1371.599976</ele>
        <time>2017-05-25T11:37:51Z</time>
      </trkpt>
      <trkpt lat="45.68431" lon="3.81055">
        <ele>1370.400024</ele>
        <time>2017-05-25T11:37:55Z</time>
      </trkpt>
      <trkpt lat="45.68428" lon="3.81068">
        <ele>1369</ele>
        <time>2017-05-25T11:38:00Z</time>
      </trkpt>
      <trkpt lat="45.68422" lon="3.81079">
        <ele>1367.800049</ele>
        <time>2017-05-25T11:38:04Z</time>
      </trkpt>
      <trkpt lat="45.68419" lon="3.81095">
        <ele>1366.699951</ele>
        <time>2017-05-25T11:38:08Z</time>
      </trkpt>
      <trkpt lat="45.68416" lon="3.81109">
        <ele>1365.199951</ele>
        <time>2017-05-25T11:38:13Z</time>
      </trkpt>
      <trkpt lat="45.68409" lon="3.81123">
        <ele>1364.199951</ele>
        <time>2017-05-25T11:38:17Z</time>
      </trkpt>
      <trkpt lat="45.68401" lon="3.81133">
        <ele>1363.5</ele>
        <time>2017-05-25T11:38:20Z</time>
      </trkpt>
      <trkpt lat="45.68394" lon="3.81142">
        <ele>1362.800049</ele>
        <time>2017-05-25T11:38:23Z</time>
      </trkpt>
      <trkpt lat="45.6839" lon="3.81155">
        <ele>1362.099976</ele>
        <time>2017-05-25T11:38:27Z</time>
      </trkpt>
      <trkpt lat="45.68382" lon="3.81168">
        <ele>1360.900024</ele>
        <time>2017-05-25T11:38:31Z</time>
      </trkpt>
      <trkpt lat="45.68375" lon="3.81178">
        <ele>1359.400024</ele>
        <time>2017-05-25T11:38:36Z</time>
      </trkpt>
      <trkpt lat="45.68366" lon="3.81189">
        <ele>1358.699951</ele>
        <time>2017-05-25T11:38:40Z</time>
      </trkpt>
      <trkpt lat="45.6836" lon="3.81199">
        <ele>1358.400024</ele>
        <time>2017-05-25T11:38:43Z</time>
      </trkpt>
      <trkpt lat="45.68351" lon="3.81204">
        <ele>1358.199951</ele>
        <time>2017-05-25T11:38:46Z</time>
      </trkpt>
      <trkpt lat="45.68342" lon="3.81212">
        <ele>1357.599976</ele>
        <time>2017-05-25T11:38:49Z</time>
      </trkpt>
      <trkpt lat="45.68335" lon="3.81222">
        <ele>1356.599976</ele>
        <time>2017-05-25T11:38:52Z</time>
      </trkpt>
      <trkpt lat="45.68328" lon="3.81236">
        <ele>1355.800049</ele>
        <time>2017-05-25T11:38:55Z</time>
      </trkpt>
      <trkpt lat="45.68321" lon="3.81246">
        <ele>1355</ele>
        <time>2017-05-25T11:38:58Z</time>
      </trkpt>
      <trkpt lat="45.68315" lon="3.81256">
        <ele>1354.300049</ele>
        <time>2017-05-25T11:39:01Z</time>
      </trkpt>
      <trkpt lat="45.68309" lon="3.81265">
        <ele>1353.300049</ele>
        <time>2017-05-25T11:39:04Z</time>
      </trkpt>
      <trkpt lat="45.683" lon="3.81277">
        <ele>1352.300049</ele>
        <time>2017-05-25T11:39:08Z</time>
      </trkpt>
      <trkpt lat="45.68295" lon="3.81289">
        <ele>1351.400024</ele>
        <time>2017-05-25T11:39:12Z</time>
      </trkpt>
      <trkpt lat="45.68289" lon="3.81299">
        <ele>1350.400024</ele>
        <time>2017-05-25T11:40:44Z</time>
      </trkpt>
      <trkpt lat="45.68282" lon="3.81312">
        <ele>1349.800049</ele>
        <time>2017-05-25T11:40:48Z</time>
      </trkpt>
      <trkpt lat="45.68276" lon="3.81322">
        <ele>1349.300049</ele>
        <time>2017-05-25T11:40:51Z</time>
      </trkpt>
      <trkpt lat="45.68269" lon="3.81335">
        <ele>1348.400024</ele>
        <time>2017-05-25T11:40:54Z</time>
      </trkpt>
      <trkpt lat="45.68261" lon="3.81345">
        <ele>1347.099976</ele>
        <time>2017-05-25T11:40:58Z</time>
      </trkpt>
      <trkpt lat="45.68253" lon="3.81357">
        <ele>1345.599976</ele>
        <time>2017-05-25T11:41:02Z</time>
      </trkpt>
      <trkpt lat="45.68246" lon="3.81366">
        <ele>1343.5</ele>
        <time>2017-05-25T11:41:07Z</time>
      </trkpt>
      <trkpt lat="45.68238" lon="3.81373">
        <ele>1342.300049</ele>
        <time>2017-05-25T11:41:11Z</time>
      </trkpt>
      <trkpt lat="45.68232" lon="3.81384">
        <ele>1340.099976</ele>
        <time>2017-05-25T11:41:17Z</time>
      </trkpt>
      <trkpt lat="45.68225" lon="3.81395">
        <ele>1338.099976</ele>
        <time>2017-05-25T11:41:23Z</time>
      </trkpt>
      <trkpt lat="45.68218" lon="3.81406">
        <ele>1336</ele>
        <time>2017-05-25T11:41:29Z</time>
      </trkpt>
      <trkpt lat="45.68211" lon="3.81415">
        <ele>1333.099976</ele>
        <time>2017-05-25T11:41:51Z</time>
      </trkpt>
      <trkpt lat="45.68207" lon="3.81426">
        <ele>1332.199951</ele>
        <time>2017-05-25T11:42:09Z</time>
      </trkpt>
      <trkpt lat="45.68199" lon="3.81434">
        <ele>1329.699951</ele>
        <time>2017-05-25T11:42:21Z</time>
      </trkpt>
      <trkpt lat="45.68194" lon="3.81446">
        <ele>1327.099976</ele>
        <time>2017-05-25T11:42:35Z</time>
      </trkpt>
      <trkpt lat="45.6819" lon="3.81458">
        <ele>1324.699951</ele>
        <time>2017-05-25T11:42:59Z</time>
      </trkpt>
      <trkpt lat="45.68184" lon="3.81469">
        <ele>1323</ele>
        <time>2017-05-25T11:43:07Z</time>
      </trkpt>
      <trkpt lat="45.6818" lon="3.8148">
        <ele>1320.099976</ele>
        <time>2017-05-25T11:43:26Z</time>
      </trkpt>
      <trkpt lat="45.68171" lon="3.81486">
        <ele>1318.900024</ele>
        <time>2017-05-25T11:43:39Z</time>
      </trkpt>
      <trkpt lat="45.68162" lon="3.8148">
        <ele>1318.099976</ele>
        <time>2017-05-25T11:43:43Z</time>
      </trkpt>
      <trkpt lat="45.68152" lon="3.81481">
        <ele>1316.900024</ele>
        <time>2017-05-25T11:43:48Z</time>
      </trkpt>
      <trkpt lat="45.68144" lon="3.81485">
        <ele>1314</ele>
        <time>2017-05-25T11:44:07Z</time>
      </trkpt>
      <trkpt lat="45.6814" lon="3.81498">
        <ele>1313.199951</ele>
        <time>2017-05-25T11:44:40Z</time>
      </trkpt>
      <trkpt lat="45.68145" lon="3.81512">
        <ele>1312.300049</ele>
        <time>2017-05-25T11:44:45Z</time>
      </trkpt>
      <trkpt lat="45.68147" lon="3.81528">
        <ele>1311</ele>
        <time>2017-05-25T11:44:49Z</time>
      </trkpt>
      <trkpt lat="45.68144" lon="3.81543">
        <ele>1309.5</ele>
        <time>2017-05-25T11:44:53Z</time>
      </trkpt>
      <trkpt lat="45.68144" lon="3.81558">
        <ele>1308</ele>
        <time>2017-05-25T11:44:57Z</time>
      </trkpt>
      <trkpt lat="45.68144" lon="3.81574">
        <ele>1306.800049</ele>
        <time>2017-05-25T11:45:00Z</time>
      </trkpt>
      <trkpt lat="45.68145" lon="3.81588">
        <ele>1305.800049</ele>
        <time>2017-05-25T11:45:02Z</time>
      </trkpt>
      <trkpt lat="45.68148" lon="3.81603">
        <ele>1304.400024</ele>
        <time>2017-05-25T11:45:04Z</time>
      </trkpt>
      <trkpt lat="45.68152" lon="3.81618">
        <ele>1303.400024</ele>
        <time>2017-05-25T11:45:06Z</time>
      </trkpt>
      <trkpt lat="45.68157" lon="3.81633">
        <ele>1302.599976</ele>
        <time>2017-05-25T11:45:08Z</time>
      </trkpt>
      <trkpt lat="45.68165" lon="3.81644">
        <ele>1301.900024</ele>
        <time>2017-05-25T11:45:10Z</time>
      </trkpt>
      <trkpt lat="45.68173" lon="3.81655">
        <ele>1301.199951</ele>
        <time>2017-05-25T11:45:12Z</time>
      </trkpt>
      <trkpt lat="45.68177" lon="3.81668">
        <ele>1300.300049</ele>
        <time>2017-05-25T11:45:14Z</time>
      </trkpt>
      <trkpt lat="45.68185" lon="3.81682">
        <ele>1298.800049</ele>
        <time>2017-05-25T11:45:17Z</time>
      </trkpt>
      <trkpt lat="45.68192" lon="3.81692">
        <ele>1297.5</ele>
        <time>2017-05-25T11:45:20Z</time>
      </trkpt>
      <trkpt lat="45.68196" lon="3.81705">
        <ele>1296.199951</ele>
        <time>2017-05-25T11:45:23Z</time>
      </trkpt>
      <trkpt lat="45.68199" lon="3.81719">
        <ele>1295</ele>
        <time>2017-05-25T11:45:26Z</time>
      </trkpt>
      <trkpt lat="45.68199" lon="3.81735">
        <ele>1293.5</ele>
        <time>2017-05-25T11:45:29Z</time>
      </trkpt>
      <trkpt lat="45.68202" lon="3.8175">
        <ele>1291.5</ele>
        <time>2017-05-25T11:45:32Z</time>
      </trkpt>
      <trkpt lat="45.68206" lon="3.81767">
        <ele>1289.5</ele>
        <time>2017-05-25T11:45:35Z</time>
      </trkpt>
      <trkpt lat="45.68206" lon="3.81784">
        <ele>1287.5</ele>
        <time>2017-05-25T11:45:38Z</time>
      </trkpt>
      <trkpt lat="45.68203" lon="3.81798">
        <ele>1285.199951</ele>
        <time>2017-05-25T11:45:41Z</time>
      </trkpt>
      <trkpt lat="45.68194" lon="3.81809">
        <ele>1282.900024</ele>
        <time>2017-05-25T11:45:44Z</time>
      </trkpt>
      <trkpt lat="45.68184" lon="3.81815">
        <ele>1279.900024</ele>
        <time>2017-05-25T11:45:48Z</time>
      </trkpt>
      <trkpt lat="45.68175" lon="3.81819">
        <ele>1277.800049</ele>
        <time>2017-05-25T11:45:52Z</time>
      </trkpt>
      <trkpt lat="45.68167" lon="3.81823">
        <ele>1276</ele>
        <time>2017-05-25T11:45:56Z</time>
      </trkpt>
      <trkpt lat="45.68155" lon="3.81827">
        <ele>1274.400024</ele>
        <time>2017-05-25T11:46:00Z</time>
      </trkpt>
      <trkpt lat="45.68146" lon="3.81829">
        <ele>1272.400024</ele>
        <time>2017-05-25T11:46:04Z</time>
      </trkpt>
      <trkpt lat="45.68135" lon="3.81832">
        <ele>1270.599976</ele>
        <time>2017-05-25T11:46:09Z</time>
      </trkpt>
      <trkpt lat="45.68125" lon="3.81831">
        <ele>1269.5</ele>
        <time>2017-05-25T11:46:12Z</time>
      </trkpt>
      <trkpt lat="45.68115" lon="3.81833">
        <ele>1267.5</ele>
        <time>2017-05-25T11:46:16Z</time>
      </trkpt>
      <trkpt lat="45.68105" lon="3.81832">
        <ele>1264</ele>
        <time>2017-05-25T11:46:35Z</time>
      </trkpt>
      <trkpt lat="45.68103" lon="3.81844">
        <ele>1261.699951</ele>
        <time>2017-05-25T11:47:25Z</time>
      </trkpt>
      <trkpt lat="45.68096" lon="3.81854">
        <ele>1260.800049</ele>
        <time>2017-05-25T11:47:43Z</time>
      </trkpt>
      <trkpt lat="45.68091" lon="3.81866">
        <ele>1259.599976</ele>
        <time>2017-05-25T11:47:47Z</time>
      </trkpt>
      <trkpt lat="45.68087" lon="3.81878">
        <ele>1254.800049</ele>
        <time>2017-05-25T11:48:02Z</time>
      </trkpt>
      <trkpt lat="45.68079" lon="3.81886">
        <ele>1253.199951</ele>
        <time>2017-05-25T11:48:11Z</time>
      </trkpt>
      <trkpt lat="45.68071" lon="3.81894">
        <ele>1251.300049</ele>
        <time>2017-05-25T11:48:16Z</time>
      </trkpt>
      <trkpt lat="45.68063" lon="3.81901">
        <ele>1247.300049</ele>
        <time>2017-05-25T11:48:28Z</time>
      </trkpt>
      <trkpt lat="45.68061" lon="3.81915">
        <ele>1244.400024</ele>
        <time>2017-05-25T11:48:48Z</time>
      </trkpt>
      <trkpt lat="45.68052" lon="3.81914">
        <ele>1244.099976</ele>
        <time>2017-05-25T11:49:13Z</time>
      </trkpt>
      <trkpt lat="45.68042" lon="3.81917">
        <ele>1242.400024</ele>
        <time>2017-05-25T11:49:25Z</time>
      </trkpt>
      <trkpt lat="45.68032" lon="3.8192">
        <ele>1240.099976</ele>
        <time>2017-05-25T11:49:36Z</time>
      </trkpt>
      <trkpt lat="45.68022" lon="3.81923">
        <ele>1238.300049</ele>
        <time>2017-05-25T11:49:44Z</time>
      </trkpt>
      <trkpt lat="45.68012" lon="3.81928">
        <ele>1236.400024</ele>
        <time>2017-05-25T11:49:48Z</time>
      </trkpt>
      <trkpt lat="45.68005" lon="3.81937">
        <ele>1234.800049</ele>
        <time>2017-05-25T11:49:52Z</time>
      </trkpt>
      <trkpt lat="45.68004" lon="3.81952">
        <ele>1232.800049</ele>
        <time>2017-05-25T11:49:56Z</time>
      </trkpt>
      <trkpt lat="45.67995" lon="3.81961">
        <ele>1230.099976</ele>
        <time>2017-05-25T11:50:01Z</time>
      </trkpt>
      <trkpt lat="45.67986" lon="3.81964">
        <ele>1229.099976</ele>
        <time>2017-05-25T11:50:04Z</time>
      </trkpt>
      <trkpt lat="45.67976" lon="3.81968">
        <ele>1227.800049</ele>
        <time>2017-05-25T11:50:07Z</time>
      </trkpt>
      <trkpt lat="45.67973" lon="3.81955">
        <ele>1226.5</ele>
        <time>2017-05-25T11:50:24Z</time>
      </trkpt>
      <trkpt lat="45.67971" lon="3.81942">
        <ele>1227.199951</ele>
        <time>2017-05-25T11:50:29Z</time>
      </trkpt>
      <trkpt lat="45.67968" lon="3.81929">
        <ele>1228.199951</ele>
        <time>2017-05-25T11:50:34Z</time>
      </trkpt>
      <trkpt lat="45.67966" lon="3.81915">
        <ele>1228.900024</ele>
        <time>2017-05-25T11:50:39Z</time>
      </trkpt>
      <trkpt lat="45.67963" lon="3.81902">
        <ele>1229.800049</ele>
        <time>2017-05-25T11:50:44Z</time>
      </trkpt>
      <trkpt lat="45.67959" lon="3.8189">
        <ele>1230.699951</ele>
        <time>2017-05-25T11:50:48Z</time>
      </trkpt>
      <trkpt lat="45.67955" lon="3.81878">
        <ele>1231.400024</ele>
        <time>2017-05-25T11:50:52Z</time>
      </trkpt>
      <trkpt lat="45.67951" lon="3.81866">
        <ele>1231.900024</ele>
        <time>2017-05-25T11:50:56Z</time>
      </trkpt>
      <trkpt lat="45.67949" lon="3.81853">
        <ele>1232.199951</ele>
        <time>2017-05-25T11:51:01Z</time>
      </trkpt>
      <trkpt lat="45.67946" lon="3.81838">
        <ele>1232.800049</ele>
        <time>2017-05-25T11:51:06Z</time>
      </trkpt>
      <trkpt lat="45.67942" lon="3.81823">
        <ele>1233.099976</ele>
        <time>2017-05-25T11:51:10Z</time>
      </trkpt>
      <trkpt lat="45.67939" lon="3.8181">
        <ele>1233.699951</ele>
        <time>2017-05-25T11:51:14Z</time>
      </trkpt>
      <trkpt lat="45.67934" lon="3.81796">
        <ele>1234.199951</ele>
        <time>2017-05-25T11:51:18Z</time>
      </trkpt>
      <trkpt lat="45.6793" lon="3.81783">
        <ele>1234.5</ele>
        <time>2017-05-25T11:51:22Z</time>
      </trkpt>
      <trkpt lat="45.67925" lon="3.81771">
        <ele>1234.800049</ele>
        <time>2017-05-25T11:51:26Z</time>
      </trkpt>
      <trkpt lat="45.67918" lon="3.81759">
        <ele>1234.800049</ele>
        <time>2017-05-25T11:51:30Z</time>
      </trkpt>
      <trkpt lat="45.67911" lon="3.81748">
        <ele>1235</ele>
        <time>2017-05-25T11:51:34Z</time>
      </trkpt>
      <trkpt lat="45.67903" lon="3.81738">
        <ele>1235.400024</ele>
        <time>2017-05-25T11:51:38Z</time>
      </trkpt>
      <trkpt lat="45.67894" lon="3.81731">
        <ele>1235.800049</ele>
        <time>2017-05-25T11:51:42Z</time>
      </trkpt>
      <trkpt lat="45.67886" lon="3.81723">
        <ele>1236.099976</ele>
        <time>2017-05-25T11:51:46Z</time>
      </trkpt>
      <trkpt lat="45.67877" lon="3.81718">
        <ele>1236.599976</ele>
        <time>2017-05-25T11:51:50Z</time>
      </trkpt>
      <trkpt lat="45.67868" lon="3.81709">
        <ele>1237.099976</ele>
        <time>2017-05-25T11:51:54Z</time>
      </trkpt>
      <trkpt lat="45.67858" lon="3.817">
        <ele>1237.400024</ele>
        <time>2017-05-25T11:51:58Z</time>
      </trkpt>
      <trkpt lat="45.6785" lon="3.81691">
        <ele>1238</ele>
        <time>2017-05-25T11:52:02Z</time>
      </trkpt>
      <trkpt lat="45.67841" lon="3.81683">
        <ele>1238.599976</ele>
        <time>2017-05-25T11:52:06Z</time>
      </trkpt>
      <trkpt lat="45.67832" lon="3.81675">
        <ele>1238.900024</ele>
        <time>2017-05-25T11:52:10Z</time>
      </trkpt>
      <trkpt lat="45.67824" lon="3.81668">
        <ele>1239.400024</ele>
        <time>2017-05-25T11:52:14Z</time>
      </trkpt>
      <trkpt lat="45.67816" lon="3.81662">
        <ele>1240.300049</ele>
        <time>2017-05-25T11:52:18Z</time>
      </trkpt>
      <trkpt lat="45.67807" lon="3.81657">
        <ele>1241.199951</ele>
        <time>2017-05-25T11:52:22Z</time>
      </trkpt>
      <trkpt lat="45.67799" lon="3.8165">
        <ele>1241.699951</ele>
        <time>2017-05-25T11:52:26Z</time>
      </trkpt>
      <trkpt lat="45.6779" lon="3.81645">
        <ele>1242.699951</ele>
        <time>2017-05-25T11:52:30Z</time>
      </trkpt>
      <trkpt lat="45.6778" lon="3.81639">
        <ele>1243.800049</ele>
        <time>2017-05-25T11:52:35Z</time>
      </trkpt>
      <trkpt lat="45.67772" lon="3.81634">
        <ele>1244.699951</ele>
        <time>2017-05-25T11:52:39Z</time>
      </trkpt>
      <trkpt lat="45.67763" lon="3.81629">
        <ele>1245.099976</ele>
        <time>2017-05-25T11:52:43Z</time>
      </trkpt>
      <trkpt lat="45.67753" lon="3.81622">
        <ele>1245.599976</ele>
        <time>2017-05-25T11:52:47Z</time>
      </trkpt>
      <trkpt lat="45.67744" lon="3.81614">
        <ele>1245.900024</ele>
        <time>2017-05-25T11:52:51Z</time>
      </trkpt>
      <trkpt lat="45.67737" lon="3.81603">
        <ele>1246.099976</ele>
        <time>2017-05-25T11:52:55Z</time>
      </trkpt>
      <trkpt lat="45.6773" lon="3.81592">
        <ele>1246.599976</ele>
        <time>2017-05-25T11:52:59Z</time>
      </trkpt>
      <trkpt lat="45.67722" lon="3.81581">
        <ele>1247</ele>
        <time>2017-05-25T11:53:03Z</time>
      </trkpt>
      <trkpt lat="45.67715" lon="3.81568">
        <ele>1247.199951</ele>
        <time>2017-05-25T11:53:07Z</time>
      </trkpt>
      <trkpt lat="45.67708" lon="3.81556">
        <ele>1247</ele>
        <time>2017-05-25T11:53:11Z</time>
      </trkpt>
      <trkpt lat="45.67702" lon="3.81546">
        <ele>1247</ele>
        <time>2017-05-25T11:53:14Z</time>
      </trkpt>
      <trkpt lat="45.67696" lon="3.81536">
        <ele>1247</ele>
        <time>2017-05-25T11:53:17Z</time>
      </trkpt>
      <trkpt lat="45.6769" lon="3.81522">
        <ele>1247.400024</ele>
        <time>2017-05-25T11:53:21Z</time>
      </trkpt>
      <trkpt lat="45.67684" lon="3.81509">
        <ele>1247.699951</ele>
        <time>2017-05-25T11:53:25Z</time>
      </trkpt>
      <trkpt lat="45.67677" lon="3.81496">
        <ele>1248</ele>
        <time>2017-05-25T11:53:29Z</time>
      </trkpt>
      <trkpt lat="45.67671" lon="3.81482">
        <ele>1248.400024</ele>
        <time>2017-05-25T11:53:33Z</time>
      </trkpt>
      <trkpt lat="45.67664" lon="3.81469">
        <ele>1248.900024</ele>
        <time>2017-05-25T11:53:37Z</time>
      </trkpt>
      <trkpt lat="45.67658" lon="3.81458">
        <ele>1249.099976</ele>
        <time>2017-05-25T11:53:40Z</time>
      </trkpt>
      <trkpt lat="45.67651" lon="3.81445">
        <ele>1249.199951</ele>
        <time>2017-05-25T11:53:44Z</time>
      </trkpt>
      <trkpt lat="45.67645" lon="3.81432">
        <ele>1249.400024</ele>
        <time>2017-05-25T11:53:48Z</time>
      </trkpt>
      <trkpt lat="45.67639" lon="3.81418">
        <ele>1249.699951</ele>
        <time>2017-05-25T11:53:52Z</time>
      </trkpt>
      <trkpt lat="45.67633" lon="3.81405">
        <ele>1250.099976</ele>
        <time>2017-05-25T11:53:56Z</time>
      </trkpt>
      <trkpt lat="45.67627" lon="3.81392">
        <ele>1250.800049</ele>
        <time>2017-05-25T11:54:00Z</time>
      </trkpt>
      <trkpt lat="45.6762" lon="3.81381">
        <ele>1251.300049</ele>
        <time>2017-05-25T11:54:04Z</time>
      </trkpt>
      <trkpt lat="45.6761" lon="3.81372">
        <ele>1251.800049</ele>
        <time>2017-05-25T11:54:08Z</time>
      </trkpt>
      <trkpt lat="45.67599" lon="3.81364">
        <ele>1252.5</ele>
        <time>2017-05-25T11:54:12Z</time>
      </trkpt>
      <trkpt lat="45.67591" lon="3.81359">
        <ele>1252.900024</ele>
        <time>2017-05-25T11:54:15Z</time>
      </trkpt>
      <trkpt lat="45.67581" lon="3.81355">
        <ele>1253</ele>
        <time>2017-05-25T11:54:18Z</time>
      </trkpt>
      <trkpt lat="45.67571" lon="3.81352">
        <ele>1253</ele>
        <time>2017-05-25T11:54:21Z</time>
      </trkpt>
      <trkpt lat="45.6756" lon="3.8135">
        <ele>1253.199951</ele>
        <time>2017-05-25T11:54:24Z</time>
      </trkpt>
      <trkpt lat="45.6755" lon="3.81348">
        <ele>1253.300049</ele>
        <time>2017-05-25T11:54:27Z</time>
      </trkpt>
      <trkpt lat="45.67538" lon="3.81344">
        <ele>1253.5</ele>
        <time>2017-05-25T11:54:31Z</time>
      </trkpt>
      <trkpt lat="45.67525" lon="3.81345">
        <ele>1253.900024</ele>
        <time>2017-05-25T11:54:35Z</time>
      </trkpt>
      <trkpt lat="45.67514" lon="3.81348">
        <ele>1254.5</ele>
        <time>2017-05-25T11:54:39Z</time>
      </trkpt>
      <trkpt lat="45.67505" lon="3.81351">
        <ele>1255.099976</ele>
        <time>2017-05-25T11:54:42Z</time>
      </trkpt>
      <trkpt lat="45.67495" lon="3.8136">
        <ele>1255.400024</ele>
        <time>2017-05-25T11:54:45Z</time>
      </trkpt>
      <trkpt lat="45.67487" lon="3.81368">
        <ele>1255.599976</ele>
        <time>2017-05-25T11:54:47Z</time>
      </trkpt>
      <trkpt lat="45.67478" lon="3.81373">
        <ele>1255.599976</ele>
        <time>2017-05-25T11:54:49Z</time>
      </trkpt>
      <trkpt lat="45.67469" lon="3.81377">
        <ele>1255.400024</ele>
        <time>2017-05-25T11:54:51Z</time>
      </trkpt>
      <trkpt lat="45.67457" lon="3.81384">
        <ele>1255.099976</ele>
        <time>2017-05-25T11:54:54Z</time>
      </trkpt>
      <trkpt lat="45.67444" lon="3.81387">
        <ele>1254.699951</ele>
        <time>2017-05-25T11:54:57Z</time>
      </trkpt>
      <trkpt lat="45.67431" lon="3.8139">
        <ele>1254.400024</ele>
        <time>2017-05-25T11:55:00Z</time>
      </trkpt>
      <trkpt lat="45.67423" lon="3.81394">
        <ele>1254.300049</ele>
        <time>2017-05-25T11:55:02Z</time>
      </trkpt>
      <trkpt lat="45.67411" lon="3.81398">
        <ele>1254.400024</ele>
        <time>2017-05-25T11:55:05Z</time>
      </trkpt>
      <trkpt lat="45.67398" lon="3.81402">
        <ele>1254.699951</ele>
        <time>2017-05-25T11:55:08Z</time>
      </trkpt>
      <trkpt lat="45.67388" lon="3.81403">
        <ele>1254.800049</ele>
        <time>2017-05-25T11:55:11Z</time>
      </trkpt>
      <trkpt lat="45.67378" lon="3.81401">
        <ele>1255</ele>
        <time>2017-05-25T11:55:14Z</time>
      </trkpt>
      <trkpt lat="45.67367" lon="3.81401">
        <ele>1255.5</ele>
        <time>2017-05-25T11:55:17Z</time>
      </trkpt>
      <trkpt lat="45.67356" lon="3.81402">
        <ele>1255.800049</ele>
        <time>2017-05-25T11:55:20Z</time>
      </trkpt>
      <trkpt lat="45.67344" lon="3.81403">
        <ele>1256.400024</ele>
        <time>2017-05-25T11:55:24Z</time>
      </trkpt>
      <trkpt lat="45.67334" lon="3.81405">
        <ele>1256.699951</ele>
        <time>2017-05-25T11:55:27Z</time>
      </trkpt>
      <trkpt lat="45.67321" lon="3.81408">
        <ele>1256.599976</ele>
        <time>2017-05-25T11:55:30Z</time>
      </trkpt>
      <trkpt lat="45.67309" lon="3.81414">
        <ele>1256.800049</ele>
        <time>2017-05-25T11:55:33Z</time>
      </trkpt>
      <trkpt lat="45.67299" lon="3.81419">
        <ele>1257.099976</ele>
        <time>2017-05-25T11:55:36Z</time>
      </trkpt>
      <trkpt lat="45.67288" lon="3.81425">
        <ele>1257.800049</ele>
        <time>2017-05-25T11:55:40Z</time>
      </trkpt>
      <trkpt lat="45.6728" lon="3.81431">
        <ele>1258.300049</ele>
        <time>2017-05-25T11:55:43Z</time>
      </trkpt>
      <trkpt lat="45.67272" lon="3.81438">
        <ele>1259</ele>
        <time>2017-05-25T11:55:46Z</time>
      </trkpt>
      <trkpt lat="45.67262" lon="3.81446">
        <ele>1259.900024</ele>
        <time>2017-05-25T11:55:50Z</time>
      </trkpt>
      <trkpt lat="45.67253" lon="3.81457">
        <ele>1260.599976</ele>
        <time>2017-05-25T11:55:54Z</time>
      </trkpt>
      <trkpt lat="45.67244" lon="3.81467">
        <ele>1261.300049</ele>
        <time>2017-05-25T11:55:58Z</time>
      </trkpt>
      <trkpt lat="45.67237" lon="3.81477">
        <ele>1261.699951</ele>
        <time>2017-05-25T11:56:02Z</time>
      </trkpt>
      <trkpt lat="45.6723" lon="3.81487">
        <ele>1261.800049</ele>
        <time>2017-05-25T11:56:05Z</time>
      </trkpt>
      <trkpt lat="45.67224" lon="3.81499">
        <ele>1261.800049</ele>
        <time>2017-05-25T11:56:08Z</time>
      </trkpt>
      <trkpt lat="45.6722" lon="3.81512">
        <ele>1261.699951</ele>
        <time>2017-05-25T11:56:11Z</time>
      </trkpt>
      <trkpt lat="45.67218" lon="3.81525">
        <ele>1261.900024</ele>
        <time>2017-05-25T11:56:14Z</time>
      </trkpt>
      <trkpt lat="45.67219" lon="3.81542">
        <ele>1262.300049</ele>
        <time>2017-05-25T11:56:18Z</time>
      </trkpt>
      <trkpt lat="45.6722" lon="3.81559">
        <ele>1262.5</ele>
        <time>2017-05-25T11:56:22Z</time>
      </trkpt>
      <trkpt lat="45.6722" lon="3.81572">
        <ele>1262.900024</ele>
        <time>2017-05-25T11:56:25Z</time>
      </trkpt>
      <trkpt lat="45.67222" lon="3.81584">
        <ele>1263.099976</ele>
        <time>2017-05-25T11:56:28Z</time>
      </trkpt>
      <trkpt lat="45.67224" lon="3.81601">
        <ele>1263.400024</ele>
        <time>2017-05-25T11:56:32Z</time>
      </trkpt>
      <trkpt lat="45.67224" lon="3.81616">
        <ele>1263.699951</ele>
        <time>2017-05-25T11:56:36Z</time>
      </trkpt>
      <trkpt lat="45.67225" lon="3.81631">
        <ele>1264.099976</ele>
        <time>2017-05-25T11:56:40Z</time>
      </trkpt>
      <trkpt lat="45.67227" lon="3.81646">
        <ele>1264.900024</ele>
        <time>2017-05-25T11:56:44Z</time>
      </trkpt>
      <trkpt lat="45.67228" lon="3.81661">
        <ele>1265.599976</ele>
        <time>2017-05-25T11:56:48Z</time>
      </trkpt>
      <trkpt lat="45.67228" lon="3.81674">
        <ele>1266.599976</ele>
        <time>2017-05-25T11:56:52Z</time>
      </trkpt>
      <trkpt lat="45.6723" lon="3.81686">
        <ele>1267.599976</ele>
        <time>2017-05-25T11:56:56Z</time>
      </trkpt>
      <trkpt lat="45.67233" lon="3.81699">
        <ele>1268.300049</ele>
        <time>2017-05-25T11:57:00Z</time>
      </trkpt>
      <trkpt lat="45.67234" lon="3.81712">
        <ele>1269.300049</ele>
        <time>2017-05-25T11:57:04Z</time>
      </trkpt>
      <trkpt lat="45.67234" lon="3.81725">
        <ele>1270.199951</ele>
        <time>2017-05-25T11:57:08Z</time>
      </trkpt>
      <trkpt lat="45.67236" lon="3.81738">
        <ele>1271.099976</ele>
        <time>2017-05-25T11:57:12Z</time>
      </trkpt>
      <trkpt lat="45.67237" lon="3.81754">
        <ele>1272</ele>
        <time>2017-05-25T11:57:17Z</time>
      </trkpt>
      <trkpt lat="45.67238" lon="3.8177">
        <ele>1272.800049</ele>
        <time>2017-05-25T11:57:22Z</time>
      </trkpt>
      <trkpt lat="45.67239" lon="3.81783">
        <ele>1273.599976</ele>
        <time>2017-05-25T11:57:26Z</time>
      </trkpt>
      <trkpt lat="45.67239" lon="3.81796">
        <ele>1274.300049</ele>
        <time>2017-05-25T11:57:30Z</time>
      </trkpt>
      <trkpt lat="45.6724" lon="3.81811">
        <ele>1275.199951</ele>
        <time>2017-05-25T11:57:35Z</time>
      </trkpt>
      <trkpt lat="45.6724" lon="3.81826">
        <ele>1276.400024</ele>
        <time>2017-05-25T11:57:40Z</time>
      </trkpt>
      <trkpt lat="45.67241" lon="3.8184">
        <ele>1277.800049</ele>
        <time>2017-05-25T11:57:45Z</time>
      </trkpt>
      <trkpt lat="45.67241" lon="3.81853">
        <ele>1278.5</ele>
        <time>2017-05-25T11:57:49Z</time>
      </trkpt>
      <trkpt lat="45.67241" lon="3.81869">
        <ele>1279</ele>
        <time>2017-05-25T11:57:54Z</time>
      </trkpt>
      <trkpt lat="45.67241" lon="3.81882">
        <ele>1279.5</ele>
        <time>2017-05-25T11:57:58Z</time>
      </trkpt>
      <trkpt lat="45.67241" lon="3.81896">
        <ele>1279.800049</ele>
        <time>2017-05-25T11:58:02Z</time>
      </trkpt>
      <trkpt lat="45.67239" lon="3.8191">
        <ele>1280.400024</ele>
        <time>2017-05-25T11:58:06Z</time>
      </trkpt>
      <trkpt lat="45.67238" lon="3.81924">
        <ele>1280.800049</ele>
        <time>2017-05-25T11:58:10Z</time>
      </trkpt>
      <trkpt lat="45.67236" lon="3.8194">
        <ele>1281</ele>
        <time>2017-05-25T11:58:14Z</time>
      </trkpt>
      <trkpt lat="45.67234" lon="3.81957">
        <ele>1281.099976</ele>
        <time>2017-05-25T11:58:18Z</time>
      </trkpt>
      <trkpt lat="45.67231" lon="3.81971">
        <ele>1281.199951</ele>
        <time>2017-05-25T11:58:21Z</time>
      </trkpt>
      <trkpt lat="45.67229" lon="3.81988">
        <ele>1280.900024</ele>
        <time>2017-05-25T11:58:24Z</time>
      </trkpt>
      <trkpt lat="45.67226" lon="3.82004">
        <ele>1280.900024</ele>
        <time>2017-05-25T11:58:27Z</time>
      </trkpt>
      <trkpt lat="45.67223" lon="3.8202">
        <ele>1280.800049</ele>
        <time>2017-05-25T11:58:30Z</time>
      </trkpt>
      <trkpt lat="45.6722" lon="3.82035">
        <ele>1280.5</ele>
        <time>2017-05-25T11:58:33Z</time>
      </trkpt>
      <trkpt lat="45.67217" lon="3.8205">
        <ele>1280.400024</ele>
        <time>2017-05-25T11:58:36Z</time>
      </trkpt>
      <trkpt lat="45.67215" lon="3.82067">
        <ele>1280.400024</ele>
        <time>2017-05-25T11:58:39Z</time>
      </trkpt>
      <trkpt lat="45.67214" lon="3.82082">
        <ele>1280</ele>
        <time>2017-05-25T11:58:42Z</time>
      </trkpt>
      <trkpt lat="45.67211" lon="3.821">
        <ele>1279</ele>
        <time>2017-05-25T11:58:46Z</time>
      </trkpt>
      <trkpt lat="45.67207" lon="3.82115">
        <ele>1278.099976</ele>
        <time>2017-05-25T11:58:50Z</time>
      </trkpt>
      <trkpt lat="45.67204" lon="3.82129">
        <ele>1277.300049</ele>
        <time>2017-05-25T11:58:53Z</time>
      </trkpt>
      <trkpt lat="45.67198" lon="3.82142">
        <ele>1276.5</ele>
        <time>2017-05-25T11:58:57Z</time>
      </trkpt>
      <trkpt lat="45.67193" lon="3.82154">
        <ele>1275.800049</ele>
        <time>2017-05-25T11:59:01Z</time>
      </trkpt>
      <trkpt lat="45.67189" lon="3.82166">
        <ele>1275.300049</ele>
        <time>2017-05-25T11:59:04Z</time>
      </trkpt>
      <trkpt lat="45.67183" lon="3.82182">
        <ele>1274.099976</ele>
        <time>2017-05-25T11:59:07Z</time>
      </trkpt>
      <trkpt lat="45.6718" lon="3.82196">
        <ele>1273.300049</ele>
        <time>2017-05-25T11:59:09Z</time>
      </trkpt>
      <trkpt lat="45.67175" lon="3.82212">
        <ele>1272.400024</ele>
        <time>2017-05-25T11:59:11Z</time>
      </trkpt>
      <trkpt lat="45.67171" lon="3.82229">
        <ele>1271.599976</ele>
        <time>2017-05-25T11:59:13Z</time>
      </trkpt>
      <trkpt lat="45.67169" lon="3.82247">
        <ele>1271.199951</ele>
        <time>2017-05-25T11:59:15Z</time>
      </trkpt>
      <trkpt lat="45.67166" lon="3.82265">
        <ele>1270.300049</ele>
        <time>2017-05-25T11:59:17Z</time>
      </trkpt>
      <trkpt lat="45.67164" lon="3.82283">
        <ele>1269.599976</ele>
        <time>2017-05-25T11:59:19Z</time>
      </trkpt>
      <trkpt lat="45.67161" lon="3.82304">
        <ele>1268.599976</ele>
        <time>2017-05-25T11:59:21Z</time>
      </trkpt>
      <trkpt lat="45.67158" lon="3.82327">
        <ele>1267.800049</ele>
        <time>2017-05-25T11:59:23Z</time>
      </trkpt>
      <trkpt lat="45.67154" lon="3.8235">
        <ele>1266.800049</ele>
        <time>2017-05-25T11:59:25Z</time>
      </trkpt>
      <trkpt lat="45.67151" lon="3.82373">
        <ele>1265.5</ele>
        <time>2017-05-25T11:59:27Z</time>
      </trkpt>
      <trkpt lat="45.67147" lon="3.82395">
        <ele>1264.599976</ele>
        <time>2017-05-25T11:59:29Z</time>
      </trkpt>
      <trkpt lat="45.6714" lon="3.82421">
        <ele>1261.300049</ele>
        <time>2017-05-25T12:13:26Z</time>
      </trkpt>
      <trkpt lat="45.6713" lon="3.82433">
        <ele>1261.5</ele>
        <time>2017-05-25T12:13:29Z</time>
      </trkpt>
      <trkpt lat="45.67122" lon="3.82442">
        <ele>1261.599976</ele>
        <time>2017-05-25T12:13:31Z</time>
      </trkpt>
      <trkpt lat="45.67114" lon="3.82447">
        <ele>1261.800049</ele>
        <time>2017-05-25T12:13:33Z</time>
      </trkpt>
      <trkpt lat="45.67104" lon="3.82458">
        <ele>1262.099976</ele>
        <time>2017-05-25T12:13:36Z</time>
      </trkpt>
      <trkpt lat="45.67096" lon="3.82469">
        <ele>1262.5</ele>
        <time>2017-05-25T12:13:39Z</time>
      </trkpt>
      <trkpt lat="45.67087" lon="3.82478">
        <ele>1263.400024</ele>
        <time>2017-05-25T12:13:42Z</time>
      </trkpt>
      <trkpt lat="45.67079" lon="3.82486">
        <ele>1264.199951</ele>
        <time>2017-05-25T12:13:45Z</time>
      </trkpt>
      <trkpt lat="45.67069" lon="3.82492">
        <ele>1265</ele>
        <time>2017-05-25T12:13:48Z</time>
      </trkpt>
      <trkpt lat="45.67059" lon="3.82497">
        <ele>1265.699951</ele>
        <time>2017-05-25T12:13:51Z</time>
      </trkpt>
      <trkpt lat="45.67051" lon="3.82504">
        <ele>1266.400024</ele>
        <time>2017-05-25T12:13:54Z</time>
      </trkpt>
      <trkpt lat="45.6704" lon="3.8251">
        <ele>1267.199951</ele>
        <time>2017-05-25T12:13:57Z</time>
      </trkpt>
      <trkpt lat="45.6703" lon="3.82517">
        <ele>1267.5</ele>
        <time>2017-05-25T12:14:00Z</time>
      </trkpt>
      <trkpt lat="45.67021" lon="3.82522">
        <ele>1268.099976</ele>
        <time>2017-05-25T12:14:03Z</time>
      </trkpt>
      <trkpt lat="45.67011" lon="3.82529">
        <ele>1268.5</ele>
        <time>2017-05-25T12:14:06Z</time>
      </trkpt>
      <trkpt lat="45.66998" lon="3.82536">
        <ele>1268.900024</ele>
        <time>2017-05-25T12:14:09Z</time>
      </trkpt>
      <trkpt lat="45.66988" lon="3.82543">
        <ele>1269.199951</ele>
        <time>2017-05-25T12:14:12Z</time>
      </trkpt>
      <trkpt lat="45.66977" lon="3.82547">
        <ele>1269.599976</ele>
        <time>2017-05-25T12:14:15Z</time>
      </trkpt>
      <trkpt lat="45.66968" lon="3.82551">
        <ele>1269.800049</ele>
        <time>2017-05-25T12:14:17Z</time>
      </trkpt>
      <trkpt lat="45.66959" lon="3.82552">
        <ele>1270</ele>
        <time>2017-05-25T12:14:20Z</time>
      </trkpt>
      <trkpt lat="45.66947" lon="3.82553">
        <ele>1269.599976</ele>
        <time>2017-05-25T12:14:23Z</time>
      </trkpt>
      <trkpt lat="45.66934" lon="3.82553">
        <ele>1269.5</ele>
        <time>2017-05-25T12:14:26Z</time>
      </trkpt>
      <trkpt lat="45.66922" lon="3.82551">
        <ele>1269.199951</ele>
        <time>2017-05-25T12:14:29Z</time>
      </trkpt>
      <trkpt lat="45.6691" lon="3.82548">
        <ele>1269.199951</ele>
        <time>2017-05-25T12:14:32Z</time>
      </trkpt>
      <trkpt lat="45.66899" lon="3.82548">
        <ele>1269.699951</ele>
        <time>2017-05-25T12:14:35Z</time>
      </trkpt>
      <trkpt lat="45.66889" lon="3.82545">
        <ele>1270.300049</ele>
        <time>2017-05-25T12:14:38Z</time>
      </trkpt>
      <trkpt lat="45.6688" lon="3.8254">
        <ele>1270.800049</ele>
        <time>2017-05-25T12:14:41Z</time>
      </trkpt>
      <trkpt lat="45.66872" lon="3.82533">
        <ele>1271.400024</ele>
        <time>2017-05-25T12:14:44Z</time>
      </trkpt>
      <trkpt lat="45.66863" lon="3.82528">
        <ele>1271.900024</ele>
        <time>2017-05-25T12:14:47Z</time>
      </trkpt>
      <trkpt lat="45.66853" lon="3.82522">
        <ele>1272.599976</ele>
        <time>2017-05-25T12:14:51Z</time>
      </trkpt>
      <trkpt lat="45.66847" lon="3.82515">
        <ele>1273.900024</ele>
        <time>2017-05-25T12:20:17Z</time>
      </trkpt>
      <trkpt lat="45.66837" lon="3.82512">
        <ele>1274.099976</ele>
        <time>2017-05-25T12:20:41Z</time>
      </trkpt>
      <trkpt lat="45.66826" lon="3.8251">
        <ele>1274.400024</ele>
        <time>2017-05-25T12:20:45Z</time>
      </trkpt>
      <trkpt lat="45.66814" lon="3.82511">
        <ele>1274.400024</ele>
        <time>2017-05-25T12:20:48Z</time>
      </trkpt>
      <trkpt lat="45.66805" lon="3.82512">
        <ele>1274.5</ele>
        <time>2017-05-25T12:20:50Z</time>
      </trkpt>
      <trkpt lat="45.66795" lon="3.82516">
        <ele>1274.300049</ele>
        <time>2017-05-25T12:20:52Z</time>
      </trkpt>
      <trkpt lat="45.66785" lon="3.82521">
        <ele>1273.900024</ele>
        <time>2017-05-25T12:20:54Z</time>
      </trkpt>
      <trkpt lat="45.66777" lon="3.8253">
        <ele>1273.699951</ele>
        <time>2017-05-25T12:20:56Z</time>
      </trkpt>
      <trkpt lat="45.66768" lon="3.82541">
        <ele>1273.5</ele>
        <time>2017-05-25T12:20:58Z</time>
      </trkpt>
      <trkpt lat="45.66761" lon="3.82551">
        <ele>1273.400024</ele>
        <time>2017-05-25T12:21:00Z</time>
      </trkpt>
      <trkpt lat="45.66752" lon="3.82565">
        <ele>1273.300049</ele>
        <time>2017-05-25T12:21:03Z</time>
      </trkpt>
      <trkpt lat="45.66745" lon="3.82575">
        <ele>1273.5</ele>
        <time>2017-05-25T12:21:06Z</time>
      </trkpt>
      <trkpt lat="45.66737" lon="3.82584">
        <ele>1274.400024</ele>
        <time>2017-05-25T12:21:10Z</time>
      </trkpt>
      <trkpt lat="45.66729" lon="3.82591">
        <ele>1274.900024</ele>
        <time>2017-05-25T12:21:14Z</time>
      </trkpt>
      <trkpt lat="45.66721" lon="3.82599">
        <ele>1275.400024</ele>
        <time>2017-05-25T12:21:18Z</time>
      </trkpt>
      <trkpt lat="45.66714" lon="3.8261">
        <ele>1276.199951</ele>
        <time>2017-05-25T12:21:23Z</time>
      </trkpt>
      <trkpt lat="45.66708" lon="3.82621">
        <ele>1276.800049</ele>
        <time>2017-05-25T12:21:28Z</time>
      </trkpt>
      <trkpt lat="45.66701" lon="3.82631">
        <ele>1277.699951</ele>
        <time>2017-05-25T12:21:33Z</time>
      </trkpt>
      <trkpt lat="45.66695" lon="3.82642">
        <ele>1278.900024</ele>
        <time>2017-05-25T12:21:39Z</time>
      </trkpt>
      <trkpt lat="45.66689" lon="3.82653">
        <ele>1280.5</ele>
        <time>2017-05-25T12:21:45Z</time>
      </trkpt>
      <trkpt lat="45.66683" lon="3.82662">
        <ele>1281.300049</ele>
        <time>2017-05-25T12:21:49Z</time>
      </trkpt>
      <trkpt lat="45.66676" lon="3.82672">
        <ele>1282.199951</ele>
        <time>2017-05-25T12:21:53Z</time>
      </trkpt>
      <trkpt lat="45.6667" lon="3.82681">
        <ele>1282.699951</ele>
        <time>2017-05-25T12:21:57Z</time>
      </trkpt>
      <trkpt lat="45.66663" lon="3.82694">
        <ele>1283.5</ele>
        <time>2017-05-25T12:22:01Z</time>
      </trkpt>
      <trkpt lat="45.66656" lon="3.82703">
        <ele>1283.800049</ele>
        <time>2017-05-25T12:22:04Z</time>
      </trkpt>
      <trkpt lat="45.66649" lon="3.82712">
        <ele>1284.300049</ele>
        <time>2017-05-25T12:22:08Z</time>
      </trkpt>
      <trkpt lat="45.66641" lon="3.82721">
        <ele>1285.699951</ele>
        <time>2017-05-25T12:22:14Z</time>
      </trkpt>
      <trkpt lat="45.66631" lon="3.82726">
        <ele>1286.800049</ele>
        <time>2017-05-25T12:22:20Z</time>
      </trkpt>
      <trkpt lat="45.66621" lon="3.82728">
        <ele>1288.099976</ele>
        <time>2017-05-25T12:22:26Z</time>
      </trkpt>
      <trkpt lat="45.66611" lon="3.82728">
        <ele>1289.400024</ele>
        <time>2017-05-25T12:22:32Z</time>
      </trkpt>
      <trkpt lat="45.666" lon="3.82729">
        <ele>1290.699951</ele>
        <time>2017-05-25T12:22:38Z</time>
      </trkpt>
      <trkpt lat="45.6659" lon="3.82732">
        <ele>1291.5</ele>
        <time>2017-05-25T12:22:44Z</time>
      </trkpt>
      <trkpt lat="45.66579" lon="3.82735">
        <ele>1292.199951</ele>
        <time>2017-05-25T12:22:49Z</time>
      </trkpt>
      <trkpt lat="45.6657" lon="3.82736">
        <ele>1292.599976</ele>
        <time>2017-05-25T12:22:53Z</time>
      </trkpt>
      <trkpt lat="45.66558" lon="3.82736">
        <ele>1293.199951</ele>
        <time>2017-05-25T12:22:58Z</time>
      </trkpt>
      <trkpt lat="45.66549" lon="3.82734">
        <ele>1293.400024</ele>
        <time>2017-05-25T12:23:02Z</time>
      </trkpt>
      <trkpt lat="45.6654" lon="3.8273">
        <ele>1293.699951</ele>
        <time>2017-05-25T12:23:07Z</time>
      </trkpt>
      <trkpt lat="45.66531" lon="3.82727">
        <ele>1294.5</ele>
        <time>2017-05-25T12:23:20Z</time>
      </trkpt>
      <trkpt lat="45.66519" lon="3.82727">
        <ele>1294.5</ele>
        <time>2017-05-25T12:23:26Z</time>
      </trkpt>
      <trkpt lat="45.66507" lon="3.82727">
        <ele>1294.699951</ele>
        <time>2017-05-25T12:23:30Z</time>
      </trkpt>
      <trkpt lat="45.66496" lon="3.82725">
        <ele>1294.699951</ele>
        <time>2017-05-25T12:23:34Z</time>
      </trkpt>
      <trkpt lat="45.66486" lon="3.82723">
        <ele>1294.800049</ele>
        <time>2017-05-25T12:23:37Z</time>
      </trkpt>
      <trkpt lat="45.66477" lon="3.82721">
        <ele>1294.800049</ele>
        <time>2017-05-25T12:23:40Z</time>
      </trkpt>
      <trkpt lat="45.66466" lon="3.82721">
        <ele>1295</ele>
        <time>2017-05-25T12:23:44Z</time>
      </trkpt>
      <trkpt lat="45.66455" lon="3.82718">
        <ele>1295.300049</ele>
        <time>2017-05-25T12:23:48Z</time>
      </trkpt>
      <trkpt lat="45.66445" lon="3.82717">
        <ele>1295.800049</ele>
        <time>2017-05-25T12:23:52Z</time>
      </trkpt>
      <trkpt lat="45.66436" lon="3.82717">
        <ele>1295.900024</ele>
        <time>2017-05-25T12:23:55Z</time>
      </trkpt>
      <trkpt lat="45.66427" lon="3.82717">
        <ele>1295.900024</ele>
        <time>2017-05-25T12:23:57Z</time>
      </trkpt>
      <trkpt lat="45.66417" lon="3.82717">
        <ele>1295.800049</ele>
        <time>2017-05-25T12:23:59Z</time>
      </trkpt>
      <trkpt lat="45.66406" lon="3.82715">
        <ele>1295.599976</ele>
        <time>2017-05-25T12:24:01Z</time>
      </trkpt>
      <trkpt lat="45.66396" lon="3.82714">
        <ele>1295.5</ele>
        <time>2017-05-25T12:24:03Z</time>
      </trkpt>
      <trkpt lat="45.66386" lon="3.82711">
        <ele>1295.400024</ele>
        <time>2017-05-25T12:24:05Z</time>
      </trkpt>
      <trkpt lat="45.66375" lon="3.82712">
        <ele>1295.400024</ele>
        <time>2017-05-25T12:24:08Z</time>
      </trkpt>
      <trkpt lat="45.66365" lon="3.82715">
        <ele>1296.300049</ele>
        <time>2017-05-25T12:24:12Z</time>
      </trkpt>
      <trkpt lat="45.66356" lon="3.82716">
        <ele>1297</ele>
        <time>2017-05-25T12:24:16Z</time>
      </trkpt>
      <trkpt lat="45.66345" lon="3.82716">
        <ele>1297.900024</ele>
        <time>2017-05-25T12:24:20Z</time>
      </trkpt>
      <trkpt lat="45.66335" lon="3.82716">
        <ele>1298.400024</ele>
        <time>2017-05-25T12:24:23Z</time>
      </trkpt>
      <trkpt lat="45.66325" lon="3.82712">
        <ele>1299.300049</ele>
        <time>2017-05-25T12:24:27Z</time>
      </trkpt>
      <trkpt lat="45.66316" lon="3.82707">
        <ele>1300.199951</ele>
        <time>2017-05-25T12:24:31Z</time>
      </trkpt>
      <trkpt lat="45.66307" lon="3.82704">
        <ele>1301.199951</ele>
        <time>2017-05-25T12:24:35Z</time>
      </trkpt>
      <trkpt lat="45.66296" lon="3.827">
        <ele>1302.199951</ele>
        <time>2017-05-25T12:24:39Z</time>
      </trkpt>
      <trkpt lat="45.66287" lon="3.82696">
        <ele>1303.199951</ele>
        <time>2017-05-25T12:24:43Z</time>
      </trkpt>
      <trkpt lat="45.66276" lon="3.82692">
        <ele>1303.699951</ele>
        <time>2017-05-25T12:24:47Z</time>
      </trkpt>
      <trkpt lat="45.66267" lon="3.8269">
        <ele>1304.199951</ele>
        <time>2017-05-25T12:24:51Z</time>
      </trkpt>
      <trkpt lat="45.66256" lon="3.82692">
        <ele>1304.900024</ele>
        <time>2017-05-25T12:24:56Z</time>
      </trkpt>
      <trkpt lat="45.66246" lon="3.82693">
        <ele>1305.400024</ele>
        <time>2017-05-25T12:25:01Z</time>
      </trkpt>
      <trkpt lat="45.66235" lon="3.82694">
        <ele>1306.300049</ele>
        <time>2017-05-25T12:25:07Z</time>
      </trkpt>
      <trkpt lat="45.66225" lon="3.82696">
        <ele>1306.599976</ele>
        <time>2017-05-25T12:25:12Z</time>
      </trkpt>
      <trkpt lat="45.66215" lon="3.82699">
        <ele>1307.099976</ele>
        <time>2017-05-25T12:25:17Z</time>
      </trkpt>
      <trkpt lat="45.66205" lon="3.82703">
        <ele>1307.900024</ele>
        <time>2017-05-25T12:25:22Z</time>
      </trkpt>
      <trkpt lat="45.66198" lon="3.82716">
        <ele>1308.900024</ele>
        <time>2017-05-25T12:25:28Z</time>
      </trkpt>
      <trkpt lat="45.66195" lon="3.82731">
        <ele>1309.599976</ele>
        <time>2017-05-25T12:25:32Z</time>
      </trkpt>
      <trkpt lat="45.66193" lon="3.82745">
        <ele>1310</ele>
        <time>2017-05-25T12:25:36Z</time>
      </trkpt>
      <trkpt lat="45.66193" lon="3.8276">
        <ele>1310.5</ele>
        <time>2017-05-25T12:25:41Z</time>
      </trkpt>
      <trkpt lat="45.66192" lon="3.82774">
        <ele>1311.099976</ele>
        <time>2017-05-25T12:25:46Z</time>
      </trkpt>
      <trkpt lat="45.66192" lon="3.82787">
        <ele>1312.099976</ele>
        <time>2017-05-25T12:25:51Z</time>
      </trkpt>
      <trkpt lat="45.66193" lon="3.82802">
        <ele>1313</ele>
        <time>2017-05-25T12:25:56Z</time>
      </trkpt>
      <trkpt lat="45.66192" lon="3.82815">
        <ele>1313.699951</ele>
        <time>2017-05-25T12:26:01Z</time>
      </trkpt>
      <trkpt lat="45.66192" lon="3.82828">
        <ele>1314.5</ele>
        <time>2017-05-25T12:26:06Z</time>
      </trkpt>
      <trkpt lat="45.66192" lon="3.82844">
        <ele>1315.5</ele>
        <time>2017-05-25T12:26:11Z</time>
      </trkpt>
      <trkpt lat="45.66191" lon="3.82859">
        <ele>1316.099976</ele>
        <time>2017-05-25T12:26:16Z</time>
      </trkpt>
      <trkpt lat="45.66189" lon="3.82873">
        <ele>1316.099976</ele>
        <time>2017-05-25T12:26:20Z</time>
      </trkpt>
      <trkpt lat="45.66186" lon="3.82886">
        <ele>1316.099976</ele>
        <time>2017-05-25T12:26:24Z</time>
      </trkpt>
      <trkpt lat="45.66181" lon="3.82898">
        <ele>1316.199951</ele>
        <time>2017-05-25T12:26:29Z</time>
      </trkpt>
      <trkpt lat="45.66173" lon="3.82907">
        <ele>1317</ele>
        <time>2017-05-25T12:26:35Z</time>
      </trkpt>
      <trkpt lat="45.66166" lon="3.82913">
        <ele>1317.900024</ele>
        <time>2017-05-25T12:26:40Z</time>
      </trkpt>
      <trkpt lat="45.66156" lon="3.82917">
        <ele>1318.800049</ele>
        <time>2017-05-25T12:26:46Z</time>
      </trkpt>
      <trkpt lat="45.66147" lon="3.82917">
        <ele>1319.599976</ele>
        <time>2017-05-25T12:26:51Z</time>
      </trkpt>
      <trkpt lat="45.66137" lon="3.82916">
        <ele>1320.300049</ele>
        <time>2017-05-25T12:26:56Z</time>
      </trkpt>
      <trkpt lat="45.66127" lon="3.82912">
        <ele>1321.099976</ele>
        <time>2017-05-25T12:27:01Z</time>
      </trkpt>
      <trkpt lat="45.66118" lon="3.8291">
        <ele>1321.599976</ele>
        <time>2017-05-25T12:27:05Z</time>
      </trkpt>
      <trkpt lat="45.66107" lon="3.82908">
        <ele>1321.900024</ele>
        <time>2017-05-25T12:27:09Z</time>
      </trkpt>
      <trkpt lat="45.66097" lon="3.82908">
        <ele>1322</ele>
        <time>2017-05-25T12:27:12Z</time>
      </trkpt>
      <trkpt lat="45.66086" lon="3.82908">
        <ele>1322</ele>
        <time>2017-05-25T12:27:15Z</time>
      </trkpt>
      <trkpt lat="45.66077" lon="3.82906">
        <ele>1322.099976</ele>
        <time>2017-05-25T12:27:18Z</time>
      </trkpt>
      <trkpt lat="45.66066" lon="3.82901">
        <ele>1322.199951</ele>
        <time>2017-05-25T12:27:21Z</time>
      </trkpt>
      <trkpt lat="45.66054" lon="3.82895">
        <ele>1322</ele>
        <time>2017-05-25T12:27:24Z</time>
      </trkpt>
      <trkpt lat="45.66043" lon="3.8289">
        <ele>1322</ele>
        <time>2017-05-25T12:27:27Z</time>
      </trkpt>
      <trkpt lat="45.66032" lon="3.82886">
        <ele>1321.800049</ele>
        <time>2017-05-25T12:27:30Z</time>
      </trkpt>
      <trkpt lat="45.6602" lon="3.82882">
        <ele>1321.800049</ele>
        <time>2017-05-25T12:27:33Z</time>
      </trkpt>
      <trkpt lat="45.6601" lon="3.82877">
        <ele>1321.800049</ele>
        <time>2017-05-25T12:27:36Z</time>
      </trkpt>
      <trkpt lat="45.65999" lon="3.82872">
        <ele>1321.699951</ele>
        <time>2017-05-25T12:27:39Z</time>
      </trkpt>
      <trkpt lat="45.65989" lon="3.82869">
        <ele>1321.599976</ele>
        <time>2017-05-25T12:27:42Z</time>
      </trkpt>
      <trkpt lat="45.65978" lon="3.82868">
        <ele>1321.400024</ele>
        <time>2017-05-25T12:27:45Z</time>
      </trkpt>
      <trkpt lat="45.65967" lon="3.82874">
        <ele>1321</ele>
        <time>2017-05-25T12:27:48Z</time>
      </trkpt>
      <trkpt lat="45.65955" lon="3.8288">
        <ele>1320.699951</ele>
        <time>2017-05-25T12:27:51Z</time>
      </trkpt>
      <trkpt lat="45.65942" lon="3.82885">
        <ele>1320.400024</ele>
        <time>2017-05-25T12:27:54Z</time>
      </trkpt>
      <trkpt lat="45.65932" lon="3.82891">
        <ele>1320.099976</ele>
        <time>2017-05-25T12:27:56Z</time>
      </trkpt>
      <trkpt lat="45.65922" lon="3.82897">
        <ele>1319.900024</ele>
        <time>2017-05-25T12:27:58Z</time>
      </trkpt>
      <trkpt lat="45.65914" lon="3.82902">
        <ele>1319.599976</ele>
        <time>2017-05-25T12:28:00Z</time>
      </trkpt>
      <trkpt lat="45.65904" lon="3.82912">
        <ele>1319.599976</ele>
        <time>2017-05-25T12:28:03Z</time>
      </trkpt>
      <trkpt lat="45.65895" lon="3.82923">
        <ele>1319.900024</ele>
        <time>2017-05-25T12:28:06Z</time>
      </trkpt>
      <trkpt lat="45.65885" lon="3.82935">
        <ele>1320.400024</ele>
        <time>2017-05-25T12:28:09Z</time>
      </trkpt>
      <trkpt lat="45.65874" lon="3.82946">
        <ele>1320.199951</ele>
        <time>2017-05-25T12:28:12Z</time>
      </trkpt>
      <trkpt lat="45.65865" lon="3.82952">
        <ele>1320.099976</ele>
        <time>2017-05-25T12:28:14Z</time>
      </trkpt>
      <trkpt lat="45.65857" lon="3.82957">
        <ele>1319.900024</ele>
        <time>2017-05-25T12:28:16Z</time>
      </trkpt>
      <trkpt lat="45.65846" lon="3.82959">
        <ele>1319.400024</ele>
        <time>2017-05-25T12:28:18Z</time>
      </trkpt>
      <trkpt lat="45.65836" lon="3.82957">
        <ele>1319</ele>
        <time>2017-05-25T12:28:20Z</time>
      </trkpt>
      <trkpt lat="45.65825" lon="3.82952">
        <ele>1318.699951</ele>
        <time>2017-05-25T12:28:22Z</time>
      </trkpt>
      <trkpt lat="45.65813" lon="3.82945">
        <ele>1318</ele>
        <time>2017-05-25T12:28:24Z</time>
      </trkpt>
      <trkpt lat="45.65799" lon="3.82935">
        <ele>1317.199951</ele>
        <time>2017-05-25T12:28:26Z</time>
      </trkpt>
      <trkpt lat="45.65783" lon="3.82926">
        <ele>1316.099976</ele>
        <time>2017-05-25T12:28:28Z</time>
      </trkpt>
      <trkpt lat="45.65768" lon="3.82919">
        <ele>1315.199951</ele>
        <time>2017-05-25T12:28:30Z</time>
      </trkpt>
      <trkpt lat="45.6575" lon="3.82915">
        <ele>1314.099976</ele>
        <time>2017-05-25T12:28:32Z</time>
      </trkpt>
      <trkpt lat="45.6574" lon="3.82915">
        <ele>1313.199951</ele>
        <time>2017-05-25T12:28:33Z</time>
      </trkpt>
      <trkpt lat="45.6573" lon="3.82914">
        <ele>1312.599976</ele>
        <time>2017-05-25T12:28:34Z</time>
      </trkpt>
      <trkpt lat="45.65714" lon="3.82908">
        <ele>1311.300049</ele>
        <time>2017-05-25T12:28:36Z</time>
      </trkpt>
      <trkpt lat="45.657" lon="3.829">
        <ele>1310.400024</ele>
        <time>2017-05-25T12:28:38Z</time>
      </trkpt>
      <trkpt lat="45.6569" lon="3.82894">
        <ele>1309.199951</ele>
        <time>2017-05-25T12:28:40Z</time>
      </trkpt>
      <trkpt lat="45.65678" lon="3.82893">
        <ele>1307.800049</ele>
        <time>2017-05-25T12:28:43Z</time>
      </trkpt>
      <trkpt lat="45.65667" lon="3.82891">
        <ele>1306.699951</ele>
        <time>2017-05-25T12:28:46Z</time>
      </trkpt>
      <trkpt lat="45.65655" lon="3.8289">
        <ele>1306</ele>
        <time>2017-05-25T12:28:49Z</time>
      </trkpt>
      <trkpt lat="45.65644" lon="3.82895">
        <ele>1305.699951</ele>
        <time>2017-05-25T12:28:52Z</time>
      </trkpt>
      <trkpt lat="45.65634" lon="3.82905">
        <ele>1305.300049</ele>
        <time>2017-05-25T12:28:56Z</time>
      </trkpt>
      <trkpt lat="45.65627" lon="3.82917">
        <ele>1304.900024</ele>
        <time>2017-05-25T12:29:00Z</time>
      </trkpt>
      <trkpt lat="45.65621" lon="3.8293">
        <ele>1304.699951</ele>
        <time>2017-05-25T12:29:03Z</time>
      </trkpt>
      <trkpt lat="45.65617" lon="3.82942">
        <ele>1304.800049</ele>
        <time>2017-05-25T12:29:06Z</time>
      </trkpt>
      <trkpt lat="45.65613" lon="3.82957">
        <ele>1304.5</ele>
        <time>2017-05-25T12:29:10Z</time>
      </trkpt>
      <trkpt lat="45.65611" lon="3.82971">
        <ele>1304.199951</ele>
        <time>2017-05-25T12:29:13Z</time>
      </trkpt>
      <trkpt lat="45.65608" lon="3.82984">
        <ele>1303.699951</ele>
        <time>2017-05-25T12:29:15Z</time>
      </trkpt>
      <trkpt lat="45.65604" lon="3.83001">
        <ele>1303.099976</ele>
        <time>2017-05-25T12:29:17Z</time>
      </trkpt>
      <trkpt lat="45.65601" lon="3.83019">
        <ele>1302.300049</ele>
        <time>2017-05-25T12:29:19Z</time>
      </trkpt>
      <trkpt lat="45.65596" lon="3.83038">
        <ele>1301.699951</ele>
        <time>2017-05-25T12:29:21Z</time>
      </trkpt>
      <trkpt lat="45.65594" lon="3.83063">
        <ele>1300.400024</ele>
        <time>2017-05-25T12:29:23Z</time>
      </trkpt>
      <trkpt lat="45.65589" lon="3.83083">
        <ele>1299.400024</ele>
        <time>2017-05-25T12:29:25Z</time>
      </trkpt>
      <trkpt lat="45.65588" lon="3.83097">
        <ele>1299.099976</ele>
        <time>2017-05-25T12:29:27Z</time>
      </trkpt>
      <trkpt lat="45.65588" lon="3.83111">
        <ele>1299.099976</ele>
        <time>2017-05-25T12:29:29Z</time>
      </trkpt>
      <trkpt lat="45.65589" lon="3.83127">
        <ele>1299</ele>
        <time>2017-05-25T12:29:32Z</time>
      </trkpt>
      <trkpt lat="45.65589" lon="3.83143">
        <ele>1299</ele>
        <time>2017-05-25T12:29:35Z</time>
      </trkpt>
      <trkpt lat="45.65587" lon="3.8316">
        <ele>1299.300049</ele>
        <time>2017-05-25T12:29:38Z</time>
      </trkpt>
      <trkpt lat="45.65584" lon="3.83173">
        <ele>1299.099976</ele>
        <time>2017-05-25T12:29:40Z</time>
      </trkpt>
      <trkpt lat="45.6558" lon="3.83189">
        <ele>1298.699951</ele>
        <time>2017-05-25T12:29:43Z</time>
      </trkpt>
      <trkpt lat="45.65575" lon="3.83202">
        <ele>1298.300049</ele>
        <time>2017-05-25T12:29:45Z</time>
      </trkpt>
      <trkpt lat="45.6557" lon="3.83219">
        <ele>1297.900024</ele>
        <time>2017-05-25T12:29:47Z</time>
      </trkpt>
      <trkpt lat="45.65567" lon="3.83234">
        <ele>1297.599976</ele>
        <time>2017-05-25T12:29:49Z</time>
      </trkpt>
      <trkpt lat="45.65566" lon="3.83252">
        <ele>1297.400024</ele>
        <time>2017-05-25T12:29:52Z</time>
      </trkpt>
      <trkpt lat="45.65563" lon="3.83267">
        <ele>1297.300049</ele>
        <time>2017-05-25T12:29:55Z</time>
      </trkpt>
      <trkpt lat="45.65561" lon="3.83282">
        <ele>1297.699951</ele>
        <time>2017-05-25T12:29:58Z</time>
      </trkpt>
      <trkpt lat="45.65559" lon="3.83298">
        <ele>1297.900024</ele>
        <time>2017-05-25T12:30:01Z</time>
      </trkpt>
      <trkpt lat="45.65559" lon="3.83315">
        <ele>1298.300049</ele>
        <time>2017-05-25T12:30:04Z</time>
      </trkpt>
      <trkpt lat="45.65559" lon="3.83329">
        <ele>1298.599976</ele>
        <time>2017-05-25T12:30:07Z</time>
      </trkpt>
      <trkpt lat="45.65559" lon="3.83343">
        <ele>1298.800049</ele>
        <time>2017-05-25T12:30:10Z</time>
      </trkpt>
      <trkpt lat="45.65558" lon="3.83359">
        <ele>1298.900024</ele>
        <time>2017-05-25T12:30:13Z</time>
      </trkpt>
      <trkpt lat="45.65558" lon="3.83374">
        <ele>1299</ele>
        <time>2017-05-25T12:30:16Z</time>
      </trkpt>
      <trkpt lat="45.65561" lon="3.83387">
        <ele>1299.199951</ele>
        <time>2017-05-25T12:30:19Z</time>
      </trkpt>
      <trkpt lat="45.65562" lon="3.834">
        <ele>1299.599976</ele>
        <time>2017-05-25T12:30:22Z</time>
      </trkpt>
      <trkpt lat="45.65566" lon="3.83414">
        <ele>1300</ele>
        <time>2017-05-25T12:30:25Z</time>
      </trkpt>
      <trkpt lat="45.65571" lon="3.83428">
        <ele>1300.199951</ele>
        <time>2017-05-25T12:30:28Z</time>
      </trkpt>
      <trkpt lat="45.65576" lon="3.8344">
        <ele>1300.5</ele>
        <time>2017-05-25T12:30:31Z</time>
      </trkpt>
      <trkpt lat="45.6558" lon="3.83454">
        <ele>1301.099976</ele>
        <time>2017-05-25T12:30:35Z</time>
      </trkpt>
      <trkpt lat="45.65583" lon="3.83468">
        <ele>1302</ele>
        <time>2017-05-25T12:30:40Z</time>
      </trkpt>
      <trkpt lat="45.6559" lon="3.83481">
        <ele>1303.199951</ele>
        <time>2017-05-25T12:30:45Z</time>
      </trkpt>
      <trkpt lat="45.65595" lon="3.83493">
        <ele>1304.199951</ele>
        <time>2017-05-25T12:30:50Z</time>
      </trkpt>
      <trkpt lat="45.65604" lon="3.83504">
        <ele>1305.099976</ele>
        <time>2017-05-25T12:30:55Z</time>
      </trkpt>
      <trkpt lat="45.65612" lon="3.83511">
        <ele>1305.599976</ele>
        <time>2017-05-25T12:30:59Z</time>
      </trkpt>
      <trkpt lat="45.65622" lon="3.83517">
        <ele>1306</ele>
        <time>2017-05-25T12:31:03Z</time>
      </trkpt>
      <trkpt lat="45.6563" lon="3.83523">
        <ele>1306.300049</ele>
        <time>2017-05-25T12:31:07Z</time>
      </trkpt>
      <trkpt lat="45.6564" lon="3.8353">
        <ele>1306.900024</ele>
        <time>2017-05-25T12:31:12Z</time>
      </trkpt>
      <trkpt lat="45.65648" lon="3.83535">
        <ele>1307.400024</ele>
        <time>2017-05-25T12:31:16Z</time>
      </trkpt>
      <trkpt lat="45.65658" lon="3.83541">
        <ele>1307.900024</ele>
        <time>2017-05-25T12:31:20Z</time>
      </trkpt>
      <trkpt lat="45.65668" lon="3.83546">
        <ele>1308.400024</ele>
        <time>2017-05-25T12:31:24Z</time>
      </trkpt>
      <trkpt lat="45.65678" lon="3.83552">
        <ele>1309</ele>
        <time>2017-05-25T12:31:28Z</time>
      </trkpt>
      <trkpt lat="45.65687" lon="3.83557">
        <ele>1309.300049</ele>
        <time>2017-05-25T12:31:32Z</time>
      </trkpt>
      <trkpt lat="45.65696" lon="3.83564">
        <ele>1309.400024</ele>
        <time>2017-05-25T12:31:36Z</time>
      </trkpt>
      <trkpt lat="45.65706" lon="3.83567">
        <ele>1309.900024</ele>
        <time>2017-05-25T12:31:40Z</time>
      </trkpt>
      <trkpt lat="45.65716" lon="3.8357">
        <ele>1310.599976</ele>
        <time>2017-05-25T12:31:45Z</time>
      </trkpt>
      <trkpt lat="45.65727" lon="3.83575">
        <ele>1311.400024</ele>
        <time>2017-05-25T12:31:50Z</time>
      </trkpt>
      <trkpt lat="45.65736" lon="3.83579">
        <ele>1311.5</ele>
        <time>2017-05-25T12:31:54Z</time>
      </trkpt>
      <trkpt lat="45.65745" lon="3.83588">
        <ele>1311.900024</ele>
        <time>2017-05-25T12:31:58Z</time>
      </trkpt>
      <trkpt lat="45.65755" lon="3.83596">
        <ele>1312.099976</ele>
        <time>2017-05-25T12:32:02Z</time>
      </trkpt>
      <trkpt lat="45.65764" lon="3.83603">
        <ele>1312.400024</ele>
        <time>2017-05-25T12:32:06Z</time>
      </trkpt>
      <trkpt lat="45.65772" lon="3.83612">
        <ele>1312.599976</ele>
        <time>2017-05-25T12:32:10Z</time>
      </trkpt>
      <trkpt lat="45.6578" lon="3.83621">
        <ele>1312.699951</ele>
        <time>2017-05-25T12:32:14Z</time>
      </trkpt>
      <trkpt lat="45.65788" lon="3.83629">
        <ele>1312.800049</ele>
        <time>2017-05-25T12:32:17Z</time>
      </trkpt>
      <trkpt lat="45.65799" lon="3.83634">
        <ele>1312.5</ele>
        <time>2017-05-25T12:32:21Z</time>
      </trkpt>
      <trkpt lat="45.65808" lon="3.83639">
        <ele>1312.599976</ele>
        <time>2017-05-25T12:32:24Z</time>
      </trkpt>
      <trkpt lat="45.65816" lon="3.83646">
        <ele>1312.599976</ele>
        <time>2017-05-25T12:32:27Z</time>
      </trkpt>
      <trkpt lat="45.65825" lon="3.83653">
        <ele>1312.800049</ele>
        <time>2017-05-25T12:32:30Z</time>
      </trkpt>
      <trkpt lat="45.65833" lon="3.83662">
        <ele>1312.900024</ele>
        <time>2017-05-25T12:32:33Z</time>
      </trkpt>
      <trkpt lat="45.65842" lon="3.8367">
        <ele>1313.099976</ele>
        <time>2017-05-25T12:32:36Z</time>
      </trkpt>
      <trkpt lat="45.65849" lon="3.83678">
        <ele>1313.300049</ele>
        <time>2017-05-25T12:32:39Z</time>
      </trkpt>
      <trkpt lat="45.65857" lon="3.83685">
        <ele>1313.699951</ele>
        <time>2017-05-25T12:32:42Z</time>
      </trkpt>
      <trkpt lat="45.65867" lon="3.83692">
        <ele>1314.199951</ele>
        <time>2017-05-25T12:32:46Z</time>
      </trkpt>
      <trkpt lat="45.65878" lon="3.837">
        <ele>1314.5</ele>
        <time>2017-05-25T12:32:50Z</time>
      </trkpt>
      <trkpt lat="45.65886" lon="3.83706">
        <ele>1314.699951</ele>
        <time>2017-05-25T12:32:53Z</time>
      </trkpt>
      <trkpt lat="45.65897" lon="3.83709">
        <ele>1315.400024</ele>
        <time>2017-05-25T12:32:57Z</time>
      </trkpt>
      <trkpt lat="45.65908" lon="3.83713">
        <ele>1316.199951</ele>
        <time>2017-05-25T12:33:01Z</time>
      </trkpt>
      <trkpt lat="45.6592" lon="3.83716">
        <ele>1316.5</ele>
        <time>2017-05-25T12:33:05Z</time>
      </trkpt>
      <trkpt lat="45.65929" lon="3.83725">
        <ele>1316.800049</ele>
        <time>2017-05-25T12:33:09Z</time>
      </trkpt>
      <trkpt lat="45.65932" lon="3.8374">
        <ele>1317.199951</ele>
        <time>2017-05-25T12:33:13Z</time>
      </trkpt>
      <trkpt lat="45.65931" lon="3.83756">
        <ele>1317.699951</ele>
        <time>2017-05-25T12:33:17Z</time>
      </trkpt>
      <trkpt lat="45.65928" lon="3.83768">
        <ele>1318</ele>
        <time>2017-05-25T12:33:21Z</time>
      </trkpt>
      <trkpt lat="45.65924" lon="3.83782">
        <ele>1318.199951</ele>
        <time>2017-05-25T12:33:24Z</time>
      </trkpt>
      <trkpt lat="45.65923" lon="3.83799">
        <ele>1318.300049</ele>
        <time>2017-05-25T12:33:28Z</time>
      </trkpt>
      <trkpt lat="45.65926" lon="3.83817">
        <ele>1318.5</ele>
        <time>2017-05-25T12:33:31Z</time>
      </trkpt>
      <trkpt lat="45.65927" lon="3.83834">
        <ele>1318.5</ele>
        <time>2017-05-25T12:33:34Z</time>
      </trkpt>
      <trkpt lat="45.65931" lon="3.83848">
        <ele>1318.5</ele>
        <time>2017-05-25T12:33:36Z</time>
      </trkpt>
      <trkpt lat="45.65935" lon="3.8386">
        <ele>1318.400024</ele>
        <time>2017-05-25T12:33:38Z</time>
      </trkpt>
      <trkpt lat="45.65938" lon="3.83874">
        <ele>1318.199951</ele>
        <time>2017-05-25T12:33:40Z</time>
      </trkpt>
      <trkpt lat="45.65949" lon="3.83884">
        <ele>1318.099976</ele>
        <time>2017-05-25T12:33:42Z</time>
      </trkpt>
      <trkpt lat="45.65962" lon="3.83891">
        <ele>1317.900024</ele>
        <time>2017-05-25T12:33:45Z</time>
      </trkpt>
      <trkpt lat="45.65971" lon="3.83894">
        <ele>1317.800049</ele>
        <time>2017-05-25T12:33:47Z</time>
      </trkpt>
      <trkpt lat="45.65982" lon="3.83902">
        <ele>1317</ele>
        <time>2017-05-25T12:33:50Z</time>
      </trkpt>
      <trkpt lat="45.65989" lon="3.83909">
        <ele>1317</ele>
        <time>2017-05-25T12:33:52Z</time>
      </trkpt>
      <trkpt lat="45.65997" lon="3.83918">
        <ele>1316.900024</ele>
        <time>2017-05-25T12:33:54Z</time>
      </trkpt>
      <trkpt lat="45.66" lon="3.83931">
        <ele>1316.800049</ele>
        <time>2017-05-25T12:33:56Z</time>
      </trkpt>
      <trkpt lat="45.66006" lon="3.83944">
        <ele>1316.599976</ele>
        <time>2017-05-25T12:33:58Z</time>
      </trkpt>
      <trkpt lat="45.6601" lon="3.83961">
        <ele>1316.5</ele>
        <time>2017-05-25T12:34:01Z</time>
      </trkpt>
      <trkpt lat="45.66016" lon="3.83977">
        <ele>1316.400024</ele>
        <time>2017-05-25T12:34:04Z</time>
      </trkpt>
      <trkpt lat="45.66019" lon="3.83993">
        <ele>1316.599976</ele>
        <time>2017-05-25T12:34:07Z</time>
      </trkpt>
      <trkpt lat="45.66021" lon="3.84009">
        <ele>1316.699951</ele>
        <time>2017-05-25T12:34:10Z</time>
      </trkpt>
      <trkpt lat="45.66024" lon="3.8403">
        <ele>1316.900024</ele>
        <time>2017-05-25T12:34:13Z</time>
      </trkpt>
      <trkpt lat="45.66024" lon="3.84045">
        <ele>1317</ele>
        <time>2017-05-25T12:34:16Z</time>
      </trkpt>
      <trkpt lat="45.66026" lon="3.84061">
        <ele>1317.400024</ele>
        <time>2017-05-25T12:34:19Z</time>
      </trkpt>
      <trkpt lat="45.66029" lon="3.84075">
        <ele>1317.699951</ele>
        <time>2017-05-25T12:34:22Z</time>
      </trkpt>
      <trkpt lat="45.66036" lon="3.84086">
        <ele>1318.099976</ele>
        <time>2017-05-25T12:34:25Z</time>
      </trkpt>
      <trkpt lat="45.66042" lon="3.84096">
        <ele>1318.699951</ele>
        <time>2017-05-25T12:34:28Z</time>
      </trkpt>
      <trkpt lat="45.66054" lon="3.84106">
        <ele>1319</ele>
        <time>2017-05-25T12:34:31Z</time>
      </trkpt>
      <trkpt lat="45.66065" lon="3.84114">
        <ele>1319.199951</ele>
        <time>2017-05-25T12:34:34Z</time>
      </trkpt>
      <trkpt lat="45.66076" lon="3.84117">
        <ele>1319.099976</ele>
        <time>2017-05-25T12:34:37Z</time>
      </trkpt>
      <trkpt lat="45.66086" lon="3.84118">
        <ele>1319.099976</ele>
        <time>2017-05-25T12:34:39Z</time>
      </trkpt>
      <trkpt lat="45.66095" lon="3.84116">
        <ele>1319.099976</ele>
        <time>2017-05-25T12:34:41Z</time>
      </trkpt>
      <trkpt lat="45.66106" lon="3.84112">
        <ele>1319.099976</ele>
        <time>2017-05-25T12:34:44Z</time>
      </trkpt>
      <trkpt lat="45.66118" lon="3.84109">
        <ele>1319.300049</ele>
        <time>2017-05-25T12:34:47Z</time>
      </trkpt>
      <trkpt lat="45.6613" lon="3.84105">
        <ele>1319.400024</ele>
        <time>2017-05-25T12:34:50Z</time>
      </trkpt>
      <trkpt lat="45.66142" lon="3.84099">
        <ele>1319.300049</ele>
        <time>2017-05-25T12:34:53Z</time>
      </trkpt>
      <trkpt lat="45.66151" lon="3.8409">
        <ele>1319.300049</ele>
        <time>2017-05-25T12:34:56Z</time>
      </trkpt>
      <trkpt lat="45.66158" lon="3.84081">
        <ele>1319.400024</ele>
        <time>2017-05-25T12:34:58Z</time>
      </trkpt>
      <trkpt lat="45.66165" lon="3.84074">
        <ele>1319.599976</ele>
        <time>2017-05-25T12:35:00Z</time>
      </trkpt>
      <trkpt lat="45.66175" lon="3.84063">
        <ele>1319.300049</ele>
        <time>2017-05-25T12:35:02Z</time>
      </trkpt>
      <trkpt lat="45.66183" lon="3.84055">
        <ele>1319.099976</ele>
        <time>2017-05-25T12:35:04Z</time>
      </trkpt>
      <trkpt lat="45.66191" lon="3.84047">
        <ele>1319</ele>
        <time>2017-05-25T12:35:06Z</time>
      </trkpt>
      <trkpt lat="45.66198" lon="3.84039">
        <ele>1319</ele>
        <time>2017-05-25T12:35:08Z</time>
      </trkpt>
      <trkpt lat="45.66205" lon="3.84025">
        <ele>1319.099976</ele>
        <time>2017-05-25T12:35:10Z</time>
      </trkpt>
      <trkpt lat="45.66215" lon="3.84012">
        <ele>1318.800049</ele>
        <time>2017-05-25T12:35:13Z</time>
      </trkpt>
      <trkpt lat="45.66222" lon="3.84003">
        <ele>1318.599976</ele>
        <time>2017-05-25T12:35:15Z</time>
      </trkpt>
      <trkpt lat="45.6623" lon="3.83993">
        <ele>1318.300049</ele>
        <time>2017-05-25T12:35:17Z</time>
      </trkpt>
      <trkpt lat="45.66237" lon="3.8398">
        <ele>1317.699951</ele>
        <time>2017-05-25T12:35:19Z</time>
      </trkpt>
      <trkpt lat="45.66249" lon="3.83957">
        <ele>1316</ele>
        <time>2017-05-25T12:35:22Z</time>
      </trkpt>
      <trkpt lat="45.66263" lon="3.83931">
        <ele>1315.800049</ele>
        <time>2017-05-25T12:35:25Z</time>
      </trkpt>
      <trkpt lat="45.66274" lon="3.83914">
        <ele>1314.800049</ele>
        <time>2017-05-25T12:35:27Z</time>
      </trkpt>
      <trkpt lat="45.66285" lon="3.83896">
        <ele>1313.800049</ele>
        <time>2017-05-25T12:35:29Z</time>
      </trkpt>
      <trkpt lat="45.66298" lon="3.83879">
        <ele>1312.900024</ele>
        <time>2017-05-25T12:35:31Z</time>
      </trkpt>
      <trkpt lat="45.66312" lon="3.83864">
        <ele>1311.900024</ele>
        <time>2017-05-25T12:35:33Z</time>
      </trkpt>
      <trkpt lat="45.66325" lon="3.8385">
        <ele>1311.300049</ele>
        <time>2017-05-25T12:35:35Z</time>
      </trkpt>
      <trkpt lat="45.66339" lon="3.83841">
        <ele>1310.699951</ele>
        <time>2017-05-25T12:35:37Z</time>
      </trkpt>
      <trkpt lat="45.66351" lon="3.83834">
        <ele>1310.300049</ele>
        <time>2017-05-25T12:35:39Z</time>
      </trkpt>
      <trkpt lat="45.66362" lon="3.83828">
        <ele>1310</ele>
        <time>2017-05-25T12:35:41Z</time>
      </trkpt>
      <trkpt lat="45.66373" lon="3.83823">
        <ele>1309.800049</ele>
        <time>2017-05-25T12:35:43Z</time>
      </trkpt>
      <trkpt lat="45.66383" lon="3.83822">
        <ele>1309.699951</ele>
        <time>2017-05-25T12:35:45Z</time>
      </trkpt>
      <trkpt lat="45.66392" lon="3.83821">
        <ele>1309.699951</ele>
        <time>2017-05-25T12:35:47Z</time>
      </trkpt>
      <trkpt lat="45.66404" lon="3.8382">
        <ele>1310</ele>
        <time>2017-05-25T12:35:50Z</time>
      </trkpt>
      <trkpt lat="45.66414" lon="3.83823">
        <ele>1310.199951</ele>
        <time>2017-05-25T12:35:53Z</time>
      </trkpt>
      <trkpt lat="45.66424" lon="3.83826">
        <ele>1311.099976</ele>
        <time>2017-05-25T12:35:57Z</time>
      </trkpt>
      <trkpt lat="45.66435" lon="3.83821">
        <ele>1311.5</ele>
        <time>2017-05-25T12:36:01Z</time>
      </trkpt>
      <trkpt lat="45.66444" lon="3.83824">
        <ele>1311.800049</ele>
        <time>2017-05-25T12:36:05Z</time>
      </trkpt>
      <trkpt lat="45.66455" lon="3.83829">
        <ele>1312</ele>
        <time>2017-05-25T12:36:10Z</time>
      </trkpt>
      <trkpt lat="45.66464" lon="3.83836">
        <ele>1313.5</ele>
        <time>2017-05-25T12:36:14Z</time>
      </trkpt>
      <trkpt lat="45.66472" lon="3.83844">
        <ele>1314.199951</ele>
        <time>2017-05-25T12:36:18Z</time>
      </trkpt>
      <trkpt lat="45.6648" lon="3.83854">
        <ele>1314.900024</ele>
        <time>2017-05-25T12:36:23Z</time>
      </trkpt>
      <trkpt lat="45.66488" lon="3.83865">
        <ele>1315.599976</ele>
        <time>2017-05-25T12:36:28Z</time>
      </trkpt>
      <trkpt lat="45.66494" lon="3.83876">
        <ele>1316.800049</ele>
        <time>2017-05-25T12:36:33Z</time>
      </trkpt>
      <trkpt lat="45.66499" lon="3.8389">
        <ele>1317.5</ele>
        <time>2017-05-25T12:36:39Z</time>
      </trkpt>
      <trkpt lat="45.66502" lon="3.83902">
        <ele>1318.099976</ele>
        <time>2017-05-25T12:36:45Z</time>
      </trkpt>
      <trkpt lat="45.66507" lon="3.83914">
        <ele>1319.199951</ele>
        <time>2017-05-25T12:36:51Z</time>
      </trkpt>
      <trkpt lat="45.66515" lon="3.83924">
        <ele>1319.900024</ele>
        <time>2017-05-25T12:36:56Z</time>
      </trkpt>
      <trkpt lat="45.66522" lon="3.83935">
        <ele>1320.599976</ele>
        <time>2017-05-25T12:37:01Z</time>
      </trkpt>
      <trkpt lat="45.66525" lon="3.83948">
        <ele>1321.199951</ele>
        <time>2017-05-25T12:37:06Z</time>
      </trkpt>
      <trkpt lat="45.66528" lon="3.83961">
        <ele>1322.199951</ele>
        <time>2017-05-25T12:37:11Z</time>
      </trkpt>
      <trkpt lat="45.66527" lon="3.83976">
        <ele>1323.300049</ele>
        <time>2017-05-25T12:37:18Z</time>
      </trkpt>
      <trkpt lat="45.66521" lon="3.83989">
        <ele>1324.5</ele>
        <time>2017-05-25T12:37:24Z</time>
      </trkpt>
      <trkpt lat="45.66515" lon="3.84">
        <ele>1325.400024</ele>
        <time>2017-05-25T12:37:29Z</time>
      </trkpt>
      <trkpt lat="45.66508" lon="3.8401">
        <ele>1326.099976</ele>
        <time>2017-05-25T12:37:34Z</time>
      </trkpt>
      <trkpt lat="45.66499" lon="3.84013">
        <ele>1327.099976</ele>
        <time>2017-05-25T12:37:40Z</time>
      </trkpt>
      <trkpt lat="45.66489" lon="3.84016">
        <ele>1327.900024</ele>
        <time>2017-05-25T12:37:45Z</time>
      </trkpt>
      <trkpt lat="45.66479" lon="3.84019">
        <ele>1328.699951</ele>
        <time>2017-05-25T12:37:51Z</time>
      </trkpt>
      <trkpt lat="45.66469" lon="3.84022">
        <ele>1329.199951</ele>
        <time>2017-05-25T12:37:57Z</time>
      </trkpt>
      <trkpt lat="45.6646" lon="3.84025">
        <ele>1330</ele>
        <time>2017-05-25T12:38:02Z</time>
      </trkpt>
      <trkpt lat="45.6645" lon="3.84028">
        <ele>1330.599976</ele>
        <time>2017-05-25T12:38:07Z</time>
      </trkpt>
      <trkpt lat="45.6644" lon="3.84031">
        <ele>1331</ele>
        <time>2017-05-25T12:38:12Z</time>
      </trkpt>
      <trkpt lat="45.6643" lon="3.84035">
        <ele>1332</ele>
        <time>2017-05-25T12:38:17Z</time>
      </trkpt>
      <trkpt lat="45.66421" lon="3.84041">
        <ele>1333.099976</ele>
        <time>2017-05-25T12:38:22Z</time>
      </trkpt>
      <trkpt lat="45.66413" lon="3.84048">
        <ele>1334.5</ele>
        <time>2017-05-25T12:38:28Z</time>
      </trkpt>
      <trkpt lat="45.66408" lon="3.84059">
        <ele>1335.699951</ele>
        <time>2017-05-25T12:38:33Z</time>
      </trkpt>
      <trkpt lat="45.66407" lon="3.84073">
        <ele>1336.5</ele>
        <time>2017-05-25T12:38:39Z</time>
      </trkpt>
      <trkpt lat="45.66408" lon="3.84089">
        <ele>1336.199951</ele>
        <time>2017-05-25T12:38:43Z</time>
      </trkpt>
      <trkpt lat="45.66412" lon="3.84105">
        <ele>1336.099976</ele>
        <time>2017-05-25T12:38:46Z</time>
      </trkpt>
      <trkpt lat="45.66416" lon="3.84117">
        <ele>1335.699951</ele>
        <time>2017-05-25T12:38:48Z</time>
      </trkpt>
      <trkpt lat="45.66419" lon="3.84128">
        <ele>1335.300049</ele>
        <time>2017-05-25T12:38:50Z</time>
      </trkpt>
      <trkpt lat="45.66423" lon="3.84146">
        <ele>1335</ele>
        <time>2017-05-25T12:38:53Z</time>
      </trkpt>
      <trkpt lat="45.66428" lon="3.84164">
        <ele>1334.800049</ele>
        <time>2017-05-25T12:38:56Z</time>
      </trkpt>
      <trkpt lat="45.6643" lon="3.84181">
        <ele>1334.800049</ele>
        <time>2017-05-25T12:38:59Z</time>
      </trkpt>
      <trkpt lat="45.66433" lon="3.84195">
        <ele>1335.099976</ele>
        <time>2017-05-25T12:39:02Z</time>
      </trkpt>
      <trkpt lat="45.66436" lon="3.84209">
        <ele>1335.599976</ele>
        <time>2017-05-25T12:39:05Z</time>
      </trkpt>
      <trkpt lat="45.66439" lon="3.84224">
        <ele>1335.599976</ele>
        <time>2017-05-25T12:39:08Z</time>
      </trkpt>
      <trkpt lat="45.66442" lon="3.84238">
        <ele>1336.199951</ele>
        <time>2017-05-25T12:39:11Z</time>
      </trkpt>
      <trkpt lat="45.66444" lon="3.84251">
        <ele>1336.800049</ele>
        <time>2017-05-25T12:39:14Z</time>
      </trkpt>
      <trkpt lat="45.66447" lon="3.84264">
        <ele>1336.900024</ele>
        <time>2017-05-25T12:39:17Z</time>
      </trkpt>
      <trkpt lat="45.6645" lon="3.84278">
        <ele>1337.099976</ele>
        <time>2017-05-25T12:39:20Z</time>
      </trkpt>
      <trkpt lat="45.66453" lon="3.84293">
        <ele>1337.099976</ele>
        <time>2017-05-25T12:39:23Z</time>
      </trkpt>
      <trkpt lat="45.66457" lon="3.8431">
        <ele>1336.400024</ele>
        <time>2017-05-25T12:39:26Z</time>
      </trkpt>
      <trkpt lat="45.66462" lon="3.84328">
        <ele>1336.099976</ele>
        <time>2017-05-25T12:39:29Z</time>
      </trkpt>
      <trkpt lat="45.66466" lon="3.84341">
        <ele>1335.900024</ele>
        <time>2017-05-25T12:39:31Z</time>
      </trkpt>
      <trkpt lat="45.66468" lon="3.84355">
        <ele>1335.800049</ele>
        <time>2017-05-25T12:39:33Z</time>
      </trkpt>
      <trkpt lat="45.66471" lon="3.84369">
        <ele>1335.599976</ele>
        <time>2017-05-25T12:39:35Z</time>
      </trkpt>
      <trkpt lat="45.66473" lon="3.84383">
        <ele>1335.400024</ele>
        <time>2017-05-25T12:39:37Z</time>
      </trkpt>
      <trkpt lat="45.66476" lon="3.84397">
        <ele>1335.400024</ele>
        <time>2017-05-25T12:39:39Z</time>
      </trkpt>
      <trkpt lat="45.66479" lon="3.84411">
        <ele>1335.400024</ele>
        <time>2017-05-25T12:39:41Z</time>
      </trkpt>
      <trkpt lat="45.6648" lon="3.84424">
        <ele>1335.400024</ele>
        <time>2017-05-25T12:39:43Z</time>
      </trkpt>
      <trkpt lat="45.66482" lon="3.84438">
        <ele>1335.400024</ele>
        <time>2017-05-25T12:39:45Z</time>
      </trkpt>
      <trkpt lat="45.66483" lon="3.84451">
        <ele>1335.400024</ele>
        <time>2017-05-25T12:39:47Z</time>
      </trkpt>
      <trkpt lat="45.66483" lon="3.84464">
        <ele>1335.400024</ele>
        <time>2017-05-25T12:39:49Z</time>
      </trkpt>
      <trkpt lat="45.66485" lon="3.84482">
        <ele>1335.5</ele>
        <time>2017-05-25T12:39:52Z</time>
      </trkpt>
      <trkpt lat="45.66486" lon="3.84499">
        <ele>1335.699951</ele>
        <time>2017-05-25T12:39:55Z</time>
      </trkpt>
      <trkpt lat="45.66486" lon="3.84514">
        <ele>1336.099976</ele>
        <time>2017-05-25T12:39:58Z</time>
      </trkpt>
      <trkpt lat="45.66487" lon="3.8453">
        <ele>1336.400024</ele>
        <time>2017-05-25T12:40:01Z</time>
      </trkpt>
      <trkpt lat="45.66489" lon="3.84548">
        <ele>1336.400024</ele>
        <time>2017-05-25T12:40:04Z</time>
      </trkpt>
      <trkpt lat="45.66492" lon="3.84566">
        <ele>1336.400024</ele>
        <time>2017-05-25T12:40:07Z</time>
      </trkpt>
      <trkpt lat="45.66494" lon="3.84585">
        <ele>1336.199951</ele>
        <time>2017-05-25T12:40:10Z</time>
      </trkpt>
      <trkpt lat="45.66496" lon="3.84602">
        <ele>1336</ele>
        <time>2017-05-25T12:40:13Z</time>
      </trkpt>
      <trkpt lat="45.66499" lon="3.84619">
        <ele>1335.699951</ele>
        <time>2017-05-25T12:40:16Z</time>
      </trkpt>
      <trkpt lat="45.66503" lon="3.84637">
        <ele>1335.5</ele>
        <time>2017-05-25T12:40:19Z</time>
      </trkpt>
      <trkpt lat="45.66506" lon="3.84655">
        <ele>1334.599976</ele>
        <time>2017-05-25T12:40:22Z</time>
      </trkpt>
      <trkpt lat="45.66509" lon="3.84668">
        <ele>1334.400024</ele>
        <time>2017-05-25T12:40:24Z</time>
      </trkpt>
      <trkpt lat="45.66509" lon="3.84683">
        <ele>1334.5</ele>
        <time>2017-05-25T12:40:26Z</time>
      </trkpt>
      <trkpt lat="45.66509" lon="3.84698">
        <ele>1334.599976</ele>
        <time>2017-05-25T12:40:28Z</time>
      </trkpt>
      <trkpt lat="45.66509" lon="3.84712">
        <ele>1334.5</ele>
        <time>2017-05-25T12:40:30Z</time>
      </trkpt>
      <trkpt lat="45.66509" lon="3.84726">
        <ele>1334.400024</ele>
        <time>2017-05-25T12:40:32Z</time>
      </trkpt>
      <trkpt lat="45.66508" lon="3.84739">
        <ele>1334.199951</ele>
        <time>2017-05-25T12:40:34Z</time>
      </trkpt>
      <trkpt lat="45.66507" lon="3.84758">
        <ele>1334.400024</ele>
        <time>2017-05-25T12:40:37Z</time>
      </trkpt>
      <trkpt lat="45.66507" lon="3.84777">
        <ele>1334</ele>
        <time>2017-05-25T12:40:40Z</time>
      </trkpt>
      <trkpt lat="45.66505" lon="3.84795">
        <ele>1333.800049</ele>
        <time>2017-05-25T12:40:43Z</time>
      </trkpt>
      <trkpt lat="45.66505" lon="3.84812">
        <ele>1333.599976</ele>
        <time>2017-05-25T12:40:46Z</time>
      </trkpt>
      <trkpt lat="45.66504" lon="3.84829">
        <ele>1333.5</ele>
        <time>2017-05-25T12:40:49Z</time>
      </trkpt>
      <trkpt lat="45.66505" lon="3.84846">
        <ele>1333.699951</ele>
        <time>2017-05-25T12:40:53Z</time>
      </trkpt>
      <trkpt lat="45.66506" lon="3.84863">
        <ele>1333.699951</ele>
        <time>2017-05-25T12:40:57Z</time>
      </trkpt>
      <trkpt lat="45.66509" lon="3.84879">
        <ele>1333.300049</ele>
        <time>2017-05-25T12:41:00Z</time>
      </trkpt>
      <trkpt lat="45.66507" lon="3.84895">
        <ele>1333.199951</ele>
        <time>2017-05-25T12:41:03Z</time>
      </trkpt>
      <trkpt lat="45.66503" lon="3.84912">
        <ele>1332.900024</ele>
        <time>2017-05-25T12:41:05Z</time>
      </trkpt>
      <trkpt lat="45.66497" lon="3.84929">
        <ele>1332.699951</ele>
        <time>2017-05-25T12:41:07Z</time>
      </trkpt>
      <trkpt lat="45.66492" lon="3.84949">
        <ele>1332.300049</ele>
        <time>2017-05-25T12:41:10Z</time>
      </trkpt>
      <trkpt lat="45.6649" lon="3.84966">
        <ele>1332.099976</ele>
        <time>2017-05-25T12:41:14Z</time>
      </trkpt>
      <trkpt lat="45.66485" lon="3.84977">
        <ele>1331.400024</ele>
        <time>2017-05-25T12:41:16Z</time>
      </trkpt>
      <trkpt lat="45.66485" lon="3.84996">
        <ele>1331</ele>
        <time>2017-05-25T12:41:19Z</time>
      </trkpt>
      <trkpt lat="45.66482" lon="3.8501">
        <ele>1330.800049</ele>
        <time>2017-05-25T12:41:21Z</time>
      </trkpt>
      <trkpt lat="45.66476" lon="3.85023">
        <ele>1330.400024</ele>
        <time>2017-05-25T12:41:23Z</time>
      </trkpt>
      <trkpt lat="45.66467" lon="3.85036">
        <ele>1330</ele>
        <time>2017-05-25T12:41:26Z</time>
      </trkpt>
      <trkpt lat="45.66456" lon="3.85045">
        <ele>1330.099976</ele>
        <time>2017-05-25T12:41:29Z</time>
      </trkpt>
      <trkpt lat="45.66446" lon="3.85055">
        <ele>1330.199951</ele>
        <time>2017-05-25T12:41:32Z</time>
      </trkpt>
      <trkpt lat="45.66436" lon="3.85062">
        <ele>1330.800049</ele>
        <time>2017-05-25T12:41:35Z</time>
      </trkpt>
      <trkpt lat="45.66429" lon="3.8507">
        <ele>1331.099976</ele>
        <time>2017-05-25T12:41:37Z</time>
      </trkpt>
      <trkpt lat="45.66419" lon="3.85079">
        <ele>1331.5</ele>
        <time>2017-05-25T12:41:40Z</time>
      </trkpt>
      <trkpt lat="45.66412" lon="3.85089">
        <ele>1331.900024</ele>
        <time>2017-05-25T12:41:42Z</time>
      </trkpt>
      <trkpt lat="45.66401" lon="3.85102">
        <ele>1332.300049</ele>
        <time>2017-05-25T12:41:45Z</time>
      </trkpt>
      <trkpt lat="45.66392" lon="3.85111">
        <ele>1332.800049</ele>
        <time>2017-05-25T12:41:48Z</time>
      </trkpt>
      <trkpt lat="45.66382" lon="3.8512">
        <ele>1333</ele>
        <time>2017-05-25T12:41:51Z</time>
      </trkpt>
      <trkpt lat="45.66372" lon="3.85129">
        <ele>1333</ele>
        <time>2017-05-25T12:41:54Z</time>
      </trkpt>
      <trkpt lat="45.66364" lon="3.85136">
        <ele>1333</ele>
        <time>2017-05-25T12:41:56Z</time>
      </trkpt>
      <trkpt lat="45.66356" lon="3.85145">
        <ele>1333.099976</ele>
        <time>2017-05-25T12:41:58Z</time>
      </trkpt>
      <trkpt lat="45.66349" lon="3.85156">
        <ele>1332.900024</ele>
        <time>2017-05-25T12:42:00Z</time>
      </trkpt>
      <trkpt lat="45.66342" lon="3.85171">
        <ele>1332.800049</ele>
        <time>2017-05-25T12:42:03Z</time>
      </trkpt>
      <trkpt lat="45.66334" lon="3.85188">
        <ele>1332.800049</ele>
        <time>2017-05-25T12:42:06Z</time>
      </trkpt>
      <trkpt lat="45.66328" lon="3.85199">
        <ele>1332.800049</ele>
        <time>2017-05-25T12:42:08Z</time>
      </trkpt>
      <trkpt lat="45.66321" lon="3.85209">
        <ele>1332.599976</ele>
        <time>2017-05-25T12:42:10Z</time>
      </trkpt>
      <trkpt lat="45.66314" lon="3.85218">
        <ele>1332.5</ele>
        <time>2017-05-25T12:42:12Z</time>
      </trkpt>
      <trkpt lat="45.66306" lon="3.85228">
        <ele>1332.199951</ele>
        <time>2017-05-25T12:42:14Z</time>
      </trkpt>
      <trkpt lat="45.66298" lon="3.85237">
        <ele>1332.099976</ele>
        <time>2017-05-25T12:42:16Z</time>
      </trkpt>
      <trkpt lat="45.6629" lon="3.85247">
        <ele>1331.800049</ele>
        <time>2017-05-25T12:42:18Z</time>
      </trkpt>
      <trkpt lat="45.66281" lon="3.85258">
        <ele>1331.800049</ele>
        <time>2017-05-25T12:42:20Z</time>
      </trkpt>
      <trkpt lat="45.66274" lon="3.85269">
        <ele>1331.699951</ele>
        <time>2017-05-25T12:42:22Z</time>
      </trkpt>
      <trkpt lat="45.66267" lon="3.85281">
        <ele>1331.699951</ele>
        <time>2017-05-25T12:42:24Z</time>
      </trkpt>
      <trkpt lat="45.6626" lon="3.85291">
        <ele>1331.900024</ele>
        <time>2017-05-25T12:42:26Z</time>
      </trkpt>
      <trkpt lat="45.66254" lon="3.85301">
        <ele>1332</ele>
        <time>2017-05-25T12:42:28Z</time>
      </trkpt>
      <trkpt lat="45.66248" lon="3.85312">
        <ele>1332</ele>
        <time>2017-05-25T12:42:30Z</time>
      </trkpt>
      <trkpt lat="45.66242" lon="3.85323">
        <ele>1332</ele>
        <time>2017-05-25T12:42:32Z</time>
      </trkpt>
      <trkpt lat="45.66235" lon="3.85334">
        <ele>1332.099976</ele>
        <time>2017-05-25T12:42:34Z</time>
      </trkpt>
      <trkpt lat="45.66228" lon="3.85345">
        <ele>1332.099976</ele>
        <time>2017-05-25T12:42:36Z</time>
      </trkpt>
      <trkpt lat="45.66222" lon="3.85355">
        <ele>1332.099976</ele>
        <time>2017-05-25T12:42:38Z</time>
      </trkpt>
      <trkpt lat="45.66214" lon="3.85366">
        <ele>1332</ele>
        <time>2017-05-25T12:42:40Z</time>
      </trkpt>
      <trkpt lat="45.66207" lon="3.85376">
        <ele>1332.099976</ele>
        <time>2017-05-25T12:42:42Z</time>
      </trkpt>
      <trkpt lat="45.662" lon="3.85386">
        <ele>1332.099976</ele>
        <time>2017-05-25T12:42:44Z</time>
      </trkpt>
      <trkpt lat="45.66194" lon="3.85396">
        <ele>1332.199951</ele>
        <time>2017-05-25T12:42:46Z</time>
      </trkpt>
      <trkpt lat="45.66187" lon="3.85406">
        <ele>1332.599976</ele>
        <time>2017-05-25T12:42:48Z</time>
      </trkpt>
      <trkpt lat="45.66181" lon="3.85415">
        <ele>1332.5</ele>
        <time>2017-05-25T12:42:50Z</time>
      </trkpt>
      <trkpt lat="45.66171" lon="3.85428">
        <ele>1332.5</ele>
        <time>2017-05-25T12:42:53Z</time>
      </trkpt>
      <trkpt lat="45.66165" lon="3.85438">
        <ele>1332.400024</ele>
        <time>2017-05-25T12:42:55Z</time>
      </trkpt>
      <trkpt lat="45.66159" lon="3.85447">
        <ele>1332.599976</ele>
        <time>2017-05-25T12:42:57Z</time>
      </trkpt>
      <trkpt lat="45.66152" lon="3.85456">
        <ele>1332.800049</ele>
        <time>2017-05-25T12:42:59Z</time>
      </trkpt>
      <trkpt lat="45.66142" lon="3.8547">
        <ele>1332.900024</ele>
        <time>2017-05-25T12:43:02Z</time>
      </trkpt>
      <trkpt lat="45.66133" lon="3.85483">
        <ele>1332.800049</ele>
        <time>2017-05-25T12:43:05Z</time>
      </trkpt>
      <trkpt lat="45.66124" lon="3.85495">
        <ele>1332.800049</ele>
        <time>2017-05-25T12:43:08Z</time>
      </trkpt>
      <trkpt lat="45.66115" lon="3.85506">
        <ele>1332.900024</ele>
        <time>2017-05-25T12:43:11Z</time>
      </trkpt>
      <trkpt lat="45.66107" lon="3.85519">
        <ele>1333</ele>
        <time>2017-05-25T12:43:14Z</time>
      </trkpt>
      <trkpt lat="45.66099" lon="3.8553">
        <ele>1333.400024</ele>
        <time>2017-05-25T12:43:17Z</time>
      </trkpt>
      <trkpt lat="45.66091" lon="3.85542">
        <ele>1333.699951</ele>
        <time>2017-05-25T12:43:20Z</time>
      </trkpt>
      <trkpt lat="45.66084" lon="3.85552">
        <ele>1333.699951</ele>
        <time>2017-05-25T12:43:23Z</time>
      </trkpt>
      <trkpt lat="45.66075" lon="3.85561">
        <ele>1333.800049</ele>
        <time>2017-05-25T12:43:26Z</time>
      </trkpt>
      <trkpt lat="45.66065" lon="3.85569">
        <ele>1334.300049</ele>
        <time>2017-05-25T12:43:29Z</time>
      </trkpt>
      <trkpt lat="45.66055" lon="3.85576">
        <ele>1334.5</ele>
        <time>2017-05-25T12:43:32Z</time>
      </trkpt>
      <trkpt lat="45.66045" lon="3.85581">
        <ele>1334.699951</ele>
        <time>2017-05-25T12:43:35Z</time>
      </trkpt>
      <trkpt lat="45.66034" lon="3.85588">
        <ele>1335.099976</ele>
        <time>2017-05-25T12:43:38Z</time>
      </trkpt>
      <trkpt lat="45.66023" lon="3.85596">
        <ele>1335.5</ele>
        <time>2017-05-25T12:43:41Z</time>
      </trkpt>
      <trkpt lat="45.66013" lon="3.85603">
        <ele>1335.599976</ele>
        <time>2017-05-25T12:43:44Z</time>
      </trkpt>
      <trkpt lat="45.66001" lon="3.85611">
        <ele>1335.599976</ele>
        <time>2017-05-25T12:43:47Z</time>
      </trkpt>
      <trkpt lat="45.65989" lon="3.85619">
        <ele>1335.599976</ele>
        <time>2017-05-25T12:43:50Z</time>
      </trkpt>
      <trkpt lat="45.6598" lon="3.85624">
        <ele>1335.5</ele>
        <time>2017-05-25T12:43:52Z</time>
      </trkpt>
      <trkpt lat="45.65971" lon="3.85629">
        <ele>1335.599976</ele>
        <time>2017-05-25T12:43:54Z</time>
      </trkpt>
      <trkpt lat="45.65963" lon="3.85636">
        <ele>1335.5</ele>
        <time>2017-05-25T12:43:56Z</time>
      </trkpt>
      <trkpt lat="45.65951" lon="3.85644">
        <ele>1335.199951</ele>
        <time>2017-05-25T12:43:59Z</time>
      </trkpt>
      <trkpt lat="45.65939" lon="3.85651">
        <ele>1334.900024</ele>
        <time>2017-05-25T12:44:02Z</time>
      </trkpt>
      <trkpt lat="45.65927" lon="3.85658">
        <ele>1334.800049</ele>
        <time>2017-05-25T12:44:05Z</time>
      </trkpt>
      <trkpt lat="45.65918" lon="3.85662">
        <ele>1334.900024</ele>
        <time>2017-05-25T12:44:07Z</time>
      </trkpt>
      <trkpt lat="45.6591" lon="3.85667">
        <ele>1335</ele>
        <time>2017-05-25T12:44:09Z</time>
      </trkpt>
      <trkpt lat="45.65901" lon="3.85671">
        <ele>1335.199951</ele>
        <time>2017-05-25T12:44:11Z</time>
      </trkpt>
      <trkpt lat="45.65892" lon="3.85675">
        <ele>1335.300049</ele>
        <time>2017-05-25T12:44:13Z</time>
      </trkpt>
      <trkpt lat="45.65879" lon="3.85681">
        <ele>1335.099976</ele>
        <time>2017-05-25T12:44:16Z</time>
      </trkpt>
      <trkpt lat="45.6587" lon="3.85685">
        <ele>1335.400024</ele>
        <time>2017-05-25T12:44:18Z</time>
      </trkpt>
      <trkpt lat="45.65859" lon="3.85689">
        <ele>1335.199951</ele>
        <time>2017-05-25T12:44:20Z</time>
      </trkpt>
      <trkpt lat="45.65848" lon="3.85695">
        <ele>1334.800049</ele>
        <time>2017-05-25T12:44:22Z</time>
      </trkpt>
      <trkpt lat="45.65839" lon="3.85702">
        <ele>1334.5</ele>
        <time>2017-05-25T12:44:24Z</time>
      </trkpt>
      <trkpt lat="45.65831" lon="3.85715">
        <ele>1334.199951</ele>
        <time>2017-05-25T12:44:26Z</time>
      </trkpt>
      <trkpt lat="45.65826" lon="3.85727">
        <ele>1333.900024</ele>
        <time>2017-05-25T12:44:28Z</time>
      </trkpt>
      <trkpt lat="45.65819" lon="3.85717">
        <ele>1332.5</ele>
        <time>2017-05-25T12:44:35Z</time>
      </trkpt>
      <trkpt lat="45.6582" lon="3.85703">
        <ele>1332.599976</ele>
        <time>2017-05-25T12:44:39Z</time>
      </trkpt>
      <trkpt lat="45.6582" lon="3.85687">
        <ele>1333.099976</ele>
        <time>2017-05-25T12:44:43Z</time>
      </trkpt>
      <trkpt lat="45.6582" lon="3.85673">
        <ele>1334</ele>
        <time>2017-05-25T12:44:47Z</time>
      </trkpt>
      <trkpt lat="45.65819" lon="3.8566">
        <ele>1334.699951</ele>
        <time>2017-05-25T12:44:51Z</time>
      </trkpt>
      <trkpt lat="45.65818" lon="3.85644">
        <ele>1335.800049</ele>
        <time>2017-05-25T12:44:56Z</time>
      </trkpt>
      <trkpt lat="45.65816" lon="3.85629">
        <ele>1336.599976</ele>
        <time>2017-05-25T12:45:01Z</time>
      </trkpt>
      <trkpt lat="45.65814" lon="3.85616">
        <ele>1337.300049</ele>
        <time>2017-05-25T12:45:05Z</time>
      </trkpt>
      <trkpt lat="45.65811" lon="3.85604">
        <ele>1338.199951</ele>
        <time>2017-05-25T12:45:09Z</time>
      </trkpt>
      <trkpt lat="45.65808" lon="3.85591">
        <ele>1339.099976</ele>
        <time>2017-05-25T12:45:13Z</time>
      </trkpt>
      <trkpt lat="45.65804" lon="3.85578">
        <ele>1339.599976</ele>
        <time>2017-05-25T12:45:17Z</time>
      </trkpt>
      <trkpt lat="45.65801" lon="3.85565">
        <ele>1340.199951</ele>
        <time>2017-05-25T12:45:21Z</time>
      </trkpt>
      <trkpt lat="45.65798" lon="3.85553">
        <ele>1340.900024</ele>
        <time>2017-05-25T12:45:25Z</time>
      </trkpt>
      <trkpt lat="45.65795" lon="3.8554">
        <ele>1341.599976</ele>
        <time>2017-05-25T12:45:29Z</time>
      </trkpt>
      <trkpt lat="45.65791" lon="3.85527">
        <ele>1342.400024</ele>
        <time>2017-05-25T12:45:33Z</time>
      </trkpt>
      <trkpt lat="45.65787" lon="3.85514">
        <ele>1343</ele>
        <time>2017-05-25T12:45:37Z</time>
      </trkpt>
      <trkpt lat="45.65784" lon="3.85501">
        <ele>1343.5</ele>
        <time>2017-05-25T12:45:41Z</time>
      </trkpt>
      <trkpt lat="45.65781" lon="3.85487">
        <ele>1344.099976</ele>
        <time>2017-05-25T12:45:45Z</time>
      </trkpt>
      <trkpt lat="45.65778" lon="3.85474">
        <ele>1344.699951</ele>
        <time>2017-05-25T12:45:49Z</time>
      </trkpt>
      <trkpt lat="45.65775" lon="3.85459">
        <ele>1345.400024</ele>
        <time>2017-05-25T12:45:53Z</time>
      </trkpt>
      <trkpt lat="45.65772" lon="3.85445">
        <ele>1345.699951</ele>
        <time>2017-05-25T12:45:57Z</time>
      </trkpt>
      <trkpt lat="45.65769" lon="3.8543">
        <ele>1346.599976</ele>
        <time>2017-05-25T12:46:01Z</time>
      </trkpt>
      <trkpt lat="45.65767" lon="3.85415">
        <ele>1347.099976</ele>
        <time>2017-05-25T12:46:05Z</time>
      </trkpt>
      <trkpt lat="45.65764" lon="3.85401">
        <ele>1347.5</ele>
        <time>2017-05-25T12:46:09Z</time>
      </trkpt>
      <trkpt lat="45.65762" lon="3.85386">
        <ele>1347.699951</ele>
        <time>2017-05-25T12:46:13Z</time>
      </trkpt>
      <trkpt lat="45.65759" lon="3.85371">
        <ele>1348</ele>
        <time>2017-05-25T12:46:17Z</time>
      </trkpt>
      <trkpt lat="45.65756" lon="3.85355">
        <ele>1348.300049</ele>
        <time>2017-05-25T12:46:21Z</time>
      </trkpt>
      <trkpt lat="45.65754" lon="3.85343">
        <ele>1348.699951</ele>
        <time>2017-05-25T12:46:24Z</time>
      </trkpt>
      <trkpt lat="45.65752" lon="3.8533">
        <ele>1348.699951</ele>
        <time>2017-05-25T12:46:27Z</time>
      </trkpt>
      <trkpt lat="45.65749" lon="3.85317">
        <ele>1348.800049</ele>
        <time>2017-05-25T12:46:30Z</time>
      </trkpt>
      <trkpt lat="45.65746" lon="3.85303">
        <ele>1348.800049</ele>
        <time>2017-05-25T12:46:33Z</time>
      </trkpt>
      <trkpt lat="45.65744" lon="3.8529">
        <ele>1349.099976</ele>
        <time>2017-05-25T12:46:36Z</time>
      </trkpt>
      <trkpt lat="45.65741" lon="3.85276">
        <ele>1349.300049</ele>
        <time>2017-05-25T12:46:39Z</time>
      </trkpt>
      <trkpt lat="45.65738" lon="3.85263">
        <ele>1349.599976</ele>
        <time>2017-05-25T12:46:42Z</time>
      </trkpt>
      <trkpt lat="45.65735" lon="3.85251">
        <ele>1349.599976</ele>
        <time>2017-05-25T12:46:45Z</time>
      </trkpt>
      <trkpt lat="45.65733" lon="3.85238">
        <ele>1349.699951</ele>
        <time>2017-05-25T12:46:48Z</time>
      </trkpt>
      <trkpt lat="45.6573" lon="3.85225">
        <ele>1350.199951</ele>
        <time>2017-05-25T12:46:51Z</time>
      </trkpt>
      <trkpt lat="45.65727" lon="3.85212">
        <ele>1350.400024</ele>
        <time>2017-05-25T12:46:54Z</time>
      </trkpt>
      <trkpt lat="45.65724" lon="3.85198">
        <ele>1350.400024</ele>
        <time>2017-05-25T12:46:57Z</time>
      </trkpt>
      <trkpt lat="45.65721" lon="3.85185">
        <ele>1350.5</ele>
        <time>2017-05-25T12:47:00Z</time>
      </trkpt>
      <trkpt lat="45.65718" lon="3.85172">
        <ele>1350.599976</ele>
        <time>2017-05-25T12:47:03Z</time>
      </trkpt>
      <trkpt lat="45.65714" lon="3.85159">
        <ele>1350.5</ele>
        <time>2017-05-25T12:47:06Z</time>
      </trkpt>
      <trkpt lat="45.6571" lon="3.85145">
        <ele>1350.400024</ele>
        <time>2017-05-25T12:47:09Z</time>
      </trkpt>
      <trkpt lat="45.65707" lon="3.85131">
        <ele>1350.800049</ele>
        <time>2017-05-25T12:47:12Z</time>
      </trkpt>
      <trkpt lat="45.65702" lon="3.85117">
        <ele>1350.800049</ele>
        <time>2017-05-25T12:47:15Z</time>
      </trkpt>
      <trkpt lat="45.65698" lon="3.85102">
        <ele>1350.800049</ele>
        <time>2017-05-25T12:47:18Z</time>
      </trkpt>
      <trkpt lat="45.65694" lon="3.85087">
        <ele>1350.900024</ele>
        <time>2017-05-25T12:47:21Z</time>
      </trkpt>
      <trkpt lat="45.65689" lon="3.85072">
        <ele>1350.900024</ele>
        <time>2017-05-25T12:47:24Z</time>
      </trkpt>
      <trkpt lat="45.65685" lon="3.85058">
        <ele>1351</ele>
        <time>2017-05-25T12:47:27Z</time>
      </trkpt>
      <trkpt lat="45.65681" lon="3.85044">
        <ele>1351.199951</ele>
        <time>2017-05-25T12:47:30Z</time>
      </trkpt>
      <trkpt lat="45.65676" lon="3.8503">
        <ele>1351.599976</ele>
        <time>2017-05-25T12:47:33Z</time>
      </trkpt>
      <trkpt lat="45.65671" lon="3.85017">
        <ele>1351.900024</ele>
        <time>2017-05-25T12:47:36Z</time>
      </trkpt>
      <trkpt lat="45.65667" lon="3.85004">
        <ele>1351.800049</ele>
        <time>2017-05-25T12:47:39Z</time>
      </trkpt>
      <trkpt lat="45.65662" lon="3.84991">
        <ele>1352.099976</ele>
        <time>2017-05-25T12:47:42Z</time>
      </trkpt>
      <trkpt lat="45.65658" lon="3.84978">
        <ele>1352.400024</ele>
        <time>2017-05-25T12:47:45Z</time>
      </trkpt>
      <trkpt lat="45.65651" lon="3.84967">
        <ele>1352.699951</ele>
        <time>2017-05-25T12:47:48Z</time>
      </trkpt>
      <trkpt lat="45.65643" lon="3.84958">
        <ele>1353.199951</ele>
        <time>2017-05-25T12:47:51Z</time>
      </trkpt>
      <trkpt lat="45.65634" lon="3.84951">
        <ele>1353.599976</ele>
        <time>2017-05-25T12:47:54Z</time>
      </trkpt>
      <trkpt lat="45.65624" lon="3.84944">
        <ele>1353.699951</ele>
        <time>2017-05-25T12:47:57Z</time>
      </trkpt>
      <trkpt lat="45.65615" lon="3.84938">
        <ele>1354</ele>
        <time>2017-05-25T12:48:00Z</time>
      </trkpt>
      <trkpt lat="45.65607" lon="3.84931">
        <ele>1354.5</ele>
        <time>2017-05-25T12:48:03Z</time>
      </trkpt>
      <trkpt lat="45.65599" lon="3.84925">
        <ele>1355.099976</ele>
        <time>2017-05-25T12:48:06Z</time>
      </trkpt>
      <trkpt lat="45.65591" lon="3.84919">
        <ele>1355.800049</ele>
        <time>2017-05-25T12:48:09Z</time>
      </trkpt>
      <trkpt lat="45.65581" lon="3.8491">
        <ele>1356.400024</ele>
        <time>2017-05-25T12:48:13Z</time>
      </trkpt>
      <trkpt lat="45.65573" lon="3.84903">
        <ele>1357.300049</ele>
        <time>2017-05-25T12:48:16Z</time>
      </trkpt>
      <trkpt lat="45.65563" lon="3.84894">
        <ele>1358.099976</ele>
        <time>2017-05-25T12:48:20Z</time>
      </trkpt>
      <trkpt lat="45.65554" lon="3.84885">
        <ele>1358.900024</ele>
        <time>2017-05-25T12:48:24Z</time>
      </trkpt>
      <trkpt lat="45.65545" lon="3.84876">
        <ele>1359.699951</ele>
        <time>2017-05-25T12:48:28Z</time>
      </trkpt>
      <trkpt lat="45.65535" lon="3.84867">
        <ele>1360.199951</ele>
        <time>2017-05-25T12:48:32Z</time>
      </trkpt>
      <trkpt lat="45.65525" lon="3.84858">
        <ele>1360.900024</ele>
        <time>2017-05-25T12:48:36Z</time>
      </trkpt>
      <trkpt lat="45.65517" lon="3.84851">
        <ele>1361.400024</ele>
        <time>2017-05-25T12:48:39Z</time>
      </trkpt>
      <trkpt lat="45.6551" lon="3.84844">
        <ele>1361.699951</ele>
        <time>2017-05-25T12:48:42Z</time>
      </trkpt>
      <trkpt lat="45.655" lon="3.84835">
        <ele>1362.5</ele>
        <time>2017-05-25T12:48:46Z</time>
      </trkpt>
      <trkpt lat="45.6549" lon="3.84825">
        <ele>1362.900024</ele>
        <time>2017-05-25T12:48:50Z</time>
      </trkpt>
      <trkpt lat="45.6548" lon="3.84816">
        <ele>1363.699951</ele>
        <time>2017-05-25T12:48:54Z</time>
      </trkpt>
      <trkpt lat="45.65473" lon="3.84809">
        <ele>1364.099976</ele>
        <time>2017-05-25T12:48:57Z</time>
      </trkpt>
      <trkpt lat="45.65463" lon="3.848">
        <ele>1364.800049</ele>
        <time>2017-05-25T12:49:01Z</time>
      </trkpt>
      <trkpt lat="45.65455" lon="3.84793">
        <ele>1365.199951</ele>
        <time>2017-05-25T12:49:04Z</time>
      </trkpt>
      <trkpt lat="45.65445" lon="3.84784">
        <ele>1365.900024</ele>
        <time>2017-05-25T12:49:08Z</time>
      </trkpt>
      <trkpt lat="45.65435" lon="3.84775">
        <ele>1366.599976</ele>
        <time>2017-05-25T12:49:12Z</time>
      </trkpt>
      <trkpt lat="45.65424" lon="3.84768">
        <ele>1366.800049</ele>
        <time>2017-05-25T12:49:16Z</time>
      </trkpt>
      <trkpt lat="45.65416" lon="3.84763">
        <ele>1367.300049</ele>
        <time>2017-05-25T12:49:19Z</time>
      </trkpt>
      <trkpt lat="45.65404" lon="3.8476">
        <ele>1367.699951</ele>
        <time>2017-05-25T12:49:23Z</time>
      </trkpt>
      <trkpt lat="45.65392" lon="3.84761">
        <ele>1368.400024</ele>
        <time>2017-05-25T12:49:27Z</time>
      </trkpt>
      <trkpt lat="45.6538" lon="3.84763">
        <ele>1369.099976</ele>
        <time>2017-05-25T12:49:31Z</time>
      </trkpt>
      <trkpt lat="45.65371" lon="3.84766">
        <ele>1369.599976</ele>
        <time>2017-05-25T12:49:34Z</time>
      </trkpt>
      <trkpt lat="45.65362" lon="3.84771">
        <ele>1370.199951</ele>
        <time>2017-05-25T12:49:37Z</time>
      </trkpt>
      <trkpt lat="45.65352" lon="3.84776">
        <ele>1370.400024</ele>
        <time>2017-05-25T12:49:40Z</time>
      </trkpt>
      <trkpt lat="45.65342" lon="3.84783">
        <ele>1370.599976</ele>
        <time>2017-05-25T12:49:43Z</time>
      </trkpt>
      <trkpt lat="45.65333" lon="3.84789">
        <ele>1370.900024</ele>
        <time>2017-05-25T12:49:46Z</time>
      </trkpt>
      <trkpt lat="45.65323" lon="3.84795">
        <ele>1371</ele>
        <time>2017-05-25T12:49:49Z</time>
      </trkpt>
      <trkpt lat="45.65313" lon="3.84799">
        <ele>1371.5</ele>
        <time>2017-05-25T12:49:52Z</time>
      </trkpt>
      <trkpt lat="45.65303" lon="3.84803">
        <ele>1371.699951</ele>
        <time>2017-05-25T12:49:55Z</time>
      </trkpt>
      <trkpt lat="45.65293" lon="3.84807">
        <ele>1371.599976</ele>
        <time>2017-05-25T12:49:58Z</time>
      </trkpt>
      <trkpt lat="45.65283" lon="3.84809">
        <ele>1371.699951</ele>
        <time>2017-05-25T12:50:01Z</time>
      </trkpt>
      <trkpt lat="45.65273" lon="3.84811">
        <ele>1372</ele>
        <time>2017-05-25T12:50:04Z</time>
      </trkpt>
      <trkpt lat="45.65262" lon="3.84813">
        <ele>1372.5</ele>
        <time>2017-05-25T12:50:07Z</time>
      </trkpt>
      <trkpt lat="45.65253" lon="3.84815">
        <ele>1372.699951</ele>
        <time>2017-05-25T12:50:10Z</time>
      </trkpt>
      <trkpt lat="45.65242" lon="3.84817">
        <ele>1372.800049</ele>
        <time>2017-05-25T12:50:13Z</time>
      </trkpt>
      <trkpt lat="45.65232" lon="3.84819">
        <ele>1373.199951</ele>
        <time>2017-05-25T12:50:16Z</time>
      </trkpt>
      <trkpt lat="45.65223" lon="3.8482">
        <ele>1373.400024</ele>
        <time>2017-05-25T12:50:19Z</time>
      </trkpt>
      <trkpt lat="45.65213" lon="3.84821">
        <ele>1373.900024</ele>
        <time>2017-05-25T12:50:22Z</time>
      </trkpt>
      <trkpt lat="45.65202" lon="3.84823">
        <ele>1374</ele>
        <time>2017-05-25T12:50:25Z</time>
      </trkpt>
      <trkpt lat="45.65191" lon="3.84825">
        <ele>1374.300049</ele>
        <time>2017-05-25T12:50:28Z</time>
      </trkpt>
      <trkpt lat="45.6518" lon="3.84826">
        <ele>1375.300049</ele>
        <time>2017-05-25T12:50:31Z</time>
      </trkpt>
      <trkpt lat="45.65169" lon="3.84828">
        <ele>1375.5</ele>
        <time>2017-05-25T12:50:34Z</time>
      </trkpt>
      <trkpt lat="45.65159" lon="3.84829">
        <ele>1375.900024</ele>
        <time>2017-05-25T12:50:37Z</time>
      </trkpt>
      <trkpt lat="45.65148" lon="3.84831">
        <ele>1376.099976</ele>
        <time>2017-05-25T12:50:40Z</time>
      </trkpt>
      <trkpt lat="45.65138" lon="3.84832">
        <ele>1376.5</ele>
        <time>2017-05-25T12:50:43Z</time>
      </trkpt>
      <trkpt lat="45.65127" lon="3.84833">
        <ele>1376.900024</ele>
        <time>2017-05-25T12:50:46Z</time>
      </trkpt>
      <trkpt lat="45.65116" lon="3.84833">
        <ele>1377.199951</ele>
        <time>2017-05-25T12:50:49Z</time>
      </trkpt>
      <trkpt lat="45.65106" lon="3.84833">
        <ele>1377.5</ele>
        <time>2017-05-25T12:50:52Z</time>
      </trkpt>
      <trkpt lat="45.65095" lon="3.84834">
        <ele>1378</ele>
        <time>2017-05-25T12:50:55Z</time>
      </trkpt>
      <trkpt lat="45.65085" lon="3.84834">
        <ele>1378.300049</ele>
        <time>2017-05-25T12:50:58Z</time>
      </trkpt>
      <trkpt lat="45.65074" lon="3.84833">
        <ele>1378.5</ele>
        <time>2017-05-25T12:51:01Z</time>
      </trkpt>
      <trkpt lat="45.65063" lon="3.84833">
        <ele>1378.699951</ele>
        <time>2017-05-25T12:51:04Z</time>
      </trkpt>
      <trkpt lat="45.65051" lon="3.84833">
        <ele>1378.900024</ele>
        <time>2017-05-25T12:51:07Z</time>
      </trkpt>
      <trkpt lat="45.65039" lon="3.84832">
        <ele>1379</ele>
        <time>2017-05-25T12:51:10Z</time>
      </trkpt>
      <trkpt lat="45.65026" lon="3.84831">
        <ele>1379.199951</ele>
        <time>2017-05-25T12:51:13Z</time>
      </trkpt>
      <trkpt lat="45.65014" lon="3.84829">
        <ele>1379.300049</ele>
        <time>2017-05-25T12:51:16Z</time>
      </trkpt>
      <trkpt lat="45.65002" lon="3.84825">
        <ele>1379.599976</ele>
        <time>2017-05-25T12:51:19Z</time>
      </trkpt>
      <trkpt lat="45.64992" lon="3.84821">
        <ele>1379.900024</ele>
        <time>2017-05-25T12:51:22Z</time>
      </trkpt>
      <trkpt lat="45.64981" lon="3.84814">
        <ele>1380.300049</ele>
        <time>2017-05-25T12:51:25Z</time>
      </trkpt>
      <trkpt lat="45.64971" lon="3.84803">
        <ele>1380.5</ele>
        <time>2017-05-25T12:51:28Z</time>
      </trkpt>
      <trkpt lat="45.64964" lon="3.8479">
        <ele>1381</ele>
        <time>2017-05-25T12:51:31Z</time>
      </trkpt>
      <trkpt lat="45.64959" lon="3.84778">
        <ele>1381.800049</ele>
        <time>2017-05-25T12:51:34Z</time>
      </trkpt>
      <trkpt lat="45.64955" lon="3.84767">
        <ele>1382.599976</ele>
        <time>2017-05-25T12:51:37Z</time>
      </trkpt>
      <trkpt lat="45.6495" lon="3.84752">
        <ele>1383.699951</ele>
        <time>2017-05-25T12:51:41Z</time>
      </trkpt>
      <trkpt lat="45.64945" lon="3.84737">
        <ele>1384.599976</ele>
        <time>2017-05-25T12:51:45Z</time>
      </trkpt>
      <trkpt lat="45.6494" lon="3.84723">
        <ele>1385.5</ele>
        <time>2017-05-25T12:51:49Z</time>
      </trkpt>
      <trkpt lat="45.64935" lon="3.84709">
        <ele>1386</ele>
        <time>2017-05-25T12:51:53Z</time>
      </trkpt>
      <trkpt lat="45.6493" lon="3.84696">
        <ele>1386.900024</ele>
        <time>2017-05-25T12:51:57Z</time>
      </trkpt>
      <trkpt lat="45.64924" lon="3.84682">
        <ele>1387.599976</ele>
        <time>2017-05-25T12:52:01Z</time>
      </trkpt>
      <trkpt lat="45.64917" lon="3.84668">
        <ele>1388.5</ele>
        <time>2017-05-25T12:52:05Z</time>
      </trkpt>
      <trkpt lat="45.64911" lon="3.84655">
        <ele>1389.599976</ele>
        <time>2017-05-25T12:52:09Z</time>
      </trkpt>
      <trkpt lat="45.64903" lon="3.84643">
        <ele>1390.300049</ele>
        <time>2017-05-25T12:52:13Z</time>
      </trkpt>
      <trkpt lat="45.64895" lon="3.84631">
        <ele>1391</ele>
        <time>2017-05-25T12:52:17Z</time>
      </trkpt>
      <trkpt lat="45.64886" lon="3.84621">
        <ele>1391.900024</ele>
        <time>2017-05-25T12:52:21Z</time>
      </trkpt>
      <trkpt lat="45.64876" lon="3.84613">
        <ele>1392.699951</ele>
        <time>2017-05-25T12:52:25Z</time>
      </trkpt>
      <trkpt lat="45.64867" lon="3.84608">
        <ele>1393.5</ele>
        <time>2017-05-25T12:52:28Z</time>
      </trkpt>
      <trkpt lat="45.64856" lon="3.84605">
        <ele>1394.400024</ele>
        <time>2017-05-25T12:52:32Z</time>
      </trkpt>
      <trkpt lat="45.64846" lon="3.84602">
        <ele>1394.900024</ele>
        <time>2017-05-25T12:52:35Z</time>
      </trkpt>
      <trkpt lat="45.64837" lon="3.84599">
        <ele>1395.300049</ele>
        <time>2017-05-25T12:52:38Z</time>
      </trkpt>
      <trkpt lat="45.64828" lon="3.84595">
        <ele>1395.800049</ele>
        <time>2017-05-25T12:52:41Z</time>
      </trkpt>
      <trkpt lat="45.64819" lon="3.84591">
        <ele>1396.199951</ele>
        <time>2017-05-25T12:52:44Z</time>
      </trkpt>
      <trkpt lat="45.64809" lon="3.84586">
        <ele>1396.699951</ele>
        <time>2017-05-25T12:52:47Z</time>
      </trkpt>
      <trkpt lat="45.648" lon="3.84582">
        <ele>1397</ele>
        <time>2017-05-25T12:52:50Z</time>
      </trkpt>
      <trkpt lat="45.6479" lon="3.84577">
        <ele>1397.400024</ele>
        <time>2017-05-25T12:52:53Z</time>
      </trkpt>
      <trkpt lat="45.64781" lon="3.8457">
        <ele>1397.599976</ele>
        <time>2017-05-25T12:52:56Z</time>
      </trkpt>
      <trkpt lat="45.64771" lon="3.84564">
        <ele>1398</ele>
        <time>2017-05-25T12:52:59Z</time>
      </trkpt>
      <trkpt lat="45.64762" lon="3.84557">
        <ele>1398.099976</ele>
        <time>2017-05-25T12:53:02Z</time>
      </trkpt>
      <trkpt lat="45.64753" lon="3.84549">
        <ele>1398.300049</ele>
        <time>2017-05-25T12:53:05Z</time>
      </trkpt>
      <trkpt lat="45.64744" lon="3.8454">
        <ele>1398.699951</ele>
        <time>2017-05-25T12:53:08Z</time>
      </trkpt>
      <trkpt lat="45.64734" lon="3.84529">
        <ele>1398.699951</ele>
        <time>2017-05-25T12:53:11Z</time>
      </trkpt>
      <trkpt lat="45.64726" lon="3.84519">
        <ele>1398.699951</ele>
        <time>2017-05-25T12:53:14Z</time>
      </trkpt>
      <trkpt lat="45.64717" lon="3.84508">
        <ele>1398.699951</ele>
        <time>2017-05-25T12:53:17Z</time>
      </trkpt>
      <trkpt lat="45.64707" lon="3.84495">
        <ele>1398.5</ele>
        <time>2017-05-25T12:53:20Z</time>
      </trkpt>
      <trkpt lat="45.647" lon="3.84486">
        <ele>1398.400024</ele>
        <time>2017-05-25T12:53:22Z</time>
      </trkpt>
      <trkpt lat="45.64692" lon="3.84478">
        <ele>1398.300049</ele>
        <time>2017-05-25T12:53:24Z</time>
      </trkpt>
      <trkpt lat="45.64685" lon="3.84469">
        <ele>1397.900024</ele>
        <time>2017-05-25T12:53:26Z</time>
      </trkpt>
      <trkpt lat="45.64677" lon="3.8446">
        <ele>1397.5</ele>
        <time>2017-05-25T12:53:28Z</time>
      </trkpt>
      <trkpt lat="45.64669" lon="3.84449">
        <ele>1397.300049</ele>
        <time>2017-05-25T12:53:30Z</time>
      </trkpt>
      <trkpt lat="45.64661" lon="3.84438">
        <ele>1397</ele>
        <time>2017-05-25T12:53:32Z</time>
      </trkpt>
      <trkpt lat="45.64653" lon="3.84428">
        <ele>1396.900024</ele>
        <time>2017-05-25T12:53:34Z</time>
      </trkpt>
      <trkpt lat="45.64645" lon="3.84418">
        <ele>1396.5</ele>
        <time>2017-05-25T12:53:36Z</time>
      </trkpt>
      <trkpt lat="45.64637" lon="3.8441">
        <ele>1396.400024</ele>
        <time>2017-05-25T12:53:38Z</time>
      </trkpt>
      <trkpt lat="45.64629" lon="3.84403">
        <ele>1396.400024</ele>
        <time>2017-05-25T12:53:40Z</time>
      </trkpt>
      <trkpt lat="45.64616" lon="3.844">
        <ele>1396.5</ele>
        <time>2017-05-25T12:53:43Z</time>
      </trkpt>
      <trkpt lat="45.64603" lon="3.84395">
        <ele>1396.5</ele>
        <time>2017-05-25T12:53:46Z</time>
      </trkpt>
      <trkpt lat="45.64591" lon="3.8439">
        <ele>1396.400024</ele>
        <time>2017-05-25T12:53:49Z</time>
      </trkpt>
      <trkpt lat="45.64578" lon="3.84385">
        <ele>1396.400024</ele>
        <time>2017-05-25T12:53:52Z</time>
      </trkpt>
      <trkpt lat="45.64566" lon="3.84382">
        <ele>1396.300049</ele>
        <time>2017-05-25T12:53:55Z</time>
      </trkpt>
      <trkpt lat="45.64553" lon="3.8438">
        <ele>1396.199951</ele>
        <time>2017-05-25T12:53:58Z</time>
      </trkpt>
      <trkpt lat="45.64541" lon="3.84377">
        <ele>1396.699951</ele>
        <time>2017-05-25T12:54:01Z</time>
      </trkpt>
      <trkpt lat="45.64529" lon="3.84374">
        <ele>1397</ele>
        <time>2017-05-25T12:54:04Z</time>
      </trkpt>
      <trkpt lat="45.64517" lon="3.84373">
        <ele>1397.099976</ele>
        <time>2017-05-25T12:54:07Z</time>
      </trkpt>
      <trkpt lat="45.64504" lon="3.8437">
        <ele>1397.400024</ele>
        <time>2017-05-25T12:54:10Z</time>
      </trkpt>
      <trkpt lat="45.64492" lon="3.84368">
        <ele>1397.400024</ele>
        <time>2017-05-25T12:54:13Z</time>
      </trkpt>
      <trkpt lat="45.6448" lon="3.84365">
        <ele>1397.400024</ele>
        <time>2017-05-25T12:54:16Z</time>
      </trkpt>
      <trkpt lat="45.64467" lon="3.84363">
        <ele>1397.800049</ele>
        <time>2017-05-25T12:54:19Z</time>
      </trkpt>
      <trkpt lat="45.64454" lon="3.84361">
        <ele>1398.099976</ele>
        <time>2017-05-25T12:54:22Z</time>
      </trkpt>
      <trkpt lat="45.64445" lon="3.84359">
        <ele>1398.400024</ele>
        <time>2017-05-25T12:54:24Z</time>
      </trkpt>
      <trkpt lat="45.64432" lon="3.84357">
        <ele>1398.5</ele>
        <time>2017-05-25T12:54:27Z</time>
      </trkpt>
      <trkpt lat="45.64419" lon="3.84356">
        <ele>1398.800049</ele>
        <time>2017-05-25T12:54:30Z</time>
      </trkpt>
      <trkpt lat="45.64407" lon="3.84353">
        <ele>1399.099976</ele>
        <time>2017-05-25T12:54:33Z</time>
      </trkpt>
      <trkpt lat="45.64394" lon="3.84349">
        <ele>1399.199951</ele>
        <time>2017-05-25T12:54:36Z</time>
      </trkpt>
      <trkpt lat="45.64382" lon="3.84345">
        <ele>1399.300049</ele>
        <time>2017-05-25T12:54:39Z</time>
      </trkpt>
      <trkpt lat="45.64371" lon="3.84338">
        <ele>1399.300049</ele>
        <time>2017-05-25T12:54:42Z</time>
      </trkpt>
      <trkpt lat="45.64365" lon="3.84325">
        <ele>1399.599976</ele>
        <time>2017-05-25T12:54:45Z</time>
      </trkpt>
      <trkpt lat="45.6436" lon="3.84312">
        <ele>1399.800049</ele>
        <time>2017-05-25T12:54:48Z</time>
      </trkpt>
      <trkpt lat="45.64357" lon="3.84297">
        <ele>1400.099976</ele>
        <time>2017-05-25T12:54:51Z</time>
      </trkpt>
      <trkpt lat="45.64355" lon="3.84283">
        <ele>1400.199951</ele>
        <time>2017-05-25T12:54:54Z</time>
      </trkpt>
      <trkpt lat="45.64354" lon="3.84267">
        <ele>1400.400024</ele>
        <time>2017-05-25T12:54:57Z</time>
      </trkpt>
      <trkpt lat="45.64352" lon="3.84252">
        <ele>1400.599976</ele>
        <time>2017-05-25T12:55:00Z</time>
      </trkpt>
      <trkpt lat="45.64349" lon="3.84238">
        <ele>1400.599976</ele>
        <time>2017-05-25T12:55:03Z</time>
      </trkpt>
      <trkpt lat="45.64348" lon="3.84223">
        <ele>1400.400024</ele>
        <time>2017-05-25T12:55:06Z</time>
      </trkpt>
      <trkpt lat="45.64347" lon="3.84209">
        <ele>1400.400024</ele>
        <time>2017-05-25T12:55:09Z</time>
      </trkpt>
      <trkpt lat="45.64347" lon="3.84195">
        <ele>1400.300049</ele>
        <time>2017-05-25T12:55:12Z</time>
      </trkpt>
      <trkpt lat="45.64347" lon="3.84179">
        <ele>1400.199951</ele>
        <time>2017-05-25T12:55:16Z</time>
      </trkpt>
      <trkpt lat="45.6434" lon="3.84173">
        <ele>1400.199951</ele>
        <time>2017-05-25T12:55:21Z</time>
      </trkpt>
      <trkpt lat="45.64334" lon="3.84162">
        <ele>1400.199951</ele>
        <time>2017-05-25T12:55:27Z</time>
      </trkpt>
      <trkpt lat="45.64327" lon="3.84152">
        <ele>1400.300049</ele>
        <time>2017-05-25T12:55:33Z</time>
      </trkpt>
      <trkpt lat="45.64327" lon="3.84136">
        <ele>1401.199951</ele>
        <time>2017-05-25T12:59:18Z</time>
      </trkpt>
      <trkpt lat="45.64322" lon="3.84121">
        <ele>1401.5</ele>
        <time>2017-05-25T12:59:23Z</time>
      </trkpt>
      <trkpt lat="45.64316" lon="3.84107">
        <ele>1401.400024</ele>
        <time>2017-05-25T12:59:27Z</time>
      </trkpt>
      <trkpt lat="45.64312" lon="3.84094">
        <ele>1401.400024</ele>
        <time>2017-05-25T12:59:30Z</time>
      </trkpt>
      <trkpt lat="45.64308" lon="3.84082">
        <ele>1401.099976</ele>
        <time>2017-05-25T12:59:33Z</time>
      </trkpt>
      <trkpt lat="45.64303" lon="3.84068">
        <ele>1400.900024</ele>
        <time>2017-05-25T12:59:36Z</time>
      </trkpt>
      <trkpt lat="45.64298" lon="3.84055">
        <ele>1400.900024</ele>
        <time>2017-05-25T12:59:39Z</time>
      </trkpt>
      <trkpt lat="45.64294" lon="3.84044">
        <ele>1401</ele>
        <time>2017-05-25T12:59:42Z</time>
      </trkpt>
      <trkpt lat="45.6429" lon="3.84032">
        <ele>1400.800049</ele>
        <time>2017-05-25T12:59:45Z</time>
      </trkpt>
      <trkpt lat="45.64287" lon="3.8402">
        <ele>1400.900024</ele>
        <time>2017-05-25T12:59:48Z</time>
      </trkpt>
      <trkpt lat="45.64283" lon="3.84006">
        <ele>1401</ele>
        <time>2017-05-25T12:59:51Z</time>
      </trkpt>
      <trkpt lat="45.6428" lon="3.83988">
        <ele>1400.800049</ele>
        <time>2017-05-25T12:59:54Z</time>
      </trkpt>
      <trkpt lat="45.6428" lon="3.83975">
        <ele>1400.699951</ele>
        <time>2017-05-25T12:59:56Z</time>
      </trkpt>
      <trkpt lat="45.64278" lon="3.83961">
        <ele>1400.5</ele>
        <time>2017-05-25T12:59:58Z</time>
      </trkpt>
      <trkpt lat="45.64276" lon="3.83948">
        <ele>1400.300049</ele>
        <time>2017-05-25T13:00:00Z</time>
      </trkpt>
      <trkpt lat="45.64274" lon="3.8393">
        <ele>1399.800049</ele>
        <time>2017-05-25T13:00:03Z</time>
      </trkpt>
      <trkpt lat="45.64272" lon="3.83916">
        <ele>1399.599976</ele>
        <time>2017-05-25T13:00:06Z</time>
      </trkpt>
      <trkpt lat="45.64267" lon="3.83904">
        <ele>1399.199951</ele>
        <time>2017-05-25T13:00:10Z</time>
      </trkpt>
      <trkpt lat="45.64259" lon="3.83896">
        <ele>1399.300049</ele>
        <time>2017-05-25T13:00:19Z</time>
      </trkpt>
      <trkpt lat="45.64251" lon="3.83888">
        <ele>1398.699951</ele>
        <time>2017-05-25T13:00:29Z</time>
      </trkpt>
      <trkpt lat="45.64243" lon="3.83882">
        <ele>1399.5</ele>
        <time>2017-05-25T13:00:44Z</time>
      </trkpt>
      <trkpt lat="45.64236" lon="3.83874">
        <ele>1399.400024</ele>
        <time>2017-05-25T13:01:01Z</time>
      </trkpt>
      <trkpt lat="45.64227" lon="3.8387">
        <ele>1399.099976</ele>
        <time>2017-05-25T13:01:05Z</time>
      </trkpt>
      <trkpt lat="45.64217" lon="3.83867">
        <ele>1399.5</ele>
        <time>2017-05-25T13:01:10Z</time>
      </trkpt>
      <trkpt lat="45.64207" lon="3.83864">
        <ele>1400.199951</ele>
        <time>2017-05-25T13:01:15Z</time>
      </trkpt>
      <trkpt lat="45.64197" lon="3.8386">
        <ele>1401.099976</ele>
        <time>2017-05-25T13:01:20Z</time>
      </trkpt>
      <trkpt lat="45.64186" lon="3.83855">
        <ele>1401.5</ele>
        <time>2017-05-25T13:01:25Z</time>
      </trkpt>
      <trkpt lat="45.64176" lon="3.83852">
        <ele>1401.800049</ele>
        <time>2017-05-25T13:01:29Z</time>
      </trkpt>
      <trkpt lat="45.64166" lon="3.83847">
        <ele>1402.099976</ele>
        <time>2017-05-25T13:01:33Z</time>
      </trkpt>
      <trkpt lat="45.64156" lon="3.83842">
        <ele>1402.300049</ele>
        <time>2017-05-25T13:01:37Z</time>
      </trkpt>
      <trkpt lat="45.64145" lon="3.83835">
        <ele>1402.400024</ele>
        <time>2017-05-25T13:01:41Z</time>
      </trkpt>
      <trkpt lat="45.64136" lon="3.8383">
        <ele>1402.5</ele>
        <time>2017-05-25T13:01:44Z</time>
      </trkpt>
      <trkpt lat="45.64125" lon="3.83827">
        <ele>1402.400024</ele>
        <time>2017-05-25T13:01:47Z</time>
      </trkpt>
      <trkpt lat="45.64116" lon="3.83822">
        <ele>1402.099976</ele>
        <time>2017-05-25T13:01:51Z</time>
      </trkpt>
      <trkpt lat="45.64103" lon="3.8382">
        <ele>1401.400024</ele>
        <time>2017-05-25T13:01:56Z</time>
      </trkpt>
      <trkpt lat="45.64092" lon="3.83822">
        <ele>1400.699951</ele>
        <time>2017-05-25T13:01:59Z</time>
      </trkpt>
      <trkpt lat="45.6408" lon="3.83826">
        <ele>1399.900024</ele>
        <time>2017-05-25T13:02:02Z</time>
      </trkpt>
      <trkpt lat="45.64068" lon="3.83829">
        <ele>1398.699951</ele>
        <time>2017-05-25T13:02:05Z</time>
      </trkpt>
      <trkpt lat="45.64054" lon="3.83831">
        <ele>1397.300049</ele>
        <time>2017-05-25T13:02:08Z</time>
      </trkpt>
      <trkpt lat="45.64043" lon="3.83831">
        <ele>1395.699951</ele>
        <time>2017-05-25T13:02:11Z</time>
      </trkpt>
      <trkpt lat="45.64034" lon="3.83829">
        <ele>1394.199951</ele>
        <time>2017-05-25T13:02:14Z</time>
      </trkpt>
      <trkpt lat="45.64022" lon="3.83828">
        <ele>1392.699951</ele>
        <time>2017-05-25T13:02:17Z</time>
      </trkpt>
      <trkpt lat="45.64011" lon="3.83826">
        <ele>1391.5</ele>
        <time>2017-05-25T13:02:20Z</time>
      </trkpt>
      <trkpt lat="45.64" lon="3.83821">
        <ele>1389.699951</ele>
        <time>2017-05-25T13:02:23Z</time>
      </trkpt>
      <trkpt lat="45.63989" lon="3.83814">
        <ele>1388.199951</ele>
        <time>2017-05-25T13:02:26Z</time>
      </trkpt>
      <trkpt lat="45.63979" lon="3.83806">
        <ele>1387.099976</ele>
        <time>2017-05-25T13:02:29Z</time>
      </trkpt>
      <trkpt lat="45.63967" lon="3.83797">
        <ele>1385.699951</ele>
        <time>2017-05-25T13:02:32Z</time>
      </trkpt>
      <trkpt lat="45.63955" lon="3.83797">
        <ele>1384.599976</ele>
        <time>2017-05-25T13:02:35Z</time>
      </trkpt>
      <trkpt lat="45.63944" lon="3.83797">
        <ele>1382.400024</ele>
        <time>2017-05-25T13:02:39Z</time>
      </trkpt>
      <trkpt lat="45.63934" lon="3.83791">
        <ele>1380.199951</ele>
        <time>2017-05-25T13:02:43Z</time>
      </trkpt>
      <trkpt lat="45.63921" lon="3.83789">
        <ele>1378.599976</ele>
        <time>2017-05-25T13:02:46Z</time>
      </trkpt>
      <trkpt lat="45.63911" lon="3.83787">
        <ele>1377.699951</ele>
        <time>2017-05-25T13:02:48Z</time>
      </trkpt>
      <trkpt lat="45.63903" lon="3.83781">
        <ele>1376.199951</ele>
        <time>2017-05-25T13:02:51Z</time>
      </trkpt>
      <trkpt lat="45.63892" lon="3.83777">
        <ele>1375.099976</ele>
        <time>2017-05-25T13:02:54Z</time>
      </trkpt>
      <trkpt lat="45.63882" lon="3.8377">
        <ele>1373.800049</ele>
        <time>2017-05-25T13:02:58Z</time>
      </trkpt>
      <trkpt lat="45.63872" lon="3.83767">
        <ele>1372.900024</ele>
        <time>2017-05-25T13:03:01Z</time>
      </trkpt>
      <trkpt lat="45.63862" lon="3.83762">
        <ele>1372.099976</ele>
        <time>2017-05-25T13:03:04Z</time>
      </trkpt>
      <trkpt lat="45.63852" lon="3.83755">
        <ele>1371.699951</ele>
        <time>2017-05-25T13:03:07Z</time>
      </trkpt>
      <trkpt lat="45.63842" lon="3.83746">
        <ele>1370.800049</ele>
        <time>2017-05-25T13:03:12Z</time>
      </trkpt>
      <trkpt lat="45.63834" lon="3.83737">
        <ele>1370.400024</ele>
        <time>2017-05-25T13:03:15Z</time>
      </trkpt>
      <trkpt lat="45.63827" lon="3.83724">
        <ele>1370.099976</ele>
        <time>2017-05-25T13:03:18Z</time>
      </trkpt>
      <trkpt lat="45.63818" lon="3.83712">
        <ele>1369.5</ele>
        <time>2017-05-25T13:03:20Z</time>
      </trkpt>
      <trkpt lat="45.6381" lon="3.83705">
        <ele>1368.900024</ele>
        <time>2017-05-25T13:03:23Z</time>
      </trkpt>
      <trkpt lat="45.63801" lon="3.83698">
        <ele>1367.599976</ele>
        <time>2017-05-25T13:03:27Z</time>
      </trkpt>
      <trkpt lat="45.63787" lon="3.83693">
        <ele>1366.699951</ele>
        <time>2017-05-25T13:03:29Z</time>
      </trkpt>
      <trkpt lat="45.63777" lon="3.83692">
        <ele>1365.900024</ele>
        <time>2017-05-25T13:03:31Z</time>
      </trkpt>
      <trkpt lat="45.63766" lon="3.83691">
        <ele>1364.900024</ele>
        <time>2017-05-25T13:03:34Z</time>
      </trkpt>
      <trkpt lat="45.63754" lon="3.83694">
        <ele>1364</ele>
        <time>2017-05-25T13:03:37Z</time>
      </trkpt>
      <trkpt lat="45.63743" lon="3.83699">
        <ele>1363.599976</ele>
        <time>2017-05-25T13:03:39Z</time>
      </trkpt>
      <trkpt lat="45.63732" lon="3.83708">
        <ele>1363</ele>
        <time>2017-05-25T13:03:42Z</time>
      </trkpt>
      <trkpt lat="45.63723" lon="3.83711">
        <ele>1363.099976</ele>
        <time>2017-05-25T13:03:47Z</time>
      </trkpt>
      <trkpt lat="45.63714" lon="3.83709">
        <ele>1363.900024</ele>
        <time>2017-05-25T13:03:52Z</time>
      </trkpt>
      <trkpt lat="45.63705" lon="3.83707">
        <ele>1364.900024</ele>
        <time>2017-05-25T13:03:57Z</time>
      </trkpt>
      <trkpt lat="45.63696" lon="3.83704">
        <ele>1365.5</ele>
        <time>2017-05-25T13:04:02Z</time>
      </trkpt>
      <trkpt lat="45.63686" lon="3.83701">
        <ele>1366</ele>
        <time>2017-05-25T13:04:07Z</time>
      </trkpt>
      <trkpt lat="45.63675" lon="3.83697">
        <ele>1366.400024</ele>
        <time>2017-05-25T13:04:12Z</time>
      </trkpt>
      <trkpt lat="45.63666" lon="3.83694">
        <ele>1366.599976</ele>
        <time>2017-05-25T13:04:15Z</time>
      </trkpt>
      <trkpt lat="45.63656" lon="3.8369">
        <ele>1366.599976</ele>
        <time>2017-05-25T13:04:19Z</time>
      </trkpt>
      <trkpt lat="45.63646" lon="3.83684">
        <ele>1366.800049</ele>
        <time>2017-05-25T13:04:24Z</time>
      </trkpt>
      <trkpt lat="45.63637" lon="3.83682">
        <ele>1366.699951</ele>
        <time>2017-05-25T13:04:29Z</time>
      </trkpt>
      <trkpt lat="45.6363" lon="3.83692">
        <ele>1366.400024</ele>
        <time>2017-05-25T13:04:36Z</time>
      </trkpt>
      <trkpt lat="45.63627" lon="3.83704">
        <ele>1366.699951</ele>
        <time>2017-05-25T13:04:42Z</time>
      </trkpt>
      <trkpt lat="45.63622" lon="3.83717">
        <ele>1367</ele>
        <time>2017-05-25T13:04:47Z</time>
      </trkpt>
      <trkpt lat="45.63619" lon="3.83729">
        <ele>1367.699951</ele>
        <time>2017-05-25T13:04:54Z</time>
      </trkpt>
      <trkpt lat="45.63616" lon="3.83744">
        <ele>1368.5</ele>
        <time>2017-05-25T13:05:01Z</time>
      </trkpt>
      <trkpt lat="45.63611" lon="3.83756">
        <ele>1368.900024</ele>
        <time>2017-05-25T13:05:05Z</time>
      </trkpt>
      <trkpt lat="45.63604" lon="3.83768">
        <ele>1369.300049</ele>
        <time>2017-05-25T13:05:09Z</time>
      </trkpt>
      <trkpt lat="45.636" lon="3.83781">
        <ele>1369.400024</ele>
        <time>2017-05-25T13:05:13Z</time>
      </trkpt>
      <trkpt lat="45.63598" lon="3.83793">
        <ele>1370</ele>
        <time>2017-05-25T13:05:18Z</time>
      </trkpt>
      <trkpt lat="45.63594" lon="3.83808">
        <ele>1370.5</ele>
        <time>2017-05-25T13:05:23Z</time>
      </trkpt>
      <trkpt lat="45.63594" lon="3.83822">
        <ele>1370.800049</ele>
        <time>2017-05-25T13:05:30Z</time>
      </trkpt>
      <trkpt lat="45.63588" lon="3.83835">
        <ele>1370.699951</ele>
        <time>2017-05-25T13:05:34Z</time>
      </trkpt>
      <trkpt lat="45.63582" lon="3.83847">
        <ele>1371</ele>
        <time>2017-05-25T13:05:38Z</time>
      </trkpt>
      <trkpt lat="45.63579" lon="3.83859">
        <ele>1371.400024</ele>
        <time>2017-05-25T13:05:42Z</time>
      </trkpt>
      <trkpt lat="45.63574" lon="3.83871">
        <ele>1372.300049</ele>
        <time>2017-05-25T13:05:47Z</time>
      </trkpt>
      <trkpt lat="45.63569" lon="3.83883">
        <ele>1372.900024</ele>
        <time>2017-05-25T13:05:51Z</time>
      </trkpt>
      <trkpt lat="45.63564" lon="3.83895">
        <ele>1372.599976</ele>
        <time>2017-05-25T13:05:55Z</time>
      </trkpt>
      <trkpt lat="45.6356" lon="3.83907">
        <ele>1373.599976</ele>
        <time>2017-05-25T13:06:00Z</time>
      </trkpt>
      <trkpt lat="45.63557" lon="3.8392">
        <ele>1375.099976</ele>
        <time>2017-05-25T13:06:06Z</time>
      </trkpt>
      <trkpt lat="45.63553" lon="3.83933">
        <ele>1376.099976</ele>
        <time>2017-05-25T13:06:11Z</time>
      </trkpt>
      <trkpt lat="45.63549" lon="3.83945">
        <ele>1377.400024</ele>
        <time>2017-05-25T13:06:17Z</time>
      </trkpt>
      <trkpt lat="45.63546" lon="3.83958">
        <ele>1378.300049</ele>
        <time>2017-05-25T13:06:23Z</time>
      </trkpt>
      <trkpt lat="45.6354" lon="3.83971">
        <ele>1378.800049</ele>
        <time>2017-05-25T13:06:28Z</time>
      </trkpt>
      <trkpt lat="45.63535" lon="3.83983">
        <ele>1379.599976</ele>
        <time>2017-05-25T13:06:33Z</time>
      </trkpt>
      <trkpt lat="45.6353" lon="3.83994">
        <ele>1380</ele>
        <time>2017-05-25T13:06:38Z</time>
      </trkpt>
      <trkpt lat="45.63524" lon="3.84005">
        <ele>1380.5</ele>
        <time>2017-05-25T13:06:43Z</time>
      </trkpt>
      <trkpt lat="45.63517" lon="3.84016">
        <ele>1381.199951</ele>
        <time>2017-05-25T13:06:48Z</time>
      </trkpt>
      <trkpt lat="45.63511" lon="3.84028">
        <ele>1381.599976</ele>
        <time>2017-05-25T13:06:53Z</time>
      </trkpt>
      <trkpt lat="45.63505" lon="3.84041">
        <ele>1382.199951</ele>
        <time>2017-05-25T13:06:58Z</time>
      </trkpt>
      <trkpt lat="45.635" lon="3.84053">
        <ele>1382.5</ele>
        <time>2017-05-25T13:07:03Z</time>
      </trkpt>
      <trkpt lat="45.63494" lon="3.84064">
        <ele>1383.099976</ele>
        <time>2017-05-25T13:07:08Z</time>
      </trkpt>
      <trkpt lat="45.63488" lon="3.84074">
        <ele>1383.599976</ele>
        <time>2017-05-25T13:07:13Z</time>
      </trkpt>
      <trkpt lat="45.63481" lon="3.84083">
        <ele>1384.199951</ele>
        <time>2017-05-25T13:07:18Z</time>
      </trkpt>
      <trkpt lat="45.63475" lon="3.84094">
        <ele>1384.400024</ele>
        <time>2017-05-25T13:07:23Z</time>
      </trkpt>
      <trkpt lat="45.63468" lon="3.84106">
        <ele>1385.400024</ele>
        <time>2017-05-25T13:07:29Z</time>
      </trkpt>
      <trkpt lat="45.63461" lon="3.84117">
        <ele>1386.300049</ele>
        <time>2017-05-25T13:07:34Z</time>
      </trkpt>
      <trkpt lat="45.63456" lon="3.84128">
        <ele>1387.400024</ele>
        <time>2017-05-25T13:07:39Z</time>
      </trkpt>
      <trkpt lat="45.6345" lon="3.84138">
        <ele>1388.199951</ele>
        <time>2017-05-25T13:07:44Z</time>
      </trkpt>
      <trkpt lat="45.63444" lon="3.8415">
        <ele>1388.800049</ele>
        <time>2017-05-25T13:07:49Z</time>
      </trkpt>
      <trkpt lat="45.63438" lon="3.84162">
        <ele>1389.699951</ele>
        <time>2017-05-25T13:07:54Z</time>
      </trkpt>
      <trkpt lat="45.63431" lon="3.84174">
        <ele>1390</ele>
        <time>2017-05-25T13:07:59Z</time>
      </trkpt>
      <trkpt lat="45.63425" lon="3.84186">
        <ele>1390.5</ele>
        <time>2017-05-25T13:08:04Z</time>
      </trkpt>
      <trkpt lat="45.63418" lon="3.84198">
        <ele>1391.300049</ele>
        <time>2017-05-25T13:08:09Z</time>
      </trkpt>
      <trkpt lat="45.63413" lon="3.8421">
        <ele>1391.699951</ele>
        <time>2017-05-25T13:08:14Z</time>
      </trkpt>
      <trkpt lat="45.63408" lon="3.8422">
        <ele>1392</ele>
        <time>2017-05-25T13:08:18Z</time>
      </trkpt>
      <trkpt lat="45.63402" lon="3.84233">
        <ele>1392.099976</ele>
        <time>2017-05-25T13:08:22Z</time>
      </trkpt>
      <trkpt lat="45.63397" lon="3.84246">
        <ele>1392.300049</ele>
        <time>2017-05-25T13:08:26Z</time>
      </trkpt>
      <trkpt lat="45.6339" lon="3.84258">
        <ele>1392.5</ele>
        <time>2017-05-25T13:08:30Z</time>
      </trkpt>
      <trkpt lat="45.63383" lon="3.84268">
        <ele>1392.900024</ele>
        <time>2017-05-25T13:08:34Z</time>
      </trkpt>
      <trkpt lat="45.63378" lon="3.84279">
        <ele>1393</ele>
        <time>2017-05-25T13:08:38Z</time>
      </trkpt>
      <trkpt lat="45.63371" lon="3.84288">
        <ele>1393.099976</ele>
        <time>2017-05-25T13:08:41Z</time>
      </trkpt>
      <trkpt lat="45.63363" lon="3.84297">
        <ele>1393.199951</ele>
        <time>2017-05-25T13:08:45Z</time>
      </trkpt>
      <trkpt lat="45.63353" lon="3.84306">
        <ele>1393.900024</ele>
        <time>2017-05-25T13:08:49Z</time>
      </trkpt>
      <trkpt lat="45.63344" lon="3.84313">
        <ele>1394.300049</ele>
        <time>2017-05-25T13:08:53Z</time>
      </trkpt>
      <trkpt lat="45.63333" lon="3.84318">
        <ele>1394.5</ele>
        <time>2017-05-25T13:08:57Z</time>
      </trkpt>
      <trkpt lat="45.63324" lon="3.84322">
        <ele>1394.599976</ele>
        <time>2017-05-25T13:09:00Z</time>
      </trkpt>
      <trkpt lat="45.63312" lon="3.84325">
        <ele>1394.800049</ele>
        <time>2017-05-25T13:09:04Z</time>
      </trkpt>
      <trkpt lat="45.63303" lon="3.84327">
        <ele>1394.800049</ele>
        <time>2017-05-25T13:09:08Z</time>
      </trkpt>
      <trkpt lat="45.63293" lon="3.84332">
        <ele>1394.900024</ele>
        <time>2017-05-25T13:09:11Z</time>
      </trkpt>
      <trkpt lat="45.63284" lon="3.84345">
        <ele>1394.599976</ele>
        <time>2017-05-25T13:09:14Z</time>
      </trkpt>
      <trkpt lat="45.6328" lon="3.84361">
        <ele>1394.300049</ele>
        <time>2017-05-25T13:09:17Z</time>
      </trkpt>
      <trkpt lat="45.63278" lon="3.84374">
        <ele>1394.199951</ele>
        <time>2017-05-25T13:09:20Z</time>
      </trkpt>
      <trkpt lat="45.63278" lon="3.84387">
        <ele>1394.199951</ele>
        <time>2017-05-25T13:09:23Z</time>
      </trkpt>
      <trkpt lat="45.63276" lon="3.84402">
        <ele>1394.199951</ele>
        <time>2017-05-25T13:09:26Z</time>
      </trkpt>
      <trkpt lat="45.63275" lon="3.84416">
        <ele>1393.800049</ele>
        <time>2017-05-25T13:09:29Z</time>
      </trkpt>
      <trkpt lat="45.63273" lon="3.84431">
        <ele>1393.5</ele>
        <time>2017-05-25T13:09:32Z</time>
      </trkpt>
      <trkpt lat="45.63271" lon="3.84449">
        <ele>1392.900024</ele>
        <time>2017-05-25T13:09:35Z</time>
      </trkpt>
      <trkpt lat="45.6327" lon="3.84467">
        <ele>1391.599976</ele>
        <time>2017-05-25T13:09:38Z</time>
      </trkpt>
      <trkpt lat="45.63269" lon="3.84485">
        <ele>1391.199951</ele>
        <time>2017-05-25T13:09:41Z</time>
      </trkpt>
      <trkpt lat="45.63269" lon="3.84499">
        <ele>1390.800049</ele>
        <time>2017-05-25T13:09:44Z</time>
      </trkpt>
      <trkpt lat="45.63268" lon="3.84515">
        <ele>1390.099976</ele>
        <time>2017-05-25T13:09:48Z</time>
      </trkpt>
      <trkpt lat="45.63268" lon="3.84531">
        <ele>1389.5</ele>
        <time>2017-05-25T13:09:52Z</time>
      </trkpt>
      <trkpt lat="45.63266" lon="3.84545">
        <ele>1388.800049</ele>
        <time>2017-05-25T13:09:59Z</time>
      </trkpt>
      <trkpt lat="45.63267" lon="3.84558">
        <ele>1389.099976</ele>
        <time>2017-05-25T13:17:16Z</time>
      </trkpt>
      <trkpt lat="45.63268" lon="3.84572">
        <ele>1388.199951</ele>
        <time>2017-05-25T13:17:32Z</time>
      </trkpt>
      <trkpt lat="45.63267" lon="3.84587">
        <ele>1388.099976</ele>
        <time>2017-05-25T13:17:37Z</time>
      </trkpt>
      <trkpt lat="45.63267" lon="3.84603">
        <ele>1387.800049</ele>
        <time>2017-05-25T13:17:40Z</time>
      </trkpt>
      <trkpt lat="45.63264" lon="3.84621">
        <ele>1387.599976</ele>
        <time>2017-05-25T13:17:43Z</time>
      </trkpt>
      <trkpt lat="45.6326" lon="3.84639">
        <ele>1387</ele>
        <time>2017-05-25T13:17:46Z</time>
      </trkpt>
      <trkpt lat="45.63257" lon="3.84657">
        <ele>1386.5</ele>
        <time>2017-05-25T13:17:49Z</time>
      </trkpt>
      <trkpt lat="45.63254" lon="3.8467">
        <ele>1386.199951</ele>
        <time>2017-05-25T13:17:52Z</time>
      </trkpt>
      <trkpt lat="45.63247" lon="3.84679">
        <ele>1386.099976</ele>
        <time>2017-05-25T13:17:54Z</time>
      </trkpt>
      <trkpt lat="45.63247" lon="3.84693">
        <ele>1385.900024</ele>
        <time>2017-05-25T13:17:58Z</time>
      </trkpt>
      <trkpt lat="45.6324" lon="3.84708">
        <ele>1385.800049</ele>
        <time>2017-05-25T13:18:02Z</time>
      </trkpt>
      <trkpt lat="45.63235" lon="3.84721">
        <ele>1386.5</ele>
        <time>2017-05-25T13:18:06Z</time>
      </trkpt>
      <trkpt lat="45.63229" lon="3.84733">
        <ele>1386.900024</ele>
        <time>2017-05-25T13:18:10Z</time>
      </trkpt>
      <trkpt lat="45.63223" lon="3.84745">
        <ele>1387.099976</ele>
        <time>2017-05-25T13:18:14Z</time>
      </trkpt>
      <trkpt lat="45.63216" lon="3.84757">
        <ele>1387.699951</ele>
        <time>2017-05-25T13:18:18Z</time>
      </trkpt>
      <trkpt lat="45.6321" lon="3.84771">
        <ele>1388</ele>
        <time>2017-05-25T13:18:23Z</time>
      </trkpt>
      <trkpt lat="45.63204" lon="3.84783">
        <ele>1388.199951</ele>
        <time>2017-05-25T13:18:27Z</time>
      </trkpt>
      <trkpt lat="45.63199" lon="3.84796">
        <ele>1388.800049</ele>
        <time>2017-05-25T13:18:32Z</time>
      </trkpt>
      <trkpt lat="45.63194" lon="3.84808">
        <ele>1389.099976</ele>
        <time>2017-05-25T13:18:36Z</time>
      </trkpt>
      <trkpt lat="45.63188" lon="3.8482">
        <ele>1389.5</ele>
        <time>2017-05-25T13:18:40Z</time>
      </trkpt>
      <trkpt lat="45.63181" lon="3.84831">
        <ele>1390.099976</ele>
        <time>2017-05-25T13:18:44Z</time>
      </trkpt>
      <trkpt lat="45.63173" lon="3.84843">
        <ele>1390.300049</ele>
        <time>2017-05-25T13:18:48Z</time>
      </trkpt>
      <trkpt lat="45.63166" lon="3.84854">
        <ele>1390.599976</ele>
        <time>2017-05-25T13:18:52Z</time>
      </trkpt>
      <trkpt lat="45.63159" lon="3.84866">
        <ele>1390.800049</ele>
        <time>2017-05-25T13:18:56Z</time>
      </trkpt>
      <trkpt lat="45.63153" lon="3.84877">
        <ele>1391.300049</ele>
        <time>2017-05-25T13:19:00Z</time>
      </trkpt>
      <trkpt lat="45.63147" lon="3.84889">
        <ele>1391.599976</ele>
        <time>2017-05-25T13:19:04Z</time>
      </trkpt>
      <trkpt lat="45.63141" lon="3.84903">
        <ele>1392</ele>
        <time>2017-05-25T13:19:09Z</time>
      </trkpt>
      <trkpt lat="45.63134" lon="3.84915">
        <ele>1392.199951</ele>
        <time>2017-05-25T13:19:13Z</time>
      </trkpt>
      <trkpt lat="45.63129" lon="3.84927">
        <ele>1392.599976</ele>
        <time>2017-05-25T13:19:17Z</time>
      </trkpt>
      <trkpt lat="45.63124" lon="3.84939">
        <ele>1393</ele>
        <time>2017-05-25T13:19:21Z</time>
      </trkpt>
      <trkpt lat="45.63119" lon="3.84951">
        <ele>1393.900024</ele>
        <time>2017-05-25T13:19:25Z</time>
      </trkpt>
      <trkpt lat="45.63114" lon="3.84963">
        <ele>1394.300049</ele>
        <time>2017-05-25T13:19:29Z</time>
      </trkpt>
      <trkpt lat="45.63111" lon="3.84978">
        <ele>1394.699951</ele>
        <time>2017-05-25T13:19:33Z</time>
      </trkpt>
      <trkpt lat="45.6311" lon="3.84992">
        <ele>1395</ele>
        <time>2017-05-25T13:19:36Z</time>
      </trkpt>
      <trkpt lat="45.63109" lon="3.85009">
        <ele>1395.099976</ele>
        <time>2017-05-25T13:19:39Z</time>
      </trkpt>
      <trkpt lat="45.63106" lon="3.85027">
        <ele>1394.800049</ele>
        <time>2017-05-25T13:19:42Z</time>
      </trkpt>
      <trkpt lat="45.63104" lon="3.85043">
        <ele>1394.900024</ele>
        <time>2017-05-25T13:19:45Z</time>
      </trkpt>
      <trkpt lat="45.63101" lon="3.85057">
        <ele>1394.800049</ele>
        <time>2017-05-25T13:19:48Z</time>
      </trkpt>
      <trkpt lat="45.63098" lon="3.85069">
        <ele>1394.699951</ele>
        <time>2017-05-25T13:19:51Z</time>
      </trkpt>
      <trkpt lat="45.63094" lon="3.85082">
        <ele>1394.800049</ele>
        <time>2017-05-25T13:19:54Z</time>
      </trkpt>
      <trkpt lat="45.63091" lon="3.85094">
        <ele>1395.300049</ele>
        <time>2017-05-25T13:19:57Z</time>
      </trkpt>
      <trkpt lat="45.63087" lon="3.85107">
        <ele>1395.599976</ele>
        <time>2017-05-25T13:20:00Z</time>
      </trkpt>
      <trkpt lat="45.63083" lon="3.85121">
        <ele>1395.599976</ele>
        <time>2017-05-25T13:20:03Z</time>
      </trkpt>
      <trkpt lat="45.63079" lon="3.85133">
        <ele>1395.599976</ele>
        <time>2017-05-25T13:20:06Z</time>
      </trkpt>
      <trkpt lat="45.63074" lon="3.85144">
        <ele>1395.699951</ele>
        <time>2017-05-25T13:20:09Z</time>
      </trkpt>
      <trkpt lat="45.63069" lon="3.85155">
        <ele>1395.900024</ele>
        <time>2017-05-25T13:20:12Z</time>
      </trkpt>
      <trkpt lat="45.63062" lon="3.85168">
        <ele>1396.5</ele>
        <time>2017-05-25T13:20:16Z</time>
      </trkpt>
      <trkpt lat="45.63053" lon="3.85179">
        <ele>1396.599976</ele>
        <time>2017-05-25T13:20:20Z</time>
      </trkpt>
      <trkpt lat="45.63044" lon="3.85188">
        <ele>1396.599976</ele>
        <time>2017-05-25T13:20:24Z</time>
      </trkpt>
      <trkpt lat="45.63035" lon="3.85195">
        <ele>1397.099976</ele>
        <time>2017-05-25T13:20:28Z</time>
      </trkpt>
      <trkpt lat="45.63026" lon="3.85203">
        <ele>1397.5</ele>
        <time>2017-05-25T13:20:32Z</time>
      </trkpt>
      <trkpt lat="45.63015" lon="3.85209">
        <ele>1397.900024</ele>
        <time>2017-05-25T13:20:36Z</time>
      </trkpt>
      <trkpt lat="45.63005" lon="3.85214">
        <ele>1398.300049</ele>
        <time>2017-05-25T13:20:40Z</time>
      </trkpt>
      <trkpt lat="45.62995" lon="3.85215">
        <ele>1398.699951</ele>
        <time>2017-05-25T13:20:44Z</time>
      </trkpt>
      <trkpt lat="45.62985" lon="3.85214">
        <ele>1399.099976</ele>
        <time>2017-05-25T13:20:48Z</time>
      </trkpt>
      <trkpt lat="45.62975" lon="3.85212">
        <ele>1399.5</ele>
        <time>2017-05-25T13:20:52Z</time>
      </trkpt>
      <trkpt lat="45.62964" lon="3.85209">
        <ele>1400.300049</ele>
        <time>2017-05-25T13:20:57Z</time>
      </trkpt>
      <trkpt lat="45.62954" lon="3.85206">
        <ele>1401</ele>
        <time>2017-05-25T13:21:01Z</time>
      </trkpt>
      <trkpt lat="45.62945" lon="3.85205">
        <ele>1401.599976</ele>
        <time>2017-05-25T13:21:05Z</time>
      </trkpt>
      <trkpt lat="45.62935" lon="3.85209">
        <ele>1402.199951</ele>
        <time>2017-05-25T13:21:09Z</time>
      </trkpt>
      <trkpt lat="45.62925" lon="3.85217">
        <ele>1402.599976</ele>
        <time>2017-05-25T13:21:13Z</time>
      </trkpt>
      <trkpt lat="45.62917" lon="3.85227">
        <ele>1403.300049</ele>
        <time>2017-05-25T13:21:17Z</time>
      </trkpt>
      <trkpt lat="45.62909" lon="3.85237">
        <ele>1404.099976</ele>
        <time>2017-05-25T13:21:21Z</time>
      </trkpt>
      <trkpt lat="45.62901" lon="3.85246">
        <ele>1404.599976</ele>
        <time>2017-05-25T13:21:25Z</time>
      </trkpt>
      <trkpt lat="45.62894" lon="3.85253">
        <ele>1405</ele>
        <time>2017-05-25T13:21:29Z</time>
      </trkpt>
      <trkpt lat="45.62886" lon="3.85262">
        <ele>1405.199951</ele>
        <time>2017-05-25T13:21:33Z</time>
      </trkpt>
      <trkpt lat="45.62878" lon="3.85271">
        <ele>1405.300049</ele>
        <time>2017-05-25T13:21:37Z</time>
      </trkpt>
      <trkpt lat="45.6287" lon="3.85281">
        <ele>1405.300049</ele>
        <time>2017-05-25T13:21:41Z</time>
      </trkpt>
      <trkpt lat="45.62864" lon="3.8529">
        <ele>1405.199951</ele>
        <time>2017-05-25T13:21:44Z</time>
      </trkpt>
      <trkpt lat="45.62857" lon="3.85301">
        <ele>1404.5</ele>
        <time>2017-05-25T13:21:47Z</time>
      </trkpt>
      <trkpt lat="45.62847" lon="3.8531">
        <ele>1403.199951</ele>
        <time>2017-05-25T13:21:51Z</time>
      </trkpt>
      <trkpt lat="45.62838" lon="3.85319">
        <ele>1401.5</ele>
        <time>2017-05-25T13:21:55Z</time>
      </trkpt>
      <trkpt lat="45.62829" lon="3.85326">
        <ele>1399.900024</ele>
        <time>2017-05-25T13:22:00Z</time>
      </trkpt>
      <trkpt lat="45.6282" lon="3.85329">
        <ele>1399</ele>
        <time>2017-05-25T13:22:11Z</time>
      </trkpt>
      <trkpt lat="45.62815" lon="3.8534">
        <ele>1398.800049</ele>
        <time>2017-05-25T13:22:26Z</time>
      </trkpt>
      <trkpt lat="45.62813" lon="3.85354">
        <ele>1398.699951</ele>
        <time>2017-05-25T13:22:36Z</time>
      </trkpt>
      <trkpt lat="45.62811" lon="3.85367">
        <ele>1399</ele>
        <time>2017-05-25T13:22:40Z</time>
      </trkpt>
      <trkpt lat="45.62809" lon="3.8538">
        <ele>1398.800049</ele>
        <time>2017-05-25T13:22:44Z</time>
      </trkpt>
      <trkpt lat="45.62807" lon="3.85394">
        <ele>1398.5</ele>
        <time>2017-05-25T13:22:49Z</time>
      </trkpt>
      <trkpt lat="45.62814" lon="3.85406">
        <ele>1398.400024</ele>
        <time>2017-05-25T13:22:55Z</time>
      </trkpt>
      <trkpt lat="45.62823" lon="3.85413">
        <ele>1398.599976</ele>
        <time>2017-05-25T13:23:00Z</time>
      </trkpt>
      <trkpt lat="45.62833" lon="3.85419">
        <ele>1399.099976</ele>
        <time>2017-05-25T13:23:05Z</time>
      </trkpt>
      <trkpt lat="45.6284" lon="3.85425">
        <ele>1399.300049</ele>
        <time>2017-05-25T13:23:10Z</time>
      </trkpt>
      <trkpt lat="45.62849" lon="3.85433">
        <ele>1399.400024</ele>
        <time>2017-05-25T13:23:14Z</time>
      </trkpt>
      <trkpt lat="45.62858" lon="3.85442">
        <ele>1399.699951</ele>
        <time>2017-05-25T13:23:18Z</time>
      </trkpt>
      <trkpt lat="45.62865" lon="3.85451">
        <ele>1400.199951</ele>
        <time>2017-05-25T13:23:22Z</time>
      </trkpt>
      <trkpt lat="45.62872" lon="3.85463">
        <ele>1400.199951</ele>
        <time>2017-05-25T13:23:26Z</time>
      </trkpt>
      <trkpt lat="45.62879" lon="3.85473">
        <ele>1400.800049</ele>
        <time>2017-05-25T13:23:30Z</time>
      </trkpt>
      <trkpt lat="45.62886" lon="3.85486">
        <ele>1400.900024</ele>
        <time>2017-05-25T13:23:34Z</time>
      </trkpt>
      <trkpt lat="45.62893" lon="3.855">
        <ele>1400.5</ele>
        <time>2017-05-25T13:23:38Z</time>
      </trkpt>
      <trkpt lat="45.629" lon="3.85513">
        <ele>1400.400024</ele>
        <time>2017-05-25T13:23:42Z</time>
      </trkpt>
      <trkpt lat="45.62907" lon="3.85527">
        <ele>1400.199951</ele>
        <time>2017-05-25T13:23:46Z</time>
      </trkpt>
      <trkpt lat="45.62912" lon="3.85538">
        <ele>1400.199951</ele>
        <time>2017-05-25T13:23:49Z</time>
      </trkpt>
      <trkpt lat="45.62918" lon="3.85547">
        <ele>1400.199951</ele>
        <time>2017-05-25T13:23:52Z</time>
      </trkpt>
      <trkpt lat="45.62924" lon="3.85557">
        <ele>1400.599976</ele>
        <time>2017-05-25T13:23:55Z</time>
      </trkpt>
      <trkpt lat="45.62933" lon="3.85569">
        <ele>1400.699951</ele>
        <time>2017-05-25T13:23:59Z</time>
      </trkpt>
      <trkpt lat="45.6294" lon="3.85578">
        <ele>1400.900024</ele>
        <time>2017-05-25T13:24:02Z</time>
      </trkpt>
      <trkpt lat="45.62947" lon="3.85586">
        <ele>1401</ele>
        <time>2017-05-25T13:24:05Z</time>
      </trkpt>
      <trkpt lat="45.62955" lon="3.85594">
        <ele>1401.199951</ele>
        <time>2017-05-25T13:24:08Z</time>
      </trkpt>
      <trkpt lat="45.62962" lon="3.85601">
        <ele>1401.300049</ele>
        <time>2017-05-25T13:24:11Z</time>
      </trkpt>
      <trkpt lat="45.6297" lon="3.85609">
        <ele>1401.300049</ele>
        <time>2017-05-25T13:24:14Z</time>
      </trkpt>
      <trkpt lat="45.62977" lon="3.85617">
        <ele>1401.300049</ele>
        <time>2017-05-25T13:24:17Z</time>
      </trkpt>
      <trkpt lat="45.62984" lon="3.85624">
        <ele>1401.400024</ele>
        <time>2017-05-25T13:24:20Z</time>
      </trkpt>
      <trkpt lat="45.62994" lon="3.85634">
        <ele>1401.599976</ele>
        <time>2017-05-25T13:24:24Z</time>
      </trkpt>
      <trkpt lat="45.63002" lon="3.85644">
        <ele>1401.900024</ele>
        <time>2017-05-25T13:24:28Z</time>
      </trkpt>
      <trkpt lat="45.63012" lon="3.85654">
        <ele>1402.300049</ele>
        <time>2017-05-25T13:24:32Z</time>
      </trkpt>
      <trkpt lat="45.6302" lon="3.85664">
        <ele>1402.599976</ele>
        <time>2017-05-25T13:24:36Z</time>
      </trkpt>
      <trkpt lat="45.63029" lon="3.85674">
        <ele>1403.099976</ele>
        <time>2017-05-25T13:24:40Z</time>
      </trkpt>
      <trkpt lat="45.63037" lon="3.85684">
        <ele>1403.800049</ele>
        <time>2017-05-25T13:24:44Z</time>
      </trkpt>
      <trkpt lat="45.63044" lon="3.85694">
        <ele>1404.599976</ele>
        <time>2017-05-25T13:24:48Z</time>
      </trkpt>
      <trkpt lat="45.63052" lon="3.85704">
        <ele>1405.099976</ele>
        <time>2017-05-25T13:24:52Z</time>
      </trkpt>
      <trkpt lat="45.63061" lon="3.85712">
        <ele>1405.900024</ele>
        <time>2017-05-25T13:24:56Z</time>
      </trkpt>
      <trkpt lat="45.6307" lon="3.85721">
        <ele>1406.300049</ele>
        <time>2017-05-25T13:25:00Z</time>
      </trkpt>
      <trkpt lat="45.63078" lon="3.85729">
        <ele>1406.699951</ele>
        <time>2017-05-25T13:25:04Z</time>
      </trkpt>
      <trkpt lat="45.63087" lon="3.85739">
        <ele>1406.900024</ele>
        <time>2017-05-25T13:25:08Z</time>
      </trkpt>
      <trkpt lat="45.63096" lon="3.85748">
        <ele>1406.800049</ele>
        <time>2017-05-25T13:25:12Z</time>
      </trkpt>
      <trkpt lat="45.63104" lon="3.85759">
        <ele>1406.800049</ele>
        <time>2017-05-25T13:25:16Z</time>
      </trkpt>
      <trkpt lat="45.63112" lon="3.8577">
        <ele>1406.599976</ele>
        <time>2017-05-25T13:25:20Z</time>
      </trkpt>
      <trkpt lat="45.6312" lon="3.85781">
        <ele>1406.800049</ele>
        <time>2017-05-25T13:25:24Z</time>
      </trkpt>
      <trkpt lat="45.63127" lon="3.85793">
        <ele>1406.599976</ele>
        <time>2017-05-25T13:25:28Z</time>
      </trkpt>
      <trkpt lat="45.63133" lon="3.85804">
        <ele>1406.599976</ele>
        <time>2017-05-25T13:25:31Z</time>
      </trkpt>
      <trkpt lat="45.63138" lon="3.85815">
        <ele>1406.300049</ele>
        <time>2017-05-25T13:25:34Z</time>
      </trkpt>
      <trkpt lat="45.63144" lon="3.85826">
        <ele>1406</ele>
        <time>2017-05-25T13:25:37Z</time>
      </trkpt>
      <trkpt lat="45.6315" lon="3.85838">
        <ele>1405.800049</ele>
        <time>2017-05-25T13:25:40Z</time>
      </trkpt>
      <trkpt lat="45.63155" lon="3.85849">
        <ele>1405.599976</ele>
        <time>2017-05-25T13:25:43Z</time>
      </trkpt>
      <trkpt lat="45.63159" lon="3.85861">
        <ele>1405.199951</ele>
        <time>2017-05-25T13:25:46Z</time>
      </trkpt>
      <trkpt lat="45.63163" lon="3.85874">
        <ele>1405.199951</ele>
        <time>2017-05-25T13:25:49Z</time>
      </trkpt>
      <trkpt lat="45.63166" lon="3.85888">
        <ele>1405.099976</ele>
        <time>2017-05-25T13:25:52Z</time>
      </trkpt>
      <trkpt lat="45.63168" lon="3.85901">
        <ele>1404.900024</ele>
        <time>2017-05-25T13:25:55Z</time>
      </trkpt>
      <trkpt lat="45.63173" lon="3.85913">
        <ele>1405</ele>
        <time>2017-05-25T13:25:58Z</time>
      </trkpt>
      <trkpt lat="45.63177" lon="3.85926">
        <ele>1404.800049</ele>
        <time>2017-05-25T13:26:01Z</time>
      </trkpt>
      <trkpt lat="45.63182" lon="3.8594">
        <ele>1404.699951</ele>
        <time>2017-05-25T13:26:04Z</time>
      </trkpt>
      <trkpt lat="45.63186" lon="3.85956">
        <ele>1404.599976</ele>
        <time>2017-05-25T13:26:07Z</time>
      </trkpt>
      <trkpt lat="45.63191" lon="3.85971">
        <ele>1404.599976</ele>
        <time>2017-05-25T13:26:10Z</time>
      </trkpt>
      <trkpt lat="45.63195" lon="3.85987">
        <ele>1404.199951</ele>
        <time>2017-05-25T13:26:13Z</time>
      </trkpt>
      <trkpt lat="45.63201" lon="3.86004">
        <ele>1404</ele>
        <time>2017-05-25T13:26:16Z</time>
      </trkpt>
      <trkpt lat="45.63205" lon="3.86017">
        <ele>1403.699951</ele>
        <time>2017-05-25T13:26:18Z</time>
      </trkpt>
      <trkpt lat="45.63209" lon="3.8603">
        <ele>1403.099976</ele>
        <time>2017-05-25T13:26:20Z</time>
      </trkpt>
      <trkpt lat="45.63215" lon="3.86047">
        <ele>1402.599976</ele>
        <time>2017-05-25T13:26:23Z</time>
      </trkpt>
      <trkpt lat="45.63219" lon="3.86064">
        <ele>1402</ele>
        <time>2017-05-25T13:26:26Z</time>
      </trkpt>
      <trkpt lat="45.63222" lon="3.86076">
        <ele>1401.900024</ele>
        <time>2017-05-25T13:26:28Z</time>
      </trkpt>
      <trkpt lat="45.63226" lon="3.86089">
        <ele>1401.5</ele>
        <time>2017-05-25T13:26:30Z</time>
      </trkpt>
      <trkpt lat="45.63232" lon="3.86101">
        <ele>1400.900024</ele>
        <time>2017-05-25T13:26:32Z</time>
      </trkpt>
      <trkpt lat="45.63239" lon="3.86113">
        <ele>1400.199951</ele>
        <time>2017-05-25T13:26:34Z</time>
      </trkpt>
      <trkpt lat="45.63244" lon="3.86126">
        <ele>1399.800049</ele>
        <time>2017-05-25T13:26:36Z</time>
      </trkpt>
      <trkpt lat="45.63249" lon="3.8614">
        <ele>1399.5</ele>
        <time>2017-05-25T13:26:38Z</time>
      </trkpt>
      <trkpt lat="45.63252" lon="3.86154">
        <ele>1398.900024</ele>
        <time>2017-05-25T13:26:40Z</time>
      </trkpt>
      <trkpt lat="45.63256" lon="3.86168">
        <ele>1398.699951</ele>
        <time>2017-05-25T13:26:42Z</time>
      </trkpt>
      <trkpt lat="45.63261" lon="3.86182">
        <ele>1398.5</ele>
        <time>2017-05-25T13:26:44Z</time>
      </trkpt>
      <trkpt lat="45.63265" lon="3.86195">
        <ele>1398.300049</ele>
        <time>2017-05-25T13:26:46Z</time>
      </trkpt>
      <trkpt lat="45.6327" lon="3.86208">
        <ele>1397.900024</ele>
        <time>2017-05-25T13:26:48Z</time>
      </trkpt>
      <trkpt lat="45.63274" lon="3.86222">
        <ele>1397.199951</ele>
        <time>2017-05-25T13:26:50Z</time>
      </trkpt>
      <trkpt lat="45.63278" lon="3.86236">
        <ele>1396.699951</ele>
        <time>2017-05-25T13:26:52Z</time>
      </trkpt>
      <trkpt lat="45.6328" lon="3.86249">
        <ele>1396.300049</ele>
        <time>2017-05-25T13:26:54Z</time>
      </trkpt>
      <trkpt lat="45.63283" lon="3.86263">
        <ele>1395.800049</ele>
        <time>2017-05-25T13:26:56Z</time>
      </trkpt>
      <trkpt lat="45.63285" lon="3.86276">
        <ele>1395.300049</ele>
        <time>2017-05-25T13:26:58Z</time>
      </trkpt>
      <trkpt lat="45.63289" lon="3.86294">
        <ele>1395.099976</ele>
        <time>2017-05-25T13:27:01Z</time>
      </trkpt>
      <trkpt lat="45.63293" lon="3.86311">
        <ele>1395</ele>
        <time>2017-05-25T13:27:04Z</time>
      </trkpt>
      <trkpt lat="45.63298" lon="3.86328">
        <ele>1395</ele>
        <time>2017-05-25T13:27:07Z</time>
      </trkpt>
      <trkpt lat="45.63301" lon="3.86345">
        <ele>1395.199951</ele>
        <time>2017-05-25T13:27:10Z</time>
      </trkpt>
      <trkpt lat="45.63303" lon="3.8636">
        <ele>1395.300049</ele>
        <time>2017-05-25T13:27:13Z</time>
      </trkpt>
      <trkpt lat="45.63305" lon="3.86375">
        <ele>1395.400024</ele>
        <time>2017-05-25T13:27:16Z</time>
      </trkpt>
      <trkpt lat="45.63306" lon="3.8639">
        <ele>1395.400024</ele>
        <time>2017-05-25T13:27:19Z</time>
      </trkpt>
      <trkpt lat="45.63308" lon="3.86403">
        <ele>1395.5</ele>
        <time>2017-05-25T13:27:22Z</time>
      </trkpt>
      <trkpt lat="45.63304" lon="3.86415">
        <ele>1395.5</ele>
        <time>2017-05-25T13:27:27Z</time>
      </trkpt>
      <trkpt lat="45.63294" lon="3.86412">
        <ele>1395.400024</ele>
        <time>2017-05-25T13:27:33Z</time>
      </trkpt>
      <trkpt lat="45.63289" lon="3.864">
        <ele>1395.599976</ele>
        <time>2017-05-25T13:27:38Z</time>
      </trkpt>
      <trkpt lat="45.63286" lon="3.86388">
        <ele>1396</ele>
        <time>2017-05-25T13:27:42Z</time>
      </trkpt>
      <trkpt lat="45.63283" lon="3.86374">
        <ele>1396.199951</ele>
        <time>2017-05-25T13:27:46Z</time>
      </trkpt>
      <trkpt lat="45.6328" lon="3.86359">
        <ele>1396.400024</ele>
        <time>2017-05-25T13:27:50Z</time>
      </trkpt>
      <trkpt lat="45.63277" lon="3.86343">
        <ele>1396.5</ele>
        <time>2017-05-25T13:27:54Z</time>
      </trkpt>
      <trkpt lat="45.63273" lon="3.8633">
        <ele>1396.599976</ele>
        <time>2017-05-25T13:27:57Z</time>
      </trkpt>
      <trkpt lat="45.63269" lon="3.86318">
        <ele>1396.5</ele>
        <time>2017-05-25T13:28:00Z</time>
      </trkpt>
      <trkpt lat="45.63263" lon="3.86304">
        <ele>1396.599976</ele>
        <time>2017-05-25T13:28:04Z</time>
      </trkpt>
      <trkpt lat="45.63257" lon="3.86293">
        <ele>1397</ele>
        <time>2017-05-25T13:28:08Z</time>
      </trkpt>
      <trkpt lat="45.63251" lon="3.86283">
        <ele>1397.599976</ele>
        <time>2017-05-25T13:28:12Z</time>
      </trkpt>
      <trkpt lat="45.63244" lon="3.86272">
        <ele>1398.400024</ele>
        <time>2017-05-25T13:28:17Z</time>
      </trkpt>
      <trkpt lat="45.63237" lon="3.86262">
        <ele>1399.300049</ele>
        <time>2017-05-25T13:28:22Z</time>
      </trkpt>
      <trkpt lat="45.63229" lon="3.86252">
        <ele>1400.099976</ele>
        <time>2017-05-25T13:28:27Z</time>
      </trkpt>
      <trkpt lat="45.63222" lon="3.86244">
        <ele>1400.800049</ele>
        <time>2017-05-25T13:28:32Z</time>
      </trkpt>
      <trkpt lat="45.63215" lon="3.86233">
        <ele>1402.199951</ele>
        <time>2017-05-25T13:28:38Z</time>
      </trkpt>
      <trkpt lat="45.63209" lon="3.86222">
        <ele>1403.199951</ele>
        <time>2017-05-25T13:28:43Z</time>
      </trkpt>
      <trkpt lat="45.63203" lon="3.86211">
        <ele>1404.099976</ele>
        <time>2017-05-25T13:28:48Z</time>
      </trkpt>
      <trkpt lat="45.63198" lon="3.862">
        <ele>1404.900024</ele>
        <time>2017-05-25T13:28:53Z</time>
      </trkpt>
      <trkpt lat="45.63193" lon="3.86187">
        <ele>1405.599976</ele>
        <time>2017-05-25T13:28:59Z</time>
      </trkpt>
      <trkpt lat="45.63187" lon="3.86175">
        <ele>1406.300049</ele>
        <time>2017-05-25T13:29:05Z</time>
      </trkpt>
      <trkpt lat="45.63182" lon="3.86162">
        <ele>1407.300049</ele>
        <time>2017-05-25T13:29:11Z</time>
      </trkpt>
      <trkpt lat="45.63176" lon="3.86151">
        <ele>1408.400024</ele>
        <time>2017-05-25T13:29:17Z</time>
      </trkpt>
      <trkpt lat="45.63171" lon="3.86139">
        <ele>1409.199951</ele>
        <time>2017-05-25T13:29:23Z</time>
      </trkpt>
      <trkpt lat="45.63165" lon="3.86127">
        <ele>1410.400024</ele>
        <time>2017-05-25T13:29:30Z</time>
      </trkpt>
      <trkpt lat="45.6316" lon="3.86115">
        <ele>1411.699951</ele>
        <time>2017-05-25T13:29:37Z</time>
      </trkpt>
      <trkpt lat="45.63154" lon="3.86103">
        <ele>1413.099976</ele>
        <time>2017-05-25T13:29:44Z</time>
      </trkpt>
      <trkpt lat="45.63146" lon="3.86093">
        <ele>1414.599976</ele>
        <time>2017-05-25T13:29:52Z</time>
      </trkpt>
      <trkpt lat="45.63138" lon="3.86085">
        <ele>1417.099976</ele>
        <time>2017-05-25T13:30:01Z</time>
      </trkpt>
      <trkpt lat="45.63129" lon="3.86081">
        <ele>1419.699951</ele>
        <time>2017-05-25T13:30:11Z</time>
      </trkpt>
      <trkpt lat="45.6312" lon="3.86078">
        <ele>1423.099976</ele>
        <time>2017-05-25T13:30:22Z</time>
      </trkpt>
      <trkpt lat="45.63111" lon="3.86075">
        <ele>1425.599976</ele>
        <time>2017-05-25T13:30:32Z</time>
      </trkpt>
      <trkpt lat="45.63101" lon="3.86074">
        <ele>1427.900024</ele>
        <time>2017-05-25T13:30:42Z</time>
      </trkpt>
      <trkpt lat="45.63091" lon="3.86073">
        <ele>1429.199951</ele>
        <time>2017-05-25T13:30:51Z</time>
      </trkpt>
      <trkpt lat="45.63082" lon="3.86072">
        <ele>1430.800049</ele>
        <time>2017-05-25T13:31:01Z</time>
      </trkpt>
      <trkpt lat="45.63072" lon="3.86072">
        <ele>1432.599976</ele>
        <time>2017-05-25T13:31:09Z</time>
      </trkpt>
      <trkpt lat="45.63063" lon="3.86074">
        <ele>1434.099976</ele>
        <time>2017-05-25T13:31:17Z</time>
      </trkpt>
      <trkpt lat="45.63053" lon="3.86077">
        <ele>1435.199951</ele>
        <time>2017-05-25T13:31:24Z</time>
      </trkpt>
      <trkpt lat="45.63044" lon="3.86082">
        <ele>1436.400024</ele>
        <time>2017-05-25T13:31:31Z</time>
      </trkpt>
      <trkpt lat="45.63034" lon="3.86085">
        <ele>1437.400024</ele>
        <time>2017-05-25T13:31:37Z</time>
      </trkpt>
      <trkpt lat="45.63025" lon="3.86088">
        <ele>1438.699951</ele>
        <time>2017-05-25T13:31:43Z</time>
      </trkpt>
      <trkpt lat="45.63015" lon="3.86091">
        <ele>1439.900024</ele>
        <time>2017-05-25T13:31:49Z</time>
      </trkpt>
      <trkpt lat="45.63005" lon="3.86095">
        <ele>1441</ele>
        <time>2017-05-25T13:31:54Z</time>
      </trkpt>
      <trkpt lat="45.62996" lon="3.86097">
        <ele>1442</ele>
        <time>2017-05-25T13:31:59Z</time>
      </trkpt>
      <trkpt lat="45.62987" lon="3.86098">
        <ele>1442.800049</ele>
        <time>2017-05-25T13:32:04Z</time>
      </trkpt>
      <trkpt lat="45.62976" lon="3.861">
        <ele>1443.800049</ele>
        <time>2017-05-25T13:32:09Z</time>
      </trkpt>
      <trkpt lat="45.62967" lon="3.86101">
        <ele>1444.300049</ele>
        <time>2017-05-25T13:32:14Z</time>
      </trkpt>
      <trkpt lat="45.62956" lon="3.86105">
        <ele>1444.800049</ele>
        <time>2017-05-25T13:32:19Z</time>
      </trkpt>
      <trkpt lat="45.62946" lon="3.86108">
        <ele>1445.300049</ele>
        <time>2017-05-25T13:32:23Z</time>
      </trkpt>
      <trkpt lat="45.62935" lon="3.86113">
        <ele>1446.099976</ele>
        <time>2017-05-25T13:32:28Z</time>
      </trkpt>
      <trkpt lat="45.62927" lon="3.86122">
        <ele>1446.699951</ele>
        <time>2017-05-25T13:32:33Z</time>
      </trkpt>
      <trkpt lat="45.62919" lon="3.86132">
        <ele>1446.800049</ele>
        <time>2017-05-25T13:32:38Z</time>
      </trkpt>
      <trkpt lat="45.6291" lon="3.8614">
        <ele>1446.800049</ele>
        <time>2017-05-25T13:32:45Z</time>
      </trkpt>
      <trkpt lat="45.629" lon="3.86139">
        <ele>1447.599976</ele>
        <time>2017-05-25T13:35:57Z</time>
      </trkpt>
      <trkpt lat="45.6289" lon="3.86138">
        <ele>1447.5</ele>
        <time>2017-05-25T13:36:02Z</time>
      </trkpt>
      <trkpt lat="45.6288" lon="3.86137">
        <ele>1447.599976</ele>
        <time>2017-05-25T13:36:05Z</time>
      </trkpt>
      <trkpt lat="45.62869" lon="3.86137">
        <ele>1447.800049</ele>
        <time>2017-05-25T13:36:09Z</time>
      </trkpt>
      <trkpt lat="45.62857" lon="3.86135">
        <ele>1448</ele>
        <time>2017-05-25T13:36:13Z</time>
      </trkpt>
      <trkpt lat="45.62848" lon="3.86134">
        <ele>1448.099976</ele>
        <time>2017-05-25T13:36:16Z</time>
      </trkpt>
      <trkpt lat="45.62837" lon="3.86133">
        <ele>1447.900024</ele>
        <time>2017-05-25T13:36:19Z</time>
      </trkpt>
      <trkpt lat="45.62826" lon="3.8613">
        <ele>1447.599976</ele>
        <time>2017-05-25T13:36:22Z</time>
      </trkpt>
      <trkpt lat="45.62812" lon="3.86129">
        <ele>1447.099976</ele>
        <time>2017-05-25T13:36:25Z</time>
      </trkpt>
      <trkpt lat="45.62803" lon="3.86127">
        <ele>1446.599976</ele>
        <time>2017-05-25T13:36:27Z</time>
      </trkpt>
      <trkpt lat="45.62794" lon="3.86126">
        <ele>1446.099976</ele>
        <time>2017-05-25T13:36:29Z</time>
      </trkpt>
      <trkpt lat="45.62784" lon="3.86124">
        <ele>1445.5</ele>
        <time>2017-05-25T13:36:31Z</time>
      </trkpt>
      <trkpt lat="45.62774" lon="3.86122">
        <ele>1445</ele>
        <time>2017-05-25T13:36:33Z</time>
      </trkpt>
      <trkpt lat="45.62764" lon="3.86121">
        <ele>1444.199951</ele>
        <time>2017-05-25T13:36:35Z</time>
      </trkpt>
      <trkpt lat="45.62753" lon="3.86119">
        <ele>1443.400024</ele>
        <time>2017-05-25T13:36:37Z</time>
      </trkpt>
      <trkpt lat="45.62741" lon="3.86118">
        <ele>1442.599976</ele>
        <time>2017-05-25T13:36:39Z</time>
      </trkpt>
      <trkpt lat="45.62732" lon="3.86114">
        <ele>1441.900024</ele>
        <time>2017-05-25T13:36:41Z</time>
      </trkpt>
      <trkpt lat="45.62723" lon="3.8611">
        <ele>1441.199951</ele>
        <time>2017-05-25T13:36:43Z</time>
      </trkpt>
      <trkpt lat="45.62714" lon="3.86103">
        <ele>1439.5</ele>
        <time>2017-05-25T13:36:45Z</time>
      </trkpt>
      <trkpt lat="45.62704" lon="3.86094">
        <ele>1438.800049</ele>
        <time>2017-05-25T13:36:47Z</time>
      </trkpt>
      <trkpt lat="45.62694" lon="3.86085">
        <ele>1438.099976</ele>
        <time>2017-05-25T13:36:49Z</time>
      </trkpt>
      <trkpt lat="45.62682" lon="3.86075">
        <ele>1437.199951</ele>
        <time>2017-05-25T13:36:51Z</time>
      </trkpt>
      <trkpt lat="45.62669" lon="3.86064">
        <ele>1435.800049</ele>
        <time>2017-05-25T13:36:53Z</time>
      </trkpt>
      <trkpt lat="45.62655" lon="3.86051">
        <ele>1434.5</ele>
        <time>2017-05-25T13:36:55Z</time>
      </trkpt>
      <trkpt lat="45.62647" lon="3.86044">
        <ele>1433.900024</ele>
        <time>2017-05-25T13:36:56Z</time>
      </trkpt>
      <trkpt lat="45.6264" lon="3.86037">
        <ele>1433.099976</ele>
        <time>2017-05-25T13:36:57Z</time>
      </trkpt>
      <trkpt lat="45.62631" lon="3.8603">
        <ele>1432.300049</ele>
        <time>2017-05-25T13:36:58Z</time>
      </trkpt>
      <trkpt lat="45.62622" lon="3.86022">
        <ele>1431.5</ele>
        <time>2017-05-25T13:36:59Z</time>
      </trkpt>
      <trkpt lat="45.62614" lon="3.86014">
        <ele>1430.699951</ele>
        <time>2017-05-25T13:37:00Z</time>
      </trkpt>
      <trkpt lat="45.62605" lon="3.86006">
        <ele>1429.900024</ele>
        <time>2017-05-25T13:37:01Z</time>
      </trkpt>
      <trkpt lat="45.62597" lon="3.85998">
        <ele>1429.099976</ele>
        <time>2017-05-25T13:37:02Z</time>
      </trkpt>
      <trkpt lat="45.62588" lon="3.85989">
        <ele>1428.300049</ele>
        <time>2017-05-25T13:37:03Z</time>
      </trkpt>
      <trkpt lat="45.62581" lon="3.8598">
        <ele>1427.5</ele>
        <time>2017-05-25T13:37:04Z</time>
      </trkpt>
      <trkpt lat="45.62574" lon="3.8597">
        <ele>1426.800049</ele>
        <time>2017-05-25T13:37:05Z</time>
      </trkpt>
      <trkpt lat="45.62563" lon="3.85952">
        <ele>1425.5</ele>
        <time>2017-05-25T13:37:07Z</time>
      </trkpt>
      <trkpt lat="45.62552" lon="3.85935">
        <ele>1423.800049</ele>
        <time>2017-05-25T13:37:09Z</time>
      </trkpt>
      <trkpt lat="45.6254" lon="3.85918">
        <ele>1422.699951</ele>
        <time>2017-05-25T13:37:11Z</time>
      </trkpt>
      <trkpt lat="45.62527" lon="3.85899">
        <ele>1421.5</ele>
        <time>2017-05-25T13:37:13Z</time>
      </trkpt>
      <trkpt lat="45.62521" lon="3.8589">
        <ele>1420.900024</ele>
        <time>2017-05-25T13:37:14Z</time>
      </trkpt>
      <trkpt lat="45.62515" lon="3.8588">
        <ele>1420.400024</ele>
        <time>2017-05-25T13:37:15Z</time>
      </trkpt>
      <trkpt lat="45.62509" lon="3.8587">
        <ele>1419.800049</ele>
        <time>2017-05-25T13:37:16Z</time>
      </trkpt>
      <trkpt lat="45.62503" lon="3.8586">
        <ele>1419.300049</ele>
        <time>2017-05-25T13:37:17Z</time>
      </trkpt>
      <trkpt lat="45.62497" lon="3.85849">
        <ele>1419</ele>
        <time>2017-05-25T13:37:18Z</time>
      </trkpt>
      <trkpt lat="45.62492" lon="3.85838">
        <ele>1418.5</ele>
        <time>2017-05-25T13:37:19Z</time>
      </trkpt>
      <trkpt lat="45.62484" lon="3.85818">
        <ele>1417.300049</ele>
        <time>2017-05-25T13:37:21Z</time>
      </trkpt>
      <trkpt lat="45.62478" lon="3.85804">
        <ele>1416.599976</ele>
        <time>2017-05-25T13:37:23Z</time>
      </trkpt>
      <trkpt lat="45.62471" lon="3.85789">
        <ele>1416</ele>
        <time>2017-05-25T13:37:26Z</time>
      </trkpt>
      <trkpt lat="45.62463" lon="3.85775">
        <ele>1415.5</ele>
        <time>2017-05-25T13:37:29Z</time>
      </trkpt>
      <trkpt lat="45.62457" lon="3.85765">
        <ele>1415.300049</ele>
        <time>2017-05-25T13:37:31Z</time>
      </trkpt>
      <trkpt lat="45.62452" lon="3.85755">
        <ele>1415.199951</ele>
        <time>2017-05-25T13:37:33Z</time>
      </trkpt>
      <trkpt lat="45.62447" lon="3.85743">
        <ele>1415.300049</ele>
        <time>2017-05-25T13:37:35Z</time>
      </trkpt>
      <trkpt lat="45.62442" lon="3.85731">
        <ele>1415.5</ele>
        <time>2017-05-25T13:37:37Z</time>
      </trkpt>
      <trkpt lat="45.62437" lon="3.85719">
        <ele>1415.599976</ele>
        <time>2017-05-25T13:37:39Z</time>
      </trkpt>
      <trkpt lat="45.62431" lon="3.85709">
        <ele>1415.599976</ele>
        <time>2017-05-25T13:37:41Z</time>
      </trkpt>
      <trkpt lat="45.62425" lon="3.85699">
        <ele>1415.599976</ele>
        <time>2017-05-25T13:37:43Z</time>
      </trkpt>
      <trkpt lat="45.6242" lon="3.85688">
        <ele>1415.900024</ele>
        <time>2017-05-25T13:37:45Z</time>
      </trkpt>
      <trkpt lat="45.62414" lon="3.85678">
        <ele>1416</ele>
        <time>2017-05-25T13:37:47Z</time>
      </trkpt>
      <trkpt lat="45.62405" lon="3.85664">
        <ele>1416.099976</ele>
        <time>2017-05-25T13:37:50Z</time>
      </trkpt>
      <trkpt lat="45.62399" lon="3.85654">
        <ele>1416.400024</ele>
        <time>2017-05-25T13:37:52Z</time>
      </trkpt>
      <trkpt lat="45.62393" lon="3.85645">
        <ele>1416.599976</ele>
        <time>2017-05-25T13:37:54Z</time>
      </trkpt>
      <trkpt lat="45.62386" lon="3.85635">
        <ele>1416.699951</ele>
        <time>2017-05-25T13:37:56Z</time>
      </trkpt>
      <trkpt lat="45.62381" lon="3.85624">
        <ele>1416.800049</ele>
        <time>2017-05-25T13:37:58Z</time>
      </trkpt>
      <trkpt lat="45.62374" lon="3.85608">
        <ele>1417.099976</ele>
        <time>2017-05-25T13:38:01Z</time>
      </trkpt>
      <trkpt lat="45.62367" lon="3.85592">
        <ele>1417.300049</ele>
        <time>2017-05-25T13:38:04Z</time>
      </trkpt>
      <trkpt lat="45.62363" lon="3.85575">
        <ele>1417.5</ele>
        <time>2017-05-25T13:38:07Z</time>
      </trkpt>
      <trkpt lat="45.62359" lon="3.85558">
        <ele>1417.900024</ele>
        <time>2017-05-25T13:38:10Z</time>
      </trkpt>
      <trkpt lat="45.62355" lon="3.85542">
        <ele>1418.199951</ele>
        <time>2017-05-25T13:38:13Z</time>
      </trkpt>
      <trkpt lat="45.62349" lon="3.85526">
        <ele>1418.400024</ele>
        <time>2017-05-25T13:38:16Z</time>
      </trkpt>
      <trkpt lat="45.62344" lon="3.85511">
        <ele>1418.900024</ele>
        <time>2017-05-25T13:38:19Z</time>
      </trkpt>
      <trkpt lat="45.62337" lon="3.85497">
        <ele>1419.099976</ele>
        <time>2017-05-25T13:38:22Z</time>
      </trkpt>
      <trkpt lat="45.62333" lon="3.85485">
        <ele>1419.199951</ele>
        <time>2017-05-25T13:38:25Z</time>
      </trkpt>
      <trkpt lat="45.62328" lon="3.8547">
        <ele>1419.400024</ele>
        <time>2017-05-25T13:38:29Z</time>
      </trkpt>
      <trkpt lat="45.62324" lon="3.85456">
        <ele>1419.5</ele>
        <time>2017-05-25T13:38:33Z</time>
      </trkpt>
      <trkpt lat="45.6232" lon="3.85441">
        <ele>1420.599976</ele>
        <time>2017-05-25T13:38:37Z</time>
      </trkpt>
      <trkpt lat="45.62315" lon="3.85427">
        <ele>1420.400024</ele>
        <time>2017-05-25T13:38:41Z</time>
      </trkpt>
      <trkpt lat="45.6231" lon="3.85412">
        <ele>1420.5</ele>
        <time>2017-05-25T13:38:45Z</time>
      </trkpt>
      <trkpt lat="45.62305" lon="3.85397">
        <ele>1421.099976</ele>
        <time>2017-05-25T13:38:49Z</time>
      </trkpt>
      <trkpt lat="45.62301" lon="3.85383">
        <ele>1421.400024</ele>
        <time>2017-05-25T13:38:53Z</time>
      </trkpt>
      <trkpt lat="45.62296" lon="3.8537">
        <ele>1421.900024</ele>
        <time>2017-05-25T13:38:57Z</time>
      </trkpt>
      <trkpt lat="45.62291" lon="3.85359">
        <ele>1422.5</ele>
        <time>2017-05-25T13:39:01Z</time>
      </trkpt>
      <trkpt lat="45.62287" lon="3.85348">
        <ele>1422.900024</ele>
        <time>2017-05-25T13:39:05Z</time>
      </trkpt>
      <trkpt lat="45.62282" lon="3.85336">
        <ele>1423.400024</ele>
        <time>2017-05-25T13:39:09Z</time>
      </trkpt>
      <trkpt lat="45.62277" lon="3.85324">
        <ele>1423.800049</ele>
        <time>2017-05-25T13:39:13Z</time>
      </trkpt>
      <trkpt lat="45.62272" lon="3.8531">
        <ele>1424.300049</ele>
        <time>2017-05-25T13:39:18Z</time>
      </trkpt>
      <trkpt lat="45.62267" lon="3.85296">
        <ele>1424.900024</ele>
        <time>2017-05-25T13:39:23Z</time>
      </trkpt>
      <trkpt lat="45.62263" lon="3.85282">
        <ele>1425.5</ele>
        <time>2017-05-25T13:39:28Z</time>
      </trkpt>
      <trkpt lat="45.62259" lon="3.85269">
        <ele>1426.199951</ele>
        <time>2017-05-25T13:39:33Z</time>
      </trkpt>
      <trkpt lat="45.62253" lon="3.85257">
        <ele>1426.599976</ele>
        <time>2017-05-25T13:39:38Z</time>
      </trkpt>
      <trkpt lat="45.62247" lon="3.85244">
        <ele>1427.099976</ele>
        <time>2017-05-25T13:39:43Z</time>
      </trkpt>
      <trkpt lat="45.62241" lon="3.85233">
        <ele>1427.5</ele>
        <time>2017-05-25T13:39:48Z</time>
      </trkpt>
      <trkpt lat="45.62235" lon="3.8522">
        <ele>1428.099976</ele>
        <time>2017-05-25T13:39:53Z</time>
      </trkpt>
      <trkpt lat="45.62229" lon="3.85208">
        <ele>1428.099976</ele>
        <time>2017-05-25T13:39:58Z</time>
      </trkpt>
      <trkpt lat="45.62223" lon="3.85197">
        <ele>1428.5</ele>
        <time>2017-05-25T13:40:03Z</time>
      </trkpt>
      <trkpt lat="45.6222" lon="3.85184">
        <ele>1429.300049</ele>
        <time>2017-05-25T13:40:09Z</time>
      </trkpt>
      <trkpt lat="45.62215" lon="3.85173">
        <ele>1430.599976</ele>
        <time>2017-05-25T13:40:15Z</time>
      </trkpt>
      <trkpt lat="45.62208" lon="3.85165">
        <ele>1431.300049</ele>
        <time>2017-05-25T13:40:21Z</time>
      </trkpt>
      <trkpt lat="45.622" lon="3.85157">
        <ele>1432.199951</ele>
        <time>2017-05-25T13:40:27Z</time>
      </trkpt>
      <trkpt lat="45.62193" lon="3.85149">
        <ele>1433.599976</ele>
        <time>2017-05-25T13:40:33Z</time>
      </trkpt>
      <trkpt lat="45.62185" lon="3.85139">
        <ele>1434.900024</ele>
        <time>2017-05-25T13:40:41Z</time>
      </trkpt>
      <trkpt lat="45.62179" lon="3.85128">
        <ele>1435.599976</ele>
        <time>2017-05-25T13:40:48Z</time>
      </trkpt>
      <trkpt lat="45.62172" lon="3.85117">
        <ele>1436.300049</ele>
        <time>2017-05-25T13:40:56Z</time>
      </trkpt>
      <trkpt lat="45.62163" lon="3.85111">
        <ele>1436.699951</ele>
        <time>2017-05-25T13:41:02Z</time>
      </trkpt>
      <trkpt lat="45.62153" lon="3.85108">
        <ele>1437.400024</ele>
        <time>2017-05-25T13:41:08Z</time>
      </trkpt>
      <trkpt lat="45.62143" lon="3.85109">
        <ele>1438</ele>
        <time>2017-05-25T13:41:13Z</time>
      </trkpt>
      <trkpt lat="45.62133" lon="3.85113">
        <ele>1438.5</ele>
        <time>2017-05-25T13:41:17Z</time>
      </trkpt>
      <trkpt lat="45.62122" lon="3.8512">
        <ele>1438.800049</ele>
        <time>2017-05-25T13:41:21Z</time>
      </trkpt>
      <trkpt lat="45.62113" lon="3.85127">
        <ele>1439.099976</ele>
        <time>2017-05-25T13:41:25Z</time>
      </trkpt>
      <trkpt lat="45.62104" lon="3.85132">
        <ele>1439.699951</ele>
        <time>2017-05-25T13:41:29Z</time>
      </trkpt>
      <trkpt lat="45.62094" lon="3.85134">
        <ele>1440</ele>
        <time>2017-05-25T13:41:33Z</time>
      </trkpt>
      <trkpt lat="45.62083" lon="3.85138">
        <ele>1440.199951</ele>
        <time>2017-05-25T13:41:37Z</time>
      </trkpt>
      <trkpt lat="45.62073" lon="3.8514">
        <ele>1440.5</ele>
        <time>2017-05-25T13:41:41Z</time>
      </trkpt>
      <trkpt lat="45.62062" lon="3.85141">
        <ele>1440.599976</ele>
        <time>2017-05-25T13:41:45Z</time>
      </trkpt>
      <trkpt lat="45.62051" lon="3.8514">
        <ele>1440.800049</ele>
        <time>2017-05-25T13:41:49Z</time>
      </trkpt>
      <trkpt lat="45.6204" lon="3.85138">
        <ele>1441</ele>
        <time>2017-05-25T13:41:53Z</time>
      </trkpt>
      <trkpt lat="45.62029" lon="3.85136">
        <ele>1441.199951</ele>
        <time>2017-05-25T13:41:57Z</time>
      </trkpt>
      <trkpt lat="45.62018" lon="3.85135">
        <ele>1441.400024</ele>
        <time>2017-05-25T13:42:01Z</time>
      </trkpt>
      <trkpt lat="45.62006" lon="3.85132">
        <ele>1441.5</ele>
        <time>2017-05-25T13:42:05Z</time>
      </trkpt>
      <trkpt lat="45.61995" lon="3.85128">
        <ele>1441.699951</ele>
        <time>2017-05-25T13:42:09Z</time>
      </trkpt>
      <trkpt lat="45.61984" lon="3.85124">
        <ele>1442</ele>
        <time>2017-05-25T13:42:13Z</time>
      </trkpt>
      <trkpt lat="45.61973" lon="3.85117">
        <ele>1442.099976</ele>
        <time>2017-05-25T13:42:17Z</time>
      </trkpt>
      <trkpt lat="45.61965" lon="3.85111">
        <ele>1442.300049</ele>
        <time>2017-05-25T13:42:20Z</time>
      </trkpt>
      <trkpt lat="45.61956" lon="3.85104">
        <ele>1442.300049</ele>
        <time>2017-05-25T13:42:24Z</time>
      </trkpt>
      <trkpt lat="45.61947" lon="3.85099">
        <ele>1442.699951</ele>
        <time>2017-05-25T13:42:28Z</time>
      </trkpt>
      <trkpt lat="45.61936" lon="3.85095">
        <ele>1443.800049</ele>
        <time>2017-05-25T13:42:34Z</time>
      </trkpt>
      <trkpt lat="45.61927" lon="3.85093">
        <ele>1444.599976</ele>
        <time>2017-05-25T13:42:39Z</time>
      </trkpt>
      <trkpt lat="45.61917" lon="3.85091">
        <ele>1445.300049</ele>
        <time>2017-05-25T13:42:44Z</time>
      </trkpt>
      <trkpt lat="45.61906" lon="3.85089">
        <ele>1446.099976</ele>
        <time>2017-05-25T13:42:50Z</time>
      </trkpt>
      <trkpt lat="45.61897" lon="3.85084">
        <ele>1446.900024</ele>
        <time>2017-05-25T13:42:55Z</time>
      </trkpt>
      <trkpt lat="45.61888" lon="3.85078">
        <ele>1447.599976</ele>
        <time>2017-05-25T13:43:00Z</time>
      </trkpt>
      <trkpt lat="45.61881" lon="3.85071">
        <ele>1448.099976</ele>
        <time>2017-05-25T13:43:05Z</time>
      </trkpt>
      <trkpt lat="45.61872" lon="3.85063">
        <ele>1448.800049</ele>
        <time>2017-05-25T13:43:10Z</time>
      </trkpt>
      <trkpt lat="45.61863" lon="3.85056">
        <ele>1449.199951</ele>
        <time>2017-05-25T13:43:15Z</time>
      </trkpt>
      <trkpt lat="45.61856" lon="3.85049">
        <ele>1449.5</ele>
        <time>2017-05-25T13:43:19Z</time>
      </trkpt>
      <trkpt lat="45.61849" lon="3.8504">
        <ele>1449.800049</ele>
        <time>2017-05-25T13:43:23Z</time>
      </trkpt>
      <trkpt lat="45.61842" lon="3.8503">
        <ele>1449.900024</ele>
        <time>2017-05-25T13:43:27Z</time>
      </trkpt>
      <trkpt lat="45.61834" lon="3.85021">
        <ele>1450.099976</ele>
        <time>2017-05-25T13:43:31Z</time>
      </trkpt>
      <trkpt lat="45.61827" lon="3.85011">
        <ele>1450.199951</ele>
        <time>2017-05-25T13:43:35Z</time>
      </trkpt>
      <trkpt lat="45.61819" lon="3.85001">
        <ele>1450.5</ele>
        <time>2017-05-25T13:43:39Z</time>
      </trkpt>
      <trkpt lat="45.61812" lon="3.84991">
        <ele>1450.5</ele>
        <time>2017-05-25T13:43:43Z</time>
      </trkpt>
      <trkpt lat="45.61804" lon="3.84982">
        <ele>1451</ele>
        <time>2017-05-25T13:43:47Z</time>
      </trkpt>
      <trkpt lat="45.61796" lon="3.84971">
        <ele>1451.300049</ele>
        <time>2017-05-25T13:43:51Z</time>
      </trkpt>
      <trkpt lat="45.61787" lon="3.84961">
        <ele>1451.5</ele>
        <time>2017-05-25T13:43:55Z</time>
      </trkpt>
      <trkpt lat="45.61779" lon="3.8495">
        <ele>1451.599976</ele>
        <time>2017-05-25T13:43:59Z</time>
      </trkpt>
      <trkpt lat="45.61772" lon="3.8494">
        <ele>1452.099976</ele>
        <time>2017-05-25T13:44:03Z</time>
      </trkpt>
      <trkpt lat="45.61764" lon="3.84931">
        <ele>1452.300049</ele>
        <time>2017-05-25T13:44:07Z</time>
      </trkpt>
      <trkpt lat="45.61757" lon="3.8492">
        <ele>1452.300049</ele>
        <time>2017-05-25T13:44:11Z</time>
      </trkpt>
      <trkpt lat="45.6175" lon="3.84911">
        <ele>1452.300049</ele>
        <time>2017-05-25T13:44:15Z</time>
      </trkpt>
      <trkpt lat="45.61744" lon="3.84902">
        <ele>1452.400024</ele>
        <time>2017-05-25T13:44:19Z</time>
      </trkpt>
      <trkpt lat="45.61737" lon="3.84893">
        <ele>1452.900024</ele>
        <time>2017-05-25T13:44:23Z</time>
      </trkpt>
      <trkpt lat="45.6173" lon="3.84882">
        <ele>1453.300049</ele>
        <time>2017-05-25T13:44:28Z</time>
      </trkpt>
      <trkpt lat="45.61724" lon="3.8487">
        <ele>1454.099976</ele>
        <time>2017-05-25T13:44:33Z</time>
      </trkpt>
      <trkpt lat="45.61717" lon="3.8486">
        <ele>1454.900024</ele>
        <time>2017-05-25T13:44:38Z</time>
      </trkpt>
      <trkpt lat="45.61709" lon="3.84848">
        <ele>1455.599976</ele>
        <time>2017-05-25T13:44:43Z</time>
      </trkpt>
      <trkpt lat="45.61702" lon="3.84838">
        <ele>1456.300049</ele>
        <time>2017-05-25T13:44:48Z</time>
      </trkpt>
      <trkpt lat="45.61696" lon="3.84827">
        <ele>1457.099976</ele>
        <time>2017-05-25T13:44:53Z</time>
      </trkpt>
      <trkpt lat="45.61691" lon="3.84815">
        <ele>1458</ele>
        <time>2017-05-25T13:44:58Z</time>
      </trkpt>
      <trkpt lat="45.61685" lon="3.84803">
        <ele>1458.900024</ele>
        <time>2017-05-25T13:45:03Z</time>
      </trkpt>
      <trkpt lat="45.6168" lon="3.84792">
        <ele>1460.199951</ele>
        <time>2017-05-25T13:45:08Z</time>
      </trkpt>
      <trkpt lat="45.61673" lon="3.84781">
        <ele>1461.400024</ele>
        <time>2017-05-25T13:45:13Z</time>
      </trkpt>
      <trkpt lat="45.61668" lon="3.84769">
        <ele>1462.400024</ele>
        <time>2017-05-25T13:45:18Z</time>
      </trkpt>
      <trkpt lat="45.61663" lon="3.84756">
        <ele>1463.599976</ele>
        <time>2017-05-25T13:45:23Z</time>
      </trkpt>
      <trkpt lat="45.61659" lon="3.84742">
        <ele>1464.400024</ele>
        <time>2017-05-25T13:45:28Z</time>
      </trkpt>
      <trkpt lat="45.61656" lon="3.8473">
        <ele>1464.900024</ele>
        <time>2017-05-25T13:45:32Z</time>
      </trkpt>
      <trkpt lat="45.61654" lon="3.84717">
        <ele>1465.900024</ele>
        <time>2017-05-25T13:45:36Z</time>
      </trkpt>
      <trkpt lat="45.61654" lon="3.84704">
        <ele>1466.800049</ele>
        <time>2017-05-25T13:45:40Z</time>
      </trkpt>
      <trkpt lat="45.61655" lon="3.8469">
        <ele>1467.400024</ele>
        <time>2017-05-25T13:45:44Z</time>
      </trkpt>
      <trkpt lat="45.61656" lon="3.84675">
        <ele>1467.599976</ele>
        <time>2017-05-25T13:45:48Z</time>
      </trkpt>
      <trkpt lat="45.61656" lon="3.84659">
        <ele>1467.800049</ele>
        <time>2017-05-25T13:45:52Z</time>
      </trkpt>
      <trkpt lat="45.61657" lon="3.84644">
        <ele>1468.199951</ele>
        <time>2017-05-25T13:45:56Z</time>
      </trkpt>
      <trkpt lat="45.61658" lon="3.84631">
        <ele>1468.300049</ele>
        <time>2017-05-25T13:45:59Z</time>
      </trkpt>
      <trkpt lat="45.6166" lon="3.84618">
        <ele>1468.300049</ele>
        <time>2017-05-25T13:46:02Z</time>
      </trkpt>
      <trkpt lat="45.61662" lon="3.84605">
        <ele>1468.199951</ele>
        <time>2017-05-25T13:46:05Z</time>
      </trkpt>
      <trkpt lat="45.61663" lon="3.84591">
        <ele>1468.099976</ele>
        <time>2017-05-25T13:46:08Z</time>
      </trkpt>
      <trkpt lat="45.61663" lon="3.84577">
        <ele>1468.099976</ele>
        <time>2017-05-25T13:46:11Z</time>
      </trkpt>
      <trkpt lat="45.61662" lon="3.84561">
        <ele>1468.199951</ele>
        <time>2017-05-25T13:46:14Z</time>
      </trkpt>
      <trkpt lat="45.61657" lon="3.84545">
        <ele>1467.699951</ele>
        <time>2017-05-25T13:46:17Z</time>
      </trkpt>
      <trkpt lat="45.61651" lon="3.84533">
        <ele>1467</ele>
        <time>2017-05-25T13:46:19Z</time>
      </trkpt>
      <trkpt lat="45.61645" lon="3.8452">
        <ele>1466.5</ele>
        <time>2017-05-25T13:46:21Z</time>
      </trkpt>
      <trkpt lat="45.61638" lon="3.84508">
        <ele>1466.300049</ele>
        <time>2017-05-25T13:46:23Z</time>
      </trkpt>
      <trkpt lat="45.61631" lon="3.84493">
        <ele>1466</ele>
        <time>2017-05-25T13:46:25Z</time>
      </trkpt>
      <trkpt lat="45.61634" lon="3.84482">
        <ele>1463.800049</ele>
        <time>2017-05-25T13:47:17Z</time>
      </trkpt>
      <trkpt lat="45.61644" lon="3.84482">
        <ele>1464.199951</ele>
        <time>2017-05-25T13:47:21Z</time>
      </trkpt>
      <trkpt lat="45.61653" lon="3.84483">
        <ele>1464.800049</ele>
        <time>2017-05-25T13:47:25Z</time>
      </trkpt>
      <trkpt lat="45.61664" lon="3.84483">
        <ele>1465.5</ele>
        <time>2017-05-25T13:47:30Z</time>
      </trkpt>
      <trkpt lat="45.61675" lon="3.84482">
        <ele>1466.599976</ele>
        <time>2017-05-25T13:47:35Z</time>
      </trkpt>
      <trkpt lat="45.61686" lon="3.84481">
        <ele>1467.199951</ele>
        <time>2017-05-25T13:47:40Z</time>
      </trkpt>
      <trkpt lat="45.61697" lon="3.84482">
        <ele>1467.900024</ele>
        <time>2017-05-25T13:47:45Z</time>
      </trkpt>
      <trkpt lat="45.61707" lon="3.84484">
        <ele>1467.900024</ele>
        <time>2017-05-25T13:47:50Z</time>
      </trkpt>
      <trkpt lat="45.61715" lon="3.84489">
        <ele>1469.099976</ele>
        <time>2017-05-25T13:47:55Z</time>
      </trkpt>
      <trkpt lat="45.61724" lon="3.84496">
        <ele>1469.800049</ele>
        <time>2017-05-25T13:48:01Z</time>
      </trkpt>
      <trkpt lat="45.61734" lon="3.84504">
        <ele>1470.300049</ele>
        <time>2017-05-25T13:48:07Z</time>
      </trkpt>
      <trkpt lat="45.61743" lon="3.84513">
        <ele>1470.699951</ele>
        <time>2017-05-25T13:48:12Z</time>
      </trkpt>
      <trkpt lat="45.61753" lon="3.8452">
        <ele>1470.599976</ele>
        <time>2017-05-25T13:48:17Z</time>
      </trkpt>
      <trkpt lat="45.61761" lon="3.84526">
        <ele>1471.099976</ele>
        <time>2017-05-25T13:48:21Z</time>
      </trkpt>
      <trkpt lat="45.6177" lon="3.84533">
        <ele>1471.699951</ele>
        <time>2017-05-25T13:48:26Z</time>
      </trkpt>
      <trkpt lat="45.61781" lon="3.84539">
        <ele>1472</ele>
        <time>2017-05-25T13:48:31Z</time>
      </trkpt>
      <trkpt lat="45.61791" lon="3.84543">
        <ele>1472.5</ele>
        <time>2017-05-25T13:48:36Z</time>
      </trkpt>
      <trkpt lat="45.618" lon="3.84545">
        <ele>1473.099976</ele>
        <time>2017-05-25T13:48:40Z</time>
      </trkpt>
      <trkpt lat="45.61809" lon="3.84549">
        <ele>1473.800049</ele>
        <time>2017-05-25T13:48:44Z</time>
      </trkpt>
      <trkpt lat="45.61819" lon="3.84553">
        <ele>1474.300049</ele>
        <time>2017-05-25T13:48:49Z</time>
      </trkpt>
      <trkpt lat="45.61829" lon="3.84557">
        <ele>1474.800049</ele>
        <time>2017-05-25T13:48:54Z</time>
      </trkpt>
      <trkpt lat="45.61838" lon="3.8456">
        <ele>1475.199951</ele>
        <time>2017-05-25T13:48:59Z</time>
      </trkpt>
      <trkpt lat="45.61847" lon="3.84563">
        <ele>1476</ele>
        <time>2017-05-25T13:49:04Z</time>
      </trkpt>
      <trkpt lat="45.61856" lon="3.84566">
        <ele>1476.800049</ele>
        <time>2017-05-25T13:49:09Z</time>
      </trkpt>
      <trkpt lat="45.61865" lon="3.84568">
        <ele>1477.599976</ele>
        <time>2017-05-25T13:49:14Z</time>
      </trkpt>
      <trkpt lat="45.61874" lon="3.84572">
        <ele>1478.300049</ele>
        <time>2017-05-25T13:49:19Z</time>
      </trkpt>
      <trkpt lat="45.61883" lon="3.84574">
        <ele>1479.199951</ele>
        <time>2017-05-25T13:49:24Z</time>
      </trkpt>
      <trkpt lat="45.61892" lon="3.84576">
        <ele>1480</ele>
        <time>2017-05-25T13:49:29Z</time>
      </trkpt>
      <trkpt lat="45.61902" lon="3.84579">
        <ele>1481.099976</ele>
        <time>2017-05-25T13:49:34Z</time>
      </trkpt>
      <trkpt lat="45.61912" lon="3.84581">
        <ele>1482.5</ele>
        <time>2017-05-25T13:49:40Z</time>
      </trkpt>
      <trkpt lat="45.61923" lon="3.84582">
        <ele>1483.699951</ele>
        <time>2017-05-25T13:49:46Z</time>
      </trkpt>
      <trkpt lat="45.61933" lon="3.84583">
        <ele>1485</ele>
        <time>2017-05-25T13:49:52Z</time>
      </trkpt>
      <trkpt lat="45.61942" lon="3.84584">
        <ele>1485.599976</ele>
        <time>2017-05-25T13:49:57Z</time>
      </trkpt>
      <trkpt lat="45.61951" lon="3.84586">
        <ele>1486.300049</ele>
        <time>2017-05-25T13:50:02Z</time>
      </trkpt>
      <trkpt lat="45.61961" lon="3.84588">
        <ele>1486.800049</ele>
        <time>2017-05-25T13:50:07Z</time>
      </trkpt>
      <trkpt lat="45.61969" lon="3.84593">
        <ele>1487.5</ele>
        <time>2017-05-25T13:50:12Z</time>
      </trkpt>
      <trkpt lat="45.61978" lon="3.84599">
        <ele>1488.199951</ele>
        <time>2017-05-25T13:50:17Z</time>
      </trkpt>
      <trkpt lat="45.61988" lon="3.84604">
        <ele>1488.900024</ele>
        <time>2017-05-25T13:50:22Z</time>
      </trkpt>
      <trkpt lat="45.61996" lon="3.8461">
        <ele>1489.699951</ele>
        <time>2017-05-25T13:50:27Z</time>
      </trkpt>
      <trkpt lat="45.62005" lon="3.84617">
        <ele>1490.300049</ele>
        <time>2017-05-25T13:50:32Z</time>
      </trkpt>
      <trkpt lat="45.62014" lon="3.84623">
        <ele>1491</ele>
        <time>2017-05-25T13:50:37Z</time>
      </trkpt>
      <trkpt lat="45.62023" lon="3.84627">
        <ele>1491.699951</ele>
        <time>2017-05-25T13:50:42Z</time>
      </trkpt>
      <trkpt lat="45.62032" lon="3.84632">
        <ele>1492.5</ele>
        <time>2017-05-25T13:50:47Z</time>
      </trkpt>
      <trkpt lat="45.62041" lon="3.84636">
        <ele>1493</ele>
        <time>2017-05-25T13:50:52Z</time>
      </trkpt>
      <trkpt lat="45.62051" lon="3.84639">
        <ele>1493.800049</ele>
        <time>2017-05-25T13:50:57Z</time>
      </trkpt>
      <trkpt lat="45.62061" lon="3.84643">
        <ele>1494.599976</ele>
        <time>2017-05-25T13:51:02Z</time>
      </trkpt>
      <trkpt lat="45.62071" lon="3.84647">
        <ele>1495.300049</ele>
        <time>2017-05-25T13:51:07Z</time>
      </trkpt>
      <trkpt lat="45.62081" lon="3.84651">
        <ele>1496.300049</ele>
        <time>2017-05-25T13:51:12Z</time>
      </trkpt>
      <trkpt lat="45.6209" lon="3.84654">
        <ele>1496.900024</ele>
        <time>2017-05-25T13:51:17Z</time>
      </trkpt>
      <trkpt lat="45.62101" lon="3.84656">
        <ele>1497.599976</ele>
        <time>2017-05-25T13:51:22Z</time>
      </trkpt>
      <trkpt lat="45.62111" lon="3.84659">
        <ele>1498.5</ele>
        <time>2017-05-25T13:51:27Z</time>
      </trkpt>
      <trkpt lat="45.62122" lon="3.84661">
        <ele>1499.099976</ele>
        <time>2017-05-25T13:51:32Z</time>
      </trkpt>
      <trkpt lat="45.62131" lon="3.84661">
        <ele>1499.900024</ele>
        <time>2017-05-25T13:51:36Z</time>
      </trkpt>
      <trkpt lat="45.62141" lon="3.84662">
        <ele>1500.300049</ele>
        <time>2017-05-25T13:51:40Z</time>
      </trkpt>
      <trkpt lat="45.62151" lon="3.84662">
        <ele>1501</ele>
        <time>2017-05-25T13:51:44Z</time>
      </trkpt>
      <trkpt lat="45.62161" lon="3.84662">
        <ele>1501.400024</ele>
        <time>2017-05-25T13:51:48Z</time>
      </trkpt>
      <trkpt lat="45.62171" lon="3.84661">
        <ele>1501.800049</ele>
        <time>2017-05-25T13:51:52Z</time>
      </trkpt>
      <trkpt lat="45.62181" lon="3.84659">
        <ele>1502.5</ele>
        <time>2017-05-25T13:51:56Z</time>
      </trkpt>
      <trkpt lat="45.62191" lon="3.84657">
        <ele>1503.099976</ele>
        <time>2017-05-25T13:52:00Z</time>
      </trkpt>
      <trkpt lat="45.622" lon="3.84655">
        <ele>1504.199951</ele>
        <time>2017-05-25T13:52:04Z</time>
      </trkpt>
      <trkpt lat="45.6221" lon="3.84652">
        <ele>1505.099976</ele>
        <time>2017-05-25T13:52:08Z</time>
      </trkpt>
      <trkpt lat="45.62219" lon="3.84648">
        <ele>1505.599976</ele>
        <time>2017-05-25T13:52:12Z</time>
      </trkpt>
      <trkpt lat="45.62229" lon="3.84643">
        <ele>1505.900024</ele>
        <time>2017-05-25T13:52:16Z</time>
      </trkpt>
      <trkpt lat="45.62239" lon="3.84638">
        <ele>1506.599976</ele>
        <time>2017-05-25T13:52:20Z</time>
      </trkpt>
      <trkpt lat="45.62248" lon="3.84629">
        <ele>1507.199951</ele>
        <time>2017-05-25T13:52:24Z</time>
      </trkpt>
      <trkpt lat="45.62253" lon="3.84616">
        <ele>1507.800049</ele>
        <time>2017-05-25T13:52:28Z</time>
      </trkpt>
      <trkpt lat="45.62258" lon="3.84602">
        <ele>1507.800049</ele>
        <time>2017-05-25T13:52:32Z</time>
      </trkpt>
      <trkpt lat="45.62262" lon="3.84587">
        <ele>1508.400024</ele>
        <time>2017-05-25T13:52:36Z</time>
      </trkpt>
      <trkpt lat="45.62264" lon="3.84574">
        <ele>1508.699951</ele>
        <time>2017-05-25T13:52:39Z</time>
      </trkpt>
      <trkpt lat="45.62268" lon="3.84561">
        <ele>1509</ele>
        <time>2017-05-25T13:52:42Z</time>
      </trkpt>
      <trkpt lat="45.62274" lon="3.84549">
        <ele>1509.199951</ele>
        <time>2017-05-25T13:52:45Z</time>
      </trkpt>
      <trkpt lat="45.6228" lon="3.84537">
        <ele>1509.599976</ele>
        <time>2017-05-25T13:52:48Z</time>
      </trkpt>
      <trkpt lat="45.62286" lon="3.84525">
        <ele>1509.400024</ele>
        <time>2017-05-25T13:52:51Z</time>
      </trkpt>
      <trkpt lat="45.62292" lon="3.84513">
        <ele>1509.900024</ele>
        <time>2017-05-25T13:52:54Z</time>
      </trkpt>
      <trkpt lat="45.62299" lon="3.84502">
        <ele>1510.199951</ele>
        <time>2017-05-25T13:52:57Z</time>
      </trkpt>
      <trkpt lat="45.62305" lon="3.8449">
        <ele>1510.599976</ele>
        <time>2017-05-25T13:53:00Z</time>
      </trkpt>
      <trkpt lat="45.62312" lon="3.84477">
        <ele>1511</ele>
        <time>2017-05-25T13:53:03Z</time>
      </trkpt>
      <trkpt lat="45.62319" lon="3.84462">
        <ele>1511.199951</ele>
        <time>2017-05-25T13:53:06Z</time>
      </trkpt>
      <trkpt lat="45.62326" lon="3.84447">
        <ele>1511.5</ele>
        <time>2017-05-25T13:53:09Z</time>
      </trkpt>
      <trkpt lat="45.62331" lon="3.84431">
        <ele>1512.099976</ele>
        <time>2017-05-25T13:53:12Z</time>
      </trkpt>
      <trkpt lat="45.62336" lon="3.84413">
        <ele>1512.099976</ele>
        <time>2017-05-25T13:53:15Z</time>
      </trkpt>
      <trkpt lat="45.62339" lon="3.844">
        <ele>1512.099976</ele>
        <time>2017-05-25T13:53:17Z</time>
      </trkpt>
      <trkpt lat="45.62342" lon="3.84387">
        <ele>1512.099976</ele>
        <time>2017-05-25T13:53:19Z</time>
      </trkpt>
      <trkpt lat="45.62345" lon="3.84373">
        <ele>1512.099976</ele>
        <time>2017-05-25T13:53:21Z</time>
      </trkpt>
      <trkpt lat="45.62349" lon="3.84359">
        <ele>1512.099976</ele>
        <time>2017-05-25T13:53:23Z</time>
      </trkpt>
      <trkpt lat="45.62354" lon="3.84345">
        <ele>1512.400024</ele>
        <time>2017-05-25T13:53:25Z</time>
      </trkpt>
      <trkpt lat="45.62358" lon="3.84329">
        <ele>1512.599976</ele>
        <time>2017-05-25T13:53:27Z</time>
      </trkpt>
      <trkpt lat="45.62364" lon="3.84313">
        <ele>1512.5</ele>
        <time>2017-05-25T13:53:29Z</time>
      </trkpt>
      <trkpt lat="45.6237" lon="3.84297">
        <ele>1512.199951</ele>
        <time>2017-05-25T13:53:31Z</time>
      </trkpt>
      <trkpt lat="45.62375" lon="3.84281">
        <ele>1511.699951</ele>
        <time>2017-05-25T13:53:33Z</time>
      </trkpt>
      <trkpt lat="45.6238" lon="3.84264">
        <ele>1511.199951</ele>
        <time>2017-05-25T13:53:35Z</time>
      </trkpt>
      <trkpt lat="45.62385" lon="3.84247">
        <ele>1510.900024</ele>
        <time>2017-05-25T13:53:37Z</time>
      </trkpt>
      <trkpt lat="45.62389" lon="3.8423">
        <ele>1510.699951</ele>
        <time>2017-05-25T13:53:39Z</time>
      </trkpt>
      <trkpt lat="45.62394" lon="3.84213">
        <ele>1510.199951</ele>
        <time>2017-05-25T13:53:41Z</time>
      </trkpt>
      <trkpt lat="45.62399" lon="3.84196">
        <ele>1509.800049</ele>
        <time>2017-05-25T13:53:43Z</time>
      </trkpt>
      <trkpt lat="45.62404" lon="3.84178">
        <ele>1509.5</ele>
        <time>2017-05-25T13:53:45Z</time>
      </trkpt>
      <trkpt lat="45.62411" lon="3.84161">
        <ele>1509</ele>
        <time>2017-05-25T13:53:47Z</time>
      </trkpt>
      <trkpt lat="45.62417" lon="3.84143">
        <ele>1508.900024</ele>
        <time>2017-05-25T13:53:49Z</time>
      </trkpt>
      <trkpt lat="45.62423" lon="3.84124">
        <ele>1508.5</ele>
        <time>2017-05-25T13:53:51Z</time>
      </trkpt>
      <trkpt lat="45.62429" lon="3.84106">
        <ele>1508</ele>
        <time>2017-05-25T13:53:53Z</time>
      </trkpt>
      <trkpt lat="45.62436" lon="3.84089">
        <ele>1507.099976</ele>
        <time>2017-05-25T13:53:55Z</time>
      </trkpt>
      <trkpt lat="45.62442" lon="3.84071">
        <ele>1507</ele>
        <time>2017-05-25T13:53:57Z</time>
      </trkpt>
      <trkpt lat="45.62447" lon="3.84053">
        <ele>1506.5</ele>
        <time>2017-05-25T13:53:59Z</time>
      </trkpt>
      <trkpt lat="45.62453" lon="3.84035">
        <ele>1506.300049</ele>
        <time>2017-05-25T13:54:01Z</time>
      </trkpt>
      <trkpt lat="45.62459" lon="3.84017">
        <ele>1506.5</ele>
        <time>2017-05-25T13:54:03Z</time>
      </trkpt>
      <trkpt lat="45.62466" lon="3.83998">
        <ele>1505.800049</ele>
        <time>2017-05-25T13:54:05Z</time>
      </trkpt>
      <trkpt lat="45.62472" lon="3.83979">
        <ele>1505.400024</ele>
        <time>2017-05-25T13:54:07Z</time>
      </trkpt>
      <trkpt lat="45.6248" lon="3.83959">
        <ele>1504.800049</ele>
        <time>2017-05-25T13:54:09Z</time>
      </trkpt>
      <trkpt lat="45.62487" lon="3.83939">
        <ele>1504.400024</ele>
        <time>2017-05-25T13:54:11Z</time>
      </trkpt>
      <trkpt lat="45.62494" lon="3.83918">
        <ele>1504</ele>
        <time>2017-05-25T13:54:13Z</time>
      </trkpt>
      <trkpt lat="45.62502" lon="3.83897">
        <ele>1503.400024</ele>
        <time>2017-05-25T13:54:15Z</time>
      </trkpt>
      <trkpt lat="45.6251" lon="3.83877">
        <ele>1502.699951</ele>
        <time>2017-05-25T13:54:17Z</time>
      </trkpt>
      <trkpt lat="45.62518" lon="3.83859">
        <ele>1502.199951</ele>
        <time>2017-05-25T13:54:19Z</time>
      </trkpt>
      <trkpt lat="45.62526" lon="3.83841">
        <ele>1501.900024</ele>
        <time>2017-05-25T13:54:21Z</time>
      </trkpt>
      <trkpt lat="45.62535" lon="3.83824">
        <ele>1501.599976</ele>
        <time>2017-05-25T13:54:23Z</time>
      </trkpt>
      <trkpt lat="45.62543" lon="3.83807">
        <ele>1501.400024</ele>
        <time>2017-05-25T13:54:25Z</time>
      </trkpt>
      <trkpt lat="45.62552" lon="3.8379">
        <ele>1500.800049</ele>
        <time>2017-05-25T13:54:27Z</time>
      </trkpt>
      <trkpt lat="45.62561" lon="3.83774">
        <ele>1500.099976</ele>
        <time>2017-05-25T13:54:29Z</time>
      </trkpt>
      <trkpt lat="45.6257" lon="3.83757">
        <ele>1499.800049</ele>
        <time>2017-05-25T13:54:31Z</time>
      </trkpt>
      <trkpt lat="45.62578" lon="3.83738">
        <ele>1499.199951</ele>
        <time>2017-05-25T13:54:33Z</time>
      </trkpt>
      <trkpt lat="45.62588" lon="3.8372">
        <ele>1499</ele>
        <time>2017-05-25T13:54:35Z</time>
      </trkpt>
      <trkpt lat="45.62599" lon="3.83704">
        <ele>1498.800049</ele>
        <time>2017-05-25T13:54:37Z</time>
      </trkpt>
      <trkpt lat="45.6261" lon="3.83688">
        <ele>1498.300049</ele>
        <time>2017-05-25T13:54:39Z</time>
      </trkpt>
      <trkpt lat="45.62622" lon="3.83675">
        <ele>1498.400024</ele>
        <time>2017-05-25T13:54:41Z</time>
      </trkpt>
      <trkpt lat="45.62634" lon="3.83663">
        <ele>1497.599976</ele>
        <time>2017-05-25T13:54:43Z</time>
      </trkpt>
      <trkpt lat="45.62645" lon="3.83649">
        <ele>1497.199951</ele>
        <time>2017-05-25T13:54:45Z</time>
      </trkpt>
      <trkpt lat="45.62656" lon="3.83636">
        <ele>1496.800049</ele>
        <time>2017-05-25T13:54:47Z</time>
      </trkpt>
      <trkpt lat="45.62666" lon="3.83624">
        <ele>1496.699951</ele>
        <time>2017-05-25T13:54:49Z</time>
      </trkpt>
      <trkpt lat="45.62676" lon="3.8361">
        <ele>1496.300049</ele>
        <time>2017-05-25T13:54:51Z</time>
      </trkpt>
      <trkpt lat="45.62684" lon="3.83595">
        <ele>1496.099976</ele>
        <time>2017-05-25T13:54:53Z</time>
      </trkpt>
      <trkpt lat="45.62693" lon="3.83581">
        <ele>1496</ele>
        <time>2017-05-25T13:54:55Z</time>
      </trkpt>
      <trkpt lat="45.62702" lon="3.83568">
        <ele>1496</ele>
        <time>2017-05-25T13:54:57Z</time>
      </trkpt>
      <trkpt lat="45.62711" lon="3.83555">
        <ele>1496.199951</ele>
        <time>2017-05-25T13:54:59Z</time>
      </trkpt>
      <trkpt lat="45.62719" lon="3.8354">
        <ele>1496.400024</ele>
        <time>2017-05-25T13:55:01Z</time>
      </trkpt>
      <trkpt lat="45.62727" lon="3.83526">
        <ele>1496.400024</ele>
        <time>2017-05-25T13:55:03Z</time>
      </trkpt>
      <trkpt lat="45.62735" lon="3.83512">
        <ele>1496.300049</ele>
        <time>2017-05-25T13:55:05Z</time>
      </trkpt>
      <trkpt lat="45.62743" lon="3.83497">
        <ele>1496.300049</ele>
        <time>2017-05-25T13:55:07Z</time>
      </trkpt>
      <trkpt lat="45.6275" lon="3.83483">
        <ele>1496.400024</ele>
        <time>2017-05-25T13:55:09Z</time>
      </trkpt>
      <trkpt lat="45.62758" lon="3.83469">
        <ele>1496.5</ele>
        <time>2017-05-25T13:55:11Z</time>
      </trkpt>
      <trkpt lat="45.62765" lon="3.83457">
        <ele>1496.900024</ele>
        <time>2017-05-25T13:55:13Z</time>
      </trkpt>
      <trkpt lat="45.62771" lon="3.83445">
        <ele>1497.099976</ele>
        <time>2017-05-25T13:55:15Z</time>
      </trkpt>
      <trkpt lat="45.62776" lon="3.83434">
        <ele>1497.400024</ele>
        <time>2017-05-25T13:55:17Z</time>
      </trkpt>
      <trkpt lat="45.62781" lon="3.83422">
        <ele>1497.599976</ele>
        <time>2017-05-25T13:55:19Z</time>
      </trkpt>
      <trkpt lat="45.62787" lon="3.83411">
        <ele>1497.599976</ele>
        <time>2017-05-25T13:55:21Z</time>
      </trkpt>
      <trkpt lat="45.62791" lon="3.83399">
        <ele>1497.599976</ele>
        <time>2017-05-25T13:55:24Z</time>
      </trkpt>
      <trkpt lat="45.62794" lon="3.83385">
        <ele>1497.300049</ele>
        <time>2017-05-25T13:55:30Z</time>
      </trkpt>
      <trkpt lat="45.62797" lon="3.83373">
        <ele>1496.800049</ele>
        <time>2017-05-25T14:02:52Z</time>
      </trkpt>
      <trkpt lat="45.62802" lon="3.83361">
        <ele>1496.5</ele>
        <time>2017-05-25T14:02:55Z</time>
      </trkpt>
      <trkpt lat="45.62809" lon="3.83347">
        <ele>1496.300049</ele>
        <time>2017-05-25T14:02:58Z</time>
      </trkpt>
      <trkpt lat="45.62815" lon="3.83335">
        <ele>1496.400024</ele>
        <time>2017-05-25T14:03:00Z</time>
      </trkpt>
      <trkpt lat="45.62822" lon="3.83323">
        <ele>1496.199951</ele>
        <time>2017-05-25T14:03:02Z</time>
      </trkpt>
      <trkpt lat="45.6283" lon="3.83308">
        <ele>1495.599976</ele>
        <time>2017-05-25T14:03:04Z</time>
      </trkpt>
      <trkpt lat="45.62839" lon="3.83292">
        <ele>1494.900024</ele>
        <time>2017-05-25T14:03:06Z</time>
      </trkpt>
      <trkpt lat="45.62849" lon="3.83275">
        <ele>1494.099976</ele>
        <time>2017-05-25T14:03:08Z</time>
      </trkpt>
      <trkpt lat="45.62859" lon="3.83257">
        <ele>1493.099976</ele>
        <time>2017-05-25T14:03:10Z</time>
      </trkpt>
      <trkpt lat="45.62869" lon="3.83239">
        <ele>1492.400024</ele>
        <time>2017-05-25T14:03:12Z</time>
      </trkpt>
      <trkpt lat="45.6288" lon="3.83222">
        <ele>1491.5</ele>
        <time>2017-05-25T14:03:14Z</time>
      </trkpt>
      <trkpt lat="45.62892" lon="3.83205">
        <ele>1490.599976</ele>
        <time>2017-05-25T14:03:16Z</time>
      </trkpt>
      <trkpt lat="45.62906" lon="3.83189">
        <ele>1489.699951</ele>
        <time>2017-05-25T14:03:18Z</time>
      </trkpt>
      <trkpt lat="45.62918" lon="3.83172">
        <ele>1488.699951</ele>
        <time>2017-05-25T14:03:20Z</time>
      </trkpt>
      <trkpt lat="45.62929" lon="3.83155">
        <ele>1487.800049</ele>
        <time>2017-05-25T14:03:22Z</time>
      </trkpt>
      <trkpt lat="45.62941" lon="3.83139">
        <ele>1486.900024</ele>
        <time>2017-05-25T14:03:24Z</time>
      </trkpt>
      <trkpt lat="45.6295" lon="3.83123">
        <ele>1486.300049</ele>
        <time>2017-05-25T14:03:26Z</time>
      </trkpt>
      <trkpt lat="45.62958" lon="3.83106">
        <ele>1485.599976</ele>
        <time>2017-05-25T14:03:28Z</time>
      </trkpt>
      <trkpt lat="45.62965" lon="3.83088">
        <ele>1484.800049</ele>
        <time>2017-05-25T14:03:30Z</time>
      </trkpt>
      <trkpt lat="45.62974" lon="3.83073">
        <ele>1484.300049</ele>
        <time>2017-05-25T14:03:32Z</time>
      </trkpt>
      <trkpt lat="45.62983" lon="3.83056">
        <ele>1483.599976</ele>
        <time>2017-05-25T14:03:34Z</time>
      </trkpt>
      <trkpt lat="45.62992" lon="3.83041">
        <ele>1482.900024</ele>
        <time>2017-05-25T14:03:36Z</time>
      </trkpt>
      <trkpt lat="45.63001" lon="3.83025">
        <ele>1482.699951</ele>
        <time>2017-05-25T14:03:38Z</time>
      </trkpt>
      <trkpt lat="45.63009" lon="3.83009">
        <ele>1482.400024</ele>
        <time>2017-05-25T14:03:40Z</time>
      </trkpt>
      <trkpt lat="45.63016" lon="3.82993">
        <ele>1481.900024</ele>
        <time>2017-05-25T14:03:42Z</time>
      </trkpt>
      <trkpt lat="45.63025" lon="3.82977">
        <ele>1481.800049</ele>
        <time>2017-05-25T14:03:44Z</time>
      </trkpt>
      <trkpt lat="45.63034" lon="3.82962">
        <ele>1481.900024</ele>
        <time>2017-05-25T14:03:46Z</time>
      </trkpt>
      <trkpt lat="45.63043" lon="3.82947">
        <ele>1481.599976</ele>
        <time>2017-05-25T14:03:48Z</time>
      </trkpt>
      <trkpt lat="45.63052" lon="3.82933">
        <ele>1481.599976</ele>
        <time>2017-05-25T14:03:50Z</time>
      </trkpt>
      <trkpt lat="45.6306" lon="3.82919">
        <ele>1481.300049</ele>
        <time>2017-05-25T14:03:52Z</time>
      </trkpt>
      <trkpt lat="45.63069" lon="3.82904">
        <ele>1481.199951</ele>
        <time>2017-05-25T14:03:54Z</time>
      </trkpt>
      <trkpt lat="45.63076" lon="3.82888">
        <ele>1480.900024</ele>
        <time>2017-05-25T14:03:56Z</time>
      </trkpt>
      <trkpt lat="45.63083" lon="3.82872">
        <ele>1480.699951</ele>
        <time>2017-05-25T14:03:58Z</time>
      </trkpt>
      <trkpt lat="45.63091" lon="3.82858">
        <ele>1480.400024</ele>
        <time>2017-05-25T14:04:00Z</time>
      </trkpt>
      <trkpt lat="45.63098" lon="3.82842">
        <ele>1480.199951</ele>
        <time>2017-05-25T14:04:02Z</time>
      </trkpt>
      <trkpt lat="45.63104" lon="3.82827">
        <ele>1480.400024</ele>
        <time>2017-05-25T14:04:04Z</time>
      </trkpt>
      <trkpt lat="45.63109" lon="3.8281">
        <ele>1480.300049</ele>
        <time>2017-05-25T14:04:06Z</time>
      </trkpt>
      <trkpt lat="45.63114" lon="3.82793">
        <ele>1479.5</ele>
        <time>2017-05-25T14:04:08Z</time>
      </trkpt>
      <trkpt lat="45.6312" lon="3.82776">
        <ele>1479.5</ele>
        <time>2017-05-25T14:04:10Z</time>
      </trkpt>
      <trkpt lat="45.63125" lon="3.8276">
        <ele>1479.400024</ele>
        <time>2017-05-25T14:04:12Z</time>
      </trkpt>
      <trkpt lat="45.63128" lon="3.82743">
        <ele>1478.800049</ele>
        <time>2017-05-25T14:04:14Z</time>
      </trkpt>
      <trkpt lat="45.63132" lon="3.82727">
        <ele>1478.599976</ele>
        <time>2017-05-25T14:04:16Z</time>
      </trkpt>
      <trkpt lat="45.63136" lon="3.8271">
        <ele>1478.400024</ele>
        <time>2017-05-25T14:04:18Z</time>
      </trkpt>
      <trkpt lat="45.6314" lon="3.82693">
        <ele>1478.199951</ele>
        <time>2017-05-25T14:04:20Z</time>
      </trkpt>
      <trkpt lat="45.63143" lon="3.82676">
        <ele>1478.099976</ele>
        <time>2017-05-25T14:04:22Z</time>
      </trkpt>
      <trkpt lat="45.6315" lon="3.82663">
        <ele>1477.900024</ele>
        <time>2017-05-25T14:04:24Z</time>
      </trkpt>
      <trkpt lat="45.63157" lon="3.82651">
        <ele>1477.800049</ele>
        <time>2017-05-25T14:04:26Z</time>
      </trkpt>
      <trkpt lat="45.63162" lon="3.82638">
        <ele>1477.699951</ele>
        <time>2017-05-25T14:04:28Z</time>
      </trkpt>
      <trkpt lat="45.63166" lon="3.82624">
        <ele>1477.599976</ele>
        <time>2017-05-25T14:04:30Z</time>
      </trkpt>
      <trkpt lat="45.6317" lon="3.82611">
        <ele>1477.599976</ele>
        <time>2017-05-25T14:04:32Z</time>
      </trkpt>
      <trkpt lat="45.63173" lon="3.82597">
        <ele>1477.400024</ele>
        <time>2017-05-25T14:04:34Z</time>
      </trkpt>
      <trkpt lat="45.63174" lon="3.82584">
        <ele>1477.400024</ele>
        <time>2017-05-25T14:04:36Z</time>
      </trkpt>
      <trkpt lat="45.63175" lon="3.82566">
        <ele>1477.400024</ele>
        <time>2017-05-25T14:04:39Z</time>
      </trkpt>
      <trkpt lat="45.63171" lon="3.82553">
        <ele>1477.5</ele>
        <time>2017-05-25T14:04:43Z</time>
      </trkpt>
      <trkpt lat="45.63165" lon="3.82542">
        <ele>1478</ele>
        <time>2017-05-25T14:04:49Z</time>
      </trkpt>
      <trkpt lat="45.6316" lon="3.8253">
        <ele>1478.5</ele>
        <time>2017-05-25T14:05:02Z</time>
      </trkpt>
      <trkpt lat="45.63153" lon="3.82519">
        <ele>1478.800049</ele>
        <time>2017-05-25T14:05:06Z</time>
      </trkpt>
      <trkpt lat="45.63149" lon="3.82508">
        <ele>1479.800049</ele>
        <time>2017-05-25T14:05:10Z</time>
      </trkpt>
      <trkpt lat="45.63147" lon="3.82494">
        <ele>1481.400024</ele>
        <time>2017-05-25T14:05:17Z</time>
      </trkpt>
      <trkpt lat="45.63145" lon="3.82479">
        <ele>1483</ele>
        <time>2017-05-25T14:05:24Z</time>
      </trkpt>
      <trkpt lat="45.63144" lon="3.82466">
        <ele>1484.300049</ele>
        <time>2017-05-25T14:05:31Z</time>
      </trkpt>
      <trkpt lat="45.63144" lon="3.82452">
        <ele>1486.099976</ele>
        <time>2017-05-25T14:05:38Z</time>
      </trkpt>
      <trkpt lat="45.63144" lon="3.82439">
        <ele>1487.300049</ele>
        <time>2017-05-25T14:05:45Z</time>
      </trkpt>
      <trkpt lat="45.63143" lon="3.82425">
        <ele>1488.800049</ele>
        <time>2017-05-25T14:05:52Z</time>
      </trkpt>
      <trkpt lat="45.63144" lon="3.82412">
        <ele>1491.199951</ele>
        <time>2017-05-25T14:06:00Z</time>
      </trkpt>
      <trkpt lat="45.63143" lon="3.82398">
        <ele>1492.699951</ele>
        <time>2017-05-25T14:06:09Z</time>
      </trkpt>
      <trkpt lat="45.6314" lon="3.82385">
        <ele>1494.400024</ele>
        <time>2017-05-25T14:06:19Z</time>
      </trkpt>
      <trkpt lat="45.63139" lon="3.82371">
        <ele>1496.099976</ele>
        <time>2017-05-25T14:06:29Z</time>
      </trkpt>
      <trkpt lat="45.63137" lon="3.82357">
        <ele>1497.599976</ele>
        <time>2017-05-25T14:06:38Z</time>
      </trkpt>
      <trkpt lat="45.63135" lon="3.82343">
        <ele>1499.400024</ele>
        <time>2017-05-25T14:06:45Z</time>
      </trkpt>
      <trkpt lat="45.63135" lon="3.8233">
        <ele>1501.099976</ele>
        <time>2017-05-25T14:06:53Z</time>
      </trkpt>
      <trkpt lat="45.63136" lon="3.82317">
        <ele>1502.300049</ele>
        <time>2017-05-25T14:07:00Z</time>
      </trkpt>
      <trkpt lat="45.63136" lon="3.82303">
        <ele>1502.900024</ele>
        <time>2017-05-25T14:07:06Z</time>
      </trkpt>
      <trkpt lat="45.63137" lon="3.8229">
        <ele>1503.400024</ele>
        <time>2017-05-25T14:07:12Z</time>
      </trkpt>
      <trkpt lat="45.63138" lon="3.82277">
        <ele>1504.199951</ele>
        <time>2017-05-25T14:07:18Z</time>
      </trkpt>
      <trkpt lat="45.63141" lon="3.82264">
        <ele>1505.099976</ele>
        <time>2017-05-25T14:07:24Z</time>
      </trkpt>
      <trkpt lat="45.63144" lon="3.82251">
        <ele>1506.5</ele>
        <time>2017-05-25T14:07:30Z</time>
      </trkpt>
      <trkpt lat="45.63146" lon="3.82238">
        <ele>1508</ele>
        <time>2017-05-25T14:07:36Z</time>
      </trkpt>
      <trkpt lat="45.63148" lon="3.82225">
        <ele>1509.5</ele>
        <time>2017-05-25T14:07:42Z</time>
      </trkpt>
      <trkpt lat="45.63145" lon="3.82212">
        <ele>1510.5</ele>
        <time>2017-05-25T14:07:48Z</time>
      </trkpt>
      <trkpt lat="45.6314" lon="3.82202">
        <ele>1511.5</ele>
        <time>2017-05-25T14:07:54Z</time>
      </trkpt>
      <trkpt lat="45.63135" lon="3.8219">
        <ele>1512.099976</ele>
        <time>2017-05-25T14:08:00Z</time>
      </trkpt>
      <trkpt lat="45.63129" lon="3.82178">
        <ele>1513.099976</ele>
        <time>2017-05-25T14:08:07Z</time>
      </trkpt>
      <trkpt lat="45.63126" lon="3.82164">
        <ele>1513.599976</ele>
        <time>2017-05-25T14:08:13Z</time>
      </trkpt>
      <trkpt lat="45.63126" lon="3.82151">
        <ele>1514</ele>
        <time>2017-05-25T14:08:18Z</time>
      </trkpt>
      <trkpt lat="45.63128" lon="3.82138">
        <ele>1514.199951</ele>
        <time>2017-05-25T14:08:23Z</time>
      </trkpt>
      <trkpt lat="45.63133" lon="3.82125">
        <ele>1514.400024</ele>
        <time>2017-05-25T14:08:29Z</time>
      </trkpt>
      <trkpt lat="45.63139" lon="3.82115">
        <ele>1514.800049</ele>
        <time>2017-05-25T14:08:34Z</time>
      </trkpt>
      <trkpt lat="45.63147" lon="3.82105">
        <ele>1515.400024</ele>
        <time>2017-05-25T14:08:39Z</time>
      </trkpt>
      <trkpt lat="45.63154" lon="3.82094">
        <ele>1516.300049</ele>
        <time>2017-05-25T14:08:44Z</time>
      </trkpt>
      <trkpt lat="45.6316" lon="3.82083">
        <ele>1517</ele>
        <time>2017-05-25T14:08:49Z</time>
      </trkpt>
      <trkpt lat="45.63163" lon="3.8207">
        <ele>1517.900024</ele>
        <time>2017-05-25T14:08:54Z</time>
      </trkpt>
      <trkpt lat="45.63167" lon="3.82056">
        <ele>1518.900024</ele>
        <time>2017-05-25T14:09:00Z</time>
      </trkpt>
      <trkpt lat="45.6317" lon="3.82042">
        <ele>1519.800049</ele>
        <time>2017-05-25T14:09:06Z</time>
      </trkpt>
      <trkpt lat="45.63175" lon="3.82028">
        <ele>1520.5</ele>
        <time>2017-05-25T14:09:12Z</time>
      </trkpt>
      <trkpt lat="45.63178" lon="3.82016">
        <ele>1521.400024</ele>
        <time>2017-05-25T14:09:18Z</time>
      </trkpt>
      <trkpt lat="45.63182" lon="3.82002">
        <ele>1522.199951</ele>
        <time>2017-05-25T14:09:24Z</time>
      </trkpt>
      <trkpt lat="45.63187" lon="3.81988">
        <ele>1522.800049</ele>
        <time>2017-05-25T14:09:30Z</time>
      </trkpt>
      <trkpt lat="45.6319" lon="3.81976">
        <ele>1523.5</ele>
        <time>2017-05-25T14:09:35Z</time>
      </trkpt>
      <trkpt lat="45.63195" lon="3.81963">
        <ele>1524.099976</ele>
        <time>2017-05-25T14:09:41Z</time>
      </trkpt>
      <trkpt lat="45.632" lon="3.8195">
        <ele>1524.400024</ele>
        <time>2017-05-25T14:09:46Z</time>
      </trkpt>
      <trkpt lat="45.63204" lon="3.81939">
        <ele>1524.800049</ele>
        <time>2017-05-25T14:09:50Z</time>
      </trkpt>
      <trkpt lat="45.63208" lon="3.81926">
        <ele>1525.099976</ele>
        <time>2017-05-25T14:09:54Z</time>
      </trkpt>
      <trkpt lat="45.63213" lon="3.81911">
        <ele>1525.5</ele>
        <time>2017-05-25T14:09:59Z</time>
      </trkpt>
      <trkpt lat="45.63217" lon="3.81896">
        <ele>1526</ele>
        <time>2017-05-25T14:10:04Z</time>
      </trkpt>
      <trkpt lat="45.63221" lon="3.81883">
        <ele>1525.800049</ele>
        <time>2017-05-25T14:10:08Z</time>
      </trkpt>
      <trkpt lat="45.63225" lon="3.8187">
        <ele>1525.800049</ele>
        <time>2017-05-25T14:10:12Z</time>
      </trkpt>
      <trkpt lat="45.63231" lon="3.81858">
        <ele>1525.800049</ele>
        <time>2017-05-25T14:10:16Z</time>
      </trkpt>
      <trkpt lat="45.63237" lon="3.81845">
        <ele>1525.900024</ele>
        <time>2017-05-25T14:10:20Z</time>
      </trkpt>
      <trkpt lat="45.63243" lon="3.81831">
        <ele>1526.199951</ele>
        <time>2017-05-25T14:10:24Z</time>
      </trkpt>
      <trkpt lat="45.63249" lon="3.8182">
        <ele>1526.199951</ele>
        <time>2017-05-25T14:10:28Z</time>
      </trkpt>
      <trkpt lat="45.63255" lon="3.81809">
        <ele>1526.400024</ele>
        <time>2017-05-25T14:10:32Z</time>
      </trkpt>
      <trkpt lat="45.63264" lon="3.818">
        <ele>1526.599976</ele>
        <time>2017-05-25T14:10:37Z</time>
      </trkpt>
      <trkpt lat="45.63273" lon="3.81795">
        <ele>1526.800049</ele>
        <time>2017-05-25T14:10:42Z</time>
      </trkpt>
      <trkpt lat="45.63282" lon="3.81787">
        <ele>1526.900024</ele>
        <time>2017-05-25T14:10:47Z</time>
      </trkpt>
      <trkpt lat="45.63292" lon="3.81782">
        <ele>1527.300049</ele>
        <time>2017-05-25T14:10:52Z</time>
      </trkpt>
      <trkpt lat="45.63302" lon="3.81778">
        <ele>1527.699951</ele>
        <time>2017-05-25T14:10:57Z</time>
      </trkpt>
      <trkpt lat="45.63312" lon="3.81774">
        <ele>1528.599976</ele>
        <time>2017-05-25T14:11:02Z</time>
      </trkpt>
      <trkpt lat="45.63323" lon="3.81769">
        <ele>1529.400024</ele>
        <time>2017-05-25T14:11:07Z</time>
      </trkpt>
      <trkpt lat="45.63331" lon="3.81765">
        <ele>1529.699951</ele>
        <time>2017-05-25T14:11:11Z</time>
      </trkpt>
      <trkpt lat="45.6334" lon="3.81761">
        <ele>1530.199951</ele>
        <time>2017-05-25T14:11:15Z</time>
      </trkpt>
      <trkpt lat="45.63349" lon="3.81757">
        <ele>1530.5</ele>
        <time>2017-05-25T14:11:19Z</time>
      </trkpt>
      <trkpt lat="45.63358" lon="3.81751">
        <ele>1531.099976</ele>
        <time>2017-05-25T14:11:24Z</time>
      </trkpt>
      <trkpt lat="45.63369" lon="3.81747">
        <ele>1531.400024</ele>
        <time>2017-05-25T14:11:29Z</time>
      </trkpt>
      <trkpt lat="45.63377" lon="3.81743">
        <ele>1531.699951</ele>
        <time>2017-05-25T14:11:33Z</time>
      </trkpt>
      <trkpt lat="45.63387" lon="3.81738">
        <ele>1532.199951</ele>
        <time>2017-05-25T14:11:37Z</time>
      </trkpt>
      <trkpt lat="45.63397" lon="3.81734">
        <ele>1532.5</ele>
        <time>2017-05-25T14:11:41Z</time>
      </trkpt>
      <trkpt lat="45.63406" lon="3.8173">
        <ele>1533</ele>
        <time>2017-05-25T14:11:45Z</time>
      </trkpt>
      <trkpt lat="45.63415" lon="3.81726">
        <ele>1533.400024</ele>
        <time>2017-05-25T14:11:49Z</time>
      </trkpt>
      <trkpt lat="45.63425" lon="3.81721">
        <ele>1533.900024</ele>
        <time>2017-05-25T14:11:53Z</time>
      </trkpt>
      <trkpt lat="45.63436" lon="3.81717">
        <ele>1534.599976</ele>
        <time>2017-05-25T14:11:57Z</time>
      </trkpt>
      <trkpt lat="45.63447" lon="3.81712">
        <ele>1535</ele>
        <time>2017-05-25T14:12:01Z</time>
      </trkpt>
      <trkpt lat="45.63457" lon="3.81708">
        <ele>1535.199951</ele>
        <time>2017-05-25T14:12:04Z</time>
      </trkpt>
      <trkpt lat="45.63468" lon="3.81702">
        <ele>1535</ele>
        <time>2017-05-25T14:12:08Z</time>
      </trkpt>
      <trkpt lat="45.63479" lon="3.81697">
        <ele>1535.599976</ele>
        <time>2017-05-25T14:12:12Z</time>
      </trkpt>
      <trkpt lat="45.6349" lon="3.81692">
        <ele>1535.900024</ele>
        <time>2017-05-25T14:12:16Z</time>
      </trkpt>
      <trkpt lat="45.635" lon="3.81687">
        <ele>1536.300049</ele>
        <time>2017-05-25T14:12:19Z</time>
      </trkpt>
      <trkpt lat="45.63509" lon="3.81681">
        <ele>1536.599976</ele>
        <time>2017-05-25T14:12:22Z</time>
      </trkpt>
      <trkpt lat="45.63521" lon="3.81675">
        <ele>1536.5</ele>
        <time>2017-05-25T14:12:25Z</time>
      </trkpt>
      <trkpt lat="45.63534" lon="3.81667">
        <ele>1536.699951</ele>
        <time>2017-05-25T14:12:28Z</time>
      </trkpt>
      <trkpt lat="45.63541" lon="3.81658">
        <ele>1536.5</ele>
        <time>2017-05-25T14:12:30Z</time>
      </trkpt>
      <trkpt lat="45.63546" lon="3.81645">
        <ele>1537.199951</ele>
        <time>2017-05-25T14:12:32Z</time>
      </trkpt>
      <trkpt lat="45.63551" lon="3.81631">
        <ele>1537.199951</ele>
        <time>2017-05-25T14:12:34Z</time>
      </trkpt>
      <trkpt lat="45.63556" lon="3.81616">
        <ele>1536.900024</ele>
        <time>2017-05-25T14:12:36Z</time>
      </trkpt>
      <trkpt lat="45.63562" lon="3.81601">
        <ele>1536</ele>
        <time>2017-05-25T14:12:38Z</time>
      </trkpt>
      <trkpt lat="45.63568" lon="3.81586">
        <ele>1535.900024</ele>
        <time>2017-05-25T14:12:40Z</time>
      </trkpt>
      <trkpt lat="45.63575" lon="3.8157">
        <ele>1535.699951</ele>
        <time>2017-05-25T14:12:42Z</time>
      </trkpt>
      <trkpt lat="45.63583" lon="3.81556">
        <ele>1535.300049</ele>
        <time>2017-05-25T14:12:44Z</time>
      </trkpt>
      <trkpt lat="45.6359" lon="3.81541">
        <ele>1534.400024</ele>
        <time>2017-05-25T14:12:46Z</time>
      </trkpt>
      <trkpt lat="45.63598" lon="3.81527">
        <ele>1534.099976</ele>
        <time>2017-05-25T14:12:48Z</time>
      </trkpt>
      <trkpt lat="45.63606" lon="3.81515">
        <ele>1533.699951</ele>
        <time>2017-05-25T14:12:50Z</time>
      </trkpt>
      <trkpt lat="45.63612" lon="3.81505">
        <ele>1533.599976</ele>
        <time>2017-05-25T14:12:52Z</time>
      </trkpt>
      <trkpt lat="45.6362" lon="3.81492">
        <ele>1533.099976</ele>
        <time>2017-05-25T14:12:55Z</time>
      </trkpt>
      <trkpt lat="45.63629" lon="3.81479">
        <ele>1532.699951</ele>
        <time>2017-05-25T14:12:58Z</time>
      </trkpt>
      <trkpt lat="45.63639" lon="3.81466">
        <ele>1532.199951</ele>
        <time>2017-05-25T14:13:01Z</time>
      </trkpt>
      <trkpt lat="45.63648" lon="3.81453">
        <ele>1531.699951</ele>
        <time>2017-05-25T14:13:04Z</time>
      </trkpt>
      <trkpt lat="45.63656" lon="3.81441">
        <ele>1531.300049</ele>
        <time>2017-05-25T14:13:07Z</time>
      </trkpt>
      <trkpt lat="45.63665" lon="3.81428">
        <ele>1531</ele>
        <time>2017-05-25T14:13:10Z</time>
      </trkpt>
      <trkpt lat="45.63674" lon="3.81415">
        <ele>1530.900024</ele>
        <time>2017-05-25T14:13:13Z</time>
      </trkpt>
      <trkpt lat="45.63683" lon="3.81402">
        <ele>1530.699951</ele>
        <time>2017-05-25T14:13:16Z</time>
      </trkpt>
      <trkpt lat="45.63693" lon="3.81388">
        <ele>1530.599976</ele>
        <time>2017-05-25T14:13:19Z</time>
      </trkpt>
      <trkpt lat="45.63701" lon="3.81375">
        <ele>1529.599976</ele>
        <time>2017-05-25T14:13:22Z</time>
      </trkpt>
      <trkpt lat="45.63709" lon="3.81362">
        <ele>1529.099976</ele>
        <time>2017-05-25T14:13:25Z</time>
      </trkpt>
      <trkpt lat="45.63718" lon="3.81351">
        <ele>1528.400024</ele>
        <time>2017-05-25T14:13:28Z</time>
      </trkpt>
      <trkpt lat="45.63728" lon="3.8134">
        <ele>1527.5</ele>
        <time>2017-05-25T14:13:31Z</time>
      </trkpt>
      <trkpt lat="45.63737" lon="3.81332">
        <ele>1526.599976</ele>
        <time>2017-05-25T14:13:33Z</time>
      </trkpt>
      <trkpt lat="45.63745" lon="3.81324">
        <ele>1525.699951</ele>
        <time>2017-05-25T14:13:35Z</time>
      </trkpt>
      <trkpt lat="45.63755" lon="3.81316">
        <ele>1524.099976</ele>
        <time>2017-05-25T14:13:38Z</time>
      </trkpt>
      <trkpt lat="45.63766" lon="3.8131">
        <ele>1522</ele>
        <time>2017-05-25T14:13:41Z</time>
      </trkpt>
      <trkpt lat="45.63778" lon="3.81304">
        <ele>1520.900024</ele>
        <time>2017-05-25T14:13:44Z</time>
      </trkpt>
      <trkpt lat="45.6379" lon="3.81298">
        <ele>1519.699951</ele>
        <time>2017-05-25T14:13:46Z</time>
      </trkpt>
      <trkpt lat="45.638" lon="3.8129">
        <ele>1518.699951</ele>
        <time>2017-05-25T14:13:48Z</time>
      </trkpt>
      <trkpt lat="45.6381" lon="3.81282">
        <ele>1517.199951</ele>
        <time>2017-05-25T14:13:50Z</time>
      </trkpt>
      <trkpt lat="45.6382" lon="3.81276">
        <ele>1516.400024</ele>
        <time>2017-05-25T14:13:52Z</time>
      </trkpt>
      <trkpt lat="45.63832" lon="3.81273">
        <ele>1515.5</ele>
        <time>2017-05-25T14:13:54Z</time>
      </trkpt>
      <trkpt lat="45.63843" lon="3.8127">
        <ele>1514.699951</ele>
        <time>2017-05-25T14:13:56Z</time>
      </trkpt>
      <trkpt lat="45.63852" lon="3.8127">
        <ele>1513.699951</ele>
        <time>2017-05-25T14:13:58Z</time>
      </trkpt>
      <trkpt lat="45.63864" lon="3.81262">
        <ele>1512.900024</ele>
        <time>2017-05-25T14:14:01Z</time>
      </trkpt>
      <trkpt lat="45.63871" lon="3.81249">
        <ele>1511.900024</ele>
        <time>2017-05-25T14:14:04Z</time>
      </trkpt>
      <trkpt lat="45.6388" lon="3.81239">
        <ele>1511.400024</ele>
        <time>2017-05-25T14:14:07Z</time>
      </trkpt>
      <trkpt lat="45.63888" lon="3.81228">
        <ele>1511.300049</ele>
        <time>2017-05-25T14:14:10Z</time>
      </trkpt>
      <trkpt lat="45.63894" lon="3.81217">
        <ele>1511.5</ele>
        <time>2017-05-25T14:14:13Z</time>
      </trkpt>
      <trkpt lat="45.63901" lon="3.81206">
        <ele>1512</ele>
        <time>2017-05-25T14:14:16Z</time>
      </trkpt>
      <trkpt lat="45.63908" lon="3.81195">
        <ele>1512.099976</ele>
        <time>2017-05-25T14:14:19Z</time>
      </trkpt>
      <trkpt lat="45.63917" lon="3.81184">
        <ele>1512.300049</ele>
        <time>2017-05-25T14:14:23Z</time>
      </trkpt>
      <trkpt lat="45.63924" lon="3.81177">
        <ele>1512.900024</ele>
        <time>2017-05-25T14:14:27Z</time>
      </trkpt>
      <trkpt lat="45.63931" lon="3.81167">
        <ele>1514</ele>
        <time>2017-05-25T14:14:32Z</time>
      </trkpt>
      <trkpt lat="45.63938" lon="3.81156">
        <ele>1515.300049</ele>
        <time>2017-05-25T14:14:38Z</time>
      </trkpt>
      <trkpt lat="45.63946" lon="3.81149">
        <ele>1517</ele>
        <time>2017-05-25T14:14:44Z</time>
      </trkpt>
      <trkpt lat="45.63954" lon="3.81141">
        <ele>1517.699951</ele>
        <time>2017-05-25T14:14:50Z</time>
      </trkpt>
      <trkpt lat="45.63962" lon="3.81132">
        <ele>1518.900024</ele>
        <time>2017-05-25T14:14:57Z</time>
      </trkpt>
      <trkpt lat="45.63969" lon="3.81124">
        <ele>1520.900024</ele>
        <time>2017-05-25T14:15:05Z</time>
      </trkpt>
      <trkpt lat="45.63977" lon="3.81115">
        <ele>1523.300049</ele>
        <time>2017-05-25T14:15:13Z</time>
      </trkpt>
      <trkpt lat="45.63986" lon="3.81109">
        <ele>1524.900024</ele>
        <time>2017-05-25T14:15:20Z</time>
      </trkpt>
      <trkpt lat="45.63994" lon="3.81103">
        <ele>1526.400024</ele>
        <time>2017-05-25T14:15:27Z</time>
      </trkpt>
      <trkpt lat="45.64002" lon="3.81098">
        <ele>1527.800049</ele>
        <time>2017-05-25T14:15:34Z</time>
      </trkpt>
      <trkpt lat="45.64011" lon="3.81093">
        <ele>1528.800049</ele>
        <time>2017-05-25T14:15:41Z</time>
      </trkpt>
      <trkpt lat="45.64019" lon="3.81083">
        <ele>1530</ele>
        <time>2017-05-25T14:15:48Z</time>
      </trkpt>
      <trkpt lat="45.64027" lon="3.81074">
        <ele>1530.599976</ele>
        <time>2017-05-25T14:15:55Z</time>
      </trkpt>
      <trkpt lat="45.64036" lon="3.8107">
        <ele>1531.199951</ele>
        <time>2017-05-25T14:16:02Z</time>
      </trkpt>
      <trkpt lat="45.64045" lon="3.81073">
        <ele>1531.800049</ele>
        <time>2017-05-25T14:16:10Z</time>
      </trkpt>
      <trkpt lat="45.64053" lon="3.8108">
        <ele>1532.900024</ele>
        <time>2017-05-25T14:20:54Z</time>
      </trkpt>
      <trkpt lat="45.6406" lon="3.8109">
        <ele>1534.099976</ele>
        <time>2017-05-25T14:21:02Z</time>
      </trkpt>
      <trkpt lat="45.64067" lon="3.81098">
        <ele>1534.900024</ele>
        <time>2017-05-25T14:21:10Z</time>
      </trkpt>
      <trkpt lat="45.64075" lon="3.81107">
        <ele>1536.099976</ele>
        <time>2017-05-25T14:21:18Z</time>
      </trkpt>
      <trkpt lat="45.64083" lon="3.81113">
        <ele>1537.099976</ele>
        <time>2017-05-25T14:21:25Z</time>
      </trkpt>
      <trkpt lat="45.64091" lon="3.81118">
        <ele>1538.5</ele>
        <time>2017-05-25T14:21:32Z</time>
      </trkpt>
      <trkpt lat="45.641" lon="3.81124">
        <ele>1539.5</ele>
        <time>2017-05-25T14:21:40Z</time>
      </trkpt>
      <trkpt lat="45.64109" lon="3.8113">
        <ele>1540.599976</ele>
        <time>2017-05-25T14:21:47Z</time>
      </trkpt>
      <trkpt lat="45.64118" lon="3.81136">
        <ele>1541.800049</ele>
        <time>2017-05-25T14:21:54Z</time>
      </trkpt>
      <trkpt lat="45.64127" lon="3.81141">
        <ele>1543.199951</ele>
        <time>2017-05-25T14:22:01Z</time>
      </trkpt>
      <trkpt lat="45.64135" lon="3.81146">
        <ele>1543.800049</ele>
        <time>2017-05-25T14:22:08Z</time>
      </trkpt>
      <trkpt lat="45.64143" lon="3.81152">
        <ele>1545.300049</ele>
        <time>2017-05-25T14:22:15Z</time>
      </trkpt>
      <trkpt lat="45.64153" lon="3.81158">
        <ele>1546.599976</ele>
        <time>2017-05-25T14:22:23Z</time>
      </trkpt>
      <trkpt lat="45.64162" lon="3.81164">
        <ele>1547.400024</ele>
        <time>2017-05-25T14:22:30Z</time>
      </trkpt>
      <trkpt lat="45.6417" lon="3.81169">
        <ele>1548.300049</ele>
        <time>2017-05-25T14:22:37Z</time>
      </trkpt>
      <trkpt lat="45.64179" lon="3.81175">
        <ele>1549.099976</ele>
        <time>2017-05-25T14:22:44Z</time>
      </trkpt>
      <trkpt lat="45.64187" lon="3.8118">
        <ele>1550.199951</ele>
        <time>2017-05-25T14:22:51Z</time>
      </trkpt>
      <trkpt lat="45.64196" lon="3.81185">
        <ele>1551.900024</ele>
        <time>2017-05-25T14:22:59Z</time>
      </trkpt>
      <trkpt lat="45.64205" lon="3.81191">
        <ele>1553.5</ele>
        <time>2017-05-25T14:23:07Z</time>
      </trkpt>
      <trkpt lat="45.64213" lon="3.81196">
        <ele>1554.900024</ele>
        <time>2017-05-25T14:23:14Z</time>
      </trkpt>
      <trkpt lat="45.64223" lon="3.81201">
        <ele>1556.199951</ele>
        <time>2017-05-25T14:23:22Z</time>
      </trkpt>
      <trkpt lat="45.64232" lon="3.81206">
        <ele>1557.699951</ele>
        <time>2017-05-25T14:23:29Z</time>
      </trkpt>
      <trkpt lat="45.64242" lon="3.8121">
        <ele>1559.5</ele>
        <time>2017-05-25T14:23:37Z</time>
      </trkpt>
      <trkpt lat="45.64251" lon="3.81214">
        <ele>1561.5</ele>
        <time>2017-05-25T14:23:44Z</time>
      </trkpt>
      <trkpt lat="45.6426" lon="3.81218">
        <ele>1562.900024</ele>
        <time>2017-05-25T14:23:51Z</time>
      </trkpt>
      <trkpt lat="45.64269" lon="3.81221">
        <ele>1564.199951</ele>
        <time>2017-05-25T14:23:58Z</time>
      </trkpt>
      <trkpt lat="45.64278" lon="3.81226">
        <ele>1565.400024</ele>
        <time>2017-05-25T14:24:05Z</time>
      </trkpt>
      <trkpt lat="45.64287" lon="3.81233">
        <ele>1566.300049</ele>
        <time>2017-05-25T14:24:12Z</time>
      </trkpt>
      <trkpt lat="45.64296" lon="3.81242">
        <ele>1567.5</ele>
        <time>2017-05-25T14:24:20Z</time>
      </trkpt>
      <trkpt lat="45.64304" lon="3.81248">
        <ele>1569</ele>
        <time>2017-05-25T14:24:27Z</time>
      </trkpt>
      <trkpt lat="45.64312" lon="3.81255">
        <ele>1570.199951</ele>
        <time>2017-05-25T14:24:34Z</time>
      </trkpt>
      <trkpt lat="45.64321" lon="3.81262">
        <ele>1571.199951</ele>
        <time>2017-05-25T14:24:41Z</time>
      </trkpt>
      <trkpt lat="45.6433" lon="3.81268">
        <ele>1572.300049</ele>
        <time>2017-05-25T14:24:48Z</time>
      </trkpt>
      <trkpt lat="45.64338" lon="3.81275">
        <ele>1573.199951</ele>
        <time>2017-05-25T14:24:54Z</time>
      </trkpt>
      <trkpt lat="45.64346" lon="3.81281">
        <ele>1574</ele>
        <time>2017-05-25T14:25:00Z</time>
      </trkpt>
      <trkpt lat="45.64355" lon="3.81287">
        <ele>1574.699951</ele>
        <time>2017-05-25T14:25:06Z</time>
      </trkpt>
      <trkpt lat="45.64366" lon="3.8129">
        <ele>1575.400024</ele>
        <time>2017-05-25T14:25:12Z</time>
      </trkpt>
      <trkpt lat="45.64375" lon="3.81291">
        <ele>1575.900024</ele>
        <time>2017-05-25T14:25:18Z</time>
      </trkpt>
      <trkpt lat="45.64385" lon="3.81291">
        <ele>1576.900024</ele>
        <time>2017-05-25T14:25:24Z</time>
      </trkpt>
      <trkpt lat="45.64395" lon="3.81294">
        <ele>1577.400024</ele>
        <time>2017-05-25T14:25:30Z</time>
      </trkpt>
      <trkpt lat="45.64404" lon="3.81294">
        <ele>1578.099976</ele>
        <time>2017-05-25T14:25:36Z</time>
      </trkpt>
      <trkpt lat="45.64413" lon="3.81296">
        <ele>1579.199951</ele>
        <time>2017-05-25T14:25:42Z</time>
      </trkpt>
      <trkpt lat="45.64423" lon="3.81297">
        <ele>1580.400024</ele>
        <time>2017-05-25T14:25:48Z</time>
      </trkpt>
      <trkpt lat="45.64432" lon="3.81298">
        <ele>1581.800049</ele>
        <time>2017-05-25T14:25:54Z</time>
      </trkpt>
      <trkpt lat="45.64442" lon="3.81302">
        <ele>1583.300049</ele>
        <time>2017-05-25T14:26:00Z</time>
      </trkpt>
      <trkpt lat="45.64452" lon="3.81307">
        <ele>1584.099976</ele>
        <time>2017-05-25T14:26:06Z</time>
      </trkpt>
      <trkpt lat="45.64459" lon="3.81313">
        <ele>1585.099976</ele>
        <time>2017-05-25T14:26:12Z</time>
      </trkpt>
      <trkpt lat="45.64468" lon="3.81318">
        <ele>1586</ele>
        <time>2017-05-25T14:26:18Z</time>
      </trkpt>
      <trkpt lat="45.64476" lon="3.81324">
        <ele>1587.199951</ele>
        <time>2017-05-25T14:26:24Z</time>
      </trkpt>
      <trkpt lat="45.64485" lon="3.8133">
        <ele>1588.099976</ele>
        <time>2017-05-25T14:26:30Z</time>
      </trkpt>
      <trkpt lat="45.64494" lon="3.81337">
        <ele>1589.099976</ele>
        <time>2017-05-25T14:26:36Z</time>
      </trkpt>
      <trkpt lat="45.64503" lon="3.81344">
        <ele>1590.400024</ele>
        <time>2017-05-25T14:26:43Z</time>
      </trkpt>
      <trkpt lat="45.64512" lon="3.8135">
        <ele>1591.400024</ele>
        <time>2017-05-25T14:26:49Z</time>
      </trkpt>
      <trkpt lat="45.64521" lon="3.81356">
        <ele>1592.199951</ele>
        <time>2017-05-25T14:26:55Z</time>
      </trkpt>
      <trkpt lat="45.64529" lon="3.81363">
        <ele>1592.900024</ele>
        <time>2017-05-25T14:27:00Z</time>
      </trkpt>
      <trkpt lat="45.64538" lon="3.81371">
        <ele>1593.699951</ele>
        <time>2017-05-25T14:27:06Z</time>
      </trkpt>
      <trkpt lat="45.64545" lon="3.81379">
        <ele>1594.300049</ele>
        <time>2017-05-25T14:27:11Z</time>
      </trkpt>
      <trkpt lat="45.64554" lon="3.81387">
        <ele>1595.199951</ele>
        <time>2017-05-25T14:27:17Z</time>
      </trkpt>
      <trkpt lat="45.64563" lon="3.81396">
        <ele>1596</ele>
        <time>2017-05-25T14:27:23Z</time>
      </trkpt>
      <trkpt lat="45.6457" lon="3.81404">
        <ele>1596.800049</ele>
        <time>2017-05-25T14:27:28Z</time>
      </trkpt>
      <trkpt lat="45.64578" lon="3.81412">
        <ele>1597.300049</ele>
        <time>2017-05-25T14:27:33Z</time>
      </trkpt>
      <trkpt lat="45.64586" lon="3.8142">
        <ele>1597.699951</ele>
        <time>2017-05-25T14:27:38Z</time>
      </trkpt>
      <trkpt lat="45.64594" lon="3.81429">
        <ele>1597.900024</ele>
        <time>2017-05-25T14:27:43Z</time>
      </trkpt>
      <trkpt lat="45.64602" lon="3.81438">
        <ele>1598.599976</ele>
        <time>2017-05-25T14:27:48Z</time>
      </trkpt>
      <trkpt lat="45.64609" lon="3.81447">
        <ele>1599.400024</ele>
        <time>2017-05-25T14:27:53Z</time>
      </trkpt>
      <trkpt lat="45.64617" lon="3.81455">
        <ele>1600</ele>
        <time>2017-05-25T14:27:58Z</time>
      </trkpt>
      <trkpt lat="45.64624" lon="3.81464">
        <ele>1600.699951</ele>
        <time>2017-05-25T14:28:03Z</time>
      </trkpt>
      <trkpt lat="45.64631" lon="3.81472">
        <ele>1601.400024</ele>
        <time>2017-05-25T14:28:08Z</time>
      </trkpt>
      <trkpt lat="45.6464" lon="3.8148">
        <ele>1602.099976</ele>
        <time>2017-05-25T14:28:13Z</time>
      </trkpt>
      <trkpt lat="45.64648" lon="3.81486">
        <ele>1603</ele>
        <time>2017-05-25T14:28:18Z</time>
      </trkpt>
      <trkpt lat="45.64657" lon="3.81493">
        <ele>1603.400024</ele>
        <time>2017-05-25T14:28:23Z</time>
      </trkpt>
      <trkpt lat="45.64666" lon="3.815">
        <ele>1604</ele>
        <time>2017-05-25T14:28:28Z</time>
      </trkpt>
      <trkpt lat="45.64675" lon="3.81509">
        <ele>1604.800049</ele>
        <time>2017-05-25T14:28:33Z</time>
      </trkpt>
      <trkpt lat="45.64683" lon="3.81516">
        <ele>1605</ele>
        <time>2017-05-25T14:28:38Z</time>
      </trkpt>
      <trkpt lat="45.64691" lon="3.81524">
        <ele>1605.699951</ele>
        <time>2017-05-25T14:28:43Z</time>
      </trkpt>
      <trkpt lat="45.64698" lon="3.81532">
        <ele>1606.599976</ele>
        <time>2017-05-25T14:28:48Z</time>
      </trkpt>
      <trkpt lat="45.64706" lon="3.81539">
        <ele>1607.699951</ele>
        <time>2017-05-25T14:28:53Z</time>
      </trkpt>
      <trkpt lat="45.64715" lon="3.81547">
        <ele>1609</ele>
        <time>2017-05-25T14:28:59Z</time>
      </trkpt>
      <trkpt lat="45.64723" lon="3.81554">
        <ele>1610.599976</ele>
        <time>2017-05-25T14:29:04Z</time>
      </trkpt>
      <trkpt lat="45.64731" lon="3.81562">
        <ele>1611.300049</ele>
        <time>2017-05-25T14:29:10Z</time>
      </trkpt>
      <trkpt lat="45.64739" lon="3.81571">
        <ele>1612.199951</ele>
        <time>2017-05-25T14:29:16Z</time>
      </trkpt>
      <trkpt lat="45.64746" lon="3.81581">
        <ele>1613</ele>
        <time>2017-05-25T14:29:22Z</time>
      </trkpt>
      <trkpt lat="45.64754" lon="3.8159">
        <ele>1613.900024</ele>
        <time>2017-05-25T14:29:28Z</time>
      </trkpt>
      <trkpt lat="45.64762" lon="3.81599">
        <ele>1614.400024</ele>
        <time>2017-05-25T14:29:34Z</time>
      </trkpt>
      <trkpt lat="45.6477" lon="3.81606">
        <ele>1615.099976</ele>
        <time>2017-05-25T14:29:39Z</time>
      </trkpt>
      <trkpt lat="45.64778" lon="3.81614">
        <ele>1615.599976</ele>
        <time>2017-05-25T14:29:44Z</time>
      </trkpt>
      <trkpt lat="45.64786" lon="3.81619">
        <ele>1616.300049</ele>
        <time>2017-05-25T14:29:49Z</time>
      </trkpt>
      <trkpt lat="45.64795" lon="3.81625">
        <ele>1617.199951</ele>
        <time>2017-05-25T14:29:54Z</time>
      </trkpt>
      <trkpt lat="45.64805" lon="3.81629">
        <ele>1617.699951</ele>
        <time>2017-05-25T14:29:59Z</time>
      </trkpt>
      <trkpt lat="45.64816" lon="3.81635">
        <ele>1618.5</ele>
        <time>2017-05-25T14:30:04Z</time>
      </trkpt>
      <trkpt lat="45.64824" lon="3.81641">
        <ele>1619.699951</ele>
        <time>2017-05-25T14:30:08Z</time>
      </trkpt>
      <trkpt lat="45.64833" lon="3.81646">
        <ele>1620.599976</ele>
        <time>2017-05-25T14:30:12Z</time>
      </trkpt>
      <trkpt lat="45.64842" lon="3.81653">
        <ele>1621.5</ele>
        <time>2017-05-25T14:30:16Z</time>
      </trkpt>
      <trkpt lat="45.64852" lon="3.81662">
        <ele>1622.099976</ele>
        <time>2017-05-25T14:30:20Z</time>
      </trkpt>
      <trkpt lat="45.64862" lon="3.81671">
        <ele>1622.300049</ele>
        <time>2017-05-25T14:30:24Z</time>
      </trkpt>
      <trkpt lat="45.6487" lon="3.81677">
        <ele>1622.400024</ele>
        <time>2017-05-25T14:30:27Z</time>
      </trkpt>
      <trkpt lat="45.64879" lon="3.81683">
        <ele>1622.5</ele>
        <time>2017-05-25T14:30:30Z</time>
      </trkpt>
      <trkpt lat="45.6489" lon="3.81689">
        <ele>1622.599976</ele>
        <time>2017-05-25T14:30:34Z</time>
      </trkpt>
      <trkpt lat="45.64901" lon="3.81694">
        <ele>1622.599976</ele>
        <time>2017-05-25T14:30:37Z</time>
      </trkpt>
      <trkpt lat="45.64912" lon="3.81697">
        <ele>1622.699951</ele>
        <time>2017-05-25T14:30:40Z</time>
      </trkpt>
      <trkpt lat="45.64923" lon="3.817">
        <ele>1622.400024</ele>
        <time>2017-05-25T14:30:43Z</time>
      </trkpt>
      <trkpt lat="45.64935" lon="3.81701">
        <ele>1622</ele>
        <time>2017-05-25T14:30:46Z</time>
      </trkpt>
      <trkpt lat="45.64948" lon="3.81702">
        <ele>1621.699951</ele>
        <time>2017-05-25T14:30:49Z</time>
      </trkpt>
      <trkpt lat="45.64958" lon="3.81701">
        <ele>1621.300049</ele>
        <time>2017-05-25T14:30:51Z</time>
      </trkpt>
      <trkpt lat="45.64967" lon="3.81697">
        <ele>1620.699951</ele>
        <time>2017-05-25T14:30:53Z</time>
      </trkpt>
      <trkpt lat="45.64974" lon="3.81689">
        <ele>1620</ele>
        <time>2017-05-25T14:30:55Z</time>
      </trkpt>
      <trkpt lat="45.64982" lon="3.81682">
        <ele>1619.199951</ele>
        <time>2017-05-25T14:30:57Z</time>
      </trkpt>
      <trkpt lat="45.64992" lon="3.81671">
        <ele>1617.900024</ele>
        <time>2017-05-25T14:31:00Z</time>
      </trkpt>
      <trkpt lat="45.64999" lon="3.81659">
        <ele>1617</ele>
        <time>2017-05-25T14:31:03Z</time>
      </trkpt>
      <trkpt lat="45.65005" lon="3.81645">
        <ele>1616.599976</ele>
        <time>2017-05-25T14:31:06Z</time>
      </trkpt>
      <trkpt lat="45.65012" lon="3.8163">
        <ele>1616.099976</ele>
        <time>2017-05-25T14:31:09Z</time>
      </trkpt>
      <trkpt lat="45.65018" lon="3.81618">
        <ele>1615.699951</ele>
        <time>2017-05-25T14:31:11Z</time>
      </trkpt>
      <trkpt lat="45.65024" lon="3.81605">
        <ele>1614.400024</ele>
        <time>2017-05-25T14:31:13Z</time>
      </trkpt>
      <trkpt lat="45.65029" lon="3.8159">
        <ele>1614.099976</ele>
        <time>2017-05-25T14:31:15Z</time>
      </trkpt>
      <trkpt lat="45.65031" lon="3.81576">
        <ele>1613.800049</ele>
        <time>2017-05-25T14:31:17Z</time>
      </trkpt>
      <trkpt lat="45.65033" lon="3.81563">
        <ele>1613.800049</ele>
        <time>2017-05-25T14:31:19Z</time>
      </trkpt>
      <trkpt lat="45.65035" lon="3.81544">
        <ele>1614.099976</ele>
        <time>2017-05-25T14:31:22Z</time>
      </trkpt>
      <trkpt lat="45.65037" lon="3.81528">
        <ele>1614.699951</ele>
        <time>2017-05-25T14:31:25Z</time>
      </trkpt>
      <trkpt lat="45.65039" lon="3.81511">
        <ele>1615.199951</ele>
        <time>2017-05-25T14:31:28Z</time>
      </trkpt>
      <trkpt lat="45.6504" lon="3.81495">
        <ele>1615.900024</ele>
        <time>2017-05-25T14:31:31Z</time>
      </trkpt>
      <trkpt lat="45.65042" lon="3.8148">
        <ele>1616.800049</ele>
        <time>2017-05-25T14:31:34Z</time>
      </trkpt>
      <trkpt lat="45.65044" lon="3.81464">
        <ele>1617.5</ele>
        <time>2017-05-25T14:31:37Z</time>
      </trkpt>
      <trkpt lat="45.65046" lon="3.81448">
        <ele>1617.900024</ele>
        <time>2017-05-25T14:31:40Z</time>
      </trkpt>
      <trkpt lat="45.65049" lon="3.81433">
        <ele>1618.300049</ele>
        <time>2017-05-25T14:31:43Z</time>
      </trkpt>
      <trkpt lat="45.65052" lon="3.81418">
        <ele>1619.099976</ele>
        <time>2017-05-25T14:31:46Z</time>
      </trkpt>
      <trkpt lat="45.65056" lon="3.81403">
        <ele>1619.599976</ele>
        <time>2017-05-25T14:31:49Z</time>
      </trkpt>
      <trkpt lat="45.65059" lon="3.81388">
        <ele>1620</ele>
        <time>2017-05-25T14:31:52Z</time>
      </trkpt>
      <trkpt lat="45.65063" lon="3.81374">
        <ele>1620.699951</ele>
        <time>2017-05-25T14:31:55Z</time>
      </trkpt>
      <trkpt lat="45.65066" lon="3.81359">
        <ele>1621.400024</ele>
        <time>2017-05-25T14:31:58Z</time>
      </trkpt>
      <trkpt lat="45.65069" lon="3.81346">
        <ele>1622</ele>
        <time>2017-05-25T14:32:01Z</time>
      </trkpt>
      <trkpt lat="45.65072" lon="3.81333">
        <ele>1622.699951</ele>
        <time>2017-05-25T14:32:04Z</time>
      </trkpt>
      <trkpt lat="45.65076" lon="3.8132">
        <ele>1623.300049</ele>
        <time>2017-05-25T14:32:07Z</time>
      </trkpt>
      <trkpt lat="45.6508" lon="3.81307">
        <ele>1624.300049</ele>
        <time>2017-05-25T14:32:10Z</time>
      </trkpt>
      <trkpt lat="45.65085" lon="3.81294">
        <ele>1624.699951</ele>
        <time>2017-05-25T14:32:13Z</time>
      </trkpt>
      <trkpt lat="45.65089" lon="3.8128">
        <ele>1625.199951</ele>
        <time>2017-05-25T14:32:16Z</time>
      </trkpt>
      <trkpt lat="45.65093" lon="3.81268">
        <ele>1625.5</ele>
        <time>2017-05-25T14:32:19Z</time>
      </trkpt>
      <trkpt lat="45.65098" lon="3.81255">
        <ele>1626.099976</ele>
        <time>2017-05-25T14:32:22Z</time>
      </trkpt>
      <trkpt lat="45.65103" lon="3.81242">
        <ele>1626.099976</ele>
        <time>2017-05-25T14:32:25Z</time>
      </trkpt>
      <trkpt lat="45.65107" lon="3.81231">
        <ele>1626.599976</ele>
        <time>2017-05-25T14:32:28Z</time>
      </trkpt>
      <trkpt lat="45.6511" lon="3.81218">
        <ele>1627.300049</ele>
        <time>2017-05-25T14:32:31Z</time>
      </trkpt>
      <trkpt lat="45.65113" lon="3.81206">
        <ele>1627.599976</ele>
        <time>2017-05-25T14:32:34Z</time>
      </trkpt>
      <trkpt lat="45.65116" lon="3.8119">
        <ele>1628.400024</ele>
        <time>2017-05-25T14:32:38Z</time>
      </trkpt>
      <trkpt lat="45.65119" lon="3.81174">
        <ele>1629.099976</ele>
        <time>2017-05-25T14:32:42Z</time>
      </trkpt>
      <trkpt lat="45.65121" lon="3.8116">
        <ele>1630.199951</ele>
        <time>2017-05-25T14:32:46Z</time>
      </trkpt>
      <trkpt lat="45.65124" lon="3.81146">
        <ele>1630.800049</ele>
        <time>2017-05-25T14:32:50Z</time>
      </trkpt>
      <trkpt lat="45.65127" lon="3.81132">
        <ele>1631.400024</ele>
        <time>2017-05-25T14:32:54Z</time>
      </trkpt>
      <trkpt lat="45.6513" lon="3.81119">
        <ele>1632.699951</ele>
        <time>2017-05-25T14:32:58Z</time>
      </trkpt>
      <trkpt lat="45.65132" lon="3.81106">
        <ele>1633.599976</ele>
        <time>2017-05-25T14:33:02Z</time>
      </trkpt>
      <trkpt lat="45.65135" lon="3.81091">
        <ele>1634.800049</ele>
        <time>2017-05-25T14:33:07Z</time>
      </trkpt>
      <trkpt lat="45.65137" lon="3.81075">
        <ele>1636</ele>
        <time>2017-05-25T14:33:12Z</time>
      </trkpt>
      <trkpt lat="45.65139" lon="3.81063">
        <ele>1637</ele>
        <time>2017-05-25T14:33:16Z</time>
      </trkpt>
      <trkpt lat="45.65141" lon="3.81048">
        <ele>1638.099976</ele>
        <time>2017-05-25T14:33:20Z</time>
      </trkpt>
      <trkpt lat="45.65142" lon="3.81032">
        <ele>1639</ele>
        <time>2017-05-25T14:33:24Z</time>
      </trkpt>
      <trkpt lat="45.65142" lon="3.81017">
        <ele>1639.599976</ele>
        <time>2017-05-25T14:33:28Z</time>
      </trkpt>
      <trkpt lat="45.65141" lon="3.81003">
        <ele>1640</ele>
        <time>2017-05-25T14:33:32Z</time>
      </trkpt>
      <trkpt lat="45.65139" lon="3.80988">
        <ele>1640.699951</ele>
        <time>2017-05-25T14:33:37Z</time>
      </trkpt>
      <trkpt lat="45.65138" lon="3.80974">
        <ele>1640.900024</ele>
        <time>2017-05-25T14:33:41Z</time>
      </trkpt>
      <trkpt lat="45.65138" lon="3.80959">
        <ele>1640.400024</ele>
        <time>2017-05-25T14:33:46Z</time>
      </trkpt>
      <trkpt lat="45.65138" lon="3.80945">
        <ele>1641.199951</ele>
        <time>2017-05-25T14:35:25Z</time>
      </trkpt>
      <trkpt lat="45.65136" lon="3.80931">
        <ele>1639.800049</ele>
        <time>2017-05-25T14:35:34Z</time>
      </trkpt>
      <trkpt lat="45.65135" lon="3.80917">
        <ele>1638.5</ele>
        <time>2017-05-25T14:35:42Z</time>
      </trkpt>
      <trkpt lat="45.65135" lon="3.80904">
        <ele>1636.5</ele>
        <time>2017-05-25T14:38:25Z</time>
      </trkpt>
      <trkpt lat="45.65133" lon="3.80888">
        <ele>1636.800049</ele>
        <time>2017-05-25T14:49:22Z</time>
      </trkpt>
      <trkpt lat="45.65131" lon="3.80872">
        <ele>1635.800049</ele>
        <time>2017-05-25T14:49:26Z</time>
      </trkpt>
      <trkpt lat="45.6513" lon="3.80856">
        <ele>1634.599976</ele>
        <time>2017-05-25T14:49:30Z</time>
      </trkpt>
      <trkpt lat="45.6513" lon="3.8084">
        <ele>1633.800049</ele>
        <time>2017-05-25T14:49:33Z</time>
      </trkpt>
      <trkpt lat="45.65132" lon="3.80822">
        <ele>1633.400024</ele>
        <time>2017-05-25T14:49:36Z</time>
      </trkpt>
      <trkpt lat="45.65134" lon="3.80807">
        <ele>1633.099976</ele>
        <time>2017-05-25T14:49:38Z</time>
      </trkpt>
      <trkpt lat="45.65136" lon="3.80791">
        <ele>1632.699951</ele>
        <time>2017-05-25T14:49:40Z</time>
      </trkpt>
      <trkpt lat="45.65138" lon="3.80774">
        <ele>1631.900024</ele>
        <time>2017-05-25T14:49:42Z</time>
      </trkpt>
      <trkpt lat="45.65139" lon="3.80756">
        <ele>1631.099976</ele>
        <time>2017-05-25T14:49:44Z</time>
      </trkpt>
      <trkpt lat="45.6514" lon="3.80735">
        <ele>1630.199951</ele>
        <time>2017-05-25T14:49:46Z</time>
      </trkpt>
      <trkpt lat="45.65143" lon="3.80715">
        <ele>1629.300049</ele>
        <time>2017-05-25T14:49:48Z</time>
      </trkpt>
      <trkpt lat="45.65149" lon="3.80698">
        <ele>1628.300049</ele>
        <time>2017-05-25T14:49:50Z</time>
      </trkpt>
      <trkpt lat="45.65157" lon="3.80688">
        <ele>1627.699951</ele>
        <time>2017-05-25T14:49:52Z</time>
      </trkpt>
      <trkpt lat="45.65166" lon="3.80676">
        <ele>1627.699951</ele>
        <time>2017-05-25T14:49:55Z</time>
      </trkpt>
      <trkpt lat="45.65174" lon="3.80666">
        <ele>1627.900024</ele>
        <time>2017-05-25T14:49:58Z</time>
      </trkpt>
      <trkpt lat="45.65182" lon="3.80654">
        <ele>1628.199951</ele>
        <time>2017-05-25T14:50:01Z</time>
      </trkpt>
      <trkpt lat="45.65191" lon="3.80643">
        <ele>1628.599976</ele>
        <time>2017-05-25T14:50:04Z</time>
      </trkpt>
      <trkpt lat="45.65199" lon="3.8063">
        <ele>1628.599976</ele>
        <time>2017-05-25T14:50:07Z</time>
      </trkpt>
      <trkpt lat="45.65208" lon="3.80617">
        <ele>1628.5</ele>
        <time>2017-05-25T14:50:10Z</time>
      </trkpt>
      <trkpt lat="45.65215" lon="3.80609">
        <ele>1628.400024</ele>
        <time>2017-05-25T14:50:12Z</time>
      </trkpt>
      <trkpt lat="45.65223" lon="3.80603">
        <ele>1628.400024</ele>
        <time>2017-05-25T14:50:14Z</time>
      </trkpt>
      <trkpt lat="45.65234" lon="3.80597">
        <ele>1628.699951</ele>
        <time>2017-05-25T14:50:17Z</time>
      </trkpt>
      <trkpt lat="45.65244" lon="3.80594">
        <ele>1629.300049</ele>
        <time>2017-05-25T14:50:21Z</time>
      </trkpt>
      <trkpt lat="45.65255" lon="3.80591">
        <ele>1630.199951</ele>
        <time>2017-05-25T14:50:26Z</time>
      </trkpt>
      <trkpt lat="45.65265" lon="3.80588">
        <ele>1631.099976</ele>
        <time>2017-05-25T14:50:30Z</time>
      </trkpt>
      <trkpt lat="45.65274" lon="3.80586">
        <ele>1631.599976</ele>
        <time>2017-05-25T14:50:34Z</time>
      </trkpt>
      <trkpt lat="45.65284" lon="3.80583">
        <ele>1632.400024</ele>
        <time>2017-05-25T14:50:38Z</time>
      </trkpt>
      <trkpt lat="45.65295" lon="3.80579">
        <ele>1632.900024</ele>
        <time>2017-05-25T14:50:42Z</time>
      </trkpt>
      <trkpt lat="45.65305" lon="3.80575">
        <ele>1633.300049</ele>
        <time>2017-05-25T14:50:46Z</time>
      </trkpt>
      <trkpt lat="45.65315" lon="3.80573">
        <ele>1633.800049</ele>
        <time>2017-05-25T14:50:50Z</time>
      </trkpt>
      <trkpt lat="45.65326" lon="3.80567">
        <ele>1633.800049</ele>
        <time>2017-05-25T14:50:54Z</time>
      </trkpt>
      <trkpt lat="45.65336" lon="3.80565">
        <ele>1634</ele>
        <time>2017-05-25T14:50:57Z</time>
      </trkpt>
      <trkpt lat="45.65345" lon="3.80562">
        <ele>1634</ele>
        <time>2017-05-25T14:51:00Z</time>
      </trkpt>
      <trkpt lat="45.65354" lon="3.80559">
        <ele>1634.199951</ele>
        <time>2017-05-25T14:51:03Z</time>
      </trkpt>
      <trkpt lat="45.65364" lon="3.80556">
        <ele>1634.099976</ele>
        <time>2017-05-25T14:51:06Z</time>
      </trkpt>
      <trkpt lat="45.65375" lon="3.80554">
        <ele>1634</ele>
        <time>2017-05-25T14:51:09Z</time>
      </trkpt>
      <trkpt lat="45.65386" lon="3.80551">
        <ele>1634</ele>
        <time>2017-05-25T14:51:12Z</time>
      </trkpt>
      <trkpt lat="45.65396" lon="3.80549">
        <ele>1634</ele>
        <time>2017-05-25T14:51:15Z</time>
      </trkpt>
      <trkpt lat="45.65407" lon="3.80548">
        <ele>1634.300049</ele>
        <time>2017-05-25T14:51:18Z</time>
      </trkpt>
      <trkpt lat="45.65418" lon="3.80547">
        <ele>1634.099976</ele>
        <time>2017-05-25T14:51:21Z</time>
      </trkpt>
      <trkpt lat="45.6543" lon="3.80545">
        <ele>1634.099976</ele>
        <time>2017-05-25T14:51:24Z</time>
      </trkpt>
      <trkpt lat="45.65441" lon="3.80542">
        <ele>1634</ele>
        <time>2017-05-25T14:51:27Z</time>
      </trkpt>
      <trkpt lat="45.6545" lon="3.80536">
        <ele>1634</ele>
        <time>2017-05-25T14:51:29Z</time>
      </trkpt>
      <trkpt lat="45.6546" lon="3.80531">
        <ele>1634.099976</ele>
        <time>2017-05-25T14:51:31Z</time>
      </trkpt>
      <trkpt lat="45.65471" lon="3.80526">
        <ele>1634.099976</ele>
        <time>2017-05-25T14:51:33Z</time>
      </trkpt>
      <trkpt lat="45.65481" lon="3.80524">
        <ele>1633.900024</ele>
        <time>2017-05-25T14:51:35Z</time>
      </trkpt>
      <trkpt lat="45.65491" lon="3.80523">
        <ele>1633.699951</ele>
        <time>2017-05-25T14:51:37Z</time>
      </trkpt>
      <trkpt lat="45.655" lon="3.80522">
        <ele>1633.199951</ele>
        <time>2017-05-25T14:51:39Z</time>
      </trkpt>
      <trkpt lat="45.65514" lon="3.80521">
        <ele>1632.400024</ele>
        <time>2017-05-25T14:51:42Z</time>
      </trkpt>
      <trkpt lat="45.65528" lon="3.80519">
        <ele>1632</ele>
        <time>2017-05-25T14:51:45Z</time>
      </trkpt>
      <trkpt lat="45.65538" lon="3.80519">
        <ele>1631.400024</ele>
        <time>2017-05-25T14:51:47Z</time>
      </trkpt>
      <trkpt lat="45.65549" lon="3.80528">
        <ele>1631.300049</ele>
        <time>2017-05-25T14:51:50Z</time>
      </trkpt>
      <trkpt lat="45.65558" lon="3.8054">
        <ele>1631</ele>
        <time>2017-05-25T14:51:53Z</time>
      </trkpt>
      <trkpt lat="45.65565" lon="3.8055">
        <ele>1630.5</ele>
        <time>2017-05-25T14:51:56Z</time>
      </trkpt>
      <trkpt lat="45.65573" lon="3.80557">
        <ele>1628.699951</ele>
        <time>2017-05-25T14:54:12Z</time>
      </trkpt>
      <trkpt lat="45.65583" lon="3.80556">
        <ele>1628.5</ele>
        <time>2017-05-25T14:54:16Z</time>
      </trkpt>
      <trkpt lat="45.65594" lon="3.80553">
        <ele>1628.199951</ele>
        <time>2017-05-25T14:54:19Z</time>
      </trkpt>
      <trkpt lat="45.65606" lon="3.8055">
        <ele>1627.800049</ele>
        <time>2017-05-25T14:54:22Z</time>
      </trkpt>
      <trkpt lat="45.65616" lon="3.80547">
        <ele>1627.400024</ele>
        <time>2017-05-25T14:54:24Z</time>
      </trkpt>
      <trkpt lat="45.65626" lon="3.80543">
        <ele>1626.599976</ele>
        <time>2017-05-25T14:54:26Z</time>
      </trkpt>
      <trkpt lat="45.65638" lon="3.8054">
        <ele>1625.900024</ele>
        <time>2017-05-25T14:54:28Z</time>
      </trkpt>
      <trkpt lat="45.6565" lon="3.80536">
        <ele>1625.400024</ele>
        <time>2017-05-25T14:54:30Z</time>
      </trkpt>
      <trkpt lat="45.65663" lon="3.80532">
        <ele>1624.599976</ele>
        <time>2017-05-25T14:54:32Z</time>
      </trkpt>
      <trkpt lat="45.65677" lon="3.80527">
        <ele>1624.300049</ele>
        <time>2017-05-25T14:54:34Z</time>
      </trkpt>
      <trkpt lat="45.6569" lon="3.80517">
        <ele>1623.5</ele>
        <time>2017-05-25T14:54:36Z</time>
      </trkpt>
      <trkpt lat="45.657" lon="3.80506">
        <ele>1622.800049</ele>
        <time>2017-05-25T14:54:38Z</time>
      </trkpt>
      <trkpt lat="45.65712" lon="3.80493">
        <ele>1621.900024</ele>
        <time>2017-05-25T14:54:40Z</time>
      </trkpt>
      <trkpt lat="45.65722" lon="3.80479">
        <ele>1621.099976</ele>
        <time>2017-05-25T14:54:42Z</time>
      </trkpt>
      <trkpt lat="45.65733" lon="3.80465">
        <ele>1620.5</ele>
        <time>2017-05-25T14:54:44Z</time>
      </trkpt>
      <trkpt lat="45.6574" lon="3.80456">
        <ele>1619.599976</ele>
        <time>2017-05-25T14:54:46Z</time>
      </trkpt>
      <trkpt lat="45.6575" lon="3.80458">
        <ele>1618</ele>
        <time>2017-05-25T14:54:51Z</time>
      </trkpt>
      <trkpt lat="45.65755" lon="3.80469">
        <ele>1618</ele>
        <time>2017-05-25T14:54:55Z</time>
      </trkpt>
      <trkpt lat="45.65763" lon="3.80479">
        <ele>1618.5</ele>
        <time>2017-05-25T14:55:00Z</time>
      </trkpt>
      <trkpt lat="45.65771" lon="3.80474">
        <ele>1618.400024</ele>
        <time>2017-05-25T14:55:04Z</time>
      </trkpt>
      <trkpt lat="45.6578" lon="3.80465">
        <ele>1618.5</ele>
        <time>2017-05-25T14:55:08Z</time>
      </trkpt>
      <trkpt lat="45.65787" lon="3.80458">
        <ele>1618.400024</ele>
        <time>2017-05-25T14:55:11Z</time>
      </trkpt>
      <trkpt lat="45.65795" lon="3.8045">
        <ele>1618.300049</ele>
        <time>2017-05-25T14:55:14Z</time>
      </trkpt>
      <trkpt lat="45.65804" lon="3.80442">
        <ele>1617.800049</ele>
        <time>2017-05-25T14:55:17Z</time>
      </trkpt>
      <trkpt lat="45.65812" lon="3.80435">
        <ele>1617.400024</ele>
        <time>2017-05-25T14:55:20Z</time>
      </trkpt>
      <trkpt lat="45.65821" lon="3.80427">
        <ele>1616.900024</ele>
        <time>2017-05-25T14:55:23Z</time>
      </trkpt>
      <trkpt lat="45.6583" lon="3.8042">
        <ele>1616.699951</ele>
        <time>2017-05-25T14:55:26Z</time>
      </trkpt>
      <trkpt lat="45.65839" lon="3.8041">
        <ele>1616.099976</ele>
        <time>2017-05-25T14:55:29Z</time>
      </trkpt>
      <trkpt lat="45.65847" lon="3.80403">
        <ele>1615.699951</ele>
        <time>2017-05-25T14:55:32Z</time>
      </trkpt>
      <trkpt lat="45.65855" lon="3.80395">
        <ele>1615</ele>
        <time>2017-05-25T14:55:35Z</time>
      </trkpt>
      <trkpt lat="45.65865" lon="3.80386">
        <ele>1614.5</ele>
        <time>2017-05-25T14:55:38Z</time>
      </trkpt>
      <trkpt lat="45.65873" lon="3.80378">
        <ele>1614.300049</ele>
        <time>2017-05-25T14:55:41Z</time>
      </trkpt>
      <trkpt lat="45.65881" lon="3.8037">
        <ele>1613.800049</ele>
        <time>2017-05-25T14:55:44Z</time>
      </trkpt>
      <trkpt lat="45.65889" lon="3.80363">
        <ele>1613.5</ele>
        <time>2017-05-25T14:55:47Z</time>
      </trkpt>
      <trkpt lat="45.65897" lon="3.80355">
        <ele>1613.599976</ele>
        <time>2017-05-25T14:55:50Z</time>
      </trkpt>
      <trkpt lat="45.65905" lon="3.80346">
        <ele>1613.5</ele>
        <time>2017-05-25T14:55:54Z</time>
      </trkpt>
      <trkpt lat="45.65912" lon="3.80336">
        <ele>1613.300049</ele>
        <time>2017-05-25T14:55:58Z</time>
      </trkpt>
      <trkpt lat="45.6592" lon="3.80328">
        <ele>1612.5</ele>
        <time>2017-05-25T14:56:11Z</time>
      </trkpt>
      <trkpt lat="45.65929" lon="3.80319">
        <ele>1612.400024</ele>
        <time>2017-05-25T14:56:15Z</time>
      </trkpt>
      <trkpt lat="45.65937" lon="3.80311">
        <ele>1612.400024</ele>
        <time>2017-05-25T14:56:19Z</time>
      </trkpt>
      <trkpt lat="45.65945" lon="3.80301">
        <ele>1612.5</ele>
        <time>2017-05-25T14:56:23Z</time>
      </trkpt>
      <trkpt lat="45.65954" lon="3.80291">
        <ele>1612.699951</ele>
        <time>2017-05-25T14:56:27Z</time>
      </trkpt>
      <trkpt lat="45.65963" lon="3.80282">
        <ele>1612.599976</ele>
        <time>2017-05-25T14:56:31Z</time>
      </trkpt>
      <trkpt lat="45.6597" lon="3.80274">
        <ele>1612.599976</ele>
        <time>2017-05-25T14:56:34Z</time>
      </trkpt>
      <trkpt lat="45.65979" lon="3.80264">
        <ele>1612.599976</ele>
        <time>2017-05-25T14:56:37Z</time>
      </trkpt>
      <trkpt lat="45.65988" lon="3.80257">
        <ele>1612.099976</ele>
        <time>2017-05-25T14:56:40Z</time>
      </trkpt>
      <trkpt lat="45.65996" lon="3.80249">
        <ele>1611.800049</ele>
        <time>2017-05-25T14:56:43Z</time>
      </trkpt>
      <trkpt lat="45.66003" lon="3.8024">
        <ele>1611.5</ele>
        <time>2017-05-25T14:56:46Z</time>
      </trkpt>
      <trkpt lat="45.66011" lon="3.80232">
        <ele>1611.800049</ele>
        <time>2017-05-25T14:56:49Z</time>
      </trkpt>
      <trkpt lat="45.6602" lon="3.80224">
        <ele>1611.800049</ele>
        <time>2017-05-25T14:56:53Z</time>
      </trkpt>
      <trkpt lat="45.66029" lon="3.80216">
        <ele>1612.199951</ele>
        <time>2017-05-25T14:56:57Z</time>
      </trkpt>
      <trkpt lat="45.66038" lon="3.80211">
        <ele>1611.800049</ele>
        <time>2017-05-25T14:57:01Z</time>
      </trkpt>
      <trkpt lat="45.66046" lon="3.80204">
        <ele>1611.599976</ele>
        <time>2017-05-25T14:57:05Z</time>
      </trkpt>
      <trkpt lat="45.66053" lon="3.80197">
        <ele>1611.800049</ele>
        <time>2017-05-25T14:57:08Z</time>
      </trkpt>
      <trkpt lat="45.6606" lon="3.80187">
        <ele>1611.5</ele>
        <time>2017-05-25T14:57:11Z</time>
      </trkpt>
      <trkpt lat="45.66067" lon="3.80178">
        <ele>1611.199951</ele>
        <time>2017-05-25T14:57:14Z</time>
      </trkpt>
      <trkpt lat="45.66073" lon="3.80164">
        <ele>1611.900024</ele>
        <time>2017-05-25T14:57:18Z</time>
      </trkpt>
      <trkpt lat="45.66078" lon="3.80152">
        <ele>1611.599976</ele>
        <time>2017-05-25T14:57:22Z</time>
      </trkpt>
      <trkpt lat="45.66083" lon="3.80139">
        <ele>1611.099976</ele>
        <time>2017-05-25T14:57:27Z</time>
      </trkpt>
      <trkpt lat="45.66088" lon="3.80124">
        <ele>1610.400024</ele>
        <time>2017-05-25T14:57:30Z</time>
      </trkpt>
      <trkpt lat="45.66089" lon="3.80109">
        <ele>1609.400024</ele>
        <time>2017-05-25T14:57:33Z</time>
      </trkpt>
      <trkpt lat="45.6609" lon="3.80094">
        <ele>1607.900024</ele>
        <time>2017-05-25T14:57:36Z</time>
      </trkpt>
      <trkpt lat="45.6609" lon="3.80076">
        <ele>1606.300049</ele>
        <time>2017-05-25T14:57:39Z</time>
      </trkpt>
      <trkpt lat="45.66086" lon="3.80059">
        <ele>1604.300049</ele>
        <time>2017-05-25T14:57:42Z</time>
      </trkpt>
      <trkpt lat="45.66083" lon="3.80044">
        <ele>1602</ele>
        <time>2017-05-25T14:57:45Z</time>
      </trkpt>
      <trkpt lat="45.66083" lon="3.80028">
        <ele>1600.199951</ele>
        <time>2017-05-25T14:57:48Z</time>
      </trkpt>
      <trkpt lat="45.66088" lon="3.80013">
        <ele>1598.199951</ele>
        <time>2017-05-25T14:57:52Z</time>
      </trkpt>
      <trkpt lat="45.66094" lon="3.8">
        <ele>1596.699951</ele>
        <time>2017-05-25T14:57:56Z</time>
      </trkpt>
      <trkpt lat="45.66099" lon="3.79985">
        <ele>1594.699951</ele>
        <time>2017-05-25T14:58:01Z</time>
      </trkpt>
      <trkpt lat="45.66104" lon="3.79974">
        <ele>1592.599976</ele>
        <time>2017-05-25T14:58:05Z</time>
      </trkpt>
      <trkpt lat="45.66108" lon="3.79962">
        <ele>1590.400024</ele>
        <time>2017-05-25T14:58:09Z</time>
      </trkpt>
      <trkpt lat="45.66114" lon="3.79951">
        <ele>1588.400024</ele>
        <time>2017-05-25T14:58:14Z</time>
      </trkpt>
      <trkpt lat="45.66125" lon="3.79947">
        <ele>1586.900024</ele>
        <time>2017-05-25T14:58:20Z</time>
      </trkpt>
      <trkpt lat="45.66134" lon="3.79945">
        <ele>1585.5</ele>
        <time>2017-05-25T14:58:26Z</time>
      </trkpt>
      <trkpt lat="45.66144" lon="3.79941">
        <ele>1583.599976</ele>
        <time>2017-05-25T14:59:06Z</time>
      </trkpt>
      <trkpt lat="45.66155" lon="3.79939">
        <ele>1582.800049</ele>
        <time>2017-05-25T14:59:11Z</time>
      </trkpt>
      <trkpt lat="45.66165" lon="3.79934">
        <ele>1582.300049</ele>
        <time>2017-05-25T14:59:16Z</time>
      </trkpt>
      <trkpt lat="45.66174" lon="3.79931">
        <ele>1582</ele>
        <time>2017-05-25T14:59:19Z</time>
      </trkpt>
      <trkpt lat="45.66184" lon="3.79929">
        <ele>1581.800049</ele>
        <time>2017-05-25T14:59:22Z</time>
      </trkpt>
      <trkpt lat="45.66194" lon="3.79926">
        <ele>1581.199951</ele>
        <time>2017-05-25T14:59:25Z</time>
      </trkpt>
      <trkpt lat="45.66204" lon="3.79921">
        <ele>1580.800049</ele>
        <time>2017-05-25T14:59:28Z</time>
      </trkpt>
      <trkpt lat="45.66215" lon="3.79916">
        <ele>1580.099976</ele>
        <time>2017-05-25T14:59:32Z</time>
      </trkpt>
      <trkpt lat="45.66226" lon="3.79915">
        <ele>1579</ele>
        <time>2017-05-25T14:59:36Z</time>
      </trkpt>
      <trkpt lat="45.66235" lon="3.79911">
        <ele>1577.599976</ele>
        <time>2017-05-25T14:59:40Z</time>
      </trkpt>
      <trkpt lat="45.66246" lon="3.79907">
        <ele>1576.099976</ele>
        <time>2017-05-25T14:59:44Z</time>
      </trkpt>
      <trkpt lat="45.66255" lon="3.79904">
        <ele>1575.099976</ele>
        <time>2017-05-25T14:59:48Z</time>
      </trkpt>
      <trkpt lat="45.66265" lon="3.79901">
        <ele>1573.300049</ele>
        <time>2017-05-25T14:59:53Z</time>
      </trkpt>
      <trkpt lat="45.66274" lon="3.79896">
        <ele>1570.900024</ele>
        <time>2017-05-25T14:59:59Z</time>
      </trkpt>
      <trkpt lat="45.66283" lon="3.79892">
        <ele>1568.400024</ele>
        <time>2017-05-25T15:00:09Z</time>
      </trkpt>
      <trkpt lat="45.66293" lon="3.79891">
        <ele>1567.900024</ele>
        <time>2017-05-25T15:00:14Z</time>
      </trkpt>
      <trkpt lat="45.66304" lon="3.7989">
        <ele>1566.900024</ele>
        <time>2017-05-25T15:00:18Z</time>
      </trkpt>
      <trkpt lat="45.66313" lon="3.79886">
        <ele>1565.800049</ele>
        <time>2017-05-25T15:00:22Z</time>
      </trkpt>
      <trkpt lat="45.66324" lon="3.79883">
        <ele>1565.199951</ele>
        <time>2017-05-25T15:00:26Z</time>
      </trkpt>
      <trkpt lat="45.66334" lon="3.7988">
        <ele>1564.199951</ele>
        <time>2017-05-25T15:00:31Z</time>
      </trkpt>
      <trkpt lat="45.66343" lon="3.79877">
        <ele>1562.400024</ele>
        <time>2017-05-25T15:00:46Z</time>
      </trkpt>
      <trkpt lat="45.66353" lon="3.79876">
        <ele>1561.599976</ele>
        <time>2017-05-25T15:00:50Z</time>
      </trkpt>
      <trkpt lat="45.66364" lon="3.79875">
        <ele>1561.300049</ele>
        <time>2017-05-25T15:00:54Z</time>
      </trkpt>
      <trkpt lat="45.66375" lon="3.79872">
        <ele>1560.400024</ele>
        <time>2017-05-25T15:00:57Z</time>
      </trkpt>
      <trkpt lat="45.66384" lon="3.79869">
        <ele>1560</ele>
        <time>2017-05-25T15:00:59Z</time>
      </trkpt>
      <trkpt lat="45.66394" lon="3.79866">
        <ele>1559.400024</ele>
        <time>2017-05-25T15:01:01Z</time>
      </trkpt>
      <trkpt lat="45.66403" lon="3.79863">
        <ele>1558.699951</ele>
        <time>2017-05-25T15:01:03Z</time>
      </trkpt>
      <trkpt lat="45.66413" lon="3.79861">
        <ele>1557.699951</ele>
        <time>2017-05-25T15:01:06Z</time>
      </trkpt>
      <trkpt lat="45.66425" lon="3.79858">
        <ele>1556.800049</ele>
        <time>2017-05-25T15:01:09Z</time>
      </trkpt>
      <trkpt lat="45.66438" lon="3.79852">
        <ele>1555.699951</ele>
        <time>2017-05-25T15:01:12Z</time>
      </trkpt>
      <trkpt lat="45.66447" lon="3.79848">
        <ele>1554.099976</ele>
        <time>2017-05-25T15:01:15Z</time>
      </trkpt>
      <trkpt lat="45.66456" lon="3.79845">
        <ele>1553</ele>
        <time>2017-05-25T15:01:18Z</time>
      </trkpt>
      <trkpt lat="45.66468" lon="3.79839">
        <ele>1551.900024</ele>
        <time>2017-05-25T15:01:21Z</time>
      </trkpt>
      <trkpt lat="45.66477" lon="3.79835">
        <ele>1551.5</ele>
        <time>2017-05-25T15:01:23Z</time>
      </trkpt>
      <trkpt lat="45.66487" lon="3.79832">
        <ele>1550.699951</ele>
        <time>2017-05-25T15:01:25Z</time>
      </trkpt>
      <trkpt lat="45.66496" lon="3.79828">
        <ele>1549.800049</ele>
        <time>2017-05-25T15:01:27Z</time>
      </trkpt>
      <trkpt lat="45.66505" lon="3.79825">
        <ele>1548.800049</ele>
        <time>2017-05-25T15:01:29Z</time>
      </trkpt>
      <trkpt lat="45.66515" lon="3.79822">
        <ele>1547.900024</ele>
        <time>2017-05-25T15:01:31Z</time>
      </trkpt>
      <trkpt lat="45.66525" lon="3.79817">
        <ele>1546.599976</ele>
        <time>2017-05-25T15:01:33Z</time>
      </trkpt>
      <trkpt lat="45.66537" lon="3.79812">
        <ele>1545.300049</ele>
        <time>2017-05-25T15:01:36Z</time>
      </trkpt>
      <trkpt lat="45.66549" lon="3.79809">
        <ele>1543.599976</ele>
        <time>2017-05-25T15:01:39Z</time>
      </trkpt>
      <trkpt lat="45.66558" lon="3.79806">
        <ele>1542.599976</ele>
        <time>2017-05-25T15:01:41Z</time>
      </trkpt>
      <trkpt lat="45.66568" lon="3.79801">
        <ele>1541.300049</ele>
        <time>2017-05-25T15:01:44Z</time>
      </trkpt>
      <trkpt lat="45.6658" lon="3.79799">
        <ele>1540.099976</ele>
        <time>2017-05-25T15:01:47Z</time>
      </trkpt>
      <trkpt lat="45.66591" lon="3.79796">
        <ele>1538.699951</ele>
        <time>2017-05-25T15:01:49Z</time>
      </trkpt>
      <trkpt lat="45.66602" lon="3.79792">
        <ele>1537.800049</ele>
        <time>2017-05-25T15:01:51Z</time>
      </trkpt>
      <trkpt lat="45.66613" lon="3.79789">
        <ele>1537.099976</ele>
        <time>2017-05-25T15:01:53Z</time>
      </trkpt>
      <trkpt lat="45.66624" lon="3.79786">
        <ele>1536.400024</ele>
        <time>2017-05-25T15:01:55Z</time>
      </trkpt>
      <trkpt lat="45.66636" lon="3.79782">
        <ele>1535.699951</ele>
        <time>2017-05-25T15:01:57Z</time>
      </trkpt>
      <trkpt lat="45.66647" lon="3.79778">
        <ele>1534.900024</ele>
        <time>2017-05-25T15:01:59Z</time>
      </trkpt>
      <trkpt lat="45.66658" lon="3.79774">
        <ele>1534.300049</ele>
        <time>2017-05-25T15:02:01Z</time>
      </trkpt>
      <trkpt lat="45.66669" lon="3.79771">
        <ele>1533.400024</ele>
        <time>2017-05-25T15:02:03Z</time>
      </trkpt>
      <trkpt lat="45.66681" lon="3.79768">
        <ele>1532.5</ele>
        <time>2017-05-25T15:02:05Z</time>
      </trkpt>
      <trkpt lat="45.66693" lon="3.79764">
        <ele>1531.699951</ele>
        <time>2017-05-25T15:02:07Z</time>
      </trkpt>
      <trkpt lat="45.66705" lon="3.7976">
        <ele>1530.900024</ele>
        <time>2017-05-25T15:02:09Z</time>
      </trkpt>
      <trkpt lat="45.66717" lon="3.79755">
        <ele>1530.199951</ele>
        <time>2017-05-25T15:02:11Z</time>
      </trkpt>
      <trkpt lat="45.6673" lon="3.79752">
        <ele>1529.5</ele>
        <time>2017-05-25T15:02:13Z</time>
      </trkpt>
      <trkpt lat="45.66743" lon="3.79748">
        <ele>1528.800049</ele>
        <time>2017-05-25T15:02:15Z</time>
      </trkpt>
      <trkpt lat="45.66757" lon="3.79743">
        <ele>1527.400024</ele>
        <time>2017-05-25T15:02:17Z</time>
      </trkpt>
      <trkpt lat="45.6677" lon="3.79739">
        <ele>1526.199951</ele>
        <time>2017-05-25T15:02:19Z</time>
      </trkpt>
      <trkpt lat="45.66783" lon="3.79734">
        <ele>1525</ele>
        <time>2017-05-25T15:02:21Z</time>
      </trkpt>
      <trkpt lat="45.66797" lon="3.7973">
        <ele>1524.300049</ele>
        <time>2017-05-25T15:02:23Z</time>
      </trkpt>
      <trkpt lat="45.66809" lon="3.79726">
        <ele>1523.900024</ele>
        <time>2017-05-25T15:02:25Z</time>
      </trkpt>
      <trkpt lat="45.66821" lon="3.79724">
        <ele>1522.900024</ele>
        <time>2017-05-25T15:02:27Z</time>
      </trkpt>
      <trkpt lat="45.66831" lon="3.79722">
        <ele>1522.199951</ele>
        <time>2017-05-25T15:02:29Z</time>
      </trkpt>
      <trkpt lat="45.66834" lon="3.79707">
        <ele>1520.900024</ele>
        <time>2017-05-25T15:02:33Z</time>
      </trkpt>
      <trkpt lat="45.66834" lon="3.79693">
        <ele>1520</ele>
        <time>2017-05-25T15:02:36Z</time>
      </trkpt>
      <trkpt lat="45.66834" lon="3.7968">
        <ele>1519.300049</ele>
        <time>2017-05-25T15:02:40Z</time>
      </trkpt>
      <trkpt lat="45.6684" lon="3.79689">
        <ele>1518.800049</ele>
        <time>2017-05-25T15:05:20Z</time>
      </trkpt>
      <trkpt lat="45.66842" lon="3.79702">
        <ele>1519.5</ele>
        <time>2017-05-25T15:05:26Z</time>
      </trkpt>
      <trkpt lat="45.66844" lon="3.79715">
        <ele>1520.199951</ele>
        <time>2017-05-25T15:05:32Z</time>
      </trkpt>
      <trkpt lat="45.66854" lon="3.79714">
        <ele>1520.800049</ele>
        <time>2017-05-25T15:05:40Z</time>
      </trkpt>
      <trkpt lat="45.66863" lon="3.79711">
        <ele>1521.199951</ele>
        <time>2017-05-25T15:05:48Z</time>
      </trkpt>
      <trkpt lat="45.66872" lon="3.79708">
        <ele>1521.400024</ele>
        <time>2017-05-25T15:05:54Z</time>
      </trkpt>
      <trkpt lat="45.66881" lon="3.79705">
        <ele>1521.300049</ele>
        <time>2017-05-25T15:06:00Z</time>
      </trkpt>
      <trkpt lat="45.66891" lon="3.79702">
        <ele>1521.800049</ele>
        <time>2017-05-25T15:06:08Z</time>
      </trkpt>
      <trkpt lat="45.669" lon="3.797">
        <ele>1522.900024</ele>
        <time>2017-05-25T15:06:15Z</time>
      </trkpt>
      <trkpt lat="45.6691" lon="3.79697">
        <ele>1523.300049</ele>
        <time>2017-05-25T15:06:23Z</time>
      </trkpt>
      <trkpt lat="45.66919" lon="3.79698">
        <ele>1524.300049</ele>
        <time>2017-05-25T15:06:32Z</time>
      </trkpt>
      <trkpt lat="45.66928" lon="3.79704">
        <ele>1525.599976</ele>
        <time>2017-05-25T15:06:45Z</time>
      </trkpt>
      <trkpt lat="45.66936" lon="3.79711">
        <ele>1527.099976</ele>
        <time>2017-05-25T15:06:56Z</time>
      </trkpt>
      <trkpt lat="45.66942" lon="3.7972">
        <ele>1529.599976</ele>
        <time>2017-05-25T15:07:10Z</time>
      </trkpt>
      <trkpt lat="45.6695" lon="3.79728">
        <ele>1531.400024</ele>
        <time>2017-05-25T15:07:25Z</time>
      </trkpt>
      <trkpt lat="45.66959" lon="3.79735">
        <ele>1533.5</ele>
        <time>2017-05-25T15:07:39Z</time>
      </trkpt>
      <trkpt lat="45.66968" lon="3.79737">
        <ele>1536.199951</ele>
        <time>2017-05-25T15:07:57Z</time>
      </trkpt>
      <trkpt lat="45.66977" lon="3.79742">
        <ele>1537.900024</ele>
        <time>2017-05-25T15:08:15Z</time>
      </trkpt>
      <trkpt lat="45.66985" lon="3.79747">
        <ele>1539.900024</ele>
        <time>2017-05-25T15:08:32Z</time>
      </trkpt>
      <trkpt lat="45.66994" lon="3.79752">
        <ele>1543.300049</ele>
        <time>2017-05-25T15:08:53Z</time>
      </trkpt>
      <trkpt lat="45.67002" lon="3.79758">
        <ele>1545.599976</ele>
        <time>2017-05-25T15:09:10Z</time>
      </trkpt>
      <trkpt lat="45.67011" lon="3.79765">
        <ele>1548</ele>
        <time>2017-05-25T15:09:24Z</time>
      </trkpt>
      <trkpt lat="45.67019" lon="3.79771">
        <ele>1550.699951</ele>
        <time>2017-05-25T15:09:42Z</time>
      </trkpt>
      <trkpt lat="45.67027" lon="3.79777">
        <ele>1552.599976</ele>
        <time>2017-05-25T15:10:00Z</time>
      </trkpt>
      <trkpt lat="45.67033" lon="3.79787">
        <ele>1555.099976</ele>
        <time>2017-05-25T15:10:15Z</time>
      </trkpt>
      <trkpt lat="45.67039" lon="3.79798">
        <ele>1558.300049</ele>
        <time>2017-05-25T15:10:33Z</time>
      </trkpt>
      <trkpt lat="45.67048" lon="3.79796">
        <ele>1560.900024</ele>
        <time>2017-05-25T15:10:49Z</time>
      </trkpt>
      <trkpt lat="45.67057" lon="3.79792">
        <ele>1562.300049</ele>
        <time>2017-05-25T15:11:00Z</time>
      </trkpt>
      <trkpt lat="45.67067" lon="3.7979">
        <ele>1563</ele>
        <time>2017-05-25T15:11:11Z</time>
      </trkpt>
      <trkpt lat="45.67076" lon="3.79789">
        <ele>1564.599976</ele>
        <time>2017-05-25T15:11:22Z</time>
      </trkpt>
      <trkpt lat="45.67086" lon="3.79789">
        <ele>1566.5</ele>
        <time>2017-05-25T15:11:36Z</time>
      </trkpt>
      <trkpt lat="45.67095" lon="3.79788">
        <ele>1567.699951</ele>
        <time>2017-05-25T15:14:37Z</time>
      </trkpt>
      <trkpt lat="45.67105" lon="3.79786">
        <ele>1569.400024</ele>
        <time>2017-05-25T15:14:45Z</time>
      </trkpt>
      <trkpt lat="45.67115" lon="3.79786">
        <ele>1570.400024</ele>
        <time>2017-05-25T15:14:52Z</time>
      </trkpt>
      <trkpt lat="45.67124" lon="3.79788">
        <ele>1571</ele>
        <time>2017-05-25T15:15:03Z</time>
      </trkpt>
      <trkpt lat="45.67134" lon="3.79789">
        <ele>1571.599976</ele>
        <time>2017-05-25T15:15:08Z</time>
      </trkpt>
      <trkpt lat="45.67143" lon="3.7979">
        <ele>1571.300049</ele>
        <time>2017-05-25T15:15:13Z</time>
      </trkpt>
      <trkpt lat="45.67152" lon="3.79794">
        <ele>1570.800049</ele>
        <time>2017-05-25T15:15:21Z</time>
      </trkpt>
      <trkpt lat="45.67162" lon="3.79798">
        <ele>1570.099976</ele>
        <time>2017-05-25T15:15:28Z</time>
      </trkpt>
      <trkpt lat="45.67171" lon="3.79801">
        <ele>1568.599976</ele>
        <time>2017-05-25T15:15:43Z</time>
      </trkpt>
      <trkpt lat="45.67181" lon="3.79802">
        <ele>1567.900024</ele>
        <time>2017-05-25T15:15:47Z</time>
      </trkpt>
      <trkpt lat="45.6719" lon="3.798">
        <ele>1567.099976</ele>
        <time>2017-05-25T15:15:50Z</time>
      </trkpt>
      <trkpt lat="45.67199" lon="3.79794">
        <ele>1566.199951</ele>
        <time>2017-05-25T15:15:53Z</time>
      </trkpt>
      <trkpt lat="45.67207" lon="3.79785">
        <ele>1564.599976</ele>
        <time>2017-05-25T15:15:56Z</time>
      </trkpt>
      <trkpt lat="45.67215" lon="3.79776">
        <ele>1563.199951</ele>
        <time>2017-05-25T15:15:59Z</time>
      </trkpt>
      <trkpt lat="45.67222" lon="3.79767">
        <ele>1561.699951</ele>
        <time>2017-05-25T15:16:03Z</time>
      </trkpt>
      <trkpt lat="45.67233" lon="3.79763">
        <ele>1560</ele>
        <time>2017-05-25T15:16:07Z</time>
      </trkpt>
      <trkpt lat="45.67242" lon="3.79758">
        <ele>1558.800049</ele>
        <time>2017-05-25T15:16:10Z</time>
      </trkpt>
      <trkpt lat="45.67252" lon="3.7975">
        <ele>1557.400024</ele>
        <time>2017-05-25T15:16:13Z</time>
      </trkpt>
      <trkpt lat="45.6726" lon="3.79743">
        <ele>1556.199951</ele>
        <time>2017-05-25T15:16:15Z</time>
      </trkpt>
      <trkpt lat="45.67267" lon="3.79734">
        <ele>1554.300049</ele>
        <time>2017-05-25T15:16:18Z</time>
      </trkpt>
      <trkpt lat="45.67276" lon="3.79725">
        <ele>1553</ele>
        <time>2017-05-25T15:16:21Z</time>
      </trkpt>
      <trkpt lat="45.67286" lon="3.79713">
        <ele>1551.800049</ele>
        <time>2017-05-25T15:16:24Z</time>
      </trkpt>
      <trkpt lat="45.67297" lon="3.79702">
        <ele>1550.800049</ele>
        <time>2017-05-25T15:16:27Z</time>
      </trkpt>
      <trkpt lat="45.67305" lon="3.79692">
        <ele>1549.699951</ele>
        <time>2017-05-25T15:16:30Z</time>
      </trkpt>
      <trkpt lat="45.67313" lon="3.79683">
        <ele>1549.199951</ele>
        <time>2017-05-25T15:16:33Z</time>
      </trkpt>
      <trkpt lat="45.67321" lon="3.79673">
        <ele>1548.599976</ele>
        <time>2017-05-25T15:16:36Z</time>
      </trkpt>
      <trkpt lat="45.6733" lon="3.79664">
        <ele>1548.300049</ele>
        <time>2017-05-25T15:16:39Z</time>
      </trkpt>
      <trkpt lat="45.67338" lon="3.79653">
        <ele>1548.099976</ele>
        <time>2017-05-25T15:16:42Z</time>
      </trkpt>
      <trkpt lat="45.67346" lon="3.79643">
        <ele>1548.199951</ele>
        <time>2017-05-25T15:16:45Z</time>
      </trkpt>
      <trkpt lat="45.67355" lon="3.79635">
        <ele>1548.300049</ele>
        <time>2017-05-25T15:16:48Z</time>
      </trkpt>
      <trkpt lat="45.67363" lon="3.79625">
        <ele>1548.400024</ele>
        <time>2017-05-25T15:16:51Z</time>
      </trkpt>
      <trkpt lat="45.6737" lon="3.79615">
        <ele>1548.599976</ele>
        <time>2017-05-25T15:16:54Z</time>
      </trkpt>
      <trkpt lat="45.67377" lon="3.79606">
        <ele>1548.599976</ele>
        <time>2017-05-25T15:16:58Z</time>
      </trkpt>
      <trkpt lat="45.67386" lon="3.79608">
        <ele>1548.400024</ele>
        <time>2017-05-25T15:17:20Z</time>
      </trkpt>
      <trkpt lat="45.67396" lon="3.79612">
        <ele>1548.199951</ele>
        <time>2017-05-25T15:17:26Z</time>
      </trkpt>
      <trkpt lat="45.67407" lon="3.79613">
        <ele>1547.800049</ele>
        <time>2017-05-25T15:17:30Z</time>
      </trkpt>
      <trkpt lat="45.67417" lon="3.79613">
        <ele>1546.699951</ele>
        <time>2017-05-25T15:17:34Z</time>
      </trkpt>
      <trkpt lat="45.67428" lon="3.79616">
        <ele>1546.800049</ele>
        <time>2017-05-25T15:17:38Z</time>
      </trkpt>
      <trkpt lat="45.67438" lon="3.79618">
        <ele>1547</ele>
        <time>2017-05-25T15:17:41Z</time>
      </trkpt>
      <trkpt lat="45.6745" lon="3.79624">
        <ele>1546.699951</ele>
        <time>2017-05-25T15:17:44Z</time>
      </trkpt>
      <trkpt lat="45.67462" lon="3.79628">
        <ele>1546.199951</ele>
        <time>2017-05-25T15:17:47Z</time>
      </trkpt>
      <trkpt lat="45.67474" lon="3.79631">
        <ele>1545.400024</ele>
        <time>2017-05-25T15:17:50Z</time>
      </trkpt>
      <trkpt lat="45.67486" lon="3.79633">
        <ele>1544.900024</ele>
        <time>2017-05-25T15:17:53Z</time>
      </trkpt>
      <trkpt lat="45.67497" lon="3.79637">
        <ele>1544.199951</ele>
        <time>2017-05-25T15:17:56Z</time>
      </trkpt>
      <trkpt lat="45.67509" lon="3.7964">
        <ele>1543.599976</ele>
        <time>2017-05-25T15:17:59Z</time>
      </trkpt>
      <trkpt lat="45.6752" lon="3.79646">
        <ele>1542.400024</ele>
        <time>2017-05-25T15:18:02Z</time>
      </trkpt>
      <trkpt lat="45.67532" lon="3.79651">
        <ele>1541.300049</ele>
        <time>2017-05-25T15:18:05Z</time>
      </trkpt>
      <trkpt lat="45.67545" lon="3.79656">
        <ele>1540.199951</ele>
        <time>2017-05-25T15:18:08Z</time>
      </trkpt>
      <trkpt lat="45.67557" lon="3.7966">
        <ele>1539.199951</ele>
        <time>2017-05-25T15:18:11Z</time>
      </trkpt>
      <trkpt lat="45.6757" lon="3.79664">
        <ele>1537.699951</ele>
        <time>2017-05-25T15:18:14Z</time>
      </trkpt>
      <trkpt lat="45.67579" lon="3.79668">
        <ele>1537.099976</ele>
        <time>2017-05-25T15:18:16Z</time>
      </trkpt>
      <trkpt lat="45.67588" lon="3.7967">
        <ele>1536.400024</ele>
        <time>2017-05-25T15:18:18Z</time>
      </trkpt>
      <trkpt lat="45.67599" lon="3.79674">
        <ele>1535.800049</ele>
        <time>2017-05-25T15:18:21Z</time>
      </trkpt>
      <trkpt lat="45.67611" lon="3.79677">
        <ele>1535.099976</ele>
        <time>2017-05-25T15:18:24Z</time>
      </trkpt>
      <trkpt lat="45.67624" lon="3.79678">
        <ele>1534.5</ele>
        <time>2017-05-25T15:18:27Z</time>
      </trkpt>
      <trkpt lat="45.67637" lon="3.79677">
        <ele>1533.800049</ele>
        <time>2017-05-25T15:18:30Z</time>
      </trkpt>
      <trkpt lat="45.67649" lon="3.79675">
        <ele>1532.800049</ele>
        <time>2017-05-25T15:18:33Z</time>
      </trkpt>
      <trkpt lat="45.6766" lon="3.79673">
        <ele>1532.599976</ele>
        <time>2017-05-25T15:18:36Z</time>
      </trkpt>
      <trkpt lat="45.67673" lon="3.79669">
        <ele>1532</ele>
        <time>2017-05-25T15:18:39Z</time>
      </trkpt>
      <trkpt lat="45.67683" lon="3.79668">
        <ele>1531.400024</ele>
        <time>2017-05-25T15:18:41Z</time>
      </trkpt>
      <trkpt lat="45.67692" lon="3.79667">
        <ele>1530.900024</ele>
        <time>2017-05-25T15:18:43Z</time>
      </trkpt>
      <trkpt lat="45.67701" lon="3.7967">
        <ele>1530.400024</ele>
        <time>2017-05-25T15:18:45Z</time>
      </trkpt>
      <trkpt lat="45.67712" lon="3.7968">
        <ele>1530</ele>
        <time>2017-05-25T15:18:48Z</time>
      </trkpt>
      <trkpt lat="45.67721" lon="3.79688">
        <ele>1529.5</ele>
        <time>2017-05-25T15:18:50Z</time>
      </trkpt>
      <trkpt lat="45.67729" lon="3.79693">
        <ele>1529.099976</ele>
        <time>2017-05-25T15:18:52Z</time>
      </trkpt>
      <trkpt lat="45.67743" lon="3.79693">
        <ele>1528.300049</ele>
        <time>2017-05-25T15:18:55Z</time>
      </trkpt>
      <trkpt lat="45.67753" lon="3.79693">
        <ele>1527.5</ele>
        <time>2017-05-25T15:18:57Z</time>
      </trkpt>
      <trkpt lat="45.67763" lon="3.79689">
        <ele>1526.199951</ele>
        <time>2017-05-25T15:18:59Z</time>
      </trkpt>
      <trkpt lat="45.67774" lon="3.79683">
        <ele>1524.900024</ele>
        <time>2017-05-25T15:19:01Z</time>
      </trkpt>
      <trkpt lat="45.67785" lon="3.79674">
        <ele>1523.900024</ele>
        <time>2017-05-25T15:19:03Z</time>
      </trkpt>
      <trkpt lat="45.67796" lon="3.79663">
        <ele>1522.900024</ele>
        <time>2017-05-25T15:19:05Z</time>
      </trkpt>
      <trkpt lat="45.67807" lon="3.79651">
        <ele>1521.400024</ele>
        <time>2017-05-25T15:19:07Z</time>
      </trkpt>
      <trkpt lat="45.67818" lon="3.79638">
        <ele>1520.800049</ele>
        <time>2017-05-25T15:19:09Z</time>
      </trkpt>
      <trkpt lat="45.67827" lon="3.79623">
        <ele>1519.400024</ele>
        <time>2017-05-25T15:19:11Z</time>
      </trkpt>
      <trkpt lat="45.67835" lon="3.79606">
        <ele>1518.199951</ele>
        <time>2017-05-25T15:19:13Z</time>
      </trkpt>
      <trkpt lat="45.67842" lon="3.7959">
        <ele>1517.099976</ele>
        <time>2017-05-25T15:19:15Z</time>
      </trkpt>
      <trkpt lat="45.67848" lon="3.79576">
        <ele>1516.099976</ele>
        <time>2017-05-25T15:19:17Z</time>
      </trkpt>
      <trkpt lat="45.67854" lon="3.79561">
        <ele>1514.599976</ele>
        <time>2017-05-25T15:19:19Z</time>
      </trkpt>
      <trkpt lat="45.67861" lon="3.79548">
        <ele>1513.5</ele>
        <time>2017-05-25T15:19:21Z</time>
      </trkpt>
      <trkpt lat="45.67868" lon="3.79537">
        <ele>1512.599976</ele>
        <time>2017-05-25T15:19:23Z</time>
      </trkpt>
      <trkpt lat="45.67876" lon="3.79523">
        <ele>1511.599976</ele>
        <time>2017-05-25T15:19:25Z</time>
      </trkpt>
      <trkpt lat="45.67886" lon="3.79507">
        <ele>1510.300049</ele>
        <time>2017-05-25T15:19:27Z</time>
      </trkpt>
      <trkpt lat="45.67897" lon="3.79493">
        <ele>1509.5</ele>
        <time>2017-05-25T15:19:29Z</time>
      </trkpt>
      <trkpt lat="45.67907" lon="3.79479">
        <ele>1508.400024</ele>
        <time>2017-05-25T15:19:31Z</time>
      </trkpt>
      <trkpt lat="45.67916" lon="3.79464">
        <ele>1507.199951</ele>
        <time>2017-05-25T15:19:33Z</time>
      </trkpt>
      <trkpt lat="45.67925" lon="3.79448">
        <ele>1506</ele>
        <time>2017-05-25T15:19:35Z</time>
      </trkpt>
      <trkpt lat="45.67933" lon="3.79432">
        <ele>1504.800049</ele>
        <time>2017-05-25T15:19:37Z</time>
      </trkpt>
      <trkpt lat="45.67943" lon="3.79415">
        <ele>1503.199951</ele>
        <time>2017-05-25T15:19:39Z</time>
      </trkpt>
      <trkpt lat="45.67952" lon="3.79399">
        <ele>1501.699951</ele>
        <time>2017-05-25T15:19:41Z</time>
      </trkpt>
      <trkpt lat="45.67961" lon="3.79384">
        <ele>1500.5</ele>
        <time>2017-05-25T15:19:43Z</time>
      </trkpt>
      <trkpt lat="45.6797" lon="3.79367">
        <ele>1499.400024</ele>
        <time>2017-05-25T15:19:45Z</time>
      </trkpt>
      <trkpt lat="45.67978" lon="3.79351">
        <ele>1498.199951</ele>
        <time>2017-05-25T15:19:47Z</time>
      </trkpt>
      <trkpt lat="45.67987" lon="3.79338">
        <ele>1496.800049</ele>
        <time>2017-05-25T15:19:49Z</time>
      </trkpt>
      <trkpt lat="45.67995" lon="3.79327">
        <ele>1495.900024</ele>
        <time>2017-05-25T15:19:51Z</time>
      </trkpt>
      <trkpt lat="45.68005" lon="3.79317">
        <ele>1494.699951</ele>
        <time>2017-05-25T15:19:53Z</time>
      </trkpt>
      <trkpt lat="45.68016" lon="3.79307">
        <ele>1493.400024</ele>
        <time>2017-05-25T15:19:55Z</time>
      </trkpt>
      <trkpt lat="45.68027" lon="3.79298">
        <ele>1492.300049</ele>
        <time>2017-05-25T15:19:57Z</time>
      </trkpt>
      <trkpt lat="45.68039" lon="3.79289">
        <ele>1491.199951</ele>
        <time>2017-05-25T15:19:59Z</time>
      </trkpt>
      <trkpt lat="45.68052" lon="3.79279">
        <ele>1489.699951</ele>
        <time>2017-05-25T15:20:01Z</time>
      </trkpt>
      <trkpt lat="45.68064" lon="3.7927">
        <ele>1488.900024</ele>
        <time>2017-05-25T15:20:03Z</time>
      </trkpt>
      <trkpt lat="45.68076" lon="3.79261">
        <ele>1487.800049</ele>
        <time>2017-05-25T15:20:05Z</time>
      </trkpt>
      <trkpt lat="45.68087" lon="3.79251">
        <ele>1486.5</ele>
        <time>2017-05-25T15:20:07Z</time>
      </trkpt>
      <trkpt lat="45.68099" lon="3.79239">
        <ele>1485</ele>
        <time>2017-05-25T15:20:09Z</time>
      </trkpt>
      <trkpt lat="45.68111" lon="3.79228">
        <ele>1483.5</ele>
        <time>2017-05-25T15:20:11Z</time>
      </trkpt>
      <trkpt lat="45.68123" lon="3.79218">
        <ele>1481.900024</ele>
        <time>2017-05-25T15:20:13Z</time>
      </trkpt>
      <trkpt lat="45.68134" lon="3.79208">
        <ele>1480.599976</ele>
        <time>2017-05-25T15:20:15Z</time>
      </trkpt>
      <trkpt lat="45.68147" lon="3.79198">
        <ele>1479.300049</ele>
        <time>2017-05-25T15:20:17Z</time>
      </trkpt>
      <trkpt lat="45.68161" lon="3.79189">
        <ele>1477.900024</ele>
        <time>2017-05-25T15:20:19Z</time>
      </trkpt>
      <trkpt lat="45.68175" lon="3.79178">
        <ele>1476.5</ele>
        <time>2017-05-25T15:20:21Z</time>
      </trkpt>
      <trkpt lat="45.6819" lon="3.79168">
        <ele>1475.099976</ele>
        <time>2017-05-25T15:20:23Z</time>
      </trkpt>
      <trkpt lat="45.68204" lon="3.79155">
        <ele>1474.099976</ele>
        <time>2017-05-25T15:20:25Z</time>
      </trkpt>
      <trkpt lat="45.68218" lon="3.79141">
        <ele>1473.199951</ele>
        <time>2017-05-25T15:20:27Z</time>
      </trkpt>
      <trkpt lat="45.68231" lon="3.79125">
        <ele>1471</ele>
        <time>2017-05-25T15:20:29Z</time>
      </trkpt>
      <trkpt lat="45.6824" lon="3.79105">
        <ele>1469.199951</ele>
        <time>2017-05-25T15:20:31Z</time>
      </trkpt>
      <trkpt lat="45.6825" lon="3.79085">
        <ele>1467.699951</ele>
        <time>2017-05-25T15:20:33Z</time>
      </trkpt>
      <trkpt lat="45.6826" lon="3.79065">
        <ele>1466.599976</ele>
        <time>2017-05-25T15:20:35Z</time>
      </trkpt>
      <trkpt lat="45.6827" lon="3.79045">
        <ele>1465.599976</ele>
        <time>2017-05-25T15:20:37Z</time>
      </trkpt>
      <trkpt lat="45.6828" lon="3.79025">
        <ele>1464.800049</ele>
        <time>2017-05-25T15:20:39Z</time>
      </trkpt>
      <trkpt lat="45.6829" lon="3.79005">
        <ele>1463.599976</ele>
        <time>2017-05-25T15:20:41Z</time>
      </trkpt>
      <trkpt lat="45.68299" lon="3.78985">
        <ele>1462.800049</ele>
        <time>2017-05-25T15:20:43Z</time>
      </trkpt>
      <trkpt lat="45.68308" lon="3.78965">
        <ele>1461.800049</ele>
        <time>2017-05-25T15:20:45Z</time>
      </trkpt>
      <trkpt lat="45.68318" lon="3.78947">
        <ele>1461.199951</ele>
        <time>2017-05-25T15:20:47Z</time>
      </trkpt>
      <trkpt lat="45.68326" lon="3.78929">
        <ele>1460.5</ele>
        <time>2017-05-25T15:20:49Z</time>
      </trkpt>
      <trkpt lat="45.68332" lon="3.78913">
        <ele>1459.5</ele>
        <time>2017-05-25T15:20:51Z</time>
      </trkpt>
      <trkpt lat="45.68338" lon="3.78899">
        <ele>1458.400024</ele>
        <time>2017-05-25T15:20:53Z</time>
      </trkpt>
      <trkpt lat="45.68343" lon="3.78884">
        <ele>1457.5</ele>
        <time>2017-05-25T15:20:55Z</time>
      </trkpt>
      <trkpt lat="45.68349" lon="3.78869">
        <ele>1456.599976</ele>
        <time>2017-05-25T15:20:57Z</time>
      </trkpt>
      <trkpt lat="45.68357" lon="3.78854">
        <ele>1455.300049</ele>
        <time>2017-05-25T15:20:59Z</time>
      </trkpt>
      <trkpt lat="45.68367" lon="3.78841">
        <ele>1454.199951</ele>
        <time>2017-05-25T15:21:01Z</time>
      </trkpt>
      <trkpt lat="45.68375" lon="3.78826">
        <ele>1453.400024</ele>
        <time>2017-05-25T15:21:03Z</time>
      </trkpt>
      <trkpt lat="45.68383" lon="3.78812">
        <ele>1452.699951</ele>
        <time>2017-05-25T15:21:05Z</time>
      </trkpt>
      <trkpt lat="45.68392" lon="3.78797">
        <ele>1451.900024</ele>
        <time>2017-05-25T15:21:07Z</time>
      </trkpt>
      <trkpt lat="45.684" lon="3.7878">
        <ele>1451</ele>
        <time>2017-05-25T15:21:09Z</time>
      </trkpt>
      <trkpt lat="45.68409" lon="3.78761">
        <ele>1450.199951</ele>
        <time>2017-05-25T15:21:11Z</time>
      </trkpt>
      <trkpt lat="45.68419" lon="3.78741">
        <ele>1449.099976</ele>
        <time>2017-05-25T15:21:13Z</time>
      </trkpt>
      <trkpt lat="45.68428" lon="3.78721">
        <ele>1448.199951</ele>
        <time>2017-05-25T15:21:15Z</time>
      </trkpt>
      <trkpt lat="45.68434" lon="3.78699">
        <ele>1447.300049</ele>
        <time>2017-05-25T15:21:17Z</time>
      </trkpt>
      <trkpt lat="45.68439" lon="3.78675">
        <ele>1446.400024</ele>
        <time>2017-05-25T15:21:19Z</time>
      </trkpt>
      <trkpt lat="45.68443" lon="3.78652">
        <ele>1445.5</ele>
        <time>2017-05-25T15:21:21Z</time>
      </trkpt>
      <trkpt lat="45.68448" lon="3.78631">
        <ele>1444.300049</ele>
        <time>2017-05-25T15:21:23Z</time>
      </trkpt>
      <trkpt lat="45.68452" lon="3.7861">
        <ele>1442.699951</ele>
        <time>2017-05-25T15:21:25Z</time>
      </trkpt>
      <trkpt lat="45.68456" lon="3.7859">
        <ele>1442</ele>
        <time>2017-05-25T15:21:27Z</time>
      </trkpt>
      <trkpt lat="45.68459" lon="3.78569">
        <ele>1441.300049</ele>
        <time>2017-05-25T15:21:29Z</time>
      </trkpt>
      <trkpt lat="45.68461" lon="3.78552">
        <ele>1440.400024</ele>
        <time>2017-05-25T15:21:31Z</time>
      </trkpt>
      <trkpt lat="45.68465" lon="3.78539">
        <ele>1438.900024</ele>
        <time>2017-05-25T15:21:33Z</time>
      </trkpt>
      <trkpt lat="45.68474" lon="3.78524">
        <ele>1438</ele>
        <time>2017-05-25T15:21:36Z</time>
      </trkpt>
      <trkpt lat="45.68483" lon="3.78514">
        <ele>1436.800049</ele>
        <time>2017-05-25T15:21:38Z</time>
      </trkpt>
      <trkpt lat="45.68495" lon="3.78501">
        <ele>1436</ele>
        <time>2017-05-25T15:21:40Z</time>
      </trkpt>
      <trkpt lat="45.68507" lon="3.78489">
        <ele>1435.5</ele>
        <time>2017-05-25T15:21:42Z</time>
      </trkpt>
      <trkpt lat="45.68519" lon="3.78477">
        <ele>1434.099976</ele>
        <time>2017-05-25T15:21:44Z</time>
      </trkpt>
      <trkpt lat="45.68528" lon="3.78467">
        <ele>1432.099976</ele>
        <time>2017-05-25T15:21:46Z</time>
      </trkpt>
      <trkpt lat="45.68537" lon="3.78457">
        <ele>1429.599976</ele>
        <time>2017-05-25T15:21:49Z</time>
      </trkpt>
      <trkpt lat="45.68539" lon="3.78444">
        <ele>1427.300049</ele>
        <time>2017-05-25T15:21:52Z</time>
      </trkpt>
      <trkpt lat="45.68539" lon="3.78429">
        <ele>1425.599976</ele>
        <time>2017-05-25T15:21:56Z</time>
      </trkpt>
      <trkpt lat="45.68538" lon="3.78415">
        <ele>1425</ele>
        <time>2017-05-25T15:22:01Z</time>
      </trkpt>
      <trkpt lat="45.68537" lon="3.78402">
        <ele>1425.300049</ele>
        <time>2017-05-25T15:22:05Z</time>
      </trkpt>
      <trkpt lat="45.68535" lon="3.78386">
        <ele>1425.599976</ele>
        <time>2017-05-25T15:22:10Z</time>
      </trkpt>
      <trkpt lat="45.68536" lon="3.78372">
        <ele>1426</ele>
        <time>2017-05-25T15:22:14Z</time>
      </trkpt>
      <trkpt lat="45.68538" lon="3.78356">
        <ele>1426.300049</ele>
        <time>2017-05-25T15:22:18Z</time>
      </trkpt>
      <trkpt lat="45.68541" lon="3.78341">
        <ele>1426.699951</ele>
        <time>2017-05-25T15:22:22Z</time>
      </trkpt>
      <trkpt lat="45.68542" lon="3.78326">
        <ele>1427</ele>
        <time>2017-05-25T15:22:26Z</time>
      </trkpt>
      <trkpt lat="45.6854" lon="3.78312">
        <ele>1427.199951</ele>
        <time>2017-05-25T15:22:32Z</time>
      </trkpt>
      <trkpt lat="45.68539" lon="3.78299">
        <ele>1427.599976</ele>
        <time>2017-05-25T15:22:37Z</time>
      </trkpt>
      <trkpt lat="45.68534" lon="3.78287">
        <ele>1428.199951</ele>
        <time>2017-05-25T15:22:45Z</time>
      </trkpt>
      <trkpt lat="45.68527" lon="3.78278">
        <ele>1428.5</ele>
        <time>2017-05-25T15:22:51Z</time>
      </trkpt>
      <trkpt lat="45.68519" lon="3.78269">
        <ele>1428.699951</ele>
        <time>2017-05-25T15:22:57Z</time>
      </trkpt>
      <trkpt lat="45.68513" lon="3.78259">
        <ele>1428.800049</ele>
        <time>2017-05-25T15:23:03Z</time>
      </trkpt>
      <trkpt lat="45.68507" lon="3.78248">
        <ele>1428.699951</ele>
        <time>2017-05-25T15:23:10Z</time>
      </trkpt>
      <trkpt lat="45.6851" lon="3.7826">
        <ele>1430.099976</ele>
        <time>2017-05-25T15:23:30Z</time>
      </trkpt>
      <trkpt lat="45.68518" lon="3.7827">
        <ele>1429.900024</ele>
        <time>2017-05-25T15:23:35Z</time>
      </trkpt>
      <trkpt lat="45.68525" lon="3.7828">
        <ele>1429.800049</ele>
        <time>2017-05-25T15:23:39Z</time>
      </trkpt>
      <trkpt lat="45.68534" lon="3.78288">
        <ele>1430</ele>
        <time>2017-05-25T15:23:44Z</time>
      </trkpt>
      <trkpt lat="45.68544" lon="3.78297">
        <ele>1428.699951</ele>
        <time>2017-05-25T15:27:58Z</time>
      </trkpt>
      <trkpt lat="45.68553" lon="3.78301">
        <ele>1428.5</ele>
        <time>2017-05-25T15:28:04Z</time>
      </trkpt>
      <trkpt lat="45.68562" lon="3.78304">
        <ele>1428.599976</ele>
        <time>2017-05-25T15:28:09Z</time>
      </trkpt>
      <trkpt lat="45.68572" lon="3.78308">
        <ele>1428.699951</ele>
        <time>2017-05-25T15:28:14Z</time>
      </trkpt>
      <trkpt lat="45.68582" lon="3.7831">
        <ele>1428.300049</ele>
        <time>2017-05-25T15:28:18Z</time>
      </trkpt>
      <trkpt lat="45.68592" lon="3.78313">
        <ele>1428.199951</ele>
        <time>2017-05-25T15:28:21Z</time>
      </trkpt>
      <trkpt lat="45.68602" lon="3.78316">
        <ele>1428.199951</ele>
        <time>2017-05-25T15:28:24Z</time>
      </trkpt>
      <trkpt lat="45.68611" lon="3.78313">
        <ele>1427.599976</ele>
        <time>2017-05-25T15:28:27Z</time>
      </trkpt>
      <trkpt lat="45.6862" lon="3.78304">
        <ele>1427.199951</ele>
        <time>2017-05-25T15:28:31Z</time>
      </trkpt>
      <trkpt lat="45.68629" lon="3.78294">
        <ele>1427</ele>
        <time>2017-05-25T15:28:35Z</time>
      </trkpt>
      <trkpt lat="45.68638" lon="3.78289">
        <ele>1427.300049</ele>
        <time>2017-05-25T15:28:39Z</time>
      </trkpt>
      <trkpt lat="45.68648" lon="3.78287">
        <ele>1428</ele>
        <time>2017-05-25T15:28:43Z</time>
      </trkpt>
      <trkpt lat="45.6866" lon="3.78283">
        <ele>1428.5</ele>
        <time>2017-05-25T15:28:47Z</time>
      </trkpt>
      <trkpt lat="45.68668" lon="3.78278">
        <ele>1428.800049</ele>
        <time>2017-05-25T15:28:50Z</time>
      </trkpt>
      <trkpt lat="45.68677" lon="3.78271">
        <ele>1428.800049</ele>
        <time>2017-05-25T15:28:53Z</time>
      </trkpt>
      <trkpt lat="45.68685" lon="3.78264">
        <ele>1429.099976</ele>
        <time>2017-05-25T15:28:56Z</time>
      </trkpt>
      <trkpt lat="45.68694" lon="3.78256">
        <ele>1429.900024</ele>
        <time>2017-05-25T15:29:00Z</time>
      </trkpt>
      <trkpt lat="45.68704" lon="3.78248">
        <ele>1430</ele>
        <time>2017-05-25T15:29:04Z</time>
      </trkpt>
      <trkpt lat="45.68714" lon="3.7824">
        <ele>1429.900024</ele>
        <time>2017-05-25T15:29:08Z</time>
      </trkpt>
      <trkpt lat="45.68725" lon="3.78232">
        <ele>1430.300049</ele>
        <time>2017-05-25T15:29:12Z</time>
      </trkpt>
      <trkpt lat="45.68733" lon="3.78224">
        <ele>1430.699951</ele>
        <time>2017-05-25T15:29:15Z</time>
      </trkpt>
      <trkpt lat="45.6874" lon="3.78217">
        <ele>1431.199951</ele>
        <time>2017-05-25T15:29:18Z</time>
      </trkpt>
      <trkpt lat="45.68748" lon="3.7821">
        <ele>1431.5</ele>
        <time>2017-05-25T15:29:21Z</time>
      </trkpt>
      <trkpt lat="45.68756" lon="3.78202">
        <ele>1431.599976</ele>
        <time>2017-05-25T15:29:24Z</time>
      </trkpt>
      <trkpt lat="45.68764" lon="3.78196">
        <ele>1432</ele>
        <time>2017-05-25T15:29:27Z</time>
      </trkpt>
      <trkpt lat="45.68773" lon="3.7819">
        <ele>1432.400024</ele>
        <time>2017-05-25T15:29:30Z</time>
      </trkpt>
      <trkpt lat="45.68781" lon="3.78186">
        <ele>1432.699951</ele>
        <time>2017-05-25T15:29:33Z</time>
      </trkpt>
      <trkpt lat="45.6879" lon="3.78182">
        <ele>1433</ele>
        <time>2017-05-25T15:29:36Z</time>
      </trkpt>
      <trkpt lat="45.68799" lon="3.78178">
        <ele>1433.5</ele>
        <time>2017-05-25T15:29:39Z</time>
      </trkpt>
      <trkpt lat="45.68808" lon="3.78173">
        <ele>1433.800049</ele>
        <time>2017-05-25T15:29:42Z</time>
      </trkpt>
      <trkpt lat="45.68817" lon="3.78167">
        <ele>1434.099976</ele>
        <time>2017-05-25T15:29:45Z</time>
      </trkpt>
      <trkpt lat="45.68826" lon="3.78161">
        <ele>1434.400024</ele>
        <time>2017-05-25T15:29:48Z</time>
      </trkpt>
      <trkpt lat="45.68835" lon="3.78153">
        <ele>1434.699951</ele>
        <time>2017-05-25T15:29:51Z</time>
      </trkpt>
      <trkpt lat="45.68844" lon="3.78146">
        <ele>1435</ele>
        <time>2017-05-25T15:29:54Z</time>
      </trkpt>
      <trkpt lat="45.68853" lon="3.78138">
        <ele>1435.199951</ele>
        <time>2017-05-25T15:29:57Z</time>
      </trkpt>
      <trkpt lat="45.68861" lon="3.7813">
        <ele>1435.5</ele>
        <time>2017-05-25T15:30:00Z</time>
      </trkpt>
      <trkpt lat="45.68868" lon="3.78121">
        <ele>1436.099976</ele>
        <time>2017-05-25T15:30:03Z</time>
      </trkpt>
      <trkpt lat="45.68875" lon="3.78112">
        <ele>1436.599976</ele>
        <time>2017-05-25T15:30:06Z</time>
      </trkpt>
      <trkpt lat="45.68882" lon="3.78102">
        <ele>1436.599976</ele>
        <time>2017-05-25T15:30:09Z</time>
      </trkpt>
      <trkpt lat="45.68889" lon="3.78092">
        <ele>1436.599976</ele>
        <time>2017-05-25T15:30:12Z</time>
      </trkpt>
      <trkpt lat="45.68896" lon="3.78082">
        <ele>1436.599976</ele>
        <time>2017-05-25T15:30:15Z</time>
      </trkpt>
      <trkpt lat="45.68903" lon="3.78072">
        <ele>1437</ele>
        <time>2017-05-25T15:30:18Z</time>
      </trkpt>
      <trkpt lat="45.68911" lon="3.78063">
        <ele>1437.5</ele>
        <time>2017-05-25T15:30:21Z</time>
      </trkpt>
      <trkpt lat="45.68917" lon="3.78053">
        <ele>1437.699951</ele>
        <time>2017-05-25T15:30:24Z</time>
      </trkpt>
      <trkpt lat="45.68924" lon="3.78044">
        <ele>1437.800049</ele>
        <time>2017-05-25T15:30:27Z</time>
      </trkpt>
      <trkpt lat="45.68931" lon="3.78035">
        <ele>1438.199951</ele>
        <time>2017-05-25T15:30:30Z</time>
      </trkpt>
      <trkpt lat="45.68937" lon="3.78025">
        <ele>1438.5</ele>
        <time>2017-05-25T15:30:33Z</time>
      </trkpt>
      <trkpt lat="45.68944" lon="3.78015">
        <ele>1438.699951</ele>
        <time>2017-05-25T15:30:36Z</time>
      </trkpt>
      <trkpt lat="45.68951" lon="3.78005">
        <ele>1438.800049</ele>
        <time>2017-05-25T15:30:39Z</time>
      </trkpt>
      <trkpt lat="45.68958" lon="3.77995">
        <ele>1439.099976</ele>
        <time>2017-05-25T15:30:42Z</time>
      </trkpt>
      <trkpt lat="45.68966" lon="3.77984">
        <ele>1439.099976</ele>
        <time>2017-05-25T15:30:45Z</time>
      </trkpt>
      <trkpt lat="45.68973" lon="3.77973">
        <ele>1439.300049</ele>
        <time>2017-05-25T15:30:48Z</time>
      </trkpt>
      <trkpt lat="45.68981" lon="3.77961">
        <ele>1439.400024</ele>
        <time>2017-05-25T15:30:51Z</time>
      </trkpt>
      <trkpt lat="45.68987" lon="3.7795">
        <ele>1439.599976</ele>
        <time>2017-05-25T15:30:54Z</time>
      </trkpt>
      <trkpt lat="45.68993" lon="3.77937">
        <ele>1440</ele>
        <time>2017-05-25T15:30:57Z</time>
      </trkpt>
      <trkpt lat="45.68998" lon="3.77924">
        <ele>1440.5</ele>
        <time>2017-05-25T15:31:00Z</time>
      </trkpt>
      <trkpt lat="45.69004" lon="3.7791">
        <ele>1440.800049</ele>
        <time>2017-05-25T15:31:03Z</time>
      </trkpt>
      <trkpt lat="45.69009" lon="3.77896">
        <ele>1441</ele>
        <time>2017-05-25T15:31:06Z</time>
      </trkpt>
      <trkpt lat="45.69014" lon="3.77882">
        <ele>1441.300049</ele>
        <time>2017-05-25T15:31:09Z</time>
      </trkpt>
      <trkpt lat="45.6902" lon="3.77867">
        <ele>1441.099976</ele>
        <time>2017-05-25T15:31:12Z</time>
      </trkpt>
      <trkpt lat="45.69025" lon="3.77853">
        <ele>1441.099976</ele>
        <time>2017-05-25T15:31:15Z</time>
      </trkpt>
      <trkpt lat="45.6903" lon="3.77839">
        <ele>1441.300049</ele>
        <time>2017-05-25T15:31:18Z</time>
      </trkpt>
      <trkpt lat="45.69036" lon="3.77824">
        <ele>1441.099976</ele>
        <time>2017-05-25T15:31:21Z</time>
      </trkpt>
      <trkpt lat="45.69042" lon="3.77809">
        <ele>1441.300049</ele>
        <time>2017-05-25T15:31:24Z</time>
      </trkpt>
      <trkpt lat="45.69046" lon="3.77797">
        <ele>1440.900024</ele>
        <time>2017-05-25T15:31:26Z</time>
      </trkpt>
      <trkpt lat="45.69052" lon="3.77787">
        <ele>1440.699951</ele>
        <time>2017-05-25T15:31:28Z</time>
      </trkpt>
      <trkpt lat="45.69062" lon="3.77782">
        <ele>1440.5</ele>
        <time>2017-05-25T15:31:30Z</time>
      </trkpt>
      <trkpt lat="45.69075" lon="3.77778">
        <ele>1440</ele>
        <time>2017-05-25T15:31:32Z</time>
      </trkpt>
      <trkpt lat="45.69088" lon="3.77775">
        <ele>1439.199951</ele>
        <time>2017-05-25T15:31:34Z</time>
      </trkpt>
      <trkpt lat="45.691" lon="3.77777">
        <ele>1439.199951</ele>
        <time>2017-05-25T15:31:36Z</time>
      </trkpt>
      <trkpt lat="45.69112" lon="3.7778">
        <ele>1439</ele>
        <time>2017-05-25T15:31:38Z</time>
      </trkpt>
      <trkpt lat="45.69122" lon="3.7778">
        <ele>1438.699951</ele>
        <time>2017-05-25T15:31:40Z</time>
      </trkpt>
      <trkpt lat="45.69135" lon="3.77779">
        <ele>1437.900024</ele>
        <time>2017-05-25T15:31:43Z</time>
      </trkpt>
      <trkpt lat="45.69147" lon="3.77778">
        <ele>1437.400024</ele>
        <time>2017-05-25T15:31:46Z</time>
      </trkpt>
      <trkpt lat="45.69158" lon="3.77778">
        <ele>1437.099976</ele>
        <time>2017-05-25T15:31:49Z</time>
      </trkpt>
      <trkpt lat="45.69167" lon="3.77777">
        <ele>1437.199951</ele>
        <time>2017-05-25T15:31:52Z</time>
      </trkpt>
      <trkpt lat="45.69178" lon="3.77776">
        <ele>1437.199951</ele>
        <time>2017-05-25T15:31:56Z</time>
      </trkpt>
      <trkpt lat="45.69189" lon="3.77774">
        <ele>1437.5</ele>
        <time>2017-05-25T15:32:00Z</time>
      </trkpt>
      <trkpt lat="45.69198" lon="3.77774">
        <ele>1437.900024</ele>
        <time>2017-05-25T15:32:04Z</time>
      </trkpt>
      <trkpt lat="45.69207" lon="3.77773">
        <ele>1438.400024</ele>
        <time>2017-05-25T15:32:08Z</time>
      </trkpt>
      <trkpt lat="45.69217" lon="3.77772">
        <ele>1439</ele>
        <time>2017-05-25T15:32:13Z</time>
      </trkpt>
      <trkpt lat="45.69227" lon="3.77771">
        <ele>1439.699951</ele>
        <time>2017-05-25T15:32:19Z</time>
      </trkpt>
      <trkpt lat="45.69237" lon="3.7777">
        <ele>1440</ele>
        <time>2017-05-25T15:32:24Z</time>
      </trkpt>
      <trkpt lat="45.69248" lon="3.7777">
        <ele>1440.099976</ele>
        <time>2017-05-25T15:32:29Z</time>
      </trkpt>
      <trkpt lat="45.69258" lon="3.77769">
        <ele>1440.699951</ele>
        <time>2017-05-25T15:32:34Z</time>
      </trkpt>
      <trkpt lat="45.69269" lon="3.77768">
        <ele>1440.800049</ele>
        <time>2017-05-25T15:32:39Z</time>
      </trkpt>
      <trkpt lat="45.69279" lon="3.77767">
        <ele>1440.900024</ele>
        <time>2017-05-25T15:32:43Z</time>
      </trkpt>
      <trkpt lat="45.6929" lon="3.77766">
        <ele>1440.900024</ele>
        <time>2017-05-25T15:32:47Z</time>
      </trkpt>
      <trkpt lat="45.69299" lon="3.77765">
        <ele>1441</ele>
        <time>2017-05-25T15:32:51Z</time>
      </trkpt>
      <trkpt lat="45.69308" lon="3.77764">
        <ele>1441.5</ele>
        <time>2017-05-25T15:32:55Z</time>
      </trkpt>
      <trkpt lat="45.69319" lon="3.77763">
        <ele>1442.300049</ele>
        <time>2017-05-25T15:33:00Z</time>
      </trkpt>
      <trkpt lat="45.6933" lon="3.77761">
        <ele>1442.199951</ele>
        <time>2017-05-25T15:33:05Z</time>
      </trkpt>
      <trkpt lat="45.6934" lon="3.7776">
        <ele>1442.900024</ele>
        <time>2017-05-25T15:33:10Z</time>
      </trkpt>
      <trkpt lat="45.6935" lon="3.7776">
        <ele>1443.300049</ele>
        <time>2017-05-25T15:33:15Z</time>
      </trkpt>
      <trkpt lat="45.69361" lon="3.77759">
        <ele>1443.699951</ele>
        <time>2017-05-25T15:33:20Z</time>
      </trkpt>
      <trkpt lat="45.69372" lon="3.77759">
        <ele>1443.900024</ele>
        <time>2017-05-25T15:33:25Z</time>
      </trkpt>
      <trkpt lat="45.69381" lon="3.77757">
        <ele>1444.199951</ele>
        <time>2017-05-25T15:33:29Z</time>
      </trkpt>
      <trkpt lat="45.69391" lon="3.77756">
        <ele>1444.599976</ele>
        <time>2017-05-25T15:33:34Z</time>
      </trkpt>
      <trkpt lat="45.69403" lon="3.77756">
        <ele>1445.199951</ele>
        <time>2017-05-25T15:33:39Z</time>
      </trkpt>
      <trkpt lat="45.69412" lon="3.77755">
        <ele>1445.400024</ele>
        <time>2017-05-25T15:33:43Z</time>
      </trkpt>
      <trkpt lat="45.69421" lon="3.77755">
        <ele>1445.5</ele>
        <time>2017-05-25T15:33:47Z</time>
      </trkpt>
      <trkpt lat="45.6943" lon="3.77754">
        <ele>1445.800049</ele>
        <time>2017-05-25T15:33:51Z</time>
      </trkpt>
      <trkpt lat="45.69439" lon="3.77752">
        <ele>1446.400024</ele>
        <time>2017-05-25T15:33:55Z</time>
      </trkpt>
      <trkpt lat="45.69449" lon="3.77751">
        <ele>1446.599976</ele>
        <time>2017-05-25T15:33:59Z</time>
      </trkpt>
      <trkpt lat="45.6946" lon="3.77751">
        <ele>1447.199951</ele>
        <time>2017-05-25T15:34:04Z</time>
      </trkpt>
      <trkpt lat="45.69469" lon="3.7775">
        <ele>1447.599976</ele>
        <time>2017-05-25T15:34:08Z</time>
      </trkpt>
      <trkpt lat="45.69478" lon="3.77748">
        <ele>1447.5</ele>
        <time>2017-05-25T15:34:12Z</time>
      </trkpt>
      <trkpt lat="45.69488" lon="3.77748">
        <ele>1447.699951</ele>
        <time>2017-05-25T15:34:16Z</time>
      </trkpt>
      <trkpt lat="45.69499" lon="3.77748">
        <ele>1448.199951</ele>
        <time>2017-05-25T15:34:21Z</time>
      </trkpt>
      <trkpt lat="45.69508" lon="3.77746">
        <ele>1448.599976</ele>
        <time>2017-05-25T15:34:25Z</time>
      </trkpt>
      <trkpt lat="45.69517" lon="3.77746">
        <ele>1449.099976</ele>
        <time>2017-05-25T15:34:29Z</time>
      </trkpt>
      <trkpt lat="45.69526" lon="3.77745">
        <ele>1449.5</ele>
        <time>2017-05-25T15:34:33Z</time>
      </trkpt>
      <trkpt lat="45.69537" lon="3.77744">
        <ele>1450.099976</ele>
        <time>2017-05-25T15:34:38Z</time>
      </trkpt>
      <trkpt lat="45.69548" lon="3.77743">
        <ele>1450.800049</ele>
        <time>2017-05-25T15:34:43Z</time>
      </trkpt>
      <trkpt lat="45.69557" lon="3.77742">
        <ele>1450.900024</ele>
        <time>2017-05-25T15:34:48Z</time>
      </trkpt>
      <trkpt lat="45.69567" lon="3.77741">
        <ele>1451.400024</ele>
        <time>2017-05-25T15:34:53Z</time>
      </trkpt>
      <trkpt lat="45.69577" lon="3.7774">
        <ele>1451.800049</ele>
        <time>2017-05-25T15:34:58Z</time>
      </trkpt>
      <trkpt lat="45.69588" lon="3.77739">
        <ele>1452.5</ele>
        <time>2017-05-25T15:35:03Z</time>
      </trkpt>
      <trkpt lat="45.69597" lon="3.77738">
        <ele>1452.699951</ele>
        <time>2017-05-25T15:35:07Z</time>
      </trkpt>
      <trkpt lat="45.69606" lon="3.77736">
        <ele>1453.199951</ele>
        <time>2017-05-25T15:35:11Z</time>
      </trkpt>
      <trkpt lat="45.69615" lon="3.77735">
        <ele>1453.599976</ele>
        <time>2017-05-25T15:35:15Z</time>
      </trkpt>
      <trkpt lat="45.69625" lon="3.77734">
        <ele>1454.099976</ele>
        <time>2017-05-25T15:35:19Z</time>
      </trkpt>
      <trkpt lat="45.69635" lon="3.77733">
        <ele>1454.699951</ele>
        <time>2017-05-25T15:35:23Z</time>
      </trkpt>
      <trkpt lat="45.69644" lon="3.77732">
        <ele>1455.099976</ele>
        <time>2017-05-25T15:35:27Z</time>
      </trkpt>
      <trkpt lat="45.69655" lon="3.77731">
        <ele>1455.599976</ele>
        <time>2017-05-25T15:35:32Z</time>
      </trkpt>
      <trkpt lat="45.69664" lon="3.77731">
        <ele>1455.599976</ele>
        <time>2017-05-25T15:35:36Z</time>
      </trkpt>
      <trkpt lat="45.69675" lon="3.77729">
        <ele>1456.099976</ele>
        <time>2017-05-25T15:35:41Z</time>
      </trkpt>
      <trkpt lat="45.69685" lon="3.77729">
        <ele>1456.599976</ele>
        <time>2017-05-25T15:35:45Z</time>
      </trkpt>
      <trkpt lat="45.69695" lon="3.77727">
        <ele>1457.5</ele>
        <time>2017-05-25T15:35:50Z</time>
      </trkpt>
      <trkpt lat="45.69706" lon="3.77727">
        <ele>1458.199951</ele>
        <time>2017-05-25T15:35:55Z</time>
      </trkpt>
      <trkpt lat="45.69717" lon="3.77726">
        <ele>1458.900024</ele>
        <time>2017-05-25T15:36:00Z</time>
      </trkpt>
      <trkpt lat="45.69728" lon="3.77726">
        <ele>1459.699951</ele>
        <time>2017-05-25T15:36:05Z</time>
      </trkpt>
      <trkpt lat="45.69739" lon="3.77725">
        <ele>1460.300049</ele>
        <time>2017-05-25T15:36:10Z</time>
      </trkpt>
      <trkpt lat="45.69749" lon="3.77725">
        <ele>1461.300049</ele>
        <time>2017-05-25T15:36:15Z</time>
      </trkpt>
      <trkpt lat="45.69759" lon="3.77724">
        <ele>1461.800049</ele>
        <time>2017-05-25T15:36:20Z</time>
      </trkpt>
      <trkpt lat="45.6977" lon="3.77724">
        <ele>1462.5</ele>
        <time>2017-05-25T15:36:25Z</time>
      </trkpt>
      <trkpt lat="45.69781" lon="3.77723">
        <ele>1462.800049</ele>
        <time>2017-05-25T15:36:30Z</time>
      </trkpt>
      <trkpt lat="45.69792" lon="3.77722">
        <ele>1463.300049</ele>
        <time>2017-05-25T15:36:35Z</time>
      </trkpt>
      <trkpt lat="45.698" lon="3.77719">
        <ele>1462.800049</ele>
        <time>2017-05-25T15:36:45Z</time>
      </trkpt>
      <trkpt lat="45.6981" lon="3.77713">
        <ele>1462.400024</ele>
        <time>2017-05-25T15:37:01Z</time>
      </trkpt>
      <trkpt lat="45.6982" lon="3.77713">
        <ele>1462.699951</ele>
        <time>2017-05-25T15:37:05Z</time>
      </trkpt>
      <trkpt lat="45.69831" lon="3.77712">
        <ele>1462.5</ele>
        <time>2017-05-25T15:37:09Z</time>
      </trkpt>
      <trkpt lat="45.69842" lon="3.7771">
        <ele>1462.599976</ele>
        <time>2017-05-25T15:37:13Z</time>
      </trkpt>
      <trkpt lat="45.69852" lon="3.77707">
        <ele>1462.5</ele>
        <time>2017-05-25T15:37:16Z</time>
      </trkpt>
      <trkpt lat="45.69863" lon="3.77705">
        <ele>1462.5</ele>
        <time>2017-05-25T15:37:19Z</time>
      </trkpt>
      <trkpt lat="45.69873" lon="3.77702">
        <ele>1462.099976</ele>
        <time>2017-05-25T15:37:22Z</time>
      </trkpt>
      <trkpt lat="45.69884" lon="3.77699">
        <ele>1461.599976</ele>
        <time>2017-05-25T15:37:25Z</time>
      </trkpt>
      <trkpt lat="45.69896" lon="3.77697">
        <ele>1461.099976</ele>
        <time>2017-05-25T15:37:28Z</time>
      </trkpt>
      <trkpt lat="45.69907" lon="3.77694">
        <ele>1460.699951</ele>
        <time>2017-05-25T15:37:31Z</time>
      </trkpt>
      <trkpt lat="45.69919" lon="3.77691">
        <ele>1460.099976</ele>
        <time>2017-05-25T15:37:34Z</time>
      </trkpt>
      <trkpt lat="45.69931" lon="3.77688">
        <ele>1459.599976</ele>
        <time>2017-05-25T15:37:37Z</time>
      </trkpt>
      <trkpt lat="45.69941" lon="3.77686">
        <ele>1459.199951</ele>
        <time>2017-05-25T15:37:39Z</time>
      </trkpt>
      <trkpt lat="45.69951" lon="3.77683">
        <ele>1458.800049</ele>
        <time>2017-05-25T15:37:41Z</time>
      </trkpt>
      <trkpt lat="45.69963" lon="3.77681">
        <ele>1457.599976</ele>
        <time>2017-05-25T15:37:43Z</time>
      </trkpt>
      <trkpt lat="45.69974" lon="3.77678">
        <ele>1456.800049</ele>
        <time>2017-05-25T15:37:45Z</time>
      </trkpt>
      <trkpt lat="45.69984" lon="3.77676">
        <ele>1455.900024</ele>
        <time>2017-05-25T15:37:47Z</time>
      </trkpt>
      <trkpt lat="45.69996" lon="3.77673">
        <ele>1454.199951</ele>
        <time>2017-05-25T15:37:50Z</time>
      </trkpt>
      <trkpt lat="45.70003" lon="3.77663">
        <ele>1452.300049</ele>
        <time>2017-05-25T15:37:55Z</time>
      </trkpt>
      <trkpt lat="45.70011" lon="3.77657">
        <ele>1451.400024</ele>
        <time>2017-05-25T15:38:18Z</time>
      </trkpt>
      <trkpt lat="45.70018" lon="3.77644">
        <ele>1450.800049</ele>
        <time>2017-05-25T15:38:23Z</time>
      </trkpt>
      <trkpt lat="45.70024" lon="3.77633">
        <ele>1450.5</ele>
        <time>2017-05-25T15:38:27Z</time>
      </trkpt>
      <trkpt lat="45.70032" lon="3.77621">
        <ele>1449.800049</ele>
        <time>2017-05-25T15:38:32Z</time>
      </trkpt>
      <trkpt lat="45.7004" lon="3.77613">
        <ele>1449.5</ele>
        <time>2017-05-25T15:38:36Z</time>
      </trkpt>
      <trkpt lat="45.70047" lon="3.77604">
        <ele>1449.199951</ele>
        <time>2017-05-25T15:38:40Z</time>
      </trkpt>
      <trkpt lat="45.70055" lon="3.77597">
        <ele>1449.099976</ele>
        <time>2017-05-25T15:38:44Z</time>
      </trkpt>
      <trkpt lat="45.70062" lon="3.77589">
        <ele>1448.900024</ele>
        <time>2017-05-25T15:38:48Z</time>
      </trkpt>
      <trkpt lat="45.70071" lon="3.77582">
        <ele>1449.099976</ele>
        <time>2017-05-25T15:38:52Z</time>
      </trkpt>
      <trkpt lat="45.70081" lon="3.77578">
        <ele>1449.800049</ele>
        <time>2017-05-25T15:38:58Z</time>
      </trkpt>
      <trkpt lat="45.70091" lon="3.77578">
        <ele>1449.900024</ele>
        <time>2017-05-25T15:39:56Z</time>
      </trkpt>
      <trkpt lat="45.70102" lon="3.77577">
        <ele>1450.199951</ele>
        <time>2017-05-25T15:40:01Z</time>
      </trkpt>
      <trkpt lat="45.70111" lon="3.77577">
        <ele>1450.300049</ele>
        <time>2017-05-25T15:40:05Z</time>
      </trkpt>
      <trkpt lat="45.70121" lon="3.7758">
        <ele>1450.5</ele>
        <time>2017-05-25T15:40:09Z</time>
      </trkpt>
      <trkpt lat="45.70132" lon="3.77586">
        <ele>1450.300049</ele>
        <time>2017-05-25T15:40:13Z</time>
      </trkpt>
      <trkpt lat="45.70143" lon="3.77593">
        <ele>1450.199951</ele>
        <time>2017-05-25T15:40:17Z</time>
      </trkpt>
      <trkpt lat="45.70152" lon="3.77598">
        <ele>1449.599976</ele>
        <time>2017-05-25T15:40:20Z</time>
      </trkpt>
      <trkpt lat="45.70162" lon="3.77603">
        <ele>1449.300049</ele>
        <time>2017-05-25T15:40:23Z</time>
      </trkpt>
      <trkpt lat="45.70172" lon="3.77609">
        <ele>1448.699951</ele>
        <time>2017-05-25T15:40:26Z</time>
      </trkpt>
      <trkpt lat="45.70182" lon="3.77614">
        <ele>1448</ele>
        <time>2017-05-25T15:40:29Z</time>
      </trkpt>
      <trkpt lat="45.70193" lon="3.77619">
        <ele>1447.099976</ele>
        <time>2017-05-25T15:40:32Z</time>
      </trkpt>
      <trkpt lat="45.70205" lon="3.77625">
        <ele>1446.099976</ele>
        <time>2017-05-25T15:40:35Z</time>
      </trkpt>
      <trkpt lat="45.70215" lon="3.77631">
        <ele>1445</ele>
        <time>2017-05-25T15:40:38Z</time>
      </trkpt>
      <trkpt lat="45.70225" lon="3.77642">
        <ele>1443.900024</ele>
        <time>2017-05-25T15:40:41Z</time>
      </trkpt>
      <trkpt lat="45.70234" lon="3.77655">
        <ele>1442.5</ele>
        <time>2017-05-25T15:40:44Z</time>
      </trkpt>
      <trkpt lat="45.7024" lon="3.77666">
        <ele>1441.5</ele>
        <time>2017-05-25T15:40:46Z</time>
      </trkpt>
      <trkpt lat="45.70246" lon="3.77676">
        <ele>1440.400024</ele>
        <time>2017-05-25T15:40:48Z</time>
      </trkpt>
      <trkpt lat="45.70253" lon="3.77687">
        <ele>1438.900024</ele>
        <time>2017-05-25T15:40:50Z</time>
      </trkpt>
      <trkpt lat="45.7026" lon="3.77699">
        <ele>1437.599976</ele>
        <time>2017-05-25T15:40:52Z</time>
      </trkpt>
      <trkpt lat="45.70266" lon="3.77714">
        <ele>1436.599976</ele>
        <time>2017-05-25T15:40:54Z</time>
      </trkpt>
      <trkpt lat="45.70272" lon="3.77732">
        <ele>1435.5</ele>
        <time>2017-05-25T15:40:56Z</time>
      </trkpt>
      <trkpt lat="45.70277" lon="3.77751">
        <ele>1434</ele>
        <time>2017-05-25T15:40:58Z</time>
      </trkpt>
      <trkpt lat="45.70281" lon="3.77769">
        <ele>1432</ele>
        <time>2017-05-25T15:41:00Z</time>
      </trkpt>
      <trkpt lat="45.70288" lon="3.77782">
        <ele>1430.800049</ele>
        <time>2017-05-25T15:41:02Z</time>
      </trkpt>
      <trkpt lat="45.70295" lon="3.77792">
        <ele>1429.599976</ele>
        <time>2017-05-25T15:41:04Z</time>
      </trkpt>
      <trkpt lat="45.70302" lon="3.77802">
        <ele>1428.900024</ele>
        <time>2017-05-25T15:41:06Z</time>
      </trkpt>
      <trkpt lat="45.70307" lon="3.77813">
        <ele>1428.199951</ele>
        <time>2017-05-25T15:41:08Z</time>
      </trkpt>
      <trkpt lat="45.70316" lon="3.77824">
        <ele>1427.199951</ele>
        <time>2017-05-25T15:41:11Z</time>
      </trkpt>
      <trkpt lat="45.70325" lon="3.77833">
        <ele>1426.300049</ele>
        <time>2017-05-25T15:41:14Z</time>
      </trkpt>
      <trkpt lat="45.70335" lon="3.77839">
        <ele>1425.5</ele>
        <time>2017-05-25T15:41:17Z</time>
      </trkpt>
      <trkpt lat="45.70346" lon="3.77845">
        <ele>1424.900024</ele>
        <time>2017-05-25T15:41:20Z</time>
      </trkpt>
      <trkpt lat="45.70358" lon="3.77852">
        <ele>1424.5</ele>
        <time>2017-05-25T15:41:23Z</time>
      </trkpt>
      <trkpt lat="45.70367" lon="3.77857">
        <ele>1424</ele>
        <time>2017-05-25T15:41:25Z</time>
      </trkpt>
      <trkpt lat="45.70375" lon="3.77862">
        <ele>1423.699951</ele>
        <time>2017-05-25T15:41:27Z</time>
      </trkpt>
      <trkpt lat="45.70387" lon="3.7787">
        <ele>1422.699951</ele>
        <time>2017-05-25T15:41:30Z</time>
      </trkpt>
      <trkpt lat="45.70396" lon="3.77876">
        <ele>1422.099976</ele>
        <time>2017-05-25T15:41:32Z</time>
      </trkpt>
      <trkpt lat="45.70406" lon="3.77884">
        <ele>1421.199951</ele>
        <time>2017-05-25T15:41:35Z</time>
      </trkpt>
      <trkpt lat="45.70415" lon="3.77895">
        <ele>1420</ele>
        <time>2017-05-25T15:41:38Z</time>
      </trkpt>
      <trkpt lat="45.70425" lon="3.77903">
        <ele>1418.5</ele>
        <time>2017-05-25T15:41:42Z</time>
      </trkpt>
      <trkpt lat="45.70431" lon="3.77913">
        <ele>1417.5</ele>
        <time>2017-05-25T15:41:45Z</time>
      </trkpt>
      <trkpt lat="45.70436" lon="3.77927">
        <ele>1416.599976</ele>
        <time>2017-05-25T15:41:49Z</time>
      </trkpt>
      <trkpt lat="45.70441" lon="3.77939">
        <ele>1415.900024</ele>
        <time>2017-05-25T15:41:53Z</time>
      </trkpt>
      <trkpt lat="45.70446" lon="3.77951">
        <ele>1415.599976</ele>
        <time>2017-05-25T15:41:58Z</time>
      </trkpt>
      <trkpt lat="45.7045" lon="3.77964">
        <ele>1415.599976</ele>
        <time>2017-05-25T15:42:03Z</time>
      </trkpt>
      <trkpt lat="45.70454" lon="3.77976">
        <ele>1415.199951</ele>
        <time>2017-05-25T15:42:07Z</time>
      </trkpt>
      <trkpt lat="45.70458" lon="3.77989">
        <ele>1415.199951</ele>
        <time>2017-05-25T15:42:11Z</time>
      </trkpt>
      <trkpt lat="45.70462" lon="3.78004">
        <ele>1415.300049</ele>
        <time>2017-05-25T15:42:15Z</time>
      </trkpt>
      <trkpt lat="45.70467" lon="3.78017">
        <ele>1415.199951</ele>
        <time>2017-05-25T15:42:18Z</time>
      </trkpt>
      <trkpt lat="45.70471" lon="3.78032">
        <ele>1415.099976</ele>
        <time>2017-05-25T15:42:21Z</time>
      </trkpt>
      <trkpt lat="45.70474" lon="3.78044">
        <ele>1414.599976</ele>
        <time>2017-05-25T15:42:24Z</time>
      </trkpt>
      <trkpt lat="45.70478" lon="3.78057">
        <ele>1413.599976</ele>
        <time>2017-05-25T15:42:28Z</time>
      </trkpt>
      <trkpt lat="45.70483" lon="3.7807">
        <ele>1412.900024</ele>
        <time>2017-05-25T15:42:32Z</time>
      </trkpt>
      <trkpt lat="45.7049" lon="3.78083">
        <ele>1411.800049</ele>
        <time>2017-05-25T15:42:36Z</time>
      </trkpt>
      <trkpt lat="45.70496" lon="3.78095">
        <ele>1410.800049</ele>
        <time>2017-05-25T15:42:39Z</time>
      </trkpt>
      <trkpt lat="45.70504" lon="3.78105">
        <ele>1409.5</ele>
        <time>2017-05-25T15:42:42Z</time>
      </trkpt>
      <trkpt lat="45.70513" lon="3.78116">
        <ele>1408.300049</ele>
        <time>2017-05-25T15:42:45Z</time>
      </trkpt>
      <trkpt lat="45.70522" lon="3.78126">
        <ele>1406.900024</ele>
        <time>2017-05-25T15:42:48Z</time>
      </trkpt>
      <trkpt lat="45.70534" lon="3.78136">
        <ele>1405.699951</ele>
        <time>2017-05-25T15:42:51Z</time>
      </trkpt>
      <trkpt lat="45.70544" lon="3.78141">
        <ele>1404.599976</ele>
        <time>2017-05-25T15:42:53Z</time>
      </trkpt>
      <trkpt lat="45.70555" lon="3.78144">
        <ele>1403.699951</ele>
        <time>2017-05-25T15:42:55Z</time>
      </trkpt>
      <trkpt lat="45.70567" lon="3.78147">
        <ele>1401.900024</ele>
        <time>2017-05-25T15:42:57Z</time>
      </trkpt>
      <trkpt lat="45.70582" lon="3.78148">
        <ele>1399.900024</ele>
        <time>2017-05-25T15:42:59Z</time>
      </trkpt>
      <trkpt lat="45.70595" lon="3.78151">
        <ele>1398.400024</ele>
        <time>2017-05-25T15:43:01Z</time>
      </trkpt>
      <trkpt lat="45.70607" lon="3.78147">
        <ele>1396.800049</ele>
        <time>2017-05-25T15:43:03Z</time>
      </trkpt>
      <trkpt lat="45.7062" lon="3.78141">
        <ele>1395.300049</ele>
        <time>2017-05-25T15:43:05Z</time>
      </trkpt>
      <trkpt lat="45.70632" lon="3.78143">
        <ele>1394.099976</ele>
        <time>2017-05-25T15:43:07Z</time>
      </trkpt>
      <trkpt lat="45.70639" lon="3.78151">
        <ele>1393.599976</ele>
        <time>2017-05-25T15:43:09Z</time>
      </trkpt>
      <trkpt lat="45.70647" lon="3.78165">
        <ele>1393.199951</ele>
        <time>2017-05-25T15:43:12Z</time>
      </trkpt>
      <trkpt lat="45.70655" lon="3.78177">
        <ele>1393.599976</ele>
        <time>2017-05-25T15:43:16Z</time>
      </trkpt>
      <trkpt lat="45.70663" lon="3.78182">
        <ele>1393.800049</ele>
        <time>2017-05-25T15:43:19Z</time>
      </trkpt>
      <trkpt lat="45.70674" lon="3.78187">
        <ele>1394.699951</ele>
        <time>2017-05-25T15:43:23Z</time>
      </trkpt>
      <trkpt lat="45.70683" lon="3.78192">
        <ele>1395.400024</ele>
        <time>2017-05-25T15:43:27Z</time>
      </trkpt>
      <trkpt lat="45.70694" lon="3.78194">
        <ele>1395.900024</ele>
        <time>2017-05-25T15:43:32Z</time>
      </trkpt>
      <trkpt lat="45.70704" lon="3.78193">
        <ele>1396.300049</ele>
        <time>2017-05-25T15:43:37Z</time>
      </trkpt>
      <trkpt lat="45.70714" lon="3.78194">
        <ele>1396.400024</ele>
        <time>2017-05-25T15:43:42Z</time>
      </trkpt>
      <trkpt lat="45.70724" lon="3.78192">
        <ele>1396.699951</ele>
        <time>2017-05-25T15:43:47Z</time>
      </trkpt>
      <trkpt lat="45.70734" lon="3.78191">
        <ele>1397.300049</ele>
        <time>2017-05-25T15:43:52Z</time>
      </trkpt>
      <trkpt lat="45.70743" lon="3.78191">
        <ele>1397.599976</ele>
        <time>2017-05-25T15:43:56Z</time>
      </trkpt>
      <trkpt lat="45.70752" lon="3.78193">
        <ele>1397.5</ele>
        <time>2017-05-25T15:44:00Z</time>
      </trkpt>
      <trkpt lat="45.70761" lon="3.78193">
        <ele>1397.599976</ele>
        <time>2017-05-25T15:44:04Z</time>
      </trkpt>
      <trkpt lat="45.7077" lon="3.78189">
        <ele>1397.699951</ele>
        <time>2017-05-25T15:44:08Z</time>
      </trkpt>
      <trkpt lat="45.7078" lon="3.78186">
        <ele>1398</ele>
        <time>2017-05-25T15:44:12Z</time>
      </trkpt>
      <trkpt lat="45.7079" lon="3.78183">
        <ele>1398.199951</ele>
        <time>2017-05-25T15:44:16Z</time>
      </trkpt>
      <trkpt lat="45.70802" lon="3.7818">
        <ele>1398.599976</ele>
        <time>2017-05-25T15:44:20Z</time>
      </trkpt>
      <trkpt lat="45.70812" lon="3.78179">
        <ele>1398.599976</ele>
        <time>2017-05-25T15:44:23Z</time>
      </trkpt>
      <trkpt lat="45.70821" lon="3.7818">
        <ele>1398.199951</ele>
        <time>2017-05-25T15:44:26Z</time>
      </trkpt>
      <trkpt lat="45.70832" lon="3.78182">
        <ele>1397.599976</ele>
        <time>2017-05-25T15:44:31Z</time>
      </trkpt>
      <trkpt lat="45.70842" lon="3.78181">
        <ele>1396.199951</ele>
        <time>2017-05-25T15:44:47Z</time>
      </trkpt>
      <trkpt lat="45.70853" lon="3.7818">
        <ele>1395.900024</ele>
        <time>2017-05-25T15:44:51Z</time>
      </trkpt>
      <trkpt lat="45.70865" lon="3.78177">
        <ele>1395</ele>
        <time>2017-05-25T15:44:55Z</time>
      </trkpt>
      <trkpt lat="45.70877" lon="3.78178">
        <ele>1394.5</ele>
        <time>2017-05-25T15:44:58Z</time>
      </trkpt>
      <trkpt lat="45.70886" lon="3.7818">
        <ele>1394</ele>
        <time>2017-05-25T15:45:00Z</time>
      </trkpt>
      <trkpt lat="45.70896" lon="3.78181">
        <ele>1393.400024</ele>
        <time>2017-05-25T15:45:02Z</time>
      </trkpt>
      <trkpt lat="45.70907" lon="3.78182">
        <ele>1392.599976</ele>
        <time>2017-05-25T15:45:04Z</time>
      </trkpt>
      <trkpt lat="45.70918" lon="3.78184">
        <ele>1391.699951</ele>
        <time>2017-05-25T15:45:06Z</time>
      </trkpt>
      <trkpt lat="45.7093" lon="3.78189">
        <ele>1390.800049</ele>
        <time>2017-05-25T15:45:08Z</time>
      </trkpt>
      <trkpt lat="45.70943" lon="3.78197">
        <ele>1389.699951</ele>
        <time>2017-05-25T15:45:10Z</time>
      </trkpt>
      <trkpt lat="45.70956" lon="3.78204">
        <ele>1388.599976</ele>
        <time>2017-05-25T15:45:12Z</time>
      </trkpt>
      <trkpt lat="45.7097" lon="3.78209">
        <ele>1387.099976</ele>
        <time>2017-05-25T15:45:14Z</time>
      </trkpt>
      <trkpt lat="45.70984" lon="3.78213">
        <ele>1385.300049</ele>
        <time>2017-05-25T15:45:16Z</time>
      </trkpt>
      <trkpt lat="45.70996" lon="3.78217">
        <ele>1383.5</ele>
        <time>2017-05-25T15:45:18Z</time>
      </trkpt>
      <trkpt lat="45.71006" lon="3.78219">
        <ele>1382</ele>
        <time>2017-05-25T15:45:20Z</time>
      </trkpt>
      <trkpt lat="45.71016" lon="3.78221">
        <ele>1379.5</ele>
        <time>2017-05-25T15:45:23Z</time>
      </trkpt>
      <trkpt lat="45.71028" lon="3.78226">
        <ele>1377.699951</ele>
        <time>2017-05-25T15:45:26Z</time>
      </trkpt>
      <trkpt lat="45.71041" lon="3.78228">
        <ele>1376.699951</ele>
        <time>2017-05-25T15:45:28Z</time>
      </trkpt>
      <trkpt lat="45.71053" lon="3.7823">
        <ele>1376</ele>
        <time>2017-05-25T15:45:30Z</time>
      </trkpt>
      <trkpt lat="45.71066" lon="3.78231">
        <ele>1375.199951</ele>
        <time>2017-05-25T15:45:32Z</time>
      </trkpt>
      <trkpt lat="45.7108" lon="3.78234">
        <ele>1374.300049</ele>
        <time>2017-05-25T15:45:34Z</time>
      </trkpt>
      <trkpt lat="45.71094" lon="3.78239">
        <ele>1373.5</ele>
        <time>2017-05-25T15:45:36Z</time>
      </trkpt>
      <trkpt lat="45.71108" lon="3.78246">
        <ele>1372.800049</ele>
        <time>2017-05-25T15:45:38Z</time>
      </trkpt>
      <trkpt lat="45.7112" lon="3.78254">
        <ele>1372.5</ele>
        <time>2017-05-25T15:45:40Z</time>
      </trkpt>
      <trkpt lat="45.71132" lon="3.78257">
        <ele>1371.699951</ele>
        <time>2017-05-25T15:45:42Z</time>
      </trkpt>
      <trkpt lat="45.71143" lon="3.78251">
        <ele>1370.199951</ele>
        <time>2017-05-25T15:45:45Z</time>
      </trkpt>
      <trkpt lat="45.71152" lon="3.78243">
        <ele>1369</ele>
        <time>2017-05-25T15:45:48Z</time>
      </trkpt>
      <trkpt lat="45.71161" lon="3.78232">
        <ele>1368.300049</ele>
        <time>2017-05-25T15:45:51Z</time>
      </trkpt>
      <trkpt lat="45.71166" lon="3.78221">
        <ele>1367.800049</ele>
        <time>2017-05-25T15:45:53Z</time>
      </trkpt>
      <trkpt lat="45.71174" lon="3.78207">
        <ele>1366.699951</ele>
        <time>2017-05-25T15:45:56Z</time>
      </trkpt>
      <trkpt lat="45.71184" lon="3.78198">
        <ele>1365.400024</ele>
        <time>2017-05-25T15:46:00Z</time>
      </trkpt>
      <trkpt lat="45.71197" lon="3.782">
        <ele>1364.699951</ele>
        <time>2017-05-25T15:46:03Z</time>
      </trkpt>
      <trkpt lat="45.71207" lon="3.78197">
        <ele>1364.599976</ele>
        <time>2017-05-25T15:46:05Z</time>
      </trkpt>
      <trkpt lat="45.71218" lon="3.78189">
        <ele>1364.5</ele>
        <time>2017-05-25T15:46:08Z</time>
      </trkpt>
      <trkpt lat="45.71226" lon="3.78183">
        <ele>1364.199951</ele>
        <time>2017-05-25T15:46:10Z</time>
      </trkpt>
      <trkpt lat="45.71237" lon="3.78178">
        <ele>1364</ele>
        <time>2017-05-25T15:46:12Z</time>
      </trkpt>
      <trkpt lat="45.71247" lon="3.78172">
        <ele>1363.800049</ele>
        <time>2017-05-25T15:46:14Z</time>
      </trkpt>
      <trkpt lat="45.71257" lon="3.78165">
        <ele>1363.800049</ele>
        <time>2017-05-25T15:46:16Z</time>
      </trkpt>
      <trkpt lat="45.71267" lon="3.78157">
        <ele>1363.199951</ele>
        <time>2017-05-25T15:46:18Z</time>
      </trkpt>
      <trkpt lat="45.71278" lon="3.7815">
        <ele>1363.099976</ele>
        <time>2017-05-25T15:46:20Z</time>
      </trkpt>
      <trkpt lat="45.71288" lon="3.78143">
        <ele>1363.099976</ele>
        <time>2017-05-25T15:46:22Z</time>
      </trkpt>
      <trkpt lat="45.71299" lon="3.78138">
        <ele>1363.199951</ele>
        <time>2017-05-25T15:46:24Z</time>
      </trkpt>
      <trkpt lat="45.71311" lon="3.78133">
        <ele>1363</ele>
        <time>2017-05-25T15:46:26Z</time>
      </trkpt>
      <trkpt lat="45.7132" lon="3.78125">
        <ele>1362.900024</ele>
        <time>2017-05-25T15:46:28Z</time>
      </trkpt>
      <trkpt lat="45.7133" lon="3.78118">
        <ele>1362.900024</ele>
        <time>2017-05-25T15:46:30Z</time>
      </trkpt>
      <trkpt lat="45.7134" lon="3.78111">
        <ele>1362.900024</ele>
        <time>2017-05-25T15:46:32Z</time>
      </trkpt>
      <trkpt lat="45.71349" lon="3.78102">
        <ele>1362.900024</ele>
        <time>2017-05-25T15:46:34Z</time>
      </trkpt>
      <trkpt lat="45.71357" lon="3.78094">
        <ele>1362.800049</ele>
        <time>2017-05-25T15:46:36Z</time>
      </trkpt>
      <trkpt lat="45.71364" lon="3.78084">
        <ele>1362.900024</ele>
        <time>2017-05-25T15:46:38Z</time>
      </trkpt>
      <trkpt lat="45.71372" lon="3.78076">
        <ele>1363</ele>
        <time>2017-05-25T15:46:40Z</time>
      </trkpt>
      <trkpt lat="45.71379" lon="3.78066">
        <ele>1363.099976</ele>
        <time>2017-05-25T15:46:42Z</time>
      </trkpt>
      <trkpt lat="45.71385" lon="3.78055">
        <ele>1363.199951</ele>
        <time>2017-05-25T15:46:44Z</time>
      </trkpt>
      <trkpt lat="45.71391" lon="3.78042">
        <ele>1363.199951</ele>
        <time>2017-05-25T15:46:46Z</time>
      </trkpt>
      <trkpt lat="45.71396" lon="3.78029">
        <ele>1363.400024</ele>
        <time>2017-05-25T15:46:48Z</time>
      </trkpt>
      <trkpt lat="45.71402" lon="3.78016">
        <ele>1363.5</ele>
        <time>2017-05-25T15:46:50Z</time>
      </trkpt>
      <trkpt lat="45.71408" lon="3.78005">
        <ele>1363.5</ele>
        <time>2017-05-25T15:46:52Z</time>
      </trkpt>
      <trkpt lat="45.71416" lon="3.77995">
        <ele>1363.5</ele>
        <time>2017-05-25T15:46:54Z</time>
      </trkpt>
      <trkpt lat="45.71423" lon="3.77985">
        <ele>1363.5</ele>
        <time>2017-05-25T15:46:56Z</time>
      </trkpt>
      <trkpt lat="45.71429" lon="3.77974">
        <ele>1363.5</ele>
        <time>2017-05-25T15:46:58Z</time>
      </trkpt>
      <trkpt lat="45.71437" lon="3.77964">
        <ele>1363.5</ele>
        <time>2017-05-25T15:47:00Z</time>
      </trkpt>
      <trkpt lat="45.71443" lon="3.77954">
        <ele>1363.599976</ele>
        <time>2017-05-25T15:47:02Z</time>
      </trkpt>
      <trkpt lat="45.7145" lon="3.77944">
        <ele>1363.699951</ele>
        <time>2017-05-25T15:47:04Z</time>
      </trkpt>
      <trkpt lat="45.71456" lon="3.77933">
        <ele>1363.900024</ele>
        <time>2017-05-25T15:47:06Z</time>
      </trkpt>
      <trkpt lat="45.71461" lon="3.77922">
        <ele>1364.099976</ele>
        <time>2017-05-25T15:47:08Z</time>
      </trkpt>
      <trkpt lat="45.71464" lon="3.77908">
        <ele>1364.199951</ele>
        <time>2017-05-25T15:47:10Z</time>
      </trkpt>
      <trkpt lat="45.71467" lon="3.77889">
        <ele>1364.400024</ele>
        <time>2017-05-25T15:47:13Z</time>
      </trkpt>
      <trkpt lat="45.7147" lon="3.77872">
        <ele>1364.699951</ele>
        <time>2017-05-25T15:47:16Z</time>
      </trkpt>
      <trkpt lat="45.71473" lon="3.77855">
        <ele>1365.199951</ele>
        <time>2017-05-25T15:47:19Z</time>
      </trkpt>
      <trkpt lat="45.71474" lon="3.77838">
        <ele>1365.400024</ele>
        <time>2017-05-25T15:47:22Z</time>
      </trkpt>
      <trkpt lat="45.71479" lon="3.77823">
        <ele>1365.699951</ele>
        <time>2017-05-25T15:47:25Z</time>
      </trkpt>
      <trkpt lat="45.71485" lon="3.7781">
        <ele>1366.199951</ele>
        <time>2017-05-25T15:47:28Z</time>
      </trkpt>
      <trkpt lat="45.71491" lon="3.778">
        <ele>1366.699951</ele>
        <time>2017-05-25T15:47:31Z</time>
      </trkpt>
      <trkpt lat="45.715" lon="3.77795">
        <ele>1367.5</ele>
        <time>2017-05-25T15:47:34Z</time>
      </trkpt>
      <trkpt lat="45.71512" lon="3.77792">
        <ele>1368.300049</ele>
        <time>2017-05-25T15:47:38Z</time>
      </trkpt>
      <trkpt lat="45.71521" lon="3.77794">
        <ele>1369</ele>
        <time>2017-05-25T15:47:42Z</time>
      </trkpt>
      <trkpt lat="45.71531" lon="3.778">
        <ele>1369.800049</ele>
        <time>2017-05-25T15:47:47Z</time>
      </trkpt>
      <trkpt lat="45.71541" lon="3.77805">
        <ele>1370.300049</ele>
        <time>2017-05-25T15:47:51Z</time>
      </trkpt>
      <trkpt lat="45.71549" lon="3.77811">
        <ele>1370.599976</ele>
        <time>2017-05-25T15:47:55Z</time>
      </trkpt>
      <trkpt lat="45.71559" lon="3.77816">
        <ele>1370.699951</ele>
        <time>2017-05-25T15:47:58Z</time>
      </trkpt>
      <trkpt lat="45.71568" lon="3.77821">
        <ele>1371.400024</ele>
        <time>2017-05-25T15:48:02Z</time>
      </trkpt>
      <trkpt lat="45.71579" lon="3.77827">
        <ele>1371.699951</ele>
        <time>2017-05-25T15:48:05Z</time>
      </trkpt>
      <trkpt lat="45.71588" lon="3.77833">
        <ele>1371.699951</ele>
        <time>2017-05-25T15:48:08Z</time>
      </trkpt>
      <trkpt lat="45.71597" lon="3.77838">
        <ele>1372.099976</ele>
        <time>2017-05-25T15:48:11Z</time>
      </trkpt>
      <trkpt lat="45.71607" lon="3.77843">
        <ele>1372.599976</ele>
        <time>2017-05-25T15:48:14Z</time>
      </trkpt>
      <trkpt lat="45.71619" lon="3.77848">
        <ele>1372.599976</ele>
        <time>2017-05-25T15:48:18Z</time>
      </trkpt>
      <trkpt lat="45.71629" lon="3.77852">
        <ele>1372.599976</ele>
        <time>2017-05-25T15:48:21Z</time>
      </trkpt>
      <trkpt lat="45.7164" lon="3.77852">
        <ele>1372.400024</ele>
        <time>2017-05-25T15:48:25Z</time>
      </trkpt>
      <trkpt lat="45.71652" lon="3.77852">
        <ele>1372.400024</ele>
        <time>2017-05-25T15:48:28Z</time>
      </trkpt>
      <trkpt lat="45.71661" lon="3.77851">
        <ele>1372.599976</ele>
        <time>2017-05-25T15:48:30Z</time>
      </trkpt>
      <trkpt lat="45.7167" lon="3.77845">
        <ele>1372.699951</ele>
        <time>2017-05-25T15:48:33Z</time>
      </trkpt>
      <trkpt lat="45.7168" lon="3.77839">
        <ele>1372.800049</ele>
        <time>2017-05-25T15:48:36Z</time>
      </trkpt>
      <trkpt lat="45.7169" lon="3.77835">
        <ele>1372.900024</ele>
        <time>2017-05-25T15:48:39Z</time>
      </trkpt>
      <trkpt lat="45.717" lon="3.7783">
        <ele>1373.699951</ele>
        <time>2017-05-25T15:48:42Z</time>
      </trkpt>
      <trkpt lat="45.71709" lon="3.77818">
        <ele>1374.099976</ele>
        <time>2017-05-25T15:48:46Z</time>
      </trkpt>
      <trkpt lat="45.71718" lon="3.7781">
        <ele>1374.5</ele>
        <time>2017-05-25T15:48:49Z</time>
      </trkpt>
      <trkpt lat="45.71726" lon="3.77801">
        <ele>1374.699951</ele>
        <time>2017-05-25T15:48:52Z</time>
      </trkpt>
      <trkpt lat="45.71734" lon="3.77791">
        <ele>1374.900024</ele>
        <time>2017-05-25T15:48:55Z</time>
      </trkpt>
      <trkpt lat="45.71742" lon="3.77781">
        <ele>1375.400024</ele>
        <time>2017-05-25T15:48:58Z</time>
      </trkpt>
      <trkpt lat="45.7175" lon="3.7777">
        <ele>1375.800049</ele>
        <time>2017-05-25T15:49:01Z</time>
      </trkpt>
      <trkpt lat="45.71758" lon="3.7776">
        <ele>1376.300049</ele>
        <time>2017-05-25T15:49:04Z</time>
      </trkpt>
      <trkpt lat="45.71765" lon="3.77749">
        <ele>1376.699951</ele>
        <time>2017-05-25T15:49:07Z</time>
      </trkpt>
      <trkpt lat="45.71773" lon="3.77739">
        <ele>1377.199951</ele>
        <time>2017-05-25T15:49:10Z</time>
      </trkpt>
      <trkpt lat="45.71781" lon="3.7773">
        <ele>1377.5</ele>
        <time>2017-05-25T15:49:13Z</time>
      </trkpt>
      <trkpt lat="45.71791" lon="3.77722">
        <ele>1377.900024</ele>
        <time>2017-05-25T15:49:17Z</time>
      </trkpt>
      <trkpt lat="45.71801" lon="3.77716">
        <ele>1377.699951</ele>
        <time>2017-05-25T15:49:21Z</time>
      </trkpt>
      <trkpt lat="45.71813" lon="3.77711">
        <ele>1377.300049</ele>
        <time>2017-05-25T15:49:24Z</time>
      </trkpt>
      <trkpt lat="45.71822" lon="3.77707">
        <ele>1376.900024</ele>
        <time>2017-05-25T15:49:26Z</time>
      </trkpt>
      <trkpt lat="45.71831" lon="3.77702">
        <ele>1376.400024</ele>
        <time>2017-05-25T15:49:28Z</time>
      </trkpt>
      <trkpt lat="45.7184" lon="3.77695">
        <ele>1376</ele>
        <time>2017-05-25T15:49:30Z</time>
      </trkpt>
      <trkpt lat="45.71851" lon="3.7769">
        <ele>1375.599976</ele>
        <time>2017-05-25T15:49:32Z</time>
      </trkpt>
      <trkpt lat="45.71863" lon="3.77686">
        <ele>1375.199951</ele>
        <time>2017-05-25T15:49:34Z</time>
      </trkpt>
      <trkpt lat="45.71877" lon="3.77685">
        <ele>1375</ele>
        <time>2017-05-25T15:49:36Z</time>
      </trkpt>
      <trkpt lat="45.71891" lon="3.77685">
        <ele>1374.800049</ele>
        <time>2017-05-25T15:49:38Z</time>
      </trkpt>
      <trkpt lat="45.71903" lon="3.77684">
        <ele>1374.099976</ele>
        <time>2017-05-25T15:49:40Z</time>
      </trkpt>
      <trkpt lat="45.71916" lon="3.7768">
        <ele>1373.900024</ele>
        <time>2017-05-25T15:49:42Z</time>
      </trkpt>
      <trkpt lat="45.71926" lon="3.77676">
        <ele>1373.300049</ele>
        <time>2017-05-25T15:49:44Z</time>
      </trkpt>
      <trkpt lat="45.71938" lon="3.77671">
        <ele>1372.900024</ele>
        <time>2017-05-25T15:49:46Z</time>
      </trkpt>
      <trkpt lat="45.71948" lon="3.77667">
        <ele>1372.699951</ele>
        <time>2017-05-25T15:49:48Z</time>
      </trkpt>
      <trkpt lat="45.71962" lon="3.77664">
        <ele>1372.400024</ele>
        <time>2017-05-25T15:49:51Z</time>
      </trkpt>
      <trkpt lat="45.71972" lon="3.77664">
        <ele>1372.199951</ele>
        <time>2017-05-25T15:49:53Z</time>
      </trkpt>
      <trkpt lat="45.71983" lon="3.77663">
        <ele>1372</ele>
        <time>2017-05-25T15:49:55Z</time>
      </trkpt>
      <trkpt lat="45.71995" lon="3.77661">
        <ele>1371.900024</ele>
        <time>2017-05-25T15:49:58Z</time>
      </trkpt>
      <trkpt lat="45.72005" lon="3.77664">
        <ele>1371.900024</ele>
        <time>2017-05-25T15:50:00Z</time>
      </trkpt>
      <trkpt lat="45.72015" lon="3.7767">
        <ele>1371.599976</ele>
        <time>2017-05-25T15:50:02Z</time>
      </trkpt>
      <trkpt lat="45.72023" lon="3.77675">
        <ele>1371.300049</ele>
        <time>2017-05-25T15:50:04Z</time>
      </trkpt>
      <trkpt lat="45.72033" lon="3.77681">
        <ele>1370.900024</ele>
        <time>2017-05-25T15:50:06Z</time>
      </trkpt>
      <trkpt lat="45.72047" lon="3.7769">
        <ele>1370.599976</ele>
        <time>2017-05-25T15:50:08Z</time>
      </trkpt>
      <trkpt lat="45.72057" lon="3.77697">
        <ele>1370.400024</ele>
        <time>2017-05-25T15:50:10Z</time>
      </trkpt>
      <trkpt lat="45.72065" lon="3.77703">
        <ele>1370.099976</ele>
        <time>2017-05-25T15:50:12Z</time>
      </trkpt>
      <trkpt lat="45.72076" lon="3.77711">
        <ele>1369.900024</ele>
        <time>2017-05-25T15:50:14Z</time>
      </trkpt>
      <trkpt lat="45.72084" lon="3.77718">
        <ele>1369.800049</ele>
        <time>2017-05-25T15:50:16Z</time>
      </trkpt>
      <trkpt lat="45.72096" lon="3.77726">
        <ele>1369.699951</ele>
        <time>2017-05-25T15:50:19Z</time>
      </trkpt>
      <trkpt lat="45.72107" lon="3.77734">
        <ele>1369.900024</ele>
        <time>2017-05-25T15:50:21Z</time>
      </trkpt>
      <trkpt lat="45.72116" lon="3.77741">
        <ele>1370</ele>
        <time>2017-05-25T15:50:24Z</time>
      </trkpt>
      <trkpt lat="45.72127" lon="3.77749">
        <ele>1370.5</ele>
        <time>2017-05-25T15:50:28Z</time>
      </trkpt>
      <trkpt lat="45.72136" lon="3.77755">
        <ele>1371</ele>
        <time>2017-05-25T15:50:31Z</time>
      </trkpt>
      <trkpt lat="45.72145" lon="3.7776">
        <ele>1371.599976</ele>
        <time>2017-05-25T15:50:34Z</time>
      </trkpt>
      <trkpt lat="45.72156" lon="3.77765">
        <ele>1372.5</ele>
        <time>2017-05-25T15:50:38Z</time>
      </trkpt>
      <trkpt lat="45.72164" lon="3.77774">
        <ele>1373.400024</ele>
        <time>2017-05-25T15:50:42Z</time>
      </trkpt>
      <trkpt lat="45.72173" lon="3.77785">
        <ele>1374.199951</ele>
        <time>2017-05-25T15:50:46Z</time>
      </trkpt>
      <trkpt lat="45.72183" lon="3.77795">
        <ele>1374.5</ele>
        <time>2017-05-25T15:50:49Z</time>
      </trkpt>
      <trkpt lat="45.72194" lon="3.77805">
        <ele>1375.099976</ele>
        <time>2017-05-25T15:50:52Z</time>
      </trkpt>
      <trkpt lat="45.72204" lon="3.77812">
        <ele>1375.5</ele>
        <time>2017-05-25T15:50:55Z</time>
      </trkpt>
      <trkpt lat="45.72216" lon="3.77813">
        <ele>1376.199951</ele>
        <time>2017-05-25T15:50:58Z</time>
      </trkpt>
      <trkpt lat="45.72224" lon="3.7781">
        <ele>1376.699951</ele>
        <time>2017-05-25T15:51:01Z</time>
      </trkpt>
      <trkpt lat="45.72233" lon="3.77804">
        <ele>1377.099976</ele>
        <time>2017-05-25T15:51:05Z</time>
      </trkpt>
      <trkpt lat="45.72243" lon="3.77797">
        <ele>1377.199951</ele>
        <time>2017-05-25T15:51:09Z</time>
      </trkpt>
      <trkpt lat="45.72252" lon="3.77791">
        <ele>1377.199951</ele>
        <time>2017-05-25T15:51:13Z</time>
      </trkpt>
      <trkpt lat="45.72261" lon="3.77784">
        <ele>1377.199951</ele>
        <time>2017-05-25T15:51:18Z</time>
      </trkpt>
      <trkpt lat="45.72271" lon="3.77778">
        <ele>1377.300049</ele>
        <time>2017-05-25T15:51:22Z</time>
      </trkpt>
      <trkpt lat="45.72279" lon="3.77772">
        <ele>1377</ele>
        <time>2017-05-25T15:51:26Z</time>
      </trkpt>
      <trkpt lat="45.72288" lon="3.77767">
        <ele>1376.800049</ele>
        <time>2017-05-25T15:51:30Z</time>
      </trkpt>
      <trkpt lat="45.72297" lon="3.77761">
        <ele>1376.699951</ele>
        <time>2017-05-25T15:51:34Z</time>
      </trkpt>
      <trkpt lat="45.72307" lon="3.77753">
        <ele>1376.300049</ele>
        <time>2017-05-25T15:51:38Z</time>
      </trkpt>
      <trkpt lat="45.72316" lon="3.77746">
        <ele>1376.199951</ele>
        <time>2017-05-25T15:51:41Z</time>
      </trkpt>
      <trkpt lat="45.72324" lon="3.77737">
        <ele>1375.900024</ele>
        <time>2017-05-25T15:51:44Z</time>
      </trkpt>
      <trkpt lat="45.72334" lon="3.77729">
        <ele>1375.5</ele>
        <time>2017-05-25T15:51:47Z</time>
      </trkpt>
      <trkpt lat="45.72346" lon="3.77719">
        <ele>1375.300049</ele>
        <time>2017-05-25T15:51:50Z</time>
      </trkpt>
      <trkpt lat="45.72357" lon="3.77715">
        <ele>1374.900024</ele>
        <time>2017-05-25T15:51:52Z</time>
      </trkpt>
      <trkpt lat="45.72368" lon="3.77711">
        <ele>1374.199951</ele>
        <time>2017-05-25T15:51:54Z</time>
      </trkpt>
      <trkpt lat="45.72381" lon="3.77707">
        <ele>1373</ele>
        <time>2017-05-25T15:51:56Z</time>
      </trkpt>
      <trkpt lat="45.724" lon="3.77702">
        <ele>1373.400024</ele>
        <time>2017-05-25T15:51:59Z</time>
      </trkpt>
      <trkpt lat="45.72417" lon="3.77698">
        <ele>1372</ele>
        <time>2017-05-25T15:52:02Z</time>
      </trkpt>
      <trkpt lat="45.72438" lon="3.77691">
        <ele>1371</ele>
        <time>2017-05-25T15:52:06Z</time>
      </trkpt>
      <trkpt lat="45.7245" lon="3.77685">
        <ele>1371</ele>
        <time>2017-05-25T15:52:09Z</time>
      </trkpt>
      <trkpt lat="45.72462" lon="3.77681">
        <ele>1370</ele>
        <time>2017-05-25T15:52:11Z</time>
      </trkpt>
      <trkpt lat="45.7249" lon="3.77675">
        <ele>1369</ele>
        <time>2017-05-25T15:52:15Z</time>
      </trkpt>
      <trkpt lat="45.72514" lon="3.77672">
        <ele>1368</ele>
        <time>2017-05-25T15:52:19Z</time>
      </trkpt>
      <trkpt lat="45.72539" lon="3.77673">
        <ele>1367</ele>
        <time>2017-05-25T15:52:23Z</time>
      </trkpt>
      <trkpt lat="45.72564" lon="3.77675">
        <ele>1367</ele>
        <time>2017-05-25T15:52:27Z</time>
      </trkpt>
      <trkpt lat="45.72588" lon="3.77678">
        <ele>1366</ele>
        <time>2017-05-25T15:52:31Z</time>
      </trkpt>
      <trkpt lat="45.72612" lon="3.77681">
        <ele>1365</ele>
        <time>2017-05-25T15:52:35Z</time>
      </trkpt>
      <trkpt lat="45.72635" lon="3.77685">
        <ele>1364</ele>
        <time>2017-05-25T15:52:39Z</time>
      </trkpt>
      <trkpt lat="45.72655" lon="3.77688">
        <ele>1364.599976</ele>
        <time>2017-05-25T15:52:42Z</time>
      </trkpt>
      <trkpt lat="45.72667" lon="3.7769">
        <ele>1363</ele>
        <time>2017-05-25T15:52:44Z</time>
      </trkpt>
      <trkpt lat="45.72692" lon="3.77693">
        <ele>1363</ele>
        <time>2017-05-25T15:52:48Z</time>
      </trkpt>
      <trkpt lat="45.72711" lon="3.77695">
        <ele>1363</ele>
        <time>2017-05-25T15:52:51Z</time>
      </trkpt>
      <trkpt lat="45.72723" lon="3.77697">
        <ele>1362.699951</ele>
        <time>2017-05-25T15:52:53Z</time>
      </trkpt>
      <trkpt lat="45.72735" lon="3.77699">
        <ele>1362.199951</ele>
        <time>2017-05-25T15:52:55Z</time>
      </trkpt>
      <trkpt lat="45.72746" lon="3.77702">
        <ele>1361.699951</ele>
        <time>2017-05-25T15:52:57Z</time>
      </trkpt>
      <trkpt lat="45.72757" lon="3.77708">
        <ele>1360.699951</ele>
        <time>2017-05-25T15:52:59Z</time>
      </trkpt>
      <trkpt lat="45.7277" lon="3.77715">
        <ele>1360.300049</ele>
        <time>2017-05-25T15:53:01Z</time>
      </trkpt>
      <trkpt lat="45.72782" lon="3.77721">
        <ele>1359.5</ele>
        <time>2017-05-25T15:53:03Z</time>
      </trkpt>
      <trkpt lat="45.72793" lon="3.77729">
        <ele>1359.099976</ele>
        <time>2017-05-25T15:53:05Z</time>
      </trkpt>
      <trkpt lat="45.72803" lon="3.77736">
        <ele>1358.599976</ele>
        <time>2017-05-25T15:53:07Z</time>
      </trkpt>
      <trkpt lat="45.72813" lon="3.77745">
        <ele>1358</ele>
        <time>2017-05-25T15:53:09Z</time>
      </trkpt>
      <trkpt lat="45.72821" lon="3.77755">
        <ele>1357.400024</ele>
        <time>2017-05-25T15:53:11Z</time>
      </trkpt>
      <trkpt lat="45.7283" lon="3.77768">
        <ele>1356.900024</ele>
        <time>2017-05-25T15:53:13Z</time>
      </trkpt>
      <trkpt lat="45.7284" lon="3.77781">
        <ele>1356.599976</ele>
        <time>2017-05-25T15:53:15Z</time>
      </trkpt>
      <trkpt lat="45.7285" lon="3.77792">
        <ele>1356</ele>
        <time>2017-05-25T15:53:17Z</time>
      </trkpt>
      <trkpt lat="45.72866" lon="3.77808">
        <ele>1355.5</ele>
        <time>2017-05-25T15:53:20Z</time>
      </trkpt>
      <trkpt lat="45.72878" lon="3.77819">
        <ele>1355.099976</ele>
        <time>2017-05-25T15:53:22Z</time>
      </trkpt>
      <trkpt lat="45.72888" lon="3.7783">
        <ele>1354.699951</ele>
        <time>2017-05-25T15:53:24Z</time>
      </trkpt>
      <trkpt lat="45.72896" lon="3.77836">
        <ele>1354.599976</ele>
        <time>2017-05-25T15:53:25Z</time>
      </trkpt>
      <trkpt lat="45.72909" lon="3.77847">
        <ele>1354.099976</ele>
        <time>2017-05-25T15:53:27Z</time>
      </trkpt>
      <trkpt lat="45.7292" lon="3.77857">
        <ele>1353.699951</ele>
        <time>2017-05-25T15:53:29Z</time>
      </trkpt>
      <trkpt lat="45.7293" lon="3.77867">
        <ele>1353.400024</ele>
        <time>2017-05-25T15:53:31Z</time>
      </trkpt>
      <trkpt lat="45.72941" lon="3.77876">
        <ele>1352.900024</ele>
        <time>2017-05-25T15:53:33Z</time>
      </trkpt>
      <trkpt lat="45.72951" lon="3.77885">
        <ele>1352.400024</ele>
        <time>2017-05-25T15:53:35Z</time>
      </trkpt>
      <trkpt lat="45.7296" lon="3.77895">
        <ele>1351.900024</ele>
        <time>2017-05-25T15:53:37Z</time>
      </trkpt>
      <trkpt lat="45.72967" lon="3.77903">
        <ele>1351.300049</ele>
        <time>2017-05-25T15:53:39Z</time>
      </trkpt>
      <trkpt lat="45.72977" lon="3.77912">
        <ele>1350.800049</ele>
        <time>2017-05-25T15:53:41Z</time>
      </trkpt>
      <trkpt lat="45.72984" lon="3.77922">
        <ele>1349.599976</ele>
        <time>2017-05-25T15:53:43Z</time>
      </trkpt>
      <trkpt lat="45.72992" lon="3.77933">
        <ele>1348.599976</ele>
        <time>2017-05-25T15:53:45Z</time>
      </trkpt>
      <trkpt lat="45.73003" lon="3.77944">
        <ele>1348.199951</ele>
        <time>2017-05-25T15:53:47Z</time>
      </trkpt>
      <trkpt lat="45.73014" lon="3.77953">
        <ele>1347.800049</ele>
        <time>2017-05-25T15:53:49Z</time>
      </trkpt>
      <trkpt lat="45.73028" lon="3.77956">
        <ele>1346</ele>
        <time>2017-05-25T15:53:51Z</time>
      </trkpt>
      <trkpt lat="45.73052" lon="3.77956">
        <ele>1346.099976</ele>
        <time>2017-05-25T15:53:54Z</time>
      </trkpt>
      <trkpt lat="45.73067" lon="3.77949">
        <ele>1346</ele>
        <time>2017-05-25T15:53:56Z</time>
      </trkpt>
      <trkpt lat="45.73079" lon="3.77938">
        <ele>1345.400024</ele>
        <time>2017-05-25T15:53:58Z</time>
      </trkpt>
      <trkpt lat="45.73089" lon="3.77924">
        <ele>1344.699951</ele>
        <time>2017-05-25T15:54:00Z</time>
      </trkpt>
      <trkpt lat="45.73098" lon="3.7791">
        <ele>1344</ele>
        <time>2017-05-25T15:54:02Z</time>
      </trkpt>
      <trkpt lat="45.73108" lon="3.77895">
        <ele>1343.199951</ele>
        <time>2017-05-25T15:54:04Z</time>
      </trkpt>
      <trkpt lat="45.73116" lon="3.7788">
        <ele>1342.699951</ele>
        <time>2017-05-25T15:54:06Z</time>
      </trkpt>
      <trkpt lat="45.73123" lon="3.77869">
        <ele>1341.900024</ele>
        <time>2017-05-25T15:54:08Z</time>
      </trkpt>
      <trkpt lat="45.73129" lon="3.77858">
        <ele>1340.800049</ele>
        <time>2017-05-25T15:54:13Z</time>
      </trkpt>
      <trkpt lat="45.73125" lon="3.77873">
        <ele>1340</ele>
        <time>2017-05-25T15:54:23Z</time>
      </trkpt>
      <trkpt lat="45.7312" lon="3.77888">
        <ele>1340</ele>
        <time>2017-05-25T15:54:27Z</time>
      </trkpt>
      <trkpt lat="45.73115" lon="3.77902">
        <ele>1340.199951</ele>
        <time>2017-05-25T15:54:31Z</time>
      </trkpt>
      <trkpt lat="45.73115" lon="3.77917">
        <ele>1340.5</ele>
        <time>2017-05-25T15:54:35Z</time>
      </trkpt>
      <trkpt lat="45.73117" lon="3.7793">
        <ele>1340.900024</ele>
        <time>2017-05-25T15:54:39Z</time>
      </trkpt>
      <trkpt lat="45.73119" lon="3.77944">
        <ele>1341.699951</ele>
        <time>2017-05-25T15:54:45Z</time>
      </trkpt>
      <trkpt lat="45.73122" lon="3.77957">
        <ele>1342.199951</ele>
        <time>2017-05-25T15:54:50Z</time>
      </trkpt>
      <trkpt lat="45.73124" lon="3.7797">
        <ele>1343.099976</ele>
        <time>2017-05-25T15:54:55Z</time>
      </trkpt>
      <trkpt lat="45.73134" lon="3.77972">
        <ele>1343.699951</ele>
        <time>2017-05-25T15:55:02Z</time>
      </trkpt>
      <trkpt lat="45.73141" lon="3.77963">
        <ele>1343.800049</ele>
        <time>2017-05-25T15:55:06Z</time>
      </trkpt>
      <trkpt lat="45.7315" lon="3.77955">
        <ele>1343.800049</ele>
        <time>2017-05-25T15:55:10Z</time>
      </trkpt>
      <trkpt lat="45.73159" lon="3.77948">
        <ele>1343.800049</ele>
        <time>2017-05-25T15:55:14Z</time>
      </trkpt>
      <trkpt lat="45.73168" lon="3.77943">
        <ele>1344</ele>
        <time>2017-05-25T15:55:18Z</time>
      </trkpt>
      <trkpt lat="45.73178" lon="3.77937">
        <ele>1344.099976</ele>
        <time>2017-05-25T15:55:22Z</time>
      </trkpt>
      <trkpt lat="45.73189" lon="3.77933">
        <ele>1344.599976</ele>
        <time>2017-05-25T15:55:26Z</time>
      </trkpt>
      <trkpt lat="45.73199" lon="3.7793">
        <ele>1345.199951</ele>
        <time>2017-05-25T15:55:30Z</time>
      </trkpt>
      <trkpt lat="45.73209" lon="3.77927">
        <ele>1345.599976</ele>
        <time>2017-05-25T15:55:34Z</time>
      </trkpt>
      <trkpt lat="45.73219" lon="3.77923">
        <ele>1346</ele>
        <time>2017-05-25T15:55:39Z</time>
      </trkpt>
      <trkpt lat="45.73229" lon="3.77916">
        <ele>1346.400024</ele>
        <time>2017-05-25T15:55:44Z</time>
      </trkpt>
      <trkpt lat="45.73238" lon="3.77913">
        <ele>1346.599976</ele>
        <time>2017-05-25T15:55:48Z</time>
      </trkpt>
      <trkpt lat="45.73246" lon="3.77902">
        <ele>1346.800049</ele>
        <time>2017-05-25T15:55:54Z</time>
      </trkpt>
      <trkpt lat="45.73254" lon="3.77892">
        <ele>1347</ele>
        <time>2017-05-25T15:55:59Z</time>
      </trkpt>
      <trkpt lat="45.73262" lon="3.77885">
        <ele>1347.099976</ele>
        <time>2017-05-25T15:56:03Z</time>
      </trkpt>
      <trkpt lat="45.73271" lon="3.77879">
        <ele>1347.300049</ele>
        <time>2017-05-25T15:56:07Z</time>
      </trkpt>
      <trkpt lat="45.7328" lon="3.7787">
        <ele>1347.099976</ele>
        <time>2017-05-25T15:56:11Z</time>
      </trkpt>
      <trkpt lat="45.73288" lon="3.77867">
        <ele>1347.300049</ele>
        <time>2017-05-25T15:56:15Z</time>
      </trkpt>
      <trkpt lat="45.733" lon="3.77862">
        <ele>1347.5</ele>
        <time>2017-05-25T15:56:20Z</time>
      </trkpt>
      <trkpt lat="45.73308" lon="3.77855">
        <ele>1347.199951</ele>
        <time>2017-05-25T15:56:24Z</time>
      </trkpt>
      <trkpt lat="45.73316" lon="3.77847">
        <ele>1346.800049</ele>
        <time>2017-05-25T15:56:28Z</time>
      </trkpt>
      <trkpt lat="45.73326" lon="3.77839">
        <ele>1346.900024</ele>
        <time>2017-05-25T15:56:32Z</time>
      </trkpt>
      <trkpt lat="45.73334" lon="3.77831">
        <ele>1347</ele>
        <time>2017-05-25T15:56:37Z</time>
      </trkpt>
      <trkpt lat="45.73343" lon="3.77827">
        <ele>1347.5</ele>
        <time>2017-05-25T15:56:42Z</time>
      </trkpt>
      <trkpt lat="45.73353" lon="3.77819">
        <ele>1347.699951</ele>
        <time>2017-05-25T15:56:46Z</time>
      </trkpt>
      <trkpt lat="45.73362" lon="3.77811">
        <ele>1348.099976</ele>
        <time>2017-05-25T15:56:49Z</time>
      </trkpt>
      <trkpt lat="45.7337" lon="3.778">
        <ele>1348.5</ele>
        <time>2017-05-25T15:56:53Z</time>
      </trkpt>
      <trkpt lat="45.7338" lon="3.77791">
        <ele>1348.900024</ele>
        <time>2017-05-25T15:56:57Z</time>
      </trkpt>
      <trkpt lat="45.73388" lon="3.77783">
        <ele>1349.199951</ele>
        <time>2017-05-25T15:57:01Z</time>
      </trkpt>
      <trkpt lat="45.73396" lon="3.77771">
        <ele>1349.300049</ele>
        <time>2017-05-25T15:57:05Z</time>
      </trkpt>
      <trkpt lat="45.73404" lon="3.77759">
        <ele>1349.699951</ele>
        <time>2017-05-25T15:57:09Z</time>
      </trkpt>
      <trkpt lat="45.73413" lon="3.77753">
        <ele>1349.900024</ele>
        <time>2017-05-25T15:57:12Z</time>
      </trkpt>
      <trkpt lat="45.73422" lon="3.77748">
        <ele>1349.699951</ele>
        <time>2017-05-25T15:57:15Z</time>
      </trkpt>
      <trkpt lat="45.73433" lon="3.77748">
        <ele>1349.5</ele>
        <time>2017-05-25T15:57:19Z</time>
      </trkpt>
      <trkpt lat="45.73442" lon="3.77752">
        <ele>1349.099976</ele>
        <time>2017-05-25T15:57:22Z</time>
      </trkpt>
      <trkpt lat="45.73452" lon="3.77759">
        <ele>1348.699951</ele>
        <time>2017-05-25T15:57:25Z</time>
      </trkpt>
      <trkpt lat="45.73461" lon="3.77769">
        <ele>1348.300049</ele>
        <time>2017-05-25T15:57:28Z</time>
      </trkpt>
      <trkpt lat="45.73468" lon="3.77781">
        <ele>1347.599976</ele>
        <time>2017-05-25T15:57:31Z</time>
      </trkpt>
      <trkpt lat="45.73476" lon="3.77789">
        <ele>1346.699951</ele>
        <time>2017-05-25T15:57:34Z</time>
      </trkpt>
      <trkpt lat="45.73487" lon="3.77793">
        <ele>1345.599976</ele>
        <time>2017-05-25T15:57:37Z</time>
      </trkpt>
      <trkpt lat="45.73496" lon="3.77801">
        <ele>1344.400024</ele>
        <time>2017-05-25T15:57:40Z</time>
      </trkpt>
      <trkpt lat="45.73505" lon="3.77807">
        <ele>1343.5</ele>
        <time>2017-05-25T15:57:42Z</time>
      </trkpt>
      <trkpt lat="45.73514" lon="3.7781">
        <ele>1342.5</ele>
        <time>2017-05-25T15:57:44Z</time>
      </trkpt>
      <trkpt lat="45.73524" lon="3.77807">
        <ele>1340.400024</ele>
        <time>2017-05-25T15:57:47Z</time>
      </trkpt>
      <trkpt lat="45.73532" lon="3.77801">
        <ele>1339.900024</ele>
        <time>2017-05-25T15:57:51Z</time>
      </trkpt>
      <trkpt lat="45.73541" lon="3.77801">
        <ele>1339.400024</ele>
        <time>2017-05-25T15:57:59Z</time>
      </trkpt>
      <trkpt lat="45.73553" lon="3.77801">
        <ele>1339.300049</ele>
        <time>2017-05-25T15:58:03Z</time>
      </trkpt>
      <trkpt lat="45.73563" lon="3.778">
        <ele>1339.199951</ele>
        <time>2017-05-25T15:58:06Z</time>
      </trkpt>
      <trkpt lat="45.73575" lon="3.77796">
        <ele>1338.699951</ele>
        <time>2017-05-25T15:58:09Z</time>
      </trkpt>
      <trkpt lat="45.73586" lon="3.77794">
        <ele>1337.400024</ele>
        <time>2017-05-25T15:58:12Z</time>
      </trkpt>
      <trkpt lat="45.73596" lon="3.77791">
        <ele>1337.5</ele>
        <time>2017-05-25T15:58:15Z</time>
      </trkpt>
      <trkpt lat="45.73605" lon="3.77791">
        <ele>1337.5</ele>
        <time>2017-05-25T15:58:17Z</time>
      </trkpt>
      <trkpt lat="45.73616" lon="3.77785">
        <ele>1337.099976</ele>
        <time>2017-05-25T15:58:20Z</time>
      </trkpt>
      <trkpt lat="45.73627" lon="3.77779">
        <ele>1336.900024</ele>
        <time>2017-05-25T15:58:23Z</time>
      </trkpt>
      <trkpt lat="45.73638" lon="3.77777">
        <ele>1337.099976</ele>
        <time>2017-05-25T15:58:26Z</time>
      </trkpt>
      <trkpt lat="45.73649" lon="3.77777">
        <ele>1337</ele>
        <time>2017-05-25T15:58:30Z</time>
      </trkpt>
      <trkpt lat="45.73659" lon="3.77778">
        <ele>1336.699951</ele>
        <time>2017-05-25T15:58:33Z</time>
      </trkpt>
      <trkpt lat="45.73669" lon="3.77777">
        <ele>1336.400024</ele>
        <time>2017-05-25T15:58:36Z</time>
      </trkpt>
      <trkpt lat="45.73679" lon="3.77775">
        <ele>1336.199951</ele>
        <time>2017-05-25T15:58:38Z</time>
      </trkpt>
      <trkpt lat="45.73688" lon="3.77774">
        <ele>1336.199951</ele>
        <time>2017-05-25T15:58:41Z</time>
      </trkpt>
      <trkpt lat="45.737" lon="3.77777">
        <ele>1336</ele>
        <time>2017-05-25T15:58:45Z</time>
      </trkpt>
      <trkpt lat="45.7371" lon="3.77783">
        <ele>1336</ele>
        <time>2017-05-25T15:58:48Z</time>
      </trkpt>
      <trkpt lat="45.73719" lon="3.77788">
        <ele>1335.800049</ele>
        <time>2017-05-25T15:58:52Z</time>
      </trkpt>
      <trkpt lat="45.73729" lon="3.77792">
        <ele>1335.400024</ele>
        <time>2017-05-25T15:58:56Z</time>
      </trkpt>
      <trkpt lat="45.73739" lon="3.77796">
        <ele>1335.400024</ele>
        <time>2017-05-25T15:58:59Z</time>
      </trkpt>
      <trkpt lat="45.73748" lon="3.778">
        <ele>1335.199951</ele>
        <time>2017-05-25T15:59:02Z</time>
      </trkpt>
      <trkpt lat="45.73759" lon="3.77804">
        <ele>1335.599976</ele>
        <time>2017-05-25T15:59:05Z</time>
      </trkpt>
      <trkpt lat="45.73769" lon="3.77811">
        <ele>1336</ele>
        <time>2017-05-25T15:59:08Z</time>
      </trkpt>
      <trkpt lat="45.73779" lon="3.77821">
        <ele>1336.5</ele>
        <time>2017-05-25T15:59:11Z</time>
      </trkpt>
      <trkpt lat="45.73789" lon="3.77823">
        <ele>1336.599976</ele>
        <time>2017-05-25T15:59:14Z</time>
      </trkpt>
      <trkpt lat="45.73801" lon="3.77823">
        <ele>1337.099976</ele>
        <time>2017-05-25T15:59:18Z</time>
      </trkpt>
      <trkpt lat="45.73811" lon="3.77823">
        <ele>1337.5</ele>
        <time>2017-05-25T15:59:22Z</time>
      </trkpt>
      <trkpt lat="45.73823" lon="3.77823">
        <ele>1337.599976</ele>
        <time>2017-05-25T15:59:26Z</time>
      </trkpt>
      <trkpt lat="45.73833" lon="3.77824">
        <ele>1337.5</ele>
        <time>2017-05-25T15:59:29Z</time>
      </trkpt>
      <trkpt lat="45.73843" lon="3.77824">
        <ele>1337.699951</ele>
        <time>2017-05-25T15:59:33Z</time>
      </trkpt>
      <trkpt lat="45.73853" lon="3.77825">
        <ele>1337.599976</ele>
        <time>2017-05-25T15:59:36Z</time>
      </trkpt>
      <trkpt lat="45.73862" lon="3.7783">
        <ele>1337.300049</ele>
        <time>2017-05-25T15:59:39Z</time>
      </trkpt>
      <trkpt lat="45.73872" lon="3.77833">
        <ele>1336.900024</ele>
        <time>2017-05-25T15:59:42Z</time>
      </trkpt>
      <trkpt lat="45.73881" lon="3.77835">
        <ele>1334.800049</ele>
        <time>2017-05-25T15:59:57Z</time>
      </trkpt>
      <trkpt lat="45.73891" lon="3.77835">
        <ele>1334.599976</ele>
        <time>2017-05-25T16:00:08Z</time>
      </trkpt>
      <trkpt lat="45.739" lon="3.77829">
        <ele>1334.400024</ele>
        <time>2017-05-25T16:00:12Z</time>
      </trkpt>
      <trkpt lat="45.73911" lon="3.77827">
        <ele>1334</ele>
        <time>2017-05-25T16:00:15Z</time>
      </trkpt>
      <trkpt lat="45.73921" lon="3.77829">
        <ele>1333.599976</ele>
        <time>2017-05-25T16:00:17Z</time>
      </trkpt>
      <trkpt lat="45.73931" lon="3.77831">
        <ele>1332.400024</ele>
        <time>2017-05-25T16:00:20Z</time>
      </trkpt>
      <trkpt lat="45.73941" lon="3.77832">
        <ele>1331</ele>
        <time>2017-05-25T16:00:23Z</time>
      </trkpt>
      <trkpt lat="45.73952" lon="3.77834">
        <ele>1329</ele>
        <time>2017-05-25T16:00:27Z</time>
      </trkpt>
      <trkpt lat="45.73963" lon="3.77839">
        <ele>1327.699951</ele>
        <time>2017-05-25T16:00:30Z</time>
      </trkpt>
      <trkpt lat="45.73974" lon="3.77841">
        <ele>1325.199951</ele>
        <time>2017-05-25T16:00:33Z</time>
      </trkpt>
      <trkpt lat="45.73984" lon="3.77844">
        <ele>1323.800049</ele>
        <time>2017-05-25T16:00:36Z</time>
      </trkpt>
      <trkpt lat="45.73995" lon="3.77846">
        <ele>1322.199951</ele>
        <time>2017-05-25T16:00:39Z</time>
      </trkpt>
      <trkpt lat="45.74006" lon="3.77848">
        <ele>1320.099976</ele>
        <time>2017-05-25T16:00:42Z</time>
      </trkpt>
      <trkpt lat="45.74017" lon="3.77852">
        <ele>1319</ele>
        <time>2017-05-25T16:00:44Z</time>
      </trkpt>
      <trkpt lat="45.74028" lon="3.77858">
        <ele>1318</ele>
        <time>2017-05-25T16:00:46Z</time>
      </trkpt>
      <trkpt lat="45.74037" lon="3.77865">
        <ele>1317</ele>
        <time>2017-05-25T16:00:48Z</time>
      </trkpt>
      <trkpt lat="45.74044" lon="3.77873">
        <ele>1316</ele>
        <time>2017-05-25T16:00:50Z</time>
      </trkpt>
      <trkpt lat="45.74058" lon="3.77873">
        <ele>1314.400024</ele>
        <time>2017-05-25T16:00:53Z</time>
      </trkpt>
      <trkpt lat="45.74069" lon="3.77875">
        <ele>1313.099976</ele>
        <time>2017-05-25T16:00:55Z</time>
      </trkpt>
      <trkpt lat="45.74084" lon="3.77878">
        <ele>1312.199951</ele>
        <time>2017-05-25T16:00:57Z</time>
      </trkpt>
      <trkpt lat="45.74093" lon="3.7788">
        <ele>1311.5</ele>
        <time>2017-05-25T16:00:59Z</time>
      </trkpt>
      <trkpt lat="45.74103" lon="3.77881">
        <ele>1310.5</ele>
        <time>2017-05-25T16:01:01Z</time>
      </trkpt>
      <trkpt lat="45.74116" lon="3.77882">
        <ele>1309.300049</ele>
        <time>2017-05-25T16:01:04Z</time>
      </trkpt>
      <trkpt lat="45.74126" lon="3.77887">
        <ele>1308.599976</ele>
        <time>2017-05-25T16:01:06Z</time>
      </trkpt>
      <trkpt lat="45.74136" lon="3.77894">
        <ele>1306</ele>
        <time>2017-05-25T16:01:09Z</time>
      </trkpt>
      <trkpt lat="45.74145" lon="3.77901">
        <ele>1305.699951</ele>
        <time>2017-05-25T16:01:12Z</time>
      </trkpt>
      <trkpt lat="45.74155" lon="3.77906">
        <ele>1303</ele>
        <time>2017-05-25T16:01:18Z</time>
      </trkpt>
      <trkpt lat="45.74163" lon="3.7791">
        <ele>1303.099976</ele>
        <time>2017-05-25T16:01:58Z</time>
      </trkpt>
      <trkpt lat="45.74173" lon="3.77911">
        <ele>1302</ele>
        <time>2017-05-25T16:02:33Z</time>
      </trkpt>
      <trkpt lat="45.74182" lon="3.77913">
        <ele>1302.900024</ele>
        <time>2017-05-25T16:02:36Z</time>
      </trkpt>
      <trkpt lat="45.7419" lon="3.77925">
        <ele>1302.599976</ele>
        <time>2017-05-25T16:02:39Z</time>
      </trkpt>
      <trkpt lat="45.74199" lon="3.7794">
        <ele>1302.199951</ele>
        <time>2017-05-25T16:02:42Z</time>
      </trkpt>
      <trkpt lat="45.74207" lon="3.77948">
        <ele>1302</ele>
        <time>2017-05-25T16:02:44Z</time>
      </trkpt>
      <trkpt lat="45.74217" lon="3.77954">
        <ele>1301.300049</ele>
        <time>2017-05-25T16:02:46Z</time>
      </trkpt>
      <trkpt lat="45.74229" lon="3.77958">
        <ele>1300.5</ele>
        <time>2017-05-25T16:02:48Z</time>
      </trkpt>
      <trkpt lat="45.7424" lon="3.77962">
        <ele>1299.699951</ele>
        <time>2017-05-25T16:02:50Z</time>
      </trkpt>
      <trkpt lat="45.74249" lon="3.77959">
        <ele>1298.699951</ele>
        <time>2017-05-25T16:02:52Z</time>
      </trkpt>
      <trkpt lat="45.74262" lon="3.77942">
        <ele>1297</ele>
        <time>2017-05-25T16:02:56Z</time>
      </trkpt>
      <trkpt lat="45.74274" lon="3.77925">
        <ele>1296.800049</ele>
        <time>2017-05-25T16:02:59Z</time>
      </trkpt>
      <trkpt lat="45.74285" lon="3.77919">
        <ele>1296.199951</ele>
        <time>2017-05-25T16:03:01Z</time>
      </trkpt>
      <trkpt lat="45.74295" lon="3.77926">
        <ele>1295.599976</ele>
        <time>2017-05-25T16:03:03Z</time>
      </trkpt>
      <trkpt lat="45.74299" lon="3.77938">
        <ele>1295.099976</ele>
        <time>2017-05-25T16:03:05Z</time>
      </trkpt>
      <trkpt lat="45.74302" lon="3.77953">
        <ele>1295</ele>
        <time>2017-05-25T16:03:08Z</time>
      </trkpt>
      <trkpt lat="45.74307" lon="3.77967">
        <ele>1295.400024</ele>
        <time>2017-05-25T16:03:11Z</time>
      </trkpt>
      <trkpt lat="45.7431" lon="3.7798">
        <ele>1295.800049</ele>
        <time>2017-05-25T16:03:14Z</time>
      </trkpt>
      <trkpt lat="45.74315" lon="3.77992">
        <ele>1296.199951</ele>
        <time>2017-05-25T16:03:17Z</time>
      </trkpt>
      <trkpt lat="45.74321" lon="3.78003">
        <ele>1296.800049</ele>
        <time>2017-05-25T16:03:20Z</time>
      </trkpt>
      <trkpt lat="45.74329" lon="3.78011">
        <ele>1297.599976</ele>
        <time>2017-05-25T16:03:23Z</time>
      </trkpt>
      <trkpt lat="45.74339" lon="3.78015">
        <ele>1298.400024</ele>
        <time>2017-05-25T16:03:27Z</time>
      </trkpt>
      <trkpt lat="45.74349" lon="3.78021">
        <ele>1299.199951</ele>
        <time>2017-05-25T16:03:31Z</time>
      </trkpt>
      <trkpt lat="45.74355" lon="3.78033">
        <ele>1300.199951</ele>
        <time>2017-05-25T16:03:36Z</time>
      </trkpt>
      <trkpt lat="45.74358" lon="3.78046">
        <ele>1301.300049</ele>
        <time>2017-05-25T16:03:41Z</time>
      </trkpt>
      <trkpt lat="45.74362" lon="3.78058">
        <ele>1302.300049</ele>
        <time>2017-05-25T16:03:46Z</time>
      </trkpt>
      <trkpt lat="45.74368" lon="3.78068">
        <ele>1303.400024</ele>
        <time>2017-05-25T16:03:52Z</time>
      </trkpt>
      <trkpt lat="45.74375" lon="3.78077">
        <ele>1304.5</ele>
        <time>2017-05-25T16:03:58Z</time>
      </trkpt>
      <trkpt lat="45.74382" lon="3.78086">
        <ele>1305.599976</ele>
        <time>2017-05-25T16:04:04Z</time>
      </trkpt>
      <trkpt lat="45.7439" lon="3.78097">
        <ele>1306.900024</ele>
        <time>2017-05-25T16:04:11Z</time>
      </trkpt>
      <trkpt lat="45.74398" lon="3.78107">
        <ele>1307.800049</ele>
        <time>2017-05-25T16:04:17Z</time>
      </trkpt>
      <trkpt lat="45.74408" lon="3.78114">
        <ele>1308.5</ele>
        <time>2017-05-25T16:04:23Z</time>
      </trkpt>
      <trkpt lat="45.74417" lon="3.78111">
        <ele>1309.300049</ele>
        <time>2017-05-25T16:04:29Z</time>
      </trkpt>
      <trkpt lat="45.74425" lon="3.78102">
        <ele>1309.800049</ele>
        <time>2017-05-25T16:04:34Z</time>
      </trkpt>
      <trkpt lat="45.74433" lon="3.78092">
        <ele>1310.400024</ele>
        <time>2017-05-25T16:04:39Z</time>
      </trkpt>
      <trkpt lat="45.74443" lon="3.78084">
        <ele>1310.900024</ele>
        <time>2017-05-25T16:04:44Z</time>
      </trkpt>
      <trkpt lat="45.74452" lon="3.7808">
        <ele>1311.199951</ele>
        <time>2017-05-25T16:04:47Z</time>
      </trkpt>
      <trkpt lat="45.74462" lon="3.78076">
        <ele>1311.599976</ele>
        <time>2017-05-25T16:04:51Z</time>
      </trkpt>
      <trkpt lat="45.74475" lon="3.78068">
        <ele>1311</ele>
        <time>2017-05-25T16:04:56Z</time>
      </trkpt>
      <trkpt lat="45.74485" lon="3.78065">
        <ele>1311.699951</ele>
        <time>2017-05-25T16:04:59Z</time>
      </trkpt>
      <trkpt lat="45.74496" lon="3.78065">
        <ele>1311.599976</ele>
        <time>2017-05-25T16:05:02Z</time>
      </trkpt>
      <trkpt lat="45.74509" lon="3.78065">
        <ele>1311.199951</ele>
        <time>2017-05-25T16:05:05Z</time>
      </trkpt>
      <trkpt lat="45.74518" lon="3.78066">
        <ele>1310.800049</ele>
        <time>2017-05-25T16:05:07Z</time>
      </trkpt>
      <trkpt lat="45.74527" lon="3.78067">
        <ele>1310.5</ele>
        <time>2017-05-25T16:05:09Z</time>
      </trkpt>
      <trkpt lat="45.74537" lon="3.78067">
        <ele>1309.599976</ele>
        <time>2017-05-25T16:05:11Z</time>
      </trkpt>
      <trkpt lat="45.74547" lon="3.78067">
        <ele>1309</ele>
        <time>2017-05-25T16:05:13Z</time>
      </trkpt>
      <trkpt lat="45.7456" lon="3.78067">
        <ele>1308.300049</ele>
        <time>2017-05-25T16:05:16Z</time>
      </trkpt>
      <trkpt lat="45.74572" lon="3.7807">
        <ele>1307.599976</ele>
        <time>2017-05-25T16:05:19Z</time>
      </trkpt>
      <trkpt lat="45.74581" lon="3.78078">
        <ele>1307.5</ele>
        <time>2017-05-25T16:05:23Z</time>
      </trkpt>
      <trkpt lat="45.74588" lon="3.78088">
        <ele>1307.199951</ele>
        <time>2017-05-25T16:05:27Z</time>
      </trkpt>
      <trkpt lat="45.74595" lon="3.78098">
        <ele>1307.800049</ele>
        <time>2017-05-25T16:05:31Z</time>
      </trkpt>
      <trkpt lat="45.74602" lon="3.7811">
        <ele>1308.599976</ele>
        <time>2017-05-25T16:05:36Z</time>
      </trkpt>
      <trkpt lat="45.7461" lon="3.78117">
        <ele>1309.300049</ele>
        <time>2017-05-25T16:05:40Z</time>
      </trkpt>
      <trkpt lat="45.74619" lon="3.78126">
        <ele>1309.699951</ele>
        <time>2017-05-25T16:05:44Z</time>
      </trkpt>
      <trkpt lat="45.74628" lon="3.78132">
        <ele>1310</ele>
        <time>2017-05-25T16:05:48Z</time>
      </trkpt>
      <trkpt lat="45.74637" lon="3.78137">
        <ele>1310.5</ele>
        <time>2017-05-25T16:05:52Z</time>
      </trkpt>
      <trkpt lat="45.74646" lon="3.78143">
        <ele>1310.599976</ele>
        <time>2017-05-25T16:05:56Z</time>
      </trkpt>
      <trkpt lat="45.74656" lon="3.78146">
        <ele>1310.900024</ele>
        <time>2017-05-25T16:06:00Z</time>
      </trkpt>
      <trkpt lat="45.74666" lon="3.78146">
        <ele>1311.300049</ele>
        <time>2017-05-25T16:06:04Z</time>
      </trkpt>
      <trkpt lat="45.74675" lon="3.78136">
        <ele>1311.400024</ele>
        <time>2017-05-25T16:06:09Z</time>
      </trkpt>
      <trkpt lat="45.74681" lon="3.78128">
        <ele>1310.300049</ele>
        <time>2017-05-25T16:06:15Z</time>
      </trkpt>
      <trkpt lat="45.74688" lon="3.78118">
        <ele>1308</ele>
        <time>2017-05-25T16:06:20Z</time>
      </trkpt>
      <trkpt lat="45.74698" lon="3.78108">
        <ele>1308.199951</ele>
        <time>2017-05-25T16:06:24Z</time>
      </trkpt>
      <trkpt lat="45.74704" lon="3.78098">
        <ele>1306.800049</ele>
        <time>2017-05-25T16:06:28Z</time>
      </trkpt>
      <trkpt lat="45.74713" lon="3.78078">
        <ele>1303</ele>
        <time>2017-05-25T16:06:35Z</time>
      </trkpt>
      <trkpt lat="45.74722" lon="3.78069">
        <ele>1301</ele>
        <time>2017-05-25T16:06:40Z</time>
      </trkpt>
      <trkpt lat="45.74728" lon="3.78057">
        <ele>1300.300049</ele>
        <time>2017-05-25T16:06:44Z</time>
      </trkpt>
      <trkpt lat="45.74737" lon="3.78054">
        <ele>1298.400024</ele>
        <time>2017-05-25T16:06:48Z</time>
      </trkpt>
      <trkpt lat="45.74748" lon="3.78047">
        <ele>1295.900024</ele>
        <time>2017-05-25T16:06:54Z</time>
      </trkpt>
      <trkpt lat="45.74769" lon="3.78042">
        <ele>1292</ele>
        <time>2017-05-25T16:07:01Z</time>
      </trkpt>
      <trkpt lat="45.74781" lon="3.7804">
        <ele>1290</ele>
        <time>2017-05-25T16:07:05Z</time>
      </trkpt>
      <trkpt lat="45.74792" lon="3.78032">
        <ele>1287</ele>
        <time>2017-05-25T16:07:10Z</time>
      </trkpt>
      <trkpt lat="45.74799" lon="3.7802">
        <ele>1285.900024</ele>
        <time>2017-05-25T16:07:14Z</time>
      </trkpt>
      <trkpt lat="45.74805" lon="3.7801">
        <ele>1283</ele>
        <time>2017-05-25T16:07:17Z</time>
      </trkpt>
      <trkpt lat="45.74812" lon="3.77995">
        <ele>1280.5</ele>
        <time>2017-05-25T16:07:24Z</time>
      </trkpt>
      <trkpt lat="45.74821" lon="3.77992">
        <ele>1277.5</ele>
        <time>2017-05-25T16:07:41Z</time>
      </trkpt>
      <trkpt lat="45.74831" lon="3.77982">
        <ele>1274.599976</ele>
        <time>2017-05-25T16:08:10Z</time>
      </trkpt>
      <trkpt lat="45.74842" lon="3.77979">
        <ele>1272</ele>
        <time>2017-05-25T16:08:14Z</time>
      </trkpt>
      <trkpt lat="45.74852" lon="3.7798">
        <ele>1270</ele>
        <time>2017-05-25T16:08:22Z</time>
      </trkpt>
      <trkpt lat="45.74863" lon="3.77976">
        <ele>1269.800049</ele>
        <time>2017-05-25T16:08:32Z</time>
      </trkpt>
      <trkpt lat="45.74871" lon="3.77971">
        <ele>1269</ele>
        <time>2017-05-25T16:08:36Z</time>
      </trkpt>
      <trkpt lat="45.74885" lon="3.77971">
        <ele>1266</ele>
        <time>2017-05-25T16:08:42Z</time>
      </trkpt>
      <trkpt lat="45.74894" lon="3.77967">
        <ele>1265.5</ele>
        <time>2017-05-25T16:08:47Z</time>
      </trkpt>
      <trkpt lat="45.74902" lon="3.77961">
        <ele>1263</ele>
        <time>2017-05-25T16:08:51Z</time>
      </trkpt>
      <trkpt lat="45.74915" lon="3.77957">
        <ele>1261</ele>
        <time>2017-05-25T16:08:57Z</time>
      </trkpt>
      <trkpt lat="45.74927" lon="3.77956">
        <ele>1259</ele>
        <time>2017-05-25T16:09:02Z</time>
      </trkpt>
      <trkpt lat="45.74934" lon="3.7797">
        <ele>1258.599976</ele>
        <time>2017-05-25T16:09:09Z</time>
      </trkpt>
      <trkpt lat="45.74946" lon="3.77986">
        <ele>1258</ele>
        <time>2017-05-25T16:09:17Z</time>
      </trkpt>
      <trkpt lat="45.74951" lon="3.77999">
        <ele>1258</ele>
        <time>2017-05-25T16:09:21Z</time>
      </trkpt>
      <trkpt lat="45.74958" lon="3.78011">
        <ele>1257.800049</ele>
        <time>2017-05-25T16:09:25Z</time>
      </trkpt>
      <trkpt lat="45.74964" lon="3.78021">
        <ele>1257.800049</ele>
        <time>2017-05-25T16:09:28Z</time>
      </trkpt>
      <trkpt lat="45.74973" lon="3.78031">
        <ele>1257</ele>
        <time>2017-05-25T16:09:32Z</time>
      </trkpt>
      <trkpt lat="45.74983" lon="3.7804">
        <ele>1257.099976</ele>
        <time>2017-05-25T16:09:35Z</time>
      </trkpt>
      <trkpt lat="45.74992" lon="3.78049">
        <ele>1256.599976</ele>
        <time>2017-05-25T16:09:38Z</time>
      </trkpt>
      <trkpt lat="45.75003" lon="3.78057">
        <ele>1256</ele>
        <time>2017-05-25T16:09:41Z</time>
      </trkpt>
      <trkpt lat="45.75013" lon="3.78067">
        <ele>1255.599976</ele>
        <time>2017-05-25T16:09:44Z</time>
      </trkpt>
      <trkpt lat="45.75025" lon="3.78077">
        <ele>1254.699951</ele>
        <time>2017-05-25T16:09:47Z</time>
      </trkpt>
      <trkpt lat="45.75034" lon="3.78081">
        <ele>1254.400024</ele>
        <time>2017-05-25T16:09:49Z</time>
      </trkpt>
      <trkpt lat="45.75043" lon="3.78084">
        <ele>1253.599976</ele>
        <time>2017-05-25T16:09:51Z</time>
      </trkpt>
      <trkpt lat="45.75057" lon="3.78081">
        <ele>1252.099976</ele>
        <time>2017-05-25T16:09:55Z</time>
      </trkpt>
      <trkpt lat="45.75067" lon="3.78079">
        <ele>1251.400024</ele>
        <time>2017-05-25T16:09:57Z</time>
      </trkpt>
      <trkpt lat="45.75077" lon="3.78076">
        <ele>1250.800049</ele>
        <time>2017-05-25T16:09:59Z</time>
      </trkpt>
      <trkpt lat="45.75086" lon="3.78075">
        <ele>1250.300049</ele>
        <time>2017-05-25T16:10:01Z</time>
      </trkpt>
      <trkpt lat="45.75098" lon="3.78076">
        <ele>1249.400024</ele>
        <time>2017-05-25T16:10:03Z</time>
      </trkpt>
      <trkpt lat="45.7511" lon="3.78074">
        <ele>1248.599976</ele>
        <time>2017-05-25T16:10:05Z</time>
      </trkpt>
      <trkpt lat="45.7512" lon="3.78068">
        <ele>1247.800049</ele>
        <time>2017-05-25T16:10:07Z</time>
      </trkpt>
      <trkpt lat="45.7513" lon="3.78062">
        <ele>1247</ele>
        <time>2017-05-25T16:10:09Z</time>
      </trkpt>
      <trkpt lat="45.75138" lon="3.78055">
        <ele>1246.300049</ele>
        <time>2017-05-25T16:10:11Z</time>
      </trkpt>
      <trkpt lat="45.75148" lon="3.78046">
        <ele>1245.699951</ele>
        <time>2017-05-25T16:10:14Z</time>
      </trkpt>
      <trkpt lat="45.75156" lon="3.78054">
        <ele>1244.599976</ele>
        <time>2017-05-25T16:11:22Z</time>
      </trkpt>
      <trkpt lat="45.75166" lon="3.78049">
        <ele>1244.699951</ele>
        <time>2017-05-25T16:11:27Z</time>
      </trkpt>
      <trkpt lat="45.75181" lon="3.78036">
        <ele>1245.400024</ele>
        <time>2017-05-25T16:11:33Z</time>
      </trkpt>
      <trkpt lat="45.75188" lon="3.78027">
        <ele>1245.699951</ele>
        <time>2017-05-25T16:11:36Z</time>
      </trkpt>
      <trkpt lat="45.75195" lon="3.78016">
        <ele>1245.900024</ele>
        <time>2017-05-25T16:11:39Z</time>
      </trkpt>
      <trkpt lat="45.75199" lon="3.78003">
        <ele>1246.400024</ele>
        <time>2017-05-25T16:11:42Z</time>
      </trkpt>
      <trkpt lat="45.75202" lon="3.77988">
        <ele>1246.699951</ele>
        <time>2017-05-25T16:11:45Z</time>
      </trkpt>
      <trkpt lat="45.75206" lon="3.77973">
        <ele>1246.699951</ele>
        <time>2017-05-25T16:11:48Z</time>
      </trkpt>
      <trkpt lat="45.75212" lon="3.77957">
        <ele>1246.800049</ele>
        <time>2017-05-25T16:11:51Z</time>
      </trkpt>
      <trkpt lat="45.7522" lon="3.77945">
        <ele>1246.800049</ele>
        <time>2017-05-25T16:11:54Z</time>
      </trkpt>
      <trkpt lat="45.75227" lon="3.77931">
        <ele>1246.800049</ele>
        <time>2017-05-25T16:11:57Z</time>
      </trkpt>
      <trkpt lat="45.75232" lon="3.77919">
        <ele>1246.900024</ele>
        <time>2017-05-25T16:11:59Z</time>
      </trkpt>
      <trkpt lat="45.75236" lon="3.77907">
        <ele>1247.099976</ele>
        <time>2017-05-25T16:12:01Z</time>
      </trkpt>
      <trkpt lat="45.75241" lon="3.77894">
        <ele>1246.900024</ele>
        <time>2017-05-25T16:12:03Z</time>
      </trkpt>
      <trkpt lat="45.75245" lon="3.7788">
        <ele>1246.699951</ele>
        <time>2017-05-25T16:12:05Z</time>
      </trkpt>
      <trkpt lat="45.75252" lon="3.77867">
        <ele>1246.599976</ele>
        <time>2017-05-25T16:12:07Z</time>
      </trkpt>
      <trkpt lat="45.7526" lon="3.77855">
        <ele>1246.300049</ele>
        <time>2017-05-25T16:12:09Z</time>
      </trkpt>
      <trkpt lat="45.75268" lon="3.77846">
        <ele>1245</ele>
        <time>2017-05-25T16:12:11Z</time>
      </trkpt>
      <trkpt lat="45.75282" lon="3.77839">
        <ele>1245.300049</ele>
        <time>2017-05-25T16:12:14Z</time>
      </trkpt>
      <trkpt lat="45.75292" lon="3.77835">
        <ele>1245</ele>
        <time>2017-05-25T16:12:16Z</time>
      </trkpt>
      <trkpt lat="45.75301" lon="3.77832">
        <ele>1244.900024</ele>
        <time>2017-05-25T16:12:18Z</time>
      </trkpt>
      <trkpt lat="45.75323" lon="3.77826">
        <ele>1244.699951</ele>
        <time>2017-05-25T16:12:23Z</time>
      </trkpt>
      <trkpt lat="45.75332" lon="3.77825">
        <ele>1244.800049</ele>
        <time>2017-05-25T16:12:25Z</time>
      </trkpt>
      <trkpt lat="45.75341" lon="3.77824">
        <ele>1244.900024</ele>
        <time>2017-05-25T16:12:27Z</time>
      </trkpt>
      <trkpt lat="45.75352" lon="3.77823">
        <ele>1245</ele>
        <time>2017-05-25T16:12:29Z</time>
      </trkpt>
      <trkpt lat="45.75367" lon="3.77822">
        <ele>1245</ele>
        <time>2017-05-25T16:12:32Z</time>
      </trkpt>
      <trkpt lat="45.75386" lon="3.77825">
        <ele>1244</ele>
        <time>2017-05-25T16:12:36Z</time>
      </trkpt>
      <trkpt lat="45.75398" lon="3.7783">
        <ele>1245</ele>
        <time>2017-05-25T16:12:39Z</time>
      </trkpt>
      <trkpt lat="45.7541" lon="3.77837">
        <ele>1245.099976</ele>
        <time>2017-05-25T16:12:42Z</time>
      </trkpt>
      <trkpt lat="45.75424" lon="3.77841">
        <ele>1245.199951</ele>
        <time>2017-05-25T16:12:45Z</time>
      </trkpt>
      <trkpt lat="45.75438" lon="3.77841">
        <ele>1245.199951</ele>
        <time>2017-05-25T16:12:48Z</time>
      </trkpt>
      <trkpt lat="45.75448" lon="3.77839">
        <ele>1245.099976</ele>
        <time>2017-05-25T16:12:50Z</time>
      </trkpt>
      <trkpt lat="45.75458" lon="3.77835">
        <ele>1244.900024</ele>
        <time>2017-05-25T16:12:52Z</time>
      </trkpt>
      <trkpt lat="45.75467" lon="3.77829">
        <ele>1244.699951</ele>
        <time>2017-05-25T16:12:54Z</time>
      </trkpt>
      <trkpt lat="45.75475" lon="3.7782">
        <ele>1244.300049</ele>
        <time>2017-05-25T16:12:56Z</time>
      </trkpt>
      <trkpt lat="45.75483" lon="3.77812">
        <ele>1244</ele>
        <time>2017-05-25T16:12:58Z</time>
      </trkpt>
      <trkpt lat="45.7549" lon="3.77803">
        <ele>1243.900024</ele>
        <time>2017-05-25T16:13:00Z</time>
      </trkpt>
      <trkpt lat="45.75497" lon="3.77796">
        <ele>1243.699951</ele>
        <time>2017-05-25T16:13:02Z</time>
      </trkpt>
      <trkpt lat="45.75507" lon="3.77784">
        <ele>1243.800049</ele>
        <time>2017-05-25T16:13:05Z</time>
      </trkpt>
      <trkpt lat="45.75515" lon="3.77773">
        <ele>1244.199951</ele>
        <time>2017-05-25T16:13:08Z</time>
      </trkpt>
      <trkpt lat="45.75521" lon="3.7776">
        <ele>1244.400024</ele>
        <time>2017-05-25T16:13:11Z</time>
      </trkpt>
      <trkpt lat="45.75526" lon="3.77749">
        <ele>1245.099976</ele>
        <time>2017-05-25T16:13:14Z</time>
      </trkpt>
      <trkpt lat="45.75531" lon="3.77738">
        <ele>1245</ele>
        <time>2017-05-25T16:13:17Z</time>
      </trkpt>
      <trkpt lat="45.75538" lon="3.77727">
        <ele>1246.900024</ele>
        <time>2017-05-25T16:13:21Z</time>
      </trkpt>
      <trkpt lat="45.75548" lon="3.77719">
        <ele>1247.5</ele>
        <time>2017-05-25T16:13:25Z</time>
      </trkpt>
      <trkpt lat="45.75559" lon="3.77715">
        <ele>1248.400024</ele>
        <time>2017-05-25T16:13:29Z</time>
      </trkpt>
      <trkpt lat="45.75569" lon="3.77718">
        <ele>1249</ele>
        <time>2017-05-25T16:13:33Z</time>
      </trkpt>
      <trkpt lat="45.75579" lon="3.77722">
        <ele>1249.599976</ele>
        <time>2017-05-25T16:13:37Z</time>
      </trkpt>
      <trkpt lat="45.75588" lon="3.77725">
        <ele>1249.900024</ele>
        <time>2017-05-25T16:13:40Z</time>
      </trkpt>
      <trkpt lat="45.75598" lon="3.77727">
        <ele>1250.300049</ele>
        <time>2017-05-25T16:13:43Z</time>
      </trkpt>
      <trkpt lat="45.7561" lon="3.77728">
        <ele>1250.599976</ele>
        <time>2017-05-25T16:13:47Z</time>
      </trkpt>
      <trkpt lat="45.7562" lon="3.77729">
        <ele>1250.599976</ele>
        <time>2017-05-25T16:13:50Z</time>
      </trkpt>
      <trkpt lat="45.75629" lon="3.77733">
        <ele>1250.900024</ele>
        <time>2017-05-25T16:13:53Z</time>
      </trkpt>
      <trkpt lat="45.75642" lon="3.77738">
        <ele>1251.199951</ele>
        <time>2017-05-25T16:13:56Z</time>
      </trkpt>
      <trkpt lat="45.75655" lon="3.77742">
        <ele>1251.199951</ele>
        <time>2017-05-25T16:13:59Z</time>
      </trkpt>
      <trkpt lat="45.75667" lon="3.77745">
        <ele>1251</ele>
        <time>2017-05-25T16:14:02Z</time>
      </trkpt>
      <trkpt lat="45.75681" lon="3.77746">
        <ele>1250.900024</ele>
        <time>2017-05-25T16:14:05Z</time>
      </trkpt>
      <trkpt lat="45.7569" lon="3.77746">
        <ele>1250.800049</ele>
        <time>2017-05-25T16:14:07Z</time>
      </trkpt>
      <trkpt lat="45.75703" lon="3.77747">
        <ele>1250.599976</ele>
        <time>2017-05-25T16:14:10Z</time>
      </trkpt>
      <trkpt lat="45.75713" lon="3.77747">
        <ele>1250.5</ele>
        <time>2017-05-25T16:14:12Z</time>
      </trkpt>
      <trkpt lat="45.75723" lon="3.77748">
        <ele>1250.099976</ele>
        <time>2017-05-25T16:14:14Z</time>
      </trkpt>
      <trkpt lat="45.75734" lon="3.77748">
        <ele>1249</ele>
        <time>2017-05-25T16:14:16Z</time>
      </trkpt>
      <trkpt lat="45.7575" lon="3.77749">
        <ele>1249</ele>
        <time>2017-05-25T16:14:19Z</time>
      </trkpt>
      <trkpt lat="45.7576" lon="3.7775">
        <ele>1248.599976</ele>
        <time>2017-05-25T16:14:21Z</time>
      </trkpt>
      <trkpt lat="45.75774" lon="3.77752">
        <ele>1247.599976</ele>
        <time>2017-05-25T16:14:24Z</time>
      </trkpt>
      <trkpt lat="45.75785" lon="3.77758">
        <ele>1247.300049</ele>
        <time>2017-05-25T16:14:26Z</time>
      </trkpt>
      <trkpt lat="45.75795" lon="3.77763">
        <ele>1246.800049</ele>
        <time>2017-05-25T16:14:28Z</time>
      </trkpt>
      <trkpt lat="45.75808" lon="3.77772">
        <ele>1246.599976</ele>
        <time>2017-05-25T16:14:30Z</time>
      </trkpt>
      <trkpt lat="45.75819" lon="3.77778">
        <ele>1246.400024</ele>
        <time>2017-05-25T16:14:32Z</time>
      </trkpt>
      <trkpt lat="45.7583" lon="3.77782">
        <ele>1246.099976</ele>
        <time>2017-05-25T16:14:34Z</time>
      </trkpt>
      <trkpt lat="45.75841" lon="3.77786">
        <ele>1245.300049</ele>
        <time>2017-05-25T16:14:36Z</time>
      </trkpt>
      <trkpt lat="45.7585" lon="3.77787">
        <ele>1245.199951</ele>
        <time>2017-05-25T16:14:38Z</time>
      </trkpt>
      <trkpt lat="45.7586" lon="3.77793">
        <ele>1245.099976</ele>
        <time>2017-05-25T16:14:40Z</time>
      </trkpt>
      <trkpt lat="45.7587" lon="3.77799">
        <ele>1245.099976</ele>
        <time>2017-05-25T16:14:42Z</time>
      </trkpt>
      <trkpt lat="45.75881" lon="3.77805">
        <ele>1244.900024</ele>
        <time>2017-05-25T16:14:44Z</time>
      </trkpt>
      <trkpt lat="45.75891" lon="3.77809">
        <ele>1244.699951</ele>
        <time>2017-05-25T16:14:46Z</time>
      </trkpt>
      <trkpt lat="45.759" lon="3.77813">
        <ele>1244.599976</ele>
        <time>2017-05-25T16:14:48Z</time>
      </trkpt>
      <trkpt lat="45.75911" lon="3.77817">
        <ele>1244.5</ele>
        <time>2017-05-25T16:14:50Z</time>
      </trkpt>
      <trkpt lat="45.75921" lon="3.77822">
        <ele>1244.099976</ele>
        <time>2017-05-25T16:14:52Z</time>
      </trkpt>
      <trkpt lat="45.75931" lon="3.77827">
        <ele>1244</ele>
        <time>2017-05-25T16:14:54Z</time>
      </trkpt>
      <trkpt lat="45.75942" lon="3.77833">
        <ele>1243.599976</ele>
        <time>2017-05-25T16:14:56Z</time>
      </trkpt>
      <trkpt lat="45.75952" lon="3.77842">
        <ele>1242.800049</ele>
        <time>2017-05-25T16:14:58Z</time>
      </trkpt>
      <trkpt lat="45.75963" lon="3.77851">
        <ele>1242.099976</ele>
        <time>2017-05-25T16:15:00Z</time>
      </trkpt>
      <trkpt lat="45.75974" lon="3.77858">
        <ele>1241.699951</ele>
        <time>2017-05-25T16:15:02Z</time>
      </trkpt>
      <trkpt lat="45.75985" lon="3.77864">
        <ele>1241.099976</ele>
        <time>2017-05-25T16:15:04Z</time>
      </trkpt>
      <trkpt lat="45.75995" lon="3.77867">
        <ele>1240.699951</ele>
        <time>2017-05-25T16:15:06Z</time>
      </trkpt>
      <trkpt lat="45.76007" lon="3.77872">
        <ele>1240.599976</ele>
        <time>2017-05-25T16:15:08Z</time>
      </trkpt>
      <trkpt lat="45.7602" lon="3.77875">
        <ele>1240.300049</ele>
        <time>2017-05-25T16:15:10Z</time>
      </trkpt>
      <trkpt lat="45.76033" lon="3.77877">
        <ele>1240</ele>
        <time>2017-05-25T16:15:12Z</time>
      </trkpt>
      <trkpt lat="45.76046" lon="3.77879">
        <ele>1239.599976</ele>
        <time>2017-05-25T16:15:14Z</time>
      </trkpt>
      <trkpt lat="45.7606" lon="3.77885">
        <ele>1238.800049</ele>
        <time>2017-05-25T16:15:16Z</time>
      </trkpt>
      <trkpt lat="45.76075" lon="3.77891">
        <ele>1238.099976</ele>
        <time>2017-05-25T16:15:18Z</time>
      </trkpt>
      <trkpt lat="45.7609" lon="3.77897">
        <ele>1237.300049</ele>
        <time>2017-05-25T16:15:20Z</time>
      </trkpt>
      <trkpt lat="45.76103" lon="3.77903">
        <ele>1236.5</ele>
        <time>2017-05-25T16:15:22Z</time>
      </trkpt>
      <trkpt lat="45.76119" lon="3.77907">
        <ele>1235.699951</ele>
        <time>2017-05-25T16:15:24Z</time>
      </trkpt>
      <trkpt lat="45.76142" lon="3.77906">
        <ele>1233</ele>
        <time>2017-05-25T16:15:27Z</time>
      </trkpt>
      <trkpt lat="45.76162" lon="3.77899">
        <ele>1233.199951</ele>
        <time>2017-05-25T16:15:30Z</time>
      </trkpt>
      <trkpt lat="45.76173" lon="3.77893">
        <ele>1232.900024</ele>
        <time>2017-05-25T16:15:32Z</time>
      </trkpt>
      <trkpt lat="45.76184" lon="3.77887">
        <ele>1233.099976</ele>
        <time>2017-05-25T16:15:34Z</time>
      </trkpt>
      <trkpt lat="45.76194" lon="3.7788">
        <ele>1233</ele>
        <time>2017-05-25T16:15:36Z</time>
      </trkpt>
      <trkpt lat="45.76205" lon="3.77875">
        <ele>1233.099976</ele>
        <time>2017-05-25T16:15:38Z</time>
      </trkpt>
      <trkpt lat="45.76215" lon="3.7787">
        <ele>1233.400024</ele>
        <time>2017-05-25T16:15:40Z</time>
      </trkpt>
      <trkpt lat="45.76226" lon="3.77865">
        <ele>1233.800049</ele>
        <time>2017-05-25T16:15:42Z</time>
      </trkpt>
      <trkpt lat="45.76236" lon="3.77856">
        <ele>1233.699951</ele>
        <time>2017-05-25T16:15:44Z</time>
      </trkpt>
      <trkpt lat="45.76243" lon="3.77844">
        <ele>1233.599976</ele>
        <time>2017-05-25T16:15:46Z</time>
      </trkpt>
      <trkpt lat="45.76249" lon="3.77833">
        <ele>1233.400024</ele>
        <time>2017-05-25T16:15:48Z</time>
      </trkpt>
      <trkpt lat="45.76255" lon="3.77821">
        <ele>1233</ele>
        <time>2017-05-25T16:15:50Z</time>
      </trkpt>
      <trkpt lat="45.76261" lon="3.7781">
        <ele>1233</ele>
        <time>2017-05-25T16:15:52Z</time>
      </trkpt>
      <trkpt lat="45.76269" lon="3.77794">
        <ele>1233.900024</ele>
        <time>2017-05-25T16:15:55Z</time>
      </trkpt>
      <trkpt lat="45.76277" lon="3.7778">
        <ele>1234.699951</ele>
        <time>2017-05-25T16:15:58Z</time>
      </trkpt>
      <trkpt lat="45.76283" lon="3.77764">
        <ele>1235.300049</ele>
        <time>2017-05-25T16:16:01Z</time>
      </trkpt>
      <trkpt lat="45.76288" lon="3.77748">
        <ele>1235</ele>
        <time>2017-05-25T16:16:04Z</time>
      </trkpt>
      <trkpt lat="45.76291" lon="3.77731">
        <ele>1235.900024</ele>
        <time>2017-05-25T16:16:07Z</time>
      </trkpt>
      <trkpt lat="45.7629" lon="3.77714">
        <ele>1236.400024</ele>
        <time>2017-05-25T16:16:10Z</time>
      </trkpt>
      <trkpt lat="45.7629" lon="3.77698">
        <ele>1237.300049</ele>
        <time>2017-05-25T16:16:13Z</time>
      </trkpt>
      <trkpt lat="45.76291" lon="3.77682">
        <ele>1238</ele>
        <time>2017-05-25T16:16:16Z</time>
      </trkpt>
      <trkpt lat="45.76291" lon="3.77663">
        <ele>1238.5</ele>
        <time>2017-05-25T16:16:19Z</time>
      </trkpt>
      <trkpt lat="45.76291" lon="3.77644">
        <ele>1238.800049</ele>
        <time>2017-05-25T16:16:22Z</time>
      </trkpt>
      <trkpt lat="45.76291" lon="3.77625">
        <ele>1238.900024</ele>
        <time>2017-05-25T16:16:25Z</time>
      </trkpt>
      <trkpt lat="45.7629" lon="3.77611">
        <ele>1239</ele>
        <time>2017-05-25T16:16:27Z</time>
      </trkpt>
      <trkpt lat="45.76289" lon="3.77597">
        <ele>1239</ele>
        <time>2017-05-25T16:16:29Z</time>
      </trkpt>
      <trkpt lat="45.76288" lon="3.77579">
        <ele>1238.599976</ele>
        <time>2017-05-25T16:16:32Z</time>
      </trkpt>
      <trkpt lat="45.76287" lon="3.77559">
        <ele>1238.599976</ele>
        <time>2017-05-25T16:16:35Z</time>
      </trkpt>
      <trkpt lat="45.76286" lon="3.77541">
        <ele>1238.400024</ele>
        <time>2017-05-25T16:16:38Z</time>
      </trkpt>
      <trkpt lat="45.76285" lon="3.77528">
        <ele>1238.300049</ele>
        <time>2017-05-25T16:16:40Z</time>
      </trkpt>
      <trkpt lat="45.76285" lon="3.77514">
        <ele>1238.400024</ele>
        <time>2017-05-25T16:16:42Z</time>
      </trkpt>
      <trkpt lat="45.76284" lon="3.775">
        <ele>1238.300049</ele>
        <time>2017-05-25T16:16:44Z</time>
      </trkpt>
      <trkpt lat="45.76283" lon="3.77481">
        <ele>1238.099976</ele>
        <time>2017-05-25T16:16:47Z</time>
      </trkpt>
      <trkpt lat="45.76283" lon="3.77467">
        <ele>1238</ele>
        <time>2017-05-25T16:16:49Z</time>
      </trkpt>
      <trkpt lat="45.76285" lon="3.77454">
        <ele>1237.900024</ele>
        <time>2017-05-25T16:16:51Z</time>
      </trkpt>
      <trkpt lat="45.76289" lon="3.77442">
        <ele>1237.900024</ele>
        <time>2017-05-25T16:16:53Z</time>
      </trkpt>
      <trkpt lat="45.76297" lon="3.77428">
        <ele>1237.099976</ele>
        <time>2017-05-25T16:16:56Z</time>
      </trkpt>
      <trkpt lat="45.76305" lon="3.77418">
        <ele>1236.599976</ele>
        <time>2017-05-25T16:16:59Z</time>
      </trkpt>
      <trkpt lat="45.76312" lon="3.77407">
        <ele>1235.699951</ele>
        <time>2017-05-25T16:17:02Z</time>
      </trkpt>
      <trkpt lat="45.76317" lon="3.77396">
        <ele>1235.099976</ele>
        <time>2017-05-25T16:17:04Z</time>
      </trkpt>
      <trkpt lat="45.76326" lon="3.77383">
        <ele>1234.599976</ele>
        <time>2017-05-25T16:17:07Z</time>
      </trkpt>
      <trkpt lat="45.76333" lon="3.77374">
        <ele>1234.699951</ele>
        <time>2017-05-25T16:17:10Z</time>
      </trkpt>
      <trkpt lat="45.76342" lon="3.77365">
        <ele>1235</ele>
        <time>2017-05-25T16:17:13Z</time>
      </trkpt>
      <trkpt lat="45.7635" lon="3.77355">
        <ele>1235.5</ele>
        <time>2017-05-25T16:17:16Z</time>
      </trkpt>
      <trkpt lat="45.76358" lon="3.77345">
        <ele>1235.900024</ele>
        <time>2017-05-25T16:17:19Z</time>
      </trkpt>
      <trkpt lat="45.76366" lon="3.77335">
        <ele>1236.400024</ele>
        <time>2017-05-25T16:17:22Z</time>
      </trkpt>
      <trkpt lat="45.76373" lon="3.77327">
        <ele>1236.699951</ele>
        <time>2017-05-25T16:17:25Z</time>
      </trkpt>
      <trkpt lat="45.76381" lon="3.77314">
        <ele>1237.099976</ele>
        <time>2017-05-25T16:17:29Z</time>
      </trkpt>
      <trkpt lat="45.76386" lon="3.77303">
        <ele>1237.199951</ele>
        <time>2017-05-25T16:17:32Z</time>
      </trkpt>
      <trkpt lat="45.76392" lon="3.7729">
        <ele>1237.099976</ele>
        <time>2017-05-25T16:17:35Z</time>
      </trkpt>
      <trkpt lat="45.76398" lon="3.77279">
        <ele>1237.199951</ele>
        <time>2017-05-25T16:17:39Z</time>
      </trkpt>
      <trkpt lat="45.76407" lon="3.77286">
        <ele>1237.300049</ele>
        <time>2017-05-25T16:19:34Z</time>
      </trkpt>
      <trkpt lat="45.76413" lon="3.77298">
        <ele>1237.199951</ele>
        <time>2017-05-25T16:19:37Z</time>
      </trkpt>
      <trkpt lat="45.76419" lon="3.77312">
        <ele>1236.699951</ele>
        <time>2017-05-25T16:19:40Z</time>
      </trkpt>
      <trkpt lat="45.76425" lon="3.77326">
        <ele>1235.300049</ele>
        <time>2017-05-25T16:19:43Z</time>
      </trkpt>
      <trkpt lat="45.76429" lon="3.7734">
        <ele>1235</ele>
        <time>2017-05-25T16:19:46Z</time>
      </trkpt>
      <trkpt lat="45.76434" lon="3.77353">
        <ele>1233.900024</ele>
        <time>2017-05-25T16:19:49Z</time>
      </trkpt>
      <trkpt lat="45.76439" lon="3.77365">
        <ele>1232.099976</ele>
        <time>2017-05-25T16:19:53Z</time>
      </trkpt>
      <trkpt lat="45.76447" lon="3.77372">
        <ele>1230.099976</ele>
        <time>2017-05-25T16:19:57Z</time>
      </trkpt>
      <trkpt lat="45.76456" lon="3.77378">
        <ele>1227.199951</ele>
        <time>2017-05-25T16:20:02Z</time>
      </trkpt>
      <trkpt lat="45.76465" lon="3.77385">
        <ele>1224.800049</ele>
        <time>2017-05-25T16:20:06Z</time>
      </trkpt>
      <trkpt lat="45.76475" lon="3.77389">
        <ele>1222.199951</ele>
        <time>2017-05-25T16:20:10Z</time>
      </trkpt>
      <trkpt lat="45.76486" lon="3.77398">
        <ele>1220.300049</ele>
        <time>2017-05-25T16:20:13Z</time>
      </trkpt>
      <trkpt lat="45.76492" lon="3.77409">
        <ele>1218.099976</ele>
        <time>2017-05-25T16:20:16Z</time>
      </trkpt>
      <trkpt lat="45.76497" lon="3.77424">
        <ele>1216</ele>
        <time>2017-05-25T16:20:19Z</time>
      </trkpt>
      <trkpt lat="45.76497" lon="3.7744">
        <ele>1213.900024</ele>
        <time>2017-05-25T16:20:22Z</time>
      </trkpt>
      <trkpt lat="45.76501" lon="3.77457">
        <ele>1210.400024</ele>
        <time>2017-05-25T16:20:26Z</time>
      </trkpt>
      <trkpt lat="45.76505" lon="3.7747">
        <ele>1208.5</ele>
        <time>2017-05-25T16:20:29Z</time>
      </trkpt>
      <trkpt lat="45.76507" lon="3.77483">
        <ele>1206.900024</ele>
        <time>2017-05-25T16:20:31Z</time>
      </trkpt>
      <trkpt lat="45.76511" lon="3.77496">
        <ele>1205.800049</ele>
        <time>2017-05-25T16:20:33Z</time>
      </trkpt>
      <trkpt lat="45.76512" lon="3.77509">
        <ele>1204.300049</ele>
        <time>2017-05-25T16:20:35Z</time>
      </trkpt>
      <trkpt lat="45.7651" lon="3.77524">
        <ele>1202.099976</ele>
        <time>2017-05-25T16:20:38Z</time>
      </trkpt>
      <trkpt lat="45.76507" lon="3.77537">
        <ele>1200.800049</ele>
        <time>2017-05-25T16:20:40Z</time>
      </trkpt>
      <trkpt lat="45.76505" lon="3.7755">
        <ele>1199.5</ele>
        <time>2017-05-25T16:20:42Z</time>
      </trkpt>
      <trkpt lat="45.76507" lon="3.77567">
        <ele>1197.5</ele>
        <time>2017-05-25T16:20:45Z</time>
      </trkpt>
      <trkpt lat="45.76514" lon="3.77579">
        <ele>1194.699951</ele>
        <time>2017-05-25T16:20:49Z</time>
      </trkpt>
      <trkpt lat="45.76518" lon="3.77592">
        <ele>1192.599976</ele>
        <time>2017-05-25T16:20:52Z</time>
      </trkpt>
      <trkpt lat="45.76523" lon="3.77603">
        <ele>1190.800049</ele>
        <time>2017-05-25T16:20:55Z</time>
      </trkpt>
      <trkpt lat="45.76535" lon="3.77612">
        <ele>1188.599976</ele>
        <time>2017-05-25T16:20:58Z</time>
      </trkpt>
      <trkpt lat="45.76544" lon="3.77625">
        <ele>1186.300049</ele>
        <time>2017-05-25T16:21:01Z</time>
      </trkpt>
      <trkpt lat="45.76549" lon="3.77637">
        <ele>1184.900024</ele>
        <time>2017-05-25T16:21:03Z</time>
      </trkpt>
      <trkpt lat="45.76554" lon="3.77651">
        <ele>1183.199951</ele>
        <time>2017-05-25T16:21:05Z</time>
      </trkpt>
      <trkpt lat="45.76556" lon="3.77665">
        <ele>1181.800049</ele>
        <time>2017-05-25T16:21:07Z</time>
      </trkpt>
      <trkpt lat="45.76558" lon="3.77683">
        <ele>1179.699951</ele>
        <time>2017-05-25T16:21:10Z</time>
      </trkpt>
      <trkpt lat="45.76555" lon="3.77699">
        <ele>1179</ele>
        <time>2017-05-25T16:21:12Z</time>
      </trkpt>
      <trkpt lat="45.76555" lon="3.77714">
        <ele>1178.300049</ele>
        <time>2017-05-25T16:21:14Z</time>
      </trkpt>
      <trkpt lat="45.76555" lon="3.77728">
        <ele>1177.900024</ele>
        <time>2017-05-25T16:21:16Z</time>
      </trkpt>
      <trkpt lat="45.76555" lon="3.77742">
        <ele>1177.5</ele>
        <time>2017-05-25T16:21:18Z</time>
      </trkpt>
      <trkpt lat="45.76552" lon="3.77763">
        <ele>1177.300049</ele>
        <time>2017-05-25T16:21:20Z</time>
      </trkpt>
      <trkpt lat="45.76551" lon="3.77784">
        <ele>1177.099976</ele>
        <time>2017-05-25T16:21:22Z</time>
      </trkpt>
      <trkpt lat="45.76551" lon="3.77801">
        <ele>1176.900024</ele>
        <time>2017-05-25T16:21:24Z</time>
      </trkpt>
      <trkpt lat="45.76552" lon="3.77819">
        <ele>1176.599976</ele>
        <time>2017-05-25T16:21:26Z</time>
      </trkpt>
      <trkpt lat="45.76552" lon="3.77834">
        <ele>1176.400024</ele>
        <time>2017-05-25T16:21:28Z</time>
      </trkpt>
      <trkpt lat="45.76551" lon="3.77852">
        <ele>1176.199951</ele>
        <time>2017-05-25T16:21:30Z</time>
      </trkpt>
      <trkpt lat="45.76551" lon="3.77868">
        <ele>1176</ele>
        <time>2017-05-25T16:21:32Z</time>
      </trkpt>
      <trkpt lat="45.76552" lon="3.77882">
        <ele>1175.800049</ele>
        <time>2017-05-25T16:21:34Z</time>
      </trkpt>
      <trkpt lat="45.76554" lon="3.77897">
        <ele>1175.5</ele>
        <time>2017-05-25T16:21:36Z</time>
      </trkpt>
      <trkpt lat="45.76553" lon="3.77913">
        <ele>1175.099976</ele>
        <time>2017-05-25T16:21:38Z</time>
      </trkpt>
      <trkpt lat="45.76554" lon="3.77928">
        <ele>1174</ele>
        <time>2017-05-25T16:21:40Z</time>
      </trkpt>
      <trkpt lat="45.76553" lon="3.77942">
        <ele>1173.800049</ele>
        <time>2017-05-25T16:21:42Z</time>
      </trkpt>
      <trkpt lat="45.76552" lon="3.77957">
        <ele>1173.300049</ele>
        <time>2017-05-25T16:21:44Z</time>
      </trkpt>
      <trkpt lat="45.76552" lon="3.77972">
        <ele>1173</ele>
        <time>2017-05-25T16:21:46Z</time>
      </trkpt>
      <trkpt lat="45.76553" lon="3.77986">
        <ele>1172.699951</ele>
        <time>2017-05-25T16:21:48Z</time>
      </trkpt>
      <trkpt lat="45.76549" lon="3.78">
        <ele>1172.199951</ele>
        <time>2017-05-25T16:21:50Z</time>
      </trkpt>
      <trkpt lat="45.76543" lon="3.78014">
        <ele>1171.699951</ele>
        <time>2017-05-25T16:21:52Z</time>
      </trkpt>
      <trkpt lat="45.76538" lon="3.78034">
        <ele>1171</ele>
        <time>2017-05-25T16:21:54Z</time>
      </trkpt>
      <trkpt lat="45.76533" lon="3.78056">
        <ele>1170.099976</ele>
        <time>2017-05-25T16:21:56Z</time>
      </trkpt>
      <trkpt lat="45.76528" lon="3.78076">
        <ele>1169.199951</ele>
        <time>2017-05-25T16:21:58Z</time>
      </trkpt>
      <trkpt lat="45.76523" lon="3.78094">
        <ele>1168.300049</ele>
        <time>2017-05-25T16:22:00Z</time>
      </trkpt>
      <trkpt lat="45.76517" lon="3.78108">
        <ele>1167.199951</ele>
        <time>2017-05-25T16:22:02Z</time>
      </trkpt>
      <trkpt lat="45.76513" lon="3.78123">
        <ele>1166.199951</ele>
        <time>2017-05-25T16:22:04Z</time>
      </trkpt>
      <trkpt lat="45.76508" lon="3.78137">
        <ele>1165.300049</ele>
        <time>2017-05-25T16:22:06Z</time>
      </trkpt>
      <trkpt lat="45.76502" lon="3.78151">
        <ele>1164.900024</ele>
        <time>2017-05-25T16:22:08Z</time>
      </trkpt>
      <trkpt lat="45.76494" lon="3.78166">
        <ele>1164.199951</ele>
        <time>2017-05-25T16:22:10Z</time>
      </trkpt>
      <trkpt lat="45.76488" lon="3.78179">
        <ele>1163.300049</ele>
        <time>2017-05-25T16:22:12Z</time>
      </trkpt>
      <trkpt lat="45.76481" lon="3.78196">
        <ele>1162.599976</ele>
        <time>2017-05-25T16:22:14Z</time>
      </trkpt>
      <trkpt lat="45.76474" lon="3.78212">
        <ele>1161.800049</ele>
        <time>2017-05-25T16:22:16Z</time>
      </trkpt>
      <trkpt lat="45.7647" lon="3.78226">
        <ele>1161</ele>
        <time>2017-05-25T16:22:18Z</time>
      </trkpt>
      <trkpt lat="45.76467" lon="3.78245">
        <ele>1159.300049</ele>
        <time>2017-05-25T16:22:21Z</time>
      </trkpt>
      <trkpt lat="45.76465" lon="3.78259">
        <ele>1157.099976</ele>
        <time>2017-05-25T16:22:24Z</time>
      </trkpt>
      <trkpt lat="45.76463" lon="3.78273">
        <ele>1155</ele>
        <time>2017-05-25T16:22:27Z</time>
      </trkpt>
      <trkpt lat="45.76464" lon="3.78286">
        <ele>1152.900024</ele>
        <time>2017-05-25T16:22:30Z</time>
      </trkpt>
      <trkpt lat="45.76463" lon="3.783">
        <ele>1150.900024</ele>
        <time>2017-05-25T16:22:33Z</time>
      </trkpt>
      <trkpt lat="45.76463" lon="3.78315">
        <ele>1149</ele>
        <time>2017-05-25T16:22:36Z</time>
      </trkpt>
      <trkpt lat="45.76463" lon="3.78329">
        <ele>1147.5</ele>
        <time>2017-05-25T16:22:39Z</time>
      </trkpt>
      <trkpt lat="45.76463" lon="3.78346">
        <ele>1145.599976</ele>
        <time>2017-05-25T16:22:43Z</time>
      </trkpt>
      <trkpt lat="45.76464" lon="3.78361">
        <ele>1144.199951</ele>
        <time>2017-05-25T16:22:46Z</time>
      </trkpt>
      <trkpt lat="45.76466" lon="3.78374">
        <ele>1142.599976</ele>
        <time>2017-05-25T16:22:49Z</time>
      </trkpt>
      <trkpt lat="45.76467" lon="3.78388">
        <ele>1141.5</ele>
        <time>2017-05-25T16:22:51Z</time>
      </trkpt>
      <trkpt lat="45.7647" lon="3.78404">
        <ele>1140.300049</ele>
        <time>2017-05-25T16:22:54Z</time>
      </trkpt>
      <trkpt lat="45.76472" lon="3.7842">
        <ele>1138.699951</ele>
        <time>2017-05-25T16:22:58Z</time>
      </trkpt>
      <trkpt lat="45.76473" lon="3.78434">
        <ele>1137.400024</ele>
        <time>2017-05-25T16:23:01Z</time>
      </trkpt>
      <trkpt lat="45.76477" lon="3.78454">
        <ele>1136.800049</ele>
        <time>2017-05-25T16:23:04Z</time>
      </trkpt>
      <trkpt lat="45.76481" lon="3.78471">
        <ele>1135.900024</ele>
        <time>2017-05-25T16:23:06Z</time>
      </trkpt>
      <trkpt lat="45.7649" lon="3.78488">
        <ele>1134.800049</ele>
        <time>2017-05-25T16:23:08Z</time>
      </trkpt>
      <trkpt lat="45.76494" lon="3.78502">
        <ele>1133.400024</ele>
        <time>2017-05-25T16:23:10Z</time>
      </trkpt>
      <trkpt lat="45.76503" lon="3.78516">
        <ele>1132.5</ele>
        <time>2017-05-25T16:23:13Z</time>
      </trkpt>
      <trkpt lat="45.76511" lon="3.78524">
        <ele>1131.5</ele>
        <time>2017-05-25T16:23:17Z</time>
      </trkpt>
      <trkpt lat="45.76518" lon="3.78534">
        <ele>1130.400024</ele>
        <time>2017-05-25T16:23:20Z</time>
      </trkpt>
      <trkpt lat="45.76528" lon="3.78543">
        <ele>1129.5</ele>
        <time>2017-05-25T16:23:23Z</time>
      </trkpt>
      <trkpt lat="45.76534" lon="3.78554">
        <ele>1127.199951</ele>
        <time>2017-05-25T16:23:27Z</time>
      </trkpt>
      <trkpt lat="45.76544" lon="3.78559">
        <ele>1126.300049</ele>
        <time>2017-05-25T16:23:31Z</time>
      </trkpt>
      <trkpt lat="45.76555" lon="3.78567">
        <ele>1125</ele>
        <time>2017-05-25T16:23:35Z</time>
      </trkpt>
      <trkpt lat="45.76564" lon="3.78576">
        <ele>1123.400024</ele>
        <time>2017-05-25T16:23:39Z</time>
      </trkpt>
      <trkpt lat="45.76571" lon="3.78584">
        <ele>1122.300049</ele>
        <time>2017-05-25T16:23:42Z</time>
      </trkpt>
      <trkpt lat="45.7658" lon="3.78592">
        <ele>1120.599976</ele>
        <time>2017-05-25T16:23:46Z</time>
      </trkpt>
      <trkpt lat="45.7659" lon="3.78599">
        <ele>1118.599976</ele>
        <time>2017-05-25T16:23:51Z</time>
      </trkpt>
      <trkpt lat="45.76599" lon="3.78607">
        <ele>1117</ele>
        <time>2017-05-25T16:23:54Z</time>
      </trkpt>
      <trkpt lat="45.76608" lon="3.78616">
        <ele>1114.900024</ele>
        <time>2017-05-25T16:23:58Z</time>
      </trkpt>
      <trkpt lat="45.76616" lon="3.78627">
        <ele>1113</ele>
        <time>2017-05-25T16:24:02Z</time>
      </trkpt>
      <trkpt lat="45.7663" lon="3.78639">
        <ele>1109.800049</ele>
        <time>2017-05-25T16:24:08Z</time>
      </trkpt>
      <trkpt lat="45.76638" lon="3.78649">
        <ele>1107.699951</ele>
        <time>2017-05-25T16:24:12Z</time>
      </trkpt>
      <trkpt lat="45.76646" lon="3.78655">
        <ele>1106.199951</ele>
        <time>2017-05-25T16:24:15Z</time>
      </trkpt>
      <trkpt lat="45.76657" lon="3.78662">
        <ele>1104.400024</ele>
        <time>2017-05-25T16:24:19Z</time>
      </trkpt>
      <trkpt lat="45.76669" lon="3.78665">
        <ele>1102.099976</ele>
        <time>2017-05-25T16:24:22Z</time>
      </trkpt>
      <trkpt lat="45.76682" lon="3.78672">
        <ele>1100.400024</ele>
        <time>2017-05-25T16:24:25Z</time>
      </trkpt>
      <trkpt lat="45.76692" lon="3.78677">
        <ele>1099.400024</ele>
        <time>2017-05-25T16:24:27Z</time>
      </trkpt>
      <trkpt lat="45.76704" lon="3.78685">
        <ele>1097.900024</ele>
        <time>2017-05-25T16:24:30Z</time>
      </trkpt>
      <trkpt lat="45.76714" lon="3.78689">
        <ele>1096.300049</ele>
        <time>2017-05-25T16:24:33Z</time>
      </trkpt>
      <trkpt lat="45.76723" lon="3.78696">
        <ele>1093.800049</ele>
        <time>2017-05-25T16:24:37Z</time>
      </trkpt>
      <trkpt lat="45.76732" lon="3.78704">
        <ele>1091.199951</ele>
        <time>2017-05-25T16:24:42Z</time>
      </trkpt>
      <trkpt lat="45.76739" lon="3.78713">
        <ele>1088.800049</ele>
        <time>2017-05-25T16:24:46Z</time>
      </trkpt>
      <trkpt lat="45.76749" lon="3.78723">
        <ele>1087.699951</ele>
        <time>2017-05-25T16:24:49Z</time>
      </trkpt>
      <trkpt lat="45.76758" lon="3.78732">
        <ele>1086.900024</ele>
        <time>2017-05-25T16:24:51Z</time>
      </trkpt>
      <trkpt lat="45.76765" lon="3.78743">
        <ele>1086</ele>
        <time>2017-05-25T16:24:53Z</time>
      </trkpt>
      <trkpt lat="45.76771" lon="3.78755">
        <ele>1085.400024</ele>
        <time>2017-05-25T16:24:55Z</time>
      </trkpt>
      <trkpt lat="45.7678" lon="3.78768">
        <ele>1084.800049</ele>
        <time>2017-05-25T16:24:57Z</time>
      </trkpt>
      <trkpt lat="45.76783" lon="3.7878">
        <ele>1084.099976</ele>
        <time>2017-05-25T16:24:59Z</time>
      </trkpt>
      <trkpt lat="45.76784" lon="3.78793">
        <ele>1080.800049</ele>
        <time>2017-05-25T16:25:06Z</time>
      </trkpt>
      <trkpt lat="45.76792" lon="3.78799">
        <ele>1079.199951</ele>
        <time>2017-05-25T16:25:37Z</time>
      </trkpt>
      <trkpt lat="45.76794" lon="3.78814">
        <ele>1078.800049</ele>
        <time>2017-05-25T16:26:18Z</time>
      </trkpt>
      <trkpt lat="45.76795" lon="3.78829">
        <ele>1078.400024</ele>
        <time>2017-05-25T16:26:21Z</time>
      </trkpt>
      <trkpt lat="45.768" lon="3.7884">
        <ele>1077.199951</ele>
        <time>2017-05-25T16:26:24Z</time>
      </trkpt>
      <trkpt lat="45.76804" lon="3.78858">
        <ele>1076.199951</ele>
        <time>2017-05-25T16:26:27Z</time>
      </trkpt>
      <trkpt lat="45.7681" lon="3.78873">
        <ele>1074.599976</ele>
        <time>2017-05-25T16:26:30Z</time>
      </trkpt>
      <trkpt lat="45.76813" lon="3.78888">
        <ele>1073.699951</ele>
        <time>2017-05-25T16:26:32Z</time>
      </trkpt>
      <trkpt lat="45.76813" lon="3.78902">
        <ele>1072.099976</ele>
        <time>2017-05-25T16:26:35Z</time>
      </trkpt>
      <trkpt lat="45.76816" lon="3.78915">
        <ele>1069.800049</ele>
        <time>2017-05-25T16:26:39Z</time>
      </trkpt>
      <trkpt lat="45.76817" lon="3.78928">
        <ele>1067.099976</ele>
        <time>2017-05-25T16:26:45Z</time>
      </trkpt>
      <trkpt lat="45.76816" lon="3.78941">
        <ele>1063.599976</ele>
        <time>2017-05-25T16:26:59Z</time>
      </trkpt>
      <trkpt lat="45.76815" lon="3.78955">
        <ele>1062.300049</ele>
        <time>2017-05-25T16:27:07Z</time>
      </trkpt>
      <trkpt lat="45.76815" lon="3.78969">
        <ele>1060.800049</ele>
        <time>2017-05-25T16:27:16Z</time>
      </trkpt>
      <trkpt lat="45.76818" lon="3.78983">
        <ele>1059.699951</ele>
        <time>2017-05-25T16:27:19Z</time>
      </trkpt>
      <trkpt lat="45.7682" lon="3.78999">
        <ele>1057.699951</ele>
        <time>2017-05-25T16:27:22Z</time>
      </trkpt>
      <trkpt lat="45.7682" lon="3.79015">
        <ele>1056.199951</ele>
        <time>2017-05-25T16:27:25Z</time>
      </trkpt>
      <trkpt lat="45.76824" lon="3.79029">
        <ele>1054.900024</ele>
        <time>2017-05-25T16:27:28Z</time>
      </trkpt>
      <trkpt lat="45.76829" lon="3.79047">
        <ele>1053</ele>
        <time>2017-05-25T16:27:31Z</time>
      </trkpt>
      <trkpt lat="45.76833" lon="3.79061">
        <ele>1051.599976</ele>
        <time>2017-05-25T16:27:33Z</time>
      </trkpt>
      <trkpt lat="45.76837" lon="3.79078">
        <ele>1050.099976</ele>
        <time>2017-05-25T16:27:35Z</time>
      </trkpt>
      <trkpt lat="45.76841" lon="3.79096">
        <ele>1048.599976</ele>
        <time>2017-05-25T16:27:37Z</time>
      </trkpt>
      <trkpt lat="45.76844" lon="3.79114">
        <ele>1047.199951</ele>
        <time>2017-05-25T16:27:39Z</time>
      </trkpt>
      <trkpt lat="45.76848" lon="3.79134">
        <ele>1045.199951</ele>
        <time>2017-05-25T16:27:41Z</time>
      </trkpt>
      <trkpt lat="45.76851" lon="3.79152">
        <ele>1043.400024</ele>
        <time>2017-05-25T16:27:43Z</time>
      </trkpt>
      <trkpt lat="45.76858" lon="3.7917">
        <ele>1040.900024</ele>
        <time>2017-05-25T16:27:46Z</time>
      </trkpt>
      <trkpt lat="45.76863" lon="3.79184">
        <ele>1038.400024</ele>
        <time>2017-05-25T16:27:49Z</time>
      </trkpt>
      <trkpt lat="45.76866" lon="3.79197">
        <ele>1036.5</ele>
        <time>2017-05-25T16:27:51Z</time>
      </trkpt>
      <trkpt lat="45.76869" lon="3.79218">
        <ele>1034.699951</ele>
        <time>2017-05-25T16:27:53Z</time>
      </trkpt>
      <trkpt lat="45.76874" lon="3.79233">
        <ele>1033.099976</ele>
        <time>2017-05-25T16:27:55Z</time>
      </trkpt>
      <trkpt lat="45.76881" lon="3.7925">
        <ele>1030.800049</ele>
        <time>2017-05-25T16:27:57Z</time>
      </trkpt>
      <trkpt lat="45.76891" lon="3.7927">
        <ele>1028.699951</ele>
        <time>2017-05-25T16:27:59Z</time>
      </trkpt>
      <trkpt lat="45.76904" lon="3.79289">
        <ele>1026.599976</ele>
        <time>2017-05-25T16:28:01Z</time>
      </trkpt>
      <trkpt lat="45.76906" lon="3.79306">
        <ele>1025.699951</ele>
        <time>2017-05-25T16:28:02Z</time>
      </trkpt>
      <trkpt lat="45.76913" lon="3.79326">
        <ele>1024</ele>
        <time>2017-05-25T16:28:04Z</time>
      </trkpt>
      <trkpt lat="45.76922" lon="3.79348">
        <ele>1022.200012</ele>
        <time>2017-05-25T16:28:06Z</time>
      </trkpt>
      <trkpt lat="45.7693" lon="3.79365">
        <ele>1020.299988</ele>
        <time>2017-05-25T16:28:08Z</time>
      </trkpt>
      <trkpt lat="45.76937" lon="3.79383">
        <ele>1018.200012</ele>
        <time>2017-05-25T16:28:10Z</time>
      </trkpt>
      <trkpt lat="45.76951" lon="3.794">
        <ele>1016.5</ele>
        <time>2017-05-25T16:28:12Z</time>
      </trkpt>
      <trkpt lat="45.76961" lon="3.79416">
        <ele>1015.099976</ele>
        <time>2017-05-25T16:28:14Z</time>
      </trkpt>
      <trkpt lat="45.76974" lon="3.79426">
        <ele>1014.099976</ele>
        <time>2017-05-25T16:28:15Z</time>
      </trkpt>
      <trkpt lat="45.76984" lon="3.79435">
        <ele>1013.299988</ele>
        <time>2017-05-25T16:28:16Z</time>
      </trkpt>
      <trkpt lat="45.76991" lon="3.79444">
        <ele>1012.400024</ele>
        <time>2017-05-25T16:28:17Z</time>
      </trkpt>
      <trkpt lat="45.76998" lon="3.79452">
        <ele>1011.700012</ele>
        <time>2017-05-25T16:28:18Z</time>
      </trkpt>
      <trkpt lat="45.77007" lon="3.79459">
        <ele>1011</ele>
        <time>2017-05-25T16:28:19Z</time>
      </trkpt>
      <trkpt lat="45.7702" lon="3.7947">
        <ele>1009.599976</ele>
        <time>2017-05-25T16:28:21Z</time>
      </trkpt>
      <trkpt lat="45.77029" lon="3.79478">
        <ele>1008.299988</ele>
        <time>2017-05-25T16:28:23Z</time>
      </trkpt>
      <trkpt lat="45.77037" lon="3.79484">
        <ele>1006.799988</ele>
        <time>2017-05-25T16:28:25Z</time>
      </trkpt>
      <trkpt lat="45.77046" lon="3.79489">
        <ele>1004.799988</ele>
        <time>2017-05-25T16:28:28Z</time>
      </trkpt>
      <trkpt lat="45.77056" lon="3.79493">
        <ele>1002</ele>
        <time>2017-05-25T16:28:45Z</time>
      </trkpt>
      <trkpt lat="45.77065" lon="3.79503">
        <ele>1001.400024</ele>
        <time>2017-05-25T16:29:33Z</time>
      </trkpt>
      <trkpt lat="45.77076" lon="3.79508">
        <ele>1001.5</ele>
        <time>2017-05-25T16:29:37Z</time>
      </trkpt>
      <trkpt lat="45.77088" lon="3.79515">
        <ele>1001.5</ele>
        <time>2017-05-25T16:29:40Z</time>
      </trkpt>
      <trkpt lat="45.77096" lon="3.79522">
        <ele>1001.400024</ele>
        <time>2017-05-25T16:29:42Z</time>
      </trkpt>
      <trkpt lat="45.77103" lon="3.79531">
        <ele>1001</ele>
        <time>2017-05-25T16:29:44Z</time>
      </trkpt>
      <trkpt lat="45.77111" lon="3.79539">
        <ele>1000.5</ele>
        <time>2017-05-25T16:29:46Z</time>
      </trkpt>
      <trkpt lat="45.7712" lon="3.79549">
        <ele>999.799988</ele>
        <time>2017-05-25T16:29:48Z</time>
      </trkpt>
      <trkpt lat="45.77127" lon="3.79561">
        <ele>998.700012</ele>
        <time>2017-05-25T16:29:50Z</time>
      </trkpt>
      <trkpt lat="45.77135" lon="3.79576">
        <ele>997.400024</ele>
        <time>2017-05-25T16:29:52Z</time>
      </trkpt>
      <trkpt lat="45.77142" lon="3.79592">
        <ele>996.099976</ele>
        <time>2017-05-25T16:29:54Z</time>
      </trkpt>
      <trkpt lat="45.77151" lon="3.79608">
        <ele>994.900024</ele>
        <time>2017-05-25T16:29:56Z</time>
      </trkpt>
      <trkpt lat="45.77162" lon="3.79629">
        <ele>993.200012</ele>
        <time>2017-05-25T16:29:58Z</time>
      </trkpt>
      <trkpt lat="45.77168" lon="3.79641">
        <ele>992.400024</ele>
        <time>2017-05-25T16:29:59Z</time>
      </trkpt>
      <trkpt lat="45.77174" lon="3.79652">
        <ele>991.599976</ele>
        <time>2017-05-25T16:30:00Z</time>
      </trkpt>
      <trkpt lat="45.77179" lon="3.79663">
        <ele>990.799988</ele>
        <time>2017-05-25T16:30:01Z</time>
      </trkpt>
      <trkpt lat="45.77189" lon="3.79683">
        <ele>989</ele>
        <time>2017-05-25T16:30:03Z</time>
      </trkpt>
      <trkpt lat="45.77196" lon="3.79702">
        <ele>986.900024</ele>
        <time>2017-05-25T16:30:05Z</time>
      </trkpt>
      <trkpt lat="45.77203" lon="3.79723">
        <ele>985.099976</ele>
        <time>2017-05-25T16:30:07Z</time>
      </trkpt>
      <trkpt lat="45.7721" lon="3.79742">
        <ele>983.599976</ele>
        <time>2017-05-25T16:30:09Z</time>
      </trkpt>
      <trkpt lat="45.77219" lon="3.79758">
        <ele>982.299988</ele>
        <time>2017-05-25T16:30:11Z</time>
      </trkpt>
      <trkpt lat="45.77227" lon="3.7977">
        <ele>981.200012</ele>
        <time>2017-05-25T16:30:13Z</time>
      </trkpt>
      <trkpt lat="45.77235" lon="3.7978">
        <ele>980.200012</ele>
        <time>2017-05-25T16:30:15Z</time>
      </trkpt>
      <trkpt lat="45.77245" lon="3.7979">
        <ele>979.599976</ele>
        <time>2017-05-25T16:30:17Z</time>
      </trkpt>
      <trkpt lat="45.77253" lon="3.79802">
        <ele>979</ele>
        <time>2017-05-25T16:30:19Z</time>
      </trkpt>
      <trkpt lat="45.77259" lon="3.79815">
        <ele>978.5</ele>
        <time>2017-05-25T16:30:21Z</time>
      </trkpt>
      <trkpt lat="45.77265" lon="3.79829">
        <ele>978.200012</ele>
        <time>2017-05-25T16:30:23Z</time>
      </trkpt>
      <trkpt lat="45.77273" lon="3.79842">
        <ele>977.900024</ele>
        <time>2017-05-25T16:30:25Z</time>
      </trkpt>
      <trkpt lat="45.77282" lon="3.79854">
        <ele>977.599976</ele>
        <time>2017-05-25T16:30:27Z</time>
      </trkpt>
      <trkpt lat="45.77292" lon="3.79864">
        <ele>977.299988</ele>
        <time>2017-05-25T16:30:29Z</time>
      </trkpt>
      <trkpt lat="45.77303" lon="3.79872">
        <ele>977</ele>
        <time>2017-05-25T16:30:31Z</time>
      </trkpt>
      <trkpt lat="45.77314" lon="3.7988">
        <ele>976.900024</ele>
        <time>2017-05-25T16:30:33Z</time>
      </trkpt>
      <trkpt lat="45.77324" lon="3.79888">
        <ele>976.599976</ele>
        <time>2017-05-25T16:30:35Z</time>
      </trkpt>
      <trkpt lat="45.77334" lon="3.79896">
        <ele>976.400024</ele>
        <time>2017-05-25T16:30:37Z</time>
      </trkpt>
      <trkpt lat="45.77345" lon="3.79901">
        <ele>976.200012</ele>
        <time>2017-05-25T16:30:39Z</time>
      </trkpt>
      <trkpt lat="45.77357" lon="3.79906">
        <ele>976</ele>
        <time>2017-05-25T16:30:41Z</time>
      </trkpt>
      <trkpt lat="45.7737" lon="3.79912">
        <ele>975.599976</ele>
        <time>2017-05-25T16:30:43Z</time>
      </trkpt>
      <trkpt lat="45.77385" lon="3.7992">
        <ele>974.799988</ele>
        <time>2017-05-25T16:30:45Z</time>
      </trkpt>
      <trkpt lat="45.77401" lon="3.7993">
        <ele>973.799988</ele>
        <time>2017-05-25T16:30:47Z</time>
      </trkpt>
      <trkpt lat="45.77416" lon="3.7994">
        <ele>972.799988</ele>
        <time>2017-05-25T16:30:49Z</time>
      </trkpt>
      <trkpt lat="45.77429" lon="3.79953">
        <ele>971.200012</ele>
        <time>2017-05-25T16:30:51Z</time>
      </trkpt>
      <trkpt lat="45.77439" lon="3.79971">
        <ele>969.400024</ele>
        <time>2017-05-25T16:30:53Z</time>
      </trkpt>
      <trkpt lat="45.77448" lon="3.79991">
        <ele>968.099976</ele>
        <time>2017-05-25T16:30:55Z</time>
      </trkpt>
      <trkpt lat="45.77453" lon="3.80013">
        <ele>967.099976</ele>
        <time>2017-05-25T16:30:57Z</time>
      </trkpt>
      <trkpt lat="45.77457" lon="3.80033">
        <ele>965.900024</ele>
        <time>2017-05-25T16:30:59Z</time>
      </trkpt>
      <trkpt lat="45.77462" lon="3.80058">
        <ele>960.799988</ele>
        <time>2017-05-25T16:31:31Z</time>
      </trkpt>
      <trkpt lat="45.77469" lon="3.80073">
        <ele>960.900024</ele>
        <time>2017-05-25T16:31:34Z</time>
      </trkpt>
      <trkpt lat="45.77473" lon="3.80085">
        <ele>960.799988</ele>
        <time>2017-05-25T16:31:36Z</time>
      </trkpt>
      <trkpt lat="45.77478" lon="3.80097">
        <ele>960.599976</ele>
        <time>2017-05-25T16:31:38Z</time>
      </trkpt>
      <trkpt lat="45.77484" lon="3.80109">
        <ele>960.599976</ele>
        <time>2017-05-25T16:31:40Z</time>
      </trkpt>
      <trkpt lat="45.77489" lon="3.80123">
        <ele>960.299988</ele>
        <time>2017-05-25T16:31:42Z</time>
      </trkpt>
      <trkpt lat="45.77494" lon="3.80136">
        <ele>960.200012</ele>
        <time>2017-05-25T16:31:44Z</time>
      </trkpt>
      <trkpt lat="45.77499" lon="3.8015">
        <ele>960.099976</ele>
        <time>2017-05-25T16:31:46Z</time>
      </trkpt>
      <trkpt lat="45.77504" lon="3.80164">
        <ele>960.200012</ele>
        <time>2017-05-25T16:31:48Z</time>
      </trkpt>
      <trkpt lat="45.77509" lon="3.80176">
        <ele>960.200012</ele>
        <time>2017-05-25T16:31:50Z</time>
      </trkpt>
      <trkpt lat="45.77512" lon="3.8019">
        <ele>960.200012</ele>
        <time>2017-05-25T16:31:52Z</time>
      </trkpt>
      <trkpt lat="45.77516" lon="3.80201">
        <ele>959.900024</ele>
        <time>2017-05-25T16:31:54Z</time>
      </trkpt>
      <trkpt lat="45.7752" lon="3.80218">
        <ele>959.900024</ele>
        <time>2017-05-25T16:31:57Z</time>
      </trkpt>
      <trkpt lat="45.77524" lon="3.80235">
        <ele>960.099976</ele>
        <time>2017-05-25T16:32:00Z</time>
      </trkpt>
      <trkpt lat="45.77525" lon="3.80248">
        <ele>960.400024</ele>
        <time>2017-05-25T16:32:02Z</time>
      </trkpt>
      <trkpt lat="45.77526" lon="3.80262">
        <ele>960.400024</ele>
        <time>2017-05-25T16:32:04Z</time>
      </trkpt>
      <trkpt lat="45.77526" lon="3.80276">
        <ele>959.900024</ele>
        <time>2017-05-25T16:32:06Z</time>
      </trkpt>
      <trkpt lat="45.77525" lon="3.8029">
        <ele>959.799988</ele>
        <time>2017-05-25T16:32:08Z</time>
      </trkpt>
      <trkpt lat="45.77524" lon="3.80305">
        <ele>959.099976</ele>
        <time>2017-05-25T16:32:10Z</time>
      </trkpt>
      <trkpt lat="45.77525" lon="3.8032">
        <ele>958.5</ele>
        <time>2017-05-25T16:32:12Z</time>
      </trkpt>
      <trkpt lat="45.77525" lon="3.80337">
        <ele>958.200012</ele>
        <time>2017-05-25T16:32:14Z</time>
      </trkpt>
      <trkpt lat="45.77525" lon="3.80353">
        <ele>957.5</ele>
        <time>2017-05-25T16:32:16Z</time>
      </trkpt>
      <trkpt lat="45.77527" lon="3.8037">
        <ele>956.299988</ele>
        <time>2017-05-25T16:32:18Z</time>
      </trkpt>
      <trkpt lat="45.7753" lon="3.80389">
        <ele>955.599976</ele>
        <time>2017-05-25T16:32:20Z</time>
      </trkpt>
      <trkpt lat="45.7753" lon="3.80409">
        <ele>954.799988</ele>
        <time>2017-05-25T16:32:22Z</time>
      </trkpt>
      <trkpt lat="45.77529" lon="3.80427">
        <ele>953.900024</ele>
        <time>2017-05-25T16:32:24Z</time>
      </trkpt>
      <trkpt lat="45.77525" lon="3.80442">
        <ele>952.900024</ele>
        <time>2017-05-25T16:32:26Z</time>
      </trkpt>
      <trkpt lat="45.77523" lon="3.80459">
        <ele>952.099976</ele>
        <time>2017-05-25T16:32:28Z</time>
      </trkpt>
      <trkpt lat="45.77524" lon="3.80477">
        <ele>951.299988</ele>
        <time>2017-05-25T16:32:30Z</time>
      </trkpt>
      <trkpt lat="45.77526" lon="3.80493">
        <ele>950.200012</ele>
        <time>2017-05-25T16:32:32Z</time>
      </trkpt>
      <trkpt lat="45.77528" lon="3.80511">
        <ele>949.400024</ele>
        <time>2017-05-25T16:32:34Z</time>
      </trkpt>
      <trkpt lat="45.77531" lon="3.80527">
        <ele>948.5</ele>
        <time>2017-05-25T16:32:36Z</time>
      </trkpt>
      <trkpt lat="45.77535" lon="3.80543">
        <ele>948</ele>
        <time>2017-05-25T16:32:38Z</time>
      </trkpt>
      <trkpt lat="45.77538" lon="3.80558">
        <ele>947.599976</ele>
        <time>2017-05-25T16:32:40Z</time>
      </trkpt>
      <trkpt lat="45.77542" lon="3.80574">
        <ele>947</ele>
        <time>2017-05-25T16:32:42Z</time>
      </trkpt>
      <trkpt lat="45.77547" lon="3.80592">
        <ele>946.5</ele>
        <time>2017-05-25T16:32:44Z</time>
      </trkpt>
      <trkpt lat="45.77553" lon="3.8061">
        <ele>945.900024</ele>
        <time>2017-05-25T16:32:46Z</time>
      </trkpt>
      <trkpt lat="45.7756" lon="3.80625">
        <ele>945.299988</ele>
        <time>2017-05-25T16:32:48Z</time>
      </trkpt>
      <trkpt lat="45.77567" lon="3.80639">
        <ele>944.400024</ele>
        <time>2017-05-25T16:32:50Z</time>
      </trkpt>
      <trkpt lat="45.77573" lon="3.80652">
        <ele>943.700012</ele>
        <time>2017-05-25T16:32:52Z</time>
      </trkpt>
      <trkpt lat="45.77579" lon="3.80665">
        <ele>942.700012</ele>
        <time>2017-05-25T16:32:54Z</time>
      </trkpt>
      <trkpt lat="45.77587" lon="3.80677">
        <ele>941.799988</ele>
        <time>2017-05-25T16:32:56Z</time>
      </trkpt>
      <trkpt lat="45.77598" lon="3.80689">
        <ele>940.900024</ele>
        <time>2017-05-25T16:32:58Z</time>
      </trkpt>
      <trkpt lat="45.77605" lon="3.80704">
        <ele>939.900024</ele>
        <time>2017-05-25T16:33:00Z</time>
      </trkpt>
      <trkpt lat="45.7761" lon="3.80719">
        <ele>939.200012</ele>
        <time>2017-05-25T16:33:02Z</time>
      </trkpt>
    </trkseg>
  </trk>
</gpx>